<?xml version="1.0" encoding="UTF-8"?>
<gpx version="1.1" creator="2bulu-scraper" xmlns="http://www.topografix.com/GPX/1/1">
  <metadata><name>2026-07-22 09:32:18</name><desc>source: 2bulu.com trackId=87410797; exported 2026-09-01T19:17:29.896Z</desc>
    <bounds minlat="28.628823" minlon="105.042098" maxlat="28.719969" maxlon="105.10065"/>
    <link href="https://www.2bulu.com/track/t-31KNzjOssvbp%252FR2KBg5Tzw%253D%253D.htm"><text>2bulu 源页面</text></link>
  </metadata>
  <wpt lat="28.706659" lon="105.043023"><ele>317</ele><name></name></wpt>
  <wpt lat="28.706422" lon="105.043436"><ele>323</ele><name>二陡岩隧道旁</name></wpt>
  <wpt lat="28.70515" lon="105.043368"><ele>394</ele><name>庞仙洞</name></wpt>
  <wpt lat="28.705087" lon="105.043286"><ele>393</ele><name></name></wpt>
  <wpt lat="28.705025" lon="105.042936"><ele>397</ele><name></name></wpt>
  <wpt lat="28.704942" lon="105.042505"><ele>398</ele><name></name></wpt>
  <wpt lat="28.70568" lon="105.045912"><ele>409</ele><name>上马路走左边</name></wpt>
  <wpt lat="28.706692" lon="105.04639"><ele>418</ele><name></name></wpt>
  <wpt lat="28.708091" lon="105.045905"><ele>397</ele><name>寨门</name></wpt>
  <wpt lat="28.7172" lon="105.063536"><ele>388</ele><name>百年老黄果树</name></wpt>
  <wpt lat="28.715541" lon="105.062541"><ele>411</ele><name></name></wpt>
  <wpt lat="28.715588" lon="105.062356"><ele>387</ele><name></name></wpt>
  <wpt lat="28.715038" lon="105.061857"><ele>375</ele><name>古龙洞</name></wpt>
  <wpt lat="28.714795" lon="105.061794"><ele>373</ele><name></name></wpt>
  <wpt lat="28.714496" lon="105.06151"><ele>367</ele><name>红佛寺</name></wpt>
  <wpt lat="28.714738" lon="105.061064"><ele>359</ele><name></name></wpt>
  <wpt lat="28.715897" lon="105.05759"><ele>433</ele><name>龙翔亭</name></wpt>
  <wpt lat="28.7163" lon="105.057693"><ele>434</ele><name>江安景色</name></wpt>
  <wpt lat="28.715805" lon="105.056866"><ele>440</ele><name></name></wpt>
  <wpt lat="28.707965" lon="105.061915"><ele>403</ele><name>萝卜基地下去</name></wpt>
  <wpt lat="28.711505" lon="105.063354"><ele>407</ele><name></name></wpt>
  <wpt lat="28.711516" lon="105.063246"><ele>407</ele><name>打卡点</name></wpt>
  <wpt lat="28.711491" lon="105.0632"><ele>408</ele><name></name></wpt>
  <wpt lat="28.705533" lon="105.06939"><ele>334</ele><name>海市蜃楼</name></wpt>
  <wpt lat="28.703645" lon="105.075437"><ele>327</ele><name>犀牛驼水库</name></wpt>
  <wpt lat="28.708042" lon="105.082914"><ele>459</ele><name>招财石</name></wpt>
  <wpt lat="28.707757" lon="105.08555"><ele>490</ele><name>同义观景台</name></wpt>
  <wpt lat="28.707154" lon="105.085728"><ele>490</ele><name>乌木阵</name></wpt>
  <wpt lat="28.707416" lon="105.085948"><ele>495</ele><name>金丝楠木展馆</name></wpt>
  <wpt lat="28.70711" lon="105.086181"><ele>491</ele><name>茶香别院农家乐</name></wpt>
  <wpt lat="28.707885" lon="105.089376"><ele>520</ele><name>胡佯洞观景台</name></wpt>
  <wpt lat="28.707476" lon="105.089948"><ele>535</ele><name>升仙石观景台</name></wpt>
  <wpt lat="28.707204" lon="105.09028"><ele>517</ele><name></name></wpt>
  <wpt lat="28.706251" lon="105.092543"><ele>496</ele><name>胡祥真人</name></wpt>
  <wpt lat="28.705107" lon="105.094001"><ele>536</ele><name>胡佯洞观景亭</name></wpt>
  <wpt lat="28.701502" lon="105.091667"><ele>549</ele><name>铜锣井</name></wpt>
  <wpt lat="28.692835" lon="105.08996"><ele>416</ele><name>桃花潭</name></wpt>
  <wpt lat="28.692912" lon="105.08645"><ele>415</ele><name>桃花源桃林</name></wpt>
  <wpt lat="28.689401" lon="105.081502"><ele>407</ele><name>爱情溪</name></wpt>
  <wpt lat="28.689796" lon="105.081376"><ele>401</ele><name>峡谷</name></wpt>
  <wpt lat="28.69126" lon="105.079617"><ele>376</ele><name>高山流水</name></wpt>
  <wpt lat="28.688432" lon="105.082632"><ele>423</ele><name>爱情长滩</name></wpt>
  <wpt lat="28.670457" lon="105.081581"><ele>511</ele><name>七个洞</name></wpt>
  <wpt lat="28.658723" lon="105.093837"><ele>640</ele><name>双石包</name></wpt>
  <wpt lat="28.657546" lon="105.099566"><ele>608</ele><name>金仙洞外风景</name></wpt>
  <wpt lat="28.657588" lon="105.100151"><ele>612</ele><name>金仙洞</name></wpt>
  <wpt lat="28.634011" lon="105.07155"><ele>548</ele><name>插旗山</name></wpt>
  <wpt lat="28.63493" lon="105.071002"><ele>568</ele><name>观景台</name></wpt>
  <wpt lat="28.635064" lon="105.06989"><ele>595</ele><name>红岩榜</name></wpt>
  <wpt lat="28.635087" lon="105.069761"><ele>589</ele><name></name></wpt>
  <wpt lat="28.635325" lon="105.069005"><ele>582</ele><name>龙脊梁</name></wpt>
  <wpt lat="28.635129" lon="105.067063"><ele>609</ele><name>360度观景台</name></wpt>
  <wpt lat="28.634559" lon="105.066659"><ele>605</ele><name>红龙山观景台</name></wpt>
  <wpt lat="28.634275" lon="105.064941"><ele>597</ele><name>红岩赋广场</name></wpt>
  <wpt lat="28.634437" lon="105.060931"><ele>579</ele><name>一线天</name></wpt>
  <wpt lat="28.632144" lon="105.061473"><ele>540</ele><name>石锣石鼓</name></wpt>
  <wpt lat="28.629084" lon="105.062222"><ele>515</ele><name>柿子文化步道</name></wpt>
  <wpt lat="28.630499" lon="105.057155"><ele>500</ele><name>柿柿如意广场</name></wpt>
  <wpt lat="28.632612" lon="105.059823"><ele>544</ele><name>马颈亭</name></wpt>
  <wpt lat="28.632633" lon="105.059781"><ele>561</ele><name>马颈亭观景</name></wpt>
  <wpt lat="28.635367" lon="105.054162"><ele>567</ele><name>龙蟠亭观景</name></wpt>
  <wpt lat="28.635362" lon="105.053915"><ele>562</ele><name>龙蟠亭</name></wpt>
  <wpt lat="28.634373" lon="105.052126"><ele>481</ele><name>临时抱佛脚</name></wpt>
  <wpt lat="28.634319" lon="105.052037"><ele>488</ele><name></name></wpt>
  <wpt lat="28.634487" lon="105.051284"><ele>497</ele><name>半边寺</name></wpt>
  <wpt lat="28.634086" lon="105.046144"><ele>567</ele><name>虎踞亭外观景</name></wpt>
  <wpt lat="28.63407" lon="105.046125"><ele>567</ele><name>龙蟠虎踞亭</name></wpt>
  <trk><name>2026-07-22 09:32:18</name>
      <trkseg>
        <trkpt lat="28.708045" lon="105.042156"><ele>301.84494</ele><time>2026-07-21T17:32:19.000Z</time></trkpt>
        <trkpt lat="28.708015" lon="105.042205"><ele>300.7972</ele><time>2026-07-21T17:32:27.000Z</time></trkpt>
        <trkpt lat="28.707992" lon="105.042236"><ele>300.8693</ele><time>2026-07-21T17:32:29.000Z</time></trkpt>
        <trkpt lat="28.707967" lon="105.042263"><ele>300.99286</ele><time>2026-07-21T17:32:31.000Z</time></trkpt>
        <trkpt lat="28.707943" lon="105.042287"><ele>301.0441</ele><time>2026-07-21T17:32:33.000Z</time></trkpt>
        <trkpt lat="28.707921" lon="105.042304"><ele>301.36093</ele><time>2026-07-21T17:32:35.000Z</time></trkpt>
        <trkpt lat="28.707901" lon="105.042315"><ele>300.98462</ele><time>2026-07-21T17:32:37.000Z</time></trkpt>
        <trkpt lat="28.707881" lon="105.042324"><ele>301.93143</ele><time>2026-07-21T17:32:39.000Z</time></trkpt>
        <trkpt lat="28.707863" lon="105.042331"><ele>301.92715</ele><time>2026-07-21T17:32:41.000Z</time></trkpt>
        <trkpt lat="28.707847" lon="105.042334"><ele>302.45618</ele><time>2026-07-21T17:32:43.000Z</time></trkpt>
        <trkpt lat="28.707834" lon="105.042332"><ele>302.7642</ele><time>2026-07-21T17:32:45.000Z</time></trkpt>
        <trkpt lat="28.707821" lon="105.042324"><ele>303.03503</ele><time>2026-07-21T17:32:47.000Z</time></trkpt>
        <trkpt lat="28.707808" lon="105.042312"><ele>303.1803</ele><time>2026-07-21T17:32:49.000Z</time></trkpt>
        <trkpt lat="28.707797" lon="105.042301"><ele>303.42133</ele><time>2026-07-21T17:32:51.000Z</time></trkpt>
        <trkpt lat="28.70779" lon="105.042291"><ele>303.9523</ele><time>2026-07-21T17:32:53.000Z</time></trkpt>
        <trkpt lat="28.707784" lon="105.042286"><ele>304.40826</ele><time>2026-07-21T17:32:55.000Z</time></trkpt>
        <trkpt lat="28.707946" lon="105.04241"><ele>304.99326</ele><time>2026-07-21T17:33:03.000Z</time></trkpt>
        <trkpt lat="28.707946" lon="105.04241"><ele>304.56903</ele><time>2026-07-21T17:33:05.000Z</time></trkpt>
        <trkpt lat="28.707955" lon="105.042414"><ele>304.09393</ele><time>2026-07-21T17:33:07.000Z</time></trkpt>
        <trkpt lat="28.707402" lon="105.042099"><ele>302.12506</ele><time>2026-07-21T17:33:34.000Z</time></trkpt>
        <trkpt lat="28.707402" lon="105.042099"><ele>304.33478</ele><time>2026-07-21T17:33:36.000Z</time></trkpt>
        <trkpt lat="28.707403" lon="105.042098"><ele>305.82208</ele><time>2026-07-21T17:33:38.000Z</time></trkpt>
        <trkpt lat="28.707271" lon="105.042307"><ele>309.83197</ele><time>2026-07-21T17:34:17.000Z</time></trkpt>
        <trkpt lat="28.707253" lon="105.042331"><ele>310.1756</ele><time>2026-07-21T17:34:18.000Z</time></trkpt>
        <trkpt lat="28.707236" lon="105.04235"><ele>309.95206</ele><time>2026-07-21T17:34:20.000Z</time></trkpt>
        <trkpt lat="28.70722" lon="105.042368"><ele>310.0231</ele><time>2026-07-21T17:34:22.000Z</time></trkpt>
        <trkpt lat="28.707205" lon="105.042384"><ele>309.8068</ele><time>2026-07-21T17:34:24.000Z</time></trkpt>
        <trkpt lat="28.707191" lon="105.042399"><ele>310.08444</ele><time>2026-07-21T17:34:26.000Z</time></trkpt>
        <trkpt lat="28.707178" lon="105.042412"><ele>309.90607</ele><time>2026-07-21T17:34:28.000Z</time></trkpt>
        <trkpt lat="28.707165" lon="105.042423"><ele>310.18347</ele><time>2026-07-21T17:34:30.000Z</time></trkpt>
        <trkpt lat="28.707152" lon="105.042435"><ele>310.6645</ele><time>2026-07-21T17:34:32.000Z</time></trkpt>
        <trkpt lat="28.70714" lon="105.042446"><ele>311.10626</ele><time>2026-07-21T17:34:34.000Z</time></trkpt>
        <trkpt lat="28.707126" lon="105.042459"><ele>311.1021</ele><time>2026-07-21T17:34:36.000Z</time></trkpt>
        <trkpt lat="28.707114" lon="105.042472"><ele>311.62473</ele><time>2026-07-21T17:34:38.000Z</time></trkpt>
        <trkpt lat="28.707101" lon="105.042486"><ele>312.4337</ele><time>2026-07-21T17:34:40.000Z</time></trkpt>
        <trkpt lat="28.707088" lon="105.042502"><ele>312.5617</ele><time>2026-07-21T17:34:42.000Z</time></trkpt>
        <trkpt lat="28.707075" lon="105.042518"><ele>312.8856</ele><time>2026-07-21T17:34:44.000Z</time></trkpt>
        <trkpt lat="28.707063" lon="105.042533"><ele>313.5603</ele><time>2026-07-21T17:34:46.000Z</time></trkpt>
        <trkpt lat="28.707051" lon="105.042548"><ele>314.75006</ele><time>2026-07-21T17:34:48.000Z</time></trkpt>
        <trkpt lat="28.707039" lon="105.042562"><ele>313.96454</ele><time>2026-07-21T17:34:50.000Z</time></trkpt>
        <trkpt lat="28.707027" lon="105.042579"><ele>315.24478</ele><time>2026-07-21T17:34:52.000Z</time></trkpt>
        <trkpt lat="28.707015" lon="105.042597"><ele>315.04745</ele><time>2026-07-21T17:34:54.000Z</time></trkpt>
        <trkpt lat="28.707001" lon="105.042618"><ele>316.33606</ele><time>2026-07-21T17:34:56.000Z</time></trkpt>
        <trkpt lat="28.706986" lon="105.042639"><ele>316.80423</ele><time>2026-07-21T17:34:58.000Z</time></trkpt>
        <trkpt lat="28.706971" lon="105.042659"><ele>316.31628</ele><time>2026-07-21T17:35:00.000Z</time></trkpt>
        <trkpt lat="28.706957" lon="105.042677"><ele>316.16302</ele><time>2026-07-21T17:35:02.000Z</time></trkpt>
        <trkpt lat="28.706943" lon="105.042695"><ele>316.65543</ele><time>2026-07-21T17:35:04.000Z</time></trkpt>
        <trkpt lat="28.706927" lon="105.042713"><ele>316.80124</ele><time>2026-07-21T17:35:06.000Z</time></trkpt>
        <trkpt lat="28.706914" lon="105.042729"><ele>316.37576</ele><time>2026-07-21T17:35:08.000Z</time></trkpt>
        <trkpt lat="28.7069" lon="105.042742"><ele>316.70374</ele><time>2026-07-21T17:35:10.000Z</time></trkpt>
        <trkpt lat="28.706886" lon="105.042756"><ele>317.01617</ele><time>2026-07-21T17:35:12.000Z</time></trkpt>
        <trkpt lat="28.706871" lon="105.042771"><ele>317.3014</ele><time>2026-07-21T17:35:14.000Z</time></trkpt>
        <trkpt lat="28.706856" lon="105.042788"><ele>316.92236</ele><time>2026-07-21T17:35:16.000Z</time></trkpt>
        <trkpt lat="28.70684" lon="105.042806"><ele>317.744</ele><time>2026-07-21T17:35:18.000Z</time></trkpt>
        <trkpt lat="28.706825" lon="105.042825"><ele>316.85226</ele><time>2026-07-21T17:35:21.000Z</time></trkpt>
        <trkpt lat="28.70681" lon="105.042848"><ele>317.61838</ele><time>2026-07-21T17:35:23.000Z</time></trkpt>
        <trkpt lat="28.706798" lon="105.04287"><ele>317.80115</ele><time>2026-07-21T17:35:25.000Z</time></trkpt>
        <trkpt lat="28.706785" lon="105.042893"><ele>317.91736</ele><time>2026-07-21T17:35:27.000Z</time></trkpt>
        <trkpt lat="28.706773" lon="105.042913"><ele>318.98505</ele><time>2026-07-21T17:35:29.000Z</time></trkpt>
        <trkpt lat="28.706762" lon="105.042932"><ele>318.06943</ele><time>2026-07-21T17:35:31.000Z</time></trkpt>
        <trkpt lat="28.70675" lon="105.04295"><ele>318.49182</ele><time>2026-07-21T17:35:33.000Z</time></trkpt>
        <trkpt lat="28.706738" lon="105.042966"><ele>317.70676</ele><time>2026-07-21T17:35:35.000Z</time></trkpt>
        <trkpt lat="28.706724" lon="105.042984"><ele>317.6838</ele><time>2026-07-21T17:35:37.000Z</time></trkpt>
        <trkpt lat="28.706708" lon="105.042997"><ele>316.89694</ele><time>2026-07-21T17:35:39.000Z</time></trkpt>
        <trkpt lat="28.706695" lon="105.043003"><ele>315.80515</ele><time>2026-07-21T17:35:41.000Z</time></trkpt>
        <trkpt lat="28.70668" lon="105.043009"><ele>316.25696</ele><time>2026-07-21T17:35:43.000Z</time></trkpt>
        <trkpt lat="28.706665" lon="105.043014"><ele>316.1189</ele><time>2026-07-21T17:35:45.000Z</time></trkpt>
        <trkpt lat="28.706656" lon="105.043019"><ele>316.78748</ele><time>2026-07-21T17:35:47.000Z</time></trkpt>
        <trkpt lat="28.706649" lon="105.043023"><ele>317.09326</ele><time>2026-07-21T17:35:49.000Z</time></trkpt>
        <trkpt lat="28.706649" lon="105.043024"><ele>316.81708</ele><time>2026-07-21T17:35:51.000Z</time></trkpt>
        <trkpt lat="28.706655" lon="105.043045"><ele>316.56308</ele><time>2026-07-21T17:36:01.000Z</time></trkpt>
        <trkpt lat="28.706672" lon="105.043025"><ele>317.67987</ele><time>2026-07-21T17:36:03.000Z</time></trkpt>
        <trkpt lat="28.706672" lon="105.043024"><ele>316.85843</ele><time>2026-07-21T17:36:05.000Z</time></trkpt>
        <trkpt lat="28.706671" lon="105.043027"><ele>316.02176</ele><time>2026-07-21T17:36:07.000Z</time></trkpt>
        <trkpt lat="28.706675" lon="105.043051"><ele>313.8678</ele><time>2026-07-21T17:36:13.000Z</time></trkpt>
        <trkpt lat="28.706684" lon="105.043099"><ele>313.1318</ele><time>2026-07-21T17:36:15.000Z</time></trkpt>
        <trkpt lat="28.706684" lon="105.043099"><ele>313.50247</ele><time>2026-07-21T17:36:17.000Z</time></trkpt>
        <trkpt lat="28.70668" lon="105.043098"><ele>313.2274</ele><time>2026-07-21T17:36:19.000Z</time></trkpt>
        <trkpt lat="28.706655" lon="105.043093"><ele>314.2995</ele><time>2026-07-21T17:36:24.000Z</time></trkpt>
        <trkpt lat="28.706655" lon="105.043093"><ele>314.68573</ele><time>2026-07-21T17:36:26.000Z</time></trkpt>
        <trkpt lat="28.706658" lon="105.04309"><ele>313.88727</ele><time>2026-07-21T17:36:28.000Z</time></trkpt>
        <trkpt lat="28.706676" lon="105.043071"><ele>313.46036</ele><time>2026-07-21T17:36:34.000Z</time></trkpt>
        <trkpt lat="28.706678" lon="105.043068"><ele>313.35367</ele><time>2026-07-21T17:36:36.000Z</time></trkpt>
        <trkpt lat="28.706639" lon="105.043132"><ele>313.27142</ele><time>2026-07-21T17:36:43.000Z</time></trkpt>
        <trkpt lat="28.706632" lon="105.043145"><ele>313.52136</ele><time>2026-07-21T17:36:45.000Z</time></trkpt>
        <trkpt lat="28.706632" lon="105.043146"><ele>314.41226</ele><time>2026-07-21T17:36:47.000Z</time></trkpt>
        <trkpt lat="28.706619" lon="105.043191"><ele>316.77216</ele><time>2026-07-21T17:36:53.000Z</time></trkpt>
        <trkpt lat="28.706612" lon="105.04321"><ele>316.25858</ele><time>2026-07-21T17:36:55.000Z</time></trkpt>
        <trkpt lat="28.706604" lon="105.043225"><ele>316.23776</ele><time>2026-07-21T17:36:57.000Z</time></trkpt>
        <trkpt lat="28.706597" lon="105.043236"><ele>316.06958</ele><time>2026-07-21T17:36:59.000Z</time></trkpt>
        <trkpt lat="28.706591" lon="105.043243"><ele>316.12866</ele><time>2026-07-21T17:37:01.000Z</time></trkpt>
        <trkpt lat="28.706585" lon="105.043248"><ele>315.71884</ele><time>2026-07-21T17:37:05.000Z</time></trkpt>
        <trkpt lat="28.706577" lon="105.043256"><ele>316.1528</ele><time>2026-07-21T17:37:09.000Z</time></trkpt>
        <trkpt lat="28.706572" lon="105.043261"><ele>315.90402</ele><time>2026-07-21T17:37:12.000Z</time></trkpt>
        <trkpt lat="28.706568" lon="105.043267"><ele>315.88528</ele><time>2026-07-21T17:37:14.000Z</time></trkpt>
        <trkpt lat="28.706562" lon="105.043275"><ele>316.33295</ele><time>2026-07-21T17:37:18.000Z</time></trkpt>
        <trkpt lat="28.706557" lon="105.043285"><ele>316.32697</ele><time>2026-07-21T17:37:22.000Z</time></trkpt>
        <trkpt lat="28.706557" lon="105.04329"><ele>316.5121</ele><time>2026-07-21T17:37:26.000Z</time></trkpt>
        <trkpt lat="28.706555" lon="105.043309"><ele>316.88174</ele><time>2026-07-21T17:37:38.000Z</time></trkpt>
        <trkpt lat="28.706554" lon="105.043316"><ele>317.1399</ele><time>2026-07-21T17:37:40.000Z</time></trkpt>
        <trkpt lat="28.706553" lon="105.043323"><ele>316.93918</ele><time>2026-07-21T17:37:42.000Z</time></trkpt>
        <trkpt lat="28.706545" lon="105.04334"><ele>317.01108</ele><time>2026-07-21T17:37:50.000Z</time></trkpt>
        <trkpt lat="28.706517" lon="105.043378"><ele>317.77704</ele><time>2026-07-21T17:38:05.000Z</time></trkpt>
        <trkpt lat="28.706511" lon="105.043387"><ele>317.817</ele><time>2026-07-21T17:38:07.000Z</time></trkpt>
        <trkpt lat="28.70651" lon="105.043387"><ele>318.39948</ele><time>2026-07-21T17:38:09.000Z</time></trkpt>
        <trkpt lat="28.706489" lon="105.043405"><ele>318.81924</ele><time>2026-07-21T17:38:11.000Z</time></trkpt>
        <trkpt lat="28.706488" lon="105.043405"><ele>319.2482</ele><time>2026-07-21T17:38:13.000Z</time></trkpt>
        <trkpt lat="28.706485" lon="105.043406"><ele>319.85004</ele><time>2026-07-21T17:38:15.000Z</time></trkpt>
        <trkpt lat="28.706459" lon="105.043418"><ele>320.51498</ele><time>2026-07-21T17:38:19.000Z</time></trkpt>
        <trkpt lat="28.706444" lon="105.043424"><ele>320.74753</ele><time>2026-07-21T17:38:21.000Z</time></trkpt>
        <trkpt lat="28.706429" lon="105.043431"><ele>321.3823</ele><time>2026-07-21T17:38:23.000Z</time></trkpt>
        <trkpt lat="28.70642" lon="105.043436"><ele>321.66907</ele><time>2026-07-21T17:38:25.000Z</time></trkpt>
        <trkpt lat="28.706415" lon="105.043435"><ele>322.102</ele><time>2026-07-21T17:38:27.000Z</time></trkpt>
        <trkpt lat="28.706391" lon="105.04343"><ele>323.1111</ele><time>2026-07-21T17:39:08.000Z</time></trkpt>
        <trkpt lat="28.70638" lon="105.043442"><ele>323.9861</ele><time>2026-07-21T17:39:10.000Z</time></trkpt>
        <trkpt lat="28.706367" lon="105.043453"><ele>323.79044</ele><time>2026-07-21T17:39:12.000Z</time></trkpt>
        <trkpt lat="28.706345" lon="105.043471"><ele>324.30725</ele><time>2026-07-21T17:39:15.000Z</time></trkpt>
        <trkpt lat="28.706345" lon="105.043471"><ele>324.65704</ele><time>2026-07-21T17:39:17.000Z</time></trkpt>
        <trkpt lat="28.70633" lon="105.04348"><ele>325.53906</ele><time>2026-07-21T17:39:22.000Z</time></trkpt>
        <trkpt lat="28.706314" lon="105.043489"><ele>326.20898</ele><time>2026-07-21T17:39:24.000Z</time></trkpt>
        <trkpt lat="28.7063" lon="105.043497"><ele>326.29178</ele><time>2026-07-21T17:39:26.000Z</time></trkpt>
        <trkpt lat="28.706287" lon="105.043502"><ele>326.72433</ele><time>2026-07-21T17:39:28.000Z</time></trkpt>
        <trkpt lat="28.706276" lon="105.043507"><ele>327.0261</ele><time>2026-07-21T17:39:30.000Z</time></trkpt>
        <trkpt lat="28.706267" lon="105.043509"><ele>327.41055</ele><time>2026-07-21T17:39:32.000Z</time></trkpt>
        <trkpt lat="28.706257" lon="105.04351"><ele>327.22437</ele><time>2026-07-21T17:39:34.000Z</time></trkpt>
        <trkpt lat="28.706249" lon="105.043509"><ele>327.70905</ele><time>2026-07-21T17:39:36.000Z</time></trkpt>
        <trkpt lat="28.706243" lon="105.043511"><ele>328.31424</ele><time>2026-07-21T17:39:38.000Z</time></trkpt>
        <trkpt lat="28.706231" lon="105.043514"><ele>327.7439</ele><time>2026-07-21T17:39:42.000Z</time></trkpt>
        <trkpt lat="28.706224" lon="105.043517"><ele>326.42545</ele><time>2026-07-21T17:39:46.000Z</time></trkpt>
        <trkpt lat="28.706217" lon="105.043518"><ele>325.48187</ele><time>2026-07-21T17:39:48.000Z</time></trkpt>
        <trkpt lat="28.706203" lon="105.043517"><ele>327.44672</ele><time>2026-07-21T17:39:52.000Z</time></trkpt>
        <trkpt lat="28.706197" lon="105.043515"><ele>328.59927</ele><time>2026-07-21T17:39:54.000Z</time></trkpt>
        <trkpt lat="28.706192" lon="105.043512"><ele>329.65247</ele><time>2026-07-21T17:39:56.000Z</time></trkpt>
        <trkpt lat="28.706178" lon="105.043501"><ele>331.55817</ele><time>2026-07-21T17:40:04.000Z</time></trkpt>
        <trkpt lat="28.706172" lon="105.043495"><ele>332.5367</ele><time>2026-07-21T17:40:08.000Z</time></trkpt>
        <trkpt lat="28.70616" lon="105.04349"><ele>332.62558</ele><time>2026-07-21T17:40:14.000Z</time></trkpt>
        <trkpt lat="28.706152" lon="105.043494"><ele>333.94147</ele><time>2026-07-21T17:40:20.000Z</time></trkpt>
        <trkpt lat="28.706137" lon="105.043505"><ele>333.4009</ele><time>2026-07-21T17:40:32.000Z</time></trkpt>
        <trkpt lat="28.706113" lon="105.04352"><ele>331.56882</ele><time>2026-07-21T17:40:35.000Z</time></trkpt>
        <trkpt lat="28.706113" lon="105.04352"><ele>330.7428</ele><time>2026-07-21T17:40:37.000Z</time></trkpt>
        <trkpt lat="28.706091" lon="105.043536"><ele>328.4334</ele><time>2026-07-21T17:40:43.000Z</time></trkpt>
        <trkpt lat="28.70607" lon="105.043546"><ele>326.2977</ele><time>2026-07-21T17:40:49.000Z</time></trkpt>
        <trkpt lat="28.70607" lon="105.043546"><ele>325.59387</ele><time>2026-07-21T17:40:51.000Z</time></trkpt>
        <trkpt lat="28.706042" lon="105.043484"><ele>330.0871</ele><time>2026-07-21T17:41:03.000Z</time></trkpt>
        <trkpt lat="28.706042" lon="105.043484"><ele>330.2014</ele><time>2026-07-21T17:41:05.000Z</time></trkpt>
        <trkpt lat="28.70604" lon="105.043481"><ele>329.789</ele><time>2026-07-21T17:41:07.000Z</time></trkpt>
        <trkpt lat="28.706006" lon="105.043431"><ele>334.28467</ele><time>2026-07-21T17:41:23.000Z</time></trkpt>
        <trkpt lat="28.706002" lon="105.043428"><ele>333.6422</ele><time>2026-07-21T17:41:25.000Z</time></trkpt>
        <trkpt lat="28.705997" lon="105.043425"><ele>333.26443</ele><time>2026-07-21T17:41:28.000Z</time></trkpt>
        <trkpt lat="28.705952" lon="105.043392"><ele>332.9145</ele><time>2026-07-21T17:41:38.000Z</time></trkpt>
        <trkpt lat="28.705949" lon="105.043386"><ele>332.85538</ele><time>2026-07-21T17:41:40.000Z</time></trkpt>
        <trkpt lat="28.705944" lon="105.043382"><ele>332.0528</ele><time>2026-07-21T17:41:42.000Z</time></trkpt>
        <trkpt lat="28.705903" lon="105.043342"><ele>333.74518</ele><time>2026-07-21T17:42:00.000Z</time></trkpt>
        <trkpt lat="28.705903" lon="105.043339"><ele>334.50516</ele><time>2026-07-21T17:42:02.000Z</time></trkpt>
        <trkpt lat="28.705902" lon="105.043339"><ele>335.36215</ele><time>2026-07-21T17:42:04.000Z</time></trkpt>
        <trkpt lat="28.705832" lon="105.043346"><ele>331.7952</ele><time>2026-07-21T17:42:41.000Z</time></trkpt>
        <trkpt lat="28.705807" lon="105.043349"><ele>329.93356</ele><time>2026-07-21T17:42:43.000Z</time></trkpt>
        <trkpt lat="28.705807" lon="105.043349"><ele>329.2438</ele><time>2026-07-21T17:42:45.000Z</time></trkpt>
        <trkpt lat="28.705802" lon="105.043406"><ele>329.60553</ele><time>2026-07-21T17:42:55.000Z</time></trkpt>
        <trkpt lat="28.705802" lon="105.043406"><ele>333.80453</ele><time>2026-07-21T17:42:57.000Z</time></trkpt>
        <trkpt lat="28.705822" lon="105.043405"><ele>337.23572</ele><time>2026-07-21T17:42:59.000Z</time></trkpt>
        <trkpt lat="28.705793" lon="105.04336"><ele>339.31625</ele><time>2026-07-21T17:43:22.000Z</time></trkpt>
        <trkpt lat="28.705782" lon="105.043343"><ele>344.59885</ele><time>2026-07-21T17:43:24.000Z</time></trkpt>
        <trkpt lat="28.705782" lon="105.043343"><ele>347.8713</ele><time>2026-07-21T17:43:26.000Z</time></trkpt>
        <trkpt lat="28.705751" lon="105.043364"><ele>341.86932</ele><time>2026-07-21T17:43:34.000Z</time></trkpt>
        <trkpt lat="28.705746" lon="105.043366"><ele>342.77582</ele><time>2026-07-21T17:43:36.000Z</time></trkpt>
        <trkpt lat="28.705732" lon="105.043372"><ele>341.18146</ele><time>2026-07-21T17:43:38.000Z</time></trkpt>
        <trkpt lat="28.705719" lon="105.043371"><ele>335.587</ele><time>2026-07-21T17:43:46.000Z</time></trkpt>
        <trkpt lat="28.705697" lon="105.043371"><ele>335.1269</ele><time>2026-07-21T17:43:48.000Z</time></trkpt>
        <trkpt lat="28.705697" lon="105.04337"><ele>335.63336</ele><time>2026-07-21T17:43:50.000Z</time></trkpt>
        <trkpt lat="28.705691" lon="105.043364"><ele>335.9417</ele><time>2026-07-21T17:43:54.000Z</time></trkpt>
        <trkpt lat="28.705667" lon="105.043342"><ele>335.4666</ele><time>2026-07-21T17:43:58.000Z</time></trkpt>
        <trkpt lat="28.705667" lon="105.043342"><ele>335.34003</ele><time>2026-07-21T17:44:00.000Z</time></trkpt>
        <trkpt lat="28.705666" lon="105.043342"><ele>335.13507</ele><time>2026-07-21T17:44:02.000Z</time></trkpt>
        <trkpt lat="28.705632" lon="105.04334"><ele>335.4012</ele><time>2026-07-21T17:44:08.000Z</time></trkpt>
        <trkpt lat="28.705622" lon="105.04334"><ele>334.95975</ele><time>2026-07-21T17:44:10.000Z</time></trkpt>
        <trkpt lat="28.705587" lon="105.043339"><ele>334.76016</ele><time>2026-07-21T17:44:17.000Z</time></trkpt>
        <trkpt lat="28.705581" lon="105.043339"><ele>333.54825</ele><time>2026-07-21T17:44:19.000Z</time></trkpt>
        <trkpt lat="28.70557" lon="105.04334"><ele>334.38672</ele><time>2026-07-21T17:44:21.000Z</time></trkpt>
        <trkpt lat="28.705558" lon="105.043338"><ele>336.04547</ele><time>2026-07-21T17:44:25.000Z</time></trkpt>
        <trkpt lat="28.705546" lon="105.043335"><ele>336.10452</ele><time>2026-07-21T17:44:27.000Z</time></trkpt>
        <trkpt lat="28.705546" lon="105.043336"><ele>336.76257</ele><time>2026-07-21T17:44:29.000Z</time></trkpt>
        <trkpt lat="28.705538" lon="105.04334"><ele>337.7227</ele><time>2026-07-21T17:44:33.000Z</time></trkpt>
        <trkpt lat="28.705519" lon="105.043348"><ele>338.31732</ele><time>2026-07-21T17:44:35.000Z</time></trkpt>
        <trkpt lat="28.705519" lon="105.043348"><ele>339.4206</ele><time>2026-07-21T17:44:37.000Z</time></trkpt>
        <trkpt lat="28.705504" lon="105.043344"><ele>339.7271</ele><time>2026-07-21T17:44:43.000Z</time></trkpt>
        <trkpt lat="28.705489" lon="105.043341"><ele>339.6263</ele><time>2026-07-21T17:44:45.000Z</time></trkpt>
        <trkpt lat="28.705488" lon="105.04334"><ele>340.12842</ele><time>2026-07-21T17:44:47.000Z</time></trkpt>
        <trkpt lat="28.705482" lon="105.043339"><ele>340.87366</ele><time>2026-07-21T17:44:51.000Z</time></trkpt>
        <trkpt lat="28.705462" lon="105.043337"><ele>341.61426</ele><time>2026-07-21T17:44:53.000Z</time></trkpt>
        <trkpt lat="28.705461" lon="105.043337"><ele>340.2761</ele><time>2026-07-21T17:44:55.000Z</time></trkpt>
        <trkpt lat="28.705455" lon="105.043333"><ele>341.17798</ele><time>2026-07-21T17:44:59.000Z</time></trkpt>
        <trkpt lat="28.705481" lon="105.043353"><ele>343.35754</ele><time>2026-07-21T17:45:11.000Z</time></trkpt>
        <trkpt lat="28.705495" lon="105.043363"><ele>343.6285</ele><time>2026-07-21T17:45:13.000Z</time></trkpt>
        <trkpt lat="28.705495" lon="105.043364"><ele>344.49667</ele><time>2026-07-21T17:45:15.000Z</time></trkpt>
        <trkpt lat="28.705495" lon="105.043364"><ele>344.72318</ele><time>2026-07-21T17:45:17.000Z</time></trkpt>
        <trkpt lat="28.705505" lon="105.043378"><ele>344.56467</ele><time>2026-07-21T17:45:23.000Z</time></trkpt>
        <trkpt lat="28.70551" lon="105.043386"><ele>344.7766</ele><time>2026-07-21T17:45:25.000Z</time></trkpt>
        <trkpt lat="28.705539" lon="105.043431"><ele>347.25702</ele><time>2026-07-21T17:45:40.000Z</time></trkpt>
        <trkpt lat="28.705564" lon="105.043466"><ele>358.32034</ele><time>2026-07-21T17:45:52.000Z</time></trkpt>
        <trkpt lat="28.705573" lon="105.04348"><ele>360.28635</ele><time>2026-07-21T17:45:54.000Z</time></trkpt>
        <trkpt lat="28.705573" lon="105.043479"><ele>362.40894</ele><time>2026-07-21T17:45:56.000Z</time></trkpt>
        <trkpt lat="28.705545" lon="105.043489"><ele>361.7711</ele><time>2026-07-21T17:46:04.000Z</time></trkpt>
        <trkpt lat="28.705519" lon="105.043465"><ele>365.89728</ele><time>2026-07-21T17:46:06.000Z</time></trkpt>
        <trkpt lat="28.705519" lon="105.043466"><ele>368.231</ele><time>2026-07-21T17:46:08.000Z</time></trkpt>
        <trkpt lat="28.705518" lon="105.043467"><ele>366.8867</ele><time>2026-07-21T17:46:10.000Z</time></trkpt>
        <trkpt lat="28.705504" lon="105.043493"><ele>368.33453</ele><time>2026-07-21T17:46:18.000Z</time></trkpt>
        <trkpt lat="28.705501" lon="105.043494"><ele>366.45535</ele><time>2026-07-21T17:46:20.000Z</time></trkpt>
        <trkpt lat="28.705501" lon="105.043493"><ele>365.88715</ele><time>2026-07-21T17:46:22.000Z</time></trkpt>
        <trkpt lat="28.705486" lon="105.043458"><ele>371.33783</ele><time>2026-07-21T17:46:28.000Z</time></trkpt>
        <trkpt lat="28.705479" lon="105.04345"><ele>372.34625</ele><time>2026-07-21T17:46:30.000Z</time></trkpt>
        <trkpt lat="28.705473" lon="105.043446"><ele>373.08142</ele><time>2026-07-21T17:46:32.000Z</time></trkpt>
        <trkpt lat="28.705453" lon="105.043433"><ele>372.26675</ele><time>2026-07-21T17:46:38.000Z</time></trkpt>
        <trkpt lat="28.705436" lon="105.043457"><ele>368.03217</ele><time>2026-07-21T17:46:42.000Z</time></trkpt>
        <trkpt lat="28.705435" lon="105.04346"><ele>364.0866</ele><time>2026-07-21T17:46:46.000Z</time></trkpt>
        <trkpt lat="28.705431" lon="105.043478"><ele>363.31647</ele><time>2026-07-21T17:46:50.000Z</time></trkpt>
        <trkpt lat="28.705424" lon="105.043507"><ele>362.33542</ele><time>2026-07-21T17:46:56.000Z</time></trkpt>
        <trkpt lat="28.705424" lon="105.043507"><ele>363.26108</ele><time>2026-07-21T17:46:58.000Z</time></trkpt>
        <trkpt lat="28.705486" lon="105.043462"><ele>371.5425</ele><time>2026-07-21T17:47:04.000Z</time></trkpt>
        <trkpt lat="28.705486" lon="105.043462"><ele>370.30484</ele><time>2026-07-21T17:47:06.000Z</time></trkpt>
        <trkpt lat="28.705485" lon="105.043465"><ele>372.31354</ele><time>2026-07-21T17:47:08.000Z</time></trkpt>
        <trkpt lat="28.705462" lon="105.043523"><ele>373.11566</ele><time>2026-07-21T17:47:14.000Z</time></trkpt>
        <trkpt lat="28.705453" lon="105.043535"><ele>375.9837</ele><time>2026-07-21T17:47:16.000Z</time></trkpt>
        <trkpt lat="28.705454" lon="105.043538"><ele>375.9515</ele><time>2026-07-21T17:47:18.000Z</time></trkpt>
        <trkpt lat="28.705413" lon="105.04347"><ele>378.6685</ele><time>2026-07-21T17:47:26.000Z</time></trkpt>
        <trkpt lat="28.705414" lon="105.04347"><ele>378.18018</ele><time>2026-07-21T17:47:28.000Z</time></trkpt>
        <trkpt lat="28.705415" lon="105.043473"><ele>377.60916</ele><time>2026-07-21T17:47:30.000Z</time></trkpt>
        <trkpt lat="28.705437" lon="105.043536"><ele>377.96436</ele><time>2026-07-21T17:48:01.000Z</time></trkpt>
        <trkpt lat="28.705285" lon="105.0435"><ele>374.17477</ele><time>2026-07-21T17:48:31.000Z</time></trkpt>
        <trkpt lat="28.705285" lon="105.0435"><ele>379.58423</ele><time>2026-07-21T17:48:33.000Z</time></trkpt>
        <trkpt lat="28.705281" lon="105.043494"><ele>383.65808</ele><time>2026-07-21T17:48:35.000Z</time></trkpt>
        <trkpt lat="28.705239" lon="105.043437"><ele>386.84738</ele><time>2026-07-21T17:48:39.000Z</time></trkpt>
        <trkpt lat="28.705218" lon="105.04342"><ele>388.27664</ele><time>2026-07-21T17:48:41.000Z</time></trkpt>
        <trkpt lat="28.7052" lon="105.043413"><ele>388.5648</ele><time>2026-07-21T17:48:43.000Z</time></trkpt>
        <trkpt lat="28.705186" lon="105.043413"><ele>389.50793</ele><time>2026-07-21T17:48:45.000Z</time></trkpt>
        <trkpt lat="28.70517" lon="105.043416"><ele>389.857</ele><time>2026-07-21T17:48:47.000Z</time></trkpt>
        <trkpt lat="28.705162" lon="105.043423"><ele>391.372</ele><time>2026-07-21T17:48:49.000Z</time></trkpt>
        <trkpt lat="28.70514" lon="105.043441"><ele>392.68585</ele><time>2026-07-21T17:48:55.000Z</time></trkpt>
        <trkpt lat="28.70514" lon="105.043441"><ele>393.75372</ele><time>2026-07-21T17:48:57.000Z</time></trkpt>
        <trkpt lat="28.705218" lon="105.043459"><ele>393.5217</ele><time>2026-07-21T17:49:05.000Z</time></trkpt>
        <trkpt lat="28.705218" lon="105.043459"><ele>393.10156</ele><time>2026-07-21T17:49:07.000Z</time></trkpt>
        <trkpt lat="28.705216" lon="105.043459"><ele>392.85156</ele><time>2026-07-21T17:49:09.000Z</time></trkpt>
        <trkpt lat="28.705178" lon="105.04345"><ele>392.44333</ele><time>2026-07-21T17:49:21.000Z</time></trkpt>
        <trkpt lat="28.705144" lon="105.043442"><ele>393.35947</ele><time>2026-07-21T17:49:23.000Z</time></trkpt>
        <trkpt lat="28.705144" lon="105.043441"><ele>394.35538</ele><time>2026-07-21T17:49:25.000Z</time></trkpt>
        <trkpt lat="28.70514" lon="105.043412"><ele>394.44568</ele><time>2026-07-21T17:49:29.000Z</time></trkpt>
        <trkpt lat="28.705129" lon="105.043373"><ele>392.50375</ele><time>2026-07-21T17:49:33.000Z</time></trkpt>
        <trkpt lat="28.705122" lon="105.04336"><ele>392.40262</ele><time>2026-07-21T17:49:35.000Z</time></trkpt>
        <trkpt lat="28.705114" lon="105.043341"><ele>392.8013</ele><time>2026-07-21T17:49:37.000Z</time></trkpt>
        <trkpt lat="28.705103" lon="105.043307"><ele>393.66388</ele><time>2026-07-21T17:49:41.000Z</time></trkpt>
        <trkpt lat="28.705098" lon="105.043303"><ele>394.43015</ele><time>2026-07-21T17:49:43.000Z</time></trkpt>
        <trkpt lat="28.705173" lon="105.043367"><ele>393.64136</ele><time>2026-07-21T17:49:51.000Z</time></trkpt>
        <trkpt lat="28.705189" lon="105.043381"><ele>393.76212</ele><time>2026-07-21T17:49:53.000Z</time></trkpt>
        <trkpt lat="28.705198" lon="105.043387"><ele>393.46103</ele><time>2026-07-21T17:49:55.000Z</time></trkpt>
        <trkpt lat="28.705097" lon="105.043327"><ele>391.14642</ele><time>2026-07-21T17:50:28.000Z</time></trkpt>
        <trkpt lat="28.705097" lon="105.043327"><ele>391.60083</ele><time>2026-07-21T17:50:30.000Z</time></trkpt>
        <trkpt lat="28.705096" lon="105.043324"><ele>391.4711</ele><time>2026-07-21T17:50:32.000Z</time></trkpt>
        <trkpt lat="28.705064" lon="105.043249"><ele>394.28268</ele><time>2026-07-21T17:50:56.000Z</time></trkpt>
        <trkpt lat="28.705063" lon="105.043249"><ele>393.82767</ele><time>2026-07-21T17:50:58.000Z</time></trkpt>
        <trkpt lat="28.705061" lon="105.043246"><ele>394.79492</ele><time>2026-07-21T17:51:00.000Z</time></trkpt>
        <trkpt lat="28.704995" lon="105.043178"><ele>397.18585</ele><time>2026-07-21T17:51:23.000Z</time></trkpt>
        <trkpt lat="28.704995" lon="105.043178"><ele>397.4692</ele><time>2026-07-21T17:51:25.000Z</time></trkpt>
        <trkpt lat="28.704997" lon="105.043126"><ele>397.18216</ele><time>2026-07-21T17:51:27.000Z</time></trkpt>
        <trkpt lat="28.705" lon="105.043088"><ele>398.00446</ele><time>2026-07-21T17:51:33.000Z</time></trkpt>
        <trkpt lat="28.705012" lon="105.04297"><ele>397.5104</ele><time>2026-07-21T17:51:35.000Z</time></trkpt>
        <trkpt lat="28.705013" lon="105.042963"><ele>397.11188</ele><time>2026-07-21T17:51:37.000Z</time></trkpt>
        <trkpt lat="28.705012" lon="105.04296"><ele>397.59506</ele><time>2026-07-21T17:51:39.000Z</time></trkpt>
        <trkpt lat="28.704952" lon="105.042885"><ele>396.2883</ele><time>2026-07-21T17:52:34.000Z</time></trkpt>
        <trkpt lat="28.704889" lon="105.04292"><ele>395.7661</ele><time>2026-07-21T17:52:36.000Z</time></trkpt>
        <trkpt lat="28.704885" lon="105.04292"><ele>396.67783</ele><time>2026-07-21T17:52:38.000Z</time></trkpt>
        <trkpt lat="28.704837" lon="105.042924"><ele>399.9881</ele><time>2026-07-21T17:52:44.000Z</time></trkpt>
        <trkpt lat="28.704732" lon="105.042933"><ele>400.63733</ele><time>2026-07-21T17:52:46.000Z</time></trkpt>
        <trkpt lat="28.704727" lon="105.042931"><ele>401.28876</ele><time>2026-07-21T17:52:48.000Z</time></trkpt>
        <trkpt lat="28.704727" lon="105.042931"><ele>400.99365</ele><time>2026-07-21T17:52:50.000Z</time></trkpt>
        <trkpt lat="28.704767" lon="105.042866"><ele>401.94122</ele><time>2026-07-21T17:53:00.000Z</time></trkpt>
        <trkpt lat="28.704777" lon="105.042856"><ele>401.59723</ele><time>2026-07-21T17:53:02.000Z</time></trkpt>
        <trkpt lat="28.704784" lon="105.04285"><ele>401.72632</ele><time>2026-07-21T17:53:04.000Z</time></trkpt>
        <trkpt lat="28.704823" lon="105.042821"><ele>402.10934</ele><time>2026-07-21T17:53:10.000Z</time></trkpt>
        <trkpt lat="28.704841" lon="105.042809"><ele>402.31985</ele><time>2026-07-21T17:53:12.000Z</time></trkpt>
        <trkpt lat="28.704857" lon="105.042793"><ele>402.11255</ele><time>2026-07-21T17:53:14.000Z</time></trkpt>
        <trkpt lat="28.704865" lon="105.042778"><ele>401.75693</ele><time>2026-07-21T17:53:16.000Z</time></trkpt>
        <trkpt lat="28.70488" lon="105.042754"><ele>399.1386</ele><time>2026-07-21T17:53:20.000Z</time></trkpt>
        <trkpt lat="28.704886" lon="105.042743"><ele>398.4146</ele><time>2026-07-21T17:53:22.000Z</time></trkpt>
        <trkpt lat="28.704894" lon="105.042727"><ele>398.4435</ele><time>2026-07-21T17:53:24.000Z</time></trkpt>
        <trkpt lat="28.704912" lon="105.042689"><ele>399.05167</ele><time>2026-07-21T17:53:28.000Z</time></trkpt>
        <trkpt lat="28.704923" lon="105.04267"><ele>399.49026</ele><time>2026-07-21T17:53:30.000Z</time></trkpt>
        <trkpt lat="28.704933" lon="105.04265"><ele>399.88483</ele><time>2026-07-21T17:53:32.000Z</time></trkpt>
        <trkpt lat="28.704936" lon="105.042635"><ele>399.89856</ele><time>2026-07-21T17:53:34.000Z</time></trkpt>
        <trkpt lat="28.704941" lon="105.042622"><ele>399.28412</ele><time>2026-07-21T17:53:36.000Z</time></trkpt>
        <trkpt lat="28.704951" lon="105.042593"><ele>398.3458</ele><time>2026-07-21T17:53:40.000Z</time></trkpt>
        <trkpt lat="28.704957" lon="105.04258"><ele>397.9132</ele><time>2026-07-21T17:53:42.000Z</time></trkpt>
        <trkpt lat="28.704961" lon="105.042569"><ele>397.987</ele><time>2026-07-21T17:53:44.000Z</time></trkpt>
        <trkpt lat="28.704964" lon="105.042551"><ele>397.48068</ele><time>2026-07-21T17:53:48.000Z</time></trkpt>
        <trkpt lat="28.704966" lon="105.04253"><ele>397.8994</ele><time>2026-07-21T17:53:52.000Z</time></trkpt>
        <trkpt lat="28.704966" lon="105.04252"><ele>397.68234</ele><time>2026-07-21T17:53:54.000Z</time></trkpt>
        <trkpt lat="28.704959" lon="105.042513"><ele>397.90015</ele><time>2026-07-21T17:53:58.000Z</time></trkpt>
        <trkpt lat="28.704938" lon="105.042506"><ele>397.54883</ele><time>2026-07-21T17:54:04.000Z</time></trkpt>
        <trkpt lat="28.705001" lon="105.042531"><ele>399.24643</ele><time>2026-07-21T17:54:36.000Z</time></trkpt>
        <trkpt lat="28.705001" lon="105.042532"><ele>398.50308</ele><time>2026-07-21T17:54:38.000Z</time></trkpt>
        <trkpt lat="28.704996" lon="105.04254"><ele>398.88196</ele><time>2026-07-21T17:54:40.000Z</time></trkpt>
        <trkpt lat="28.704985" lon="105.042569"><ele>396.4801</ele><time>2026-07-21T17:54:52.000Z</time></trkpt>
        <trkpt lat="28.704979" lon="105.042588"><ele>396.22638</ele><time>2026-07-21T17:54:54.000Z</time></trkpt>
        <trkpt lat="28.704973" lon="105.042608"><ele>396.21826</ele><time>2026-07-21T17:54:56.000Z</time></trkpt>
        <trkpt lat="28.704973" lon="105.04261"><ele>396.69308</ele><time>2026-07-21T17:54:58.000Z</time></trkpt>
        <trkpt lat="28.704967" lon="105.042636"><ele>396.60825</ele><time>2026-07-21T17:55:04.000Z</time></trkpt>
        <trkpt lat="28.704963" lon="105.042655"><ele>396.40698</ele><time>2026-07-21T17:55:06.000Z</time></trkpt>
        <trkpt lat="28.704959" lon="105.042676"><ele>396.51117</ele><time>2026-07-21T17:55:08.000Z</time></trkpt>
        <trkpt lat="28.704957" lon="105.042696"><ele>396.6063</ele><time>2026-07-21T17:55:10.000Z</time></trkpt>
        <trkpt lat="28.704961" lon="105.042709"><ele>396.086</ele><time>2026-07-21T17:55:12.000Z</time></trkpt>
        <trkpt lat="28.70496" lon="105.04271"><ele>396.42023</ele><time>2026-07-21T17:55:14.000Z</time></trkpt>
        <trkpt lat="28.704933" lon="105.042729"><ele>396.5666</ele><time>2026-07-21T17:55:18.000Z</time></trkpt>
        <trkpt lat="28.704929" lon="105.042734"><ele>396.67276</ele><time>2026-07-21T17:55:20.000Z</time></trkpt>
        <trkpt lat="28.704929" lon="105.042738"><ele>397.11227</ele><time>2026-07-21T17:55:22.000Z</time></trkpt>
        <trkpt lat="28.704934" lon="105.042783"><ele>396.47583</ele><time>2026-07-21T17:55:28.000Z</time></trkpt>
        <trkpt lat="28.704934" lon="105.042783"><ele>397.22818</ele><time>2026-07-21T17:55:30.000Z</time></trkpt>
        <trkpt lat="28.704933" lon="105.042788"><ele>397.99146</ele><time>2026-07-21T17:55:32.000Z</time></trkpt>
        <trkpt lat="28.704908" lon="105.042861"><ele>397.7765</ele><time>2026-07-21T17:55:38.000Z</time></trkpt>
        <trkpt lat="28.704894" lon="105.042887"><ele>398.5262</ele><time>2026-07-21T17:55:40.000Z</time></trkpt>
        <trkpt lat="28.704881" lon="105.042909"><ele>399.16913</ele><time>2026-07-21T17:55:42.000Z</time></trkpt>
        <trkpt lat="28.70487" lon="105.042924"><ele>399.4359</ele><time>2026-07-21T17:55:44.000Z</time></trkpt>
        <trkpt lat="28.704867" lon="105.042923"><ele>399.61884</ele><time>2026-07-21T17:55:46.000Z</time></trkpt>
        <trkpt lat="28.704918" lon="105.042944"><ele>399.0684</ele><time>2026-07-21T17:55:52.000Z</time></trkpt>
        <trkpt lat="28.704918" lon="105.042944"><ele>398.468</ele><time>2026-07-21T17:55:54.000Z</time></trkpt>
        <trkpt lat="28.704922" lon="105.042947"><ele>397.81375</ele><time>2026-07-21T17:55:56.000Z</time></trkpt>
        <trkpt lat="28.704959" lon="105.042973"><ele>397.05252</ele><time>2026-07-21T17:56:00.000Z</time></trkpt>
        <trkpt lat="28.704982" lon="105.042987"><ele>396.68695</ele><time>2026-07-21T17:56:02.000Z</time></trkpt>
        <trkpt lat="28.704997" lon="105.042988"><ele>396.77783</ele><time>2026-07-21T17:56:04.000Z</time></trkpt>
        <trkpt lat="28.705006" lon="105.042984"><ele>396.7389</ele><time>2026-07-21T17:56:06.000Z</time></trkpt>
        <trkpt lat="28.705017" lon="105.042968"><ele>397.1105</ele><time>2026-07-21T17:56:08.000Z</time></trkpt>
        <trkpt lat="28.705031" lon="105.042946"><ele>396.97702</ele><time>2026-07-21T17:56:10.000Z</time></trkpt>
        <trkpt lat="28.705051" lon="105.042926"><ele>396.36893</ele><time>2026-07-21T17:56:12.000Z</time></trkpt>
        <trkpt lat="28.70507" lon="105.042918"><ele>395.75864</ele><time>2026-07-21T17:56:14.000Z</time></trkpt>
        <trkpt lat="28.705084" lon="105.042921"><ele>395.24542</ele><time>2026-07-21T17:56:16.000Z</time></trkpt>
        <trkpt lat="28.705086" lon="105.042925"><ele>394.75162</ele><time>2026-07-21T17:56:18.000Z</time></trkpt>
        <trkpt lat="28.70509" lon="105.042947"><ele>394.60397</ele><time>2026-07-21T17:56:22.000Z</time></trkpt>
        <trkpt lat="28.705091" lon="105.042962"><ele>394.87228</ele><time>2026-07-21T17:56:24.000Z</time></trkpt>
        <trkpt lat="28.705088" lon="105.042975"><ele>394.7258</ele><time>2026-07-21T17:56:26.000Z</time></trkpt>
        <trkpt lat="28.705088" lon="105.042985"><ele>394.68787</ele><time>2026-07-21T17:56:28.000Z</time></trkpt>
        <trkpt lat="28.705091" lon="105.042999"><ele>394.189</ele><time>2026-07-21T17:56:30.000Z</time></trkpt>
        <trkpt lat="28.705095" lon="105.043014"><ele>393.81482</ele><time>2026-07-21T17:56:32.000Z</time></trkpt>
        <trkpt lat="28.705104" lon="105.043035"><ele>393.6521</ele><time>2026-07-21T17:56:34.000Z</time></trkpt>
        <trkpt lat="28.705114" lon="105.043056"><ele>393.17865</ele><time>2026-07-21T17:56:36.000Z</time></trkpt>
        <trkpt lat="28.705125" lon="105.043076"><ele>392.6251</ele><time>2026-07-21T17:56:38.000Z</time></trkpt>
        <trkpt lat="28.705126" lon="105.043088"><ele>392.62314</ele><time>2026-07-21T17:56:40.000Z</time></trkpt>
        <trkpt lat="28.705128" lon="105.043118"><ele>390.85593</ele><time>2026-07-21T17:56:42.000Z</time></trkpt>
        <trkpt lat="28.70513" lon="105.043145"><ele>391.92273</ele><time>2026-07-21T17:56:44.000Z</time></trkpt>
        <trkpt lat="28.705131" lon="105.043166"><ele>392.0166</ele><time>2026-07-21T17:56:46.000Z</time></trkpt>
        <trkpt lat="28.705133" lon="105.043195"><ele>393.05658</ele><time>2026-07-21T17:56:48.000Z</time></trkpt>
        <trkpt lat="28.705135" lon="105.043218"><ele>393.20285</ele><time>2026-07-21T17:56:50.000Z</time></trkpt>
        <trkpt lat="28.705138" lon="105.043246"><ele>391.93518</ele><time>2026-07-21T17:56:52.000Z</time></trkpt>
        <trkpt lat="28.70514" lon="105.043273"><ele>391.6442</ele><time>2026-07-21T17:56:54.000Z</time></trkpt>
        <trkpt lat="28.705145" lon="105.043298"><ele>390.86023</ele><time>2026-07-21T17:56:56.000Z</time></trkpt>
        <trkpt lat="28.70515" lon="105.043314"><ele>391.04468</ele><time>2026-07-21T17:56:58.000Z</time></trkpt>
        <trkpt lat="28.705153" lon="105.043323"><ele>391.05835</ele><time>2026-07-21T17:57:00.000Z</time></trkpt>
        <trkpt lat="28.705156" lon="105.043325"><ele>391.16016</ele><time>2026-07-21T17:57:02.000Z</time></trkpt>
        <trkpt lat="28.705174" lon="105.043339"><ele>391.7839</ele><time>2026-07-21T17:57:08.000Z</time></trkpt>
        <trkpt lat="28.705174" lon="105.043339"><ele>391.3304</ele><time>2026-07-21T17:57:10.000Z</time></trkpt>
        <trkpt lat="28.705172" lon="105.043355"><ele>391.62387</ele><time>2026-07-21T17:57:14.000Z</time></trkpt>
        <trkpt lat="28.705175" lon="105.043368"><ele>392.99792</ele><time>2026-07-21T17:57:16.000Z</time></trkpt>
        <trkpt lat="28.705183" lon="105.043385"><ele>392.22226</ele><time>2026-07-21T17:57:18.000Z</time></trkpt>
        <trkpt lat="28.705197" lon="105.043407"><ele>391.97122</ele><time>2026-07-21T17:57:20.000Z</time></trkpt>
        <trkpt lat="28.705211" lon="105.043421"><ele>391.2466</ele><time>2026-07-21T17:57:22.000Z</time></trkpt>
        <trkpt lat="28.705228" lon="105.043432"><ele>392.1897</ele><time>2026-07-21T17:57:24.000Z</time></trkpt>
        <trkpt lat="28.705243" lon="105.043442"><ele>392.39468</ele><time>2026-07-21T17:57:26.000Z</time></trkpt>
        <trkpt lat="28.705253" lon="105.043449"><ele>391.8316</ele><time>2026-07-21T17:57:28.000Z</time></trkpt>
        <trkpt lat="28.705264" lon="105.043458"><ele>391.06412</ele><time>2026-07-21T17:57:30.000Z</time></trkpt>
        <trkpt lat="28.705272" lon="105.043466"><ele>390.7279</ele><time>2026-07-21T17:57:32.000Z</time></trkpt>
        <trkpt lat="28.705277" lon="105.043473"><ele>390.3027</ele><time>2026-07-21T17:57:34.000Z</time></trkpt>
        <trkpt lat="28.705282" lon="105.043483"><ele>390.0923</ele><time>2026-07-21T17:57:36.000Z</time></trkpt>
        <trkpt lat="28.705287" lon="105.043493"><ele>389.8782</ele><time>2026-07-21T17:57:38.000Z</time></trkpt>
        <trkpt lat="28.705291" lon="105.043503"><ele>389.98215</ele><time>2026-07-21T17:57:40.000Z</time></trkpt>
        <trkpt lat="28.705295" lon="105.043512"><ele>389.44455</ele><time>2026-07-21T17:57:42.000Z</time></trkpt>
        <trkpt lat="28.705302" lon="105.043532"><ele>389.06177</ele><time>2026-07-21T17:57:46.000Z</time></trkpt>
        <trkpt lat="28.705305" lon="105.043541"><ele>389.72565</ele><time>2026-07-21T17:57:48.000Z</time></trkpt>
        <trkpt lat="28.705308" lon="105.043547"><ele>390.2201</ele><time>2026-07-21T17:57:50.000Z</time></trkpt>
        <trkpt lat="28.705323" lon="105.043573"><ele>390.02707</ele><time>2026-07-21T17:57:54.000Z</time></trkpt>
        <trkpt lat="28.705323" lon="105.043573"><ele>390.30008</ele><time>2026-07-21T17:57:56.000Z</time></trkpt>
        <trkpt lat="28.705324" lon="105.043575"><ele>390.31796</ele><time>2026-07-21T17:57:58.000Z</time></trkpt>
        <trkpt lat="28.705337" lon="105.0436"><ele>389.8888</ele><time>2026-07-21T17:58:02.000Z</time></trkpt>
        <trkpt lat="28.705345" lon="105.043617"><ele>390.02176</ele><time>2026-07-21T17:58:04.000Z</time></trkpt>
        <trkpt lat="28.705356" lon="105.043637"><ele>390.18655</ele><time>2026-07-21T17:58:06.000Z</time></trkpt>
        <trkpt lat="28.705364" lon="105.043652"><ele>390.12564</ele><time>2026-07-21T17:58:08.000Z</time></trkpt>
        <trkpt lat="28.705372" lon="105.04366"><ele>389.63828</ele><time>2026-07-21T17:58:10.000Z</time></trkpt>
        <trkpt lat="28.705377" lon="105.043664"><ele>390.47916</ele><time>2026-07-21T17:58:12.000Z</time></trkpt>
        <trkpt lat="28.705382" lon="105.043666"><ele>388.92975</ele><time>2026-07-21T17:58:16.000Z</time></trkpt>
        <trkpt lat="28.705385" lon="105.043673"><ele>386.57184</ele><time>2026-07-21T17:58:22.000Z</time></trkpt>
        <trkpt lat="28.705387" lon="105.043686"><ele>384.94116</ele><time>2026-07-21T17:58:28.000Z</time></trkpt>
        <trkpt lat="28.705388" lon="105.043692"><ele>384.6195</ele><time>2026-07-21T17:58:30.000Z</time></trkpt>
        <trkpt lat="28.705391" lon="105.043699"><ele>385.36337</ele><time>2026-07-21T17:58:32.000Z</time></trkpt>
        <trkpt lat="28.705401" lon="105.043712"><ele>384.4815</ele><time>2026-07-21T17:58:34.000Z</time></trkpt>
        <trkpt lat="28.705408" lon="105.043717"><ele>387.35596</ele><time>2026-07-21T17:58:40.000Z</time></trkpt>
        <trkpt lat="28.705416" lon="105.043725"><ele>387.92346</ele><time>2026-07-21T17:58:42.000Z</time></trkpt>
        <trkpt lat="28.705427" lon="105.043739"><ele>387.73074</ele><time>2026-07-21T17:58:44.000Z</time></trkpt>
        <trkpt lat="28.70544" lon="105.043754"><ele>387.9342</ele><time>2026-07-21T17:58:46.000Z</time></trkpt>
        <trkpt lat="28.705452" lon="105.043766"><ele>388.17398</ele><time>2026-07-21T17:58:48.000Z</time></trkpt>
        <trkpt lat="28.70547" lon="105.043781"><ele>388.87534</ele><time>2026-07-21T17:58:50.000Z</time></trkpt>
        <trkpt lat="28.705483" lon="105.043792"><ele>388.8433</ele><time>2026-07-21T17:58:52.000Z</time></trkpt>
        <trkpt lat="28.705494" lon="105.043802"><ele>388.39252</ele><time>2026-07-21T17:58:54.000Z</time></trkpt>
        <trkpt lat="28.705507" lon="105.043813"><ele>388.51855</ele><time>2026-07-21T17:58:56.000Z</time></trkpt>
        <trkpt lat="28.705521" lon="105.043828"><ele>388.63434</ele><time>2026-07-21T17:58:58.000Z</time></trkpt>
        <trkpt lat="28.705535" lon="105.04384"><ele>388.8666</ele><time>2026-07-21T17:59:00.000Z</time></trkpt>
        <trkpt lat="28.705548" lon="105.043852"><ele>389.86908</ele><time>2026-07-21T17:59:02.000Z</time></trkpt>
        <trkpt lat="28.705562" lon="105.043862"><ele>389.3786</ele><time>2026-07-21T17:59:04.000Z</time></trkpt>
        <trkpt lat="28.705574" lon="105.043868"><ele>388.90424</ele><time>2026-07-21T17:59:06.000Z</time></trkpt>
        <trkpt lat="28.705589" lon="105.043876"><ele>388.59995</ele><time>2026-07-21T17:59:08.000Z</time></trkpt>
        <trkpt lat="28.705602" lon="105.043884"><ele>388.3876</ele><time>2026-07-21T17:59:10.000Z</time></trkpt>
        <trkpt lat="28.705611" lon="105.043895"><ele>388.772</ele><time>2026-07-21T17:59:12.000Z</time></trkpt>
        <trkpt lat="28.705631" lon="105.043916"><ele>387.31897</ele><time>2026-07-21T17:59:14.000Z</time></trkpt>
        <trkpt lat="28.705642" lon="105.043928"><ele>386.77255</ele><time>2026-07-21T17:59:16.000Z</time></trkpt>
        <trkpt lat="28.705652" lon="105.043939"><ele>387.1748</ele><time>2026-07-21T17:59:18.000Z</time></trkpt>
        <trkpt lat="28.705662" lon="105.04395"><ele>387.39032</ele><time>2026-07-21T17:59:20.000Z</time></trkpt>
        <trkpt lat="28.705669" lon="105.043959"><ele>387.32263</ele><time>2026-07-21T17:59:22.000Z</time></trkpt>
        <trkpt lat="28.705677" lon="105.043969"><ele>386.06717</ele><time>2026-07-21T17:59:24.000Z</time></trkpt>
        <trkpt lat="28.705688" lon="105.043981"><ele>384.8962</ele><time>2026-07-21T17:59:26.000Z</time></trkpt>
        <trkpt lat="28.705702" lon="105.043992"><ele>386.13257</ele><time>2026-07-21T17:59:28.000Z</time></trkpt>
        <trkpt lat="28.705714" lon="105.044004"><ele>386.8576</ele><time>2026-07-21T17:59:30.000Z</time></trkpt>
        <trkpt lat="28.705725" lon="105.044018"><ele>386.67316</ele><time>2026-07-21T17:59:32.000Z</time></trkpt>
        <trkpt lat="28.705736" lon="105.044033"><ele>388.18158</ele><time>2026-07-21T17:59:34.000Z</time></trkpt>
        <trkpt lat="28.70575" lon="105.044052"><ele>388.48682</ele><time>2026-07-21T17:59:36.000Z</time></trkpt>
        <trkpt lat="28.70576" lon="105.044071"><ele>388.489</ele><time>2026-07-21T17:59:38.000Z</time></trkpt>
        <trkpt lat="28.705768" lon="105.044089"><ele>388.1965</ele><time>2026-07-21T17:59:40.000Z</time></trkpt>
        <trkpt lat="28.705775" lon="105.044106"><ele>388.53348</ele><time>2026-07-21T17:59:42.000Z</time></trkpt>
        <trkpt lat="28.705782" lon="105.044122"><ele>388.70767</ele><time>2026-07-21T17:59:44.000Z</time></trkpt>
        <trkpt lat="28.705789" lon="105.044137"><ele>388.5226</ele><time>2026-07-21T17:59:46.000Z</time></trkpt>
        <trkpt lat="28.705795" lon="105.044153"><ele>387.79004</ele><time>2026-07-21T17:59:48.000Z</time></trkpt>
        <trkpt lat="28.7058" lon="105.044163"><ele>388.2381</ele><time>2026-07-21T17:59:50.000Z</time></trkpt>
        <trkpt lat="28.705801" lon="105.044166"><ele>388.5342</ele><time>2026-07-21T17:59:52.000Z</time></trkpt>
        <trkpt lat="28.705802" lon="105.044205"><ele>387.8067</ele><time>2026-07-21T18:00:12.000Z</time></trkpt>
        <trkpt lat="28.705806" lon="105.044213"><ele>388.41</ele><time>2026-07-21T18:00:14.000Z</time></trkpt>
        <trkpt lat="28.705817" lon="105.044228"><ele>388.8202</ele><time>2026-07-21T18:00:16.000Z</time></trkpt>
        <trkpt lat="28.705828" lon="105.044245"><ele>388.97925</ele><time>2026-07-21T18:00:18.000Z</time></trkpt>
        <trkpt lat="28.705829" lon="105.044246"><ele>389.37918</ele><time>2026-07-21T18:00:20.000Z</time></trkpt>
        <trkpt lat="28.705831" lon="105.044258"><ele>389.94373</ele><time>2026-07-21T18:00:24.000Z</time></trkpt>
        <trkpt lat="28.705837" lon="105.044276"><ele>389.3302</ele><time>2026-07-21T18:00:26.000Z</time></trkpt>
        <trkpt lat="28.705848" lon="105.044298"><ele>388.71683</ele><time>2026-07-21T18:00:28.000Z</time></trkpt>
        <trkpt lat="28.705864" lon="105.044314"><ele>389.96973</ele><time>2026-07-21T18:00:30.000Z</time></trkpt>
        <trkpt lat="28.705886" lon="105.044338"><ele>390.10522</ele><time>2026-07-21T18:00:32.000Z</time></trkpt>
        <trkpt lat="28.705902" lon="105.044359"><ele>389.4568</ele><time>2026-07-21T18:00:34.000Z</time></trkpt>
        <trkpt lat="28.705913" lon="105.044376"><ele>390.05106</ele><time>2026-07-21T18:00:36.000Z</time></trkpt>
        <trkpt lat="28.705921" lon="105.04439"><ele>389.71286</ele><time>2026-07-21T18:00:38.000Z</time></trkpt>
        <trkpt lat="28.705925" lon="105.0444"><ele>389.52017</ele><time>2026-07-21T18:00:40.000Z</time></trkpt>
        <trkpt lat="28.705929" lon="105.044411"><ele>388.94962</ele><time>2026-07-21T18:00:42.000Z</time></trkpt>
        <trkpt lat="28.705934" lon="105.044418"><ele>389.4952</ele><time>2026-07-21T18:00:44.000Z</time></trkpt>
        <trkpt lat="28.705945" lon="105.044437"><ele>388.88568</ele><time>2026-07-21T18:00:48.000Z</time></trkpt>
        <trkpt lat="28.705953" lon="105.044447"><ele>388.79907</ele><time>2026-07-21T18:00:50.000Z</time></trkpt>
        <trkpt lat="28.705962" lon="105.044457"><ele>388.85403</ele><time>2026-07-21T18:00:52.000Z</time></trkpt>
        <trkpt lat="28.705973" lon="105.044468"><ele>388.977</ele><time>2026-07-21T18:00:54.000Z</time></trkpt>
        <trkpt lat="28.705982" lon="105.044481"><ele>388.9285</ele><time>2026-07-21T18:00:56.000Z</time></trkpt>
        <trkpt lat="28.70599" lon="105.044491"><ele>389.397</ele><time>2026-07-21T18:00:58.000Z</time></trkpt>
        <trkpt lat="28.705996" lon="105.044503"><ele>389.83716</ele><time>2026-07-21T18:01:00.000Z</time></trkpt>
        <trkpt lat="28.706005" lon="105.044518"><ele>389.5517</ele><time>2026-07-21T18:01:02.000Z</time></trkpt>
        <trkpt lat="28.706014" lon="105.044528"><ele>390.32034</ele><time>2026-07-21T18:01:04.000Z</time></trkpt>
        <trkpt lat="28.706024" lon="105.044536"><ele>390.31946</ele><time>2026-07-21T18:01:06.000Z</time></trkpt>
        <trkpt lat="28.706035" lon="105.044545"><ele>391.04642</ele><time>2026-07-21T18:01:08.000Z</time></trkpt>
        <trkpt lat="28.70604" lon="105.044556"><ele>390.30075</ele><time>2026-07-21T18:01:10.000Z</time></trkpt>
        <trkpt lat="28.706045" lon="105.044559"><ele>390.04492</ele><time>2026-07-21T18:01:12.000Z</time></trkpt>
        <trkpt lat="28.706059" lon="105.044566"><ele>390.47412</ele><time>2026-07-21T18:01:16.000Z</time></trkpt>
        <trkpt lat="28.706059" lon="105.044566"><ele>390.41583</ele><time>2026-07-21T18:01:18.000Z</time></trkpt>
        <trkpt lat="28.706049" lon="105.044598"><ele>391.14548</ele><time>2026-07-21T18:01:30.000Z</time></trkpt>
        <trkpt lat="28.706048" lon="105.044606"><ele>391.21793</ele><time>2026-07-21T18:01:32.000Z</time></trkpt>
        <trkpt lat="28.706049" lon="105.044614"><ele>391.62875</ele><time>2026-07-21T18:01:34.000Z</time></trkpt>
        <trkpt lat="28.706055" lon="105.044641"><ele>392.65002</ele><time>2026-07-21T18:01:40.000Z</time></trkpt>
        <trkpt lat="28.706061" lon="105.044664"><ele>393.0108</ele><time>2026-07-21T18:01:42.000Z</time></trkpt>
        <trkpt lat="28.706061" lon="105.044665"><ele>392.90356</ele><time>2026-07-21T18:01:44.000Z</time></trkpt>
        <trkpt lat="28.706066" lon="105.044676"><ele>393.9502</ele><time>2026-07-21T18:01:48.000Z</time></trkpt>
        <trkpt lat="28.706072" lon="105.044691"><ele>393.43176</ele><time>2026-07-21T18:01:50.000Z</time></trkpt>
        <trkpt lat="28.706079" lon="105.044712"><ele>394.3491</ele><time>2026-07-21T18:01:52.000Z</time></trkpt>
        <trkpt lat="28.706082" lon="105.044732"><ele>394.68027</ele><time>2026-07-21T18:01:54.000Z</time></trkpt>
        <trkpt lat="28.706085" lon="105.04475"><ele>395.00555</ele><time>2026-07-21T18:01:56.000Z</time></trkpt>
        <trkpt lat="28.706087" lon="105.04477"><ele>395.35947</ele><time>2026-07-21T18:01:58.000Z</time></trkpt>
        <trkpt lat="28.706087" lon="105.044784"><ele>395.0968</ele><time>2026-07-21T18:02:00.000Z</time></trkpt>
        <trkpt lat="28.706084" lon="105.044787"><ele>395.37128</ele><time>2026-07-21T18:02:02.000Z</time></trkpt>
        <trkpt lat="28.70608" lon="105.044807"><ele>395.18683</ele><time>2026-07-21T18:02:10.000Z</time></trkpt>
        <trkpt lat="28.706077" lon="105.044826"><ele>395.62506</ele><time>2026-07-21T18:02:12.000Z</time></trkpt>
        <trkpt lat="28.706077" lon="105.044827"><ele>395.42868</ele><time>2026-07-21T18:02:14.000Z</time></trkpt>
        <trkpt lat="28.706098" lon="105.044845"><ele>395.81833</ele><time>2026-07-21T18:02:16.000Z</time></trkpt>
        <trkpt lat="28.706098" lon="105.044846"><ele>395.75522</ele><time>2026-07-21T18:02:18.000Z</time></trkpt>
        <trkpt lat="28.706097" lon="105.044847"><ele>396.15656</ele><time>2026-07-21T18:02:20.000Z</time></trkpt>
        <trkpt lat="28.706062" lon="105.044867"><ele>397.00302</ele><time>2026-07-21T18:02:24.000Z</time></trkpt>
        <trkpt lat="28.706036" lon="105.044882"><ele>396.71652</ele><time>2026-07-21T18:02:26.000Z</time></trkpt>
        <trkpt lat="28.706013" lon="105.044898"><ele>397.6665</ele><time>2026-07-21T18:02:28.000Z</time></trkpt>
        <trkpt lat="28.705997" lon="105.044912"><ele>397.46893</ele><time>2026-07-21T18:02:30.000Z</time></trkpt>
        <trkpt lat="28.70598" lon="105.044923"><ele>398.0828</ele><time>2026-07-21T18:02:32.000Z</time></trkpt>
        <trkpt lat="28.705967" lon="105.044925"><ele>398.47903</ele><time>2026-07-21T18:02:34.000Z</time></trkpt>
        <trkpt lat="28.70595" lon="105.044923"><ele>398.48288</ele><time>2026-07-21T18:02:36.000Z</time></trkpt>
        <trkpt lat="28.705931" lon="105.044914"><ele>398.5755</ele><time>2026-07-21T18:02:38.000Z</time></trkpt>
        <trkpt lat="28.70591" lon="105.044905"><ele>398.54636</ele><time>2026-07-21T18:02:40.000Z</time></trkpt>
        <trkpt lat="28.705888" lon="105.044895"><ele>399.96024</ele><time>2026-07-21T18:02:42.000Z</time></trkpt>
        <trkpt lat="28.705874" lon="105.04489"><ele>400.36874</ele><time>2026-07-21T18:02:44.000Z</time></trkpt>
        <trkpt lat="28.705855" lon="105.044884"><ele>400.25134</ele><time>2026-07-21T18:02:46.000Z</time></trkpt>
        <trkpt lat="28.705833" lon="105.044879"><ele>400.1996</ele><time>2026-07-21T18:02:48.000Z</time></trkpt>
        <trkpt lat="28.705813" lon="105.044875"><ele>401.26328</ele><time>2026-07-21T18:02:50.000Z</time></trkpt>
        <trkpt lat="28.705794" lon="105.044873"><ele>401.2893</ele><time>2026-07-21T18:02:52.000Z</time></trkpt>
        <trkpt lat="28.705774" lon="105.044873"><ele>401.23737</ele><time>2026-07-21T18:02:54.000Z</time></trkpt>
        <trkpt lat="28.705754" lon="105.044874"><ele>401.0191</ele><time>2026-07-21T18:02:56.000Z</time></trkpt>
        <trkpt lat="28.705732" lon="105.044875"><ele>401.45407</ele><time>2026-07-21T18:02:58.000Z</time></trkpt>
        <trkpt lat="28.705711" lon="105.044876"><ele>401.91547</ele><time>2026-07-21T18:03:00.000Z</time></trkpt>
        <trkpt lat="28.705692" lon="105.044879"><ele>401.98083</ele><time>2026-07-21T18:03:02.000Z</time></trkpt>
        <trkpt lat="28.705672" lon="105.044883"><ele>402.87848</ele><time>2026-07-21T18:03:04.000Z</time></trkpt>
        <trkpt lat="28.705651" lon="105.044888"><ele>403.21155</ele><time>2026-07-21T18:03:06.000Z</time></trkpt>
        <trkpt lat="28.70563" lon="105.044894"><ele>403.38483</ele><time>2026-07-21T18:03:08.000Z</time></trkpt>
        <trkpt lat="28.70561" lon="105.0449"><ele>404.1826</ele><time>2026-07-21T18:03:10.000Z</time></trkpt>
        <trkpt lat="28.705589" lon="105.044903"><ele>404.78705</ele><time>2026-07-21T18:03:12.000Z</time></trkpt>
        <trkpt lat="28.705569" lon="105.044903"><ele>405.00806</ele><time>2026-07-21T18:03:14.000Z</time></trkpt>
        <trkpt lat="28.705553" lon="105.0449"><ele>405.24826</ele><time>2026-07-21T18:03:16.000Z</time></trkpt>
        <trkpt lat="28.705538" lon="105.044898"><ele>405.26315</ele><time>2026-07-21T18:03:18.000Z</time></trkpt>
        <trkpt lat="28.705524" lon="105.044901"><ele>405.26218</ele><time>2026-07-21T18:03:20.000Z</time></trkpt>
        <trkpt lat="28.705515" lon="105.044909"><ele>404.72876</ele><time>2026-07-21T18:03:22.000Z</time></trkpt>
        <trkpt lat="28.705507" lon="105.044922"><ele>404.29352</ele><time>2026-07-21T18:03:24.000Z</time></trkpt>
        <trkpt lat="28.705501" lon="105.044937"><ele>404.35675</ele><time>2026-07-21T18:03:26.000Z</time></trkpt>
        <trkpt lat="28.705497" lon="105.044955"><ele>404.48163</ele><time>2026-07-21T18:03:28.000Z</time></trkpt>
        <trkpt lat="28.705494" lon="105.044973"><ele>404.43417</ele><time>2026-07-21T18:03:30.000Z</time></trkpt>
        <trkpt lat="28.705491" lon="105.044993"><ele>404.1315</ele><time>2026-07-21T18:03:32.000Z</time></trkpt>
        <trkpt lat="28.705488" lon="105.045013"><ele>404.26785</ele><time>2026-07-21T18:03:34.000Z</time></trkpt>
        <trkpt lat="28.705488" lon="105.045033"><ele>404.00006</ele><time>2026-07-21T18:03:36.000Z</time></trkpt>
        <trkpt lat="28.705487" lon="105.045058"><ele>403.94614</ele><time>2026-07-21T18:03:38.000Z</time></trkpt>
        <trkpt lat="28.705487" lon="105.045085"><ele>403.73703</ele><time>2026-07-21T18:03:40.000Z</time></trkpt>
        <trkpt lat="28.705488" lon="105.045112"><ele>403.42868</ele><time>2026-07-21T18:03:42.000Z</time></trkpt>
        <trkpt lat="28.70549" lon="105.045139"><ele>404.8815</ele><time>2026-07-21T18:03:44.000Z</time></trkpt>
        <trkpt lat="28.705493" lon="105.045165"><ele>404.18622</ele><time>2026-07-21T18:03:46.000Z</time></trkpt>
        <trkpt lat="28.705495" lon="105.045191"><ele>403.90442</ele><time>2026-07-21T18:03:48.000Z</time></trkpt>
        <trkpt lat="28.705498" lon="105.045217"><ele>404.5694</ele><time>2026-07-21T18:03:50.000Z</time></trkpt>
        <trkpt lat="28.705502" lon="105.045248"><ele>405.22647</ele><time>2026-07-21T18:03:52.000Z</time></trkpt>
        <trkpt lat="28.705506" lon="105.045278"><ele>405.09973</ele><time>2026-07-21T18:03:54.000Z</time></trkpt>
        <trkpt lat="28.705511" lon="105.045303"><ele>405.53796</ele><time>2026-07-21T18:03:56.000Z</time></trkpt>
        <trkpt lat="28.705517" lon="105.045327"><ele>404.9435</ele><time>2026-07-21T18:03:58.000Z</time></trkpt>
        <trkpt lat="28.705523" lon="105.045351"><ele>404.4506</ele><time>2026-07-21T18:04:00.000Z</time></trkpt>
        <trkpt lat="28.70553" lon="105.045377"><ele>404.2956</ele><time>2026-07-21T18:04:02.000Z</time></trkpt>
        <trkpt lat="28.705534" lon="105.045399"><ele>405.00055</ele><time>2026-07-21T18:04:04.000Z</time></trkpt>
        <trkpt lat="28.705537" lon="105.04542"><ele>404.92932</ele><time>2026-07-21T18:04:06.000Z</time></trkpt>
        <trkpt lat="28.705537" lon="105.045442"><ele>404.46777</ele><time>2026-07-21T18:04:08.000Z</time></trkpt>
        <trkpt lat="28.705535" lon="105.045466"><ele>404.42773</ele><time>2026-07-21T18:04:10.000Z</time></trkpt>
        <trkpt lat="28.705531" lon="105.045491"><ele>404.75745</ele><time>2026-07-21T18:04:12.000Z</time></trkpt>
        <trkpt lat="28.705525" lon="105.045511"><ele>405.0291</ele><time>2026-07-21T18:04:14.000Z</time></trkpt>
        <trkpt lat="28.705515" lon="105.045531"><ele>404.3607</ele><time>2026-07-21T18:04:16.000Z</time></trkpt>
        <trkpt lat="28.705504" lon="105.045552"><ele>404.40137</ele><time>2026-07-21T18:04:18.000Z</time></trkpt>
        <trkpt lat="28.705494" lon="105.045571"><ele>404.61304</ele><time>2026-07-21T18:04:20.000Z</time></trkpt>
        <trkpt lat="28.705489" lon="105.04559"><ele>405.1189</ele><time>2026-07-21T18:04:22.000Z</time></trkpt>
        <trkpt lat="28.705487" lon="105.045609"><ele>404.80215</ele><time>2026-07-21T18:04:24.000Z</time></trkpt>
        <trkpt lat="28.70549" lon="105.04563"><ele>404.89767</ele><time>2026-07-21T18:04:26.000Z</time></trkpt>
        <trkpt lat="28.705496" lon="105.045651"><ele>405.24127</ele><time>2026-07-21T18:04:28.000Z</time></trkpt>
        <trkpt lat="28.705504" lon="105.045676"><ele>405.51096</ele><time>2026-07-21T18:04:30.000Z</time></trkpt>
        <trkpt lat="28.705514" lon="105.045698"><ele>404.91492</ele><time>2026-07-21T18:04:32.000Z</time></trkpt>
        <trkpt lat="28.705523" lon="105.045719"><ele>405.37622</ele><time>2026-07-21T18:04:34.000Z</time></trkpt>
        <trkpt lat="28.70553" lon="105.04574"><ele>405.29138</ele><time>2026-07-21T18:04:36.000Z</time></trkpt>
        <trkpt lat="28.705538" lon="105.04576"><ele>405.92587</ele><time>2026-07-21T18:04:38.000Z</time></trkpt>
        <trkpt lat="28.705545" lon="105.04578"><ele>406.20776</ele><time>2026-07-21T18:04:40.000Z</time></trkpt>
        <trkpt lat="28.705555" lon="105.045801"><ele>406.15356</ele><time>2026-07-21T18:04:42.000Z</time></trkpt>
        <trkpt lat="28.705565" lon="105.045821"><ele>405.7695</ele><time>2026-07-21T18:04:44.000Z</time></trkpt>
        <trkpt lat="28.705576" lon="105.045842"><ele>406.41937</ele><time>2026-07-21T18:04:46.000Z</time></trkpt>
        <trkpt lat="28.705587" lon="105.045862"><ele>406.29065</ele><time>2026-07-21T18:04:48.000Z</time></trkpt>
        <trkpt lat="28.7056" lon="105.045877"><ele>407.2121</ele><time>2026-07-21T18:04:50.000Z</time></trkpt>
        <trkpt lat="28.705614" lon="105.045896"><ele>406.38123</ele><time>2026-07-21T18:04:52.000Z</time></trkpt>
        <trkpt lat="28.705626" lon="105.045915"><ele>406.55038</ele><time>2026-07-21T18:04:54.000Z</time></trkpt>
        <trkpt lat="28.705635" lon="105.045934"><ele>406.71887</ele><time>2026-07-21T18:04:56.000Z</time></trkpt>
        <trkpt lat="28.705647" lon="105.04595"><ele>407.9888</ele><time>2026-07-21T18:04:58.000Z</time></trkpt>
        <trkpt lat="28.705658" lon="105.045959"><ele>407.71503</ele><time>2026-07-21T18:05:00.000Z</time></trkpt>
        <trkpt lat="28.705664" lon="105.045958"><ele>408.031</ele><time>2026-07-21T18:05:02.000Z</time></trkpt>
        <trkpt lat="28.705672" lon="105.045955"><ele>408.36005</ele><time>2026-07-21T18:05:06.000Z</time></trkpt>
        <trkpt lat="28.705672" lon="105.045954"><ele>408.36005</ele><time>2026-07-21T18:05:08.000Z</time></trkpt>
        <trkpt lat="28.705668" lon="105.045949"><ele>409.45728</ele><time>2026-07-21T18:05:14.000Z</time></trkpt>
      </trkseg>
      <trkseg>
        <trkpt lat="28.705686" lon="105.045926"><ele>408.63165</ele><time>2026-07-21T18:08:26.000Z</time></trkpt>
        <trkpt lat="28.705724" lon="105.045929"><ele>409.2097</ele><time>2026-07-21T18:08:50.000Z</time></trkpt>
        <trkpt lat="28.705736" lon="105.045936"><ele>409.0642</ele><time>2026-07-21T18:08:52.000Z</time></trkpt>
        <trkpt lat="28.705737" lon="105.045936"><ele>408.9023</ele><time>2026-07-21T18:08:54.000Z</time></trkpt>
        <trkpt lat="28.705758" lon="105.045935"><ele>408.02426</ele><time>2026-07-21T18:08:58.000Z</time></trkpt>
        <trkpt lat="28.705788" lon="105.045934"><ele>408.2256</ele><time>2026-07-21T18:09:00.000Z</time></trkpt>
        <trkpt lat="28.70582" lon="105.045937"><ele>407.96216</ele><time>2026-07-21T18:09:02.000Z</time></trkpt>
        <trkpt lat="28.705846" lon="105.045943"><ele>407.9129</ele><time>2026-07-21T18:09:04.000Z</time></trkpt>
        <trkpt lat="28.705868" lon="105.045952"><ele>407.78116</ele><time>2026-07-21T18:09:06.000Z</time></trkpt>
        <trkpt lat="28.705885" lon="105.045965"><ele>407.6204</ele><time>2026-07-21T18:09:08.000Z</time></trkpt>
        <trkpt lat="28.7059" lon="105.045981"><ele>407.5066</ele><time>2026-07-21T18:09:10.000Z</time></trkpt>
        <trkpt lat="28.705914" lon="105.046"><ele>407.56674</ele><time>2026-07-21T18:09:12.000Z</time></trkpt>
        <trkpt lat="28.705927" lon="105.046023"><ele>407.67468</ele><time>2026-07-21T18:09:14.000Z</time></trkpt>
        <trkpt lat="28.705936" lon="105.046048"><ele>407.60162</ele><time>2026-07-21T18:09:16.000Z</time></trkpt>
        <trkpt lat="28.705944" lon="105.046073"><ele>407.7689</ele><time>2026-07-21T18:09:18.000Z</time></trkpt>
        <trkpt lat="28.705954" lon="105.046097"><ele>407.69412</ele><time>2026-07-21T18:09:20.000Z</time></trkpt>
        <trkpt lat="28.705967" lon="105.046122"><ele>407.6728</ele><time>2026-07-21T18:09:22.000Z</time></trkpt>
        <trkpt lat="28.705979" lon="105.046147"><ele>406.9747</ele><time>2026-07-21T18:09:24.000Z</time></trkpt>
        <trkpt lat="28.705991" lon="105.046171"><ele>407.20078</ele><time>2026-07-21T18:09:26.000Z</time></trkpt>
        <trkpt lat="28.706002" lon="105.046194"><ele>407.1201</ele><time>2026-07-21T18:09:28.000Z</time></trkpt>
        <trkpt lat="28.706014" lon="105.046217"><ele>407.13272</ele><time>2026-07-21T18:09:30.000Z</time></trkpt>
        <trkpt lat="28.706026" lon="105.046241"><ele>407.26538</ele><time>2026-07-21T18:09:32.000Z</time></trkpt>
        <trkpt lat="28.70604" lon="105.046264"><ele>407.2173</ele><time>2026-07-21T18:09:34.000Z</time></trkpt>
        <trkpt lat="28.706054" lon="105.046285"><ele>407.55722</ele><time>2026-07-21T18:09:36.000Z</time></trkpt>
        <trkpt lat="28.706069" lon="105.046305"><ele>407.39597</ele><time>2026-07-21T18:09:38.000Z</time></trkpt>
        <trkpt lat="28.706082" lon="105.046321"><ele>407.24002</ele><time>2026-07-21T18:09:40.000Z</time></trkpt>
        <trkpt lat="28.706098" lon="105.046329"><ele>408.2254</ele><time>2026-07-21T18:09:42.000Z</time></trkpt>
        <trkpt lat="28.706118" lon="105.046339"><ele>407.77893</ele><time>2026-07-21T18:09:44.000Z</time></trkpt>
        <trkpt lat="28.706133" lon="105.046348"><ele>406.73206</ele><time>2026-07-21T18:09:46.000Z</time></trkpt>
        <trkpt lat="28.706148" lon="105.046359"><ele>407.56393</ele><time>2026-07-21T18:09:48.000Z</time></trkpt>
        <trkpt lat="28.706165" lon="105.046371"><ele>407.76492</ele><time>2026-07-21T18:09:50.000Z</time></trkpt>
        <trkpt lat="28.706185" lon="105.046384"><ele>408.88138</ele><time>2026-07-21T18:09:52.000Z</time></trkpt>
        <trkpt lat="28.706203" lon="105.046395"><ele>409.0821</ele><time>2026-07-21T18:09:54.000Z</time></trkpt>
        <trkpt lat="28.706223" lon="105.046406"><ele>409.8307</ele><time>2026-07-21T18:09:56.000Z</time></trkpt>
        <trkpt lat="28.706246" lon="105.046412"><ele>411.13123</ele><time>2026-07-21T18:09:58.000Z</time></trkpt>
        <trkpt lat="28.706271" lon="105.046415"><ele>411.6277</ele><time>2026-07-21T18:09:59.000Z</time></trkpt>
        <trkpt lat="28.706297" lon="105.046413"><ele>412.2418</ele><time>2026-07-21T18:10:01.000Z</time></trkpt>
        <trkpt lat="28.706319" lon="105.046409"><ele>412.67453</ele><time>2026-07-21T18:10:03.000Z</time></trkpt>
        <trkpt lat="28.706337" lon="105.046404"><ele>413.8913</ele><time>2026-07-21T18:10:05.000Z</time></trkpt>
        <trkpt lat="28.706355" lon="105.046397"><ele>414.23212</ele><time>2026-07-21T18:10:07.000Z</time></trkpt>
        <trkpt lat="28.70637" lon="105.04639"><ele>415.5527</ele><time>2026-07-21T18:10:09.000Z</time></trkpt>
        <trkpt lat="28.706385" lon="105.046383"><ele>415.7966</ele><time>2026-07-21T18:10:11.000Z</time></trkpt>
        <trkpt lat="28.706397" lon="105.046379"><ele>416.1492</ele><time>2026-07-21T18:10:13.000Z</time></trkpt>
        <trkpt lat="28.706415" lon="105.046373"><ele>415.5034</ele><time>2026-07-21T18:10:15.000Z</time></trkpt>
        <trkpt lat="28.706431" lon="105.046369"><ele>416.14883</ele><time>2026-07-21T18:10:17.000Z</time></trkpt>
        <trkpt lat="28.706452" lon="105.046367"><ele>416.39645</ele><time>2026-07-21T18:10:19.000Z</time></trkpt>
        <trkpt lat="28.706471" lon="105.046367"><ele>416.92426</ele><time>2026-07-21T18:10:21.000Z</time></trkpt>
        <trkpt lat="28.706489" lon="105.046368"><ele>416.52557</ele><time>2026-07-21T18:10:23.000Z</time></trkpt>
        <trkpt lat="28.706508" lon="105.046372"><ele>417.73026</ele><time>2026-07-21T18:10:25.000Z</time></trkpt>
        <trkpt lat="28.706523" lon="105.046376"><ele>417.37283</ele><time>2026-07-21T18:10:27.000Z</time></trkpt>
        <trkpt lat="28.706542" lon="105.04638"><ele>417.35968</ele><time>2026-07-21T18:10:29.000Z</time></trkpt>
        <trkpt lat="28.706555" lon="105.046382"><ele>418.1173</ele><time>2026-07-21T18:10:31.000Z</time></trkpt>
        <trkpt lat="28.706576" lon="105.046386"><ele>417.8601</ele><time>2026-07-21T18:10:33.000Z</time></trkpt>
        <trkpt lat="28.70659" lon="105.046389"><ele>418.16943</ele><time>2026-07-21T18:10:35.000Z</time></trkpt>
        <trkpt lat="28.706598" lon="105.046391"><ele>418.35645</ele><time>2026-07-21T18:10:37.000Z</time></trkpt>
        <trkpt lat="28.706615" lon="105.046395"><ele>418.59583</ele><time>2026-07-21T18:10:40.000Z</time></trkpt>
        <trkpt lat="28.706634" lon="105.046397"><ele>419.04504</ele><time>2026-07-21T18:10:42.000Z</time></trkpt>
        <trkpt lat="28.706658" lon="105.046397"><ele>418.93167</ele><time>2026-07-21T18:10:44.000Z</time></trkpt>
        <trkpt lat="28.706679" lon="105.046391"><ele>418.3637</ele><time>2026-07-21T18:10:46.000Z</time></trkpt>
        <trkpt lat="28.706687" lon="105.046385"><ele>419.6326</ele><time>2026-07-21T18:10:48.000Z</time></trkpt>
        <trkpt lat="28.706688" lon="105.046385"><ele>419.07532</ele><time>2026-07-21T18:10:50.000Z</time></trkpt>
        <trkpt lat="28.706677" lon="105.046377"><ele>418.7713</ele><time>2026-07-21T18:10:54.000Z</time></trkpt>
        <trkpt lat="28.706673" lon="105.046371"><ele>419.0467</ele><time>2026-07-21T18:10:56.000Z</time></trkpt>
        <trkpt lat="28.706673" lon="105.046371"><ele>418.59402</ele><time>2026-07-21T18:10:58.000Z</time></trkpt>
        <trkpt lat="28.706701" lon="105.046368"><ele>418.39737</ele><time>2026-07-21T18:11:00.000Z</time></trkpt>
        <trkpt lat="28.706704" lon="105.046367"><ele>418.94836</ele><time>2026-07-21T18:11:02.000Z</time></trkpt>
        <trkpt lat="28.706713" lon="105.046365"><ele>419.0246</ele><time>2026-07-21T18:11:04.000Z</time></trkpt>
        <trkpt lat="28.706744" lon="105.046355"><ele>419.53195</ele><time>2026-07-21T18:11:06.000Z</time></trkpt>
        <trkpt lat="28.706783" lon="105.04634"><ele>419.46408</ele><time>2026-07-21T18:11:08.000Z</time></trkpt>
        <trkpt lat="28.706819" lon="105.046326"><ele>419.2758</ele><time>2026-07-21T18:11:10.000Z</time></trkpt>
        <trkpt lat="28.706849" lon="105.046315"><ele>419.09647</ele><time>2026-07-21T18:11:12.000Z</time></trkpt>
        <trkpt lat="28.706875" lon="105.046309"><ele>419.87933</ele><time>2026-07-21T18:11:14.000Z</time></trkpt>
        <trkpt lat="28.706902" lon="105.046303"><ele>418.97427</ele><time>2026-07-21T18:11:16.000Z</time></trkpt>
        <trkpt lat="28.70693" lon="105.046295"><ele>416.46918</ele><time>2026-07-21T18:11:18.000Z</time></trkpt>
        <trkpt lat="28.706954" lon="105.046285"><ele>417.3287</ele><time>2026-07-21T18:11:20.000Z</time></trkpt>
        <trkpt lat="28.706975" lon="105.046275"><ele>417.8431</ele><time>2026-07-21T18:11:22.000Z</time></trkpt>
        <trkpt lat="28.706996" lon="105.046265"><ele>418.43652</ele><time>2026-07-21T18:11:24.000Z</time></trkpt>
        <trkpt lat="28.707016" lon="105.046255"><ele>417.83435</ele><time>2026-07-21T18:11:26.000Z</time></trkpt>
        <trkpt lat="28.707033" lon="105.046244"><ele>418.56442</ele><time>2026-07-21T18:11:28.000Z</time></trkpt>
        <trkpt lat="28.707045" lon="105.046234"><ele>418.99805</ele><time>2026-07-21T18:11:30.000Z</time></trkpt>
        <trkpt lat="28.707055" lon="105.046224"><ele>419.08963</ele><time>2026-07-21T18:11:32.000Z</time></trkpt>
        <trkpt lat="28.707069" lon="105.046211"><ele>420.5117</ele><time>2026-07-21T18:11:34.000Z</time></trkpt>
        <trkpt lat="28.707081" lon="105.046199"><ele>419.8934</ele><time>2026-07-21T18:11:36.000Z</time></trkpt>
        <trkpt lat="28.707084" lon="105.046193"><ele>419.60516</ele><time>2026-07-21T18:11:38.000Z</time></trkpt>
        <trkpt lat="28.707091" lon="105.046188"><ele>418.97488</ele><time>2026-07-21T18:11:40.000Z</time></trkpt>
        <trkpt lat="28.707106" lon="105.046179"><ele>418.93134</ele><time>2026-07-21T18:11:42.000Z</time></trkpt>
        <trkpt lat="28.707126" lon="105.046171"><ele>418.94043</ele><time>2026-07-21T18:11:44.000Z</time></trkpt>
        <trkpt lat="28.70714" lon="105.046167"><ele>419.22858</ele><time>2026-07-21T18:11:46.000Z</time></trkpt>
        <trkpt lat="28.707161" lon="105.04616"><ele>419.0187</ele><time>2026-07-21T18:11:48.000Z</time></trkpt>
        <trkpt lat="28.707182" lon="105.046154"><ele>419.66406</ele><time>2026-07-21T18:11:50.000Z</time></trkpt>
        <trkpt lat="28.707206" lon="105.046147"><ele>418.52283</ele><time>2026-07-21T18:11:52.000Z</time></trkpt>
        <trkpt lat="28.707225" lon="105.046142"><ele>418.08426</ele><time>2026-07-21T18:11:54.000Z</time></trkpt>
        <trkpt lat="28.707239" lon="105.046139"><ele>416.06418</ele><time>2026-07-21T18:11:56.000Z</time></trkpt>
        <trkpt lat="28.707252" lon="105.046133"><ele>415.99048</ele><time>2026-07-21T18:11:58.000Z</time></trkpt>
        <trkpt lat="28.707259" lon="105.046128"><ele>415.11563</ele><time>2026-07-21T18:12:00.000Z</time></trkpt>
        <trkpt lat="28.707266" lon="105.046125"><ele>415.5714</ele><time>2026-07-21T18:12:02.000Z</time></trkpt>
        <trkpt lat="28.707279" lon="105.046121"><ele>417.26514</ele><time>2026-07-21T18:12:04.000Z</time></trkpt>
        <trkpt lat="28.70729" lon="105.046117"><ele>415.25262</ele><time>2026-07-21T18:12:05.000Z</time></trkpt>
        <trkpt lat="28.707302" lon="105.046111"><ele>414.9726</ele><time>2026-07-21T18:12:07.000Z</time></trkpt>
        <trkpt lat="28.70732" lon="105.046103"><ele>415.13293</ele><time>2026-07-21T18:12:09.000Z</time></trkpt>
        <trkpt lat="28.707341" lon="105.046092"><ele>415.1538</ele><time>2026-07-21T18:12:11.000Z</time></trkpt>
        <trkpt lat="28.707361" lon="105.04608"><ele>415.4629</ele><time>2026-07-21T18:12:13.000Z</time></trkpt>
        <trkpt lat="28.707381" lon="105.046068"><ele>415.64508</ele><time>2026-07-21T18:12:15.000Z</time></trkpt>
        <trkpt lat="28.707395" lon="105.046056"><ele>414.59946</ele><time>2026-07-21T18:12:17.000Z</time></trkpt>
        <trkpt lat="28.707412" lon="105.046042"><ele>414.15244</ele><time>2026-07-21T18:12:19.000Z</time></trkpt>
        <trkpt lat="28.707421" lon="105.046035"><ele>413.81195</ele><time>2026-07-21T18:12:21.000Z</time></trkpt>
        <trkpt lat="28.707431" lon="105.046028"><ele>413.14633</ele><time>2026-07-21T18:12:23.000Z</time></trkpt>
        <trkpt lat="28.707442" lon="105.046023"><ele>413.3219</ele><time>2026-07-21T18:12:25.000Z</time></trkpt>
        <trkpt lat="28.707441" lon="105.046022"><ele>413.84235</ele><time>2026-07-21T18:12:27.000Z</time></trkpt>
        <trkpt lat="28.707448" lon="105.04606"><ele>415.421</ele><time>2026-07-21T18:12:37.000Z</time></trkpt>
        <trkpt lat="28.707448" lon="105.046059"><ele>415.19543</ele><time>2026-07-21T18:12:39.000Z</time></trkpt>
        <trkpt lat="28.707472" lon="105.04599"><ele>413.60626</ele><time>2026-07-21T18:12:49.000Z</time></trkpt>
        <trkpt lat="28.707472" lon="105.04599"><ele>412.88174</ele><time>2026-07-21T18:12:51.000Z</time></trkpt>
        <trkpt lat="28.707479" lon="105.04599"><ele>410.80057</ele><time>2026-07-21T18:12:53.000Z</time></trkpt>
        <trkpt lat="28.7075" lon="105.045986"><ele>411.4147</ele><time>2026-07-21T18:12:55.000Z</time></trkpt>
        <trkpt lat="28.707526" lon="105.04598"><ele>411.29813</ele><time>2026-07-21T18:12:57.000Z</time></trkpt>
        <trkpt lat="28.707553" lon="105.045972"><ele>410.99005</ele><time>2026-07-21T18:12:59.000Z</time></trkpt>
        <trkpt lat="28.707574" lon="105.045964"><ele>410.62833</ele><time>2026-07-21T18:13:01.000Z</time></trkpt>
        <trkpt lat="28.707589" lon="105.045956"><ele>411.30035</ele><time>2026-07-21T18:13:03.000Z</time></trkpt>
        <trkpt lat="28.707601" lon="105.045951"><ele>411.2575</ele><time>2026-07-21T18:13:05.000Z</time></trkpt>
        <trkpt lat="28.707609" lon="105.045946"><ele>410.36603</ele><time>2026-07-21T18:13:07.000Z</time></trkpt>
        <trkpt lat="28.707622" lon="105.045939"><ele>409.77118</ele><time>2026-07-21T18:13:09.000Z</time></trkpt>
        <trkpt lat="28.707635" lon="105.045931"><ele>409.43552</ele><time>2026-07-21T18:13:11.000Z</time></trkpt>
        <trkpt lat="28.707649" lon="105.045921"><ele>409.0387</ele><time>2026-07-21T18:13:13.000Z</time></trkpt>
        <trkpt lat="28.70766" lon="105.045914"><ele>408.14398</ele><time>2026-07-21T18:13:15.000Z</time></trkpt>
        <trkpt lat="28.707674" lon="105.045906"><ele>407.71973</ele><time>2026-07-21T18:13:17.000Z</time></trkpt>
        <trkpt lat="28.707685" lon="105.0459"><ele>406.56378</ele><time>2026-07-21T18:13:19.000Z</time></trkpt>
        <trkpt lat="28.707697" lon="105.045896"><ele>406.50003</ele><time>2026-07-21T18:13:21.000Z</time></trkpt>
        <trkpt lat="28.707703" lon="105.045894"><ele>406.15036</ele><time>2026-07-21T18:13:23.000Z</time></trkpt>
        <trkpt lat="28.707715" lon="105.04589"><ele>405.66016</ele><time>2026-07-21T18:13:25.000Z</time></trkpt>
        <trkpt lat="28.707729" lon="105.045884"><ele>405.40845</ele><time>2026-07-21T18:13:27.000Z</time></trkpt>
        <trkpt lat="28.707743" lon="105.045878"><ele>405.56003</ele><time>2026-07-21T18:13:29.000Z</time></trkpt>
        <trkpt lat="28.707761" lon="105.045873"><ele>405.5337</ele><time>2026-07-21T18:13:31.000Z</time></trkpt>
        <trkpt lat="28.707771" lon="105.045871"><ele>404.48788</ele><time>2026-07-21T18:13:33.000Z</time></trkpt>
        <trkpt lat="28.707782" lon="105.04587"><ele>404.01346</ele><time>2026-07-21T18:13:35.000Z</time></trkpt>
        <trkpt lat="28.707792" lon="105.045869"><ele>403.99353</ele><time>2026-07-21T18:13:37.000Z</time></trkpt>
        <trkpt lat="28.707803" lon="105.045869"><ele>403.69156</ele><time>2026-07-21T18:13:39.000Z</time></trkpt>
        <trkpt lat="28.707813" lon="105.045868"><ele>403.20895</ele><time>2026-07-21T18:13:41.000Z</time></trkpt>
        <trkpt lat="28.707822" lon="105.045868"><ele>402.42386</ele><time>2026-07-21T18:13:43.000Z</time></trkpt>
        <trkpt lat="28.707831" lon="105.045868"><ele>401.63348</ele><time>2026-07-21T18:13:45.000Z</time></trkpt>
        <trkpt lat="28.707841" lon="105.045868"><ele>401.80807</ele><time>2026-07-21T18:13:47.000Z</time></trkpt>
        <trkpt lat="28.707854" lon="105.045868"><ele>401.83762</ele><time>2026-07-21T18:13:49.000Z</time></trkpt>
        <trkpt lat="28.707864" lon="105.045868"><ele>401.636</ele><time>2026-07-21T18:13:51.000Z</time></trkpt>
        <trkpt lat="28.707872" lon="105.045868"><ele>401.8956</ele><time>2026-07-21T18:13:53.000Z</time></trkpt>
        <trkpt lat="28.707889" lon="105.045865"><ele>401.94525</ele><time>2026-07-21T18:13:57.000Z</time></trkpt>
        <trkpt lat="28.707893" lon="105.045864"><ele>401.65253</ele><time>2026-07-21T18:13:59.000Z</time></trkpt>
        <trkpt lat="28.707897" lon="105.045863"><ele>401.31458</ele><time>2026-07-21T18:14:01.000Z</time></trkpt>
        <trkpt lat="28.707908" lon="105.045861"><ele>400.45416</ele><time>2026-07-21T18:14:05.000Z</time></trkpt>
        <trkpt lat="28.707911" lon="105.045863"><ele>400.23038</ele><time>2026-07-21T18:14:07.000Z</time></trkpt>
        <trkpt lat="28.70792" lon="105.045868"><ele>399.6019</ele><time>2026-07-21T18:14:11.000Z</time></trkpt>
        <trkpt lat="28.707927" lon="105.045872"><ele>399.85663</ele><time>2026-07-21T18:14:12.000Z</time></trkpt>
        <trkpt lat="28.707933" lon="105.045877"><ele>399.63275</ele><time>2026-07-21T18:14:14.000Z</time></trkpt>
        <trkpt lat="28.70794" lon="105.045882"><ele>399.3821</ele><time>2026-07-21T18:14:16.000Z</time></trkpt>
        <trkpt lat="28.707944" lon="105.045886"><ele>399.46768</ele><time>2026-07-21T18:14:18.000Z</time></trkpt>
        <trkpt lat="28.707953" lon="105.04589"><ele>399.70804</ele><time>2026-07-21T18:14:22.000Z</time></trkpt>
        <trkpt lat="28.707957" lon="105.04589"><ele>399.3433</ele><time>2026-07-21T18:14:24.000Z</time></trkpt>
        <trkpt lat="28.707977" lon="105.045887"><ele>399.63425</ele><time>2026-07-21T18:14:26.000Z</time></trkpt>
        <trkpt lat="28.707977" lon="105.045887"><ele>399.09372</ele><time>2026-07-21T18:14:28.000Z</time></trkpt>
        <trkpt lat="28.707977" lon="105.045887"><ele>398.6145</ele><time>2026-07-21T18:14:31.000Z</time></trkpt>
        <trkpt lat="28.708004" lon="105.045898"><ele>397.90997</ele><time>2026-07-21T18:14:35.000Z</time></trkpt>
        <trkpt lat="28.708004" lon="105.045898"><ele>397.68796</ele><time>2026-07-21T18:14:37.000Z</time></trkpt>
        <trkpt lat="28.708004" lon="105.045898"><ele>398.12015</ele><time>2026-07-21T18:14:39.000Z</time></trkpt>
        <trkpt lat="28.708024" lon="105.045909"><ele>396.4165</ele><time>2026-07-21T18:14:55.000Z</time></trkpt>
        <trkpt lat="28.70804" lon="105.045918"><ele>395.7472</ele><time>2026-07-21T18:14:57.000Z</time></trkpt>
        <trkpt lat="28.708041" lon="105.045918"><ele>395.94592</ele><time>2026-07-21T18:14:59.000Z</time></trkpt>
        <trkpt lat="28.708063" lon="105.045911"><ele>395.36972</ele><time>2026-07-21T18:15:01.000Z</time></trkpt>
        <trkpt lat="28.708069" lon="105.045913"><ele>394.49918</ele><time>2026-07-21T18:15:05.000Z</time></trkpt>
        <trkpt lat="28.708081" lon="105.045917"><ele>394.5186</ele><time>2026-07-21T18:15:07.000Z</time></trkpt>
        <trkpt lat="28.70809" lon="105.045916"><ele>394.42444</ele><time>2026-07-21T18:15:11.000Z</time></trkpt>
        <trkpt lat="28.708095" lon="105.045916"><ele>396.49188</ele><time>2026-07-21T18:15:13.000Z</time></trkpt>
        <trkpt lat="28.708133" lon="105.045916"><ele>390.02182</ele><time>2026-07-21T18:16:06.000Z</time></trkpt>
        <trkpt lat="28.708133" lon="105.045916"><ele>388.85062</ele><time>2026-07-21T18:16:08.000Z</time></trkpt>
        <trkpt lat="28.708135" lon="105.045946"><ele>391.30835</ele><time>2026-07-21T18:16:16.000Z</time></trkpt>
        <trkpt lat="28.708146" lon="105.045982"><ele>384.8917</ele><time>2026-07-21T18:16:23.000Z</time></trkpt>
        <trkpt lat="28.70814" lon="105.045995"><ele>384.55142</ele><time>2026-07-21T18:16:25.000Z</time></trkpt>
        <trkpt lat="28.708133" lon="105.04601"><ele>382.67285</ele><time>2026-07-21T18:16:29.000Z</time></trkpt>
        <trkpt lat="28.708174" lon="105.04603"><ele>384.64148</ele><time>2026-07-21T18:16:33.000Z</time></trkpt>
        <trkpt lat="28.708174" lon="105.04603"><ele>383.72833</ele><time>2026-07-21T18:16:35.000Z</time></trkpt>
        <trkpt lat="28.708177" lon="105.046032"><ele>384.75256</ele><time>2026-07-21T18:16:37.000Z</time></trkpt>
        <trkpt lat="28.70822" lon="105.046069"><ele>383.6061</ele><time>2026-07-21T18:16:44.000Z</time></trkpt>
        <trkpt lat="28.708224" lon="105.046078"><ele>381.5791</ele><time>2026-07-21T18:16:46.000Z</time></trkpt>
        <trkpt lat="28.708226" lon="105.046089"><ele>381.77325</ele><time>2026-07-21T18:16:48.000Z</time></trkpt>
        <trkpt lat="28.708236" lon="105.046112"><ele>382.13318</ele><time>2026-07-21T18:16:52.000Z</time></trkpt>
        <trkpt lat="28.70824" lon="105.046125"><ele>382.90756</ele><time>2026-07-21T18:16:54.000Z</time></trkpt>
        <trkpt lat="28.708242" lon="105.046129"><ele>382.82837</ele><time>2026-07-21T18:16:56.000Z</time></trkpt>
        <trkpt lat="28.70825" lon="105.046136"><ele>383.08713</ele><time>2026-07-21T18:17:02.000Z</time></trkpt>
        <trkpt lat="28.70826" lon="105.046146"><ele>382.5881</ele><time>2026-07-21T18:17:04.000Z</time></trkpt>
        <trkpt lat="28.708262" lon="105.046148"><ele>382.61057</ele><time>2026-07-21T18:17:08.000Z</time></trkpt>
        <trkpt lat="28.708296" lon="105.046176"><ele>381.8019</ele><time>2026-07-21T18:17:12.000Z</time></trkpt>
        <trkpt lat="28.708296" lon="105.046176"><ele>381.6005</ele><time>2026-07-21T18:17:14.000Z</time></trkpt>
        <trkpt lat="28.708297" lon="105.046177"><ele>380.0164</ele><time>2026-07-21T18:17:16.000Z</time></trkpt>
        <trkpt lat="28.708327" lon="105.046203"><ele>379.5167</ele><time>2026-07-21T18:17:22.000Z</time></trkpt>
        <trkpt lat="28.70834" lon="105.046213"><ele>378.8234</ele><time>2026-07-21T18:17:24.000Z</time></trkpt>
        <trkpt lat="28.708354" lon="105.046226"><ele>378.43423</ele><time>2026-07-21T18:17:26.000Z</time></trkpt>
        <trkpt lat="28.708367" lon="105.046236"><ele>376.8137</ele><time>2026-07-21T18:17:28.000Z</time></trkpt>
        <trkpt lat="28.708381" lon="105.046249"><ele>376.9587</ele><time>2026-07-21T18:17:30.000Z</time></trkpt>
        <trkpt lat="28.708392" lon="105.046258"><ele>376.25095</ele><time>2026-07-21T18:17:32.000Z</time></trkpt>
        <trkpt lat="28.708403" lon="105.046267"><ele>376.1708</ele><time>2026-07-21T18:17:34.000Z</time></trkpt>
        <trkpt lat="28.708411" lon="105.046271"><ele>375.47552</ele><time>2026-07-21T18:17:36.000Z</time></trkpt>
        <trkpt lat="28.708421" lon="105.046274"><ele>375.1998</ele><time>2026-07-21T18:17:38.000Z</time></trkpt>
        <trkpt lat="28.708435" lon="105.046278"><ele>374.65613</ele><time>2026-07-21T18:17:40.000Z</time></trkpt>
        <trkpt lat="28.70845" lon="105.046285"><ele>373.26437</ele><time>2026-07-21T18:17:42.000Z</time></trkpt>
        <trkpt lat="28.708458" lon="105.04629"><ele>373.07755</ele><time>2026-07-21T18:17:44.000Z</time></trkpt>
        <trkpt lat="28.70847" lon="105.046298"><ele>372.6866</ele><time>2026-07-21T18:17:46.000Z</time></trkpt>
        <trkpt lat="28.708479" lon="105.046302"><ele>373.00598</ele><time>2026-07-21T18:17:48.000Z</time></trkpt>
        <trkpt lat="28.70849" lon="105.046303"><ele>373.48608</ele><time>2026-07-21T18:17:50.000Z</time></trkpt>
        <trkpt lat="28.708501" lon="105.046308"><ele>372.6569</ele><time>2026-07-21T18:17:52.000Z</time></trkpt>
        <trkpt lat="28.708511" lon="105.046312"><ele>371.2368</ele><time>2026-07-21T18:17:54.000Z</time></trkpt>
        <trkpt lat="28.708521" lon="105.046317"><ele>370.92026</ele><time>2026-07-21T18:17:56.000Z</time></trkpt>
        <trkpt lat="28.708533" lon="105.046321"><ele>371.05167</ele><time>2026-07-21T18:17:58.000Z</time></trkpt>
        <trkpt lat="28.708544" lon="105.046322"><ele>371.324</ele><time>2026-07-21T18:18:00.000Z</time></trkpt>
        <trkpt lat="28.708555" lon="105.046322"><ele>371.1029</ele><time>2026-07-21T18:18:02.000Z</time></trkpt>
        <trkpt lat="28.708569" lon="105.04632"><ele>371.07065</ele><time>2026-07-21T18:18:04.000Z</time></trkpt>
        <trkpt lat="28.708579" lon="105.046319"><ele>370.8022</ele><time>2026-07-21T18:18:06.000Z</time></trkpt>
        <trkpt lat="28.708587" lon="105.046319"><ele>369.67737</ele><time>2026-07-21T18:18:08.000Z</time></trkpt>
        <trkpt lat="28.708596" lon="105.046319"><ele>367.7386</ele><time>2026-07-21T18:18:10.000Z</time></trkpt>
        <trkpt lat="28.708609" lon="105.046321"><ele>366.30038</ele><time>2026-07-21T18:18:14.000Z</time></trkpt>
        <trkpt lat="28.708616" lon="105.046324"><ele>365.71658</ele><time>2026-07-21T18:18:16.000Z</time></trkpt>
        <trkpt lat="28.708652" lon="105.046341"><ele>363.45352</ele><time>2026-07-21T18:18:21.000Z</time></trkpt>
        <trkpt lat="28.708652" lon="105.046341"><ele>363.21375</ele><time>2026-07-21T18:18:23.000Z</time></trkpt>
        <trkpt lat="28.708652" lon="105.046341"><ele>362.6688</ele><time>2026-07-21T18:18:25.000Z</time></trkpt>
        <trkpt lat="28.708693" lon="105.046343"><ele>361.6948</ele><time>2026-07-21T18:18:31.000Z</time></trkpt>
        <trkpt lat="28.708693" lon="105.046343"><ele>361.61197</ele><time>2026-07-21T18:18:33.000Z</time></trkpt>
        <trkpt lat="28.708696" lon="105.046343"><ele>361.31555</ele><time>2026-07-21T18:18:35.000Z</time></trkpt>
        <trkpt lat="28.708725" lon="105.046346"><ele>360.9815</ele><time>2026-07-21T18:18:39.000Z</time></trkpt>
        <trkpt lat="28.708738" lon="105.046346"><ele>360.10114</ele><time>2026-07-21T18:18:41.000Z</time></trkpt>
        <trkpt lat="28.708747" lon="105.046345"><ele>359.70694</ele><time>2026-07-21T18:18:43.000Z</time></trkpt>
        <trkpt lat="28.708756" lon="105.046343"><ele>357.62772</ele><time>2026-07-21T18:18:45.000Z</time></trkpt>
        <trkpt lat="28.708768" lon="105.046342"><ele>356.34985</ele><time>2026-07-21T18:18:47.000Z</time></trkpt>
        <trkpt lat="28.708785" lon="105.04634"><ele>355.1529</ele><time>2026-07-21T18:18:49.000Z</time></trkpt>
        <trkpt lat="28.708801" lon="105.046342"><ele>355.10843</ele><time>2026-07-21T18:18:51.000Z</time></trkpt>
        <trkpt lat="28.70882" lon="105.046343"><ele>354.11325</ele><time>2026-07-21T18:18:53.000Z</time></trkpt>
        <trkpt lat="28.708837" lon="105.046344"><ele>353.13818</ele><time>2026-07-21T18:18:55.000Z</time></trkpt>
        <trkpt lat="28.708845" lon="105.046347"><ele>352.24207</ele><time>2026-07-21T18:18:57.000Z</time></trkpt>
        <trkpt lat="28.708852" lon="105.046348"><ele>352.12854</ele><time>2026-07-21T18:18:59.000Z</time></trkpt>
        <trkpt lat="28.708879" lon="105.046347"><ele>351.7862</ele><time>2026-07-21T18:19:03.000Z</time></trkpt>
        <trkpt lat="28.708894" lon="105.046346"><ele>350.7962</ele><time>2026-07-21T18:19:05.000Z</time></trkpt>
        <trkpt lat="28.708907" lon="105.046345"><ele>351.8328</ele><time>2026-07-21T18:19:07.000Z</time></trkpt>
        <trkpt lat="28.708933" lon="105.046343"><ele>352.62228</ele><time>2026-07-21T18:19:09.000Z</time></trkpt>
        <trkpt lat="28.708942" lon="105.046346"><ele>352.05774</ele><time>2026-07-21T18:19:11.000Z</time></trkpt>
        <trkpt lat="28.708944" lon="105.046346"><ele>352.2388</ele><time>2026-07-21T18:19:13.000Z</time></trkpt>
        <trkpt lat="28.70897" lon="105.046347"><ele>349.68192</ele><time>2026-07-21T18:19:20.000Z</time></trkpt>
        <trkpt lat="28.708972" lon="105.046347"><ele>348.64603</ele><time>2026-07-21T18:19:24.000Z</time></trkpt>
        <trkpt lat="28.708979" lon="105.046347"><ele>348.0131</ele><time>2026-07-21T18:19:26.000Z</time></trkpt>
        <trkpt lat="28.709012" lon="105.04635"><ele>347.0351</ele><time>2026-07-21T18:19:30.000Z</time></trkpt>
        <trkpt lat="28.709012" lon="105.04635"><ele>345.46588</ele><time>2026-07-21T18:19:32.000Z</time></trkpt>
        <trkpt lat="28.709014" lon="105.04635"><ele>344.72403</ele><time>2026-07-21T18:19:34.000Z</time></trkpt>
        <trkpt lat="28.709046" lon="105.04635"><ele>345.76636</ele><time>2026-07-21T18:19:38.000Z</time></trkpt>
        <trkpt lat="28.70906" lon="105.04635"><ele>344.5456</ele><time>2026-07-21T18:19:40.000Z</time></trkpt>
        <trkpt lat="28.709074" lon="105.046349"><ele>343.68726</ele><time>2026-07-21T18:19:42.000Z</time></trkpt>
        <trkpt lat="28.709089" lon="105.04635"><ele>343.80795</ele><time>2026-07-21T18:19:44.000Z</time></trkpt>
        <trkpt lat="28.709103" lon="105.046353"><ele>343.20444</ele><time>2026-07-21T18:19:46.000Z</time></trkpt>
        <trkpt lat="28.709119" lon="105.046357"><ele>343.03592</ele><time>2026-07-21T18:19:48.000Z</time></trkpt>
        <trkpt lat="28.709134" lon="105.04636"><ele>342.49353</ele><time>2026-07-21T18:19:50.000Z</time></trkpt>
        <trkpt lat="28.709146" lon="105.046361"><ele>342.3549</ele><time>2026-07-21T18:19:52.000Z</time></trkpt>
        <trkpt lat="28.709156" lon="105.046361"><ele>341.71042</ele><time>2026-07-21T18:19:54.000Z</time></trkpt>
        <trkpt lat="28.709168" lon="105.046363"><ele>341.1214</ele><time>2026-07-21T18:19:56.000Z</time></trkpt>
        <trkpt lat="28.709178" lon="105.046363"><ele>340.27365</ele><time>2026-07-21T18:19:58.000Z</time></trkpt>
        <trkpt lat="28.709187" lon="105.046363"><ele>339.59485</ele><time>2026-07-21T18:20:00.000Z</time></trkpt>
        <trkpt lat="28.709195" lon="105.046363"><ele>339.5354</ele><time>2026-07-21T18:20:02.000Z</time></trkpt>
        <trkpt lat="28.709206" lon="105.046362"><ele>338.78162</ele><time>2026-07-21T18:20:04.000Z</time></trkpt>
        <trkpt lat="28.709221" lon="105.046361"><ele>338.39087</ele><time>2026-07-21T18:20:06.000Z</time></trkpt>
        <trkpt lat="28.709233" lon="105.046359"><ele>338.12073</ele><time>2026-07-21T18:20:08.000Z</time></trkpt>
        <trkpt lat="28.709239" lon="105.046357"><ele>338.08987</ele><time>2026-07-21T18:20:10.000Z</time></trkpt>
        <trkpt lat="28.709256" lon="105.046355"><ele>335.8981</ele><time>2026-07-21T18:20:14.000Z</time></trkpt>
        <trkpt lat="28.709267" lon="105.046355"><ele>335.01743</ele><time>2026-07-21T18:20:16.000Z</time></trkpt>
        <trkpt lat="28.709281" lon="105.046356"><ele>333.9459</ele><time>2026-07-21T18:20:18.000Z</time></trkpt>
        <trkpt lat="28.709295" lon="105.046356"><ele>333.5029</ele><time>2026-07-21T18:20:20.000Z</time></trkpt>
        <trkpt lat="28.709312" lon="105.046357"><ele>333.40448</ele><time>2026-07-21T18:20:22.000Z</time></trkpt>
        <trkpt lat="28.709322" lon="105.046357"><ele>333.3083</ele><time>2026-07-21T18:20:24.000Z</time></trkpt>
        <trkpt lat="28.709329" lon="105.046357"><ele>334.40628</ele><time>2026-07-21T18:20:26.000Z</time></trkpt>
        <trkpt lat="28.70934" lon="105.046358"><ele>333.49683</ele><time>2026-07-21T18:20:30.000Z</time></trkpt>
        <trkpt lat="28.709357" lon="105.04636"><ele>332.04694</ele><time>2026-07-21T18:20:34.000Z</time></trkpt>
        <trkpt lat="28.709365" lon="105.046361"><ele>331.03336</ele><time>2026-07-21T18:20:36.000Z</time></trkpt>
        <trkpt lat="28.709376" lon="105.046361"><ele>330.3544</ele><time>2026-07-21T18:20:38.000Z</time></trkpt>
        <trkpt lat="28.709388" lon="105.046361"><ele>330.43378</ele><time>2026-07-21T18:20:40.000Z</time></trkpt>
        <trkpt lat="28.709399" lon="105.046359"><ele>329.63376</ele><time>2026-07-21T18:20:42.000Z</time></trkpt>
        <trkpt lat="28.709403" lon="105.046355"><ele>329.99426</ele><time>2026-07-21T18:20:44.000Z</time></trkpt>
        <trkpt lat="28.709421" lon="105.046332"><ele>328.9074</ele><time>2026-07-21T18:20:48.000Z</time></trkpt>
        <trkpt lat="28.709421" lon="105.046332"><ele>329.66803</ele><time>2026-07-21T18:20:50.000Z</time></trkpt>
        <trkpt lat="28.709424" lon="105.046331"><ele>329.1428</ele><time>2026-07-21T18:20:52.000Z</time></trkpt>
        <trkpt lat="28.709454" lon="105.046325"><ele>328.3264</ele><time>2026-07-21T18:20:56.000Z</time></trkpt>
        <trkpt lat="28.709454" lon="105.046325"><ele>327.2858</ele><time>2026-07-21T18:20:58.000Z</time></trkpt>
        <trkpt lat="28.709457" lon="105.046325"><ele>327.0266</ele><time>2026-07-21T18:21:00.000Z</time></trkpt>
        <trkpt lat="28.709492" lon="105.046327"><ele>326.77182</ele><time>2026-07-21T18:21:04.000Z</time></trkpt>
        <trkpt lat="28.70951" lon="105.046327"><ele>325.57562</ele><time>2026-07-21T18:21:06.000Z</time></trkpt>
        <trkpt lat="28.70953" lon="105.046327"><ele>324.42715</ele><time>2026-07-21T18:21:08.000Z</time></trkpt>
        <trkpt lat="28.709542" lon="105.046325"><ele>323.94656</ele><time>2026-07-21T18:21:10.000Z</time></trkpt>
        <trkpt lat="28.709549" lon="105.046324"><ele>323.84424</ele><time>2026-07-21T18:21:12.000Z</time></trkpt>
        <trkpt lat="28.709559" lon="105.046322"><ele>323.5834</ele><time>2026-07-21T18:21:14.000Z</time></trkpt>
        <trkpt lat="28.709569" lon="105.04632"><ele>323.65933</ele><time>2026-07-21T18:21:16.000Z</time></trkpt>
        <trkpt lat="28.70958" lon="105.046318"><ele>322.5794</ele><time>2026-07-21T18:21:18.000Z</time></trkpt>
        <trkpt lat="28.709588" lon="105.046318"><ele>321.83835</ele><time>2026-07-21T18:21:20.000Z</time></trkpt>
        <trkpt lat="28.709601" lon="105.046319"><ele>322.227</ele><time>2026-07-21T18:21:22.000Z</time></trkpt>
        <trkpt lat="28.709612" lon="105.046321"><ele>321.7519</ele><time>2026-07-21T18:21:24.000Z</time></trkpt>
        <trkpt lat="28.709624" lon="105.046324"><ele>320.96</ele><time>2026-07-21T18:21:26.000Z</time></trkpt>
        <trkpt lat="28.709638" lon="105.046326"><ele>320.44467</ele><time>2026-07-21T18:21:28.000Z</time></trkpt>
        <trkpt lat="28.70965" lon="105.046326"><ele>319.84552</ele><time>2026-07-21T18:21:30.000Z</time></trkpt>
        <trkpt lat="28.70966" lon="105.046326"><ele>319.77298</ele><time>2026-07-21T18:21:32.000Z</time></trkpt>
        <trkpt lat="28.709673" lon="105.046326"><ele>319.67</ele><time>2026-07-21T18:21:34.000Z</time></trkpt>
        <trkpt lat="28.709684" lon="105.046325"><ele>319.1955</ele><time>2026-07-21T18:21:36.000Z</time></trkpt>
        <trkpt lat="28.709692" lon="105.046326"><ele>318.52927</ele><time>2026-07-21T18:21:38.000Z</time></trkpt>
        <trkpt lat="28.709711" lon="105.046328"><ele>318.2483</ele><time>2026-07-21T18:21:41.000Z</time></trkpt>
        <trkpt lat="28.709722" lon="105.04633"><ele>317.8727</ele><time>2026-07-21T18:21:43.000Z</time></trkpt>
        <trkpt lat="28.709731" lon="105.046333"><ele>317.79474</ele><time>2026-07-21T18:21:45.000Z</time></trkpt>
        <trkpt lat="28.709737" lon="105.046336"><ele>317.81897</ele><time>2026-07-21T18:21:47.000Z</time></trkpt>
        <trkpt lat="28.70974" lon="105.046337"><ele>317.81897</ele><time>2026-07-21T18:21:49.000Z</time></trkpt>
        <trkpt lat="28.709751" lon="105.046339"><ele>315.69604</ele><time>2026-07-21T18:22:15.000Z</time></trkpt>
        <trkpt lat="28.709812" lon="105.046348"><ele>314.6547</ele><time>2026-07-21T18:22:28.000Z</time></trkpt>
        <trkpt lat="28.709828" lon="105.04632"><ele>315.67746</ele><time>2026-07-21T18:22:30.000Z</time></trkpt>
        <trkpt lat="28.709829" lon="105.04632"><ele>314.17</ele><time>2026-07-21T18:22:32.000Z</time></trkpt>
        <trkpt lat="28.709832" lon="105.046322"><ele>313.72476</ele><time>2026-07-21T18:22:34.000Z</time></trkpt>
        <trkpt lat="28.709867" lon="105.046342"><ele>311.8874</ele><time>2026-07-21T18:22:38.000Z</time></trkpt>
        <trkpt lat="28.709886" lon="105.046349"><ele>311.42072</ele><time>2026-07-21T18:22:40.000Z</time></trkpt>
        <trkpt lat="28.709904" lon="105.046354"><ele>311.387</ele><time>2026-07-21T18:22:42.000Z</time></trkpt>
        <trkpt lat="28.709919" lon="105.046357"><ele>310.93884</ele><time>2026-07-21T18:22:44.000Z</time></trkpt>
        <trkpt lat="28.709931" lon="105.046358"><ele>310.8705</ele><time>2026-07-21T18:22:46.000Z</time></trkpt>
        <trkpt lat="28.70994" lon="105.046358"><ele>310.6444</ele><time>2026-07-21T18:22:48.000Z</time></trkpt>
        <trkpt lat="28.709951" lon="105.046361"><ele>310.49658</ele><time>2026-07-21T18:22:52.000Z</time></trkpt>
        <trkpt lat="28.709977" lon="105.046368"><ele>309.15955</ele><time>2026-07-21T18:23:00.000Z</time></trkpt>
        <trkpt lat="28.709977" lon="105.046368"><ele>308.03674</ele><time>2026-07-21T18:23:02.000Z</time></trkpt>
        <trkpt lat="28.709998" lon="105.046361"><ele>307.35132</ele><time>2026-07-21T18:23:06.000Z</time></trkpt>
        <trkpt lat="28.710018" lon="105.046354"><ele>307.16095</ele><time>2026-07-21T18:23:08.000Z</time></trkpt>
        <trkpt lat="28.71004" lon="105.04635"><ele>306.74954</ele><time>2026-07-21T18:23:10.000Z</time></trkpt>
        <trkpt lat="28.710058" lon="105.046349"><ele>306.17758</ele><time>2026-07-21T18:23:12.000Z</time></trkpt>
        <trkpt lat="28.710083" lon="105.046353"><ele>304.6471</ele><time>2026-07-21T18:23:14.000Z</time></trkpt>
        <trkpt lat="28.710107" lon="105.046356"><ele>304.20874</ele><time>2026-07-21T18:23:16.000Z</time></trkpt>
        <trkpt lat="28.710124" lon="105.046359"><ele>304.53052</ele><time>2026-07-21T18:23:18.000Z</time></trkpt>
        <trkpt lat="28.710135" lon="105.046362"><ele>303.55377</ele><time>2026-07-21T18:23:20.000Z</time></trkpt>
        <trkpt lat="28.710141" lon="105.046363"><ele>303.66193</ele><time>2026-07-21T18:23:22.000Z</time></trkpt>
        <trkpt lat="28.710153" lon="105.046363"><ele>303.02524</ele><time>2026-07-21T18:23:26.000Z</time></trkpt>
        <trkpt lat="28.710177" lon="105.046362"><ele>303.5628</ele><time>2026-07-21T18:23:28.000Z</time></trkpt>
        <trkpt lat="28.710179" lon="105.046362"><ele>303.83597</ele><time>2026-07-21T18:23:30.000Z</time></trkpt>
        <trkpt lat="28.710182" lon="105.046362"><ele>302.11353</ele><time>2026-07-21T18:23:32.000Z</time></trkpt>
        <trkpt lat="28.710211" lon="105.046354"><ele>301.87738</ele><time>2026-07-21T18:23:36.000Z</time></trkpt>
        <trkpt lat="28.710227" lon="105.046347"><ele>301.39578</ele><time>2026-07-21T18:23:38.000Z</time></trkpt>
        <trkpt lat="28.710245" lon="105.046338"><ele>300.85608</ele><time>2026-07-21T18:23:40.000Z</time></trkpt>
        <trkpt lat="28.710257" lon="105.046331"><ele>301.34412</ele><time>2026-07-21T18:23:42.000Z</time></trkpt>
        <trkpt lat="28.710269" lon="105.046328"><ele>301.32425</ele><time>2026-07-21T18:23:44.000Z</time></trkpt>
        <trkpt lat="28.71028" lon="105.046328"><ele>301.64798</ele><time>2026-07-21T18:23:46.000Z</time></trkpt>
        <trkpt lat="28.71029" lon="105.046332"><ele>301.16364</ele><time>2026-07-21T18:23:48.000Z</time></trkpt>
        <trkpt lat="28.710303" lon="105.04634"><ele>300.40527</ele><time>2026-07-21T18:23:50.000Z</time></trkpt>
        <trkpt lat="28.710315" lon="105.046349"><ele>300.31613</ele><time>2026-07-21T18:23:52.000Z</time></trkpt>
        <trkpt lat="28.710323" lon="105.046357"><ele>300.0727</ele><time>2026-07-21T18:23:54.000Z</time></trkpt>
        <trkpt lat="28.710332" lon="105.046363"><ele>299.61487</ele><time>2026-07-21T18:23:56.000Z</time></trkpt>
        <trkpt lat="28.710341" lon="105.046369"><ele>299.77255</ele><time>2026-07-21T18:23:58.000Z</time></trkpt>
        <trkpt lat="28.71035" lon="105.046376"><ele>299.29236</ele><time>2026-07-21T18:24:00.000Z</time></trkpt>
        <trkpt lat="28.710359" lon="105.046379"><ele>299.26038</ele><time>2026-07-21T18:24:02.000Z</time></trkpt>
        <trkpt lat="28.710369" lon="105.04638"><ele>298.52972</ele><time>2026-07-21T18:24:04.000Z</time></trkpt>
        <trkpt lat="28.710381" lon="105.046377"><ele>297.89255</ele><time>2026-07-21T18:24:06.000Z</time></trkpt>
        <trkpt lat="28.710393" lon="105.046372"><ele>296.75482</ele><time>2026-07-21T18:24:08.000Z</time></trkpt>
        <trkpt lat="28.710407" lon="105.04637"><ele>296.07117</ele><time>2026-07-21T18:24:10.000Z</time></trkpt>
        <trkpt lat="28.710427" lon="105.04637"><ele>294.89127</ele><time>2026-07-21T18:24:12.000Z</time></trkpt>
        <trkpt lat="28.710451" lon="105.04637"><ele>295.14862</ele><time>2026-07-21T18:24:14.000Z</time></trkpt>
        <trkpt lat="28.710473" lon="105.046368"><ele>293.80765</ele><time>2026-07-21T18:24:16.000Z</time></trkpt>
        <trkpt lat="28.710493" lon="105.046367"><ele>292.67648</ele><time>2026-07-21T18:24:18.000Z</time></trkpt>
        <trkpt lat="28.710511" lon="105.046366"><ele>291.91373</ele><time>2026-07-21T18:24:20.000Z</time></trkpt>
        <trkpt lat="28.710522" lon="105.046366"><ele>291.40207</ele><time>2026-07-21T18:24:22.000Z</time></trkpt>
        <trkpt lat="28.710537" lon="105.046366"><ele>290.78897</ele><time>2026-07-21T18:24:24.000Z</time></trkpt>
        <trkpt lat="28.710554" lon="105.046364"><ele>289.84686</ele><time>2026-07-21T18:24:26.000Z</time></trkpt>
        <trkpt lat="28.710566" lon="105.046358"><ele>289.9992</ele><time>2026-07-21T18:24:28.000Z</time></trkpt>
        <trkpt lat="28.710578" lon="105.046348"><ele>289.89435</ele><time>2026-07-21T18:24:30.000Z</time></trkpt>
        <trkpt lat="28.710587" lon="105.046332"><ele>289.66547</ele><time>2026-07-21T18:24:32.000Z</time></trkpt>
        <trkpt lat="28.710591" lon="105.046317"><ele>290.12253</ele><time>2026-07-21T18:24:34.000Z</time></trkpt>
        <trkpt lat="28.710594" lon="105.046299"><ele>290.07782</ele><time>2026-07-21T18:24:36.000Z</time></trkpt>
        <trkpt lat="28.710594" lon="105.04628"><ele>289.7808</ele><time>2026-07-21T18:24:38.000Z</time></trkpt>
        <trkpt lat="28.710594" lon="105.046264"><ele>289.27106</ele><time>2026-07-21T18:24:40.000Z</time></trkpt>
        <trkpt lat="28.710593" lon="105.046251"><ele>289.31866</ele><time>2026-07-21T18:24:42.000Z</time></trkpt>
        <trkpt lat="28.710592" lon="105.046242"><ele>290.9085</ele><time>2026-07-21T18:24:44.000Z</time></trkpt>
        <trkpt lat="28.710594" lon="105.046239"><ele>290.69562</ele><time>2026-07-21T18:24:48.000Z</time></trkpt>
        <trkpt lat="28.710604" lon="105.046232"><ele>289.86978</ele><time>2026-07-21T18:25:06.000Z</time></trkpt>
        <trkpt lat="28.710609" lon="105.04623"><ele>290.29086</ele><time>2026-07-21T18:25:08.000Z</time></trkpt>
        <trkpt lat="28.710617" lon="105.046228"><ele>290.56778</ele><time>2026-07-21T18:25:10.000Z</time></trkpt>
        <trkpt lat="28.710642" lon="105.046223"><ele>290.54562</ele><time>2026-07-21T18:25:14.000Z</time></trkpt>
        <trkpt lat="28.710642" lon="105.046223"><ele>290.3471</ele><time>2026-07-21T18:25:16.000Z</time></trkpt>
        <trkpt lat="28.710651" lon="105.046224"><ele>289.03125</ele><time>2026-07-21T18:25:18.000Z</time></trkpt>
        <trkpt lat="28.71068" lon="105.046227"><ele>288.47263</ele><time>2026-07-21T18:25:20.000Z</time></trkpt>
        <trkpt lat="28.710722" lon="105.046231"><ele>288.7679</ele><time>2026-07-21T18:25:22.000Z</time></trkpt>
        <trkpt lat="28.710759" lon="105.046237"><ele>288.0521</ele><time>2026-07-21T18:25:24.000Z</time></trkpt>
        <trkpt lat="28.710792" lon="105.046246"><ele>287.33994</ele><time>2026-07-21T18:25:26.000Z</time></trkpt>
        <trkpt lat="28.710819" lon="105.046255"><ele>286.63504</ele><time>2026-07-21T18:25:28.000Z</time></trkpt>
        <trkpt lat="28.710841" lon="105.046263"><ele>285.39337</ele><time>2026-07-21T18:25:30.000Z</time></trkpt>
        <trkpt lat="28.710859" lon="105.046272"><ele>285.4168</ele><time>2026-07-21T18:25:32.000Z</time></trkpt>
        <trkpt lat="28.710877" lon="105.046282"><ele>284.9172</ele><time>2026-07-21T18:25:34.000Z</time></trkpt>
        <trkpt lat="28.710894" lon="105.046292"><ele>284.44473</ele><time>2026-07-21T18:25:36.000Z</time></trkpt>
        <trkpt lat="28.71091" lon="105.046303"><ele>283.00674</ele><time>2026-07-21T18:25:38.000Z</time></trkpt>
        <trkpt lat="28.710925" lon="105.046317"><ele>283.42096</ele><time>2026-07-21T18:25:40.000Z</time></trkpt>
        <trkpt lat="28.71094" lon="105.046332"><ele>283.858</ele><time>2026-07-21T18:25:42.000Z</time></trkpt>
        <trkpt lat="28.710953" lon="105.046347"><ele>283.50284</ele><time>2026-07-21T18:25:44.000Z</time></trkpt>
        <trkpt lat="28.710964" lon="105.04636"><ele>284.02527</ele><time>2026-07-21T18:25:46.000Z</time></trkpt>
        <trkpt lat="28.710978" lon="105.046377"><ele>283.51443</ele><time>2026-07-21T18:25:48.000Z</time></trkpt>
        <trkpt lat="28.710992" lon="105.046392"><ele>283.33533</ele><time>2026-07-21T18:25:50.000Z</time></trkpt>
        <trkpt lat="28.711005" lon="105.046408"><ele>283.1021</ele><time>2026-07-21T18:25:52.000Z</time></trkpt>
        <trkpt lat="28.71102" lon="105.046427"><ele>283.08524</ele><time>2026-07-21T18:25:54.000Z</time></trkpt>
        <trkpt lat="28.711037" lon="105.046447"><ele>283.0396</ele><time>2026-07-21T18:25:56.000Z</time></trkpt>
        <trkpt lat="28.711054" lon="105.046464"><ele>282.86127</ele><time>2026-07-21T18:25:58.000Z</time></trkpt>
        <trkpt lat="28.711073" lon="105.046481"><ele>283.0613</ele><time>2026-07-21T18:26:00.000Z</time></trkpt>
        <trkpt lat="28.711092" lon="105.046496"><ele>282.87448</ele><time>2026-07-21T18:26:02.000Z</time></trkpt>
        <trkpt lat="28.71111" lon="105.046508"><ele>283.07187</ele><time>2026-07-21T18:26:04.000Z</time></trkpt>
        <trkpt lat="28.711126" lon="105.046519"><ele>283.91318</ele><time>2026-07-21T18:26:06.000Z</time></trkpt>
        <trkpt lat="28.711144" lon="105.046531"><ele>282.81433</ele><time>2026-07-21T18:26:08.000Z</time></trkpt>
        <trkpt lat="28.71116" lon="105.046543"><ele>283.5715</ele><time>2026-07-21T18:26:10.000Z</time></trkpt>
        <trkpt lat="28.711174" lon="105.046554"><ele>283.2019</ele><time>2026-07-21T18:26:12.000Z</time></trkpt>
        <trkpt lat="28.711192" lon="105.046563"><ele>283.63797</ele><time>2026-07-21T18:26:14.000Z</time></trkpt>
        <trkpt lat="28.711211" lon="105.046574"><ele>283.31897</ele><time>2026-07-21T18:26:16.000Z</time></trkpt>
        <trkpt lat="28.711229" lon="105.046582"><ele>284.6065</ele><time>2026-07-21T18:26:18.000Z</time></trkpt>
        <trkpt lat="28.711247" lon="105.046589"><ele>283.96445</ele><time>2026-07-21T18:26:20.000Z</time></trkpt>
        <trkpt lat="28.711265" lon="105.046595"><ele>285.08292</ele><time>2026-07-21T18:26:22.000Z</time></trkpt>
        <trkpt lat="28.711282" lon="105.046599"><ele>284.79083</ele><time>2026-07-21T18:26:24.000Z</time></trkpt>
        <trkpt lat="28.711299" lon="105.0466"><ele>285.0432</ele><time>2026-07-21T18:26:26.000Z</time></trkpt>
        <trkpt lat="28.711318" lon="105.046597"><ele>284.89282</ele><time>2026-07-21T18:26:28.000Z</time></trkpt>
        <trkpt lat="28.711336" lon="105.046588"><ele>285.98315</ele><time>2026-07-21T18:26:30.000Z</time></trkpt>
        <trkpt lat="28.711356" lon="105.046576"><ele>285.98935</ele><time>2026-07-21T18:26:32.000Z</time></trkpt>
        <trkpt lat="28.711373" lon="105.04656"><ele>286.1867</ele><time>2026-07-21T18:26:34.000Z</time></trkpt>
        <trkpt lat="28.711388" lon="105.046544"><ele>286.4842</ele><time>2026-07-21T18:26:36.000Z</time></trkpt>
        <trkpt lat="28.711399" lon="105.046525"><ele>286.50323</ele><time>2026-07-21T18:26:38.000Z</time></trkpt>
        <trkpt lat="28.711405" lon="105.046509"><ele>286.4242</ele><time>2026-07-21T18:26:40.000Z</time></trkpt>
        <trkpt lat="28.71141" lon="105.046493"><ele>286.98273</ele><time>2026-07-21T18:26:42.000Z</time></trkpt>
        <trkpt lat="28.711416" lon="105.046477"><ele>286.09064</ele><time>2026-07-21T18:26:44.000Z</time></trkpt>
        <trkpt lat="28.711422" lon="105.046461"><ele>286.9177</ele><time>2026-07-21T18:26:46.000Z</time></trkpt>
        <trkpt lat="28.711429" lon="105.046444"><ele>287.30954</ele><time>2026-07-21T18:26:48.000Z</time></trkpt>
        <trkpt lat="28.711435" lon="105.04643"><ele>287.27295</ele><time>2026-07-21T18:26:50.000Z</time></trkpt>
        <trkpt lat="28.711442" lon="105.046416"><ele>287.9139</ele><time>2026-07-21T18:26:52.000Z</time></trkpt>
        <trkpt lat="28.711447" lon="105.046403"><ele>288.43207</ele><time>2026-07-21T18:26:54.000Z</time></trkpt>
        <trkpt lat="28.711454" lon="105.04639"><ele>288.30823</ele><time>2026-07-21T18:26:56.000Z</time></trkpt>
        <trkpt lat="28.711461" lon="105.046378"><ele>288.2415</ele><time>2026-07-21T18:26:58.000Z</time></trkpt>
        <trkpt lat="28.711468" lon="105.046364"><ele>288.54056</ele><time>2026-07-21T18:27:00.000Z</time></trkpt>
        <trkpt lat="28.711473" lon="105.046347"><ele>288.99744</ele><time>2026-07-21T18:27:02.000Z</time></trkpt>
        <trkpt lat="28.711479" lon="105.046329"><ele>288.9822</ele><time>2026-07-21T18:27:04.000Z</time></trkpt>
        <trkpt lat="28.711485" lon="105.046314"><ele>288.71353</ele><time>2026-07-21T18:27:06.000Z</time></trkpt>
        <trkpt lat="28.711493" lon="105.046301"><ele>289.00986</ele><time>2026-07-21T18:27:08.000Z</time></trkpt>
        <trkpt lat="28.711502" lon="105.046288"><ele>289.69067</ele><time>2026-07-21T18:27:10.000Z</time></trkpt>
        <trkpt lat="28.711512" lon="105.046277"><ele>290.23132</ele><time>2026-07-21T18:27:12.000Z</time></trkpt>
        <trkpt lat="28.711524" lon="105.046265"><ele>290.17242</ele><time>2026-07-21T18:27:14.000Z</time></trkpt>
        <trkpt lat="28.711537" lon="105.046253"><ele>290.37918</ele><time>2026-07-21T18:27:16.000Z</time></trkpt>
        <trkpt lat="28.711551" lon="105.046243"><ele>290.45908</ele><time>2026-07-21T18:27:18.000Z</time></trkpt>
        <trkpt lat="28.711566" lon="105.046232"><ele>290.83902</ele><time>2026-07-21T18:27:20.000Z</time></trkpt>
        <trkpt lat="28.711579" lon="105.046222"><ele>291.45367</ele><time>2026-07-21T18:27:22.000Z</time></trkpt>
        <trkpt lat="28.711592" lon="105.046212"><ele>291.61612</ele><time>2026-07-21T18:27:24.000Z</time></trkpt>
        <trkpt lat="28.711606" lon="105.046202"><ele>291.97406</ele><time>2026-07-21T18:27:26.000Z</time></trkpt>
        <trkpt lat="28.711619" lon="105.046192"><ele>292.08078</ele><time>2026-07-21T18:27:28.000Z</time></trkpt>
        <trkpt lat="28.711633" lon="105.046183"><ele>292.3698</ele><time>2026-07-21T18:27:30.000Z</time></trkpt>
        <trkpt lat="28.711647" lon="105.046175"><ele>292.3186</ele><time>2026-07-21T18:27:32.000Z</time></trkpt>
        <trkpt lat="28.711662" lon="105.046168"><ele>292.42053</ele><time>2026-07-21T18:27:34.000Z</time></trkpt>
        <trkpt lat="28.711678" lon="105.046161"><ele>292.27966</ele><time>2026-07-21T18:27:36.000Z</time></trkpt>
        <trkpt lat="28.711695" lon="105.046154"><ele>292.44162</ele><time>2026-07-21T18:27:38.000Z</time></trkpt>
        <trkpt lat="28.711711" lon="105.046146"><ele>292.62994</ele><time>2026-07-21T18:27:40.000Z</time></trkpt>
        <trkpt lat="28.711726" lon="105.046135"><ele>292.51477</ele><time>2026-07-21T18:27:42.000Z</time></trkpt>
        <trkpt lat="28.711737" lon="105.046127"><ele>293.6437</ele><time>2026-07-21T18:27:44.000Z</time></trkpt>
        <trkpt lat="28.711747" lon="105.046119"><ele>292.60272</ele><time>2026-07-21T18:27:46.000Z</time></trkpt>
        <trkpt lat="28.711756" lon="105.046115"><ele>292.71494</ele><time>2026-07-21T18:27:48.000Z</time></trkpt>
        <trkpt lat="28.71177" lon="105.046113"><ele>292.61557</ele><time>2026-07-21T18:27:50.000Z</time></trkpt>
        <trkpt lat="28.711788" lon="105.046114"><ele>292.4439</ele><time>2026-07-21T18:27:52.000Z</time></trkpt>
        <trkpt lat="28.711806" lon="105.046119"><ele>292.73715</ele><time>2026-07-21T18:27:54.000Z</time></trkpt>
        <trkpt lat="28.711826" lon="105.046125"><ele>292.49017</ele><time>2026-07-21T18:27:56.000Z</time></trkpt>
        <trkpt lat="28.711845" lon="105.046134"><ele>292.49054</ele><time>2026-07-21T18:27:58.000Z</time></trkpt>
        <trkpt lat="28.711862" lon="105.046144"><ele>292.4284</ele><time>2026-07-21T18:28:00.000Z</time></trkpt>
        <trkpt lat="28.711876" lon="105.046158"><ele>292.97055</ele><time>2026-07-21T18:28:02.000Z</time></trkpt>
        <trkpt lat="28.711888" lon="105.046172"><ele>293.06677</ele><time>2026-07-21T18:28:04.000Z</time></trkpt>
        <trkpt lat="28.7119" lon="105.046185"><ele>292.6628</ele><time>2026-07-21T18:28:06.000Z</time></trkpt>
        <trkpt lat="28.711917" lon="105.046194"><ele>293.87375</ele><time>2026-07-21T18:28:08.000Z</time></trkpt>
        <trkpt lat="28.711934" lon="105.046202"><ele>293.80096</ele><time>2026-07-21T18:28:10.000Z</time></trkpt>
        <trkpt lat="28.711953" lon="105.046215"><ele>293.35522</ele><time>2026-07-21T18:28:12.000Z</time></trkpt>
        <trkpt lat="28.711966" lon="105.046229"><ele>293.43652</ele><time>2026-07-21T18:28:14.000Z</time></trkpt>
        <trkpt lat="28.711976" lon="105.046244"><ele>293.4875</ele><time>2026-07-21T18:28:16.000Z</time></trkpt>
        <trkpt lat="28.711985" lon="105.04626"><ele>293.33862</ele><time>2026-07-21T18:28:18.000Z</time></trkpt>
        <trkpt lat="28.711993" lon="105.046276"><ele>293.58005</ele><time>2026-07-21T18:28:20.000Z</time></trkpt>
        <trkpt lat="28.712001" lon="105.046292"><ele>293.38318</ele><time>2026-07-21T18:28:22.000Z</time></trkpt>
        <trkpt lat="28.712009" lon="105.046308"><ele>293.33926</ele><time>2026-07-21T18:28:24.000Z</time></trkpt>
        <trkpt lat="28.712017" lon="105.046325"><ele>292.92984</ele><time>2026-07-21T18:28:26.000Z</time></trkpt>
        <trkpt lat="28.712026" lon="105.046341"><ele>292.97534</ele><time>2026-07-21T18:28:28.000Z</time></trkpt>
        <trkpt lat="28.712034" lon="105.046357"><ele>293.1335</ele><time>2026-07-21T18:28:30.000Z</time></trkpt>
        <trkpt lat="28.712043" lon="105.046374"><ele>293.16342</ele><time>2026-07-21T18:28:32.000Z</time></trkpt>
        <trkpt lat="28.71205" lon="105.046392"><ele>292.9827</ele><time>2026-07-21T18:28:34.000Z</time></trkpt>
        <trkpt lat="28.712058" lon="105.046409"><ele>292.87692</ele><time>2026-07-21T18:28:36.000Z</time></trkpt>
        <trkpt lat="28.712065" lon="105.046426"><ele>292.7865</ele><time>2026-07-21T18:28:38.000Z</time></trkpt>
        <trkpt lat="28.712073" lon="105.046444"><ele>293.0372</ele><time>2026-07-21T18:28:40.000Z</time></trkpt>
        <trkpt lat="28.712081" lon="105.04646"><ele>291.70712</ele><time>2026-07-21T18:28:42.000Z</time></trkpt>
        <trkpt lat="28.712086" lon="105.046474"><ele>291.56396</ele><time>2026-07-21T18:28:44.000Z</time></trkpt>
        <trkpt lat="28.712092" lon="105.046491"><ele>292.24475</ele><time>2026-07-21T18:28:46.000Z</time></trkpt>
        <trkpt lat="28.712096" lon="105.046512"><ele>292.14264</ele><time>2026-07-21T18:28:48.000Z</time></trkpt>
        <trkpt lat="28.712097" lon="105.046535"><ele>292.89133</ele><time>2026-07-21T18:28:50.000Z</time></trkpt>
        <trkpt lat="28.712098" lon="105.046557"><ele>292.3363</ele><time>2026-07-21T18:28:52.000Z</time></trkpt>
        <trkpt lat="28.712098" lon="105.046577"><ele>292.3446</ele><time>2026-07-21T18:28:54.000Z</time></trkpt>
        <trkpt lat="28.7121" lon="105.046598"><ele>292.32135</ele><time>2026-07-21T18:28:56.000Z</time></trkpt>
        <trkpt lat="28.712103" lon="105.046619"><ele>292.93707</ele><time>2026-07-21T18:28:58.000Z</time></trkpt>
        <trkpt lat="28.712108" lon="105.046642"><ele>293.2866</ele><time>2026-07-21T18:29:00.000Z</time></trkpt>
        <trkpt lat="28.712114" lon="105.046665"><ele>293.0293</ele><time>2026-07-21T18:29:02.000Z</time></trkpt>
        <trkpt lat="28.71212" lon="105.046688"><ele>292.97528</ele><time>2026-07-21T18:29:04.000Z</time></trkpt>
        <trkpt lat="28.712126" lon="105.046707"><ele>292.90952</ele><time>2026-07-21T18:29:06.000Z</time></trkpt>
        <trkpt lat="28.712129" lon="105.04672"><ele>292.895</ele><time>2026-07-21T18:29:08.000Z</time></trkpt>
        <trkpt lat="28.712133" lon="105.046739"><ele>292.91788</ele><time>2026-07-21T18:29:10.000Z</time></trkpt>
        <trkpt lat="28.712136" lon="105.04676"><ele>292.90213</ele><time>2026-07-21T18:29:12.000Z</time></trkpt>
        <trkpt lat="28.712141" lon="105.046781"><ele>292.41403</ele><time>2026-07-21T18:29:14.000Z</time></trkpt>
        <trkpt lat="28.712148" lon="105.046802"><ele>291.52023</ele><time>2026-07-21T18:29:16.000Z</time></trkpt>
        <trkpt lat="28.712156" lon="105.046822"><ele>291.64835</ele><time>2026-07-21T18:29:18.000Z</time></trkpt>
        <trkpt lat="28.712163" lon="105.046841"><ele>291.74973</ele><time>2026-07-21T18:29:20.000Z</time></trkpt>
        <trkpt lat="28.712169" lon="105.046858"><ele>291.23734</ele><time>2026-07-21T18:29:22.000Z</time></trkpt>
        <trkpt lat="28.712179" lon="105.046873"><ele>290.9864</ele><time>2026-07-21T18:29:24.000Z</time></trkpt>
        <trkpt lat="28.712192" lon="105.046884"><ele>291.27972</ele><time>2026-07-21T18:29:26.000Z</time></trkpt>
        <trkpt lat="28.712207" lon="105.046893"><ele>291.20694</ele><time>2026-07-21T18:29:28.000Z</time></trkpt>
        <trkpt lat="28.712227" lon="105.046901"><ele>290.85745</ele><time>2026-07-21T18:29:30.000Z</time></trkpt>
        <trkpt lat="28.712247" lon="105.046909"><ele>290.68884</ele><time>2026-07-21T18:29:32.000Z</time></trkpt>
        <trkpt lat="28.712268" lon="105.046918"><ele>291.00385</ele><time>2026-07-21T18:29:34.000Z</time></trkpt>
        <trkpt lat="28.712291" lon="105.046928"><ele>290.59238</ele><time>2026-07-21T18:29:36.000Z</time></trkpt>
        <trkpt lat="28.712314" lon="105.046938"><ele>291.39865</ele><time>2026-07-21T18:29:38.000Z</time></trkpt>
        <trkpt lat="28.712334" lon="105.046947"><ele>291.07672</ele><time>2026-07-21T18:29:40.000Z</time></trkpt>
        <trkpt lat="28.712355" lon="105.046955"><ele>290.85672</ele><time>2026-07-21T18:29:42.000Z</time></trkpt>
        <trkpt lat="28.712374" lon="105.046962"><ele>291.015</ele><time>2026-07-21T18:29:44.000Z</time></trkpt>
        <trkpt lat="28.712393" lon="105.046967"><ele>290.9332</ele><time>2026-07-21T18:29:46.000Z</time></trkpt>
        <trkpt lat="28.712411" lon="105.046969"><ele>291.4173</ele><time>2026-07-21T18:29:48.000Z</time></trkpt>
        <trkpt lat="28.712429" lon="105.046971"><ele>290.78107</ele><time>2026-07-21T18:29:50.000Z</time></trkpt>
        <trkpt lat="28.71245" lon="105.046972"><ele>291.14206</ele><time>2026-07-21T18:29:52.000Z</time></trkpt>
        <trkpt lat="28.712468" lon="105.046972"><ele>292.12448</ele><time>2026-07-21T18:29:54.000Z</time></trkpt>
        <trkpt lat="28.712486" lon="105.046973"><ele>292.2681</ele><time>2026-07-21T18:29:56.000Z</time></trkpt>
        <trkpt lat="28.7125" lon="105.046973"><ele>292.17758</ele><time>2026-07-21T18:29:58.000Z</time></trkpt>
        <trkpt lat="28.712512" lon="105.046973"><ele>291.81708</ele><time>2026-07-21T18:30:00.000Z</time></trkpt>
        <trkpt lat="28.712521" lon="105.046973"><ele>291.63477</ele><time>2026-07-21T18:30:02.000Z</time></trkpt>
        <trkpt lat="28.712532" lon="105.046975"><ele>291.6643</ele><time>2026-07-21T18:30:04.000Z</time></trkpt>
        <trkpt lat="28.712546" lon="105.046979"><ele>292.3197</ele><time>2026-07-21T18:30:06.000Z</time></trkpt>
        <trkpt lat="28.712559" lon="105.046983"><ele>292.09045</ele><time>2026-07-21T18:30:08.000Z</time></trkpt>
        <trkpt lat="28.712572" lon="105.046989"><ele>292.39133</ele><time>2026-07-21T18:30:10.000Z</time></trkpt>
        <trkpt lat="28.712589" lon="105.046996"><ele>292.98596</ele><time>2026-07-21T18:30:12.000Z</time></trkpt>
        <trkpt lat="28.712606" lon="105.046999"><ele>292.60886</ele><time>2026-07-21T18:30:14.000Z</time></trkpt>
        <trkpt lat="28.712622" lon="105.047005"><ele>293.98392</ele><time>2026-07-21T18:30:16.000Z</time></trkpt>
        <trkpt lat="28.712635" lon="105.047013"><ele>293.4129</ele><time>2026-07-21T18:30:18.000Z</time></trkpt>
        <trkpt lat="28.712647" lon="105.047022"><ele>293.4605</ele><time>2026-07-21T18:30:20.000Z</time></trkpt>
        <trkpt lat="28.71266" lon="105.047031"><ele>293.57712</ele><time>2026-07-21T18:30:22.000Z</time></trkpt>
        <trkpt lat="28.712672" lon="105.047039"><ele>293.77148</ele><time>2026-07-21T18:30:24.000Z</time></trkpt>
        <trkpt lat="28.712685" lon="105.047046"><ele>294.09488</ele><time>2026-07-21T18:30:26.000Z</time></trkpt>
        <trkpt lat="28.712697" lon="105.047051"><ele>294.30298</ele><time>2026-07-21T18:30:28.000Z</time></trkpt>
        <trkpt lat="28.712709" lon="105.047056"><ele>294.71875</ele><time>2026-07-21T18:30:30.000Z</time></trkpt>
        <trkpt lat="28.712722" lon="105.047062"><ele>294.44406</ele><time>2026-07-21T18:30:32.000Z</time></trkpt>
        <trkpt lat="28.712734" lon="105.04707"><ele>295.44943</ele><time>2026-07-21T18:30:34.000Z</time></trkpt>
        <trkpt lat="28.712745" lon="105.047081"><ele>295.65286</ele><time>2026-07-21T18:30:36.000Z</time></trkpt>
        <trkpt lat="28.712757" lon="105.047093"><ele>295.4128</ele><time>2026-07-21T18:30:38.000Z</time></trkpt>
        <trkpt lat="28.71277" lon="105.047103"><ele>295.78268</ele><time>2026-07-21T18:30:40.000Z</time></trkpt>
        <trkpt lat="28.712784" lon="105.04711"><ele>295.7922</ele><time>2026-07-21T18:30:42.000Z</time></trkpt>
        <trkpt lat="28.7128" lon="105.047117"><ele>296.03433</ele><time>2026-07-21T18:30:44.000Z</time></trkpt>
        <trkpt lat="28.712816" lon="105.047122"><ele>296.3204</ele><time>2026-07-21T18:30:46.000Z</time></trkpt>
        <trkpt lat="28.712833" lon="105.047125"><ele>296.26913</ele><time>2026-07-21T18:30:48.000Z</time></trkpt>
        <trkpt lat="28.71285" lon="105.047129"><ele>296.7111</ele><time>2026-07-21T18:30:50.000Z</time></trkpt>
        <trkpt lat="28.712866" lon="105.047134"><ele>296.69235</ele><time>2026-07-21T18:30:52.000Z</time></trkpt>
        <trkpt lat="28.712883" lon="105.047139"><ele>296.91296</ele><time>2026-07-21T18:30:54.000Z</time></trkpt>
        <trkpt lat="28.7129" lon="105.047144"><ele>296.7569</ele><time>2026-07-21T18:30:56.000Z</time></trkpt>
        <trkpt lat="28.712918" lon="105.04715"><ele>296.9446</ele><time>2026-07-21T18:30:58.000Z</time></trkpt>
        <trkpt lat="28.712934" lon="105.047155"><ele>296.943</ele><time>2026-07-21T18:31:00.000Z</time></trkpt>
        <trkpt lat="28.712949" lon="105.047159"><ele>297.34088</ele><time>2026-07-21T18:31:02.000Z</time></trkpt>
        <trkpt lat="28.712964" lon="105.047161"><ele>297.57733</ele><time>2026-07-21T18:31:04.000Z</time></trkpt>
        <trkpt lat="28.712977" lon="105.047163"><ele>297.8083</ele><time>2026-07-21T18:31:06.000Z</time></trkpt>
        <trkpt lat="28.712991" lon="105.047165"><ele>297.91928</ele><time>2026-07-21T18:31:08.000Z</time></trkpt>
        <trkpt lat="28.713005" lon="105.047168"><ele>298.06503</ele><time>2026-07-21T18:31:10.000Z</time></trkpt>
        <trkpt lat="28.713019" lon="105.04717"><ele>298.29373</ele><time>2026-07-21T18:31:12.000Z</time></trkpt>
        <trkpt lat="28.713033" lon="105.047171"><ele>298.55585</ele><time>2026-07-21T18:31:14.000Z</time></trkpt>
        <trkpt lat="28.713045" lon="105.047171"><ele>298.55005</ele><time>2026-07-21T18:31:16.000Z</time></trkpt>
        <trkpt lat="28.713059" lon="105.047171"><ele>298.77188</ele><time>2026-07-21T18:31:18.000Z</time></trkpt>
        <trkpt lat="28.713073" lon="105.047171"><ele>298.54376</ele><time>2026-07-21T18:31:20.000Z</time></trkpt>
        <trkpt lat="28.713088" lon="105.04717"><ele>299.12238</ele><time>2026-07-21T18:31:22.000Z</time></trkpt>
        <trkpt lat="28.713102" lon="105.047169"><ele>299.88773</ele><time>2026-07-21T18:31:24.000Z</time></trkpt>
        <trkpt lat="28.713116" lon="105.047167"><ele>300.10648</ele><time>2026-07-21T18:31:26.000Z</time></trkpt>
        <trkpt lat="28.713131" lon="105.047163"><ele>300.04224</ele><time>2026-07-21T18:31:28.000Z</time></trkpt>
        <trkpt lat="28.713147" lon="105.047159"><ele>300.69128</ele><time>2026-07-21T18:31:30.000Z</time></trkpt>
        <trkpt lat="28.713161" lon="105.047156"><ele>300.74963</ele><time>2026-07-21T18:31:32.000Z</time></trkpt>
        <trkpt lat="28.713175" lon="105.047153"><ele>300.91922</ele><time>2026-07-21T18:31:34.000Z</time></trkpt>
        <trkpt lat="28.71319" lon="105.04715"><ele>301.70963</ele><time>2026-07-21T18:31:36.000Z</time></trkpt>
        <trkpt lat="28.713204" lon="105.047148"><ele>301.70782</ele><time>2026-07-21T18:31:38.000Z</time></trkpt>
        <trkpt lat="28.713218" lon="105.047146"><ele>301.66882</ele><time>2026-07-21T18:31:40.000Z</time></trkpt>
        <trkpt lat="28.71323" lon="105.047142"><ele>302.24164</ele><time>2026-07-21T18:31:42.000Z</time></trkpt>
        <trkpt lat="28.713242" lon="105.047136"><ele>302.81934</ele><time>2026-07-21T18:31:44.000Z</time></trkpt>
        <trkpt lat="28.713256" lon="105.047131"><ele>302.69098</ele><time>2026-07-21T18:31:46.000Z</time></trkpt>
        <trkpt lat="28.71327" lon="105.047125"><ele>303.22287</ele><time>2026-07-21T18:31:48.000Z</time></trkpt>
        <trkpt lat="28.713284" lon="105.047121"><ele>302.9748</ele><time>2026-07-21T18:31:50.000Z</time></trkpt>
        <trkpt lat="28.713299" lon="105.047116"><ele>303.92935</ele><time>2026-07-21T18:31:52.000Z</time></trkpt>
        <trkpt lat="28.713312" lon="105.047112"><ele>302.86646</ele><time>2026-07-21T18:31:54.000Z</time></trkpt>
        <trkpt lat="28.713323" lon="105.04711"><ele>303.45587</ele><time>2026-07-21T18:31:56.000Z</time></trkpt>
        <trkpt lat="28.713333" lon="105.047111"><ele>303.73624</ele><time>2026-07-21T18:31:58.000Z</time></trkpt>
        <trkpt lat="28.713349" lon="105.047112"><ele>303.47534</ele><time>2026-07-21T18:32:00.000Z</time></trkpt>
        <trkpt lat="28.713363" lon="105.047113"><ele>303.7566</ele><time>2026-07-21T18:32:02.000Z</time></trkpt>
        <trkpt lat="28.713382" lon="105.047114"><ele>303.6758</ele><time>2026-07-21T18:32:04.000Z</time></trkpt>
        <trkpt lat="28.713414" lon="105.04711"><ele>303.37878</ele><time>2026-07-21T18:32:06.000Z</time></trkpt>
        <trkpt lat="28.713431" lon="105.047107"><ele>302.4267</ele><time>2026-07-21T18:32:08.000Z</time></trkpt>
        <trkpt lat="28.713445" lon="105.047103"><ele>302.0867</ele><time>2026-07-21T18:32:10.000Z</time></trkpt>
        <trkpt lat="28.713455" lon="105.047097"><ele>302.28403</ele><time>2026-07-21T18:32:12.000Z</time></trkpt>
        <trkpt lat="28.713469" lon="105.047088"><ele>301.8592</ele><time>2026-07-21T18:32:14.000Z</time></trkpt>
        <trkpt lat="28.713486" lon="105.04708"><ele>301.7395</ele><time>2026-07-21T18:32:16.000Z</time></trkpt>
        <trkpt lat="28.713503" lon="105.047073"><ele>300.90237</ele><time>2026-07-21T18:32:18.000Z</time></trkpt>
        <trkpt lat="28.71352" lon="105.047067"><ele>300.23834</ele><time>2026-07-21T18:32:20.000Z</time></trkpt>
        <trkpt lat="28.713538" lon="105.04706"><ele>300.47372</ele><time>2026-07-21T18:32:22.000Z</time></trkpt>
        <trkpt lat="28.713557" lon="105.047055"><ele>300.76746</ele><time>2026-07-21T18:32:24.000Z</time></trkpt>
        <trkpt lat="28.713571" lon="105.047053"><ele>299.82065</ele><time>2026-07-21T18:32:26.000Z</time></trkpt>
        <trkpt lat="28.713579" lon="105.047052"><ele>300.1118</ele><time>2026-07-21T18:32:28.000Z</time></trkpt>
        <trkpt lat="28.713596" lon="105.047052"><ele>299.40286</ele><time>2026-07-21T18:32:30.000Z</time></trkpt>
        <trkpt lat="28.713619" lon="105.047053"><ele>300.1182</ele><time>2026-07-21T18:32:32.000Z</time></trkpt>
        <trkpt lat="28.713642" lon="105.047053"><ele>300.5016</ele><time>2026-07-21T18:32:34.000Z</time></trkpt>
        <trkpt lat="28.713658" lon="105.047053"><ele>299.85223</ele><time>2026-07-21T18:32:36.000Z</time></trkpt>
        <trkpt lat="28.713674" lon="105.047053"><ele>299.2794</ele><time>2026-07-21T18:32:38.000Z</time></trkpt>
        <trkpt lat="28.713697" lon="105.047055"><ele>299.73993</ele><time>2026-07-21T18:32:40.000Z</time></trkpt>
        <trkpt lat="28.713711" lon="105.047058"><ele>299.8228</ele><time>2026-07-21T18:32:42.000Z</time></trkpt>
        <trkpt lat="28.71373" lon="105.047066"><ele>299.56503</ele><time>2026-07-21T18:32:44.000Z</time></trkpt>
        <trkpt lat="28.713748" lon="105.047078"><ele>299.16107</ele><time>2026-07-21T18:32:46.000Z</time></trkpt>
        <trkpt lat="28.713768" lon="105.047092"><ele>299.10077</ele><time>2026-07-21T18:32:48.000Z</time></trkpt>
        <trkpt lat="28.713783" lon="105.047104"><ele>299.52972</ele><time>2026-07-21T18:32:50.000Z</time></trkpt>
        <trkpt lat="28.713795" lon="105.047116"><ele>298.5565</ele><time>2026-07-21T18:32:52.000Z</time></trkpt>
        <trkpt lat="28.713805" lon="105.04713"><ele>297.9252</ele><time>2026-07-21T18:32:54.000Z</time></trkpt>
        <trkpt lat="28.713816" lon="105.047142"><ele>297.13852</ele><time>2026-07-21T18:32:56.000Z</time></trkpt>
        <trkpt lat="28.713829" lon="105.047156"><ele>297.7243</ele><time>2026-07-21T18:32:58.000Z</time></trkpt>
        <trkpt lat="28.713844" lon="105.04717"><ele>297.70972</ele><time>2026-07-21T18:33:00.000Z</time></trkpt>
        <trkpt lat="28.713857" lon="105.047183"><ele>298.51584</ele><time>2026-07-21T18:33:02.000Z</time></trkpt>
        <trkpt lat="28.71387" lon="105.047202"><ele>297.60532</ele><time>2026-07-21T18:33:04.000Z</time></trkpt>
        <trkpt lat="28.713879" lon="105.047219"><ele>296.64163</ele><time>2026-07-21T18:33:06.000Z</time></trkpt>
        <trkpt lat="28.71389" lon="105.047235"><ele>296.46777</ele><time>2026-07-21T18:33:08.000Z</time></trkpt>
        <trkpt lat="28.7139" lon="105.047244"><ele>297.4565</ele><time>2026-07-21T18:33:09.000Z</time></trkpt>
        <trkpt lat="28.713916" lon="105.047257"><ele>296.75842</ele><time>2026-07-21T18:33:11.000Z</time></trkpt>
        <trkpt lat="28.713933" lon="105.047271"><ele>296.4333</ele><time>2026-07-21T18:33:13.000Z</time></trkpt>
        <trkpt lat="28.713946" lon="105.04728"><ele>296.15073</ele><time>2026-07-21T18:33:15.000Z</time></trkpt>
        <trkpt lat="28.713956" lon="105.047288"><ele>296.06317</ele><time>2026-07-21T18:33:17.000Z</time></trkpt>
        <trkpt lat="28.713978" lon="105.047303"><ele>295.7094</ele><time>2026-07-21T18:33:19.000Z</time></trkpt>
        <trkpt lat="28.713999" lon="105.047319"><ele>295.57788</ele><time>2026-07-21T18:33:21.000Z</time></trkpt>
        <trkpt lat="28.714018" lon="105.047333"><ele>295.0625</ele><time>2026-07-21T18:33:24.000Z</time></trkpt>
        <trkpt lat="28.714036" lon="105.047349"><ele>294.652</ele><time>2026-07-21T18:33:26.000Z</time></trkpt>
        <trkpt lat="28.714054" lon="105.047367"><ele>293.2987</ele><time>2026-07-21T18:33:28.000Z</time></trkpt>
        <trkpt lat="28.714071" lon="105.04738"><ele>293.65677</ele><time>2026-07-21T18:33:30.000Z</time></trkpt>
        <trkpt lat="28.714088" lon="105.047393"><ele>293.27405</ele><time>2026-07-21T18:33:32.000Z</time></trkpt>
        <trkpt lat="28.714103" lon="105.047403"><ele>292.97717</ele><time>2026-07-21T18:33:34.000Z</time></trkpt>
        <trkpt lat="28.714118" lon="105.047414"><ele>292.55377</ele><time>2026-07-21T18:33:36.000Z</time></trkpt>
        <trkpt lat="28.714134" lon="105.047426"><ele>292.68893</ele><time>2026-07-21T18:33:38.000Z</time></trkpt>
        <trkpt lat="28.714151" lon="105.047438"><ele>292.21857</ele><time>2026-07-21T18:33:40.000Z</time></trkpt>
        <trkpt lat="28.714168" lon="105.047452"><ele>292.06088</ele><time>2026-07-21T18:33:42.000Z</time></trkpt>
        <trkpt lat="28.714185" lon="105.047469"><ele>291.1181</ele><time>2026-07-21T18:33:44.000Z</time></trkpt>
        <trkpt lat="28.714199" lon="105.047486"><ele>290.545</ele><time>2026-07-21T18:33:46.000Z</time></trkpt>
        <trkpt lat="28.714212" lon="105.047503"><ele>291.37827</ele><time>2026-07-21T18:33:48.000Z</time></trkpt>
        <trkpt lat="28.714224" lon="105.047519"><ele>290.8744</ele><time>2026-07-21T18:33:50.000Z</time></trkpt>
        <trkpt lat="28.714236" lon="105.047537"><ele>290.6869</ele><time>2026-07-21T18:33:52.000Z</time></trkpt>
        <trkpt lat="28.714247" lon="105.047554"><ele>290.15182</ele><time>2026-07-21T18:33:54.000Z</time></trkpt>
        <trkpt lat="28.714257" lon="105.047572"><ele>289.73706</ele><time>2026-07-21T18:33:56.000Z</time></trkpt>
        <trkpt lat="28.714267" lon="105.047591"><ele>289.6533</ele><time>2026-07-21T18:33:58.000Z</time></trkpt>
        <trkpt lat="28.714277" lon="105.04761"><ele>289.28336</ele><time>2026-07-21T18:34:00.000Z</time></trkpt>
        <trkpt lat="28.714287" lon="105.047627"><ele>288.88666</ele><time>2026-07-21T18:34:02.000Z</time></trkpt>
        <trkpt lat="28.714298" lon="105.047645"><ele>288.56876</ele><time>2026-07-21T18:34:04.000Z</time></trkpt>
        <trkpt lat="28.714308" lon="105.047662"><ele>288.44946</ele><time>2026-07-21T18:34:06.000Z</time></trkpt>
        <trkpt lat="28.714319" lon="105.047678"><ele>288.26346</ele><time>2026-07-21T18:34:08.000Z</time></trkpt>
        <trkpt lat="28.714328" lon="105.047694"><ele>288.1814</ele><time>2026-07-21T18:34:10.000Z</time></trkpt>
        <trkpt lat="28.714337" lon="105.047709"><ele>288.0586</ele><time>2026-07-21T18:34:12.000Z</time></trkpt>
        <trkpt lat="28.714345" lon="105.047724"><ele>288.04495</ele><time>2026-07-21T18:34:14.000Z</time></trkpt>
        <trkpt lat="28.714354" lon="105.047741"><ele>287.85867</ele><time>2026-07-21T18:34:16.000Z</time></trkpt>
        <trkpt lat="28.714362" lon="105.047757"><ele>287.89694</ele><time>2026-07-21T18:34:18.000Z</time></trkpt>
        <trkpt lat="28.714372" lon="105.047774"><ele>287.9095</ele><time>2026-07-21T18:34:20.000Z</time></trkpt>
        <trkpt lat="28.71438" lon="105.047788"><ele>287.73862</ele><time>2026-07-21T18:34:22.000Z</time></trkpt>
        <trkpt lat="28.714388" lon="105.047801"><ele>287.65182</ele><time>2026-07-21T18:34:24.000Z</time></trkpt>
        <trkpt lat="28.714398" lon="105.047815"><ele>287.48447</ele><time>2026-07-21T18:34:26.000Z</time></trkpt>
        <trkpt lat="28.714408" lon="105.04783"><ele>286.69098</ele><time>2026-07-21T18:34:28.000Z</time></trkpt>
        <trkpt lat="28.71442" lon="105.047849"><ele>287.30515</ele><time>2026-07-21T18:34:30.000Z</time></trkpt>
        <trkpt lat="28.71443" lon="105.047866"><ele>287.42993</ele><time>2026-07-21T18:34:32.000Z</time></trkpt>
        <trkpt lat="28.714441" lon="105.047883"><ele>287.58426</ele><time>2026-07-21T18:34:34.000Z</time></trkpt>
        <trkpt lat="28.714453" lon="105.047903"><ele>287.91867</ele><time>2026-07-21T18:34:36.000Z</time></trkpt>
        <trkpt lat="28.714465" lon="105.047924"><ele>287.77975</ele><time>2026-07-21T18:34:38.000Z</time></trkpt>
        <trkpt lat="28.714478" lon="105.047944"><ele>287.74237</ele><time>2026-07-21T18:34:40.000Z</time></trkpt>
        <trkpt lat="28.714491" lon="105.047963"><ele>287.6529</ele><time>2026-07-21T18:34:42.000Z</time></trkpt>
        <trkpt lat="28.714507" lon="105.047978"><ele>287.511</ele><time>2026-07-21T18:34:44.000Z</time></trkpt>
        <trkpt lat="28.714522" lon="105.047984"><ele>287.6084</ele><time>2026-07-21T18:34:46.000Z</time></trkpt>
        <trkpt lat="28.714539" lon="105.047986"><ele>287.97668</ele><time>2026-07-21T18:34:48.000Z</time></trkpt>
        <trkpt lat="28.714557" lon="105.047984"><ele>286.28082</ele><time>2026-07-21T18:34:50.000Z</time></trkpt>
        <trkpt lat="28.714574" lon="105.047981"><ele>285.68475</ele><time>2026-07-21T18:34:52.000Z</time></trkpt>
        <trkpt lat="28.714592" lon="105.047977"><ele>286.13593</ele><time>2026-07-21T18:34:54.000Z</time></trkpt>
        <trkpt lat="28.714609" lon="105.047974"><ele>285.66196</ele><time>2026-07-21T18:34:56.000Z</time></trkpt>
        <trkpt lat="28.714628" lon="105.047971"><ele>285.45334</ele><time>2026-07-21T18:34:58.000Z</time></trkpt>
        <trkpt lat="28.714646" lon="105.047968"><ele>284.74335</ele><time>2026-07-21T18:35:00.000Z</time></trkpt>
        <trkpt lat="28.714667" lon="105.047963"><ele>284.9605</ele><time>2026-07-21T18:35:02.000Z</time></trkpt>
        <trkpt lat="28.714689" lon="105.047963"><ele>285.30008</ele><time>2026-07-21T18:35:04.000Z</time></trkpt>
        <trkpt lat="28.714702" lon="105.04797"><ele>284.47858</ele><time>2026-07-21T18:35:06.000Z</time></trkpt>
        <trkpt lat="28.714707" lon="105.047978"><ele>284.46967</ele><time>2026-07-21T18:35:08.000Z</time></trkpt>
        <trkpt lat="28.714716" lon="105.047993"><ele>284.30435</ele><time>2026-07-21T18:35:10.000Z</time></trkpt>
        <trkpt lat="28.714726" lon="105.048011"><ele>285.1437</ele><time>2026-07-21T18:35:11.000Z</time></trkpt>
        <trkpt lat="28.714737" lon="105.04803"><ele>284.29764</ele><time>2026-07-21T18:35:13.000Z</time></trkpt>
        <trkpt lat="28.714748" lon="105.048048"><ele>284.6075</ele><time>2026-07-21T18:35:15.000Z</time></trkpt>
        <trkpt lat="28.714763" lon="105.048068"><ele>284.17886</ele><time>2026-07-21T18:35:17.000Z</time></trkpt>
        <trkpt lat="28.714775" lon="105.048085"><ele>284.62228</ele><time>2026-07-21T18:35:19.000Z</time></trkpt>
        <trkpt lat="28.714787" lon="105.048101"><ele>284.07068</ele><time>2026-07-21T18:35:21.000Z</time></trkpt>
        <trkpt lat="28.714802" lon="105.048118"><ele>283.40384</ele><time>2026-07-21T18:35:23.000Z</time></trkpt>
        <trkpt lat="28.714816" lon="105.048132"><ele>283.53812</ele><time>2026-07-21T18:35:25.000Z</time></trkpt>
        <trkpt lat="28.714833" lon="105.048147"><ele>282.91528</ele><time>2026-07-21T18:35:27.000Z</time></trkpt>
        <trkpt lat="28.71485" lon="105.04816"><ele>283.01288</ele><time>2026-07-21T18:35:29.000Z</time></trkpt>
        <trkpt lat="28.714864" lon="105.048171"><ele>282.40347</ele><time>2026-07-21T18:35:31.000Z</time></trkpt>
        <trkpt lat="28.714879" lon="105.048182"><ele>282.5741</ele><time>2026-07-21T18:35:33.000Z</time></trkpt>
        <trkpt lat="28.714895" lon="105.048194"><ele>282.6319</ele><time>2026-07-21T18:35:35.000Z</time></trkpt>
        <trkpt lat="28.714909" lon="105.048205"><ele>282.73264</ele><time>2026-07-21T18:35:37.000Z</time></trkpt>
        <trkpt lat="28.714922" lon="105.048218"><ele>282.27438</ele><time>2026-07-21T18:35:39.000Z</time></trkpt>
        <trkpt lat="28.714938" lon="105.048232"><ele>282.30267</ele><time>2026-07-21T18:35:41.000Z</time></trkpt>
        <trkpt lat="28.714954" lon="105.048245"><ele>282.95822</ele><time>2026-07-21T18:35:43.000Z</time></trkpt>
        <trkpt lat="28.714971" lon="105.048258"><ele>283.17032</ele><time>2026-07-21T18:35:45.000Z</time></trkpt>
        <trkpt lat="28.714988" lon="105.048271"><ele>283.41568</ele><time>2026-07-21T18:35:47.000Z</time></trkpt>
        <trkpt lat="28.715005" lon="105.048284"><ele>283.09045</ele><time>2026-07-21T18:35:49.000Z</time></trkpt>
        <trkpt lat="28.71502" lon="105.048297"><ele>283.29395</ele><time>2026-07-21T18:35:51.000Z</time></trkpt>
        <trkpt lat="28.715036" lon="105.048312"><ele>283.20193</ele><time>2026-07-21T18:35:53.000Z</time></trkpt>
        <trkpt lat="28.715052" lon="105.048327"><ele>282.8032</ele><time>2026-07-21T18:35:55.000Z</time></trkpt>
        <trkpt lat="28.715066" lon="105.048343"><ele>282.45453</ele><time>2026-07-21T18:35:58.000Z</time></trkpt>
        <trkpt lat="28.71508" lon="105.048357"><ele>282.6681</ele><time>2026-07-21T18:36:00.000Z</time></trkpt>
        <trkpt lat="28.715094" lon="105.048372"><ele>281.88336</ele><time>2026-07-21T18:36:02.000Z</time></trkpt>
        <trkpt lat="28.715109" lon="105.048386"><ele>281.94986</ele><time>2026-07-21T18:36:04.000Z</time></trkpt>
        <trkpt lat="28.715123" lon="105.048401"><ele>281.8568</ele><time>2026-07-21T18:36:06.000Z</time></trkpt>
        <trkpt lat="28.715135" lon="105.048417"><ele>281.58557</ele><time>2026-07-21T18:36:08.000Z</time></trkpt>
        <trkpt lat="28.71515" lon="105.048432"><ele>282.25296</ele><time>2026-07-21T18:36:10.000Z</time></trkpt>
        <trkpt lat="28.71517" lon="105.048438"><ele>282.2129</ele><time>2026-07-21T18:36:12.000Z</time></trkpt>
        <trkpt lat="28.715188" lon="105.048445"><ele>282.35544</ele><time>2026-07-21T18:36:14.000Z</time></trkpt>
        <trkpt lat="28.715206" lon="105.048458"><ele>281.20453</ele><time>2026-07-21T18:36:16.000Z</time></trkpt>
        <trkpt lat="28.715221" lon="105.048477"><ele>281.7297</ele><time>2026-07-21T18:36:18.000Z</time></trkpt>
        <trkpt lat="28.715232" lon="105.048498"><ele>281.40692</ele><time>2026-07-21T18:36:20.000Z</time></trkpt>
        <trkpt lat="28.715242" lon="105.04852"><ele>281.26483</ele><time>2026-07-21T18:36:22.000Z</time></trkpt>
        <trkpt lat="28.715249" lon="105.048542"><ele>281.93228</ele><time>2026-07-21T18:36:24.000Z</time></trkpt>
        <trkpt lat="28.715255" lon="105.04856"><ele>281.65228</ele><time>2026-07-21T18:36:26.000Z</time></trkpt>
        <trkpt lat="28.715266" lon="105.048574"><ele>281.2104</ele><time>2026-07-21T18:36:28.000Z</time></trkpt>
        <trkpt lat="28.715281" lon="105.04859"><ele>281.98264</ele><time>2026-07-21T18:36:30.000Z</time></trkpt>
        <trkpt lat="28.715297" lon="105.048606"><ele>281.4593</ele><time>2026-07-21T18:36:32.000Z</time></trkpt>
        <trkpt lat="28.715312" lon="105.04862"><ele>281.23172</ele><time>2026-07-21T18:36:34.000Z</time></trkpt>
        <trkpt lat="28.715326" lon="105.048635"><ele>280.19293</ele><time>2026-07-21T18:36:36.000Z</time></trkpt>
        <trkpt lat="28.715336" lon="105.048649"><ele>281.11304</ele><time>2026-07-21T18:36:38.000Z</time></trkpt>
        <trkpt lat="28.715347" lon="105.048669"><ele>280.6543</ele><time>2026-07-21T18:36:40.000Z</time></trkpt>
        <trkpt lat="28.715355" lon="105.048688"><ele>280.43747</ele><time>2026-07-21T18:36:42.000Z</time></trkpt>
        <trkpt lat="28.715364" lon="105.048702"><ele>281.4661</ele><time>2026-07-21T18:36:44.000Z</time></trkpt>
        <trkpt lat="28.715375" lon="105.048718"><ele>281.6619</ele><time>2026-07-21T18:36:46.000Z</time></trkpt>
        <trkpt lat="28.715386" lon="105.048736"><ele>281.17465</ele><time>2026-07-21T18:36:48.000Z</time></trkpt>
        <trkpt lat="28.715396" lon="105.04875"><ele>280.53452</ele><time>2026-07-21T18:36:50.000Z</time></trkpt>
        <trkpt lat="28.715408" lon="105.048766"><ele>280.669</ele><time>2026-07-21T18:36:52.000Z</time></trkpt>
        <trkpt lat="28.715424" lon="105.048779"><ele>281.0053</ele><time>2026-07-21T18:36:54.000Z</time></trkpt>
        <trkpt lat="28.71544" lon="105.048794"><ele>281.0309</ele><time>2026-07-21T18:36:56.000Z</time></trkpt>
        <trkpt lat="28.715454" lon="105.048808"><ele>280.03424</ele><time>2026-07-21T18:36:58.000Z</time></trkpt>
        <trkpt lat="28.715469" lon="105.048825"><ele>280.40207</ele><time>2026-07-21T18:37:00.000Z</time></trkpt>
        <trkpt lat="28.715483" lon="105.048843"><ele>280.1948</ele><time>2026-07-21T18:37:02.000Z</time></trkpt>
        <trkpt lat="28.715496" lon="105.04886"><ele>280.20023</ele><time>2026-07-21T18:37:04.000Z</time></trkpt>
        <trkpt lat="28.715509" lon="105.048879"><ele>280.46408</ele><time>2026-07-21T18:37:06.000Z</time></trkpt>
        <trkpt lat="28.71552" lon="105.048897"><ele>279.47827</ele><time>2026-07-21T18:37:08.000Z</time></trkpt>
        <trkpt lat="28.715533" lon="105.048917"><ele>279.44858</ele><time>2026-07-21T18:37:10.000Z</time></trkpt>
        <trkpt lat="28.715545" lon="105.048939"><ele>279.69348</ele><time>2026-07-21T18:37:12.000Z</time></trkpt>
        <trkpt lat="28.715553" lon="105.048959"><ele>279.33383</ele><time>2026-07-21T18:37:14.000Z</time></trkpt>
        <trkpt lat="28.715559" lon="105.048977"><ele>279.0274</ele><time>2026-07-21T18:37:16.000Z</time></trkpt>
        <trkpt lat="28.715563" lon="105.048995"><ele>278.87332</ele><time>2026-07-21T18:37:17.000Z</time></trkpt>
        <trkpt lat="28.715565" lon="105.049013"><ele>278.6825</ele><time>2026-07-21T18:37:19.000Z</time></trkpt>
        <trkpt lat="28.715568" lon="105.04903"><ele>278.35004</ele><time>2026-07-21T18:37:21.000Z</time></trkpt>
        <trkpt lat="28.715571" lon="105.049047"><ele>278.55997</ele><time>2026-07-21T18:37:23.000Z</time></trkpt>
        <trkpt lat="28.715573" lon="105.049063"><ele>278.81915</ele><time>2026-07-21T18:37:25.000Z</time></trkpt>
        <trkpt lat="28.715573" lon="105.049084"><ele>277.92276</ele><time>2026-07-21T18:37:27.000Z</time></trkpt>
        <trkpt lat="28.715573" lon="105.049106"><ele>278.63757</ele><time>2026-07-21T18:37:29.000Z</time></trkpt>
        <trkpt lat="28.715572" lon="105.049128"><ele>279.12485</ele><time>2026-07-21T18:37:31.000Z</time></trkpt>
        <trkpt lat="28.715568" lon="105.04915"><ele>279.14963</ele><time>2026-07-21T18:37:33.000Z</time></trkpt>
        <trkpt lat="28.715562" lon="105.049172"><ele>278.93124</ele><time>2026-07-21T18:37:35.000Z</time></trkpt>
        <trkpt lat="28.715554" lon="105.049195"><ele>279.59372</ele><time>2026-07-21T18:37:37.000Z</time></trkpt>
        <trkpt lat="28.715543" lon="105.049218"><ele>280.2749</ele><time>2026-07-21T18:37:39.000Z</time></trkpt>
        <trkpt lat="28.715532" lon="105.049238"><ele>279.5937</ele><time>2026-07-21T18:37:42.000Z</time></trkpt>
        <trkpt lat="28.71552" lon="105.049257"><ele>280.22696</ele><time>2026-07-21T18:37:44.000Z</time></trkpt>
        <trkpt lat="28.715506" lon="105.049274"><ele>281.14764</ele><time>2026-07-21T18:37:46.000Z</time></trkpt>
        <trkpt lat="28.715493" lon="105.04929"><ele>280.515</ele><time>2026-07-21T18:37:48.000Z</time></trkpt>
        <trkpt lat="28.715479" lon="105.049308"><ele>280.39056</ele><time>2026-07-21T18:37:50.000Z</time></trkpt>
        <trkpt lat="28.715466" lon="105.049325"><ele>279.97006</ele><time>2026-07-21T18:37:52.000Z</time></trkpt>
        <trkpt lat="28.715453" lon="105.049343"><ele>280.1373</ele><time>2026-07-21T18:37:54.000Z</time></trkpt>
        <trkpt lat="28.715441" lon="105.049361"><ele>280.35217</ele><time>2026-07-21T18:37:56.000Z</time></trkpt>
        <trkpt lat="28.715429" lon="105.049381"><ele>280.32874</ele><time>2026-07-21T18:37:58.000Z</time></trkpt>
        <trkpt lat="28.715416" lon="105.049402"><ele>280.27625</ele><time>2026-07-21T18:38:00.000Z</time></trkpt>
        <trkpt lat="28.715404" lon="105.049423"><ele>280.11023</ele><time>2026-07-21T18:38:02.000Z</time></trkpt>
        <trkpt lat="28.715394" lon="105.049446"><ele>280.43427</ele><time>2026-07-21T18:38:04.000Z</time></trkpt>
        <trkpt lat="28.715384" lon="105.04947"><ele>279.9992</ele><time>2026-07-21T18:38:06.000Z</time></trkpt>
        <trkpt lat="28.715376" lon="105.049494"><ele>280.056</ele><time>2026-07-21T18:38:08.000Z</time></trkpt>
        <trkpt lat="28.715369" lon="105.049518"><ele>279.53738</ele><time>2026-07-21T18:38:10.000Z</time></trkpt>
        <trkpt lat="28.715363" lon="105.049541"><ele>279.769</ele><time>2026-07-21T18:38:12.000Z</time></trkpt>
        <trkpt lat="28.715358" lon="105.049565"><ele>280.11395</ele><time>2026-07-21T18:38:14.000Z</time></trkpt>
        <trkpt lat="28.715352" lon="105.049587"><ele>280.746</ele><time>2026-07-21T18:38:16.000Z</time></trkpt>
        <trkpt lat="28.715348" lon="105.049609"><ele>279.13577</ele><time>2026-07-21T18:38:18.000Z</time></trkpt>
        <trkpt lat="28.715345" lon="105.049633"><ele>279.79898</ele><time>2026-07-21T18:38:20.000Z</time></trkpt>
        <trkpt lat="28.715344" lon="105.049657"><ele>279.7556</ele><time>2026-07-21T18:38:22.000Z</time></trkpt>
        <trkpt lat="28.715344" lon="105.049681"><ele>280.34534</ele><time>2026-07-21T18:38:24.000Z</time></trkpt>
        <trkpt lat="28.715344" lon="105.049707"><ele>279.66342</ele><time>2026-07-21T18:38:26.000Z</time></trkpt>
        <trkpt lat="28.715346" lon="105.049735"><ele>279.70422</ele><time>2026-07-21T18:38:28.000Z</time></trkpt>
        <trkpt lat="28.71535" lon="105.049766"><ele>279.67047</ele><time>2026-07-21T18:38:30.000Z</time></trkpt>
        <trkpt lat="28.715354" lon="105.049784"><ele>278.90768</ele><time>2026-07-21T18:38:32.000Z</time></trkpt>
        <trkpt lat="28.715358" lon="105.049801"><ele>276.85184</ele><time>2026-07-21T18:38:34.000Z</time></trkpt>
        <trkpt lat="28.715366" lon="105.049823"><ele>277.4794</ele><time>2026-07-21T18:38:36.000Z</time></trkpt>
        <trkpt lat="28.715375" lon="105.049847"><ele>278.1608</ele><time>2026-07-21T18:38:38.000Z</time></trkpt>
        <trkpt lat="28.715386" lon="105.049871"><ele>278.64935</ele><time>2026-07-21T18:38:40.000Z</time></trkpt>
        <trkpt lat="28.715396" lon="105.049893"><ele>278.7628</ele><time>2026-07-21T18:38:42.000Z</time></trkpt>
        <trkpt lat="28.715407" lon="105.049916"><ele>277.7322</ele><time>2026-07-21T18:38:44.000Z</time></trkpt>
        <trkpt lat="28.71542" lon="105.049939"><ele>277.76025</ele><time>2026-07-21T18:38:46.000Z</time></trkpt>
        <trkpt lat="28.715432" lon="105.049961"><ele>278.3895</ele><time>2026-07-21T18:38:48.000Z</time></trkpt>
        <trkpt lat="28.715444" lon="105.049979"><ele>278.90335</ele><time>2026-07-21T18:38:50.000Z</time></trkpt>
        <trkpt lat="28.715455" lon="105.049996"><ele>277.7987</ele><time>2026-07-21T18:38:52.000Z</time></trkpt>
        <trkpt lat="28.715468" lon="105.050013"><ele>278.1843</ele><time>2026-07-21T18:38:54.000Z</time></trkpt>
        <trkpt lat="28.715482" lon="105.050031"><ele>278.7362</ele><time>2026-07-21T18:38:56.000Z</time></trkpt>
        <trkpt lat="28.715494" lon="105.050048"><ele>279.19858</ele><time>2026-07-21T18:38:58.000Z</time></trkpt>
        <trkpt lat="28.715508" lon="105.050068"><ele>280.23434</ele><time>2026-07-21T18:39:00.000Z</time></trkpt>
        <trkpt lat="28.71552" lon="105.050086"><ele>280.15997</ele><time>2026-07-21T18:39:02.000Z</time></trkpt>
        <trkpt lat="28.715533" lon="105.050102"><ele>280.5678</ele><time>2026-07-21T18:39:04.000Z</time></trkpt>
        <trkpt lat="28.715548" lon="105.050119"><ele>280.8969</ele><time>2026-07-21T18:39:06.000Z</time></trkpt>
        <trkpt lat="28.715565" lon="105.050136"><ele>280.85675</ele><time>2026-07-21T18:39:08.000Z</time></trkpt>
        <trkpt lat="28.715581" lon="105.050152"><ele>281.45163</ele><time>2026-07-21T18:39:10.000Z</time></trkpt>
        <trkpt lat="28.715598" lon="105.050167"><ele>282.31906</ele><time>2026-07-21T18:39:12.000Z</time></trkpt>
        <trkpt lat="28.715615" lon="105.050184"><ele>281.4133</ele><time>2026-07-21T18:39:14.000Z</time></trkpt>
        <trkpt lat="28.71563" lon="105.050201"><ele>281.8114</ele><time>2026-07-21T18:39:16.000Z</time></trkpt>
        <trkpt lat="28.715646" lon="105.050219"><ele>282.40866</ele><time>2026-07-21T18:39:18.000Z</time></trkpt>
        <trkpt lat="28.715662" lon="105.050238"><ele>282.52078</ele><time>2026-07-21T18:39:20.000Z</time></trkpt>
        <trkpt lat="28.715676" lon="105.050254"><ele>282.25067</ele><time>2026-07-21T18:39:22.000Z</time></trkpt>
        <trkpt lat="28.715688" lon="105.050269"><ele>282.2592</ele><time>2026-07-21T18:39:24.000Z</time></trkpt>
        <trkpt lat="28.7157" lon="105.050284"><ele>282.63678</ele><time>2026-07-21T18:39:26.000Z</time></trkpt>
        <trkpt lat="28.715712" lon="105.050302"><ele>283.29214</ele><time>2026-07-21T18:39:28.000Z</time></trkpt>
        <trkpt lat="28.715723" lon="105.05032"><ele>282.56973</ele><time>2026-07-21T18:39:30.000Z</time></trkpt>
        <trkpt lat="28.715736" lon="105.050339"><ele>282.46777</ele><time>2026-07-21T18:39:32.000Z</time></trkpt>
        <trkpt lat="28.715751" lon="105.05036"><ele>283.48914</ele><time>2026-07-21T18:39:34.000Z</time></trkpt>
        <trkpt lat="28.715767" lon="105.050384"><ele>283.28775</ele><time>2026-07-21T18:39:36.000Z</time></trkpt>
        <trkpt lat="28.715783" lon="105.050407"><ele>283.35315</ele><time>2026-07-21T18:39:38.000Z</time></trkpt>
        <trkpt lat="28.715798" lon="105.050427"><ele>283.5162</ele><time>2026-07-21T18:39:40.000Z</time></trkpt>
        <trkpt lat="28.715812" lon="105.050442"><ele>284.5945</ele><time>2026-07-21T18:39:42.000Z</time></trkpt>
        <trkpt lat="28.715828" lon="105.050458"><ele>284.20267</ele><time>2026-07-21T18:39:44.000Z</time></trkpt>
        <trkpt lat="28.715844" lon="105.050477"><ele>284.03873</ele><time>2026-07-21T18:39:46.000Z</time></trkpt>
        <trkpt lat="28.715858" lon="105.050495"><ele>283.60562</ele><time>2026-07-21T18:39:48.000Z</time></trkpt>
        <trkpt lat="28.715871" lon="105.050514"><ele>283.22125</ele><time>2026-07-21T18:39:50.000Z</time></trkpt>
        <trkpt lat="28.715885" lon="105.050534"><ele>283.5406</ele><time>2026-07-21T18:39:52.000Z</time></trkpt>
        <trkpt lat="28.715898" lon="105.050552"><ele>283.54895</ele><time>2026-07-21T18:39:54.000Z</time></trkpt>
        <trkpt lat="28.715911" lon="105.05057"><ele>283.75327</ele><time>2026-07-21T18:39:56.000Z</time></trkpt>
        <trkpt lat="28.715924" lon="105.050587"><ele>283.69608</ele><time>2026-07-21T18:39:58.000Z</time></trkpt>
        <trkpt lat="28.715937" lon="105.050605"><ele>283.92953</ele><time>2026-07-21T18:40:00.000Z</time></trkpt>
        <trkpt lat="28.71595" lon="105.050622"><ele>283.94174</ele><time>2026-07-21T18:40:02.000Z</time></trkpt>
        <trkpt lat="28.715964" lon="105.05064"><ele>284.2053</ele><time>2026-07-21T18:40:04.000Z</time></trkpt>
        <trkpt lat="28.715978" lon="105.050659"><ele>284.2348</ele><time>2026-07-21T18:40:06.000Z</time></trkpt>
        <trkpt lat="28.715993" lon="105.050677"><ele>284.29224</ele><time>2026-07-21T18:40:08.000Z</time></trkpt>
        <trkpt lat="28.716007" lon="105.050697"><ele>284.29294</ele><time>2026-07-21T18:40:10.000Z</time></trkpt>
        <trkpt lat="28.71602" lon="105.050717"><ele>284.02466</ele><time>2026-07-21T18:40:12.000Z</time></trkpt>
        <trkpt lat="28.716032" lon="105.050737"><ele>284.0347</ele><time>2026-07-21T18:40:14.000Z</time></trkpt>
        <trkpt lat="28.716043" lon="105.050757"><ele>283.94455</ele><time>2026-07-21T18:40:16.000Z</time></trkpt>
        <trkpt lat="28.716055" lon="105.050779"><ele>283.8967</ele><time>2026-07-21T18:40:18.000Z</time></trkpt>
        <trkpt lat="28.716066" lon="105.050799"><ele>284.32358</ele><time>2026-07-21T18:40:20.000Z</time></trkpt>
        <trkpt lat="28.716078" lon="105.05082"><ele>284.53833</ele><time>2026-07-21T18:40:22.000Z</time></trkpt>
        <trkpt lat="28.716089" lon="105.05084"><ele>284.70303</ele><time>2026-07-21T18:40:24.000Z</time></trkpt>
        <trkpt lat="28.716099" lon="105.05086"><ele>284.72083</ele><time>2026-07-21T18:40:26.000Z</time></trkpt>
        <trkpt lat="28.716109" lon="105.050881"><ele>284.69238</ele><time>2026-07-21T18:40:28.000Z</time></trkpt>
        <trkpt lat="28.71612" lon="105.050902"><ele>284.78305</ele><time>2026-07-21T18:40:30.000Z</time></trkpt>
        <trkpt lat="28.71613" lon="105.050925"><ele>284.46106</ele><time>2026-07-21T18:40:32.000Z</time></trkpt>
        <trkpt lat="28.71614" lon="105.050947"><ele>284.2403</ele><time>2026-07-21T18:40:34.000Z</time></trkpt>
        <trkpt lat="28.716149" lon="105.05097"><ele>284.13947</ele><time>2026-07-21T18:40:36.000Z</time></trkpt>
        <trkpt lat="28.716157" lon="105.050994"><ele>283.648</ele><time>2026-07-21T18:40:38.000Z</time></trkpt>
        <trkpt lat="28.716164" lon="105.051018"><ele>283.70905</ele><time>2026-07-21T18:40:40.000Z</time></trkpt>
        <trkpt lat="28.716169" lon="105.051043"><ele>283.2965</ele><time>2026-07-21T18:40:42.000Z</time></trkpt>
        <trkpt lat="28.716174" lon="105.051068"><ele>283.1593</ele><time>2026-07-21T18:40:44.000Z</time></trkpt>
        <trkpt lat="28.716178" lon="105.051094"><ele>283.09897</ele><time>2026-07-21T18:40:46.000Z</time></trkpt>
        <trkpt lat="28.716181" lon="105.05112"><ele>282.95612</ele><time>2026-07-21T18:40:48.000Z</time></trkpt>
        <trkpt lat="28.716182" lon="105.051145"><ele>282.7569</ele><time>2026-07-21T18:40:50.000Z</time></trkpt>
        <trkpt lat="28.716182" lon="105.051168"><ele>282.64365</ele><time>2026-07-21T18:40:52.000Z</time></trkpt>
        <trkpt lat="28.716181" lon="105.051191"><ele>282.14865</ele><time>2026-07-21T18:40:54.000Z</time></trkpt>
        <trkpt lat="28.716181" lon="105.051215"><ele>282.03668</ele><time>2026-07-21T18:40:56.000Z</time></trkpt>
        <trkpt lat="28.71618" lon="105.051241"><ele>281.42834</ele><time>2026-07-21T18:40:58.000Z</time></trkpt>
        <trkpt lat="28.716177" lon="105.051261"><ele>281.9345</ele><time>2026-07-21T18:41:00.000Z</time></trkpt>
        <trkpt lat="28.71617" lon="105.051284"><ele>281.0571</ele><time>2026-07-21T18:41:02.000Z</time></trkpt>
        <trkpt lat="28.716162" lon="105.051307"><ele>280.6254</ele><time>2026-07-21T18:41:04.000Z</time></trkpt>
        <trkpt lat="28.716152" lon="105.05133"><ele>280.38083</ele><time>2026-07-21T18:41:06.000Z</time></trkpt>
        <trkpt lat="28.71614" lon="105.051352"><ele>280.43195</ele><time>2026-07-21T18:41:08.000Z</time></trkpt>
        <trkpt lat="28.71613" lon="105.051373"><ele>279.98026</ele><time>2026-07-21T18:41:10.000Z</time></trkpt>
        <trkpt lat="28.716118" lon="105.051395"><ele>279.8522</ele><time>2026-07-21T18:41:12.000Z</time></trkpt>
        <trkpt lat="28.716106" lon="105.051416"><ele>279.61334</ele><time>2026-07-21T18:41:14.000Z</time></trkpt>
        <trkpt lat="28.716094" lon="105.051439"><ele>279.62183</ele><time>2026-07-21T18:41:16.000Z</time></trkpt>
        <trkpt lat="28.716084" lon="105.051464"><ele>279.89688</ele><time>2026-07-21T18:41:18.000Z</time></trkpt>
        <trkpt lat="28.716079" lon="105.051487"><ele>278.79053</ele><time>2026-07-21T18:41:20.000Z</time></trkpt>
        <trkpt lat="28.716078" lon="105.051504"><ele>280.02698</ele><time>2026-07-21T18:41:22.000Z</time></trkpt>
        <trkpt lat="28.71608" lon="105.051525"><ele>280.04205</ele><time>2026-07-21T18:41:24.000Z</time></trkpt>
        <trkpt lat="28.716082" lon="105.051546"><ele>280.407</ele><time>2026-07-21T18:41:26.000Z</time></trkpt>
        <trkpt lat="28.716085" lon="105.051572"><ele>279.52344</ele><time>2026-07-21T18:41:28.000Z</time></trkpt>
        <trkpt lat="28.716087" lon="105.051599"><ele>279.13043</ele><time>2026-07-21T18:41:30.000Z</time></trkpt>
        <trkpt lat="28.716089" lon="105.051626"><ele>278.58026</ele><time>2026-07-21T18:41:32.000Z</time></trkpt>
        <trkpt lat="28.716093" lon="105.051653"><ele>278.56424</ele><time>2026-07-21T18:41:34.000Z</time></trkpt>
        <trkpt lat="28.7161" lon="105.051677"><ele>277.9677</ele><time>2026-07-21T18:41:36.000Z</time></trkpt>
        <trkpt lat="28.716112" lon="105.051697"><ele>278.31976</ele><time>2026-07-21T18:41:38.000Z</time></trkpt>
        <trkpt lat="28.71613" lon="105.05172"><ele>278.25153</ele><time>2026-07-21T18:41:40.000Z</time></trkpt>
        <trkpt lat="28.716149" lon="105.051741"><ele>277.37704</ele><time>2026-07-21T18:41:42.000Z</time></trkpt>
        <trkpt lat="28.716167" lon="105.051758"><ele>277.74594</ele><time>2026-07-21T18:41:44.000Z</time></trkpt>
        <trkpt lat="28.716186" lon="105.051773"><ele>277.89948</ele><time>2026-07-21T18:41:46.000Z</time></trkpt>
        <trkpt lat="28.716206" lon="105.051785"><ele>278.069</ele><time>2026-07-21T18:41:48.000Z</time></trkpt>
        <trkpt lat="28.716225" lon="105.051794"><ele>278.2596</ele><time>2026-07-21T18:41:50.000Z</time></trkpt>
        <trkpt lat="28.716245" lon="105.051801"><ele>278.23416</ele><time>2026-07-21T18:41:52.000Z</time></trkpt>
        <trkpt lat="28.716265" lon="105.051808"><ele>278.42365</ele><time>2026-07-21T18:41:54.000Z</time></trkpt>
        <trkpt lat="28.716285" lon="105.051814"><ele>278.58432</ele><time>2026-07-21T18:41:56.000Z</time></trkpt>
        <trkpt lat="28.716306" lon="105.051821"><ele>278.67017</ele><time>2026-07-21T18:41:58.000Z</time></trkpt>
        <trkpt lat="28.716326" lon="105.051828"><ele>278.68622</ele><time>2026-07-21T18:42:00.000Z</time></trkpt>
        <trkpt lat="28.716348" lon="105.051832"><ele>278.9462</ele><time>2026-07-21T18:42:02.000Z</time></trkpt>
        <trkpt lat="28.716369" lon="105.051833"><ele>278.8968</ele><time>2026-07-21T18:42:04.000Z</time></trkpt>
        <trkpt lat="28.716389" lon="105.051832"><ele>279.13928</ele><time>2026-07-21T18:42:06.000Z</time></trkpt>
        <trkpt lat="28.71641" lon="105.05183"><ele>279.12787</ele><time>2026-07-21T18:42:08.000Z</time></trkpt>
        <trkpt lat="28.716431" lon="105.051829"><ele>279.36337</ele><time>2026-07-21T18:42:10.000Z</time></trkpt>
        <trkpt lat="28.716452" lon="105.051827"><ele>279.58704</ele><time>2026-07-21T18:42:12.000Z</time></trkpt>
        <trkpt lat="28.716472" lon="105.051827"><ele>280.06802</ele><time>2026-07-21T18:42:14.000Z</time></trkpt>
        <trkpt lat="28.716492" lon="105.051827"><ele>280.19193</ele><time>2026-07-21T18:42:16.000Z</time></trkpt>
        <trkpt lat="28.716512" lon="105.051828"><ele>280.54175</ele><time>2026-07-21T18:42:18.000Z</time></trkpt>
        <trkpt lat="28.716532" lon="105.051831"><ele>280.41742</ele><time>2026-07-21T18:42:20.000Z</time></trkpt>
        <trkpt lat="28.716553" lon="105.051836"><ele>280.40097</ele><time>2026-07-21T18:42:22.000Z</time></trkpt>
        <trkpt lat="28.716574" lon="105.051842"><ele>280.90393</ele><time>2026-07-21T18:42:24.000Z</time></trkpt>
        <trkpt lat="28.716594" lon="105.051853"><ele>280.56714</ele><time>2026-07-21T18:42:26.000Z</time></trkpt>
        <trkpt lat="28.716611" lon="105.051866"><ele>280.14047</ele><time>2026-07-21T18:42:28.000Z</time></trkpt>
        <trkpt lat="28.716627" lon="105.051881"><ele>280.82568</ele><time>2026-07-21T18:42:30.000Z</time></trkpt>
        <trkpt lat="28.716642" lon="105.051897"><ele>280.6721</ele><time>2026-07-21T18:42:32.000Z</time></trkpt>
        <trkpt lat="28.716655" lon="105.051915"><ele>280.95593</ele><time>2026-07-21T18:42:34.000Z</time></trkpt>
        <trkpt lat="28.716666" lon="105.051931"><ele>280.5489</ele><time>2026-07-21T18:42:36.000Z</time></trkpt>
        <trkpt lat="28.716677" lon="105.05195"><ele>280.96466</ele><time>2026-07-21T18:42:38.000Z</time></trkpt>
        <trkpt lat="28.716688" lon="105.051971"><ele>280.68463</ele><time>2026-07-21T18:42:40.000Z</time></trkpt>
        <trkpt lat="28.716697" lon="105.051991"><ele>280.603</ele><time>2026-07-21T18:42:42.000Z</time></trkpt>
        <trkpt lat="28.716707" lon="105.052011"><ele>280.6256</ele><time>2026-07-21T18:42:44.000Z</time></trkpt>
        <trkpt lat="28.716718" lon="105.052031"><ele>280.90643</ele><time>2026-07-21T18:42:46.000Z</time></trkpt>
        <trkpt lat="28.716729" lon="105.052049"><ele>280.84857</ele><time>2026-07-21T18:42:48.000Z</time></trkpt>
        <trkpt lat="28.716739" lon="105.052069"><ele>281.05917</ele><time>2026-07-21T18:42:50.000Z</time></trkpt>
        <trkpt lat="28.71675" lon="105.052088"><ele>280.97247</ele><time>2026-07-21T18:42:52.000Z</time></trkpt>
        <trkpt lat="28.71676" lon="105.052108"><ele>280.99976</ele><time>2026-07-21T18:42:54.000Z</time></trkpt>
        <trkpt lat="28.71677" lon="105.052129"><ele>280.85062</ele><time>2026-07-21T18:42:56.000Z</time></trkpt>
        <trkpt lat="28.716779" lon="105.05215"><ele>280.84384</ele><time>2026-07-21T18:42:58.000Z</time></trkpt>
        <trkpt lat="28.716788" lon="105.05217"><ele>280.69757</ele><time>2026-07-21T18:43:00.000Z</time></trkpt>
        <trkpt lat="28.716797" lon="105.052191"><ele>280.64307</ele><time>2026-07-21T18:43:02.000Z</time></trkpt>
        <trkpt lat="28.716806" lon="105.052213"><ele>280.6242</ele><time>2026-07-21T18:43:04.000Z</time></trkpt>
        <trkpt lat="28.716814" lon="105.052234"><ele>280.62613</ele><time>2026-07-21T18:43:06.000Z</time></trkpt>
        <trkpt lat="28.716822" lon="105.052255"><ele>281.06284</ele><time>2026-07-21T18:43:08.000Z</time></trkpt>
        <trkpt lat="28.71683" lon="105.052275"><ele>280.9031</ele><time>2026-07-21T18:43:10.000Z</time></trkpt>
        <trkpt lat="28.71684" lon="105.052295"><ele>280.70007</ele><time>2026-07-21T18:43:12.000Z</time></trkpt>
        <trkpt lat="28.716851" lon="105.052315"><ele>280.48218</ele><time>2026-07-21T18:43:14.000Z</time></trkpt>
        <trkpt lat="28.716863" lon="105.052334"><ele>280.62256</ele><time>2026-07-21T18:43:16.000Z</time></trkpt>
        <trkpt lat="28.716875" lon="105.052348"><ele>279.78864</ele><time>2026-07-21T18:43:18.000Z</time></trkpt>
        <trkpt lat="28.71689" lon="105.052366"><ele>279.74088</ele><time>2026-07-21T18:43:20.000Z</time></trkpt>
        <trkpt lat="28.7169" lon="105.052382"><ele>279.79846</ele><time>2026-07-21T18:43:22.000Z</time></trkpt>
        <trkpt lat="28.716909" lon="105.0524"><ele>279.77768</ele><time>2026-07-21T18:43:24.000Z</time></trkpt>
        <trkpt lat="28.716917" lon="105.05242"><ele>279.52118</ele><time>2026-07-21T18:43:26.000Z</time></trkpt>
        <trkpt lat="28.716925" lon="105.052442"><ele>279.65027</ele><time>2026-07-21T18:43:28.000Z</time></trkpt>
        <trkpt lat="28.716931" lon="105.052464"><ele>280.85568</ele><time>2026-07-21T18:43:30.000Z</time></trkpt>
        <trkpt lat="28.716938" lon="105.052485"><ele>281.19482</ele><time>2026-07-21T18:43:32.000Z</time></trkpt>
        <trkpt lat="28.716947" lon="105.052506"><ele>281.50034</ele><time>2026-07-21T18:43:34.000Z</time></trkpt>
        <trkpt lat="28.716959" lon="105.052526"><ele>281.88724</ele><time>2026-07-21T18:43:35.000Z</time></trkpt>
        <trkpt lat="28.716968" lon="105.052546"><ele>282.86346</ele><time>2026-07-21T18:43:37.000Z</time></trkpt>
        <trkpt lat="28.71698" lon="105.052565"><ele>282.45908</ele><time>2026-07-21T18:43:39.000Z</time></trkpt>
        <trkpt lat="28.716992" lon="105.052585"><ele>282.72293</ele><time>2026-07-21T18:43:41.000Z</time></trkpt>
        <trkpt lat="28.717005" lon="105.052607"><ele>282.5923</ele><time>2026-07-21T18:43:43.000Z</time></trkpt>
        <trkpt lat="28.717017" lon="105.052628"><ele>282.40994</ele><time>2026-07-21T18:43:45.000Z</time></trkpt>
        <trkpt lat="28.71703" lon="105.052646"><ele>282.41824</ele><time>2026-07-21T18:43:47.000Z</time></trkpt>
        <trkpt lat="28.717043" lon="105.052667"><ele>282.53055</ele><time>2026-07-21T18:43:49.000Z</time></trkpt>
        <trkpt lat="28.717055" lon="105.052688"><ele>283.1872</ele><time>2026-07-21T18:43:51.000Z</time></trkpt>
        <trkpt lat="28.717065" lon="105.052707"><ele>282.62585</ele><time>2026-07-21T18:43:53.000Z</time></trkpt>
        <trkpt lat="28.717074" lon="105.052728"><ele>283.25684</ele><time>2026-07-21T18:43:56.000Z</time></trkpt>
        <trkpt lat="28.717083" lon="105.05275"><ele>283.39505</ele><time>2026-07-21T18:43:58.000Z</time></trkpt>
        <trkpt lat="28.717092" lon="105.052773"><ele>283.14755</ele><time>2026-07-21T18:44:00.000Z</time></trkpt>
        <trkpt lat="28.717101" lon="105.052796"><ele>282.76508</ele><time>2026-07-21T18:44:02.000Z</time></trkpt>
        <trkpt lat="28.717109" lon="105.052817"><ele>283.59998</ele><time>2026-07-21T18:44:04.000Z</time></trkpt>
        <trkpt lat="28.717118" lon="105.052841"><ele>284.07248</ele><time>2026-07-21T18:44:06.000Z</time></trkpt>
        <trkpt lat="28.717124" lon="105.052865"><ele>283.25513</ele><time>2026-07-21T18:44:08.000Z</time></trkpt>
        <trkpt lat="28.71713" lon="105.052886"><ele>283.847</ele><time>2026-07-21T18:44:10.000Z</time></trkpt>
        <trkpt lat="28.717138" lon="105.052907"><ele>284.24188</ele><time>2026-07-21T18:44:12.000Z</time></trkpt>
        <trkpt lat="28.717147" lon="105.052928"><ele>284.14993</ele><time>2026-07-21T18:44:14.000Z</time></trkpt>
        <trkpt lat="28.717157" lon="105.052948"><ele>284.23053</ele><time>2026-07-21T18:44:16.000Z</time></trkpt>
        <trkpt lat="28.71717" lon="105.052968"><ele>284.8657</ele><time>2026-07-21T18:44:18.000Z</time></trkpt>
        <trkpt lat="28.717181" lon="105.052986"><ele>284.6897</ele><time>2026-07-21T18:44:20.000Z</time></trkpt>
        <trkpt lat="28.717193" lon="105.053003"><ele>284.89868</ele><time>2026-07-21T18:44:22.000Z</time></trkpt>
        <trkpt lat="28.717206" lon="105.053022"><ele>285.11655</ele><time>2026-07-21T18:44:24.000Z</time></trkpt>
        <trkpt lat="28.717221" lon="105.053042"><ele>285.11008</ele><time>2026-07-21T18:44:26.000Z</time></trkpt>
        <trkpt lat="28.717235" lon="105.053063"><ele>284.75314</ele><time>2026-07-21T18:44:28.000Z</time></trkpt>
        <trkpt lat="28.717247" lon="105.053082"><ele>285.06335</ele><time>2026-07-21T18:44:30.000Z</time></trkpt>
        <trkpt lat="28.717259" lon="105.053102"><ele>283.91537</ele><time>2026-07-21T18:44:32.000Z</time></trkpt>
        <trkpt lat="28.717271" lon="105.053122"><ele>284.39066</ele><time>2026-07-21T18:44:34.000Z</time></trkpt>
        <trkpt lat="28.717282" lon="105.053143"><ele>284.26825</ele><time>2026-07-21T18:44:36.000Z</time></trkpt>
        <trkpt lat="28.717293" lon="105.053162"><ele>284.19055</ele><time>2026-07-21T18:44:38.000Z</time></trkpt>
        <trkpt lat="28.717305" lon="105.053185"><ele>283.86954</ele><time>2026-07-21T18:44:40.000Z</time></trkpt>
        <trkpt lat="28.717314" lon="105.053209"><ele>283.36542</ele><time>2026-07-21T18:44:42.000Z</time></trkpt>
        <trkpt lat="28.717321" lon="105.053232"><ele>283.33517</ele><time>2026-07-21T18:44:44.000Z</time></trkpt>
        <trkpt lat="28.717328" lon="105.053255"><ele>283.55096</ele><time>2026-07-21T18:44:46.000Z</time></trkpt>
        <trkpt lat="28.717336" lon="105.053276"><ele>282.77005</ele><time>2026-07-21T18:44:48.000Z</time></trkpt>
        <trkpt lat="28.717344" lon="105.053299"><ele>283.04965</ele><time>2026-07-21T18:44:50.000Z</time></trkpt>
        <trkpt lat="28.717352" lon="105.053322"><ele>282.52887</ele><time>2026-07-21T18:44:52.000Z</time></trkpt>
        <trkpt lat="28.717359" lon="105.053344"><ele>282.12772</ele><time>2026-07-21T18:44:54.000Z</time></trkpt>
        <trkpt lat="28.717365" lon="105.053366"><ele>281.76672</ele><time>2026-07-21T18:44:56.000Z</time></trkpt>
        <trkpt lat="28.71737" lon="105.053388"><ele>282.14774</ele><time>2026-07-21T18:44:58.000Z</time></trkpt>
        <trkpt lat="28.717374" lon="105.053411"><ele>281.93927</ele><time>2026-07-21T18:45:00.000Z</time></trkpt>
        <trkpt lat="28.717378" lon="105.053434"><ele>281.58734</ele><time>2026-07-21T18:45:02.000Z</time></trkpt>
        <trkpt lat="28.717384" lon="105.053458"><ele>281.06354</ele><time>2026-07-21T18:45:04.000Z</time></trkpt>
        <trkpt lat="28.71739" lon="105.053481"><ele>281.70224</ele><time>2026-07-21T18:45:06.000Z</time></trkpt>
        <trkpt lat="28.717398" lon="105.053505"><ele>281.86557</ele><time>2026-07-21T18:45:08.000Z</time></trkpt>
        <trkpt lat="28.717406" lon="105.053529"><ele>281.52408</ele><time>2026-07-21T18:45:10.000Z</time></trkpt>
        <trkpt lat="28.717413" lon="105.053552"><ele>281.0992</ele><time>2026-07-21T18:45:12.000Z</time></trkpt>
        <trkpt lat="28.71742" lon="105.053574"><ele>281.24292</ele><time>2026-07-21T18:45:14.000Z</time></trkpt>
        <trkpt lat="28.717427" lon="105.053596"><ele>281.73706</ele><time>2026-07-21T18:45:16.000Z</time></trkpt>
        <trkpt lat="28.717435" lon="105.053619"><ele>281.54465</ele><time>2026-07-21T18:45:18.000Z</time></trkpt>
        <trkpt lat="28.717443" lon="105.053642"><ele>280.76138</ele><time>2026-07-21T18:45:20.000Z</time></trkpt>
        <trkpt lat="28.717453" lon="105.053664"><ele>280.93683</ele><time>2026-07-21T18:45:22.000Z</time></trkpt>
        <trkpt lat="28.717463" lon="105.053687"><ele>280.79807</ele><time>2026-07-21T18:45:24.000Z</time></trkpt>
        <trkpt lat="28.717472" lon="105.053709"><ele>280.3303</ele><time>2026-07-21T18:45:26.000Z</time></trkpt>
        <trkpt lat="28.717482" lon="105.053732"><ele>280.36667</ele><time>2026-07-21T18:45:28.000Z</time></trkpt>
        <trkpt lat="28.717491" lon="105.053755"><ele>280.91672</ele><time>2026-07-21T18:45:30.000Z</time></trkpt>
        <trkpt lat="28.717504" lon="105.053778"><ele>281.9092</ele><time>2026-07-21T18:45:32.000Z</time></trkpt>
        <trkpt lat="28.717516" lon="105.0538"><ele>282.45535</ele><time>2026-07-21T18:45:34.000Z</time></trkpt>
        <trkpt lat="28.717528" lon="105.053827"><ele>281.69125</ele><time>2026-07-21T18:45:36.000Z</time></trkpt>
        <trkpt lat="28.717537" lon="105.053853"><ele>281.52274</ele><time>2026-07-21T18:45:38.000Z</time></trkpt>
        <trkpt lat="28.717543" lon="105.053881"><ele>281.22342</ele><time>2026-07-21T18:45:40.000Z</time></trkpt>
        <trkpt lat="28.717546" lon="105.053906"><ele>280.45956</ele><time>2026-07-21T18:45:42.000Z</time></trkpt>
        <trkpt lat="28.717547" lon="105.053927"><ele>280.98087</ele><time>2026-07-21T18:45:44.000Z</time></trkpt>
        <trkpt lat="28.717547" lon="105.053951"><ele>280.86935</ele><time>2026-07-21T18:45:46.000Z</time></trkpt>
        <trkpt lat="28.717546" lon="105.053973"><ele>281.0647</ele><time>2026-07-21T18:45:48.000Z</time></trkpt>
        <trkpt lat="28.717544" lon="105.053997"><ele>281.00583</ele><time>2026-07-21T18:45:50.000Z</time></trkpt>
        <trkpt lat="28.717542" lon="105.05402"><ele>280.9245</ele><time>2026-07-21T18:45:52.000Z</time></trkpt>
        <trkpt lat="28.717541" lon="105.054044"><ele>281.05695</ele><time>2026-07-21T18:45:54.000Z</time></trkpt>
        <trkpt lat="28.71754" lon="105.054068"><ele>281.01004</ele><time>2026-07-21T18:45:56.000Z</time></trkpt>
        <trkpt lat="28.71754" lon="105.054094"><ele>281.18686</ele><time>2026-07-21T18:45:58.000Z</time></trkpt>
        <trkpt lat="28.71754" lon="105.054119"><ele>281.0641</ele><time>2026-07-21T18:46:00.000Z</time></trkpt>
        <trkpt lat="28.717542" lon="105.054141"><ele>280.80634</ele><time>2026-07-21T18:46:02.000Z</time></trkpt>
        <trkpt lat="28.717543" lon="105.054161"><ele>281.00754</ele><time>2026-07-21T18:46:04.000Z</time></trkpt>
        <trkpt lat="28.717542" lon="105.054188"><ele>281.2039</ele><time>2026-07-21T18:46:06.000Z</time></trkpt>
        <trkpt lat="28.717541" lon="105.05421"><ele>282.1139</ele><time>2026-07-21T18:46:08.000Z</time></trkpt>
        <trkpt lat="28.71754" lon="105.05423"><ele>281.82617</ele><time>2026-07-21T18:46:10.000Z</time></trkpt>
        <trkpt lat="28.71754" lon="105.054251"><ele>282.26825</ele><time>2026-07-21T18:46:12.000Z</time></trkpt>
        <trkpt lat="28.71754" lon="105.054271"><ele>282.86734</ele><time>2026-07-21T18:46:14.000Z</time></trkpt>
        <trkpt lat="28.717544" lon="105.054289"><ele>282.1815</ele><time>2026-07-21T18:46:16.000Z</time></trkpt>
        <trkpt lat="28.717551" lon="105.054308"><ele>282.87244</ele><time>2026-07-21T18:46:18.000Z</time></trkpt>
        <trkpt lat="28.71756" lon="105.054329"><ele>282.56308</ele><time>2026-07-21T18:46:20.000Z</time></trkpt>
        <trkpt lat="28.71757" lon="105.05435"><ele>282.9781</ele><time>2026-07-21T18:46:22.000Z</time></trkpt>
        <trkpt lat="28.71758" lon="105.054371"><ele>282.419</ele><time>2026-07-21T18:46:24.000Z</time></trkpt>
        <trkpt lat="28.717592" lon="105.054395"><ele>282.59082</ele><time>2026-07-21T18:46:26.000Z</time></trkpt>
        <trkpt lat="28.717601" lon="105.054415"><ele>282.79858</ele><time>2026-07-21T18:46:28.000Z</time></trkpt>
        <trkpt lat="28.717611" lon="105.054435"><ele>282.47437</ele><time>2026-07-21T18:46:30.000Z</time></trkpt>
        <trkpt lat="28.717623" lon="105.054457"><ele>283.10098</ele><time>2026-07-21T18:46:32.000Z</time></trkpt>
        <trkpt lat="28.717633" lon="105.054478"><ele>283.09485</ele><time>2026-07-21T18:46:34.000Z</time></trkpt>
        <trkpt lat="28.717643" lon="105.054498"><ele>283.11</ele><time>2026-07-21T18:46:36.000Z</time></trkpt>
        <trkpt lat="28.717651" lon="105.05452"><ele>283.6172</ele><time>2026-07-21T18:46:38.000Z</time></trkpt>
        <trkpt lat="28.717659" lon="105.054537"><ele>283.74005</ele><time>2026-07-21T18:46:40.000Z</time></trkpt>
        <trkpt lat="28.717669" lon="105.054555"><ele>284.04547</ele><time>2026-07-21T18:46:42.000Z</time></trkpt>
        <trkpt lat="28.71768" lon="105.054572"><ele>283.34164</ele><time>2026-07-21T18:46:44.000Z</time></trkpt>
        <trkpt lat="28.717691" lon="105.054589"><ele>283.52747</ele><time>2026-07-21T18:46:46.000Z</time></trkpt>
        <trkpt lat="28.717706" lon="105.054608"><ele>283.98434</ele><time>2026-07-21T18:46:48.000Z</time></trkpt>
        <trkpt lat="28.717722" lon="105.054626"><ele>283.48642</ele><time>2026-07-21T18:46:50.000Z</time></trkpt>
        <trkpt lat="28.71774" lon="105.054643"><ele>283.6047</ele><time>2026-07-21T18:46:52.000Z</time></trkpt>
        <trkpt lat="28.717759" lon="105.054659"><ele>283.81427</ele><time>2026-07-21T18:46:54.000Z</time></trkpt>
        <trkpt lat="28.717778" lon="105.054675"><ele>283.90253</ele><time>2026-07-21T18:46:56.000Z</time></trkpt>
        <trkpt lat="28.717797" lon="105.054691"><ele>284.2169</ele><time>2026-07-21T18:46:58.000Z</time></trkpt>
        <trkpt lat="28.717816" lon="105.054709"><ele>283.50592</ele><time>2026-07-21T18:47:00.000Z</time></trkpt>
        <trkpt lat="28.717833" lon="105.054728"><ele>284.0014</ele><time>2026-07-21T18:47:02.000Z</time></trkpt>
        <trkpt lat="28.717851" lon="105.054753"><ele>283.4345</ele><time>2026-07-21T18:47:04.000Z</time></trkpt>
        <trkpt lat="28.717863" lon="105.054775"><ele>283.7849</ele><time>2026-07-21T18:47:06.000Z</time></trkpt>
        <trkpt lat="28.717876" lon="105.054794"><ele>283.55048</ele><time>2026-07-21T18:47:08.000Z</time></trkpt>
        <trkpt lat="28.717892" lon="105.05482"><ele>284.5628</ele><time>2026-07-21T18:47:10.000Z</time></trkpt>
        <trkpt lat="28.717904" lon="105.054844"><ele>283.5937</ele><time>2026-07-21T18:47:12.000Z</time></trkpt>
        <trkpt lat="28.717914" lon="105.054868"><ele>283.45804</ele><time>2026-07-21T18:47:14.000Z</time></trkpt>
        <trkpt lat="28.717922" lon="105.054891"><ele>283.2676</ele><time>2026-07-21T18:47:16.000Z</time></trkpt>
        <trkpt lat="28.717929" lon="105.054913"><ele>283.00327</ele><time>2026-07-21T18:47:18.000Z</time></trkpt>
        <trkpt lat="28.717936" lon="105.054935"><ele>282.7571</ele><time>2026-07-21T18:47:20.000Z</time></trkpt>
        <trkpt lat="28.717943" lon="105.054957"><ele>282.6321</ele><time>2026-07-21T18:47:22.000Z</time></trkpt>
        <trkpt lat="28.71795" lon="105.054979"><ele>282.4305</ele><time>2026-07-21T18:47:24.000Z</time></trkpt>
        <trkpt lat="28.717958" lon="105.054998"><ele>282.1067</ele><time>2026-07-21T18:47:26.000Z</time></trkpt>
        <trkpt lat="28.717968" lon="105.055022"><ele>282.6855</ele><time>2026-07-21T18:47:28.000Z</time></trkpt>
        <trkpt lat="28.717976" lon="105.05504"><ele>283.36032</ele><time>2026-07-21T18:47:30.000Z</time></trkpt>
        <trkpt lat="28.717984" lon="105.055062"><ele>283.56598</ele><time>2026-07-21T18:47:32.000Z</time></trkpt>
        <trkpt lat="28.71799" lon="105.055083"><ele>282.6904</ele><time>2026-07-21T18:47:34.000Z</time></trkpt>
        <trkpt lat="28.717996" lon="105.055104"><ele>282.88815</ele><time>2026-07-21T18:47:36.000Z</time></trkpt>
        <trkpt lat="28.718004" lon="105.055129"><ele>282.71503</ele><time>2026-07-21T18:47:38.000Z</time></trkpt>
        <trkpt lat="28.718012" lon="105.055153"><ele>282.99493</ele><time>2026-07-21T18:47:40.000Z</time></trkpt>
        <trkpt lat="28.718021" lon="105.055177"><ele>282.7047</ele><time>2026-07-21T18:47:42.000Z</time></trkpt>
        <trkpt lat="28.718032" lon="105.055201"><ele>282.10022</ele><time>2026-07-21T18:47:44.000Z</time></trkpt>
        <trkpt lat="28.718042" lon="105.055221"><ele>282.5585</ele><time>2026-07-21T18:47:46.000Z</time></trkpt>
        <trkpt lat="28.718049" lon="105.05524"><ele>282.2799</ele><time>2026-07-21T18:47:48.000Z</time></trkpt>
        <trkpt lat="28.718056" lon="105.055263"><ele>282.56323</ele><time>2026-07-21T18:47:50.000Z</time></trkpt>
        <trkpt lat="28.718062" lon="105.055286"><ele>282.30426</ele><time>2026-07-21T18:47:52.000Z</time></trkpt>
        <trkpt lat="28.718068" lon="105.055309"><ele>282.02997</ele><time>2026-07-21T18:47:54.000Z</time></trkpt>
        <trkpt lat="28.718072" lon="105.055331"><ele>282.8826</ele><time>2026-07-21T18:47:56.000Z</time></trkpt>
        <trkpt lat="28.718077" lon="105.055352"><ele>283.18756</ele><time>2026-07-21T18:47:58.000Z</time></trkpt>
        <trkpt lat="28.718083" lon="105.055372"><ele>283.19244</ele><time>2026-07-21T18:48:00.000Z</time></trkpt>
        <trkpt lat="28.718091" lon="105.055393"><ele>282.84573</ele><time>2026-07-21T18:48:02.000Z</time></trkpt>
        <trkpt lat="28.7181" lon="105.055415"><ele>282.96045</ele><time>2026-07-21T18:48:04.000Z</time></trkpt>
        <trkpt lat="28.71811" lon="105.055437"><ele>283.01727</ele><time>2026-07-21T18:48:06.000Z</time></trkpt>
        <trkpt lat="28.718119" lon="105.055458"><ele>283.15518</ele><time>2026-07-21T18:48:08.000Z</time></trkpt>
        <trkpt lat="28.718129" lon="105.055478"><ele>282.09314</ele><time>2026-07-21T18:48:10.000Z</time></trkpt>
        <trkpt lat="28.718142" lon="105.055502"><ele>282.6116</ele><time>2026-07-21T18:48:12.000Z</time></trkpt>
        <trkpt lat="28.718154" lon="105.055524"><ele>282.4201</ele><time>2026-07-21T18:48:14.000Z</time></trkpt>
        <trkpt lat="28.718166" lon="105.055545"><ele>281.7357</ele><time>2026-07-21T18:48:16.000Z</time></trkpt>
        <trkpt lat="28.718178" lon="105.055568"><ele>281.85315</ele><time>2026-07-21T18:48:18.000Z</time></trkpt>
        <trkpt lat="28.718189" lon="105.05559"><ele>280.7628</ele><time>2026-07-21T18:48:20.000Z</time></trkpt>
        <trkpt lat="28.718201" lon="105.055614"><ele>280.40982</ele><time>2026-07-21T18:48:22.000Z</time></trkpt>
        <trkpt lat="28.718214" lon="105.055639"><ele>279.76306</ele><time>2026-07-21T18:48:24.000Z</time></trkpt>
        <trkpt lat="28.718224" lon="105.055661"><ele>280.0476</ele><time>2026-07-21T18:48:26.000Z</time></trkpt>
        <trkpt lat="28.718234" lon="105.055686"><ele>279.7644</ele><time>2026-07-21T18:48:28.000Z</time></trkpt>
        <trkpt lat="28.718242" lon="105.05571"><ele>279.8742</ele><time>2026-07-21T18:48:30.000Z</time></trkpt>
        <trkpt lat="28.718251" lon="105.055735"><ele>279.80762</ele><time>2026-07-21T18:48:32.000Z</time></trkpt>
        <trkpt lat="28.718259" lon="105.055758"><ele>280.1595</ele><time>2026-07-21T18:48:34.000Z</time></trkpt>
        <trkpt lat="28.718266" lon="105.055782"><ele>279.87836</ele><time>2026-07-21T18:48:36.000Z</time></trkpt>
        <trkpt lat="28.718272" lon="105.055806"><ele>279.8495</ele><time>2026-07-21T18:48:38.000Z</time></trkpt>
        <trkpt lat="28.718275" lon="105.055831"><ele>280.09576</ele><time>2026-07-21T18:48:40.000Z</time></trkpt>
        <trkpt lat="28.718277" lon="105.055853"><ele>279.8996</ele><time>2026-07-21T18:48:42.000Z</time></trkpt>
        <trkpt lat="28.718276" lon="105.055876"><ele>280.0208</ele><time>2026-07-21T18:48:44.000Z</time></trkpt>
        <trkpt lat="28.718274" lon="105.055898"><ele>279.91724</ele><time>2026-07-21T18:48:46.000Z</time></trkpt>
        <trkpt lat="28.718271" lon="105.055921"><ele>280.4376</ele><time>2026-07-21T18:48:48.000Z</time></trkpt>
        <trkpt lat="28.718266" lon="105.055946"><ele>280.601</ele><time>2026-07-21T18:48:50.000Z</time></trkpt>
        <trkpt lat="28.718259" lon="105.055972"><ele>281.07843</ele><time>2026-07-21T18:48:52.000Z</time></trkpt>
        <trkpt lat="28.718252" lon="105.055996"><ele>280.51605</ele><time>2026-07-21T18:48:54.000Z</time></trkpt>
        <trkpt lat="28.718244" lon="105.056019"><ele>281.03906</ele><time>2026-07-21T18:48:56.000Z</time></trkpt>
        <trkpt lat="28.718236" lon="105.056042"><ele>281.56418</ele><time>2026-07-21T18:48:58.000Z</time></trkpt>
        <trkpt lat="28.718226" lon="105.056064"><ele>281.2</ele><time>2026-07-21T18:49:00.000Z</time></trkpt>
        <trkpt lat="28.718215" lon="105.056089"><ele>280.774</ele><time>2026-07-21T18:49:02.000Z</time></trkpt>
        <trkpt lat="28.718205" lon="105.056111"><ele>281.45868</ele><time>2026-07-21T18:49:04.000Z</time></trkpt>
        <trkpt lat="28.718196" lon="105.056135"><ele>281.4636</ele><time>2026-07-21T18:49:06.000Z</time></trkpt>
        <trkpt lat="28.718189" lon="105.05616"><ele>281.92627</ele><time>2026-07-21T18:49:08.000Z</time></trkpt>
        <trkpt lat="28.718183" lon="105.056188"><ele>281.5995</ele><time>2026-07-21T18:49:10.000Z</time></trkpt>
        <trkpt lat="28.718179" lon="105.056215"><ele>282.22815</ele><time>2026-07-21T18:49:12.000Z</time></trkpt>
        <trkpt lat="28.718177" lon="105.056244"><ele>282.69955</ele><time>2026-07-21T18:49:14.000Z</time></trkpt>
        <trkpt lat="28.718177" lon="105.056274"><ele>282.32578</ele><time>2026-07-21T18:49:16.000Z</time></trkpt>
        <trkpt lat="28.718179" lon="105.0563"><ele>282.3176</ele><time>2026-07-21T18:49:18.000Z</time></trkpt>
        <trkpt lat="28.718182" lon="105.056324"><ele>282.3575</ele><time>2026-07-21T18:49:20.000Z</time></trkpt>
        <trkpt lat="28.718187" lon="105.056349"><ele>282.58417</ele><time>2026-07-21T18:49:22.000Z</time></trkpt>
        <trkpt lat="28.718192" lon="105.056372"><ele>283.2095</ele><time>2026-07-21T18:49:24.000Z</time></trkpt>
        <trkpt lat="28.718196" lon="105.056396"><ele>283.27908</ele><time>2026-07-21T18:49:26.000Z</time></trkpt>
        <trkpt lat="28.718201" lon="105.056419"><ele>282.3191</ele><time>2026-07-21T18:49:28.000Z</time></trkpt>
        <trkpt lat="28.718206" lon="105.05644"><ele>282.81055</ele><time>2026-07-21T18:49:30.000Z</time></trkpt>
        <trkpt lat="28.718212" lon="105.056462"><ele>282.78522</ele><time>2026-07-21T18:49:32.000Z</time></trkpt>
        <trkpt lat="28.718218" lon="105.056483"><ele>282.76083</ele><time>2026-07-21T18:49:34.000Z</time></trkpt>
        <trkpt lat="28.718224" lon="105.056504"><ele>282.88785</ele><time>2026-07-21T18:49:36.000Z</time></trkpt>
        <trkpt lat="28.718234" lon="105.056527"><ele>282.2769</ele><time>2026-07-21T18:49:38.000Z</time></trkpt>
        <trkpt lat="28.718244" lon="105.056549"><ele>282.56613</ele><time>2026-07-21T18:49:40.000Z</time></trkpt>
        <trkpt lat="28.718256" lon="105.056569"><ele>282.73105</ele><time>2026-07-21T18:49:42.000Z</time></trkpt>
        <trkpt lat="28.71827" lon="105.056587"><ele>283.04153</ele><time>2026-07-21T18:49:44.000Z</time></trkpt>
        <trkpt lat="28.718287" lon="105.056604"><ele>282.5939</ele><time>2026-07-21T18:49:46.000Z</time></trkpt>
        <trkpt lat="28.718306" lon="105.056624"><ele>283.09726</ele><time>2026-07-21T18:49:48.000Z</time></trkpt>
        <trkpt lat="28.718322" lon="105.056641"><ele>282.45288</ele><time>2026-07-21T18:49:50.000Z</time></trkpt>
        <trkpt lat="28.718336" lon="105.056655"><ele>282.5206</ele><time>2026-07-21T18:49:52.000Z</time></trkpt>
        <trkpt lat="28.718353" lon="105.056668"><ele>282.2785</ele><time>2026-07-21T18:49:54.000Z</time></trkpt>
        <trkpt lat="28.718371" lon="105.056683"><ele>282.4033</ele><time>2026-07-21T18:49:56.000Z</time></trkpt>
        <trkpt lat="28.718386" lon="105.056695"><ele>281.82773</ele><time>2026-07-21T18:49:58.000Z</time></trkpt>
        <trkpt lat="28.7184" lon="105.056709"><ele>281.88898</ele><time>2026-07-21T18:50:00.000Z</time></trkpt>
        <trkpt lat="28.718414" lon="105.056724"><ele>281.8762</ele><time>2026-07-21T18:50:02.000Z</time></trkpt>
        <trkpt lat="28.718428" lon="105.05674"><ele>281.71066</ele><time>2026-07-21T18:50:04.000Z</time></trkpt>
        <trkpt lat="28.718443" lon="105.05676"><ele>281.69638</ele><time>2026-07-21T18:50:06.000Z</time></trkpt>
        <trkpt lat="28.718456" lon="105.056779"><ele>281.48965</ele><time>2026-07-21T18:50:08.000Z</time></trkpt>
        <trkpt lat="28.718465" lon="105.056793"><ele>282.5048</ele><time>2026-07-21T18:50:10.000Z</time></trkpt>
        <trkpt lat="28.71847" lon="105.056805"><ele>283.29266</ele><time>2026-07-21T18:50:12.000Z</time></trkpt>
        <trkpt lat="28.718475" lon="105.056818"><ele>283.27368</ele><time>2026-07-21T18:50:14.000Z</time></trkpt>
        <trkpt lat="28.718481" lon="105.056834"><ele>282.77692</ele><time>2026-07-21T18:50:16.000Z</time></trkpt>
        <trkpt lat="28.718487" lon="105.056852"><ele>282.6325</ele><time>2026-07-21T18:50:18.000Z</time></trkpt>
        <trkpt lat="28.718497" lon="105.056873"><ele>282.2661</ele><time>2026-07-21T18:50:20.000Z</time></trkpt>
        <trkpt lat="28.718509" lon="105.056893"><ele>283.04266</ele><time>2026-07-21T18:50:22.000Z</time></trkpt>
        <trkpt lat="28.718522" lon="105.056914"><ele>283.39725</ele><time>2026-07-21T18:50:24.000Z</time></trkpt>
        <trkpt lat="28.718535" lon="105.056933"><ele>283.80847</ele><time>2026-07-21T18:50:26.000Z</time></trkpt>
        <trkpt lat="28.71855" lon="105.05695"><ele>283.4418</ele><time>2026-07-21T18:50:28.000Z</time></trkpt>
        <trkpt lat="28.718566" lon="105.056967"><ele>284.06155</ele><time>2026-07-21T18:50:30.000Z</time></trkpt>
        <trkpt lat="28.718584" lon="105.056984"><ele>283.66382</ele><time>2026-07-21T18:50:32.000Z</time></trkpt>
        <trkpt lat="28.718601" lon="105.057003"><ele>284.3569</ele><time>2026-07-21T18:50:34.000Z</time></trkpt>
        <trkpt lat="28.718619" lon="105.057023"><ele>284.4524</ele><time>2026-07-21T18:50:36.000Z</time></trkpt>
        <trkpt lat="28.718636" lon="105.057043"><ele>284.3014</ele><time>2026-07-21T18:50:38.000Z</time></trkpt>
        <trkpt lat="28.718652" lon="105.057063"><ele>284.05905</ele><time>2026-07-21T18:50:40.000Z</time></trkpt>
        <trkpt lat="28.718668" lon="105.057081"><ele>284.19073</ele><time>2026-07-21T18:50:42.000Z</time></trkpt>
        <trkpt lat="28.718684" lon="105.057105"><ele>284.5496</ele><time>2026-07-21T18:50:44.000Z</time></trkpt>
        <trkpt lat="28.718697" lon="105.057128"><ele>283.3502</ele><time>2026-07-21T18:50:46.000Z</time></trkpt>
        <trkpt lat="28.718708" lon="105.05715"><ele>283.30667</ele><time>2026-07-21T18:50:48.000Z</time></trkpt>
        <trkpt lat="28.718718" lon="105.057172"><ele>283.0245</ele><time>2026-07-21T18:50:50.000Z</time></trkpt>
        <trkpt lat="28.718727" lon="105.057193"><ele>283.1486</ele><time>2026-07-21T18:50:52.000Z</time></trkpt>
        <trkpt lat="28.718736" lon="105.057214"><ele>283.18863</ele><time>2026-07-21T18:50:54.000Z</time></trkpt>
        <trkpt lat="28.718746" lon="105.057235"><ele>283.03156</ele><time>2026-07-21T18:50:56.000Z</time></trkpt>
        <trkpt lat="28.718756" lon="105.057255"><ele>283.07336</ele><time>2026-07-21T18:50:58.000Z</time></trkpt>
        <trkpt lat="28.718766" lon="105.057275"><ele>283.0236</ele><time>2026-07-21T18:51:00.000Z</time></trkpt>
        <trkpt lat="28.718775" lon="105.057293"><ele>282.92877</ele><time>2026-07-21T18:51:02.000Z</time></trkpt>
        <trkpt lat="28.718784" lon="105.057312"><ele>282.63773</ele><time>2026-07-21T18:51:04.000Z</time></trkpt>
        <trkpt lat="28.718792" lon="105.05733"><ele>282.9597</ele><time>2026-07-21T18:51:06.000Z</time></trkpt>
        <trkpt lat="28.718802" lon="105.05735"><ele>282.7976</ele><time>2026-07-21T18:51:08.000Z</time></trkpt>
        <trkpt lat="28.718813" lon="105.057369"><ele>282.61554</ele><time>2026-07-21T18:51:10.000Z</time></trkpt>
        <trkpt lat="28.718824" lon="105.057389"><ele>282.475</ele><time>2026-07-21T18:51:12.000Z</time></trkpt>
        <trkpt lat="28.718835" lon="105.057411"><ele>282.65338</ele><time>2026-07-21T18:51:14.000Z</time></trkpt>
        <trkpt lat="28.718844" lon="105.057431"><ele>282.5027</ele><time>2026-07-21T18:51:16.000Z</time></trkpt>
        <trkpt lat="28.718854" lon="105.057452"><ele>282.47714</ele><time>2026-07-21T18:51:18.000Z</time></trkpt>
        <trkpt lat="28.718862" lon="105.057474"><ele>282.52417</ele><time>2026-07-21T18:51:20.000Z</time></trkpt>
        <trkpt lat="28.71887" lon="105.057496"><ele>282.52496</ele><time>2026-07-21T18:51:22.000Z</time></trkpt>
        <trkpt lat="28.718877" lon="105.057519"><ele>282.4665</ele><time>2026-07-21T18:51:24.000Z</time></trkpt>
        <trkpt lat="28.718883" lon="105.057542"><ele>282.29984</ele><time>2026-07-21T18:51:26.000Z</time></trkpt>
        <trkpt lat="28.718886" lon="105.057566"><ele>282.23654</ele><time>2026-07-21T18:51:28.000Z</time></trkpt>
        <trkpt lat="28.718888" lon="105.05759"><ele>281.8655</ele><time>2026-07-21T18:51:30.000Z</time></trkpt>
        <trkpt lat="28.718887" lon="105.057614"><ele>281.6634</ele><time>2026-07-21T18:51:32.000Z</time></trkpt>
        <trkpt lat="28.718885" lon="105.057636"><ele>281.91357</ele><time>2026-07-21T18:51:34.000Z</time></trkpt>
        <trkpt lat="28.71888" lon="105.057655"><ele>281.56497</ele><time>2026-07-21T18:51:36.000Z</time></trkpt>
        <trkpt lat="28.718874" lon="105.057671"><ele>279.56882</ele><time>2026-07-21T18:51:38.000Z</time></trkpt>
        <trkpt lat="28.718866" lon="105.057691"><ele>280.82318</ele><time>2026-07-21T18:51:40.000Z</time></trkpt>
        <trkpt lat="28.718855" lon="105.057711"><ele>280.4003</ele><time>2026-07-21T18:51:42.000Z</time></trkpt>
        <trkpt lat="28.718843" lon="105.057734"><ele>280.95203</ele><time>2026-07-21T18:51:44.000Z</time></trkpt>
        <trkpt lat="28.718833" lon="105.057754"><ele>280.8539</ele><time>2026-07-21T18:51:46.000Z</time></trkpt>
        <trkpt lat="28.718823" lon="105.057773"><ele>280.08505</ele><time>2026-07-21T18:51:48.000Z</time></trkpt>
        <trkpt lat="28.718811" lon="105.057793"><ele>279.83466</ele><time>2026-07-21T18:51:50.000Z</time></trkpt>
        <trkpt lat="28.7188" lon="105.057814"><ele>280.21384</ele><time>2026-07-21T18:51:52.000Z</time></trkpt>
        <trkpt lat="28.718788" lon="105.057837"><ele>281.06357</ele><time>2026-07-21T18:51:54.000Z</time></trkpt>
        <trkpt lat="28.718776" lon="105.057857"><ele>280.72058</ele><time>2026-07-21T18:51:56.000Z</time></trkpt>
        <trkpt lat="28.718765" lon="105.057876"><ele>280.3097</ele><time>2026-07-21T18:51:58.000Z</time></trkpt>
        <trkpt lat="28.718755" lon="105.057896"><ele>281.34918</ele><time>2026-07-21T18:52:00.000Z</time></trkpt>
        <trkpt lat="28.718743" lon="105.057918"><ele>281.58472</ele><time>2026-07-21T18:52:02.000Z</time></trkpt>
        <trkpt lat="28.718731" lon="105.057941"><ele>282.00107</ele><time>2026-07-21T18:52:04.000Z</time></trkpt>
        <trkpt lat="28.718718" lon="105.057963"><ele>281.62915</ele><time>2026-07-21T18:52:06.000Z</time></trkpt>
        <trkpt lat="28.718706" lon="105.057983"><ele>281.668</ele><time>2026-07-21T18:52:08.000Z</time></trkpt>
        <trkpt lat="28.718695" lon="105.058002"><ele>281.4467</ele><time>2026-07-21T18:52:10.000Z</time></trkpt>
        <trkpt lat="28.718686" lon="105.058024"><ele>282.2471</ele><time>2026-07-21T18:52:12.000Z</time></trkpt>
        <trkpt lat="28.718679" lon="105.058046"><ele>281.91092</ele><time>2026-07-21T18:52:14.000Z</time></trkpt>
        <trkpt lat="28.718673" lon="105.05807"><ele>281.29846</ele><time>2026-07-21T18:52:16.000Z</time></trkpt>
        <trkpt lat="28.718671" lon="105.058094"><ele>282.26184</ele><time>2026-07-21T18:52:18.000Z</time></trkpt>
        <trkpt lat="28.71867" lon="105.058122"><ele>282.60776</ele><time>2026-07-21T18:52:20.000Z</time></trkpt>
        <trkpt lat="28.718668" lon="105.058143"><ele>281.32605</ele><time>2026-07-21T18:52:22.000Z</time></trkpt>
        <trkpt lat="28.718668" lon="105.058158"><ele>283.10672</ele><time>2026-07-21T18:52:24.000Z</time></trkpt>
        <trkpt lat="28.718669" lon="105.058177"><ele>282.66904</ele><time>2026-07-21T18:52:26.000Z</time></trkpt>
        <trkpt lat="28.71867" lon="105.058196"><ele>282.8208</ele><time>2026-07-21T18:52:28.000Z</time></trkpt>
        <trkpt lat="28.71867" lon="105.058215"><ele>281.69693</ele><time>2026-07-21T18:52:30.000Z</time></trkpt>
        <trkpt lat="28.718667" lon="105.058233"><ele>282.09213</ele><time>2026-07-21T18:52:32.000Z</time></trkpt>
        <trkpt lat="28.718663" lon="105.058255"><ele>282.34195</ele><time>2026-07-21T18:52:34.000Z</time></trkpt>
        <trkpt lat="28.718657" lon="105.058282"><ele>282.9394</ele><time>2026-07-21T18:52:36.000Z</time></trkpt>
        <trkpt lat="28.71865" lon="105.058309"><ele>282.23804</ele><time>2026-07-21T18:52:38.000Z</time></trkpt>
        <trkpt lat="28.718643" lon="105.058335"><ele>283.3012</ele><time>2026-07-21T18:52:40.000Z</time></trkpt>
        <trkpt lat="28.718637" lon="105.058361"><ele>284.02887</ele><time>2026-07-21T18:52:42.000Z</time></trkpt>
        <trkpt lat="28.718631" lon="105.058388"><ele>284.3114</ele><time>2026-07-21T18:52:44.000Z</time></trkpt>
        <trkpt lat="28.718626" lon="105.058412"><ele>283.57056</ele><time>2026-07-21T18:52:46.000Z</time></trkpt>
        <trkpt lat="28.718621" lon="105.058436"><ele>283.70053</ele><time>2026-07-21T18:52:48.000Z</time></trkpt>
        <trkpt lat="28.718615" lon="105.058458"><ele>284.85822</ele><time>2026-07-21T18:52:50.000Z</time></trkpt>
        <trkpt lat="28.718611" lon="105.058477"><ele>284.96936</ele><time>2026-07-21T18:52:52.000Z</time></trkpt>
        <trkpt lat="28.718608" lon="105.058499"><ele>284.33307</ele><time>2026-07-21T18:52:54.000Z</time></trkpt>
        <trkpt lat="28.718607" lon="105.058522"><ele>284.91644</ele><time>2026-07-21T18:52:56.000Z</time></trkpt>
        <trkpt lat="28.718606" lon="105.058544"><ele>285.1304</ele><time>2026-07-21T18:52:58.000Z</time></trkpt>
        <trkpt lat="28.718607" lon="105.058567"><ele>284.89038</ele><time>2026-07-21T18:53:00.000Z</time></trkpt>
        <trkpt lat="28.718609" lon="105.05859"><ele>284.2145</ele><time>2026-07-21T18:53:02.000Z</time></trkpt>
        <trkpt lat="28.71861" lon="105.058614"><ele>284.1464</ele><time>2026-07-21T18:53:04.000Z</time></trkpt>
        <trkpt lat="28.718612" lon="105.058639"><ele>284.33618</ele><time>2026-07-21T18:53:06.000Z</time></trkpt>
        <trkpt lat="28.718613" lon="105.058666"><ele>283.28384</ele><time>2026-07-21T18:53:08.000Z</time></trkpt>
        <trkpt lat="28.718614" lon="105.058691"><ele>282.2583</ele><time>2026-07-21T18:53:10.000Z</time></trkpt>
        <trkpt lat="28.718615" lon="105.058717"><ele>282.3803</ele><time>2026-07-21T18:53:12.000Z</time></trkpt>
        <trkpt lat="28.718618" lon="105.058743"><ele>283.4793</ele><time>2026-07-21T18:53:14.000Z</time></trkpt>
        <trkpt lat="28.718622" lon="105.058762"><ele>282.9237</ele><time>2026-07-21T18:53:16.000Z</time></trkpt>
        <trkpt lat="28.718628" lon="105.058785"><ele>281.88367</ele><time>2026-07-21T18:53:18.000Z</time></trkpt>
        <trkpt lat="28.718634" lon="105.058809"><ele>282.19873</ele><time>2026-07-21T18:53:20.000Z</time></trkpt>
        <trkpt lat="28.71864" lon="105.058832"><ele>281.50674</ele><time>2026-07-21T18:53:22.000Z</time></trkpt>
        <trkpt lat="28.718647" lon="105.058856"><ele>281.57175</ele><time>2026-07-21T18:53:24.000Z</time></trkpt>
        <trkpt lat="28.718655" lon="105.058878"><ele>281.62985</ele><time>2026-07-21T18:53:26.000Z</time></trkpt>
        <trkpt lat="28.718664" lon="105.058898"><ele>281.46515</ele><time>2026-07-21T18:53:28.000Z</time></trkpt>
        <trkpt lat="28.718673" lon="105.058922"><ele>280.59775</ele><time>2026-07-21T18:53:30.000Z</time></trkpt>
        <trkpt lat="28.718682" lon="105.058948"><ele>279.1965</ele><time>2026-07-21T18:53:32.000Z</time></trkpt>
        <trkpt lat="28.718689" lon="105.058971"><ele>279.98138</ele><time>2026-07-21T18:53:34.000Z</time></trkpt>
        <trkpt lat="28.718697" lon="105.058994"><ele>279.94492</ele><time>2026-07-21T18:53:36.000Z</time></trkpt>
        <trkpt lat="28.718704" lon="105.059016"><ele>280.67834</ele><time>2026-07-21T18:53:38.000Z</time></trkpt>
        <trkpt lat="28.718711" lon="105.059037"><ele>279.56296</ele><time>2026-07-21T18:53:40.000Z</time></trkpt>
        <trkpt lat="28.718718" lon="105.059057"><ele>280.1191</ele><time>2026-07-21T18:53:42.000Z</time></trkpt>
        <trkpt lat="28.718726" lon="105.059079"><ele>279.38376</ele><time>2026-07-21T18:53:44.000Z</time></trkpt>
        <trkpt lat="28.718737" lon="105.059104"><ele>279.64493</ele><time>2026-07-21T18:53:46.000Z</time></trkpt>
        <trkpt lat="28.718746" lon="105.059128"><ele>279.53293</ele><time>2026-07-21T18:53:48.000Z</time></trkpt>
        <trkpt lat="28.718754" lon="105.059156"><ele>280.00015</ele><time>2026-07-21T18:53:50.000Z</time></trkpt>
        <trkpt lat="28.718761" lon="105.059182"><ele>279.99023</ele><time>2026-07-21T18:53:52.000Z</time></trkpt>
        <trkpt lat="28.718765" lon="105.059209"><ele>280.1585</ele><time>2026-07-21T18:53:54.000Z</time></trkpt>
        <trkpt lat="28.718767" lon="105.059234"><ele>280.11346</ele><time>2026-07-21T18:53:56.000Z</time></trkpt>
        <trkpt lat="28.718766" lon="105.059262"><ele>280.31784</ele><time>2026-07-21T18:53:58.000Z</time></trkpt>
        <trkpt lat="28.71876" lon="105.059288"><ele>280.01196</ele><time>2026-07-21T18:54:00.000Z</time></trkpt>
        <trkpt lat="28.718752" lon="105.05931"><ele>279.50024</ele><time>2026-07-21T18:54:02.000Z</time></trkpt>
        <trkpt lat="28.718743" lon="105.059332"><ele>279.80182</ele><time>2026-07-21T18:54:04.000Z</time></trkpt>
        <trkpt lat="28.718731" lon="105.059354"><ele>279.90808</ele><time>2026-07-21T18:54:06.000Z</time></trkpt>
        <trkpt lat="28.718718" lon="105.059374"><ele>280.23892</ele><time>2026-07-21T18:54:08.000Z</time></trkpt>
        <trkpt lat="28.718705" lon="105.05939"><ele>280.42358</ele><time>2026-07-21T18:54:10.000Z</time></trkpt>
        <trkpt lat="28.718688" lon="105.059407"><ele>280.6778</ele><time>2026-07-21T18:54:12.000Z</time></trkpt>
        <trkpt lat="28.718671" lon="105.059423"><ele>280.6893</ele><time>2026-07-21T18:54:14.000Z</time></trkpt>
        <trkpt lat="28.718656" lon="105.059437"><ele>280.84097</ele><time>2026-07-21T18:54:16.000Z</time></trkpt>
        <trkpt lat="28.718641" lon="105.059449"><ele>280.39948</ele><time>2026-07-21T18:54:18.000Z</time></trkpt>
        <trkpt lat="28.718626" lon="105.059461"><ele>280.46436</ele><time>2026-07-21T18:54:20.000Z</time></trkpt>
        <trkpt lat="28.718609" lon="105.059473"><ele>280.1679</ele><time>2026-07-21T18:54:22.000Z</time></trkpt>
        <trkpt lat="28.718589" lon="105.059486"><ele>280.51285</ele><time>2026-07-21T18:54:24.000Z</time></trkpt>
        <trkpt lat="28.71857" lon="105.059498"><ele>280.15216</ele><time>2026-07-21T18:54:26.000Z</time></trkpt>
        <trkpt lat="28.718554" lon="105.059508"><ele>280.03577</ele><time>2026-07-21T18:54:28.000Z</time></trkpt>
        <trkpt lat="28.718534" lon="105.059521"><ele>279.2833</ele><time>2026-07-21T18:54:30.000Z</time></trkpt>
        <trkpt lat="28.718512" lon="105.059537"><ele>279.59497</ele><time>2026-07-21T18:54:32.000Z</time></trkpt>
        <trkpt lat="28.718492" lon="105.059552"><ele>279.929</ele><time>2026-07-21T18:54:34.000Z</time></trkpt>
        <trkpt lat="28.718475" lon="105.059566"><ele>279.7214</ele><time>2026-07-21T18:54:36.000Z</time></trkpt>
        <trkpt lat="28.718458" lon="105.05958"><ele>279.86447</ele><time>2026-07-21T18:54:38.000Z</time></trkpt>
        <trkpt lat="28.718444" lon="105.059591"><ele>279.35782</ele><time>2026-07-21T18:54:40.000Z</time></trkpt>
        <trkpt lat="28.718431" lon="105.059602"><ele>279.3408</ele><time>2026-07-21T18:54:42.000Z</time></trkpt>
        <trkpt lat="28.718417" lon="105.059614"><ele>279.1594</ele><time>2026-07-21T18:54:44.000Z</time></trkpt>
        <trkpt lat="28.718402" lon="105.059629"><ele>279.41016</ele><time>2026-07-21T18:54:46.000Z</time></trkpt>
        <trkpt lat="28.718386" lon="105.059645"><ele>278.54034</ele><time>2026-07-21T18:54:48.000Z</time></trkpt>
        <trkpt lat="28.718371" lon="105.059661"><ele>278.1888</ele><time>2026-07-21T18:54:50.000Z</time></trkpt>
        <trkpt lat="28.718355" lon="105.059678"><ele>278.2492</ele><time>2026-07-21T18:54:52.000Z</time></trkpt>
        <trkpt lat="28.718339" lon="105.059695"><ele>277.84183</ele><time>2026-07-21T18:54:54.000Z</time></trkpt>
        <trkpt lat="28.71832" lon="105.059712"><ele>277.96686</ele><time>2026-07-21T18:54:56.000Z</time></trkpt>
        <trkpt lat="28.71831" lon="105.059722"><ele>275.77182</ele><time>2026-07-21T18:54:58.000Z</time></trkpt>
        <trkpt lat="28.7183" lon="105.059732"><ele>276.5904</ele><time>2026-07-21T18:55:00.000Z</time></trkpt>
        <trkpt lat="28.718285" lon="105.059745"><ele>276.45554</ele><time>2026-07-21T18:55:02.000Z</time></trkpt>
        <trkpt lat="28.718269" lon="105.05976"><ele>276.87082</ele><time>2026-07-21T18:55:04.000Z</time></trkpt>
        <trkpt lat="28.718252" lon="105.059773"><ele>277.8082</ele><time>2026-07-21T18:55:06.000Z</time></trkpt>
        <trkpt lat="28.718235" lon="105.059784"><ele>277.7417</ele><time>2026-07-21T18:55:08.000Z</time></trkpt>
        <trkpt lat="28.718218" lon="105.059796"><ele>278.33517</ele><time>2026-07-21T18:55:10.000Z</time></trkpt>
        <trkpt lat="28.718201" lon="105.059809"><ele>278.82104</ele><time>2026-07-21T18:55:12.000Z</time></trkpt>
        <trkpt lat="28.718184" lon="105.059823"><ele>278.09286</ele><time>2026-07-21T18:55:14.000Z</time></trkpt>
        <trkpt lat="28.718168" lon="105.059839"><ele>278.43393</ele><time>2026-07-21T18:55:16.000Z</time></trkpt>
        <trkpt lat="28.718155" lon="105.059855"><ele>278.88535</ele><time>2026-07-21T18:55:18.000Z</time></trkpt>
        <trkpt lat="28.718141" lon="105.059873"><ele>279.52737</ele><time>2026-07-21T18:55:20.000Z</time></trkpt>
        <trkpt lat="28.718127" lon="105.059894"><ele>279.03198</ele><time>2026-07-21T18:55:22.000Z</time></trkpt>
        <trkpt lat="28.718115" lon="105.059917"><ele>279.00836</ele><time>2026-07-21T18:55:24.000Z</time></trkpt>
        <trkpt lat="28.718105" lon="105.059942"><ele>279.3275</ele><time>2026-07-21T18:55:26.000Z</time></trkpt>
        <trkpt lat="28.718095" lon="105.059966"><ele>279.29657</ele><time>2026-07-21T18:55:28.000Z</time></trkpt>
        <trkpt lat="28.718087" lon="105.059988"><ele>278.9459</ele><time>2026-07-21T18:55:30.000Z</time></trkpt>
        <trkpt lat="28.718078" lon="105.06001"><ele>278.95496</ele><time>2026-07-21T18:55:32.000Z</time></trkpt>
        <trkpt lat="28.71807" lon="105.060031"><ele>278.76028</ele><time>2026-07-21T18:55:34.000Z</time></trkpt>
        <trkpt lat="28.718063" lon="105.060054"><ele>279.52463</ele><time>2026-07-21T18:55:36.000Z</time></trkpt>
        <trkpt lat="28.718055" lon="105.060075"><ele>279.02063</ele><time>2026-07-21T18:55:38.000Z</time></trkpt>
        <trkpt lat="28.718045" lon="105.060094"><ele>278.63297</ele><time>2026-07-21T18:55:40.000Z</time></trkpt>
        <trkpt lat="28.718034" lon="105.060112"><ele>278.63025</ele><time>2026-07-21T18:55:42.000Z</time></trkpt>
        <trkpt lat="28.718021" lon="105.06013"><ele>278.70016</ele><time>2026-07-21T18:55:44.000Z</time></trkpt>
        <trkpt lat="28.718008" lon="105.060147"><ele>279.19046</ele><time>2026-07-21T18:55:46.000Z</time></trkpt>
        <trkpt lat="28.717993" lon="105.060164"><ele>278.43948</ele><time>2026-07-21T18:55:48.000Z</time></trkpt>
        <trkpt lat="28.717979" lon="105.06018"><ele>278.10953</ele><time>2026-07-21T18:55:50.000Z</time></trkpt>
        <trkpt lat="28.717965" lon="105.060196"><ele>278.42783</ele><time>2026-07-21T18:55:52.000Z</time></trkpt>
        <trkpt lat="28.717951" lon="105.060214"><ele>278.81656</ele><time>2026-07-21T18:55:54.000Z</time></trkpt>
        <trkpt lat="28.717935" lon="105.060232"><ele>278.49704</ele><time>2026-07-21T18:55:56.000Z</time></trkpt>
        <trkpt lat="28.717919" lon="105.060249"><ele>277.65546</ele><time>2026-07-21T18:55:58.000Z</time></trkpt>
        <trkpt lat="28.717904" lon="105.060263"><ele>278.75583</ele><time>2026-07-21T18:56:00.000Z</time></trkpt>
        <trkpt lat="28.717889" lon="105.060276"><ele>278.98022</ele><time>2026-07-21T18:56:02.000Z</time></trkpt>
        <trkpt lat="28.717873" lon="105.060288"><ele>279.1831</ele><time>2026-07-21T18:56:04.000Z</time></trkpt>
        <trkpt lat="28.717854" lon="105.060299"><ele>279.15372</ele><time>2026-07-21T18:56:06.000Z</time></trkpt>
        <trkpt lat="28.717834" lon="105.060309"><ele>279.34653</ele><time>2026-07-21T18:56:08.000Z</time></trkpt>
        <trkpt lat="28.717815" lon="105.060317"><ele>280.01324</ele><time>2026-07-21T18:56:10.000Z</time></trkpt>
        <trkpt lat="28.717795" lon="105.060322"><ele>278.86996</ele><time>2026-07-21T18:56:12.000Z</time></trkpt>
        <trkpt lat="28.717772" lon="105.060327"><ele>279.96512</ele><time>2026-07-21T18:56:14.000Z</time></trkpt>
        <trkpt lat="28.717749" lon="105.060331"><ele>280.22836</ele><time>2026-07-21T18:56:16.000Z</time></trkpt>
        <trkpt lat="28.717727" lon="105.060335"><ele>280.6618</ele><time>2026-07-21T18:56:18.000Z</time></trkpt>
        <trkpt lat="28.717706" lon="105.060339"><ele>280.1612</ele><time>2026-07-21T18:56:20.000Z</time></trkpt>
        <trkpt lat="28.717683" lon="105.060346"><ele>280.43127</ele><time>2026-07-21T18:56:22.000Z</time></trkpt>
        <trkpt lat="28.717661" lon="105.060353"><ele>281.14667</ele><time>2026-07-21T18:56:24.000Z</time></trkpt>
        <trkpt lat="28.717643" lon="105.060359"><ele>280.4036</ele><time>2026-07-21T18:56:26.000Z</time></trkpt>
        <trkpt lat="28.717626" lon="105.060365"><ele>280.46906</ele><time>2026-07-21T18:56:28.000Z</time></trkpt>
        <trkpt lat="28.717608" lon="105.060371"><ele>280.6243</ele><time>2026-07-21T18:56:30.000Z</time></trkpt>
        <trkpt lat="28.717588" lon="105.060377"><ele>280.14017</ele><time>2026-07-21T18:56:32.000Z</time></trkpt>
        <trkpt lat="28.71757" lon="105.060383"><ele>280.17337</ele><time>2026-07-21T18:56:34.000Z</time></trkpt>
        <trkpt lat="28.717552" lon="105.060389"><ele>280.28036</ele><time>2026-07-21T18:56:36.000Z</time></trkpt>
        <trkpt lat="28.71753" lon="105.060398"><ele>279.90515</ele><time>2026-07-21T18:56:38.000Z</time></trkpt>
        <trkpt lat="28.717508" lon="105.060407"><ele>279.5839</ele><time>2026-07-21T18:56:40.000Z</time></trkpt>
        <trkpt lat="28.717488" lon="105.060416"><ele>279.8055</ele><time>2026-07-21T18:56:42.000Z</time></trkpt>
        <trkpt lat="28.717469" lon="105.060423"><ele>279.48288</ele><time>2026-07-21T18:56:44.000Z</time></trkpt>
        <trkpt lat="28.717448" lon="105.060429"><ele>279.27362</ele><time>2026-07-21T18:56:46.000Z</time></trkpt>
        <trkpt lat="28.717427" lon="105.060433"><ele>279.32837</ele><time>2026-07-21T18:56:48.000Z</time></trkpt>
        <trkpt lat="28.717407" lon="105.060436"><ele>279.37958</ele><time>2026-07-21T18:56:50.000Z</time></trkpt>
        <trkpt lat="28.717389" lon="105.060438"><ele>279.70764</ele><time>2026-07-21T18:56:52.000Z</time></trkpt>
        <trkpt lat="28.71737" lon="105.06044"><ele>279.47452</ele><time>2026-07-21T18:56:54.000Z</time></trkpt>
        <trkpt lat="28.717351" lon="105.06044"><ele>279.92194</ele><time>2026-07-21T18:56:56.000Z</time></trkpt>
        <trkpt lat="28.717331" lon="105.060442"><ele>280.32687</ele><time>2026-07-21T18:56:58.000Z</time></trkpt>
        <trkpt lat="28.717311" lon="105.060443"><ele>280.5187</ele><time>2026-07-21T18:57:00.000Z</time></trkpt>
        <trkpt lat="28.717293" lon="105.060447"><ele>281.29886</ele><time>2026-07-21T18:57:02.000Z</time></trkpt>
        <trkpt lat="28.717273" lon="105.060454"><ele>280.2573</ele><time>2026-07-21T18:57:04.000Z</time></trkpt>
        <trkpt lat="28.717257" lon="105.06046"><ele>280.69876</ele><time>2026-07-21T18:57:06.000Z</time></trkpt>
        <trkpt lat="28.717244" lon="105.060465"><ele>280.55426</ele><time>2026-07-21T18:57:08.000Z</time></trkpt>
        <trkpt lat="28.717225" lon="105.060472"><ele>280.01138</ele><time>2026-07-21T18:57:10.000Z</time></trkpt>
        <trkpt lat="28.717203" lon="105.06048"><ele>279.9457</ele><time>2026-07-21T18:57:12.000Z</time></trkpt>
        <trkpt lat="28.717182" lon="105.060489"><ele>279.57953</ele><time>2026-07-21T18:57:14.000Z</time></trkpt>
        <trkpt lat="28.717161" lon="105.060499"><ele>279.84482</ele><time>2026-07-21T18:57:16.000Z</time></trkpt>
        <trkpt lat="28.717142" lon="105.060509"><ele>279.85788</ele><time>2026-07-21T18:57:18.000Z</time></trkpt>
        <trkpt lat="28.717124" lon="105.060519"><ele>280.23282</ele><time>2026-07-21T18:57:20.000Z</time></trkpt>
        <trkpt lat="28.717108" lon="105.06053"><ele>280.17734</ele><time>2026-07-21T18:57:22.000Z</time></trkpt>
        <trkpt lat="28.717092" lon="105.060541"><ele>279.67102</ele><time>2026-07-21T18:57:24.000Z</time></trkpt>
        <trkpt lat="28.717078" lon="105.06055"><ele>279.32367</ele><time>2026-07-21T18:57:26.000Z</time></trkpt>
        <trkpt lat="28.717064" lon="105.06056"><ele>280.48898</ele><time>2026-07-21T18:57:28.000Z</time></trkpt>
        <trkpt lat="28.717047" lon="105.06057"><ele>281.1047</ele><time>2026-07-21T18:57:30.000Z</time></trkpt>
        <trkpt lat="28.717031" lon="105.060581"><ele>280.18143</ele><time>2026-07-21T18:57:32.000Z</time></trkpt>
        <trkpt lat="28.717014" lon="105.060594"><ele>280.7877</ele><time>2026-07-21T18:57:34.000Z</time></trkpt>
        <trkpt lat="28.716999" lon="105.060609"><ele>281.53177</ele><time>2026-07-21T18:57:36.000Z</time></trkpt>
        <trkpt lat="28.716984" lon="105.060624"><ele>281.21317</ele><time>2026-07-21T18:57:38.000Z</time></trkpt>
        <trkpt lat="28.716969" lon="105.060641"><ele>281.55786</ele><time>2026-07-21T18:57:40.000Z</time></trkpt>
        <trkpt lat="28.716954" lon="105.060658"><ele>281.35562</ele><time>2026-07-21T18:57:42.000Z</time></trkpt>
        <trkpt lat="28.716941" lon="105.060672"><ele>281.53806</ele><time>2026-07-21T18:57:44.000Z</time></trkpt>
        <trkpt lat="28.716927" lon="105.060686"><ele>281.2939</ele><time>2026-07-21T18:57:46.000Z</time></trkpt>
        <trkpt lat="28.716912" lon="105.060699"><ele>280.922</ele><time>2026-07-21T18:57:48.000Z</time></trkpt>
        <trkpt lat="28.716897" lon="105.060713"><ele>281.07156</ele><time>2026-07-21T18:57:50.000Z</time></trkpt>
        <trkpt lat="28.716879" lon="105.060727"><ele>280.92218</ele><time>2026-07-21T18:57:52.000Z</time></trkpt>
        <trkpt lat="28.716861" lon="105.060738"><ele>280.8959</ele><time>2026-07-21T18:57:54.000Z</time></trkpt>
        <trkpt lat="28.716843" lon="105.060748"><ele>280.9918</ele><time>2026-07-21T18:57:56.000Z</time></trkpt>
        <trkpt lat="28.716828" lon="105.060756"><ele>279.74484</ele><time>2026-07-21T18:57:58.000Z</time></trkpt>
        <trkpt lat="28.716813" lon="105.060764"><ele>280.58514</ele><time>2026-07-21T18:58:00.000Z</time></trkpt>
        <trkpt lat="28.716795" lon="105.060773"><ele>280.39493</ele><time>2026-07-21T18:58:02.000Z</time></trkpt>
        <trkpt lat="28.716777" lon="105.060783"><ele>281.58713</ele><time>2026-07-21T18:58:04.000Z</time></trkpt>
        <trkpt lat="28.716758" lon="105.060792"><ele>281.32654</ele><time>2026-07-21T18:58:06.000Z</time></trkpt>
        <trkpt lat="28.71674" lon="105.060802"><ele>281.5133</ele><time>2026-07-21T18:58:08.000Z</time></trkpt>
        <trkpt lat="28.71672" lon="105.060814"><ele>281.96</ele><time>2026-07-21T18:58:10.000Z</time></trkpt>
        <trkpt lat="28.716703" lon="105.060824"><ele>282.38647</ele><time>2026-07-21T18:58:12.000Z</time></trkpt>
        <trkpt lat="28.716687" lon="105.060833"><ele>282.08878</ele><time>2026-07-21T18:58:14.000Z</time></trkpt>
        <trkpt lat="28.716667" lon="105.060846"><ele>282.84583</ele><time>2026-07-21T18:58:16.000Z</time></trkpt>
        <trkpt lat="28.716645" lon="105.060862"><ele>283.684</ele><time>2026-07-21T18:58:18.000Z</time></trkpt>
        <trkpt lat="28.716626" lon="105.060875"><ele>283.1775</ele><time>2026-07-21T18:58:20.000Z</time></trkpt>
        <trkpt lat="28.716608" lon="105.060888"><ele>283.92133</ele><time>2026-07-21T18:58:22.000Z</time></trkpt>
        <trkpt lat="28.716592" lon="105.060907"><ele>283.91663</ele><time>2026-07-21T18:58:24.000Z</time></trkpt>
        <trkpt lat="28.71658" lon="105.060926"><ele>284.92886</ele><time>2026-07-21T18:58:26.000Z</time></trkpt>
        <trkpt lat="28.716569" lon="105.060949"><ele>284.26477</ele><time>2026-07-21T18:58:28.000Z</time></trkpt>
        <trkpt lat="28.71656" lon="105.060966"><ele>283.88666</ele><time>2026-07-21T18:58:30.000Z</time></trkpt>
        <trkpt lat="28.716553" lon="105.060979"><ele>282.99103</ele><time>2026-07-21T18:58:32.000Z</time></trkpt>
        <trkpt lat="28.716547" lon="105.060992"><ele>282.56866</ele><time>2026-07-21T18:58:34.000Z</time></trkpt>
        <trkpt lat="28.716543" lon="105.061005"><ele>283.38458</ele><time>2026-07-21T18:58:36.000Z</time></trkpt>
        <trkpt lat="28.716542" lon="105.061019"><ele>283.13184</ele><time>2026-07-21T18:58:38.000Z</time></trkpt>
        <trkpt lat="28.716543" lon="105.061038"><ele>282.988</ele><time>2026-07-21T18:58:40.000Z</time></trkpt>
        <trkpt lat="28.716546" lon="105.061056"><ele>282.78705</ele><time>2026-07-21T18:58:42.000Z</time></trkpt>
        <trkpt lat="28.716555" lon="105.06108"><ele>281.84753</ele><time>2026-07-21T18:58:44.000Z</time></trkpt>
        <trkpt lat="28.716567" lon="105.061104"><ele>280.9882</ele><time>2026-07-21T18:58:46.000Z</time></trkpt>
        <trkpt lat="28.716581" lon="105.061129"><ele>280.92023</ele><time>2026-07-21T18:58:48.000Z</time></trkpt>
        <trkpt lat="28.716598" lon="105.061153"><ele>280.5886</ele><time>2026-07-21T18:58:50.000Z</time></trkpt>
        <trkpt lat="28.716615" lon="105.061174"><ele>281.01044</ele><time>2026-07-21T18:58:52.000Z</time></trkpt>
        <trkpt lat="28.716634" lon="105.061191"><ele>280.50015</ele><time>2026-07-21T18:58:54.000Z</time></trkpt>
        <trkpt lat="28.71665" lon="105.061203"><ele>280.74078</ele><time>2026-07-21T18:58:56.000Z</time></trkpt>
        <trkpt lat="28.716668" lon="105.061214"><ele>280.92142</ele><time>2026-07-21T18:58:58.000Z</time></trkpt>
        <trkpt lat="28.716683" lon="105.061225"><ele>281.76974</ele><time>2026-07-21T18:59:00.000Z</time></trkpt>
        <trkpt lat="28.716695" lon="105.061236"><ele>281.0652</ele><time>2026-07-21T18:59:02.000Z</time></trkpt>
        <trkpt lat="28.716709" lon="105.061246"><ele>280.86374</ele><time>2026-07-21T18:59:04.000Z</time></trkpt>
        <trkpt lat="28.716725" lon="105.061257"><ele>280.7805</ele><time>2026-07-21T18:59:06.000Z</time></trkpt>
        <trkpt lat="28.716742" lon="105.061266"><ele>280.75342</ele><time>2026-07-21T18:59:08.000Z</time></trkpt>
        <trkpt lat="28.716761" lon="105.061273"><ele>280.75647</ele><time>2026-07-21T18:59:10.000Z</time></trkpt>
        <trkpt lat="28.716781" lon="105.06128"><ele>281.20236</ele><time>2026-07-21T18:59:12.000Z</time></trkpt>
        <trkpt lat="28.716798" lon="105.061286"><ele>280.71817</ele><time>2026-07-21T18:59:14.000Z</time></trkpt>
        <trkpt lat="28.716814" lon="105.06129"><ele>280.7772</ele><time>2026-07-21T18:59:16.000Z</time></trkpt>
        <trkpt lat="28.716835" lon="105.061295"><ele>281.1832</ele><time>2026-07-21T18:59:18.000Z</time></trkpt>
        <trkpt lat="28.716856" lon="105.061301"><ele>280.27505</ele><time>2026-07-21T18:59:20.000Z</time></trkpt>
        <trkpt lat="28.71688" lon="105.061307"><ele>280.6652</ele><time>2026-07-21T18:59:22.000Z</time></trkpt>
        <trkpt lat="28.716901" lon="105.061315"><ele>280.49014</ele><time>2026-07-21T18:59:24.000Z</time></trkpt>
        <trkpt lat="28.716925" lon="105.061321"><ele>280.2247</ele><time>2026-07-21T18:59:26.000Z</time></trkpt>
        <trkpt lat="28.716948" lon="105.061327"><ele>280.22675</ele><time>2026-07-21T18:59:28.000Z</time></trkpt>
        <trkpt lat="28.716973" lon="105.061332"><ele>280.06546</ele><time>2026-07-21T18:59:30.000Z</time></trkpt>
        <trkpt lat="28.716998" lon="105.061335"><ele>279.64432</ele><time>2026-07-21T18:59:32.000Z</time></trkpt>
        <trkpt lat="28.717023" lon="105.061336"><ele>280.33405</ele><time>2026-07-21T18:59:34.000Z</time></trkpt>
        <trkpt lat="28.717049" lon="105.061337"><ele>280.46014</ele><time>2026-07-21T18:59:36.000Z</time></trkpt>
        <trkpt lat="28.717075" lon="105.061337"><ele>280.51443</ele><time>2026-07-21T18:59:38.000Z</time></trkpt>
        <trkpt lat="28.717101" lon="105.061337"><ele>280.06143</ele><time>2026-07-21T18:59:40.000Z</time></trkpt>
        <trkpt lat="28.717125" lon="105.061336"><ele>279.691</ele><time>2026-07-21T18:59:42.000Z</time></trkpt>
        <trkpt lat="28.717148" lon="105.061333"><ele>279.06055</ele><time>2026-07-21T18:59:44.000Z</time></trkpt>
        <trkpt lat="28.717172" lon="105.061328"><ele>280.18155</ele><time>2026-07-21T18:59:46.000Z</time></trkpt>
        <trkpt lat="28.717197" lon="105.061322"><ele>280.2278</ele><time>2026-07-21T18:59:48.000Z</time></trkpt>
        <trkpt lat="28.71722" lon="105.061315"><ele>279.93542</ele><time>2026-07-21T18:59:50.000Z</time></trkpt>
        <trkpt lat="28.717245" lon="105.061307"><ele>279.7333</ele><time>2026-07-21T18:59:52.000Z</time></trkpt>
        <trkpt lat="28.71727" lon="105.061301"><ele>279.48685</ele><time>2026-07-21T18:59:54.000Z</time></trkpt>
        <trkpt lat="28.717292" lon="105.061297"><ele>279.9555</ele><time>2026-07-21T18:59:56.000Z</time></trkpt>
        <trkpt lat="28.717314" lon="105.061293"><ele>279.97177</ele><time>2026-07-21T18:59:58.000Z</time></trkpt>
        <trkpt lat="28.717336" lon="105.061289"><ele>280.0279</ele><time>2026-07-21T19:00:00.000Z</time></trkpt>
        <trkpt lat="28.717361" lon="105.061284"><ele>280.00897</ele><time>2026-07-21T19:00:02.000Z</time></trkpt>
        <trkpt lat="28.717383" lon="105.06128"><ele>280.0632</ele><time>2026-07-21T19:00:04.000Z</time></trkpt>
        <trkpt lat="28.717407" lon="105.061277"><ele>279.75485</ele><time>2026-07-21T19:00:06.000Z</time></trkpt>
        <trkpt lat="28.717432" lon="105.061276"><ele>280.34344</ele><time>2026-07-21T19:00:08.000Z</time></trkpt>
        <trkpt lat="28.717456" lon="105.061274"><ele>279.96594</ele><time>2026-07-21T19:00:10.000Z</time></trkpt>
        <trkpt lat="28.717481" lon="105.061272"><ele>280.10815</ele><time>2026-07-21T19:00:12.000Z</time></trkpt>
        <trkpt lat="28.717506" lon="105.061273"><ele>280.29083</ele><time>2026-07-21T19:00:14.000Z</time></trkpt>
        <trkpt lat="28.71753" lon="105.061276"><ele>280.37448</ele><time>2026-07-21T19:00:16.000Z</time></trkpt>
        <trkpt lat="28.717554" lon="105.061277"><ele>280.4174</ele><time>2026-07-21T19:00:18.000Z</time></trkpt>
        <trkpt lat="28.717579" lon="105.061278"><ele>280.9118</ele><time>2026-07-21T19:00:20.000Z</time></trkpt>
        <trkpt lat="28.717603" lon="105.061279"><ele>281.05817</ele><time>2026-07-21T19:00:22.000Z</time></trkpt>
        <trkpt lat="28.717631" lon="105.061282"><ele>281.85095</ele><time>2026-07-21T19:00:24.000Z</time></trkpt>
        <trkpt lat="28.717656" lon="105.061286"><ele>281.39236</ele><time>2026-07-21T19:00:26.000Z</time></trkpt>
        <trkpt lat="28.71768" lon="105.061289"><ele>281.38785</ele><time>2026-07-21T19:00:28.000Z</time></trkpt>
        <trkpt lat="28.717705" lon="105.061292"><ele>281.43323</ele><time>2026-07-21T19:00:30.000Z</time></trkpt>
        <trkpt lat="28.717732" lon="105.061295"><ele>282.00565</ele><time>2026-07-21T19:00:32.000Z</time></trkpt>
        <trkpt lat="28.717759" lon="105.0613"><ele>281.7559</ele><time>2026-07-21T19:00:34.000Z</time></trkpt>
        <trkpt lat="28.717785" lon="105.061307"><ele>282.31918</ele><time>2026-07-21T19:00:36.000Z</time></trkpt>
        <trkpt lat="28.717809" lon="105.061315"><ele>282.03513</ele><time>2026-07-21T19:00:38.000Z</time></trkpt>
        <trkpt lat="28.717835" lon="105.061325"><ele>282.0864</ele><time>2026-07-21T19:00:40.000Z</time></trkpt>
        <trkpt lat="28.717857" lon="105.061336"><ele>281.69733</ele><time>2026-07-21T19:00:42.000Z</time></trkpt>
        <trkpt lat="28.71788" lon="105.061348"><ele>281.3092</ele><time>2026-07-21T19:00:44.000Z</time></trkpt>
        <trkpt lat="28.717903" lon="105.061358"><ele>281.1749</ele><time>2026-07-21T19:00:46.000Z</time></trkpt>
        <trkpt lat="28.717929" lon="105.061368"><ele>281.05984</ele><time>2026-07-21T19:00:48.000Z</time></trkpt>
        <trkpt lat="28.717956" lon="105.061375"><ele>281.3761</ele><time>2026-07-21T19:00:50.000Z</time></trkpt>
        <trkpt lat="28.717984" lon="105.061378"><ele>280.91226</ele><time>2026-07-21T19:00:52.000Z</time></trkpt>
        <trkpt lat="28.718015" lon="105.06138"><ele>281.87177</ele><time>2026-07-21T19:00:54.000Z</time></trkpt>
        <trkpt lat="28.718039" lon="105.061382"><ele>280.5562</ele><time>2026-07-21T19:00:56.000Z</time></trkpt>
        <trkpt lat="28.71806" lon="105.061388"><ele>280.6508</ele><time>2026-07-21T19:00:58.000Z</time></trkpt>
        <trkpt lat="28.718082" lon="105.061397"><ele>280.05948</ele><time>2026-07-21T19:01:00.000Z</time></trkpt>
        <trkpt lat="28.718104" lon="105.061408"><ele>280.3762</ele><time>2026-07-21T19:01:02.000Z</time></trkpt>
        <trkpt lat="28.718126" lon="105.06142"><ele>279.37173</ele><time>2026-07-21T19:01:04.000Z</time></trkpt>
        <trkpt lat="28.718147" lon="105.061431"><ele>279.5113</ele><time>2026-07-21T19:01:06.000Z</time></trkpt>
        <trkpt lat="28.718173" lon="105.061442"><ele>279.44818</ele><time>2026-07-21T19:01:08.000Z</time></trkpt>
        <trkpt lat="28.718199" lon="105.061454"><ele>279.27365</ele><time>2026-07-21T19:01:10.000Z</time></trkpt>
        <trkpt lat="28.718223" lon="105.061465"><ele>279.43854</ele><time>2026-07-21T19:01:12.000Z</time></trkpt>
        <trkpt lat="28.718248" lon="105.061476"><ele>279.54694</ele><time>2026-07-21T19:01:14.000Z</time></trkpt>
        <trkpt lat="28.718274" lon="105.061488"><ele>279.7384</ele><time>2026-07-21T19:01:16.000Z</time></trkpt>
        <trkpt lat="28.718299" lon="105.061497"><ele>280.0389</ele><time>2026-07-21T19:01:18.000Z</time></trkpt>
        <trkpt lat="28.718324" lon="105.061505"><ele>280.12332</ele><time>2026-07-21T19:01:20.000Z</time></trkpt>
        <trkpt lat="28.718348" lon="105.061513"><ele>280.6179</ele><time>2026-07-21T19:01:22.000Z</time></trkpt>
        <trkpt lat="28.718373" lon="105.061521"><ele>280.07498</ele><time>2026-07-21T19:01:24.000Z</time></trkpt>
        <trkpt lat="28.718398" lon="105.061527"><ele>280.14987</ele><time>2026-07-21T19:01:26.000Z</time></trkpt>
        <trkpt lat="28.718424" lon="105.061534"><ele>279.8759</ele><time>2026-07-21T19:01:28.000Z</time></trkpt>
        <trkpt lat="28.71845" lon="105.061543"><ele>280.09857</ele><time>2026-07-21T19:01:30.000Z</time></trkpt>
        <trkpt lat="28.718472" lon="105.061553"><ele>279.31433</ele><time>2026-07-21T19:01:32.000Z</time></trkpt>
        <trkpt lat="28.718493" lon="105.061567"><ele>278.98605</ele><time>2026-07-21T19:01:34.000Z</time></trkpt>
        <trkpt lat="28.718515" lon="105.061584"><ele>279.3468</ele><time>2026-07-21T19:01:36.000Z</time></trkpt>
        <trkpt lat="28.718536" lon="105.061603"><ele>279.1851</ele><time>2026-07-21T19:01:38.000Z</time></trkpt>
        <trkpt lat="28.718558" lon="105.061625"><ele>279.72757</ele><time>2026-07-21T19:01:40.000Z</time></trkpt>
        <trkpt lat="28.718577" lon="105.061648"><ele>279.33267</ele><time>2026-07-21T19:01:42.000Z</time></trkpt>
        <trkpt lat="28.718594" lon="105.061671"><ele>279.26944</ele><time>2026-07-21T19:01:44.000Z</time></trkpt>
        <trkpt lat="28.718608" lon="105.061693"><ele>279.45325</ele><time>2026-07-21T19:01:46.000Z</time></trkpt>
        <trkpt lat="28.718624" lon="105.061715"><ele>279.58716</ele><time>2026-07-21T19:01:48.000Z</time></trkpt>
        <trkpt lat="28.71864" lon="105.061736"><ele>279.86237</ele><time>2026-07-21T19:01:50.000Z</time></trkpt>
        <trkpt lat="28.71866" lon="105.061753"><ele>280.5363</ele><time>2026-07-21T19:01:52.000Z</time></trkpt>
        <trkpt lat="28.718681" lon="105.061767"><ele>280.7132</ele><time>2026-07-21T19:01:54.000Z</time></trkpt>
        <trkpt lat="28.718704" lon="105.06178"><ele>281.0722</ele><time>2026-07-21T19:01:56.000Z</time></trkpt>
        <trkpt lat="28.718729" lon="105.061789"><ele>280.97455</ele><time>2026-07-21T19:01:58.000Z</time></trkpt>
        <trkpt lat="28.718753" lon="105.061795"><ele>281.05173</ele><time>2026-07-21T19:02:00.000Z</time></trkpt>
        <trkpt lat="28.718778" lon="105.061798"><ele>280.624</ele><time>2026-07-21T19:02:02.000Z</time></trkpt>
        <trkpt lat="28.718803" lon="105.0618"><ele>280.71548</ele><time>2026-07-21T19:02:04.000Z</time></trkpt>
        <trkpt lat="28.718829" lon="105.0618"><ele>280.34476</ele><time>2026-07-21T19:02:06.000Z</time></trkpt>
        <trkpt lat="28.718857" lon="105.0618"><ele>280.5596</ele><time>2026-07-21T19:02:08.000Z</time></trkpt>
        <trkpt lat="28.718885" lon="105.061798"><ele>280.5828</ele><time>2026-07-21T19:02:10.000Z</time></trkpt>
        <trkpt lat="28.718913" lon="105.061794"><ele>279.89444</ele><time>2026-07-21T19:02:12.000Z</time></trkpt>
        <trkpt lat="28.718939" lon="105.061791"><ele>279.517</ele><time>2026-07-21T19:02:14.000Z</time></trkpt>
        <trkpt lat="28.718967" lon="105.061786"><ele>279.67096</ele><time>2026-07-21T19:02:16.000Z</time></trkpt>
        <trkpt lat="28.718993" lon="105.061782"><ele>279.95447</ele><time>2026-07-21T19:02:18.000Z</time></trkpt>
        <trkpt lat="28.719019" lon="105.061779"><ele>280.05728</ele><time>2026-07-21T19:02:20.000Z</time></trkpt>
        <trkpt lat="28.719045" lon="105.061776"><ele>279.47495</ele><time>2026-07-21T19:02:22.000Z</time></trkpt>
        <trkpt lat="28.719072" lon="105.061776"><ele>279.98724</ele><time>2026-07-21T19:02:24.000Z</time></trkpt>
        <trkpt lat="28.719099" lon="105.061779"><ele>280.01678</ele><time>2026-07-21T19:02:26.000Z</time></trkpt>
        <trkpt lat="28.719125" lon="105.061784"><ele>279.80945</ele><time>2026-07-21T19:02:28.000Z</time></trkpt>
        <trkpt lat="28.719151" lon="105.061791"><ele>280.12222</ele><time>2026-07-21T19:02:30.000Z</time></trkpt>
        <trkpt lat="28.719176" lon="105.0618"><ele>279.8743</ele><time>2026-07-21T19:02:32.000Z</time></trkpt>
        <trkpt lat="28.7192" lon="105.061813"><ele>279.86322</ele><time>2026-07-21T19:02:34.000Z</time></trkpt>
        <trkpt lat="28.719224" lon="105.061829"><ele>280.08456</ele><time>2026-07-21T19:02:36.000Z</time></trkpt>
        <trkpt lat="28.719247" lon="105.061848"><ele>280.2448</ele><time>2026-07-21T19:02:38.000Z</time></trkpt>
        <trkpt lat="28.719269" lon="105.061869"><ele>280.4897</ele><time>2026-07-21T19:02:40.000Z</time></trkpt>
        <trkpt lat="28.71929" lon="105.061891"><ele>280.38922</ele><time>2026-07-21T19:02:42.000Z</time></trkpt>
        <trkpt lat="28.719308" lon="105.061913"><ele>280.58118</ele><time>2026-07-21T19:02:44.000Z</time></trkpt>
        <trkpt lat="28.719322" lon="105.061932"><ele>280.0028</ele><time>2026-07-21T19:02:46.000Z</time></trkpt>
        <trkpt lat="28.719339" lon="105.061953"><ele>280.81952</ele><time>2026-07-21T19:02:48.000Z</time></trkpt>
        <trkpt lat="28.719354" lon="105.061973"><ele>280.74185</ele><time>2026-07-21T19:02:50.000Z</time></trkpt>
        <trkpt lat="28.719369" lon="105.061994"><ele>280.05493</ele><time>2026-07-21T19:02:52.000Z</time></trkpt>
        <trkpt lat="28.719385" lon="105.062016"><ele>279.65247</ele><time>2026-07-21T19:02:54.000Z</time></trkpt>
        <trkpt lat="28.719399" lon="105.062039"><ele>279.83682</ele><time>2026-07-21T19:02:56.000Z</time></trkpt>
        <trkpt lat="28.719414" lon="105.062063"><ele>279.45337</ele><time>2026-07-21T19:02:58.000Z</time></trkpt>
        <trkpt lat="28.719426" lon="105.062086"><ele>279.05814</ele><time>2026-07-21T19:03:00.000Z</time></trkpt>
        <trkpt lat="28.719438" lon="105.06211"><ele>279.33978</ele><time>2026-07-21T19:03:02.000Z</time></trkpt>
        <trkpt lat="28.71945" lon="105.062136"><ele>279.36038</ele><time>2026-07-21T19:03:04.000Z</time></trkpt>
        <trkpt lat="28.719463" lon="105.062161"><ele>279.00296</ele><time>2026-07-21T19:03:06.000Z</time></trkpt>
        <trkpt lat="28.719477" lon="105.062186"><ele>279.6463</ele><time>2026-07-21T19:03:08.000Z</time></trkpt>
        <trkpt lat="28.719492" lon="105.062211"><ele>280.12076</ele><time>2026-07-21T19:03:10.000Z</time></trkpt>
        <trkpt lat="28.719507" lon="105.062233"><ele>280.05786</ele><time>2026-07-21T19:03:12.000Z</time></trkpt>
        <trkpt lat="28.719522" lon="105.062256"><ele>279.99164</ele><time>2026-07-21T19:03:14.000Z</time></trkpt>
        <trkpt lat="28.719538" lon="105.062279"><ele>279.65878</ele><time>2026-07-21T19:03:16.000Z</time></trkpt>
        <trkpt lat="28.719553" lon="105.062301"><ele>280.16403</ele><time>2026-07-21T19:03:18.000Z</time></trkpt>
        <trkpt lat="28.719568" lon="105.062323"><ele>279.91602</ele><time>2026-07-21T19:03:20.000Z</time></trkpt>
        <trkpt lat="28.719585" lon="105.062344"><ele>280.1614</ele><time>2026-07-21T19:03:22.000Z</time></trkpt>
        <trkpt lat="28.719604" lon="105.062365"><ele>280.47678</ele><time>2026-07-21T19:03:24.000Z</time></trkpt>
        <trkpt lat="28.719623" lon="105.062388"><ele>280.6424</ele><time>2026-07-21T19:03:26.000Z</time></trkpt>
        <trkpt lat="28.719643" lon="105.062409"><ele>280.93835</ele><time>2026-07-21T19:03:28.000Z</time></trkpt>
        <trkpt lat="28.719663" lon="105.062427"><ele>281.26544</ele><time>2026-07-21T19:03:30.000Z</time></trkpt>
        <trkpt lat="28.719683" lon="105.062445"><ele>280.70587</ele><time>2026-07-21T19:03:32.000Z</time></trkpt>
        <trkpt lat="28.7197" lon="105.062462"><ele>280.5058</ele><time>2026-07-21T19:03:34.000Z</time></trkpt>
        <trkpt lat="28.719715" lon="105.062482"><ele>280.74228</ele><time>2026-07-21T19:03:36.000Z</time></trkpt>
        <trkpt lat="28.71973" lon="105.062504"><ele>281.451</ele><time>2026-07-21T19:03:38.000Z</time></trkpt>
        <trkpt lat="28.719743" lon="105.062526"><ele>281.38416</ele><time>2026-07-21T19:03:40.000Z</time></trkpt>
        <trkpt lat="28.719756" lon="105.062547"><ele>280.4654</ele><time>2026-07-21T19:03:42.000Z</time></trkpt>
        <trkpt lat="28.719767" lon="105.062568"><ele>280.28082</ele><time>2026-07-21T19:03:44.000Z</time></trkpt>
        <trkpt lat="28.719778" lon="105.062591"><ele>280.1329</ele><time>2026-07-21T19:03:46.000Z</time></trkpt>
        <trkpt lat="28.719788" lon="105.062617"><ele>279.44577</ele><time>2026-07-21T19:03:48.000Z</time></trkpt>
        <trkpt lat="28.719797" lon="105.062644"><ele>279.7775</ele><time>2026-07-21T19:03:50.000Z</time></trkpt>
        <trkpt lat="28.719803" lon="105.062673"><ele>279.0479</ele><time>2026-07-21T19:03:52.000Z</time></trkpt>
        <trkpt lat="28.719809" lon="105.062707"><ele>279.8452</ele><time>2026-07-21T19:03:54.000Z</time></trkpt>
        <trkpt lat="28.71981" lon="105.062741"><ele>280.2327</ele><time>2026-07-21T19:03:56.000Z</time></trkpt>
        <trkpt lat="28.71981" lon="105.062771"><ele>280.19974</ele><time>2026-07-21T19:03:58.000Z</time></trkpt>
        <trkpt lat="28.71981" lon="105.062802"><ele>280.5739</ele><time>2026-07-21T19:04:00.000Z</time></trkpt>
        <trkpt lat="28.719813" lon="105.062831"><ele>280.51236</ele><time>2026-07-21T19:04:02.000Z</time></trkpt>
        <trkpt lat="28.719819" lon="105.062859"><ele>280.76962</ele><time>2026-07-21T19:04:04.000Z</time></trkpt>
        <trkpt lat="28.719827" lon="105.062888"><ele>280.10632</ele><time>2026-07-21T19:04:06.000Z</time></trkpt>
        <trkpt lat="28.719838" lon="105.062916"><ele>279.9488</ele><time>2026-07-21T19:04:08.000Z</time></trkpt>
        <trkpt lat="28.719847" lon="105.062943"><ele>280.20142</ele><time>2026-07-21T19:04:10.000Z</time></trkpt>
        <trkpt lat="28.719852" lon="105.062962"><ele>280.49875</ele><time>2026-07-21T19:04:12.000Z</time></trkpt>
        <trkpt lat="28.719857" lon="105.062979"><ele>280.73468</ele><time>2026-07-21T19:04:14.000Z</time></trkpt>
        <trkpt lat="28.719864" lon="105.062997"><ele>280.18567</ele><time>2026-07-21T19:04:16.000Z</time></trkpt>
        <trkpt lat="28.71987" lon="105.063016"><ele>280.52957</ele><time>2026-07-21T19:04:18.000Z</time></trkpt>
        <trkpt lat="28.719876" lon="105.063039"><ele>280.08136</ele><time>2026-07-21T19:04:20.000Z</time></trkpt>
        <trkpt lat="28.719884" lon="105.063063"><ele>279.25705</ele><time>2026-07-21T19:04:22.000Z</time></trkpt>
        <trkpt lat="28.719892" lon="105.063087"><ele>279.57086</ele><time>2026-07-21T19:04:24.000Z</time></trkpt>
        <trkpt lat="28.7199" lon="105.063113"><ele>280.02258</ele><time>2026-07-21T19:04:26.000Z</time></trkpt>
        <trkpt lat="28.719907" lon="105.063138"><ele>279.72263</ele><time>2026-07-21T19:04:28.000Z</time></trkpt>
        <trkpt lat="28.719914" lon="105.063164"><ele>279.3522</ele><time>2026-07-21T19:04:30.000Z</time></trkpt>
        <trkpt lat="28.719923" lon="105.063189"><ele>279.01016</ele><time>2026-07-21T19:04:32.000Z</time></trkpt>
        <trkpt lat="28.719932" lon="105.063215"><ele>278.47968</ele><time>2026-07-21T19:04:34.000Z</time></trkpt>
        <trkpt lat="28.719939" lon="105.063241"><ele>278.49228</ele><time>2026-07-21T19:04:36.000Z</time></trkpt>
        <trkpt lat="28.719944" lon="105.063267"><ele>278.83832</ele><time>2026-07-21T19:04:38.000Z</time></trkpt>
        <trkpt lat="28.719949" lon="105.063293"><ele>279.30307</ele><time>2026-07-21T19:04:40.000Z</time></trkpt>
        <trkpt lat="28.719955" lon="105.063321"><ele>279.2537</ele><time>2026-07-21T19:04:42.000Z</time></trkpt>
        <trkpt lat="28.719961" lon="105.063348"><ele>279.47827</ele><time>2026-07-21T19:04:44.000Z</time></trkpt>
        <trkpt lat="28.719967" lon="105.063375"><ele>279.21576</ele><time>2026-07-21T19:04:46.000Z</time></trkpt>
        <trkpt lat="28.719969" lon="105.063404"><ele>278.85004</ele><time>2026-07-21T19:04:48.000Z</time></trkpt>
        <trkpt lat="28.719961" lon="105.06343"><ele>279.26242</ele><time>2026-07-21T19:04:50.000Z</time></trkpt>
        <trkpt lat="28.719953" lon="105.063434"><ele>280.17426</ele><time>2026-07-21T19:04:52.000Z</time></trkpt>
        <trkpt lat="28.719942" lon="105.06343"><ele>280.7014</ele><time>2026-07-21T19:04:54.000Z</time></trkpt>
        <trkpt lat="28.719927" lon="105.063415"><ele>280.21356</ele><time>2026-07-21T19:04:56.000Z</time></trkpt>
        <trkpt lat="28.71991" lon="105.063393"><ele>280.8318</ele><time>2026-07-21T19:04:58.000Z</time></trkpt>
        <trkpt lat="28.719895" lon="105.063369"><ele>280.69125</ele><time>2026-07-21T19:05:00.000Z</time></trkpt>
        <trkpt lat="28.71988" lon="105.063344"><ele>281.0412</ele><time>2026-07-21T19:05:02.000Z</time></trkpt>
        <trkpt lat="28.719863" lon="105.063318"><ele>281.75372</ele><time>2026-07-21T19:05:04.000Z</time></trkpt>
        <trkpt lat="28.719849" lon="105.063296"><ele>281.60995</ele><time>2026-07-21T19:05:06.000Z</time></trkpt>
        <trkpt lat="28.719834" lon="105.063273"><ele>283.0069</ele><time>2026-07-21T19:05:08.000Z</time></trkpt>
        <trkpt lat="28.719821" lon="105.063252"><ele>283.124</ele><time>2026-07-21T19:05:10.000Z</time></trkpt>
        <trkpt lat="28.719807" lon="105.063231"><ele>283.2232</ele><time>2026-07-21T19:05:12.000Z</time></trkpt>
        <trkpt lat="28.719796" lon="105.063212"><ele>283.77762</ele><time>2026-07-21T19:05:14.000Z</time></trkpt>
        <trkpt lat="28.719782" lon="105.063189"><ele>284.44086</ele><time>2026-07-21T19:05:16.000Z</time></trkpt>
        <trkpt lat="28.719769" lon="105.063168"><ele>284.5841</ele><time>2026-07-21T19:05:18.000Z</time></trkpt>
        <trkpt lat="28.719755" lon="105.063147"><ele>284.28995</ele><time>2026-07-21T19:05:20.000Z</time></trkpt>
        <trkpt lat="28.719741" lon="105.063123"><ele>284.97958</ele><time>2026-07-21T19:05:22.000Z</time></trkpt>
        <trkpt lat="28.719729" lon="105.0631"><ele>284.581</ele><time>2026-07-21T19:05:24.000Z</time></trkpt>
        <trkpt lat="28.719715" lon="105.063075"><ele>284.76364</ele><time>2026-07-21T19:05:26.000Z</time></trkpt>
        <trkpt lat="28.719702" lon="105.063052"><ele>285.42645</ele><time>2026-07-21T19:05:28.000Z</time></trkpt>
        <trkpt lat="28.719691" lon="105.06303"><ele>285.68185</ele><time>2026-07-21T19:05:30.000Z</time></trkpt>
        <trkpt lat="28.719682" lon="105.063008"><ele>286.26068</ele><time>2026-07-21T19:05:32.000Z</time></trkpt>
        <trkpt lat="28.719672" lon="105.062985"><ele>286.61868</ele><time>2026-07-21T19:05:34.000Z</time></trkpt>
        <trkpt lat="28.719662" lon="105.062962"><ele>286.92078</ele><time>2026-07-21T19:05:36.000Z</time></trkpt>
        <trkpt lat="28.719651" lon="105.062938"><ele>286.93158</ele><time>2026-07-21T19:05:38.000Z</time></trkpt>
        <trkpt lat="28.719642" lon="105.062916"><ele>287.67825</ele><time>2026-07-21T19:05:40.000Z</time></trkpt>
        <trkpt lat="28.719633" lon="105.062893"><ele>288.45615</ele><time>2026-07-21T19:05:42.000Z</time></trkpt>
        <trkpt lat="28.719627" lon="105.062877"><ele>288.16254</ele><time>2026-07-21T19:05:44.000Z</time></trkpt>
        <trkpt lat="28.719622" lon="105.062859"><ele>288.17615</ele><time>2026-07-21T19:05:46.000Z</time></trkpt>
        <trkpt lat="28.719623" lon="105.062846"><ele>287.3008</ele><time>2026-07-21T19:05:48.000Z</time></trkpt>
        <trkpt lat="28.719629" lon="105.062835"><ele>287.60785</ele><time>2026-07-21T19:05:50.000Z</time></trkpt>
      </trkseg>
      <trkseg>
        <trkpt lat="28.71962" lon="105.062881"><ele>288.76227</ele><time>2026-07-21T19:12:16.000Z</time></trkpt>
        <trkpt lat="28.719594" lon="105.062967"><ele>290.47037</ele><time>2026-07-21T19:12:27.000Z</time></trkpt>
        <trkpt lat="28.719574" lon="105.062986"><ele>290.1774</ele><time>2026-07-21T19:12:29.000Z</time></trkpt>
        <trkpt lat="28.719559" lon="105.062997"><ele>290.07794</ele><time>2026-07-21T19:12:31.000Z</time></trkpt>
        <trkpt lat="28.719553" lon="105.062996"><ele>289.95456</ele><time>2026-07-21T19:12:33.000Z</time></trkpt>
        <trkpt lat="28.719524" lon="105.062986"><ele>291.16293</ele><time>2026-07-21T19:12:39.000Z</time></trkpt>
        <trkpt lat="28.71951" lon="105.062981"><ele>291.365</ele><time>2026-07-21T19:12:41.000Z</time></trkpt>
        <trkpt lat="28.719495" lon="105.062974"><ele>291.74442</ele><time>2026-07-21T19:12:43.000Z</time></trkpt>
        <trkpt lat="28.719478" lon="105.062967"><ele>292.66913</ele><time>2026-07-21T19:12:45.000Z</time></trkpt>
        <trkpt lat="28.719461" lon="105.062959"><ele>293.13834</ele><time>2026-07-21T19:12:47.000Z</time></trkpt>
        <trkpt lat="28.719444" lon="105.062952"><ele>293.68112</ele><time>2026-07-21T19:12:49.000Z</time></trkpt>
        <trkpt lat="28.719428" lon="105.062948"><ele>294.4201</ele><time>2026-07-21T19:12:51.000Z</time></trkpt>
        <trkpt lat="28.719412" lon="105.062947"><ele>294.52597</ele><time>2026-07-21T19:12:53.000Z</time></trkpt>
        <trkpt lat="28.719395" lon="105.062947"><ele>294.8507</ele><time>2026-07-21T19:12:55.000Z</time></trkpt>
        <trkpt lat="28.719378" lon="105.062948"><ele>295.25174</ele><time>2026-07-21T19:12:57.000Z</time></trkpt>
        <trkpt lat="28.719361" lon="105.062949"><ele>295.5915</ele><time>2026-07-21T19:12:59.000Z</time></trkpt>
        <trkpt lat="28.719346" lon="105.062953"><ele>295.97958</ele><time>2026-07-21T19:13:01.000Z</time></trkpt>
        <trkpt lat="28.719331" lon="105.062957"><ele>296.0761</ele><time>2026-07-21T19:13:03.000Z</time></trkpt>
        <trkpt lat="28.719317" lon="105.062965"><ele>296.63138</ele><time>2026-07-21T19:13:05.000Z</time></trkpt>
        <trkpt lat="28.719305" lon="105.062974"><ele>297.3455</ele><time>2026-07-21T19:13:07.000Z</time></trkpt>
        <trkpt lat="28.719294" lon="105.062983"><ele>297.789</ele><time>2026-07-21T19:13:09.000Z</time></trkpt>
        <trkpt lat="28.719285" lon="105.062994"><ele>298.03802</ele><time>2026-07-21T19:13:11.000Z</time></trkpt>
        <trkpt lat="28.719274" lon="105.063002"><ele>298.5712</ele><time>2026-07-21T19:13:13.000Z</time></trkpt>
        <trkpt lat="28.719263" lon="105.063002"><ele>299.03766</ele><time>2026-07-21T19:13:15.000Z</time></trkpt>
        <trkpt lat="28.719256" lon="105.062997"><ele>299.51538</ele><time>2026-07-21T19:13:17.000Z</time></trkpt>
        <trkpt lat="28.719245" lon="105.062984"><ele>300.22498</ele><time>2026-07-21T19:13:19.000Z</time></trkpt>
        <trkpt lat="28.719234" lon="105.062972"><ele>300.01337</ele><time>2026-07-21T19:13:21.000Z</time></trkpt>
        <trkpt lat="28.719223" lon="105.062963"><ele>300.38226</ele><time>2026-07-21T19:13:23.000Z</time></trkpt>
        <trkpt lat="28.719211" lon="105.062958"><ele>301.10495</ele><time>2026-07-21T19:13:25.000Z</time></trkpt>
        <trkpt lat="28.719201" lon="105.062955"><ele>301.63077</ele><time>2026-07-21T19:13:27.000Z</time></trkpt>
        <trkpt lat="28.71919" lon="105.062955"><ele>301.8641</ele><time>2026-07-21T19:13:29.000Z</time></trkpt>
        <trkpt lat="28.719183" lon="105.062957"><ele>302.4363</ele><time>2026-07-21T19:13:31.000Z</time></trkpt>
        <trkpt lat="28.719173" lon="105.062959"><ele>302.64944</ele><time>2026-07-21T19:13:33.000Z</time></trkpt>
        <trkpt lat="28.719163" lon="105.062963"><ele>302.49017</ele><time>2026-07-21T19:13:35.000Z</time></trkpt>
        <trkpt lat="28.719154" lon="105.062967"><ele>303.48257</ele><time>2026-07-21T19:13:37.000Z</time></trkpt>
        <trkpt lat="28.719147" lon="105.062969"><ele>303.3151</ele><time>2026-07-21T19:13:39.000Z</time></trkpt>
        <trkpt lat="28.719129" lon="105.062971"><ele>305.24435</ele><time>2026-07-21T19:13:43.000Z</time></trkpt>
        <trkpt lat="28.71912" lon="105.062971"><ele>305.36237</ele><time>2026-07-21T19:13:45.000Z</time></trkpt>
        <trkpt lat="28.719112" lon="105.062971"><ele>305.7854</ele><time>2026-07-21T19:13:47.000Z</time></trkpt>
        <trkpt lat="28.719097" lon="105.06297"><ele>306.13556</ele><time>2026-07-21T19:13:51.000Z</time></trkpt>
        <trkpt lat="28.719083" lon="105.06297"><ele>306.6762</ele><time>2026-07-21T19:13:53.000Z</time></trkpt>
        <trkpt lat="28.719082" lon="105.06297"><ele>306.87402</ele><time>2026-07-21T19:13:55.000Z</time></trkpt>
        <trkpt lat="28.719058" lon="105.062978"><ele>308.19208</ele><time>2026-07-21T19:14:01.000Z</time></trkpt>
        <trkpt lat="28.719045" lon="105.062983"><ele>308.6519</ele><time>2026-07-21T19:14:03.000Z</time></trkpt>
        <trkpt lat="28.71903" lon="105.06299"><ele>309.264</ele><time>2026-07-21T19:14:05.000Z</time></trkpt>
        <trkpt lat="28.719022" lon="105.062996"><ele>308.46118</ele><time>2026-07-21T19:14:07.000Z</time></trkpt>
        <trkpt lat="28.719018" lon="105.063004"><ele>309.9256</ele><time>2026-07-21T19:14:09.000Z</time></trkpt>
        <trkpt lat="28.71901" lon="105.063018"><ele>310.02423</ele><time>2026-07-21T19:14:13.000Z</time></trkpt>
        <trkpt lat="28.719004" lon="105.06303"><ele>310.59656</ele><time>2026-07-21T19:14:15.000Z</time></trkpt>
        <trkpt lat="28.719003" lon="105.063031"><ele>310.8975</ele><time>2026-07-21T19:14:17.000Z</time></trkpt>
        <trkpt lat="28.718994" lon="105.063054"><ele>311.47714</ele><time>2026-07-21T19:14:23.000Z</time></trkpt>
        <trkpt lat="28.718988" lon="105.063064"><ele>311.68942</ele><time>2026-07-21T19:14:25.000Z</time></trkpt>
        <trkpt lat="28.718982" lon="105.063075"><ele>312.2261</ele><time>2026-07-21T19:14:27.000Z</time></trkpt>
        <trkpt lat="28.718976" lon="105.063086"><ele>311.94513</ele><time>2026-07-21T19:14:29.000Z</time></trkpt>
        <trkpt lat="28.718971" lon="105.063095"><ele>312.63406</ele><time>2026-07-21T19:14:31.000Z</time></trkpt>
        <trkpt lat="28.718967" lon="105.063101"><ele>313.01602</ele><time>2026-07-21T19:14:33.000Z</time></trkpt>
        <trkpt lat="28.718961" lon="105.063113"><ele>313.7092</ele><time>2026-07-21T19:14:37.000Z</time></trkpt>
        <trkpt lat="28.718957" lon="105.063121"><ele>313.0686</ele><time>2026-07-21T19:14:39.000Z</time></trkpt>
        <trkpt lat="28.718953" lon="105.063129"><ele>313.48804</ele><time>2026-07-21T19:14:41.000Z</time></trkpt>
        <trkpt lat="28.71895" lon="105.063137"><ele>314.01706</ele><time>2026-07-21T19:14:43.000Z</time></trkpt>
        <trkpt lat="28.718947" lon="105.063143"><ele>314.05533</ele><time>2026-07-21T19:14:45.000Z</time></trkpt>
        <trkpt lat="28.718945" lon="105.063151"><ele>314.79498</ele><time>2026-07-21T19:14:47.000Z</time></trkpt>
        <trkpt lat="28.718943" lon="105.063158"><ele>314.57492</ele><time>2026-07-21T19:14:49.000Z</time></trkpt>
        <trkpt lat="28.718939" lon="105.063178"><ele>314.44696</ele><time>2026-07-21T19:14:53.000Z</time></trkpt>
        <trkpt lat="28.718939" lon="105.063178"><ele>315.12558</ele><time>2026-07-21T19:14:55.000Z</time></trkpt>
        <trkpt lat="28.718928" lon="105.063186"><ele>316.17252</ele><time>2026-07-21T19:14:59.000Z</time></trkpt>
        <trkpt lat="28.718912" lon="105.063207"><ele>317.11215</ele><time>2026-07-21T19:15:03.000Z</time></trkpt>
        <trkpt lat="28.71891" lon="105.063217"><ele>317.6563</ele><time>2026-07-21T19:15:05.000Z</time></trkpt>
        <trkpt lat="28.718912" lon="105.063231"><ele>318.21658</ele><time>2026-07-21T19:15:07.000Z</time></trkpt>
        <trkpt lat="28.718917" lon="105.063242"><ele>318.8863</ele><time>2026-07-21T19:15:09.000Z</time></trkpt>
        <trkpt lat="28.718924" lon="105.063254"><ele>318.41397</ele><time>2026-07-21T19:15:11.000Z</time></trkpt>
        <trkpt lat="28.718934" lon="105.063271"><ele>319.1412</ele><time>2026-07-21T19:15:13.000Z</time></trkpt>
        <trkpt lat="28.718942" lon="105.063286"><ele>318.8835</ele><time>2026-07-21T19:15:15.000Z</time></trkpt>
        <trkpt lat="28.718948" lon="105.063297"><ele>319.33368</ele><time>2026-07-21T19:15:17.000Z</time></trkpt>
        <trkpt lat="28.71895" lon="105.063305"><ele>319.67014</ele><time>2026-07-21T19:15:19.000Z</time></trkpt>
        <trkpt lat="28.718949" lon="105.063305"><ele>320.2432</ele><time>2026-07-21T19:15:23.000Z</time></trkpt>
        <trkpt lat="28.718941" lon="105.063316"><ele>321.53595</ele><time>2026-07-21T19:15:31.000Z</time></trkpt>
        <trkpt lat="28.718929" lon="105.06332"><ele>321.9797</ele><time>2026-07-21T19:15:33.000Z</time></trkpt>
        <trkpt lat="28.718905" lon="105.063327"><ele>321.52155</ele><time>2026-07-21T19:15:35.000Z</time></trkpt>
        <trkpt lat="28.718904" lon="105.063327"><ele>321.63065</ele><time>2026-07-21T19:15:37.000Z</time></trkpt>
        <trkpt lat="28.718902" lon="105.063326"><ele>321.3471</ele><time>2026-07-21T19:15:39.000Z</time></trkpt>
        <trkpt lat="28.718876" lon="105.063311"><ele>322.2022</ele><time>2026-07-21T19:15:43.000Z</time></trkpt>
        <trkpt lat="28.718876" lon="105.063311"><ele>322.3966</ele><time>2026-07-21T19:15:45.000Z</time></trkpt>
        <trkpt lat="28.718874" lon="105.063311"><ele>323.18735</ele><time>2026-07-21T19:15:47.000Z</time></trkpt>
        <trkpt lat="28.718847" lon="105.063309"><ele>324.14926</ele><time>2026-07-21T19:15:51.000Z</time></trkpt>
        <trkpt lat="28.718832" lon="105.063309"><ele>325.31735</ele><time>2026-07-21T19:15:53.000Z</time></trkpt>
        <trkpt lat="28.718822" lon="105.063309"><ele>325.49008</ele><time>2026-07-21T19:15:55.000Z</time></trkpt>
        <trkpt lat="28.718813" lon="105.06331"><ele>325.65805</ele><time>2026-07-21T19:15:57.000Z</time></trkpt>
        <trkpt lat="28.718804" lon="105.063313"><ele>325.50253</ele><time>2026-07-21T19:15:59.000Z</time></trkpt>
        <trkpt lat="28.718799" lon="105.063319"><ele>325.81058</ele><time>2026-07-21T19:16:01.000Z</time></trkpt>
        <trkpt lat="28.718788" lon="105.063335"><ele>326.9943</ele><time>2026-07-21T19:16:05.000Z</time></trkpt>
        <trkpt lat="28.718786" lon="105.063342"><ele>327.50735</ele><time>2026-07-21T19:16:07.000Z</time></trkpt>
        <trkpt lat="28.718784" lon="105.063349"><ele>328.43564</ele><time>2026-07-21T19:16:09.000Z</time></trkpt>
        <trkpt lat="28.718782" lon="105.063356"><ele>328.44098</ele><time>2026-07-21T19:16:11.000Z</time></trkpt>
        <trkpt lat="28.71878" lon="105.063362"><ele>329.46512</ele><time>2026-07-21T19:16:13.000Z</time></trkpt>
        <trkpt lat="28.718776" lon="105.063373"><ele>330.33838</ele><time>2026-07-21T19:16:17.000Z</time></trkpt>
        <trkpt lat="28.718774" lon="105.063379"><ele>330.50763</ele><time>2026-07-21T19:16:19.000Z</time></trkpt>
        <trkpt lat="28.718771" lon="105.063386"><ele>330.49402</ele><time>2026-07-21T19:16:21.000Z</time></trkpt>
        <trkpt lat="28.718768" lon="105.063394"><ele>330.80923</ele><time>2026-07-21T19:16:23.000Z</time></trkpt>
        <trkpt lat="28.718765" lon="105.063403"><ele>331.13672</ele><time>2026-07-21T19:16:25.000Z</time></trkpt>
        <trkpt lat="28.718764" lon="105.063411"><ele>332.2979</ele><time>2026-07-21T19:16:27.000Z</time></trkpt>
        <trkpt lat="28.718762" lon="105.06342"><ele>332.74548</ele><time>2026-07-21T19:16:29.000Z</time></trkpt>
        <trkpt lat="28.718759" lon="105.063429"><ele>332.58957</ele><time>2026-07-21T19:16:31.000Z</time></trkpt>
        <trkpt lat="28.718755" lon="105.063435"><ele>333.5218</ele><time>2026-07-21T19:16:33.000Z</time></trkpt>
        <trkpt lat="28.718744" lon="105.063447"><ele>332.98947</ele><time>2026-07-21T19:16:35.000Z</time></trkpt>
        <trkpt lat="28.718736" lon="105.063455"><ele>333.46646</ele><time>2026-07-21T19:16:41.000Z</time></trkpt>
        <trkpt lat="28.718726" lon="105.063466"><ele>334.08322</ele><time>2026-07-21T19:16:43.000Z</time></trkpt>
        <trkpt lat="28.718715" lon="105.063479"><ele>335.1825</ele><time>2026-07-21T19:16:45.000Z</time></trkpt>
        <trkpt lat="28.718705" lon="105.063491"><ele>335.8319</ele><time>2026-07-21T19:16:47.000Z</time></trkpt>
        <trkpt lat="28.718696" lon="105.063501"><ele>335.84143</ele><time>2026-07-21T19:16:49.000Z</time></trkpt>
        <trkpt lat="28.718688" lon="105.06351"><ele>335.93295</ele><time>2026-07-21T19:16:51.000Z</time></trkpt>
        <trkpt lat="28.718682" lon="105.063517"><ele>337.00992</ele><time>2026-07-21T19:16:53.000Z</time></trkpt>
        <trkpt lat="28.718677" lon="105.063525"><ele>337.96014</ele><time>2026-07-21T19:16:55.000Z</time></trkpt>
        <trkpt lat="28.718673" lon="105.06354"><ele>339.06558</ele><time>2026-07-21T19:16:59.000Z</time></trkpt>
        <trkpt lat="28.718669" lon="105.063555"><ele>339.27606</ele><time>2026-07-21T19:17:01.000Z</time></trkpt>
        <trkpt lat="28.718669" lon="105.063556"><ele>340.46613</ele><time>2026-07-21T19:17:03.000Z</time></trkpt>
        <trkpt lat="28.718657" lon="105.063583"><ele>341.20984</ele><time>2026-07-21T19:17:09.000Z</time></trkpt>
        <trkpt lat="28.718652" lon="105.063594"><ele>341.62308</ele><time>2026-07-21T19:17:11.000Z</time></trkpt>
        <trkpt lat="28.718648" lon="105.063606"><ele>341.9564</ele><time>2026-07-21T19:17:13.000Z</time></trkpt>
        <trkpt lat="28.718644" lon="105.063613"><ele>342.4749</ele><time>2026-07-21T19:17:15.000Z</time></trkpt>
        <trkpt lat="28.718645" lon="105.063617"><ele>342.84805</ele><time>2026-07-21T19:17:19.000Z</time></trkpt>
        <trkpt lat="28.718608" lon="105.063466"><ele>342.81287</ele><time>2026-07-21T19:17:56.000Z</time></trkpt>
        <trkpt lat="28.718604" lon="105.063449"><ele>342.63977</ele><time>2026-07-21T19:17:58.000Z</time></trkpt>
        <trkpt lat="28.718604" lon="105.063449"><ele>343.04123</ele><time>2026-07-21T19:18:00.000Z</time></trkpt>
        <trkpt lat="28.718588" lon="105.063439"><ele>343.26608</ele><time>2026-07-21T19:18:06.000Z</time></trkpt>
        <trkpt lat="28.718568" lon="105.063428"><ele>343.75388</ele><time>2026-07-21T19:18:08.000Z</time></trkpt>
        <trkpt lat="28.718566" lon="105.063427"><ele>344.91193</ele><time>2026-07-21T19:18:10.000Z</time></trkpt>
        <trkpt lat="28.718562" lon="105.063419"><ele>344.43088</ele><time>2026-07-21T19:18:14.000Z</time></trkpt>
        <trkpt lat="28.718541" lon="105.063385"><ele>344.74304</ele><time>2026-07-21T19:18:22.000Z</time></trkpt>
        <trkpt lat="28.718541" lon="105.063385"><ele>344.40234</ele><time>2026-07-21T19:18:24.000Z</time></trkpt>
        <trkpt lat="28.718541" lon="105.063385"><ele>344.17447</ele><time>2026-07-21T19:18:26.000Z</time></trkpt>
        <trkpt lat="28.718509" lon="105.063393"><ele>346.02484</ele><time>2026-07-21T19:19:01.000Z</time></trkpt>
        <trkpt lat="28.718487" lon="105.063402"><ele>345.5452</ele><time>2026-07-21T19:19:03.000Z</time></trkpt>
        <trkpt lat="28.718463" lon="105.063413"><ele>346.60568</ele><time>2026-07-21T19:19:05.000Z</time></trkpt>
        <trkpt lat="28.718461" lon="105.063413"><ele>346.4586</ele><time>2026-07-21T19:19:07.000Z</time></trkpt>
        <trkpt lat="28.718454" lon="105.063415"><ele>346.57053</ele><time>2026-07-21T19:19:11.000Z</time></trkpt>
        <trkpt lat="28.718425" lon="105.063421"><ele>347.76578</ele><time>2026-07-21T19:19:15.000Z</time></trkpt>
        <trkpt lat="28.718425" lon="105.063421"><ele>348.46423</ele><time>2026-07-21T19:19:17.000Z</time></trkpt>
        <trkpt lat="28.718401" lon="105.063415"><ele>347.61435</ele><time>2026-07-21T19:19:19.000Z</time></trkpt>
        <trkpt lat="28.718399" lon="105.063415"><ele>348.16202</ele><time>2026-07-21T19:19:21.000Z</time></trkpt>
        <trkpt lat="28.718398" lon="105.063417"><ele>348.39722</ele><time>2026-07-21T19:19:23.000Z</time></trkpt>
        <trkpt lat="28.718377" lon="105.063438"><ele>349.7542</ele><time>2026-07-21T19:19:29.000Z</time></trkpt>
        <trkpt lat="28.718365" lon="105.063448"><ele>349.9981</ele><time>2026-07-21T19:19:31.000Z</time></trkpt>
        <trkpt lat="28.718365" lon="105.063449"><ele>350.26627</ele><time>2026-07-21T19:19:33.000Z</time></trkpt>
        <trkpt lat="28.718355" lon="105.063458"><ele>350.81094</ele><time>2026-07-21T19:19:37.000Z</time></trkpt>
        <trkpt lat="28.718344" lon="105.063466"><ele>351.76376</ele><time>2026-07-21T19:19:39.000Z</time></trkpt>
        <trkpt lat="28.718331" lon="105.063475"><ele>352.16226</ele><time>2026-07-21T19:19:41.000Z</time></trkpt>
        <trkpt lat="28.718318" lon="105.063484"><ele>352.0922</ele><time>2026-07-21T19:19:43.000Z</time></trkpt>
        <trkpt lat="28.718307" lon="105.063494"><ele>352.9625</ele><time>2026-07-21T19:19:45.000Z</time></trkpt>
        <trkpt lat="28.718298" lon="105.063502"><ele>352.8395</ele><time>2026-07-21T19:19:47.000Z</time></trkpt>
        <trkpt lat="28.718289" lon="105.063512"><ele>353.49338</ele><time>2026-07-21T19:19:49.000Z</time></trkpt>
        <trkpt lat="28.71828" lon="105.063523"><ele>353.9717</ele><time>2026-07-21T19:19:51.000Z</time></trkpt>
        <trkpt lat="28.718272" lon="105.063534"><ele>355.70602</ele><time>2026-07-21T19:19:53.000Z</time></trkpt>
        <trkpt lat="28.718263" lon="105.063542"><ele>356.8295</ele><time>2026-07-21T19:19:55.000Z</time></trkpt>
        <trkpt lat="28.718252" lon="105.063552"><ele>356.8753</ele><time>2026-07-21T19:19:57.000Z</time></trkpt>
        <trkpt lat="28.71824" lon="105.063563"><ele>356.89957</ele><time>2026-07-21T19:19:59.000Z</time></trkpt>
        <trkpt lat="28.718235" lon="105.063567"><ele>358.26355</ele><time>2026-07-21T19:20:01.000Z</time></trkpt>
        <trkpt lat="28.718229" lon="105.06357"><ele>357.61032</ele><time>2026-07-21T19:20:03.000Z</time></trkpt>
        <trkpt lat="28.718205" lon="105.063578"><ele>361.03772</ele><time>2026-07-21T19:20:07.000Z</time></trkpt>
        <trkpt lat="28.718192" lon="105.063583"><ele>362.30646</ele><time>2026-07-21T19:20:09.000Z</time></trkpt>
        <trkpt lat="28.718182" lon="105.063587"><ele>361.60425</ele><time>2026-07-21T19:20:11.000Z</time></trkpt>
        <trkpt lat="28.718172" lon="105.063589"><ele>361.5312</ele><time>2026-07-21T19:20:13.000Z</time></trkpt>
        <trkpt lat="28.718162" lon="105.063591"><ele>362.16388</ele><time>2026-07-21T19:20:15.000Z</time></trkpt>
        <trkpt lat="28.718151" lon="105.063594"><ele>362.62067</ele><time>2026-07-21T19:20:17.000Z</time></trkpt>
        <trkpt lat="28.718139" lon="105.063595"><ele>362.91098</ele><time>2026-07-21T19:20:19.000Z</time></trkpt>
        <trkpt lat="28.718121" lon="105.063597"><ele>363.13812</ele><time>2026-07-21T19:20:21.000Z</time></trkpt>
        <trkpt lat="28.718106" lon="105.063599"><ele>363.44318</ele><time>2026-07-21T19:20:23.000Z</time></trkpt>
        <trkpt lat="28.718105" lon="105.063602"><ele>364.4023</ele><time>2026-07-21T19:20:25.000Z</time></trkpt>
        <trkpt lat="28.718096" lon="105.063625"><ele>363.68622</ele><time>2026-07-21T19:20:43.000Z</time></trkpt>
        <trkpt lat="28.718096" lon="105.063625"><ele>364.0313</ele><time>2026-07-21T19:20:45.000Z</time></trkpt>
        <trkpt lat="28.718095" lon="105.063625"><ele>363.9821</ele><time>2026-07-21T19:20:47.000Z</time></trkpt>
        <trkpt lat="28.718054" lon="105.06364"><ele>365.7508</ele><time>2026-07-21T19:20:51.000Z</time></trkpt>
        <trkpt lat="28.718054" lon="105.06364"><ele>366.73154</ele><time>2026-07-21T19:20:53.000Z</time></trkpt>
        <trkpt lat="28.718051" lon="105.063638"><ele>367.49564</ele><time>2026-07-21T19:20:55.000Z</time></trkpt>
        <trkpt lat="28.718015" lon="105.063621"><ele>369.6073</ele><time>2026-07-21T19:20:59.000Z</time></trkpt>
        <trkpt lat="28.717996" lon="105.063614"><ele>370.86588</ele><time>2026-07-21T19:21:01.000Z</time></trkpt>
        <trkpt lat="28.717976" lon="105.063608"><ele>369.6997</ele><time>2026-07-21T19:21:03.000Z</time></trkpt>
        <trkpt lat="28.717955" lon="105.063604"><ele>370.43323</ele><time>2026-07-21T19:21:05.000Z</time></trkpt>
        <trkpt lat="28.717935" lon="105.063601"><ele>370.4402</ele><time>2026-07-21T19:21:07.000Z</time></trkpt>
        <trkpt lat="28.717921" lon="105.063597"><ele>369.94214</ele><time>2026-07-21T19:21:09.000Z</time></trkpt>
        <trkpt lat="28.717913" lon="105.063596"><ele>370.3165</ele><time>2026-07-21T19:21:11.000Z</time></trkpt>
        <trkpt lat="28.717902" lon="105.063597"><ele>370.068</ele><time>2026-07-21T19:21:13.000Z</time></trkpt>
        <trkpt lat="28.717893" lon="105.063598"><ele>370.28497</ele><time>2026-07-21T19:21:15.000Z</time></trkpt>
        <trkpt lat="28.717882" lon="105.063597"><ele>370.63492</ele><time>2026-07-21T19:21:17.000Z</time></trkpt>
        <trkpt lat="28.717871" lon="105.063593"><ele>370.93857</ele><time>2026-07-21T19:21:19.000Z</time></trkpt>
        <trkpt lat="28.717853" lon="105.063587"><ele>373.04404</ele><time>2026-07-21T19:21:21.000Z</time></trkpt>
        <trkpt lat="28.717837" lon="105.06358"><ele>373.5001</ele><time>2026-07-21T19:21:23.000Z</time></trkpt>
        <trkpt lat="28.717816" lon="105.063574"><ele>372.7872</ele><time>2026-07-21T19:21:25.000Z</time></trkpt>
        <trkpt lat="28.717803" lon="105.06357"><ele>370.89905</ele><time>2026-07-21T19:21:27.000Z</time></trkpt>
        <trkpt lat="28.717788" lon="105.063566"><ele>371.01587</ele><time>2026-07-21T19:21:29.000Z</time></trkpt>
        <trkpt lat="28.717777" lon="105.063564"><ele>372.07285</ele><time>2026-07-21T19:21:31.000Z</time></trkpt>
        <trkpt lat="28.717765" lon="105.063562"><ele>372.11935</ele><time>2026-07-21T19:21:33.000Z</time></trkpt>
        <trkpt lat="28.717753" lon="105.063558"><ele>372.63135</ele><time>2026-07-21T19:21:35.000Z</time></trkpt>
        <trkpt lat="28.717741" lon="105.063554"><ele>373.41565</ele><time>2026-07-21T19:21:37.000Z</time></trkpt>
        <trkpt lat="28.717732" lon="105.06355"><ele>373.2952</ele><time>2026-07-21T19:21:39.000Z</time></trkpt>
        <trkpt lat="28.717719" lon="105.063543"><ele>373.47794</ele><time>2026-07-21T19:21:41.000Z</time></trkpt>
        <trkpt lat="28.717707" lon="105.063537"><ele>373.5887</ele><time>2026-07-21T19:21:43.000Z</time></trkpt>
        <trkpt lat="28.717693" lon="105.063532"><ele>373.89285</ele><time>2026-07-21T19:21:45.000Z</time></trkpt>
        <trkpt lat="28.71768" lon="105.063528"><ele>373.86374</ele><time>2026-07-21T19:21:47.000Z</time></trkpt>
        <trkpt lat="28.717664" lon="105.063524"><ele>374.10837</ele><time>2026-07-21T19:21:49.000Z</time></trkpt>
        <trkpt lat="28.71765" lon="105.06352"><ele>374.46692</ele><time>2026-07-21T19:21:51.000Z</time></trkpt>
        <trkpt lat="28.717638" lon="105.063519"><ele>374.71356</ele><time>2026-07-21T19:21:53.000Z</time></trkpt>
        <trkpt lat="28.717625" lon="105.063517"><ele>374.94122</ele><time>2026-07-21T19:21:55.000Z</time></trkpt>
        <trkpt lat="28.717611" lon="105.063513"><ele>375.823</ele><time>2026-07-21T19:21:57.000Z</time></trkpt>
        <trkpt lat="28.717596" lon="105.06351"><ele>376.59924</ele><time>2026-07-21T19:21:59.000Z</time></trkpt>
        <trkpt lat="28.717583" lon="105.063509"><ele>376.60953</ele><time>2026-07-21T19:22:01.000Z</time></trkpt>
        <trkpt lat="28.717569" lon="105.063509"><ele>377.31982</ele><time>2026-07-21T19:22:03.000Z</time></trkpt>
        <trkpt lat="28.717553" lon="105.063508"><ele>377.7795</ele><time>2026-07-21T19:22:05.000Z</time></trkpt>
        <trkpt lat="28.717537" lon="105.063507"><ele>378.37164</ele><time>2026-07-21T19:22:07.000Z</time></trkpt>
        <trkpt lat="28.717523" lon="105.063505"><ele>378.9913</ele><time>2026-07-21T19:22:09.000Z</time></trkpt>
        <trkpt lat="28.717514" lon="105.063504"><ele>379.15625</ele><time>2026-07-21T19:22:11.000Z</time></trkpt>
        <trkpt lat="28.717502" lon="105.0635"><ele>378.5882</ele><time>2026-07-21T19:22:13.000Z</time></trkpt>
        <trkpt lat="28.717492" lon="105.063497"><ele>379.80453</ele><time>2026-07-21T19:22:15.000Z</time></trkpt>
        <trkpt lat="28.717484" lon="105.063492"><ele>379.6699</ele><time>2026-07-21T19:22:17.000Z</time></trkpt>
        <trkpt lat="28.717476" lon="105.063489"><ele>380.3378</ele><time>2026-07-21T19:22:19.000Z</time></trkpt>
        <trkpt lat="28.717462" lon="105.063487"><ele>379.95697</ele><time>2026-07-21T19:22:23.000Z</time></trkpt>
        <trkpt lat="28.717457" lon="105.06349"><ele>380.4959</ele><time>2026-07-21T19:22:25.000Z</time></trkpt>
        <trkpt lat="28.717442" lon="105.063498"><ele>380.904</ele><time>2026-07-21T19:22:27.000Z</time></trkpt>
        <trkpt lat="28.717427" lon="105.063506"><ele>382.69553</ele><time>2026-07-21T19:22:33.000Z</time></trkpt>
        <trkpt lat="28.717412" lon="105.06351"><ele>382.85648</ele><time>2026-07-21T19:22:35.000Z</time></trkpt>
        <trkpt lat="28.717394" lon="105.063517"><ele>383.43094</ele><time>2026-07-21T19:22:37.000Z</time></trkpt>
        <trkpt lat="28.717379" lon="105.063523"><ele>382.78845</ele><time>2026-07-21T19:22:39.000Z</time></trkpt>
        <trkpt lat="28.717367" lon="105.063527"><ele>383.28983</ele><time>2026-07-21T19:22:41.000Z</time></trkpt>
        <trkpt lat="28.717355" lon="105.063529"><ele>384.08658</ele><time>2026-07-21T19:22:43.000Z</time></trkpt>
        <trkpt lat="28.71734" lon="105.063533"><ele>384.09943</ele><time>2026-07-21T19:22:45.000Z</time></trkpt>
        <trkpt lat="28.717328" lon="105.063537"><ele>383.57913</ele><time>2026-07-21T19:22:47.000Z</time></trkpt>
        <trkpt lat="28.71732" lon="105.063538"><ele>384.69357</ele><time>2026-07-21T19:22:49.000Z</time></trkpt>
        <trkpt lat="28.717313" lon="105.063536"><ele>384.9026</ele><time>2026-07-21T19:22:51.000Z</time></trkpt>
        <trkpt lat="28.717301" lon="105.06353"><ele>385.3173</ele><time>2026-07-21T19:22:55.000Z</time></trkpt>
        <trkpt lat="28.717295" lon="105.063531"><ele>385.2819</ele><time>2026-07-21T19:22:57.000Z</time></trkpt>
        <trkpt lat="28.717279" lon="105.063533"><ele>385.28552</ele><time>2026-07-21T19:22:59.000Z</time></trkpt>
        <trkpt lat="28.717264" lon="105.063533"><ele>387.04398</ele><time>2026-07-21T19:23:05.000Z</time></trkpt>
        <trkpt lat="28.717247" lon="105.063531"><ele>387.40753</ele><time>2026-07-21T19:23:07.000Z</time></trkpt>
        <trkpt lat="28.717227" lon="105.06353"><ele>386.93747</ele><time>2026-07-21T19:23:09.000Z</time></trkpt>
        <trkpt lat="28.717209" lon="105.06353"><ele>388.3093</ele><time>2026-07-21T19:23:11.000Z</time></trkpt>
        <trkpt lat="28.717192" lon="105.063527"><ele>386.84537</ele><time>2026-07-21T19:23:13.000Z</time></trkpt>
        <trkpt lat="28.717176" lon="105.063522"><ele>387.0411</ele><time>2026-07-21T19:23:15.000Z</time></trkpt>
        <trkpt lat="28.717166" lon="105.063518"><ele>386.7477</ele><time>2026-07-21T19:23:17.000Z</time></trkpt>
        <trkpt lat="28.717163" lon="105.063519"><ele>386.87936</ele><time>2026-07-21T19:23:19.000Z</time></trkpt>
        <trkpt lat="28.71715" lon="105.063524"><ele>387.81027</ele><time>2026-07-21T19:23:41.000Z</time></trkpt>
        <trkpt lat="28.717137" lon="105.063528"><ele>387.41833</ele><time>2026-07-21T19:23:43.000Z</time></trkpt>
        <trkpt lat="28.717136" lon="105.063528"><ele>388.2859</ele><time>2026-07-21T19:23:45.000Z</time></trkpt>
        <trkpt lat="28.717121" lon="105.063523"><ele>389.68698</ele><time>2026-07-21T19:23:51.000Z</time></trkpt>
        <trkpt lat="28.71711" lon="105.063516"><ele>389.47394</ele><time>2026-07-21T19:23:57.000Z</time></trkpt>
        <trkpt lat="28.717108" lon="105.063516"><ele>389.96127</ele><time>2026-07-21T19:23:59.000Z</time></trkpt>
        <trkpt lat="28.717061" lon="105.063508"><ele>389.50598</ele><time>2026-07-21T19:24:03.000Z</time></trkpt>
        <trkpt lat="28.717061" lon="105.063508"><ele>389.31583</ele><time>2026-07-21T19:24:05.000Z</time></trkpt>
        <trkpt lat="28.71706" lon="105.063507"><ele>389.4194</ele><time>2026-07-21T19:24:07.000Z</time></trkpt>
        <trkpt lat="28.717024" lon="105.063487"><ele>388.8586</ele><time>2026-07-21T19:24:11.000Z</time></trkpt>
        <trkpt lat="28.717002" lon="105.063476"><ele>388.67792</ele><time>2026-07-21T19:24:13.000Z</time></trkpt>
        <trkpt lat="28.716979" lon="105.063467"><ele>388.53934</ele><time>2026-07-21T19:24:15.000Z</time></trkpt>
        <trkpt lat="28.716958" lon="105.063461"><ele>387.989</ele><time>2026-07-21T19:24:17.000Z</time></trkpt>
        <trkpt lat="28.716939" lon="105.063456"><ele>389.51105</ele><time>2026-07-21T19:24:19.000Z</time></trkpt>
        <trkpt lat="28.716918" lon="105.063451"><ele>390.20496</ele><time>2026-07-21T19:24:21.000Z</time></trkpt>
        <trkpt lat="28.716899" lon="105.063446"><ele>390.06396</ele><time>2026-07-21T19:24:23.000Z</time></trkpt>
        <trkpt lat="28.71688" lon="105.063441"><ele>390.90863</ele><time>2026-07-21T19:24:25.000Z</time></trkpt>
        <trkpt lat="28.716859" lon="105.063434"><ele>391.13428</ele><time>2026-07-21T19:24:27.000Z</time></trkpt>
        <trkpt lat="28.71684" lon="105.063427"><ele>391.35513</ele><time>2026-07-21T19:24:29.000Z</time></trkpt>
        <trkpt lat="28.716825" lon="105.063421"><ele>391.79114</ele><time>2026-07-21T19:24:31.000Z</time></trkpt>
        <trkpt lat="28.716812" lon="105.063416"><ele>392.10556</ele><time>2026-07-21T19:24:33.000Z</time></trkpt>
        <trkpt lat="28.716798" lon="105.063412"><ele>392.17343</ele><time>2026-07-21T19:24:35.000Z</time></trkpt>
        <trkpt lat="28.716784" lon="105.063408"><ele>392.16037</ele><time>2026-07-21T19:24:37.000Z</time></trkpt>
        <trkpt lat="28.716769" lon="105.063404"><ele>391.57376</ele><time>2026-07-21T19:24:39.000Z</time></trkpt>
        <trkpt lat="28.716754" lon="105.063399"><ele>392.2048</ele><time>2026-07-21T19:24:41.000Z</time></trkpt>
        <trkpt lat="28.716737" lon="105.063392"><ele>392.49026</ele><time>2026-07-21T19:24:43.000Z</time></trkpt>
        <trkpt lat="28.716721" lon="105.063385"><ele>392.6379</ele><time>2026-07-21T19:24:45.000Z</time></trkpt>
        <trkpt lat="28.716705" lon="105.063377"><ele>392.65472</ele><time>2026-07-21T19:24:47.000Z</time></trkpt>
        <trkpt lat="28.716689" lon="105.063369"><ele>393.0759</ele><time>2026-07-21T19:24:49.000Z</time></trkpt>
        <trkpt lat="28.716677" lon="105.063362"><ele>393.77512</ele><time>2026-07-21T19:24:51.000Z</time></trkpt>
        <trkpt lat="28.716666" lon="105.063356"><ele>393.22766</ele><time>2026-07-21T19:24:53.000Z</time></trkpt>
        <trkpt lat="28.716655" lon="105.063351"><ele>394.12344</ele><time>2026-07-21T19:24:55.000Z</time></trkpt>
        <trkpt lat="28.716643" lon="105.063348"><ele>394.2397</ele><time>2026-07-21T19:24:57.000Z</time></trkpt>
        <trkpt lat="28.716634" lon="105.063348"><ele>394.59396</ele><time>2026-07-21T19:24:59.000Z</time></trkpt>
        <trkpt lat="28.716625" lon="105.06335"><ele>394.74838</ele><time>2026-07-21T19:25:01.000Z</time></trkpt>
        <trkpt lat="28.716616" lon="105.06335"><ele>395.03036</ele><time>2026-07-21T19:25:03.000Z</time></trkpt>
        <trkpt lat="28.716603" lon="105.06335"><ele>394.60184</ele><time>2026-07-21T19:25:05.000Z</time></trkpt>
        <trkpt lat="28.71659" lon="105.063349"><ele>395.2827</ele><time>2026-07-21T19:25:07.000Z</time></trkpt>
        <trkpt lat="28.716581" lon="105.063348"><ele>396.34756</ele><time>2026-07-21T19:25:09.000Z</time></trkpt>
        <trkpt lat="28.716575" lon="105.063348"><ele>397.16086</ele><time>2026-07-21T19:25:11.000Z</time></trkpt>
        <trkpt lat="28.71657" lon="105.063347"><ele>397.10095</ele><time>2026-07-21T19:25:13.000Z</time></trkpt>
        <trkpt lat="28.716558" lon="105.063339"><ele>397.6701</ele><time>2026-07-21T19:25:17.000Z</time></trkpt>
        <trkpt lat="28.716554" lon="105.063333"><ele>398.1531</ele><time>2026-07-21T19:25:19.000Z</time></trkpt>
        <trkpt lat="28.716541" lon="105.063325"><ele>398.40024</ele><time>2026-07-21T19:25:21.000Z</time></trkpt>
        <trkpt lat="28.716533" lon="105.063323"><ele>398.90274</ele><time>2026-07-21T19:25:27.000Z</time></trkpt>
        <trkpt lat="28.716511" lon="105.063317"><ele>398.575</ele><time>2026-07-21T19:25:29.000Z</time></trkpt>
        <trkpt lat="28.716509" lon="105.063317"><ele>398.89545</ele><time>2026-07-21T19:25:31.000Z</time></trkpt>
        <trkpt lat="28.716507" lon="105.063317"><ele>398.57126</ele><time>2026-07-21T19:25:33.000Z</time></trkpt>
        <trkpt lat="28.716482" lon="105.063317"><ele>399.4881</ele><time>2026-07-21T19:25:37.000Z</time></trkpt>
        <trkpt lat="28.71647" lon="105.063319"><ele>399.65686</ele><time>2026-07-21T19:25:39.000Z</time></trkpt>
        <trkpt lat="28.716461" lon="105.063322"><ele>398.78372</ele><time>2026-07-21T19:25:41.000Z</time></trkpt>
        <trkpt lat="28.716455" lon="105.063326"><ele>398.20142</ele><time>2026-07-21T19:25:43.000Z</time></trkpt>
        <trkpt lat="28.71645" lon="105.06333"><ele>399.45407</ele><time>2026-07-21T19:25:47.000Z</time></trkpt>
        <trkpt lat="28.716438" lon="105.063337"><ele>399.77393</ele><time>2026-07-21T19:25:51.000Z</time></trkpt>
        <trkpt lat="28.716437" lon="105.063337"><ele>400.6473</ele><time>2026-07-21T19:25:53.000Z</time></trkpt>
        <trkpt lat="28.716428" lon="105.063336"><ele>400.72812</ele><time>2026-07-21T19:26:07.000Z</time></trkpt>
        <trkpt lat="28.7164" lon="105.06333"><ele>400.8847</ele><time>2026-07-21T19:26:09.000Z</time></trkpt>
        <trkpt lat="28.716398" lon="105.06333"><ele>401.2114</ele><time>2026-07-21T19:26:11.000Z</time></trkpt>
        <trkpt lat="28.716345" lon="105.063338"><ele>400.90845</ele><time>2026-07-21T19:26:14.000Z</time></trkpt>
        <trkpt lat="28.716345" lon="105.063338"><ele>401.78967</ele><time>2026-07-21T19:26:16.000Z</time></trkpt>
        <trkpt lat="28.716339" lon="105.063335"><ele>401.90738</ele><time>2026-07-21T19:26:18.000Z</time></trkpt>
        <trkpt lat="28.716319" lon="105.063325"><ele>402.32614</ele><time>2026-07-21T19:26:20.000Z</time></trkpt>
        <trkpt lat="28.716293" lon="105.063313"><ele>402.78934</ele><time>2026-07-21T19:26:22.000Z</time></trkpt>
        <trkpt lat="28.716269" lon="105.063302"><ele>401.62744</ele><time>2026-07-21T19:26:24.000Z</time></trkpt>
        <trkpt lat="28.71625" lon="105.063295"><ele>401.6811</ele><time>2026-07-21T19:26:26.000Z</time></trkpt>
        <trkpt lat="28.716243" lon="105.063296"><ele>400.7158</ele><time>2026-07-21T19:26:28.000Z</time></trkpt>
        <trkpt lat="28.716242" lon="105.063295"><ele>401.66812</ele><time>2026-07-21T19:26:30.000Z</time></trkpt>
        <trkpt lat="28.716273" lon="105.063302"><ele>402.50815</ele><time>2026-07-21T19:26:38.000Z</time></trkpt>
        <trkpt lat="28.716275" lon="105.063301"><ele>402.48358</ele><time>2026-07-21T19:26:40.000Z</time></trkpt>
        <trkpt lat="28.716276" lon="105.0633"><ele>402.83167</ele><time>2026-07-21T19:26:42.000Z</time></trkpt>
        <trkpt lat="28.716234" lon="105.063331"><ele>402.94437</ele><time>2026-07-21T19:26:47.000Z</time></trkpt>
        <trkpt lat="28.716233" lon="105.063331"><ele>403.4962</ele><time>2026-07-21T19:26:49.000Z</time></trkpt>
        <trkpt lat="28.716231" lon="105.063331"><ele>403.4962</ele><time>2026-07-21T19:26:51.000Z</time></trkpt>
        <trkpt lat="28.716264" lon="105.063328"><ele>403.75302</ele><time>2026-07-21T19:27:05.000Z</time></trkpt>
        <trkpt lat="28.716265" lon="105.063328"><ele>404.19498</ele><time>2026-07-21T19:27:09.000Z</time></trkpt>
        <trkpt lat="28.716274" lon="105.063327"><ele>404.37357</ele><time>2026-07-21T19:27:11.000Z</time></trkpt>
        <trkpt lat="28.716239" lon="105.063332"><ele>403.2541</ele><time>2026-07-21T19:28:32.000Z</time></trkpt>
        <trkpt lat="28.716236" lon="105.063309"><ele>403.42557</ele><time>2026-07-21T19:28:47.000Z</time></trkpt>
        <trkpt lat="28.716228" lon="105.063261"><ele>401.64267</ele><time>2026-07-21T19:28:58.000Z</time></trkpt>
        <trkpt lat="28.716228" lon="105.063261"><ele>401.66144</ele><time>2026-07-21T19:29:00.000Z</time></trkpt>
        <trkpt lat="28.716221" lon="105.063238"><ele>401.85367</ele><time>2026-07-21T19:29:02.000Z</time></trkpt>
        <trkpt lat="28.716214" lon="105.063228"><ele>401.87833</ele><time>2026-07-21T19:29:08.000Z</time></trkpt>
        <trkpt lat="28.716204" lon="105.063218"><ele>402.44736</ele><time>2026-07-21T19:29:10.000Z</time></trkpt>
        <trkpt lat="28.71619" lon="105.063205"><ele>402.53275</ele><time>2026-07-21T19:29:12.000Z</time></trkpt>
        <trkpt lat="28.716176" lon="105.063194"><ele>402.29065</ele><time>2026-07-21T19:29:14.000Z</time></trkpt>
        <trkpt lat="28.716165" lon="105.063189"><ele>402.7721</ele><time>2026-07-21T19:29:16.000Z</time></trkpt>
        <trkpt lat="28.716151" lon="105.063184"><ele>403.64874</ele><time>2026-07-21T19:29:18.000Z</time></trkpt>
        <trkpt lat="28.716135" lon="105.06318"><ele>403.3704</ele><time>2026-07-21T19:29:20.000Z</time></trkpt>
        <trkpt lat="28.71612" lon="105.063178"><ele>403.9541</ele><time>2026-07-21T19:29:22.000Z</time></trkpt>
        <trkpt lat="28.716106" lon="105.063179"><ele>404.09253</ele><time>2026-07-21T19:29:24.000Z</time></trkpt>
        <trkpt lat="28.716091" lon="105.063181"><ele>404.3682</ele><time>2026-07-21T19:29:26.000Z</time></trkpt>
        <trkpt lat="28.716078" lon="105.063186"><ele>404.9645</ele><time>2026-07-21T19:29:28.000Z</time></trkpt>
        <trkpt lat="28.716061" lon="105.063194"><ele>405.49448</ele><time>2026-07-21T19:29:30.000Z</time></trkpt>
        <trkpt lat="28.71605" lon="105.063201"><ele>406.16727</ele><time>2026-07-21T19:29:32.000Z</time></trkpt>
        <trkpt lat="28.716033" lon="105.06321"><ele>404.8963</ele><time>2026-07-21T19:29:34.000Z</time></trkpt>
        <trkpt lat="28.716021" lon="105.063216"><ele>405.87512</ele><time>2026-07-21T19:29:36.000Z</time></trkpt>
        <trkpt lat="28.716008" lon="105.063221"><ele>406.82565</ele><time>2026-07-21T19:29:38.000Z</time></trkpt>
        <trkpt lat="28.716" lon="105.06322"><ele>408.3049</ele><time>2026-07-21T19:29:40.000Z</time></trkpt>
        <trkpt lat="28.715989" lon="105.06322"><ele>408.49023</ele><time>2026-07-21T19:29:42.000Z</time></trkpt>
        <trkpt lat="28.715968" lon="105.063216"><ele>409.20312</ele><time>2026-07-21T19:29:44.000Z</time></trkpt>
        <trkpt lat="28.715952" lon="105.063211"><ele>408.81906</ele><time>2026-07-21T19:29:46.000Z</time></trkpt>
        <trkpt lat="28.715937" lon="105.063208"><ele>408.83032</ele><time>2026-07-21T19:29:47.000Z</time></trkpt>
        <trkpt lat="28.715922" lon="105.063208"><ele>408.53497</ele><time>2026-07-21T19:29:49.000Z</time></trkpt>
        <trkpt lat="28.715907" lon="105.063211"><ele>409.46085</ele><time>2026-07-21T19:29:51.000Z</time></trkpt>
        <trkpt lat="28.715893" lon="105.063214"><ele>410.45035</ele><time>2026-07-21T19:29:53.000Z</time></trkpt>
        <trkpt lat="28.715879" lon="105.063221"><ele>410.298</ele><time>2026-07-21T19:29:55.000Z</time></trkpt>
        <trkpt lat="28.715867" lon="105.063228"><ele>410.65344</ele><time>2026-07-21T19:29:57.000Z</time></trkpt>
        <trkpt lat="28.715859" lon="105.063238"><ele>410.86288</ele><time>2026-07-21T19:29:59.000Z</time></trkpt>
        <trkpt lat="28.715856" lon="105.063248"><ele>411.53705</ele><time>2026-07-21T19:30:01.000Z</time></trkpt>
        <trkpt lat="28.715848" lon="105.06326"><ele>412.5334</ele><time>2026-07-21T19:30:03.000Z</time></trkpt>
        <trkpt lat="28.715843" lon="105.063266"><ele>410.69162</ele><time>2026-07-21T19:30:05.000Z</time></trkpt>
        <trkpt lat="28.715835" lon="105.063276"><ele>411.55255</ele><time>2026-07-21T19:30:07.000Z</time></trkpt>
        <trkpt lat="28.715823" lon="105.06329"><ele>412.09207</ele><time>2026-07-21T19:30:09.000Z</time></trkpt>
        <trkpt lat="28.715811" lon="105.063309"><ele>411.85605</ele><time>2026-07-21T19:30:11.000Z</time></trkpt>
        <trkpt lat="28.715803" lon="105.063329"><ele>412.154</ele><time>2026-07-21T19:30:13.000Z</time></trkpt>
        <trkpt lat="28.715794" lon="105.063352"><ele>412.05246</ele><time>2026-07-21T19:30:15.000Z</time></trkpt>
        <trkpt lat="28.715786" lon="105.063374"><ele>412.48917</ele><time>2026-07-21T19:30:17.000Z</time></trkpt>
        <trkpt lat="28.715778" lon="105.063394"><ele>412.77655</ele><time>2026-07-21T19:30:20.000Z</time></trkpt>
        <trkpt lat="28.715773" lon="105.06341"><ele>413.7506</ele><time>2026-07-21T19:30:22.000Z</time></trkpt>
        <trkpt lat="28.715769" lon="105.063425"><ele>413.49246</ele><time>2026-07-21T19:30:24.000Z</time></trkpt>
        <trkpt lat="28.715766" lon="105.063443"><ele>414.74536</ele><time>2026-07-21T19:30:26.000Z</time></trkpt>
        <trkpt lat="28.715766" lon="105.063457"><ele>414.83917</ele><time>2026-07-21T19:30:28.000Z</time></trkpt>
        <trkpt lat="28.715768" lon="105.063471"><ele>415.09756</ele><time>2026-07-21T19:30:30.000Z</time></trkpt>
        <trkpt lat="28.715773" lon="105.063486"><ele>415.41943</ele><time>2026-07-21T19:30:32.000Z</time></trkpt>
        <trkpt lat="28.71578" lon="105.063501"><ele>414.855</ele><time>2026-07-21T19:30:34.000Z</time></trkpt>
        <trkpt lat="28.715786" lon="105.063519"><ele>415.44974</ele><time>2026-07-21T19:30:36.000Z</time></trkpt>
        <trkpt lat="28.715791" lon="105.063543"><ele>416.28397</ele><time>2026-07-21T19:30:38.000Z</time></trkpt>
        <trkpt lat="28.715796" lon="105.063561"><ele>416.69232</ele><time>2026-07-21T19:30:40.000Z</time></trkpt>
        <trkpt lat="28.715801" lon="105.063574"><ele>416.9535</ele><time>2026-07-21T19:30:42.000Z</time></trkpt>
        <trkpt lat="28.715807" lon="105.06359"><ele>417.0243</ele><time>2026-07-21T19:30:44.000Z</time></trkpt>
        <trkpt lat="28.715809" lon="105.0636"><ele>417.04843</ele><time>2026-07-21T19:30:46.000Z</time></trkpt>
        <trkpt lat="28.715807" lon="105.063606"><ele>417.7355</ele><time>2026-07-21T19:30:48.000Z</time></trkpt>
        <trkpt lat="28.715803" lon="105.06363"><ele>417.3475</ele><time>2026-07-21T19:30:52.000Z</time></trkpt>
        <trkpt lat="28.715801" lon="105.063636"><ele>417.4338</ele><time>2026-07-21T19:30:54.000Z</time></trkpt>
        <trkpt lat="28.7158" lon="105.063644"><ele>417.99487</ele><time>2026-07-21T19:30:56.000Z</time></trkpt>
        <trkpt lat="28.715798" lon="105.063587"><ele>416.50876</ele><time>2026-07-21T19:31:10.000Z</time></trkpt>
        <trkpt lat="28.715796" lon="105.063542"><ele>416.68158</ele><time>2026-07-21T19:31:12.000Z</time></trkpt>
        <trkpt lat="28.715795" lon="105.063539"><ele>416.61154</ele><time>2026-07-21T19:31:14.000Z</time></trkpt>
        <trkpt lat="28.715793" lon="105.063532"><ele>415.80444</ele><time>2026-07-21T19:31:16.000Z</time></trkpt>
        <trkpt lat="28.715788" lon="105.063507"><ele>416.15497</ele><time>2026-07-21T19:31:18.000Z</time></trkpt>
        <trkpt lat="28.715782" lon="105.06347"><ele>415.4216</ele><time>2026-07-21T19:31:20.000Z</time></trkpt>
        <trkpt lat="28.71578" lon="105.063433"><ele>414.9742</ele><time>2026-07-21T19:31:22.000Z</time></trkpt>
        <trkpt lat="28.715782" lon="105.063398"><ele>414.16702</ele><time>2026-07-21T19:31:24.000Z</time></trkpt>
        <trkpt lat="28.715788" lon="105.063372"><ele>413.1141</ele><time>2026-07-21T19:31:26.000Z</time></trkpt>
        <trkpt lat="28.715795" lon="105.063352"><ele>413.9727</ele><time>2026-07-21T19:31:28.000Z</time></trkpt>
        <trkpt lat="28.715804" lon="105.063331"><ele>414.5561</ele><time>2026-07-21T19:31:30.000Z</time></trkpt>
        <trkpt lat="28.715814" lon="105.063313"><ele>413.08102</ele><time>2026-07-21T19:31:32.000Z</time></trkpt>
        <trkpt lat="28.715828" lon="105.063289"><ele>412.69156</ele><time>2026-07-21T19:31:34.000Z</time></trkpt>
        <trkpt lat="28.715847" lon="105.063265"><ele>413.1012</ele><time>2026-07-21T19:31:36.000Z</time></trkpt>
        <trkpt lat="28.715868" lon="105.063242"><ele>412.60864</ele><time>2026-07-21T19:31:38.000Z</time></trkpt>
        <trkpt lat="28.715885" lon="105.063221"><ele>410.44482</ele><time>2026-07-21T19:31:40.000Z</time></trkpt>
        <trkpt lat="28.715901" lon="105.063199"><ele>410.7748</ele><time>2026-07-21T19:31:42.000Z</time></trkpt>
        <trkpt lat="28.715913" lon="105.063178"><ele>409.66333</ele><time>2026-07-21T19:31:44.000Z</time></trkpt>
        <trkpt lat="28.715924" lon="105.06316"><ele>409.9668</ele><time>2026-07-21T19:31:46.000Z</time></trkpt>
        <trkpt lat="28.715938" lon="105.063141"><ele>408.99655</ele><time>2026-07-21T19:31:48.000Z</time></trkpt>
        <trkpt lat="28.71595" lon="105.063122"><ele>409.05988</ele><time>2026-07-21T19:31:50.000Z</time></trkpt>
        <trkpt lat="28.715958" lon="105.063102"><ele>408.3465</ele><time>2026-07-21T19:31:52.000Z</time></trkpt>
        <trkpt lat="28.715962" lon="105.063078"><ele>408.87115</ele><time>2026-07-21T19:31:53.000Z</time></trkpt>
        <trkpt lat="28.715962" lon="105.063056"><ele>408.40924</ele><time>2026-07-21T19:31:55.000Z</time></trkpt>
        <trkpt lat="28.715959" lon="105.063032"><ele>408.73843</ele><time>2026-07-21T19:31:57.000Z</time></trkpt>
        <trkpt lat="28.715954" lon="105.063007"><ele>407.61993</ele><time>2026-07-21T19:32:00.000Z</time></trkpt>
        <trkpt lat="28.715948" lon="105.062986"><ele>407.63217</ele><time>2026-07-21T19:32:02.000Z</time></trkpt>
        <trkpt lat="28.71594" lon="105.062965"><ele>407.1262</ele><time>2026-07-21T19:32:04.000Z</time></trkpt>
        <trkpt lat="28.71593" lon="105.062948"><ele>406.83835</ele><time>2026-07-21T19:32:06.000Z</time></trkpt>
        <trkpt lat="28.715916" lon="105.062933"><ele>406.52383</ele><time>2026-07-21T19:32:08.000Z</time></trkpt>
        <trkpt lat="28.715898" lon="105.062917"><ele>406.5501</ele><time>2026-07-21T19:32:10.000Z</time></trkpt>
        <trkpt lat="28.715879" lon="105.062902"><ele>406.6063</ele><time>2026-07-21T19:32:12.000Z</time></trkpt>
        <trkpt lat="28.715858" lon="105.062886"><ele>406.03833</ele><time>2026-07-21T19:32:14.000Z</time></trkpt>
        <trkpt lat="28.71584" lon="105.062873"><ele>406.5761</ele><time>2026-07-21T19:32:16.000Z</time></trkpt>
        <trkpt lat="28.715818" lon="105.062857"><ele>407.17398</ele><time>2026-07-21T19:32:18.000Z</time></trkpt>
        <trkpt lat="28.715796" lon="105.062841"><ele>407.36487</ele><time>2026-07-21T19:32:20.000Z</time></trkpt>
        <trkpt lat="28.715773" lon="105.062825"><ele>407.38232</ele><time>2026-07-21T19:32:22.000Z</time></trkpt>
        <trkpt lat="28.715748" lon="105.06281"><ele>407.21973</ele><time>2026-07-21T19:32:24.000Z</time></trkpt>
        <trkpt lat="28.715722" lon="105.062797"><ele>406.99615</ele><time>2026-07-21T19:32:26.000Z</time></trkpt>
        <trkpt lat="28.715693" lon="105.062785"><ele>407.17953</ele><time>2026-07-21T19:32:28.000Z</time></trkpt>
        <trkpt lat="28.715667" lon="105.062775"><ele>406.50793</ele><time>2026-07-21T19:32:30.000Z</time></trkpt>
        <trkpt lat="28.715643" lon="105.062763"><ele>406.8836</ele><time>2026-07-21T19:32:32.000Z</time></trkpt>
        <trkpt lat="28.715622" lon="105.062753"><ele>407.34796</ele><time>2026-07-21T19:32:34.000Z</time></trkpt>
        <trkpt lat="28.715601" lon="105.062743"><ele>408.2574</ele><time>2026-07-21T19:32:36.000Z</time></trkpt>
        <trkpt lat="28.715582" lon="105.062735"><ele>407.98715</ele><time>2026-07-21T19:32:38.000Z</time></trkpt>
        <trkpt lat="28.715563" lon="105.062724"><ele>407.91708</ele><time>2026-07-21T19:32:40.000Z</time></trkpt>
        <trkpt lat="28.715551" lon="105.062709"><ele>408.4724</ele><time>2026-07-21T19:32:42.000Z</time></trkpt>
        <trkpt lat="28.715537" lon="105.062683"><ele>408.49216</ele><time>2026-07-21T19:32:44.000Z</time></trkpt>
        <trkpt lat="28.715523" lon="105.062651"><ele>408.07336</ele><time>2026-07-21T19:32:46.000Z</time></trkpt>
        <trkpt lat="28.715512" lon="105.062618"><ele>407.40964</ele><time>2026-07-21T19:32:48.000Z</time></trkpt>
        <trkpt lat="28.715504" lon="105.062583"><ele>406.80597</ele><time>2026-07-21T19:32:50.000Z</time></trkpt>
        <trkpt lat="28.715496" lon="105.062549"><ele>407.49274</ele><time>2026-07-21T19:32:52.000Z</time></trkpt>
        <trkpt lat="28.715495" lon="105.06252"><ele>408.56323</ele><time>2026-07-21T19:32:54.000Z</time></trkpt>
        <trkpt lat="28.715503" lon="105.062504"><ele>410.39435</ele><time>2026-07-21T19:32:56.000Z</time></trkpt>
        <trkpt lat="28.715503" lon="105.062504"><ele>412.77136</ele><time>2026-07-21T19:32:58.000Z</time></trkpt>
        <trkpt lat="28.71552" lon="105.062517"><ele>411.0727</ele><time>2026-07-21T19:33:00.000Z</time></trkpt>
        <trkpt lat="28.715529" lon="105.062532"><ele>411.9601</ele><time>2026-07-21T19:33:02.000Z</time></trkpt>
        <trkpt lat="28.715532" lon="105.062532"><ele>409.974</ele><time>2026-07-21T19:33:04.000Z</time></trkpt>
        <trkpt lat="28.71549" lon="105.062526"><ele>409.61716</ele><time>2026-07-21T19:33:10.000Z</time></trkpt>
        <trkpt lat="28.715467" lon="105.062517"><ele>408.63605</ele><time>2026-07-21T19:33:12.000Z</time></trkpt>
        <trkpt lat="28.715438" lon="105.062506"><ele>408.7873</ele><time>2026-07-21T19:33:14.000Z</time></trkpt>
        <trkpt lat="28.715405" lon="105.062492"><ele>410.30328</ele><time>2026-07-21T19:33:16.000Z</time></trkpt>
        <trkpt lat="28.715379" lon="105.062476"><ele>407.6239</ele><time>2026-07-21T19:33:18.000Z</time></trkpt>
        <trkpt lat="28.715356" lon="105.062463"><ele>407.72296</ele><time>2026-07-21T19:33:20.000Z</time></trkpt>
        <trkpt lat="28.715337" lon="105.062454"><ele>408.33548</ele><time>2026-07-21T19:33:22.000Z</time></trkpt>
        <trkpt lat="28.715322" lon="105.06245"><ele>408.65277</ele><time>2026-07-21T19:33:24.000Z</time></trkpt>
        <trkpt lat="28.715308" lon="105.062447"><ele>408.8723</ele><time>2026-07-21T19:33:26.000Z</time></trkpt>
        <trkpt lat="28.715295" lon="105.062447"><ele>409.63654</ele><time>2026-07-21T19:33:28.000Z</time></trkpt>
        <trkpt lat="28.715278" lon="105.062447"><ele>409.58017</ele><time>2026-07-21T19:33:30.000Z</time></trkpt>
        <trkpt lat="28.715262" lon="105.062449"><ele>409.75375</ele><time>2026-07-21T19:33:32.000Z</time></trkpt>
        <trkpt lat="28.71524" lon="105.062454"><ele>409.66946</ele><time>2026-07-21T19:33:34.000Z</time></trkpt>
        <trkpt lat="28.715218" lon="105.062459"><ele>409.38992</ele><time>2026-07-21T19:33:36.000Z</time></trkpt>
        <trkpt lat="28.715194" lon="105.062464"><ele>408.86682</ele><time>2026-07-21T19:33:38.000Z</time></trkpt>
        <trkpt lat="28.715168" lon="105.062467"><ele>409.20563</ele><time>2026-07-21T19:33:40.000Z</time></trkpt>
        <trkpt lat="28.71514" lon="105.062466"><ele>408.70285</ele><time>2026-07-21T19:33:42.000Z</time></trkpt>
        <trkpt lat="28.71511" lon="105.062463"><ele>408.70786</ele><time>2026-07-21T19:33:44.000Z</time></trkpt>
        <trkpt lat="28.715082" lon="105.062456"><ele>409.86612</ele><time>2026-07-21T19:33:46.000Z</time></trkpt>
        <trkpt lat="28.715055" lon="105.06245"><ele>410.16458</ele><time>2026-07-21T19:33:48.000Z</time></trkpt>
        <trkpt lat="28.715031" lon="105.062446"><ele>409.61725</ele><time>2026-07-21T19:33:50.000Z</time></trkpt>
        <trkpt lat="28.715008" lon="105.062442"><ele>409.5135</ele><time>2026-07-21T19:33:52.000Z</time></trkpt>
        <trkpt lat="28.714986" lon="105.062435"><ele>409.3352</ele><time>2026-07-21T19:33:54.000Z</time></trkpt>
        <trkpt lat="28.714966" lon="105.062426"><ele>409.076</ele><time>2026-07-21T19:33:56.000Z</time></trkpt>
        <trkpt lat="28.714945" lon="105.062414"><ele>408.42245</ele><time>2026-07-21T19:33:58.000Z</time></trkpt>
        <trkpt lat="28.714923" lon="105.0624"><ele>406.8598</ele><time>2026-07-21T19:34:00.000Z</time></trkpt>
        <trkpt lat="28.7149" lon="105.062388"><ele>406.0075</ele><time>2026-07-21T19:34:02.000Z</time></trkpt>
        <trkpt lat="28.714876" lon="105.062379"><ele>406.09995</ele><time>2026-07-21T19:34:04.000Z</time></trkpt>
        <trkpt lat="28.714851" lon="105.062372"><ele>406.0477</ele><time>2026-07-21T19:34:06.000Z</time></trkpt>
        <trkpt lat="28.714826" lon="105.062369"><ele>405.3854</ele><time>2026-07-21T19:34:08.000Z</time></trkpt>
        <trkpt lat="28.714804" lon="105.062368"><ele>405.73862</ele><time>2026-07-21T19:34:10.000Z</time></trkpt>
        <trkpt lat="28.714785" lon="105.062367"><ele>407.11243</ele><time>2026-07-21T19:34:12.000Z</time></trkpt>
        <trkpt lat="28.714765" lon="105.062369"><ele>406.36246</ele><time>2026-07-21T19:34:14.000Z</time></trkpt>
        <trkpt lat="28.714745" lon="105.062375"><ele>406.62384</ele><time>2026-07-21T19:34:16.000Z</time></trkpt>
        <trkpt lat="28.714725" lon="105.062381"><ele>406.76413</ele><time>2026-07-21T19:34:18.000Z</time></trkpt>
        <trkpt lat="28.714704" lon="105.062388"><ele>407.16016</ele><time>2026-07-21T19:34:20.000Z</time></trkpt>
        <trkpt lat="28.714687" lon="105.062395"><ele>407.4281</ele><time>2026-07-21T19:34:22.000Z</time></trkpt>
        <trkpt lat="28.71467" lon="105.062404"><ele>407.5395</ele><time>2026-07-21T19:34:24.000Z</time></trkpt>
        <trkpt lat="28.714653" lon="105.062413"><ele>407.8619</ele><time>2026-07-21T19:34:26.000Z</time></trkpt>
        <trkpt lat="28.714635" lon="105.062421"><ele>407.33655</ele><time>2026-07-21T19:34:28.000Z</time></trkpt>
        <trkpt lat="28.714613" lon="105.06243"><ele>407.24933</ele><time>2026-07-21T19:34:30.000Z</time></trkpt>
        <trkpt lat="28.714592" lon="105.062438"><ele>407.3873</ele><time>2026-07-21T19:34:32.000Z</time></trkpt>
        <trkpt lat="28.714572" lon="105.062445"><ele>407.5537</ele><time>2026-07-21T19:34:34.000Z</time></trkpt>
        <trkpt lat="28.71455" lon="105.062449"><ele>408.14954</ele><time>2026-07-21T19:34:36.000Z</time></trkpt>
        <trkpt lat="28.714527" lon="105.062454"><ele>408.3001</ele><time>2026-07-21T19:34:38.000Z</time></trkpt>
        <trkpt lat="28.714504" lon="105.062459"><ele>408.06036</ele><time>2026-07-21T19:34:40.000Z</time></trkpt>
        <trkpt lat="28.71448" lon="105.062463"><ele>408.09348</ele><time>2026-07-21T19:34:42.000Z</time></trkpt>
        <trkpt lat="28.714458" lon="105.062469"><ele>408.56165</ele><time>2026-07-21T19:34:44.000Z</time></trkpt>
        <trkpt lat="28.714436" lon="105.062473"><ele>407.85135</ele><time>2026-07-21T19:34:46.000Z</time></trkpt>
        <trkpt lat="28.714414" lon="105.062476"><ele>408.1437</ele><time>2026-07-21T19:34:48.000Z</time></trkpt>
        <trkpt lat="28.714393" lon="105.062476"><ele>408.2125</ele><time>2026-07-21T19:34:50.000Z</time></trkpt>
        <trkpt lat="28.714373" lon="105.062474"><ele>408.24103</ele><time>2026-07-21T19:34:52.000Z</time></trkpt>
        <trkpt lat="28.714355" lon="105.062471"><ele>407.5231</ele><time>2026-07-21T19:34:54.000Z</time></trkpt>
        <trkpt lat="28.714336" lon="105.062466"><ele>407.57773</ele><time>2026-07-21T19:34:56.000Z</time></trkpt>
        <trkpt lat="28.714317" lon="105.062461"><ele>406.93927</ele><time>2026-07-21T19:34:58.000Z</time></trkpt>
        <trkpt lat="28.714299" lon="105.062456"><ele>406.5799</ele><time>2026-07-21T19:35:00.000Z</time></trkpt>
        <trkpt lat="28.714281" lon="105.06245"><ele>406.21933</ele><time>2026-07-21T19:35:02.000Z</time></trkpt>
        <trkpt lat="28.714264" lon="105.062443"><ele>406.10797</ele><time>2026-07-21T19:35:04.000Z</time></trkpt>
        <trkpt lat="28.714248" lon="105.062437"><ele>406.1063</ele><time>2026-07-21T19:35:06.000Z</time></trkpt>
        <trkpt lat="28.71423" lon="105.062432"><ele>405.76788</ele><time>2026-07-21T19:35:08.000Z</time></trkpt>
        <trkpt lat="28.714215" lon="105.062426"><ele>405.72934</ele><time>2026-07-21T19:35:10.000Z</time></trkpt>
        <trkpt lat="28.714201" lon="105.062418"><ele>404.85913</ele><time>2026-07-21T19:35:12.000Z</time></trkpt>
        <trkpt lat="28.714186" lon="105.062408"><ele>405.3431</ele><time>2026-07-21T19:35:14.000Z</time></trkpt>
        <trkpt lat="28.71417" lon="105.062397"><ele>404.3431</ele><time>2026-07-21T19:35:16.000Z</time></trkpt>
        <trkpt lat="28.714154" lon="105.062388"><ele>403.62073</ele><time>2026-07-21T19:35:18.000Z</time></trkpt>
        <trkpt lat="28.714138" lon="105.062379"><ele>402.53983</ele><time>2026-07-21T19:35:20.000Z</time></trkpt>
        <trkpt lat="28.714121" lon="105.062368"><ele>402.00302</ele><time>2026-07-21T19:35:22.000Z</time></trkpt>
        <trkpt lat="28.714107" lon="105.062355"><ele>401.94128</ele><time>2026-07-21T19:35:24.000Z</time></trkpt>
        <trkpt lat="28.7141" lon="105.062343"><ele>402.11438</ele><time>2026-07-21T19:35:26.000Z</time></trkpt>
        <trkpt lat="28.714101" lon="105.062336"><ele>402.1744</ele><time>2026-07-21T19:35:28.000Z</time></trkpt>
        <trkpt lat="28.714104" lon="105.062336"><ele>402.03543</ele><time>2026-07-21T19:35:32.000Z</time></trkpt>
        <trkpt lat="28.71406" lon="105.062339"><ele>401.2873</ele><time>2026-07-21T19:35:47.000Z</time></trkpt>
        <trkpt lat="28.714044" lon="105.062336"><ele>402.0929</ele><time>2026-07-21T19:35:49.000Z</time></trkpt>
        <trkpt lat="28.714026" lon="105.062333"><ele>402.20303</ele><time>2026-07-21T19:35:51.000Z</time></trkpt>
        <trkpt lat="28.714024" lon="105.062332"><ele>402.2263</ele><time>2026-07-21T19:35:53.000Z</time></trkpt>
        <trkpt lat="28.713996" lon="105.062321"><ele>401.9582</ele><time>2026-07-21T19:35:57.000Z</time></trkpt>
        <trkpt lat="28.713966" lon="105.06231"><ele>402.2605</ele><time>2026-07-21T19:35:59.000Z</time></trkpt>
        <trkpt lat="28.713935" lon="105.0623"><ele>402.98914</ele><time>2026-07-21T19:36:01.000Z</time></trkpt>
        <trkpt lat="28.713907" lon="105.062292"><ele>403.17136</ele><time>2026-07-21T19:36:03.000Z</time></trkpt>
        <trkpt lat="28.713881" lon="105.062285"><ele>403.77203</ele><time>2026-07-21T19:36:05.000Z</time></trkpt>
        <trkpt lat="28.713858" lon="105.062281"><ele>403.45203</ele><time>2026-07-21T19:36:07.000Z</time></trkpt>
        <trkpt lat="28.713835" lon="105.062277"><ele>404.3071</ele><time>2026-07-21T19:36:09.000Z</time></trkpt>
        <trkpt lat="28.713813" lon="105.062276"><ele>404.4511</ele><time>2026-07-21T19:36:11.000Z</time></trkpt>
        <trkpt lat="28.713791" lon="105.062277"><ele>404.7762</ele><time>2026-07-21T19:36:13.000Z</time></trkpt>
        <trkpt lat="28.713766" lon="105.06228"><ele>404.80826</ele><time>2026-07-21T19:36:15.000Z</time></trkpt>
        <trkpt lat="28.713741" lon="105.062285"><ele>405.0503</ele><time>2026-07-21T19:36:17.000Z</time></trkpt>
        <trkpt lat="28.713718" lon="105.062292"><ele>405.75616</ele><time>2026-07-21T19:36:19.000Z</time></trkpt>
        <trkpt lat="28.7137" lon="105.062293"><ele>405.1269</ele><time>2026-07-21T19:36:21.000Z</time></trkpt>
        <trkpt lat="28.713685" lon="105.062291"><ele>405.49753</ele><time>2026-07-21T19:36:23.000Z</time></trkpt>
        <trkpt lat="28.713668" lon="105.062287"><ele>405.56848</ele><time>2026-07-21T19:36:25.000Z</time></trkpt>
        <trkpt lat="28.713649" lon="105.062283"><ele>405.0353</ele><time>2026-07-21T19:36:27.000Z</time></trkpt>
        <trkpt lat="28.713626" lon="105.062279"><ele>406.47537</ele><time>2026-07-21T19:36:29.000Z</time></trkpt>
        <trkpt lat="28.713603" lon="105.062276"><ele>406.6867</ele><time>2026-07-21T19:36:31.000Z</time></trkpt>
        <trkpt lat="28.713581" lon="105.062273"><ele>407.6292</ele><time>2026-07-21T19:36:33.000Z</time></trkpt>
        <trkpt lat="28.713559" lon="105.062268"><ele>407.7557</ele><time>2026-07-21T19:36:35.000Z</time></trkpt>
        <trkpt lat="28.713543" lon="105.062262"><ele>407.79944</ele><time>2026-07-21T19:36:37.000Z</time></trkpt>
        <trkpt lat="28.713535" lon="105.062256"><ele>407.8158</ele><time>2026-07-21T19:36:39.000Z</time></trkpt>
        <trkpt lat="28.713535" lon="105.062257"><ele>407.62146</ele><time>2026-07-21T19:36:41.000Z</time></trkpt>
        <trkpt lat="28.713549" lon="105.062222"><ele>405.92307</ele><time>2026-07-21T19:37:36.000Z</time></trkpt>
        <trkpt lat="28.713547" lon="105.062219"><ele>405.4954</ele><time>2026-07-21T19:37:51.000Z</time></trkpt>
        <trkpt lat="28.713555" lon="105.062225"><ele>405.61896</ele><time>2026-07-21T19:38:06.000Z</time></trkpt>
        <trkpt lat="28.713582" lon="105.062244"><ele>405.10385</ele><time>2026-07-21T19:38:35.000Z</time></trkpt>
        <trkpt lat="28.713588" lon="105.062246"><ele>405.15234</ele><time>2026-07-21T19:38:37.000Z</time></trkpt>
        <trkpt lat="28.713591" lon="105.062247"><ele>405.43976</ele><time>2026-07-21T19:38:39.000Z</time></trkpt>
        <trkpt lat="28.713621" lon="105.062253"><ele>404.50476</ele><time>2026-07-21T19:38:45.000Z</time></trkpt>
        <trkpt lat="28.713621" lon="105.062253"><ele>404.74927</ele><time>2026-07-21T19:38:47.000Z</time></trkpt>
        <trkpt lat="28.713626" lon="105.062251"><ele>405.04803</ele><time>2026-07-21T19:38:49.000Z</time></trkpt>
        <trkpt lat="28.713673" lon="105.062229"><ele>404.1266</ele><time>2026-07-21T19:38:53.000Z</time></trkpt>
        <trkpt lat="28.713699" lon="105.062215"><ele>404.0193</ele><time>2026-07-21T19:38:55.000Z</time></trkpt>
        <trkpt lat="28.713723" lon="105.062202"><ele>403.858</ele><time>2026-07-21T19:38:57.000Z</time></trkpt>
        <trkpt lat="28.713746" lon="105.062193"><ele>403.9655</ele><time>2026-07-21T19:38:59.000Z</time></trkpt>
        <trkpt lat="28.713767" lon="105.062191"><ele>404.586</ele><time>2026-07-21T19:39:01.000Z</time></trkpt>
        <trkpt lat="28.713785" lon="105.062193"><ele>404.00418</ele><time>2026-07-21T19:39:03.000Z</time></trkpt>
        <trkpt lat="28.713802" lon="105.062197"><ele>403.5904</ele><time>2026-07-21T19:39:05.000Z</time></trkpt>
        <trkpt lat="28.713821" lon="105.062203"><ele>403.01657</ele><time>2026-07-21T19:39:07.000Z</time></trkpt>
        <trkpt lat="28.713842" lon="105.06221"><ele>403.3455</ele><time>2026-07-21T19:39:09.000Z</time></trkpt>
        <trkpt lat="28.713864" lon="105.062216"><ele>402.28455</ele><time>2026-07-21T19:39:11.000Z</time></trkpt>
        <trkpt lat="28.713883" lon="105.06222"><ele>401.5125</ele><time>2026-07-21T19:39:13.000Z</time></trkpt>
        <trkpt lat="28.713905" lon="105.062225"><ele>402.22867</ele><time>2026-07-21T19:39:15.000Z</time></trkpt>
        <trkpt lat="28.713925" lon="105.062227"><ele>401.60297</ele><time>2026-07-21T19:39:17.000Z</time></trkpt>
        <trkpt lat="28.713943" lon="105.06223"><ele>401.70853</ele><time>2026-07-21T19:39:19.000Z</time></trkpt>
        <trkpt lat="28.713961" lon="105.062233"><ele>400.85132</ele><time>2026-07-21T19:39:21.000Z</time></trkpt>
        <trkpt lat="28.713983" lon="105.062236"><ele>400.91025</ele><time>2026-07-21T19:39:23.000Z</time></trkpt>
        <trkpt lat="28.714005" lon="105.06224"><ele>401.08823</ele><time>2026-07-21T19:39:25.000Z</time></trkpt>
        <trkpt lat="28.714026" lon="105.062243"><ele>400.3484</ele><time>2026-07-21T19:39:27.000Z</time></trkpt>
        <trkpt lat="28.714047" lon="105.062247"><ele>400.2881</ele><time>2026-07-21T19:39:29.000Z</time></trkpt>
        <trkpt lat="28.714069" lon="105.062252"><ele>400.14227</ele><time>2026-07-21T19:39:31.000Z</time></trkpt>
        <trkpt lat="28.714088" lon="105.062257"><ele>399.50296</ele><time>2026-07-21T19:39:33.000Z</time></trkpt>
        <trkpt lat="28.714107" lon="105.062262"><ele>399.45987</ele><time>2026-07-21T19:39:35.000Z</time></trkpt>
        <trkpt lat="28.714128" lon="105.062268"><ele>398.76785</ele><time>2026-07-21T19:39:37.000Z</time></trkpt>
        <trkpt lat="28.714151" lon="105.062275"><ele>398.8374</ele><time>2026-07-21T19:39:39.000Z</time></trkpt>
        <trkpt lat="28.714173" lon="105.06228"><ele>398.69852</ele><time>2026-07-21T19:39:41.000Z</time></trkpt>
        <trkpt lat="28.714195" lon="105.062286"><ele>398.98462</ele><time>2026-07-21T19:39:43.000Z</time></trkpt>
        <trkpt lat="28.714218" lon="105.062292"><ele>398.66776</ele><time>2026-07-21T19:39:45.000Z</time></trkpt>
        <trkpt lat="28.714243" lon="105.062298"><ele>399.55826</ele><time>2026-07-21T19:39:47.000Z</time></trkpt>
        <trkpt lat="28.714268" lon="105.062302"><ele>399.30563</ele><time>2026-07-21T19:39:49.000Z</time></trkpt>
        <trkpt lat="28.714291" lon="105.062302"><ele>399.65808</ele><time>2026-07-21T19:39:51.000Z</time></trkpt>
        <trkpt lat="28.714316" lon="105.0623"><ele>400.24176</ele><time>2026-07-21T19:39:53.000Z</time></trkpt>
        <trkpt lat="28.714338" lon="105.062299"><ele>400.63235</ele><time>2026-07-21T19:39:55.000Z</time></trkpt>
        <trkpt lat="28.714356" lon="105.062298"><ele>398.7403</ele><time>2026-07-21T19:39:57.000Z</time></trkpt>
        <trkpt lat="28.714378" lon="105.062296"><ele>400.1218</ele><time>2026-07-21T19:39:59.000Z</time></trkpt>
        <trkpt lat="28.714398" lon="105.062294"><ele>399.872</ele><time>2026-07-21T19:40:01.000Z</time></trkpt>
        <trkpt lat="28.71442" lon="105.062291"><ele>399.5746</ele><time>2026-07-21T19:40:03.000Z</time></trkpt>
        <trkpt lat="28.714443" lon="105.062286"><ele>399.55762</ele><time>2026-07-21T19:40:05.000Z</time></trkpt>
        <trkpt lat="28.714464" lon="105.062278"><ele>399.8334</ele><time>2026-07-21T19:40:07.000Z</time></trkpt>
        <trkpt lat="28.714485" lon="105.062268"><ele>399.94363</ele><time>2026-07-21T19:40:09.000Z</time></trkpt>
        <trkpt lat="28.714504" lon="105.062256"><ele>399.51978</ele><time>2026-07-21T19:40:11.000Z</time></trkpt>
        <trkpt lat="28.714524" lon="105.062242"><ele>399.39508</ele><time>2026-07-21T19:40:13.000Z</time></trkpt>
        <trkpt lat="28.714541" lon="105.062227"><ele>398.97906</ele><time>2026-07-21T19:40:15.000Z</time></trkpt>
        <trkpt lat="28.714559" lon="105.062212"><ele>398.777</ele><time>2026-07-21T19:40:17.000Z</time></trkpt>
        <trkpt lat="28.714577" lon="105.062201"><ele>398.67514</ele><time>2026-07-21T19:40:19.000Z</time></trkpt>
        <trkpt lat="28.714594" lon="105.062193"><ele>398.40778</ele><time>2026-07-21T19:40:21.000Z</time></trkpt>
        <trkpt lat="28.714611" lon="105.062185"><ele>397.1594</ele><time>2026-07-21T19:40:23.000Z</time></trkpt>
        <trkpt lat="28.714629" lon="105.062175"><ele>397.23755</ele><time>2026-07-21T19:40:25.000Z</time></trkpt>
        <trkpt lat="28.714648" lon="105.062161"><ele>396.70624</ele><time>2026-07-21T19:40:27.000Z</time></trkpt>
        <trkpt lat="28.714667" lon="105.062146"><ele>396.64935</ele><time>2026-07-21T19:40:29.000Z</time></trkpt>
        <trkpt lat="28.714685" lon="105.06213"><ele>396.511</ele><time>2026-07-21T19:40:31.000Z</time></trkpt>
        <trkpt lat="28.714701" lon="105.062116"><ele>396.17984</ele><time>2026-07-21T19:40:33.000Z</time></trkpt>
        <trkpt lat="28.714717" lon="105.062102"><ele>395.96292</ele><time>2026-07-21T19:40:35.000Z</time></trkpt>
        <trkpt lat="28.714734" lon="105.062089"><ele>395.34927</ele><time>2026-07-21T19:40:37.000Z</time></trkpt>
        <trkpt lat="28.714755" lon="105.062079"><ele>394.9338</ele><time>2026-07-21T19:40:39.000Z</time></trkpt>
        <trkpt lat="28.714767" lon="105.062075"><ele>394.07056</ele><time>2026-07-21T19:40:41.000Z</time></trkpt>
        <trkpt lat="28.71478" lon="105.062073"><ele>393.86377</ele><time>2026-07-21T19:40:43.000Z</time></trkpt>
      </trkseg>
      <trkseg>
        <trkpt lat="28.714839" lon="105.062082"><ele>391.05734</ele><time>2026-07-21T19:42:25.000Z</time></trkpt>
        <trkpt lat="28.714866" lon="105.062068"><ele>390.84335</ele><time>2026-07-21T19:42:33.000Z</time></trkpt>
        <trkpt lat="28.714889" lon="105.062061"><ele>390.48505</ele><time>2026-07-21T19:42:35.000Z</time></trkpt>
        <trkpt lat="28.714916" lon="105.062055"><ele>389.97318</ele><time>2026-07-21T19:42:37.000Z</time></trkpt>
        <trkpt lat="28.714945" lon="105.062049"><ele>389.99155</ele><time>2026-07-21T19:42:39.000Z</time></trkpt>
        <trkpt lat="28.714975" lon="105.062043"><ele>389.97714</ele><time>2026-07-21T19:42:41.000Z</time></trkpt>
        <trkpt lat="28.715005" lon="105.062038"><ele>389.12363</ele><time>2026-07-21T19:42:43.000Z</time></trkpt>
        <trkpt lat="28.715034" lon="105.062034"><ele>388.87097</ele><time>2026-07-21T19:42:45.000Z</time></trkpt>
        <trkpt lat="28.715062" lon="105.062033"><ele>388.598</ele><time>2026-07-21T19:42:47.000Z</time></trkpt>
        <trkpt lat="28.715085" lon="105.062034"><ele>388.78375</ele><time>2026-07-21T19:42:49.000Z</time></trkpt>
        <trkpt lat="28.715107" lon="105.062038"><ele>388.0572</ele><time>2026-07-21T19:42:51.000Z</time></trkpt>
        <trkpt lat="28.71513" lon="105.062044"><ele>387.6172</ele><time>2026-07-21T19:42:53.000Z</time></trkpt>
        <trkpt lat="28.715154" lon="105.06205"><ele>387.27948</ele><time>2026-07-21T19:42:55.000Z</time></trkpt>
        <trkpt lat="28.715178" lon="105.062057"><ele>387.33405</ele><time>2026-07-21T19:42:57.000Z</time></trkpt>
        <trkpt lat="28.715203" lon="105.062065"><ele>387.3637</ele><time>2026-07-21T19:42:59.000Z</time></trkpt>
        <trkpt lat="28.715227" lon="105.062071"><ele>386.89716</ele><time>2026-07-21T19:43:01.000Z</time></trkpt>
        <trkpt lat="28.715247" lon="105.06208"><ele>386.98544</ele><time>2026-07-21T19:43:03.000Z</time></trkpt>
        <trkpt lat="28.715269" lon="105.062093"><ele>386.19577</ele><time>2026-07-21T19:43:05.000Z</time></trkpt>
        <trkpt lat="28.715291" lon="105.062108"><ele>386.17737</ele><time>2026-07-21T19:43:07.000Z</time></trkpt>
        <trkpt lat="28.71531" lon="105.062122"><ele>385.55774</ele><time>2026-07-21T19:43:09.000Z</time></trkpt>
        <trkpt lat="28.715332" lon="105.062136"><ele>384.49722</ele><time>2026-07-21T19:43:11.000Z</time></trkpt>
        <trkpt lat="28.715354" lon="105.062143"><ele>386.30502</ele><time>2026-07-21T19:43:13.000Z</time></trkpt>
        <trkpt lat="28.715374" lon="105.062151"><ele>386.72635</ele><time>2026-07-21T19:43:15.000Z</time></trkpt>
        <trkpt lat="28.715397" lon="105.062163"><ele>385.6852</ele><time>2026-07-21T19:43:17.000Z</time></trkpt>
        <trkpt lat="28.715424" lon="105.062176"><ele>384.7239</ele><time>2026-07-21T19:43:19.000Z</time></trkpt>
        <trkpt lat="28.715451" lon="105.06219"><ele>384.71887</ele><time>2026-07-21T19:43:21.000Z</time></trkpt>
        <trkpt lat="28.715475" lon="105.062207"><ele>384.06876</ele><time>2026-07-21T19:43:23.000Z</time></trkpt>
        <trkpt lat="28.715496" lon="105.062225"><ele>384.8775</ele><time>2026-07-21T19:43:25.000Z</time></trkpt>
        <trkpt lat="28.715515" lon="105.062242"><ele>384.7112</ele><time>2026-07-21T19:43:27.000Z</time></trkpt>
        <trkpt lat="28.715534" lon="105.062258"><ele>384.7171</ele><time>2026-07-21T19:43:29.000Z</time></trkpt>
        <trkpt lat="28.715552" lon="105.062275"><ele>384.7722</ele><time>2026-07-21T19:43:31.000Z</time></trkpt>
        <trkpt lat="28.715567" lon="105.062293"><ele>384.9719</ele><time>2026-07-21T19:43:33.000Z</time></trkpt>
        <trkpt lat="28.715584" lon="105.062314"><ele>383.70712</ele><time>2026-07-21T19:43:35.000Z</time></trkpt>
        <trkpt lat="28.7156" lon="105.062332"><ele>385.31052</ele><time>2026-07-21T19:43:37.000Z</time></trkpt>
        <trkpt lat="28.715613" lon="105.062347"><ele>385.56946</ele><time>2026-07-21T19:43:39.000Z</time></trkpt>
        <trkpt lat="28.715622" lon="105.062358"><ele>385.75546</ele><time>2026-07-21T19:43:41.000Z</time></trkpt>
        <trkpt lat="28.715624" lon="105.062358"><ele>385.82855</ele><time>2026-07-21T19:43:43.000Z</time></trkpt>
        <trkpt lat="28.715573" lon="105.062366"><ele>386.43527</ele><time>2026-07-21T19:43:49.000Z</time></trkpt>
        <trkpt lat="28.71555" lon="105.062374"><ele>385.43622</ele><time>2026-07-21T19:43:51.000Z</time></trkpt>
        <trkpt lat="28.715534" lon="105.062379"><ele>385.40817</ele><time>2026-07-21T19:43:53.000Z</time></trkpt>
        <trkpt lat="28.715529" lon="105.062382"><ele>385.65674</ele><time>2026-07-21T19:43:55.000Z</time></trkpt>
        <trkpt lat="28.715585" lon="105.062355"><ele>387.36</ele><time>2026-07-21T19:44:03.000Z</time></trkpt>
        <trkpt lat="28.715585" lon="105.062355"><ele>387.61374</ele><time>2026-07-21T19:44:05.000Z</time></trkpt>
        <trkpt lat="28.715586" lon="105.062354"><ele>388.70374</ele><time>2026-07-21T19:44:07.000Z</time></trkpt>
        <trkpt lat="28.71556" lon="105.062364"><ele>386.92108</ele><time>2026-07-21T19:44:15.000Z</time></trkpt>
        <trkpt lat="28.715557" lon="105.062392"><ele>384.7113</ele><time>2026-07-21T19:44:17.000Z</time></trkpt>
        <trkpt lat="28.715558" lon="105.062394"><ele>382.8755</ele><time>2026-07-21T19:44:19.000Z</time></trkpt>
        <trkpt lat="28.71556" lon="105.062397"><ele>381.84137</ele><time>2026-07-21T19:44:23.000Z</time></trkpt>
        <trkpt lat="28.71552" lon="105.062343"><ele>386.91223</ele><time>2026-07-21T19:44:41.000Z</time></trkpt>
        <trkpt lat="28.71552" lon="105.062343"><ele>387.5836</ele><time>2026-07-21T19:44:43.000Z</time></trkpt>
        <trkpt lat="28.715518" lon="105.062338"><ele>388.1056</ele><time>2026-07-21T19:44:45.000Z</time></trkpt>
        <trkpt lat="28.715499" lon="105.062275"><ele>387.71512</ele><time>2026-07-21T19:44:49.000Z</time></trkpt>
        <trkpt lat="28.715483" lon="105.062248"><ele>386.5383</ele><time>2026-07-21T19:44:51.000Z</time></trkpt>
        <trkpt lat="28.715466" lon="105.062231"><ele>387.24652</ele><time>2026-07-21T19:44:53.000Z</time></trkpt>
        <trkpt lat="28.715448" lon="105.062222"><ele>386.44916</ele><time>2026-07-21T19:44:55.000Z</time></trkpt>
        <trkpt lat="28.715431" lon="105.062218"><ele>386.8039</ele><time>2026-07-21T19:44:57.000Z</time></trkpt>
        <trkpt lat="28.715424" lon="105.06222"><ele>386.71887</ele><time>2026-07-21T19:44:59.000Z</time></trkpt>
        <trkpt lat="28.715421" lon="105.062219"><ele>386.70493</ele><time>2026-07-21T19:45:01.000Z</time></trkpt>
        <trkpt lat="28.71539" lon="105.062214"><ele>387.10226</ele><time>2026-07-21T19:45:09.000Z</time></trkpt>
        <trkpt lat="28.715389" lon="105.062214"><ele>386.44885</ele><time>2026-07-21T19:45:11.000Z</time></trkpt>
        <trkpt lat="28.715384" lon="105.062215"><ele>386.72702</ele><time>2026-07-21T19:45:13.000Z</time></trkpt>
        <trkpt lat="28.715333" lon="105.062217"><ele>386.5834</ele><time>2026-07-21T19:45:17.000Z</time></trkpt>
        <trkpt lat="28.715301" lon="105.062215"><ele>387.33936</ele><time>2026-07-21T19:45:19.000Z</time></trkpt>
        <trkpt lat="28.715269" lon="105.062209"><ele>387.3625</ele><time>2026-07-21T19:45:21.000Z</time></trkpt>
        <trkpt lat="28.715243" lon="105.062201"><ele>387.72482</ele><time>2026-07-21T19:45:23.000Z</time></trkpt>
        <trkpt lat="28.715221" lon="105.062192"><ele>388.43384</ele><time>2026-07-21T19:45:25.000Z</time></trkpt>
        <trkpt lat="28.715201" lon="105.062181"><ele>388.19608</ele><time>2026-07-21T19:45:27.000Z</time></trkpt>
        <trkpt lat="28.715184" lon="105.062169"><ele>388.87598</ele><time>2026-07-21T19:45:29.000Z</time></trkpt>
        <trkpt lat="28.715166" lon="105.062154"><ele>388.62656</ele><time>2026-07-21T19:45:31.000Z</time></trkpt>
        <trkpt lat="28.71515" lon="105.062141"><ele>388.86926</ele><time>2026-07-21T19:45:33.000Z</time></trkpt>
        <trkpt lat="28.715134" lon="105.06213"><ele>388.45258</ele><time>2026-07-21T19:45:35.000Z</time></trkpt>
        <trkpt lat="28.715117" lon="105.06212"><ele>388.63184</ele><time>2026-07-21T19:45:37.000Z</time></trkpt>
        <trkpt lat="28.715101" lon="105.062112"><ele>389.02884</ele><time>2026-07-21T19:45:39.000Z</time></trkpt>
        <trkpt lat="28.715086" lon="105.062105"><ele>388.84464</ele><time>2026-07-21T19:45:41.000Z</time></trkpt>
        <trkpt lat="28.715071" lon="105.062099"><ele>389.11386</ele><time>2026-07-21T19:45:43.000Z</time></trkpt>
        <trkpt lat="28.715055" lon="105.062093"><ele>389.62115</ele><time>2026-07-21T19:45:45.000Z</time></trkpt>
        <trkpt lat="28.715038" lon="105.062087"><ele>390.50928</ele><time>2026-07-21T19:45:47.000Z</time></trkpt>
        <trkpt lat="28.715019" lon="105.062083"><ele>391.12866</ele><time>2026-07-21T19:45:49.000Z</time></trkpt>
        <trkpt lat="28.714998" lon="105.062081"><ele>391.035</ele><time>2026-07-21T19:45:51.000Z</time></trkpt>
        <trkpt lat="28.714982" lon="105.06208"><ele>391.41284</ele><time>2026-07-21T19:45:53.000Z</time></trkpt>
        <trkpt lat="28.714964" lon="105.06208"><ele>391.2472</ele><time>2026-07-21T19:45:55.000Z</time></trkpt>
        <trkpt lat="28.714942" lon="105.062081"><ele>391.91675</ele><time>2026-07-21T19:45:57.000Z</time></trkpt>
        <trkpt lat="28.714921" lon="105.062085"><ele>393.0308</ele><time>2026-07-21T19:45:59.000Z</time></trkpt>
        <trkpt lat="28.714904" lon="105.06209"><ele>392.60254</ele><time>2026-07-21T19:46:01.000Z</time></trkpt>
        <trkpt lat="28.714887" lon="105.062092"><ele>393.0263</ele><time>2026-07-21T19:46:03.000Z</time></trkpt>
        <trkpt lat="28.71487" lon="105.062089"><ele>392.9326</ele><time>2026-07-21T19:46:05.000Z</time></trkpt>
        <trkpt lat="28.71486" lon="105.062081"><ele>393.11728</ele><time>2026-07-21T19:46:07.000Z</time></trkpt>
        <trkpt lat="28.714855" lon="105.06207"><ele>391.77927</ele><time>2026-07-21T19:46:09.000Z</time></trkpt>
        <trkpt lat="28.71485" lon="105.062052"><ele>390.1909</ele><time>2026-07-21T19:46:11.000Z</time></trkpt>
        <trkpt lat="28.714848" lon="105.062034"><ele>389.598</ele><time>2026-07-21T19:46:13.000Z</time></trkpt>
        <trkpt lat="28.714846" lon="105.062014"><ele>388.82285</ele><time>2026-07-21T19:46:15.000Z</time></trkpt>
        <trkpt lat="28.714842" lon="105.062002"><ele>388.55524</ele><time>2026-07-21T19:46:17.000Z</time></trkpt>
        <trkpt lat="28.714838" lon="105.06199"><ele>387.9262</ele><time>2026-07-21T19:46:19.000Z</time></trkpt>
        <trkpt lat="28.714832" lon="105.061983"><ele>387.43738</ele><time>2026-07-21T19:46:21.000Z</time></trkpt>
        <trkpt lat="28.714825" lon="105.061977"><ele>386.85233</ele><time>2026-07-21T19:46:23.000Z</time></trkpt>
        <trkpt lat="28.714818" lon="105.061968"><ele>386.53482</ele><time>2026-07-21T19:46:25.000Z</time></trkpt>
        <trkpt lat="28.714809" lon="105.061954"><ele>385.77142</ele><time>2026-07-21T19:46:27.000Z</time></trkpt>
        <trkpt lat="28.714805" lon="105.061942"><ele>385.51096</ele><time>2026-07-21T19:46:29.000Z</time></trkpt>
        <trkpt lat="28.714807" lon="105.061935"><ele>385.38892</ele><time>2026-07-21T19:46:31.000Z</time></trkpt>
        <trkpt lat="28.714813" lon="105.061927"><ele>385.4286</ele><time>2026-07-21T19:46:33.000Z</time></trkpt>
        <trkpt lat="28.714824" lon="105.061916"><ele>383.92517</ele><time>2026-07-21T19:46:35.000Z</time></trkpt>
        <trkpt lat="28.714838" lon="105.061906"><ele>383.6736</ele><time>2026-07-21T19:46:37.000Z</time></trkpt>
        <trkpt lat="28.714854" lon="105.061899"><ele>382.98172</ele><time>2026-07-21T19:46:39.000Z</time></trkpt>
        <trkpt lat="28.714869" lon="105.061895"><ele>381.7838</ele><time>2026-07-21T19:46:41.000Z</time></trkpt>
        <trkpt lat="28.714883" lon="105.06189"><ele>381.24323</ele><time>2026-07-21T19:46:43.000Z</time></trkpt>
        <trkpt lat="28.714896" lon="105.061886"><ele>380.9774</ele><time>2026-07-21T19:46:45.000Z</time></trkpt>
        <trkpt lat="28.714911" lon="105.061883"><ele>379.734</ele><time>2026-07-21T19:46:47.000Z</time></trkpt>
        <trkpt lat="28.714925" lon="105.061882"><ele>378.2038</ele><time>2026-07-21T19:46:49.000Z</time></trkpt>
        <trkpt lat="28.714931" lon="105.061876"><ele>378.59793</ele><time>2026-07-21T19:46:51.000Z</time></trkpt>
        <trkpt lat="28.714938" lon="105.061878"><ele>380.2299</ele><time>2026-07-21T19:46:55.000Z</time></trkpt>
        <trkpt lat="28.714897" lon="105.061868"><ele>377.22784</ele><time>2026-07-21T19:47:19.000Z</time></trkpt>
        <trkpt lat="28.714897" lon="105.061868"><ele>377.4985</ele><time>2026-07-21T19:47:21.000Z</time></trkpt>
        <trkpt lat="28.714901" lon="105.061868"><ele>376.9925</ele><time>2026-07-21T19:47:23.000Z</time></trkpt>
        <trkpt lat="28.714942" lon="105.061872"><ele>378.46304</ele><time>2026-07-21T19:47:27.000Z</time></trkpt>
        <trkpt lat="28.714962" lon="105.061874"><ele>376.05948</ele><time>2026-07-21T19:47:29.000Z</time></trkpt>
        <trkpt lat="28.714979" lon="105.061876"><ele>374.89856</ele><time>2026-07-21T19:47:31.000Z</time></trkpt>
        <trkpt lat="28.715002" lon="105.061873"><ele>375.41525</ele><time>2026-07-21T19:47:33.000Z</time></trkpt>
        <trkpt lat="28.715015" lon="105.061865"><ele>376.4879</ele><time>2026-07-21T19:47:35.000Z</time></trkpt>
        <trkpt lat="28.715033" lon="105.061856"><ele>376.7559</ele><time>2026-07-21T19:47:37.000Z</time></trkpt>
        <trkpt lat="28.715042" lon="105.061856"><ele>375.27863</ele><time>2026-07-21T19:47:39.000Z</time></trkpt>
        <trkpt lat="28.715042" lon="105.061853"><ele>374.88654</ele><time>2026-07-21T19:47:41.000Z</time></trkpt>
        <trkpt lat="28.715087" lon="105.061705"><ele>375.55975</ele><time>2026-07-21T19:48:13.000Z</time></trkpt>
        <trkpt lat="28.715087" lon="105.061705"><ele>375.53015</ele><time>2026-07-21T19:48:15.000Z</time></trkpt>
        <trkpt lat="28.715053" lon="105.061801"><ele>375.64023</ele><time>2026-07-21T19:48:17.000Z</time></trkpt>
        <trkpt lat="28.715039" lon="105.06184"><ele>375.16373</ele><time>2026-07-21T19:48:21.000Z</time></trkpt>
        <trkpt lat="28.715039" lon="105.06184"><ele>375.0699</ele><time>2026-07-21T19:48:23.000Z</time></trkpt>
        <trkpt lat="28.71504" lon="105.06184"><ele>375.0699</ele><time>2026-07-21T19:48:25.000Z</time></trkpt>
        <trkpt lat="28.715025" lon="105.061876"><ele>373.02588</ele><time>2026-07-21T19:50:00.000Z</time></trkpt>
        <trkpt lat="28.715003" lon="105.061868"><ele>375.1716</ele><time>2026-07-21T19:50:07.000Z</time></trkpt>
        <trkpt lat="28.714983" lon="105.061861"><ele>374.62067</ele><time>2026-07-21T19:50:09.000Z</time></trkpt>
        <trkpt lat="28.714982" lon="105.061861"><ele>374.50467</ele><time>2026-07-21T19:50:11.000Z</time></trkpt>
        <trkpt lat="28.714971" lon="105.061867"><ele>375.29916</ele><time>2026-07-21T19:50:15.000Z</time></trkpt>
        <trkpt lat="28.714954" lon="105.061875"><ele>375.31992</ele><time>2026-07-21T19:50:17.000Z</time></trkpt>
        <trkpt lat="28.714933" lon="105.061884"><ele>376.6977</ele><time>2026-07-21T19:50:19.000Z</time></trkpt>
        <trkpt lat="28.714916" lon="105.061889"><ele>376.86624</ele><time>2026-07-21T19:50:21.000Z</time></trkpt>
        <trkpt lat="28.714902" lon="105.061893"><ele>377.39658</ele><time>2026-07-21T19:50:23.000Z</time></trkpt>
        <trkpt lat="28.714891" lon="105.061891"><ele>377.105</ele><time>2026-07-21T19:50:25.000Z</time></trkpt>
        <trkpt lat="28.714887" lon="105.061887"><ele>377.85703</ele><time>2026-07-21T19:50:27.000Z</time></trkpt>
        <trkpt lat="28.714875" lon="105.061875"><ele>375.72064</ele><time>2026-07-21T19:50:31.000Z</time></trkpt>
        <trkpt lat="28.714871" lon="105.061869"><ele>376.17297</ele><time>2026-07-21T19:50:33.000Z</time></trkpt>
        <trkpt lat="28.714869" lon="105.061865"><ele>376.489</ele><time>2026-07-21T19:50:35.000Z</time></trkpt>
        <trkpt lat="28.714857" lon="105.061825"><ele>374.1759</ele><time>2026-07-21T19:51:31.000Z</time></trkpt>
        <trkpt lat="28.714845" lon="105.061807"><ele>375.29108</ele><time>2026-07-21T19:51:46.000Z</time></trkpt>
        <trkpt lat="28.714833" lon="105.061787"><ele>374.96237</ele><time>2026-07-21T19:51:58.000Z</time></trkpt>
        <trkpt lat="28.714833" lon="105.061787"><ele>375.0514</ele><time>2026-07-21T19:52:00.000Z</time></trkpt>
        <trkpt lat="28.714829" lon="105.061769"><ele>374.8787</ele><time>2026-07-21T19:52:08.000Z</time></trkpt>
        <trkpt lat="28.714821" lon="105.06173"><ele>375.7202</ele><time>2026-07-21T19:52:56.000Z</time></trkpt>
        <trkpt lat="28.714821" lon="105.06173"><ele>374.95026</ele><time>2026-07-21T19:52:58.000Z</time></trkpt>
        <trkpt lat="28.7148" lon="105.0618"><ele>372.18</ele><time>2026-07-21T19:53:22.000Z</time></trkpt>
        <trkpt lat="28.714799" lon="105.061798"><ele>373.43307</ele><time>2026-07-21T19:53:24.000Z</time></trkpt>
        <trkpt lat="28.714795" lon="105.061796"><ele>374.25992</ele><time>2026-07-21T19:53:26.000Z</time></trkpt>
        <trkpt lat="28.71475" lon="105.061774"><ele>374.45465</ele><time>2026-07-21T19:54:05.000Z</time></trkpt>
        <trkpt lat="28.714723" lon="105.061697"><ele>375.97717</ele><time>2026-07-21T19:54:07.000Z</time></trkpt>
        <trkpt lat="28.714721" lon="105.061692"><ele>374.72</ele><time>2026-07-21T19:54:09.000Z</time></trkpt>
        <trkpt lat="28.714721" lon="105.061693"><ele>374.02664</ele><time>2026-07-21T19:54:11.000Z</time></trkpt>
        <trkpt lat="28.714718" lon="105.061737"><ele>373.3071</ele><time>2026-07-21T19:54:21.000Z</time></trkpt>
        <trkpt lat="28.714719" lon="105.061739"><ele>374.09674</ele><time>2026-07-21T19:54:23.000Z</time></trkpt>
        <trkpt lat="28.71472" lon="105.061737"><ele>374.6295</ele><time>2026-07-21T19:54:25.000Z</time></trkpt>
        <trkpt lat="28.71475" lon="105.061672"><ele>373.4152</ele><time>2026-07-21T19:54:31.000Z</time></trkpt>
        <trkpt lat="28.71475" lon="105.061672"><ele>372.16528</ele><time>2026-07-21T19:54:33.000Z</time></trkpt>
        <trkpt lat="28.714749" lon="105.061673"><ele>371.40015</ele><time>2026-07-21T19:54:35.000Z</time></trkpt>
        <trkpt lat="28.714716" lon="105.06168"><ele>362.30237</ele><time>2026-07-21T19:58:18.000Z</time></trkpt>
        <trkpt lat="28.714723" lon="105.061645"><ele>370.2744</ele><time>2026-07-21T19:59:04.000Z</time></trkpt>
      </trkseg>
      <trkseg>
        <trkpt lat="28.714512" lon="105.061573"><ele>370.6105</ele><time>2026-07-21T20:05:23.000Z</time></trkpt>
        <trkpt lat="28.714517" lon="105.061457"><ele>363.99457</ele><time>2026-07-21T20:05:35.000Z</time></trkpt>
        <trkpt lat="28.714581" lon="105.061425"><ele>363.72586</ele><time>2026-07-21T20:05:37.000Z</time></trkpt>
        <trkpt lat="28.714586" lon="105.061425"><ele>364.49634</ele><time>2026-07-21T20:05:39.000Z</time></trkpt>
        <trkpt lat="28.714597" lon="105.061427"><ele>364.547</ele><time>2026-07-21T20:05:41.000Z</time></trkpt>
        <trkpt lat="28.714656" lon="105.061441"><ele>363.45438</ele><time>2026-07-21T20:05:47.000Z</time></trkpt>
        <trkpt lat="28.714631" lon="105.061361"><ele>363.02356</ele><time>2026-07-21T20:05:51.000Z</time></trkpt>
        <trkpt lat="28.714606" lon="105.061282"><ele>363.27036</ele><time>2026-07-21T20:05:53.000Z</time></trkpt>
        <trkpt lat="28.714604" lon="105.061276"><ele>362.59528</ele><time>2026-07-21T20:05:55.000Z</time></trkpt>
        <trkpt lat="28.714602" lon="105.061271"><ele>363.72873</ele><time>2026-07-21T20:05:57.000Z</time></trkpt>
        <trkpt lat="28.714582" lon="105.061197"><ele>364.49585</ele><time>2026-07-21T20:06:03.000Z</time></trkpt>
        <trkpt lat="28.714578" lon="105.061178"><ele>364.2546</ele><time>2026-07-21T20:06:05.000Z</time></trkpt>
        <trkpt lat="28.714567" lon="105.061168"><ele>363.76193</ele><time>2026-07-21T20:06:07.000Z</time></trkpt>
        <trkpt lat="28.714544" lon="105.061158"><ele>362.09445</ele><time>2026-07-21T20:06:09.000Z</time></trkpt>
        <trkpt lat="28.714521" lon="105.061155"><ele>361.21823</ele><time>2026-07-21T20:06:11.000Z</time></trkpt>
        <trkpt lat="28.714502" lon="105.061155"><ele>359.9182</ele><time>2026-07-21T20:06:13.000Z</time></trkpt>
        <trkpt lat="28.714491" lon="105.061161"><ele>358.93365</ele><time>2026-07-21T20:06:15.000Z</time></trkpt>
        <trkpt lat="28.714469" lon="105.061174"><ele>361.06265</ele><time>2026-07-21T20:06:19.000Z</time></trkpt>
        <trkpt lat="28.714469" lon="105.061174"><ele>361.32437</ele><time>2026-07-21T20:06:21.000Z</time></trkpt>
        <trkpt lat="28.714498" lon="105.061227"><ele>366.0113</ele><time>2026-07-21T20:06:29.000Z</time></trkpt>
        <trkpt lat="28.714498" lon="105.061227"><ele>366.88306</ele><time>2026-07-21T20:06:31.000Z</time></trkpt>
        <trkpt lat="28.714501" lon="105.061228"><ele>367.27542</ele><time>2026-07-21T20:06:33.000Z</time></trkpt>
        <trkpt lat="28.714559" lon="105.061245"><ele>366.9988</ele><time>2026-07-21T20:06:39.000Z</time></trkpt>
        <trkpt lat="28.714587" lon="105.061253"><ele>366.6879</ele><time>2026-07-21T20:06:41.000Z</time></trkpt>
        <trkpt lat="28.71462" lon="105.061262"><ele>366.8368</ele><time>2026-07-21T20:06:43.000Z</time></trkpt>
        <trkpt lat="28.714642" lon="105.061266"><ele>366.3429</ele><time>2026-07-21T20:06:45.000Z</time></trkpt>
        <trkpt lat="28.714657" lon="105.061269"><ele>366.33463</ele><time>2026-07-21T20:06:47.000Z</time></trkpt>
        <trkpt lat="28.714659" lon="105.061267"><ele>366.50024</ele><time>2026-07-21T20:06:49.000Z</time></trkpt>
        <trkpt lat="28.714677" lon="105.06124"><ele>366.46503</ele><time>2026-07-21T20:06:53.000Z</time></trkpt>
        <trkpt lat="28.7146" lon="105.06123"><ele>362.15192</ele><time>2026-07-21T20:07:01.000Z</time></trkpt>
        <trkpt lat="28.714511" lon="105.061219"><ele>360.40164</ele><time>2026-07-21T20:07:03.000Z</time></trkpt>
        <trkpt lat="28.714504" lon="105.06122"><ele>361.5574</ele><time>2026-07-21T20:07:05.000Z</time></trkpt>
        <trkpt lat="28.714506" lon="105.061219"><ele>363.0347</ele><time>2026-07-21T20:07:07.000Z</time></trkpt>
        <trkpt lat="28.714571" lon="105.061196"><ele>364.97452</ele><time>2026-07-21T20:07:21.000Z</time></trkpt>
        <trkpt lat="28.714673" lon="105.061216"><ele>364.34344</ele><time>2026-07-21T20:07:23.000Z</time></trkpt>
        <trkpt lat="28.714681" lon="105.061216"><ele>363.7329</ele><time>2026-07-21T20:07:25.000Z</time></trkpt>
        <trkpt lat="28.714683" lon="105.061219"><ele>362.79254</ele><time>2026-07-21T20:07:27.000Z</time></trkpt>
        <trkpt lat="28.714609" lon="105.061126"><ele>361.9459</ele><time>2026-07-21T20:07:33.000Z</time></trkpt>
        <trkpt lat="28.714641" lon="105.061093"><ele>360.75714</ele><time>2026-07-21T20:07:35.000Z</time></trkpt>
        <trkpt lat="28.714667" lon="105.061055"><ele>357.73187</ele><time>2026-07-21T20:07:37.000Z</time></trkpt>
        <trkpt lat="28.714674" lon="105.061044"><ele>355.44592</ele><time>2026-07-21T20:07:39.000Z</time></trkpt>
        <trkpt lat="28.714683" lon="105.061042"><ele>354.5497</ele><time>2026-07-21T20:07:41.000Z</time></trkpt>
        <trkpt lat="28.714621" lon="105.061056"><ele>353.6351</ele><time>2026-07-21T20:07:48.000Z</time></trkpt>
        <trkpt lat="28.714621" lon="105.061056"><ele>350.82883</ele><time>2026-07-21T20:07:50.000Z</time></trkpt>
        <trkpt lat="28.714621" lon="105.061057"><ele>349.06238</ele><time>2026-07-21T20:07:52.000Z</time></trkpt>
        <trkpt lat="28.714625" lon="105.060995"><ele>357.8322</ele><time>2026-07-21T20:08:02.000Z</time></trkpt>
        <trkpt lat="28.714625" lon="105.060995"><ele>358.44385</ele><time>2026-07-21T20:08:04.000Z</time></trkpt>
        <trkpt lat="28.714624" lon="105.060992"><ele>358.75885</ele><time>2026-07-21T20:08:06.000Z</time></trkpt>
        <trkpt lat="28.714613" lon="105.060956"><ele>359.06677</ele><time>2026-07-21T20:08:10.000Z</time></trkpt>
        <trkpt lat="28.714602" lon="105.060935"><ele>358.61172</ele><time>2026-07-21T20:08:12.000Z</time></trkpt>
        <trkpt lat="28.714591" lon="105.06092"><ele>359.1209</ele><time>2026-07-21T20:08:14.000Z</time></trkpt>
        <trkpt lat="28.71458" lon="105.060905"><ele>359.32874</ele><time>2026-07-21T20:08:16.000Z</time></trkpt>
        <trkpt lat="28.714573" lon="105.060888"><ele>359.37918</ele><time>2026-07-21T20:08:18.000Z</time></trkpt>
        <trkpt lat="28.714573" lon="105.060874"><ele>358.79984</ele><time>2026-07-21T20:08:20.000Z</time></trkpt>
        <trkpt lat="28.714581" lon="105.060853"><ele>358.62793</ele><time>2026-07-21T20:08:22.000Z</time></trkpt>
        <trkpt lat="28.714583" lon="105.060827"><ele>358.83163</ele><time>2026-07-21T20:08:24.000Z</time></trkpt>
        <trkpt lat="28.714581" lon="105.060804"><ele>359.26923</ele><time>2026-07-21T20:08:26.000Z</time></trkpt>
        <trkpt lat="28.714578" lon="105.060779"><ele>360.64462</ele><time>2026-07-21T20:08:28.000Z</time></trkpt>
        <trkpt lat="28.714581" lon="105.06074"><ele>362.05725</ele><time>2026-07-21T20:08:30.000Z</time></trkpt>
        <trkpt lat="28.714587" lon="105.060712"><ele>363.46024</ele><time>2026-07-21T20:08:32.000Z</time></trkpt>
        <trkpt lat="28.714587" lon="105.060695"><ele>362.22974</ele><time>2026-07-21T20:08:34.000Z</time></trkpt>
        <trkpt lat="28.714585" lon="105.060688"><ele>362.75098</ele><time>2026-07-21T20:08:36.000Z</time></trkpt>
        <trkpt lat="28.71459" lon="105.060661"><ele>361.6883</ele><time>2026-07-21T20:08:42.000Z</time></trkpt>
        <trkpt lat="28.714597" lon="105.060648"><ele>362.31296</ele><time>2026-07-21T20:08:44.000Z</time></trkpt>
        <trkpt lat="28.714608" lon="105.060638"><ele>363.58566</ele><time>2026-07-21T20:08:46.000Z</time></trkpt>
        <trkpt lat="28.714621" lon="105.060628"><ele>362.74026</ele><time>2026-07-21T20:08:48.000Z</time></trkpt>
        <trkpt lat="28.714635" lon="105.060621"><ele>362.59473</ele><time>2026-07-21T20:08:50.000Z</time></trkpt>
        <trkpt lat="28.714654" lon="105.060614"><ele>362.08994</ele><time>2026-07-21T20:08:52.000Z</time></trkpt>
        <trkpt lat="28.714675" lon="105.060606"><ele>363.25427</ele><time>2026-07-21T20:08:54.000Z</time></trkpt>
        <trkpt lat="28.714694" lon="105.060599"><ele>362.63004</ele><time>2026-07-21T20:08:56.000Z</time></trkpt>
        <trkpt lat="28.71471" lon="105.060591"><ele>362.42517</ele><time>2026-07-21T20:08:58.000Z</time></trkpt>
        <trkpt lat="28.714724" lon="105.06058"><ele>361.85364</ele><time>2026-07-21T20:09:00.000Z</time></trkpt>
        <trkpt lat="28.714738" lon="105.060572"><ele>359.4522</ele><time>2026-07-21T20:09:02.000Z</time></trkpt>
        <trkpt lat="28.714754" lon="105.060567"><ele>360.32486</ele><time>2026-07-21T20:09:04.000Z</time></trkpt>
        <trkpt lat="28.714771" lon="105.060562"><ele>357.4708</ele><time>2026-07-21T20:09:06.000Z</time></trkpt>
        <trkpt lat="28.714788" lon="105.060559"><ele>355.6163</ele><time>2026-07-21T20:09:08.000Z</time></trkpt>
        <trkpt lat="28.714801" lon="105.060557"><ele>353.6638</ele><time>2026-07-21T20:09:10.000Z</time></trkpt>
        <trkpt lat="28.714818" lon="105.060554"><ele>353.55502</ele><time>2026-07-21T20:09:12.000Z</time></trkpt>
        <trkpt lat="28.714821" lon="105.060548"><ele>352.43646</ele><time>2026-07-21T20:09:14.000Z</time></trkpt>
        <trkpt lat="28.714822" lon="105.060536"><ele>352.90332</ele><time>2026-07-21T20:09:18.000Z</time></trkpt>
        <trkpt lat="28.714824" lon="105.060499"><ele>353.6895</ele><time>2026-07-21T20:09:22.000Z</time></trkpt>
        <trkpt lat="28.714824" lon="105.060499"><ele>352.71136</ele><time>2026-07-21T20:09:24.000Z</time></trkpt>
        <trkpt lat="28.714826" lon="105.060497"><ele>352.44232</ele><time>2026-07-21T20:09:26.000Z</time></trkpt>
        <trkpt lat="28.71484" lon="105.060472"><ele>352.99356</ele><time>2026-07-21T20:09:30.000Z</time></trkpt>
        <trkpt lat="28.714848" lon="105.060454"><ele>352.913</ele><time>2026-07-21T20:09:32.000Z</time></trkpt>
        <trkpt lat="28.714858" lon="105.060435"><ele>353.7879</ele><time>2026-07-21T20:09:34.000Z</time></trkpt>
        <trkpt lat="28.714869" lon="105.060412"><ele>352.88455</ele><time>2026-07-21T20:09:36.000Z</time></trkpt>
        <trkpt lat="28.71488" lon="105.060393"><ele>353.4878</ele><time>2026-07-21T20:09:38.000Z</time></trkpt>
        <trkpt lat="28.714889" lon="105.060378"><ele>354.53442</ele><time>2026-07-21T20:09:40.000Z</time></trkpt>
        <trkpt lat="28.714897" lon="105.060364"><ele>354.601</ele><time>2026-07-21T20:09:42.000Z</time></trkpt>
        <trkpt lat="28.714905" lon="105.06035"><ele>354.81927</ele><time>2026-07-21T20:09:44.000Z</time></trkpt>
        <trkpt lat="28.714912" lon="105.060338"><ele>354.86227</ele><time>2026-07-21T20:09:46.000Z</time></trkpt>
        <trkpt lat="28.714918" lon="105.060325"><ele>354.14276</ele><time>2026-07-21T20:09:48.000Z</time></trkpt>
        <trkpt lat="28.714923" lon="105.060311"><ele>355.26962</ele><time>2026-07-21T20:09:50.000Z</time></trkpt>
        <trkpt lat="28.714931" lon="105.060299"><ele>356.03476</ele><time>2026-07-21T20:09:52.000Z</time></trkpt>
        <trkpt lat="28.714936" lon="105.060292"><ele>355.0751</ele><time>2026-07-21T20:09:54.000Z</time></trkpt>
        <trkpt lat="28.714942" lon="105.060282"><ele>353.36694</ele><time>2026-07-21T20:09:58.000Z</time></trkpt>
        <trkpt lat="28.714941" lon="105.060277"><ele>355.55505</ele><time>2026-07-21T20:10:00.000Z</time></trkpt>
        <trkpt lat="28.714939" lon="105.060258"><ele>355.14636</ele><time>2026-07-21T20:10:04.000Z</time></trkpt>
        <trkpt lat="28.714938" lon="105.060247"><ele>353.25635</ele><time>2026-07-21T20:10:10.000Z</time></trkpt>
        <trkpt lat="28.714936" lon="105.060227"><ele>351.66608</ele><time>2026-07-21T20:10:12.000Z</time></trkpt>
        <trkpt lat="28.714933" lon="105.060207"><ele>352.35754</ele><time>2026-07-21T20:10:14.000Z</time></trkpt>
        <trkpt lat="28.714935" lon="105.060191"><ele>354.1975</ele><time>2026-07-21T20:10:16.000Z</time></trkpt>
        <trkpt lat="28.714938" lon="105.060183"><ele>355.67548</ele><time>2026-07-21T20:10:18.000Z</time></trkpt>
        <trkpt lat="28.714944" lon="105.060179"><ele>356.64267</ele><time>2026-07-21T20:10:20.000Z</time></trkpt>
        <trkpt lat="28.714954" lon="105.06017"><ele>358.53836</ele><time>2026-07-21T20:10:22.000Z</time></trkpt>
        <trkpt lat="28.71496" lon="105.060163"><ele>358.2281</ele><time>2026-07-21T20:10:24.000Z</time></trkpt>
        <trkpt lat="28.714965" lon="105.060154"><ele>356.0151</ele><time>2026-07-21T20:10:26.000Z</time></trkpt>
        <trkpt lat="28.714979" lon="105.060143"><ele>357.14178</ele><time>2026-07-21T20:10:30.000Z</time></trkpt>
        <trkpt lat="28.71498" lon="105.060139"><ele>359.3615</ele><time>2026-07-21T20:10:32.000Z</time></trkpt>
        <trkpt lat="28.714984" lon="105.06012"><ele>359.32877</ele><time>2026-07-21T20:10:34.000Z</time></trkpt>
        <trkpt lat="28.714986" lon="105.060109"><ele>359.598</ele><time>2026-07-21T20:10:36.000Z</time></trkpt>
        <trkpt lat="28.714988" lon="105.060094"><ele>361.88666</ele><time>2026-07-21T20:10:38.000Z</time></trkpt>
        <trkpt lat="28.714986" lon="105.060085"><ele>362.0328</ele><time>2026-07-21T20:10:40.000Z</time></trkpt>
        <trkpt lat="28.714984" lon="105.060068"><ele>359.44995</ele><time>2026-07-21T20:10:42.000Z</time></trkpt>
        <trkpt lat="28.714981" lon="105.060052"><ele>360.26483</ele><time>2026-07-21T20:10:44.000Z</time></trkpt>
        <trkpt lat="28.714981" lon="105.060037"><ele>359.97952</ele><time>2026-07-21T20:10:46.000Z</time></trkpt>
        <trkpt lat="28.714982" lon="105.060028"><ele>362.19113</ele><time>2026-07-21T20:10:48.000Z</time></trkpt>
        <trkpt lat="28.714987" lon="105.060021"><ele>363.11166</ele><time>2026-07-21T20:10:50.000Z</time></trkpt>
        <trkpt lat="28.714999" lon="105.060016"><ele>365.1209</ele><time>2026-07-21T20:10:54.000Z</time></trkpt>
        <trkpt lat="28.715013" lon="105.060011"><ele>366.63055</ele><time>2026-07-21T20:10:56.000Z</time></trkpt>
        <trkpt lat="28.715013" lon="105.06001"><ele>368.28827</ele><time>2026-07-21T20:10:58.000Z</time></trkpt>
        <trkpt lat="28.71502" lon="105.059997"><ele>371.70007</ele><time>2026-07-21T20:11:06.000Z</time></trkpt>
        <trkpt lat="28.715024" lon="105.059985"><ele>372.28027</ele><time>2026-07-21T20:11:10.000Z</time></trkpt>
        <trkpt lat="28.715027" lon="105.059978"><ele>372.57687</ele><time>2026-07-21T20:11:12.000Z</time></trkpt>
        <trkpt lat="28.715028" lon="105.059969"><ele>373.37637</ele><time>2026-07-21T20:11:14.000Z</time></trkpt>
        <trkpt lat="28.715033" lon="105.059946"><ele>373.28183</ele><time>2026-07-21T20:11:18.000Z</time></trkpt>
        <trkpt lat="28.715036" lon="105.059941"><ele>372.64334</ele><time>2026-07-21T20:11:20.000Z</time></trkpt>
        <trkpt lat="28.715037" lon="105.059933"><ele>372.43637</ele><time>2026-07-21T20:11:22.000Z</time></trkpt>
        <trkpt lat="28.71504" lon="105.059914"><ele>374.45468</ele><time>2026-07-21T20:11:28.000Z</time></trkpt>
        <trkpt lat="28.715041" lon="105.059905"><ele>374.71704</ele><time>2026-07-21T20:11:30.000Z</time></trkpt>
        <trkpt lat="28.715042" lon="105.059895"><ele>375.15384</ele><time>2026-07-21T20:11:32.000Z</time></trkpt>
        <trkpt lat="28.715043" lon="105.059875"><ele>375.99292</ele><time>2026-07-21T20:11:36.000Z</time></trkpt>
        <trkpt lat="28.715042" lon="105.059861"><ele>377.1784</ele><time>2026-07-21T20:11:38.000Z</time></trkpt>
        <trkpt lat="28.71504" lon="105.059849"><ele>377.54294</ele><time>2026-07-21T20:11:40.000Z</time></trkpt>
        <trkpt lat="28.715043" lon="105.05984"><ele>376.8893</ele><time>2026-07-21T20:11:42.000Z</time></trkpt>
        <trkpt lat="28.715051" lon="105.059837"><ele>376.99167</ele><time>2026-07-21T20:11:45.000Z</time></trkpt>
        <trkpt lat="28.715071" lon="105.059829"><ele>376.61835</ele><time>2026-07-21T20:11:47.000Z</time></trkpt>
        <trkpt lat="28.715071" lon="105.059828"><ele>376.98712</ele><time>2026-07-21T20:11:49.000Z</time></trkpt>
        <trkpt lat="28.715098" lon="105.059799"><ele>376.84137</ele><time>2026-07-21T20:11:52.000Z</time></trkpt>
        <trkpt lat="28.715098" lon="105.059799"><ele>376.88907</ele><time>2026-07-21T20:11:54.000Z</time></trkpt>
        <trkpt lat="28.715099" lon="105.059797"><ele>377.98477</ele><time>2026-07-21T20:11:56.000Z</time></trkpt>
        <trkpt lat="28.715115" lon="105.059773"><ele>377.03372</ele><time>2026-07-21T20:12:01.000Z</time></trkpt>
        <trkpt lat="28.715126" lon="105.059757"><ele>377.6838</ele><time>2026-07-21T20:12:03.000Z</time></trkpt>
        <trkpt lat="28.715138" lon="105.059738"><ele>378.05292</ele><time>2026-07-21T20:12:05.000Z</time></trkpt>
        <trkpt lat="28.715146" lon="105.059724"><ele>378.49594</ele><time>2026-07-21T20:12:07.000Z</time></trkpt>
        <trkpt lat="28.715153" lon="105.05971"><ele>379.1905</ele><time>2026-07-21T20:12:09.000Z</time></trkpt>
        <trkpt lat="28.715156" lon="105.059699"><ele>378.69485</ele><time>2026-07-21T20:12:11.000Z</time></trkpt>
        <trkpt lat="28.715161" lon="105.059681"><ele>376.95337</ele><time>2026-07-21T20:12:13.000Z</time></trkpt>
        <trkpt lat="28.715165" lon="105.059666"><ele>377.7234</ele><time>2026-07-21T20:12:15.000Z</time></trkpt>
        <trkpt lat="28.715166" lon="105.059652"><ele>378.8161</ele><time>2026-07-21T20:12:17.000Z</time></trkpt>
        <trkpt lat="28.715165" lon="105.059639"><ele>378.95682</ele><time>2026-07-21T20:12:19.000Z</time></trkpt>
        <trkpt lat="28.715164" lon="105.059624"><ele>379.98578</ele><time>2026-07-21T20:12:21.000Z</time></trkpt>
        <trkpt lat="28.715165" lon="105.059615"><ele>380.8636</ele><time>2026-07-21T20:12:23.000Z</time></trkpt>
        <trkpt lat="28.715167" lon="105.059603"><ele>382.10587</ele><time>2026-07-21T20:12:25.000Z</time></trkpt>
        <trkpt lat="28.715169" lon="105.059588"><ele>384.04712</ele><time>2026-07-21T20:12:27.000Z</time></trkpt>
        <trkpt lat="28.715171" lon="105.059578"><ele>385.35345</ele><time>2026-07-21T20:12:29.000Z</time></trkpt>
        <trkpt lat="28.715177" lon="105.059567"><ele>385.2448</ele><time>2026-07-21T20:12:31.000Z</time></trkpt>
        <trkpt lat="28.715184" lon="105.059561"><ele>385.54907</ele><time>2026-07-21T20:12:33.000Z</time></trkpt>
        <trkpt lat="28.715199" lon="105.059554"><ele>385.00052</ele><time>2026-07-21T20:12:35.000Z</time></trkpt>
        <trkpt lat="28.715215" lon="105.059549"><ele>384.92276</ele><time>2026-07-21T20:12:37.000Z</time></trkpt>
        <trkpt lat="28.715226" lon="105.059546"><ele>384.88943</ele><time>2026-07-21T20:12:39.000Z</time></trkpt>
        <trkpt lat="28.715232" lon="105.059544"><ele>385.28192</ele><time>2026-07-21T20:12:41.000Z</time></trkpt>
        <trkpt lat="28.715241" lon="105.059535"><ele>384.92392</ele><time>2026-07-21T20:12:43.000Z</time></trkpt>
        <trkpt lat="28.715256" lon="105.059514"><ele>385.45755</ele><time>2026-07-21T20:12:47.000Z</time></trkpt>
        <trkpt lat="28.715264" lon="105.059497"><ele>387.19275</ele><time>2026-07-21T20:12:49.000Z</time></trkpt>
        <trkpt lat="28.715271" lon="105.059478"><ele>385.78955</ele><time>2026-07-21T20:12:51.000Z</time></trkpt>
        <trkpt lat="28.715273" lon="105.059453"><ele>384.47406</ele><time>2026-07-21T20:12:53.000Z</time></trkpt>
        <trkpt lat="28.715271" lon="105.059442"><ele>386.3019</ele><time>2026-07-21T20:12:55.000Z</time></trkpt>
        <trkpt lat="28.715272" lon="105.05943"><ele>388.62708</ele><time>2026-07-21T20:12:57.000Z</time></trkpt>
        <trkpt lat="28.715267" lon="105.059418"><ele>387.7259</ele><time>2026-07-21T20:12:59.000Z</time></trkpt>
        <trkpt lat="28.715265" lon="105.059395"><ele>391.09134</ele><time>2026-07-21T20:13:03.000Z</time></trkpt>
        <trkpt lat="28.715266" lon="105.059392"><ele>389.6243</ele><time>2026-07-21T20:13:05.000Z</time></trkpt>
        <trkpt lat="28.715276" lon="105.059367"><ele>389.75345</ele><time>2026-07-21T20:13:09.000Z</time></trkpt>
        <trkpt lat="28.715283" lon="105.059359"><ele>389.86606</ele><time>2026-07-21T20:13:11.000Z</time></trkpt>
        <trkpt lat="28.715295" lon="105.059351"><ele>388.9809</ele><time>2026-07-21T20:13:13.000Z</time></trkpt>
        <trkpt lat="28.715306" lon="105.059346"><ele>388.48853</ele><time>2026-07-21T20:13:15.000Z</time></trkpt>
        <trkpt lat="28.715311" lon="105.05935"><ele>387.77414</ele><time>2026-07-21T20:13:17.000Z</time></trkpt>
        <trkpt lat="28.715322" lon="105.059372"><ele>388.87576</ele><time>2026-07-21T20:13:31.000Z</time></trkpt>
        <trkpt lat="28.715325" lon="105.059376"><ele>388.81393</ele><time>2026-07-21T20:13:35.000Z</time></trkpt>
        <trkpt lat="28.715269" lon="105.059307"><ele>388.97778</ele><time>2026-07-21T20:13:49.000Z</time></trkpt>
        <trkpt lat="28.715244" lon="105.059331"><ele>391.96722</ele><time>2026-07-21T20:13:51.000Z</time></trkpt>
        <trkpt lat="28.715244" lon="105.059332"><ele>392.95273</ele><time>2026-07-21T20:13:53.000Z</time></trkpt>
        <trkpt lat="28.715228" lon="105.059301"><ele>394.5224</ele><time>2026-07-21T20:13:59.000Z</time></trkpt>
        <trkpt lat="28.715223" lon="105.059288"><ele>396.62964</ele><time>2026-07-21T20:14:01.000Z</time></trkpt>
        <trkpt lat="28.715223" lon="105.059272"><ele>397.0127</ele><time>2026-07-21T20:14:03.000Z</time></trkpt>
        <trkpt lat="28.715225" lon="105.059251"><ele>396.90298</ele><time>2026-07-21T20:14:05.000Z</time></trkpt>
        <trkpt lat="28.715231" lon="105.059225"><ele>397.74796</ele><time>2026-07-21T20:14:07.000Z</time></trkpt>
        <trkpt lat="28.715231" lon="105.059214"><ele>397.83688</ele><time>2026-07-21T20:14:09.000Z</time></trkpt>
        <trkpt lat="28.715227" lon="105.05921"><ele>397.44507</ele><time>2026-07-21T20:14:11.000Z</time></trkpt>
        <trkpt lat="28.715207" lon="105.059186"><ele>399.31787</ele><time>2026-07-21T20:14:17.000Z</time></trkpt>
        <trkpt lat="28.715207" lon="105.059186"><ele>400.26224</ele><time>2026-07-21T20:14:19.000Z</time></trkpt>
        <trkpt lat="28.715205" lon="105.059178"><ele>400.8622</ele><time>2026-07-21T20:14:23.000Z</time></trkpt>
        <trkpt lat="28.715194" lon="105.059143"><ele>401.2517</ele><time>2026-07-21T20:14:27.000Z</time></trkpt>
        <trkpt lat="28.715189" lon="105.059127"><ele>402.3639</ele><time>2026-07-21T20:14:29.000Z</time></trkpt>
        <trkpt lat="28.715183" lon="105.059114"><ele>403.21674</ele><time>2026-07-21T20:14:31.000Z</time></trkpt>
        <trkpt lat="28.715176" lon="105.059105"><ele>403.8727</ele><time>2026-07-21T20:14:33.000Z</time></trkpt>
        <trkpt lat="28.715172" lon="105.059104"><ele>403.21738</ele><time>2026-07-21T20:14:37.000Z</time></trkpt>
        <trkpt lat="28.715157" lon="105.059096"><ele>403.77124</ele><time>2026-07-21T20:14:41.000Z</time></trkpt>
        <trkpt lat="28.715143" lon="105.059088"><ele>404.09064</ele><time>2026-07-21T20:14:45.000Z</time></trkpt>
        <trkpt lat="28.715128" lon="105.05908"><ele>404.62753</ele><time>2026-07-21T20:14:47.000Z</time></trkpt>
        <trkpt lat="28.715128" lon="105.059079"><ele>405.39282</ele><time>2026-07-21T20:14:49.000Z</time></trkpt>
        <trkpt lat="28.715104" lon="105.059067"><ele>407.1935</ele><time>2026-07-21T20:14:55.000Z</time></trkpt>
        <trkpt lat="28.715094" lon="105.059054"><ele>408.78778</ele><time>2026-07-21T20:14:57.000Z</time></trkpt>
        <trkpt lat="28.715078" lon="105.05903"><ele>408.91495</ele><time>2026-07-21T20:14:59.000Z</time></trkpt>
        <trkpt lat="28.715071" lon="105.059008"><ele>410.10956</ele><time>2026-07-21T20:15:01.000Z</time></trkpt>
        <trkpt lat="28.715068" lon="105.058986"><ele>410.55493</ele><time>2026-07-21T20:15:03.000Z</time></trkpt>
        <trkpt lat="28.715068" lon="105.058969"><ele>410.1887</ele><time>2026-07-21T20:15:05.000Z</time></trkpt>
        <trkpt lat="28.715073" lon="105.058954"><ele>410.32968</ele><time>2026-07-21T20:15:07.000Z</time></trkpt>
        <trkpt lat="28.715082" lon="105.058938"><ele>410.77295</ele><time>2026-07-21T20:15:09.000Z</time></trkpt>
        <trkpt lat="28.715096" lon="105.058921"><ele>412.60992</ele><time>2026-07-21T20:15:11.000Z</time></trkpt>
        <trkpt lat="28.715105" lon="105.058913"><ele>412.9922</ele><time>2026-07-21T20:15:13.000Z</time></trkpt>
        <trkpt lat="28.715111" lon="105.058915"><ele>412.91373</ele><time>2026-07-21T20:15:15.000Z</time></trkpt>
        <trkpt lat="28.715057" lon="105.058898"><ele>413.77252</ele><time>2026-07-21T20:15:23.000Z</time></trkpt>
        <trkpt lat="28.715057" lon="105.058898"><ele>413.9539</ele><time>2026-07-21T20:15:25.000Z</time></trkpt>
        <trkpt lat="28.715056" lon="105.058896"><ele>413.87167</ele><time>2026-07-21T20:15:27.000Z</time></trkpt>
        <trkpt lat="28.715049" lon="105.058864"><ele>413.76776</ele><time>2026-07-21T20:15:33.000Z</time></trkpt>
        <trkpt lat="28.715047" lon="105.05885"><ele>413.3077</ele><time>2026-07-21T20:15:35.000Z</time></trkpt>
        <trkpt lat="28.715048" lon="105.058832"><ele>413.83902</ele><time>2026-07-21T20:15:37.000Z</time></trkpt>
        <trkpt lat="28.715053" lon="105.058817"><ele>414.57153</ele><time>2026-07-21T20:15:39.000Z</time></trkpt>
        <trkpt lat="28.715062" lon="105.058793"><ele>414.29443</ele><time>2026-07-21T20:15:41.000Z</time></trkpt>
        <trkpt lat="28.71507" lon="105.058778"><ele>414.48697</ele><time>2026-07-21T20:15:43.000Z</time></trkpt>
        <trkpt lat="28.715078" lon="105.05877"><ele>414.89862</ele><time>2026-07-21T20:15:45.000Z</time></trkpt>
        <trkpt lat="28.715088" lon="105.058758"><ele>413.69226</ele><time>2026-07-21T20:15:47.000Z</time></trkpt>
        <trkpt lat="28.715102" lon="105.058737"><ele>413.00964</ele><time>2026-07-21T20:15:49.000Z</time></trkpt>
        <trkpt lat="28.715114" lon="105.058715"><ele>412.67767</ele><time>2026-07-21T20:15:51.000Z</time></trkpt>
        <trkpt lat="28.715125" lon="105.058688"><ele>412.47815</ele><time>2026-07-21T20:15:53.000Z</time></trkpt>
        <trkpt lat="28.715135" lon="105.058661"><ele>411.96198</ele><time>2026-07-21T20:15:55.000Z</time></trkpt>
        <trkpt lat="28.715142" lon="105.058633"><ele>412.36188</ele><time>2026-07-21T20:15:57.000Z</time></trkpt>
        <trkpt lat="28.715146" lon="105.058607"><ele>412.25742</ele><time>2026-07-21T20:15:59.000Z</time></trkpt>
        <trkpt lat="28.715148" lon="105.058583"><ele>412.08987</ele><time>2026-07-21T20:16:01.000Z</time></trkpt>
        <trkpt lat="28.715149" lon="105.058564"><ele>412.74738</ele><time>2026-07-21T20:16:03.000Z</time></trkpt>
        <trkpt lat="28.715147" lon="105.058548"><ele>413.64438</ele><time>2026-07-21T20:16:05.000Z</time></trkpt>
        <trkpt lat="28.715144" lon="105.058534"><ele>413.2115</ele><time>2026-07-21T20:16:07.000Z</time></trkpt>
        <trkpt lat="28.715139" lon="105.058519"><ele>413.0771</ele><time>2026-07-21T20:16:09.000Z</time></trkpt>
        <trkpt lat="28.715132" lon="105.058499"><ele>412.73422</ele><time>2026-07-21T20:16:11.000Z</time></trkpt>
        <trkpt lat="28.715124" lon="105.058484"><ele>413.87546</ele><time>2026-07-21T20:16:13.000Z</time></trkpt>
        <trkpt lat="28.715122" lon="105.058474"><ele>414.95865</ele><time>2026-07-21T20:16:15.000Z</time></trkpt>
        <trkpt lat="28.71512" lon="105.058463"><ele>415.11935</ele><time>2026-07-21T20:16:17.000Z</time></trkpt>
        <trkpt lat="28.715123" lon="105.058453"><ele>415.21072</ele><time>2026-07-21T20:16:21.000Z</time></trkpt>
        <trkpt lat="28.715133" lon="105.058442"><ele>415.81317</ele><time>2026-07-21T20:16:25.000Z</time></trkpt>
        <trkpt lat="28.715164" lon="105.05841"><ele>415.15915</ele><time>2026-07-21T20:16:27.000Z</time></trkpt>
        <trkpt lat="28.715166" lon="105.05841"><ele>414.87625</ele><time>2026-07-21T20:16:29.000Z</time></trkpt>
        <trkpt lat="28.715162" lon="105.058409"><ele>414.7019</ele><time>2026-07-21T20:16:31.000Z</time></trkpt>
        <trkpt lat="28.715132" lon="105.058394"><ele>416.29407</ele><time>2026-07-21T20:16:35.000Z</time></trkpt>
        <trkpt lat="28.715125" lon="105.058382"><ele>416.1195</ele><time>2026-07-21T20:16:37.000Z</time></trkpt>
        <trkpt lat="28.71512" lon="105.058358"><ele>416.2876</ele><time>2026-07-21T20:16:39.000Z</time></trkpt>
        <trkpt lat="28.715118" lon="105.05833"><ele>416.32272</ele><time>2026-07-21T20:16:41.000Z</time></trkpt>
        <trkpt lat="28.715118" lon="105.058307"><ele>415.92627</ele><time>2026-07-21T20:16:43.000Z</time></trkpt>
        <trkpt lat="28.715119" lon="105.058274"><ele>416.97574</ele><time>2026-07-21T20:16:45.000Z</time></trkpt>
        <trkpt lat="28.715119" lon="105.058249"><ele>418.1149</ele><time>2026-07-21T20:16:47.000Z</time></trkpt>
        <trkpt lat="28.715119" lon="105.058228"><ele>418.5574</ele><time>2026-07-21T20:16:49.000Z</time></trkpt>
        <trkpt lat="28.71512" lon="105.058199"><ele>418.49722</ele><time>2026-07-21T20:16:51.000Z</time></trkpt>
        <trkpt lat="28.715117" lon="105.058168"><ele>418.49667</ele><time>2026-07-21T20:16:53.000Z</time></trkpt>
        <trkpt lat="28.715119" lon="105.058123"><ele>420.92392</ele><time>2026-07-21T20:16:57.000Z</time></trkpt>
        <trkpt lat="28.715129" lon="105.058088"><ele>421.80014</ele><time>2026-07-21T20:16:59.000Z</time></trkpt>
        <trkpt lat="28.715148" lon="105.058055"><ele>421.18463</ele><time>2026-07-21T20:17:01.000Z</time></trkpt>
        <trkpt lat="28.715193" lon="105.057981"><ele>421.82434</ele><time>2026-07-21T20:17:03.000Z</time></trkpt>
        <trkpt lat="28.715197" lon="105.057977"><ele>419.55524</ele><time>2026-07-21T20:17:05.000Z</time></trkpt>
        <trkpt lat="28.715198" lon="105.057978"><ele>417.26346</ele><time>2026-07-21T20:17:07.000Z</time></trkpt>
        <trkpt lat="28.715138" lon="105.057943"><ele>417.93997</ele><time>2026-07-21T20:17:19.000Z</time></trkpt>
        <trkpt lat="28.715124" lon="105.057926"><ele>418.74573</ele><time>2026-07-21T20:17:21.000Z</time></trkpt>
        <trkpt lat="28.715106" lon="105.057898"><ele>419.362</ele><time>2026-07-21T20:17:23.000Z</time></trkpt>
        <trkpt lat="28.715089" lon="105.057866"><ele>419.42606</ele><time>2026-07-21T20:17:25.000Z</time></trkpt>
        <trkpt lat="28.715075" lon="105.057839"><ele>419.31964</ele><time>2026-07-21T20:17:27.000Z</time></trkpt>
        <trkpt lat="28.715064" lon="105.057816"><ele>419.245</ele><time>2026-07-21T20:17:29.000Z</time></trkpt>
        <trkpt lat="28.715054" lon="105.057794"><ele>419.87494</ele><time>2026-07-21T20:17:31.000Z</time></trkpt>
        <trkpt lat="28.715045" lon="105.057774"><ele>420.26328</ele><time>2026-07-21T20:17:33.000Z</time></trkpt>
        <trkpt lat="28.715037" lon="105.057756"><ele>420.06854</ele><time>2026-07-21T20:17:35.000Z</time></trkpt>
        <trkpt lat="28.715028" lon="105.057735"><ele>420.48618</ele><time>2026-07-21T20:17:37.000Z</time></trkpt>
        <trkpt lat="28.715021" lon="105.057717"><ele>420.82956</ele><time>2026-07-21T20:17:39.000Z</time></trkpt>
        <trkpt lat="28.715016" lon="105.057694"><ele>420.27765</ele><time>2026-07-21T20:17:41.000Z</time></trkpt>
        <trkpt lat="28.715016" lon="105.057672"><ele>419.58276</ele><time>2026-07-21T20:17:43.000Z</time></trkpt>
        <trkpt lat="28.715021" lon="105.057649"><ele>419.46436</ele><time>2026-07-21T20:17:45.000Z</time></trkpt>
        <trkpt lat="28.715028" lon="105.05763"><ele>419.8296</ele><time>2026-07-21T20:17:47.000Z</time></trkpt>
        <trkpt lat="28.715038" lon="105.057613"><ele>420.11456</ele><time>2026-07-21T20:17:49.000Z</time></trkpt>
        <trkpt lat="28.715047" lon="105.057599"><ele>420.33032</ele><time>2026-07-21T20:17:51.000Z</time></trkpt>
        <trkpt lat="28.715058" lon="105.057585"><ele>420.6701</ele><time>2026-07-21T20:17:53.000Z</time></trkpt>
        <trkpt lat="28.715071" lon="105.05757"><ele>420.27133</ele><time>2026-07-21T20:17:55.000Z</time></trkpt>
        <trkpt lat="28.715085" lon="105.057557"><ele>420.435</ele><time>2026-07-21T20:17:57.000Z</time></trkpt>
        <trkpt lat="28.715099" lon="105.057543"><ele>420.16458</ele><time>2026-07-21T20:17:59.000Z</time></trkpt>
        <trkpt lat="28.715114" lon="105.057529"><ele>419.56326</ele><time>2026-07-21T20:18:01.000Z</time></trkpt>
        <trkpt lat="28.715128" lon="105.057516"><ele>419.72345</ele><time>2026-07-21T20:18:03.000Z</time></trkpt>
        <trkpt lat="28.715141" lon="105.057503"><ele>419.4515</ele><time>2026-07-21T20:18:05.000Z</time></trkpt>
        <trkpt lat="28.715152" lon="105.057491"><ele>420.01028</ele><time>2026-07-21T20:18:07.000Z</time></trkpt>
        <trkpt lat="28.71516" lon="105.05748"><ele>420.04465</ele><time>2026-07-21T20:18:09.000Z</time></trkpt>
        <trkpt lat="28.715162" lon="105.05747"><ele>419.70544</ele><time>2026-07-21T20:18:11.000Z</time></trkpt>
        <trkpt lat="28.715165" lon="105.05747"><ele>420.19513</ele><time>2026-07-21T20:18:15.000Z</time></trkpt>
        <trkpt lat="28.715182" lon="105.057478"><ele>419.90836</ele><time>2026-07-21T20:18:21.000Z</time></trkpt>
        <trkpt lat="28.715216" lon="105.057495"><ele>419.47675</ele><time>2026-07-21T20:18:23.000Z</time></trkpt>
        <trkpt lat="28.715219" lon="105.057495"><ele>419.29974</ele><time>2026-07-21T20:18:25.000Z</time></trkpt>
        <trkpt lat="28.715222" lon="105.057495"><ele>419.21918</ele><time>2026-07-21T20:18:27.000Z</time></trkpt>
        <trkpt lat="28.715268" lon="105.057492"><ele>419.57816</ele><time>2026-07-21T20:18:31.000Z</time></trkpt>
        <trkpt lat="28.715304" lon="105.05749"><ele>420.21533</ele><time>2026-07-21T20:18:33.000Z</time></trkpt>
        <trkpt lat="28.715338" lon="105.057488"><ele>420.5167</ele><time>2026-07-21T20:18:35.000Z</time></trkpt>
        <trkpt lat="28.715372" lon="105.057486"><ele>421.01254</ele><time>2026-07-21T20:18:37.000Z</time></trkpt>
        <trkpt lat="28.7154" lon="105.057485"><ele>421.05795</ele><time>2026-07-21T20:18:39.000Z</time></trkpt>
        <trkpt lat="28.715431" lon="105.057482"><ele>421.34534</ele><time>2026-07-21T20:18:41.000Z</time></trkpt>
        <trkpt lat="28.715456" lon="105.057478"><ele>421.3806</ele><time>2026-07-21T20:18:43.000Z</time></trkpt>
        <trkpt lat="28.715479" lon="105.057476"><ele>422.2127</ele><time>2026-07-21T20:18:45.000Z</time></trkpt>
        <trkpt lat="28.715503" lon="105.057478"><ele>422.13516</ele><time>2026-07-21T20:18:47.000Z</time></trkpt>
        <trkpt lat="28.715521" lon="105.057486"><ele>422.26157</ele><time>2026-07-21T20:18:49.000Z</time></trkpt>
        <trkpt lat="28.715533" lon="105.057499"><ele>422.31348</ele><time>2026-07-21T20:18:51.000Z</time></trkpt>
        <trkpt lat="28.715543" lon="105.057519"><ele>422.1873</ele><time>2026-07-21T20:18:53.000Z</time></trkpt>
        <trkpt lat="28.715552" lon="105.057545"><ele>422.29416</ele><time>2026-07-21T20:18:55.000Z</time></trkpt>
        <trkpt lat="28.71556" lon="105.057576"><ele>422.06555</ele><time>2026-07-21T20:18:57.000Z</time></trkpt>
        <trkpt lat="28.715567" lon="105.057607"><ele>421.7019</ele><time>2026-07-21T20:18:59.000Z</time></trkpt>
        <trkpt lat="28.715575" lon="105.057637"><ele>422.9152</ele><time>2026-07-21T20:19:01.000Z</time></trkpt>
        <trkpt lat="28.715585" lon="105.057666"><ele>422.74734</ele><time>2026-07-21T20:19:03.000Z</time></trkpt>
        <trkpt lat="28.715595" lon="105.057689"><ele>422.8618</ele><time>2026-07-21T20:19:05.000Z</time></trkpt>
        <trkpt lat="28.715606" lon="105.057711"><ele>422.98898</ele><time>2026-07-21T20:19:07.000Z</time></trkpt>
        <trkpt lat="28.715617" lon="105.05773"><ele>423.54712</ele><time>2026-07-21T20:19:09.000Z</time></trkpt>
        <trkpt lat="28.715627" lon="105.057747"><ele>422.7362</ele><time>2026-07-21T20:19:11.000Z</time></trkpt>
        <trkpt lat="28.715637" lon="105.057765"><ele>423.62592</ele><time>2026-07-21T20:19:13.000Z</time></trkpt>
        <trkpt lat="28.715646" lon="105.057785"><ele>424.10754</ele><time>2026-07-21T20:19:15.000Z</time></trkpt>
        <trkpt lat="28.715654" lon="105.057808"><ele>423.84814</ele><time>2026-07-21T20:19:17.000Z</time></trkpt>
        <trkpt lat="28.715663" lon="105.057829"><ele>424.02118</ele><time>2026-07-21T20:19:19.000Z</time></trkpt>
        <trkpt lat="28.715673" lon="105.057843"><ele>423.99414</ele><time>2026-07-21T20:19:21.000Z</time></trkpt>
        <trkpt lat="28.715683" lon="105.057849"><ele>423.67715</ele><time>2026-07-21T20:19:23.000Z</time></trkpt>
        <trkpt lat="28.715694" lon="105.057851"><ele>425.22333</ele><time>2026-07-21T20:19:25.000Z</time></trkpt>
        <trkpt lat="28.715699" lon="105.057848"><ele>425.3289</ele><time>2026-07-21T20:19:27.000Z</time></trkpt>
        <trkpt lat="28.715715" lon="105.057835"><ele>425.79694</ele><time>2026-07-21T20:19:31.000Z</time></trkpt>
        <trkpt lat="28.715721" lon="105.057828"><ele>426.4831</ele><time>2026-07-21T20:19:33.000Z</time></trkpt>
        <trkpt lat="28.715723" lon="105.05782"><ele>427.61148</ele><time>2026-07-21T20:19:35.000Z</time></trkpt>
        <trkpt lat="28.715728" lon="105.057801"><ele>428.21707</ele><time>2026-07-21T20:19:39.000Z</time></trkpt>
        <trkpt lat="28.715729" lon="105.057792"><ele>428.24594</ele><time>2026-07-21T20:19:41.000Z</time></trkpt>
        <trkpt lat="28.71573" lon="105.057783"><ele>428.54074</ele><time>2026-07-21T20:19:43.000Z</time></trkpt>
        <trkpt lat="28.715734" lon="105.057763"><ele>429.11765</ele><time>2026-07-21T20:19:47.000Z</time></trkpt>
        <trkpt lat="28.715737" lon="105.057755"><ele>428.95715</ele><time>2026-07-21T20:19:49.000Z</time></trkpt>
        <trkpt lat="28.715742" lon="105.057744"><ele>428.87817</ele><time>2026-07-21T20:19:51.000Z</time></trkpt>
        <trkpt lat="28.715747" lon="105.057735"><ele>429.2279</ele><time>2026-07-21T20:19:53.000Z</time></trkpt>
        <trkpt lat="28.715754" lon="105.057728"><ele>429.33545</ele><time>2026-07-21T20:19:55.000Z</time></trkpt>
        <trkpt lat="28.715764" lon="105.057719"><ele>429.79947</ele><time>2026-07-21T20:19:57.000Z</time></trkpt>
        <trkpt lat="28.715772" lon="105.057711"><ele>429.8246</ele><time>2026-07-21T20:19:59.000Z</time></trkpt>
        <trkpt lat="28.71578" lon="105.0577"><ele>429.92047</ele><time>2026-07-21T20:20:01.000Z</time></trkpt>
        <trkpt lat="28.715787" lon="105.057687"><ele>430.2917</ele><time>2026-07-21T20:20:03.000Z</time></trkpt>
        <trkpt lat="28.715796" lon="105.057671"><ele>430.60764</ele><time>2026-07-21T20:20:05.000Z</time></trkpt>
        <trkpt lat="28.715806" lon="105.057655"><ele>430.61703</ele><time>2026-07-21T20:20:07.000Z</time></trkpt>
        <trkpt lat="28.71582" lon="105.057636"><ele>431.3912</ele><time>2026-07-21T20:20:09.000Z</time></trkpt>
        <trkpt lat="28.715833" lon="105.057619"><ele>431.57227</ele><time>2026-07-21T20:20:11.000Z</time></trkpt>
        <trkpt lat="28.715847" lon="105.057605"><ele>431.8831</ele><time>2026-07-21T20:20:13.000Z</time></trkpt>
        <trkpt lat="28.715864" lon="105.057593"><ele>432.2261</ele><time>2026-07-21T20:20:15.000Z</time></trkpt>
        <trkpt lat="28.715879" lon="105.057586"><ele>432.16315</ele><time>2026-07-21T20:20:17.000Z</time></trkpt>
        <trkpt lat="28.715898" lon="105.057581"><ele>432.6822</ele><time>2026-07-21T20:20:19.000Z</time></trkpt>
        <trkpt lat="28.715909" lon="105.057579"><ele>433.8258</ele><time>2026-07-21T20:20:21.000Z</time></trkpt>
        <trkpt lat="28.715917" lon="105.05758"><ele>434.0682</ele><time>2026-07-21T20:20:23.000Z</time></trkpt>
        <trkpt lat="28.715925" lon="105.057582"><ele>433.5729</ele><time>2026-07-21T20:20:25.000Z</time></trkpt>
        <trkpt lat="28.715937" lon="105.057587"><ele>434.1182</ele><time>2026-07-21T20:20:27.000Z</time></trkpt>
        <trkpt lat="28.71595" lon="105.057593"><ele>434.03336</ele><time>2026-07-21T20:20:29.000Z</time></trkpt>
        <trkpt lat="28.715963" lon="105.0576"><ele>433.89105</ele><time>2026-07-21T20:20:31.000Z</time></trkpt>
        <trkpt lat="28.715976" lon="105.057607"><ele>434.25693</ele><time>2026-07-21T20:20:33.000Z</time></trkpt>
        <trkpt lat="28.715989" lon="105.057614"><ele>434.14163</ele><time>2026-07-21T20:20:35.000Z</time></trkpt>
        <trkpt lat="28.716003" lon="105.057622"><ele>434.08734</ele><time>2026-07-21T20:20:37.000Z</time></trkpt>
        <trkpt lat="28.716016" lon="105.057628"><ele>434.68472</ele><time>2026-07-21T20:20:39.000Z</time></trkpt>
        <trkpt lat="28.716026" lon="105.057632"><ele>435.83148</ele><time>2026-07-21T20:20:41.000Z</time></trkpt>
        <trkpt lat="28.716036" lon="105.057635"><ele>436.08655</ele><time>2026-07-21T20:20:43.000Z</time></trkpt>
        <trkpt lat="28.716045" lon="105.057636"><ele>436.7283</ele><time>2026-07-21T20:20:45.000Z</time></trkpt>
        <trkpt lat="28.716061" lon="105.057639"><ele>438.24136</ele><time>2026-07-21T20:20:49.000Z</time></trkpt>
        <trkpt lat="28.716066" lon="105.057643"><ele>437.68173</ele><time>2026-07-21T20:20:51.000Z</time></trkpt>
        <trkpt lat="28.716086" lon="105.057659"><ele>436.96765</ele><time>2026-07-21T20:20:53.000Z</time></trkpt>
        <trkpt lat="28.716087" lon="105.05766"><ele>436.7156</ele><time>2026-07-21T20:20:55.000Z</time></trkpt>
        <trkpt lat="28.71609" lon="105.057661"><ele>436.54297</ele><time>2026-07-21T20:20:57.000Z</time></trkpt>
        <trkpt lat="28.716132" lon="105.05767"><ele>437.02573</ele><time>2026-07-21T20:21:01.000Z</time></trkpt>
        <trkpt lat="28.716163" lon="105.057673"><ele>436.54236</ele><time>2026-07-21T20:21:03.000Z</time></trkpt>
        <trkpt lat="28.716195" lon="105.057675"><ele>437.24585</ele><time>2026-07-21T20:21:05.000Z</time></trkpt>
        <trkpt lat="28.716223" lon="105.057678"><ele>435.39188</ele><time>2026-07-21T20:21:07.000Z</time></trkpt>
        <trkpt lat="28.716247" lon="105.057682"><ele>435.58737</ele><time>2026-07-21T20:21:09.000Z</time></trkpt>
        <trkpt lat="28.716269" lon="105.057689"><ele>434.6102</ele><time>2026-07-21T20:21:11.000Z</time></trkpt>
        <trkpt lat="28.716291" lon="105.057694"><ele>434.8208</ele><time>2026-07-21T20:21:13.000Z</time></trkpt>
        <trkpt lat="28.716306" lon="105.057693"><ele>434.3159</ele><time>2026-07-21T20:21:15.000Z</time></trkpt>
        <trkpt lat="28.716316" lon="105.057689"><ele>434.35376</ele><time>2026-07-21T20:21:17.000Z</time></trkpt>
        <trkpt lat="28.716322" lon="105.057684"><ele>434.8392</ele><time>2026-07-21T20:21:19.000Z</time></trkpt>
        <trkpt lat="28.716321" lon="105.05768"><ele>435.11133</ele><time>2026-07-21T20:21:21.000Z</time></trkpt>
        <trkpt lat="28.716318" lon="105.05768"><ele>434.05045</ele><time>2026-07-21T20:21:25.000Z</time></trkpt>
        <trkpt lat="28.716271" lon="105.057672"><ele>434.59927</ele><time>2026-07-21T20:21:27.000Z</time></trkpt>
        <trkpt lat="28.716269" lon="105.057671"><ele>433.28036</ele><time>2026-07-21T20:21:29.000Z</time></trkpt>
        <trkpt lat="28.716267" lon="105.057669"><ele>433.6333</ele><time>2026-07-21T20:21:31.000Z</time></trkpt>
        <trkpt lat="28.716241" lon="105.057647"><ele>433.4638</ele><time>2026-07-21T20:21:35.000Z</time></trkpt>
        <trkpt lat="28.716226" lon="105.057635"><ele>433.33163</ele><time>2026-07-21T20:21:37.000Z</time></trkpt>
        <trkpt lat="28.716217" lon="105.057625"><ele>432.94583</ele><time>2026-07-21T20:21:39.000Z</time></trkpt>
        <trkpt lat="28.716204" lon="105.057611"><ele>431.56052</ele><time>2026-07-21T20:21:41.000Z</time></trkpt>
        <trkpt lat="28.716189" lon="105.057597"><ele>429.79123</ele><time>2026-07-21T20:21:43.000Z</time></trkpt>
        <trkpt lat="28.716179" lon="105.057593"><ele>429.91516</ele><time>2026-07-21T20:21:45.000Z</time></trkpt>
        <trkpt lat="28.716154" lon="105.057585"><ele>431.24234</ele><time>2026-07-21T20:21:47.000Z</time></trkpt>
        <trkpt lat="28.71612" lon="105.05758"><ele>433.68265</ele><time>2026-07-21T20:21:49.000Z</time></trkpt>
        <trkpt lat="28.716079" lon="105.057574"><ele>434.2985</ele><time>2026-07-21T20:21:51.000Z</time></trkpt>
        <trkpt lat="28.716046" lon="105.05757"><ele>432.5514</ele><time>2026-07-21T20:21:53.000Z</time></trkpt>
        <trkpt lat="28.716015" lon="105.057565"><ele>434.1919</ele><time>2026-07-21T20:21:55.000Z</time></trkpt>
        <trkpt lat="28.715989" lon="105.057563"><ele>433.98587</ele><time>2026-07-21T20:21:57.000Z</time></trkpt>
        <trkpt lat="28.715965" lon="105.057564"><ele>434.0484</ele><time>2026-07-21T20:21:59.000Z</time></trkpt>
        <trkpt lat="28.715945" lon="105.057563"><ele>433.95642</ele><time>2026-07-21T20:22:01.000Z</time></trkpt>
        <trkpt lat="28.715938" lon="105.057555"><ele>433.88898</ele><time>2026-07-21T20:22:03.000Z</time></trkpt>
        <trkpt lat="28.715933" lon="105.057545"><ele>431.18436</ele><time>2026-07-21T20:22:05.000Z</time></trkpt>
        <trkpt lat="28.715921" lon="105.057528"><ele>431.3056</ele><time>2026-07-21T20:22:07.000Z</time></trkpt>
        <trkpt lat="28.715909" lon="105.057508"><ele>431.8638</ele><time>2026-07-21T20:22:09.000Z</time></trkpt>
        <trkpt lat="28.715896" lon="105.057483"><ele>430.84686</ele><time>2026-07-21T20:22:11.000Z</time></trkpt>
        <trkpt lat="28.715885" lon="105.05746"><ele>431.02716</ele><time>2026-07-21T20:22:13.000Z</time></trkpt>
        <trkpt lat="28.715873" lon="105.057437"><ele>431.9664</ele><time>2026-07-21T20:22:15.000Z</time></trkpt>
        <trkpt lat="28.715859" lon="105.05741"><ele>432.5291</ele><time>2026-07-21T20:22:16.000Z</time></trkpt>
        <trkpt lat="28.715845" lon="105.057384"><ele>432.82434</ele><time>2026-07-21T20:22:18.000Z</time></trkpt>
        <trkpt lat="28.715829" lon="105.057359"><ele>431.82874</ele><time>2026-07-21T20:22:20.000Z</time></trkpt>
        <trkpt lat="28.715816" lon="105.057333"><ele>431.38635</ele><time>2026-07-21T20:22:22.000Z</time></trkpt>
        <trkpt lat="28.715804" lon="105.05731"><ele>432.3368</ele><time>2026-07-21T20:22:24.000Z</time></trkpt>
        <trkpt lat="28.715791" lon="105.057286"><ele>432.38733</ele><time>2026-07-21T20:22:26.000Z</time></trkpt>
        <trkpt lat="28.715778" lon="105.057265"><ele>433.2059</ele><time>2026-07-21T20:22:28.000Z</time></trkpt>
        <trkpt lat="28.715764" lon="105.057244"><ele>434.40164</ele><time>2026-07-21T20:22:30.000Z</time></trkpt>
        <trkpt lat="28.71575" lon="105.057224"><ele>433.50323</ele><time>2026-07-21T20:22:32.000Z</time></trkpt>
        <trkpt lat="28.715735" lon="105.057206"><ele>435.05942</ele><time>2026-07-21T20:22:34.000Z</time></trkpt>
        <trkpt lat="28.715715" lon="105.057185"><ele>434.70773</ele><time>2026-07-21T20:22:36.000Z</time></trkpt>
        <trkpt lat="28.715697" lon="105.057165"><ele>435.0687</ele><time>2026-07-21T20:22:38.000Z</time></trkpt>
        <trkpt lat="28.715682" lon="105.057142"><ele>435.7618</ele><time>2026-07-21T20:22:40.000Z</time></trkpt>
        <trkpt lat="28.715669" lon="105.057113"><ele>435.0256</ele><time>2026-07-21T20:22:42.000Z</time></trkpt>
        <trkpt lat="28.715661" lon="105.057082"><ele>435.84274</ele><time>2026-07-21T20:22:45.000Z</time></trkpt>
        <trkpt lat="28.715659" lon="105.057052"><ele>436.4835</ele><time>2026-07-21T20:22:47.000Z</time></trkpt>
        <trkpt lat="28.715661" lon="105.057025"><ele>437.18103</ele><time>2026-07-21T20:22:49.000Z</time></trkpt>
        <trkpt lat="28.715669" lon="105.056999"><ele>438.26474</ele><time>2026-07-21T20:22:51.000Z</time></trkpt>
        <trkpt lat="28.71568" lon="105.05698"><ele>438.60736</ele><time>2026-07-21T20:22:53.000Z</time></trkpt>
        <trkpt lat="28.715696" lon="105.056961"><ele>438.76318</ele><time>2026-07-21T20:22:55.000Z</time></trkpt>
        <trkpt lat="28.715715" lon="105.056942"><ele>439.08246</ele><time>2026-07-21T20:22:57.000Z</time></trkpt>
        <trkpt lat="28.715734" lon="105.056923"><ele>438.81366</ele><time>2026-07-21T20:22:59.000Z</time></trkpt>
        <trkpt lat="28.715753" lon="105.056904"><ele>439.0561</ele><time>2026-07-21T20:23:01.000Z</time></trkpt>
        <trkpt lat="28.715773" lon="105.056886"><ele>439.43494</ele><time>2026-07-21T20:23:03.000Z</time></trkpt>
        <trkpt lat="28.715794" lon="105.056869"><ele>439.5389</ele><time>2026-07-21T20:23:05.000Z</time></trkpt>
        <trkpt lat="28.715813" lon="105.056855"><ele>440.72903</ele><time>2026-07-21T20:23:07.000Z</time></trkpt>
        <trkpt lat="28.715827" lon="105.056845"><ele>442.25012</ele><time>2026-07-21T20:23:09.000Z</time></trkpt>
        <trkpt lat="28.715831" lon="105.05684"><ele>442.41217</ele><time>2026-07-21T20:23:11.000Z</time></trkpt>
        <trkpt lat="28.715781" lon="105.056908"><ele>440.9592</ele><time>2026-07-21T20:23:23.000Z</time></trkpt>
        <trkpt lat="28.715781" lon="105.056908"><ele>440.95746</ele><time>2026-07-21T20:23:25.000Z</time></trkpt>
        <trkpt lat="28.715779" lon="105.056911"><ele>440.7701</ele><time>2026-07-21T20:23:27.000Z</time></trkpt>
        <trkpt lat="28.715756" lon="105.056961"><ele>439.7455</ele><time>2026-07-21T20:23:31.000Z</time></trkpt>
        <trkpt lat="28.715739" lon="105.056998"><ele>439.22998</ele><time>2026-07-21T20:23:33.000Z</time></trkpt>
        <trkpt lat="28.715721" lon="105.057037"><ele>438.70825</ele><time>2026-07-21T20:23:35.000Z</time></trkpt>
        <trkpt lat="28.715703" lon="105.057071"><ele>438.2246</ele><time>2026-07-21T20:23:37.000Z</time></trkpt>
        <trkpt lat="28.715687" lon="105.057101"><ele>437.24374</ele><time>2026-07-21T20:23:39.000Z</time></trkpt>
        <trkpt lat="28.715673" lon="105.057128"><ele>436.69833</ele><time>2026-07-21T20:23:41.000Z</time></trkpt>
        <trkpt lat="28.715662" lon="105.057156"><ele>436.30597</ele><time>2026-07-21T20:23:43.000Z</time></trkpt>
        <trkpt lat="28.715649" lon="105.05719"><ele>436.28824</ele><time>2026-07-21T20:23:45.000Z</time></trkpt>
        <trkpt lat="28.715634" lon="105.057222"><ele>435.72217</ele><time>2026-07-21T20:23:47.000Z</time></trkpt>
        <trkpt lat="28.715623" lon="105.057237"><ele>435.50873</ele><time>2026-07-21T20:23:49.000Z</time></trkpt>
        <trkpt lat="28.715624" lon="105.057241"><ele>435.82245</ele><time>2026-07-21T20:23:51.000Z</time></trkpt>
        <trkpt lat="28.715616" lon="105.057178"><ele>435.03857</ele><time>2026-07-21T20:23:57.000Z</time></trkpt>
        <trkpt lat="28.715616" lon="105.057177"><ele>435.16864</ele><time>2026-07-21T20:23:59.000Z</time></trkpt>
        <trkpt lat="28.715614" lon="105.057177"><ele>435.67014</ele><time>2026-07-21T20:24:01.000Z</time></trkpt>
        <trkpt lat="28.715546" lon="105.057141"><ele>438.43054</ele><time>2026-07-21T20:24:09.000Z</time></trkpt>
        <trkpt lat="28.715546" lon="105.057142"><ele>437.52618</ele><time>2026-07-21T20:24:11.000Z</time></trkpt>
        <trkpt lat="28.715539" lon="105.057145"><ele>434.38684</ele><time>2026-07-21T20:24:13.000Z</time></trkpt>
        <trkpt lat="28.715505" lon="105.057157"><ele>432.71826</ele><time>2026-07-21T20:24:15.000Z</time></trkpt>
        <trkpt lat="28.71543" lon="105.057175"><ele>431.22525</ele><time>2026-07-21T20:24:17.000Z</time></trkpt>
        <trkpt lat="28.71524" lon="105.05722"><ele>429.91895</ele><time>2026-07-21T20:24:19.000Z</time></trkpt>
        <trkpt lat="28.715226" lon="105.05722"><ele>428.3202</ele><time>2026-07-21T20:24:21.000Z</time></trkpt>
        <trkpt lat="28.71522" lon="105.057219"><ele>427.8247</ele><time>2026-07-21T20:24:22.000Z</time></trkpt>
        <trkpt lat="28.715188" lon="105.057205"><ele>427.64362</ele><time>2026-07-21T20:24:24.000Z</time></trkpt>
        <trkpt lat="28.714953" lon="105.057104"><ele>428.64188</ele><time>2026-07-21T20:24:26.000Z</time></trkpt>
        <trkpt lat="28.714936" lon="105.057095"><ele>429.13412</ele><time>2026-07-21T20:24:28.000Z</time></trkpt>
        <trkpt lat="28.714926" lon="105.057088"><ele>428.2938</ele><time>2026-07-21T20:24:30.000Z</time></trkpt>
        <trkpt lat="28.71489" lon="105.057064"><ele>426.9091</ele><time>2026-07-21T20:24:32.000Z</time></trkpt>
        <trkpt lat="28.714825" lon="105.057034"><ele>425.573</ele><time>2026-07-21T20:24:34.000Z</time></trkpt>
        <trkpt lat="28.714762" lon="105.057003"><ele>424.68808</ele><time>2026-07-21T20:24:36.000Z</time></trkpt>
        <trkpt lat="28.714709" lon="105.05703"><ele>424.25922</ele><time>2026-07-21T20:24:38.000Z</time></trkpt>
        <trkpt lat="28.714669" lon="105.057096"><ele>423.32712</ele><time>2026-07-21T20:24:40.000Z</time></trkpt>
        <trkpt lat="28.714616" lon="105.05717"><ele>422.7178</ele><time>2026-07-21T20:24:42.000Z</time></trkpt>
        <trkpt lat="28.714563" lon="105.057246"><ele>422.59695</ele><time>2026-07-21T20:24:44.000Z</time></trkpt>
        <trkpt lat="28.714489" lon="105.0573"><ele>421.36386</ele><time>2026-07-21T20:24:46.000Z</time></trkpt>
        <trkpt lat="28.714393" lon="105.057304"><ele>421.02463</ele><time>2026-07-21T20:24:48.000Z</time></trkpt>
        <trkpt lat="28.714279" lon="105.057293"><ele>421.0058</ele><time>2026-07-21T20:24:50.000Z</time></trkpt>
        <trkpt lat="28.714149" lon="105.057267"><ele>421.21564</ele><time>2026-07-21T20:24:52.000Z</time></trkpt>
        <trkpt lat="28.714009" lon="105.057231"><ele>420.77142</ele><time>2026-07-21T20:24:54.000Z</time></trkpt>
        <trkpt lat="28.713865" lon="105.057191"><ele>420.61734</ele><time>2026-07-21T20:24:56.000Z</time></trkpt>
        <trkpt lat="28.713729" lon="105.057155"><ele>420.061</ele><time>2026-07-21T20:24:58.000Z</time></trkpt>
        <trkpt lat="28.713604" lon="105.057137"><ele>418.0644</ele><time>2026-07-21T20:25:00.000Z</time></trkpt>
        <trkpt lat="28.713485" lon="105.057119"><ele>416.622</ele><time>2026-07-21T20:25:02.000Z</time></trkpt>
        <trkpt lat="28.713362" lon="105.057141"><ele>415.01886</ele><time>2026-07-21T20:25:04.000Z</time></trkpt>
        <trkpt lat="28.71324" lon="105.057176"><ele>413.27075</ele><time>2026-07-21T20:25:06.000Z</time></trkpt>
        <trkpt lat="28.71312" lon="105.057211"><ele>411.92432</ele><time>2026-07-21T20:25:08.000Z</time></trkpt>
        <trkpt lat="28.71302" lon="105.05728"><ele>410.75305</ele><time>2026-07-21T20:25:10.000Z</time></trkpt>
        <trkpt lat="28.712957" lon="105.057379"><ele>410.2617</ele><time>2026-07-21T20:25:13.000Z</time></trkpt>
        <trkpt lat="28.712944" lon="105.057509"><ele>411.1431</ele><time>2026-07-21T20:25:15.000Z</time></trkpt>
        <trkpt lat="28.712981" lon="105.057666"><ele>411.7804</ele><time>2026-07-21T20:25:17.000Z</time></trkpt>
        <trkpt lat="28.713196" lon="105.057997"><ele>412.98364</ele><time>2026-07-21T20:25:19.000Z</time></trkpt>
        <trkpt lat="28.713207" lon="105.058016"><ele>414.94193</ele><time>2026-07-21T20:25:21.000Z</time></trkpt>
        <trkpt lat="28.713217" lon="105.058044"><ele>416.83612</ele><time>2026-07-21T20:25:23.000Z</time></trkpt>
        <trkpt lat="28.713256" lon="105.058149"><ele>417.32507</ele><time>2026-07-21T20:25:25.000Z</time></trkpt>
        <trkpt lat="28.713276" lon="105.05834"><ele>419.666</ele><time>2026-07-21T20:25:27.000Z</time></trkpt>
        <trkpt lat="28.713237" lon="105.058522"><ele>422.48438</ele><time>2026-07-21T20:25:29.000Z</time></trkpt>
        <trkpt lat="28.713146" lon="105.058625"><ele>425.16653</ele><time>2026-07-21T20:25:31.000Z</time></trkpt>
        <trkpt lat="28.713027" lon="105.058653"><ele>427.25244</ele><time>2026-07-21T20:25:33.000Z</time></trkpt>
        <trkpt lat="28.712892" lon="105.058623"><ele>427.6358</ele><time>2026-07-21T20:25:35.000Z</time></trkpt>
        <trkpt lat="28.712754" lon="105.058592"><ele>428.2817</ele><time>2026-07-21T20:25:37.000Z</time></trkpt>
        <trkpt lat="28.712628" lon="105.05858"><ele>428.06995</ele><time>2026-07-21T20:25:39.000Z</time></trkpt>
        <trkpt lat="28.712522" lon="105.058569"><ele>427.287</ele><time>2026-07-21T20:25:41.000Z</time></trkpt>
        <trkpt lat="28.712454" lon="105.058614"><ele>427.534</ele><time>2026-07-21T20:25:43.000Z</time></trkpt>
        <trkpt lat="28.712448" lon="105.058686"><ele>426.9983</ele><time>2026-07-21T20:25:45.000Z</time></trkpt>
        <trkpt lat="28.712512" lon="105.058761"><ele>427.0465</ele><time>2026-07-21T20:25:47.000Z</time></trkpt>
        <trkpt lat="28.712583" lon="105.058862"><ele>426.92505</ele><time>2026-07-21T20:25:49.000Z</time></trkpt>
        <trkpt lat="28.71266" lon="105.058979"><ele>427.04465</ele><time>2026-07-21T20:25:51.000Z</time></trkpt>
        <trkpt lat="28.71275" lon="105.059118"><ele>424.38556</ele><time>2026-07-21T20:25:53.000Z</time></trkpt>
        <trkpt lat="28.712838" lon="105.059276"><ele>422.3979</ele><time>2026-07-21T20:25:55.000Z</time></trkpt>
        <trkpt lat="28.712923" lon="105.059428"><ele>420.75815</ele><time>2026-07-21T20:25:57.000Z</time></trkpt>
        <trkpt lat="28.712944" lon="105.059583"><ele>419.0422</ele><time>2026-07-21T20:25:59.000Z</time></trkpt>
        <trkpt lat="28.712883" lon="105.059715"><ele>416.22424</ele><time>2026-07-21T20:26:01.000Z</time></trkpt>
        <trkpt lat="28.712826" lon="105.059864"><ele>414.1424</ele><time>2026-07-21T20:26:03.000Z</time></trkpt>
        <trkpt lat="28.712776" lon="105.059995"><ele>413.9142</ele><time>2026-07-21T20:26:05.000Z</time></trkpt>
        <trkpt lat="28.712803" lon="105.060113"><ele>414.40994</ele><time>2026-07-21T20:26:07.000Z</time></trkpt>
        <trkpt lat="28.71289" lon="105.060218"><ele>415.5991</ele><time>2026-07-21T20:26:09.000Z</time></trkpt>
        <trkpt lat="28.712982" lon="105.060336"><ele>417.46432</ele><time>2026-07-21T20:26:11.000Z</time></trkpt>
        <trkpt lat="28.71306" lon="105.060437"><ele>419.0596</ele><time>2026-07-21T20:26:13.000Z</time></trkpt>
        <trkpt lat="28.713091" lon="105.060539"><ele>419.861</ele><time>2026-07-21T20:26:15.000Z</time></trkpt>
        <trkpt lat="28.713076" lon="105.060654"><ele>421.77618</ele><time>2026-07-21T20:26:17.000Z</time></trkpt>
        <trkpt lat="28.713009" lon="105.06077"><ele>422.325</ele><time>2026-07-21T20:26:19.000Z</time></trkpt>
        <trkpt lat="28.712933" lon="105.060901"><ele>423.09402</ele><time>2026-07-21T20:26:21.000Z</time></trkpt>
        <trkpt lat="28.712833" lon="105.061014"><ele>422.18564</ele><time>2026-07-21T20:26:23.000Z</time></trkpt>
        <trkpt lat="28.71274" lon="105.061137"><ele>420.93607</ele><time>2026-07-21T20:26:25.000Z</time></trkpt>
        <trkpt lat="28.712647" lon="105.061258"><ele>417.4302</ele><time>2026-07-21T20:26:27.000Z</time></trkpt>
        <trkpt lat="28.712589" lon="105.061392"><ele>414.63647</ele><time>2026-07-21T20:26:28.000Z</time></trkpt>
        <trkpt lat="28.712581" lon="105.061534"><ele>412.68115</ele><time>2026-07-21T20:26:30.000Z</time></trkpt>
        <trkpt lat="28.712634" lon="105.061664"><ele>409.6547</ele><time>2026-07-21T20:26:32.000Z</time></trkpt>
        <trkpt lat="28.712744" lon="105.061766"><ele>408.31683</ele><time>2026-07-21T20:26:34.000Z</time></trkpt>
        <trkpt lat="28.712903" lon="105.061842"><ele>405.52997</ele><time>2026-07-21T20:26:36.000Z</time></trkpt>
        <trkpt lat="28.713237" lon="105.061855"><ele>403.0937</ele><time>2026-07-21T20:26:38.000Z</time></trkpt>
        <trkpt lat="28.713252" lon="105.061864"><ele>401.7698</ele><time>2026-07-21T20:26:40.000Z</time></trkpt>
        <trkpt lat="28.713263" lon="105.06188"><ele>401.12015</ele><time>2026-07-21T20:26:42.000Z</time></trkpt>
        <trkpt lat="28.713317" lon="105.06196"><ele>401.7963</ele><time>2026-07-21T20:26:44.000Z</time></trkpt>
        <trkpt lat="28.713372" lon="105.06211"><ele>402.454</ele><time>2026-07-21T20:26:46.000Z</time></trkpt>
        <trkpt lat="28.713358" lon="105.062353"><ele>403.3818</ele><time>2026-07-21T20:26:48.000Z</time></trkpt>
        <trkpt lat="28.713351" lon="105.062359"><ele>404.40344</ele><time>2026-07-21T20:26:50.000Z</time></trkpt>
        <trkpt lat="28.713333" lon="105.062364"><ele>404.7832</ele><time>2026-07-21T20:26:52.000Z</time></trkpt>
        <trkpt lat="28.713223" lon="105.062383"><ele>405.5855</ele><time>2026-07-21T20:26:54.000Z</time></trkpt>
        <trkpt lat="28.712686" lon="105.062476"><ele>406.54895</ele><time>2026-07-21T20:26:56.000Z</time></trkpt>
        <trkpt lat="28.712656" lon="105.062481"><ele>407.6456</ele><time>2026-07-21T20:26:58.000Z</time></trkpt>
        <trkpt lat="28.712628" lon="105.062489"><ele>408.2314</ele><time>2026-07-21T20:27:01.000Z</time></trkpt>
        <trkpt lat="28.71252" lon="105.062516"><ele>408.47345</ele><time>2026-07-21T20:27:03.000Z</time></trkpt>
        <trkpt lat="28.71209" lon="105.062752"><ele>409.18518</ele><time>2026-07-21T20:27:05.000Z</time></trkpt>
        <trkpt lat="28.712065" lon="105.062773"><ele>409.29578</ele><time>2026-07-21T20:27:07.000Z</time></trkpt>
        <trkpt lat="28.712048" lon="105.062794"><ele>409.21524</ele><time>2026-07-21T20:27:09.000Z</time></trkpt>
        <trkpt lat="28.711965" lon="105.062876"><ele>409.25418</ele><time>2026-07-21T20:27:11.000Z</time></trkpt>
        <trkpt lat="28.711593" lon="105.063244"><ele>409.69434</ele><time>2026-07-21T20:27:13.000Z</time></trkpt>
        <trkpt lat="28.711564" lon="105.063261"><ele>409.94345</ele><time>2026-07-21T20:27:15.000Z</time></trkpt>
        <trkpt lat="28.711542" lon="105.063261"><ele>409.58484</ele><time>2026-07-21T20:27:17.000Z</time></trkpt>
        <trkpt lat="28.71144" lon="105.063261"><ele>409.21146</ele><time>2026-07-21T20:27:19.000Z</time></trkpt>
        <trkpt lat="28.711043" lon="105.063078"><ele>408.57123</ele><time>2026-07-21T20:27:21.000Z</time></trkpt>
        <trkpt lat="28.711023" lon="105.06306"><ele>407.67438</ele><time>2026-07-21T20:27:23.000Z</time></trkpt>
        <trkpt lat="28.711001" lon="105.063032"><ele>406.8693</ele><time>2026-07-21T20:27:25.000Z</time></trkpt>
        <trkpt lat="28.71091" lon="105.062909"><ele>405.92468</ele><time>2026-07-21T20:27:27.000Z</time></trkpt>
        <trkpt lat="28.710544" lon="105.062414"><ele>405.02295</ele><time>2026-07-21T20:27:29.000Z</time></trkpt>
        <trkpt lat="28.710517" lon="105.062383"><ele>404.59293</ele><time>2026-07-21T20:27:31.000Z</time></trkpt>
        <trkpt lat="28.710495" lon="105.062365"><ele>404.50418</ele><time>2026-07-21T20:27:33.000Z</time></trkpt>
        <trkpt lat="28.710402" lon="105.062289"><ele>404.69473</ele><time>2026-07-21T20:27:35.000Z</time></trkpt>
        <trkpt lat="28.709871" lon="105.062029"><ele>405.11087</ele><time>2026-07-21T20:27:37.000Z</time></trkpt>
        <trkpt lat="28.709833" lon="105.062016"><ele>405.5942</ele><time>2026-07-21T20:27:39.000Z</time></trkpt>
        <trkpt lat="28.709802" lon="105.062011"><ele>405.5941</ele><time>2026-07-21T20:27:41.000Z</time></trkpt>
        <trkpt lat="28.709674" lon="105.061992"><ele>405.46573</ele><time>2026-07-21T20:27:43.000Z</time></trkpt>
        <trkpt lat="28.709076" lon="105.061907"><ele>404.6455</ele><time>2026-07-21T20:27:45.000Z</time></trkpt>
        <trkpt lat="28.709033" lon="105.061904"><ele>403.95255</ele><time>2026-07-21T20:27:47.000Z</time></trkpt>
        <trkpt lat="28.709008" lon="105.061905"><ele>403.82257</ele><time>2026-07-21T20:27:49.000Z</time></trkpt>
        <trkpt lat="28.708896" lon="105.061916"><ele>403.44995</ele><time>2026-07-21T20:27:51.000Z</time></trkpt>
        <trkpt lat="28.708327" lon="105.061973"><ele>402.83264</ele><time>2026-07-21T20:27:53.000Z</time></trkpt>
        <trkpt lat="28.708286" lon="105.061975"><ele>402.2228</ele><time>2026-07-21T20:27:55.000Z</time></trkpt>
        <trkpt lat="28.708265" lon="105.061973"><ele>402.06287</ele><time>2026-07-21T20:27:57.000Z</time></trkpt>
      </trkseg>
      <trkseg>
        <trkpt lat="28.707965" lon="105.061915"><ele>402.5624</ele><time>2026-07-21T20:28:06.000Z</time></trkpt>
        <trkpt lat="28.707944" lon="105.061895"><ele>402.71786</ele><time>2026-07-21T20:28:20.000Z</time></trkpt>
        <trkpt lat="28.707922" lon="105.061895"><ele>402.88828</ele><time>2026-07-21T20:28:22.000Z</time></trkpt>
        <trkpt lat="28.70792" lon="105.061896"><ele>403.12527</ele><time>2026-07-21T20:28:24.000Z</time></trkpt>
      </trkseg>
      <trkseg>
        <trkpt lat="28.711504" lon="105.063351"><ele>407.41824</ele><time>2026-07-21T20:29:54.000Z</time></trkpt>
        <trkpt lat="28.711519" lon="105.063346"><ele>407.39352</ele><time>2026-07-21T20:30:05.000Z</time></trkpt>
        <trkpt lat="28.711521" lon="105.063346"><ele>407.10217</ele><time>2026-07-21T20:30:07.000Z</time></trkpt>
        <trkpt lat="28.711523" lon="105.063345"><ele>407.3888</ele><time>2026-07-21T20:30:09.000Z</time></trkpt>
        <trkpt lat="28.711499" lon="105.063337"><ele>407.7625</ele><time>2026-07-21T20:30:19.000Z</time></trkpt>
        <trkpt lat="28.711468" lon="105.063327"><ele>407.6632</ele><time>2026-07-21T20:30:21.000Z</time></trkpt>
        <trkpt lat="28.711466" lon="105.063326"><ele>407.95166</ele><time>2026-07-21T20:30:23.000Z</time></trkpt>
        <trkpt lat="28.711466" lon="105.063326"><ele>408.35184</ele><time>2026-07-21T20:30:25.000Z</time></trkpt>
        <trkpt lat="28.711489" lon="105.063294"><ele>407.52875</ele><time>2026-07-21T20:30:29.000Z</time></trkpt>
        <trkpt lat="28.711504" lon="105.063268"><ele>407.27835</ele><time>2026-07-21T20:30:31.000Z</time></trkpt>
        <trkpt lat="28.711512" lon="105.063246"><ele>407.52225</ele><time>2026-07-21T20:30:33.000Z</time></trkpt>
        <trkpt lat="28.711516" lon="105.06323"><ele>408.4036</ele><time>2026-07-21T20:30:35.000Z</time></trkpt>
        <trkpt lat="28.711518" lon="105.063222"><ele>408.23383</ele><time>2026-07-21T20:30:37.000Z</time></trkpt>
        <trkpt lat="28.711516" lon="105.063215"><ele>408.0476</ele><time>2026-07-21T20:30:39.000Z</time></trkpt>
        <trkpt lat="28.711507" lon="105.063193"><ele>407.46982</ele><time>2026-07-21T20:30:43.000Z</time></trkpt>
        <trkpt lat="28.711502" lon="105.06319"><ele>407.3328</ele><time>2026-07-21T20:30:45.000Z</time></trkpt>
        <trkpt lat="28.711496" lon="105.063188"><ele>407.53128</ele><time>2026-07-21T20:30:47.000Z</time></trkpt>
        <trkpt lat="28.711489" lon="105.063187"><ele>407.49323</ele><time>2026-07-21T20:30:49.000Z</time></trkpt>
      </trkseg>
      <trkseg>
        <trkpt lat="28.711383" lon="105.063282"><ele>408.57874</ele><time>2026-07-21T23:12:48.000Z</time></trkpt>
        <trkpt lat="28.711279" lon="105.063224"><ele>407.44565</ele><time>2026-07-21T23:12:54.000Z</time></trkpt>
        <trkpt lat="28.710895" lon="105.062869"><ele>406.7667</ele><time>2026-07-21T23:12:56.000Z</time></trkpt>
        <trkpt lat="28.710869" lon="105.062839"><ele>405.87283</ele><time>2026-07-21T23:12:58.000Z</time></trkpt>
        <trkpt lat="28.710836" lon="105.062798"><ele>405.17584</ele><time>2026-07-21T23:13:00.000Z</time></trkpt>
        <trkpt lat="28.710446" lon="105.062301"><ele>404.73193</ele><time>2026-07-21T23:13:02.000Z</time></trkpt>
        <trkpt lat="28.710413" lon="105.062269"><ele>404.6776</ele><time>2026-07-21T23:13:04.000Z</time></trkpt>
        <trkpt lat="28.710387" lon="105.062253"><ele>404.60715</ele><time>2026-07-21T23:13:06.000Z</time></trkpt>
        <trkpt lat="28.710284" lon="105.06219"><ele>404.71893</ele><time>2026-07-21T23:13:08.000Z</time></trkpt>
        <trkpt lat="28.709833" lon="105.062008"><ele>405.16763</ele><time>2026-07-21T23:13:10.000Z</time></trkpt>
        <trkpt lat="28.7098" lon="105.061997"><ele>405.7091</ele><time>2026-07-21T23:13:12.000Z</time></trkpt>
        <trkpt lat="28.709778" lon="105.061993"><ele>405.68964</ele><time>2026-07-21T23:13:14.000Z</time></trkpt>
        <trkpt lat="28.709685" lon="105.061977"><ele>405.47958</ele><time>2026-07-21T23:13:16.000Z</time></trkpt>
        <trkpt lat="28.709207" lon="105.061893"><ele>405.0313</ele><time>2026-07-21T23:13:18.000Z</time></trkpt>
        <trkpt lat="28.709172" lon="105.061889"><ele>404.8537</ele><time>2026-07-21T23:13:20.000Z</time></trkpt>
        <trkpt lat="28.70915" lon="105.061888"><ele>404.39575</ele><time>2026-07-21T23:13:22.000Z</time></trkpt>
        <trkpt lat="28.709062" lon="105.061891"><ele>404.3056</ele><time>2026-07-21T23:13:24.000Z</time></trkpt>
        <trkpt lat="28.708621" lon="105.061905"><ele>404.3211</ele><time>2026-07-21T23:13:26.000Z</time></trkpt>
        <trkpt lat="28.708589" lon="105.061907"><ele>403.9507</ele><time>2026-07-21T23:13:28.000Z</time></trkpt>
        <trkpt lat="28.708563" lon="105.06191"><ele>403.68933</ele><time>2026-07-21T23:13:30.000Z</time></trkpt>
        <trkpt lat="28.708463" lon="105.061919"><ele>403.63028</ele><time>2026-07-21T23:13:32.000Z</time></trkpt>
        <trkpt lat="28.708293" lon="105.061918"><ele>403.68176</ele><time>2026-07-21T23:13:34.000Z</time></trkpt>
        <trkpt lat="28.708013" lon="105.061917"><ele>403.5499</ele><time>2026-07-21T23:13:37.000Z</time></trkpt>
        <trkpt lat="28.707999" lon="105.061916"><ele>403.65796</ele><time>2026-07-21T23:13:39.000Z</time></trkpt>
        <trkpt lat="28.707998" lon="105.061915"><ele>403.66086</ele><time>2026-07-21T23:13:41.000Z</time></trkpt>
        <trkpt lat="28.70798" lon="105.0619"><ele>403.94122</ele><time>2026-07-21T23:13:45.000Z</time></trkpt>
        <trkpt lat="28.707964" lon="105.061883"><ele>404.02905</ele><time>2026-07-21T23:13:47.000Z</time></trkpt>
        <trkpt lat="28.707939" lon="105.06186"><ele>403.523</ele><time>2026-07-21T23:13:49.000Z</time></trkpt>
        <trkpt lat="28.707911" lon="105.061834"><ele>402.15106</ele><time>2026-07-21T23:13:51.000Z</time></trkpt>
        <trkpt lat="28.707777" lon="105.061913"><ele>399.464</ele><time>2026-07-21T23:13:55.000Z</time></trkpt>
        <trkpt lat="28.707639" lon="105.062169"><ele>399.23697</ele><time>2026-07-21T23:13:57.000Z</time></trkpt>
        <trkpt lat="28.707632" lon="105.062186"><ele>399.62277</ele><time>2026-07-21T23:13:59.000Z</time></trkpt>
        <trkpt lat="28.707629" lon="105.062199"><ele>399.6577</ele><time>2026-07-21T23:14:01.000Z</time></trkpt>
        <trkpt lat="28.707627" lon="105.062255"><ele>399.30844</ele><time>2026-07-21T23:14:03.000Z</time></trkpt>
        <trkpt lat="28.707618" lon="105.062544"><ele>399.03488</ele><time>2026-07-21T23:14:05.000Z</time></trkpt>
        <trkpt lat="28.707618" lon="105.062564"><ele>398.99655</ele><time>2026-07-21T23:14:07.000Z</time></trkpt>
        <trkpt lat="28.707616" lon="105.062585"><ele>398.43793</ele><time>2026-07-21T23:14:09.000Z</time></trkpt>
        <trkpt lat="28.707602" lon="105.062671"><ele>397.63373</ele><time>2026-07-21T23:14:11.000Z</time></trkpt>
        <trkpt lat="28.707575" lon="105.062835"><ele>396.66034</ele><time>2026-07-21T23:14:13.000Z</time></trkpt>
        <trkpt lat="28.707499" lon="105.063003"><ele>395.12024</ele><time>2026-07-21T23:14:15.000Z</time></trkpt>
        <trkpt lat="28.70743" lon="105.063153"><ele>393.95117</ele><time>2026-07-21T23:14:17.000Z</time></trkpt>
        <trkpt lat="28.707336" lon="105.063288"><ele>393.41296</ele><time>2026-07-21T23:14:19.000Z</time></trkpt>
        <trkpt lat="28.707335" lon="105.063299"><ele>391.95142</ele><time>2026-07-21T23:14:21.000Z</time></trkpt>
        <trkpt lat="28.707335" lon="105.06332"><ele>389.55737</ele><time>2026-07-21T23:14:23.000Z</time></trkpt>
        <trkpt lat="28.707326" lon="105.063411"><ele>388.8655</ele><time>2026-07-21T23:14:25.000Z</time></trkpt>
        <trkpt lat="28.707311" lon="105.063575"><ele>388.3446</ele><time>2026-07-21T23:14:27.000Z</time></trkpt>
        <trkpt lat="28.707243" lon="105.06376"><ele>387.49918</ele><time>2026-07-21T23:14:29.000Z</time></trkpt>
        <trkpt lat="28.707026" lon="105.064009"><ele>386.81055</ele><time>2026-07-21T23:14:31.000Z</time></trkpt>
        <trkpt lat="28.707011" lon="105.064026"><ele>385.8309</ele><time>2026-07-21T23:14:33.000Z</time></trkpt>
        <trkpt lat="28.706996" lon="105.064047"><ele>384.52032</ele><time>2026-07-21T23:14:35.000Z</time></trkpt>
        <trkpt lat="28.706949" lon="105.064128"><ele>383.03247</ele><time>2026-07-21T23:14:37.000Z</time></trkpt>
        <trkpt lat="28.706874" lon="105.064258"><ele>382.0137</ele><time>2026-07-21T23:14:39.000Z</time></trkpt>
        <trkpt lat="28.706848" lon="105.064511"><ele>380.60278</ele><time>2026-07-21T23:14:41.000Z</time></trkpt>
        <trkpt lat="28.706852" lon="105.064528"><ele>378.3077</ele><time>2026-07-21T23:14:43.000Z</time></trkpt>
        <trkpt lat="28.706862" lon="105.064546"><ele>375.58627</ele><time>2026-07-21T23:14:45.000Z</time></trkpt>
        <trkpt lat="28.70691" lon="105.064632"><ele>373.8014</ele><time>2026-07-21T23:14:47.000Z</time></trkpt>
        <trkpt lat="28.707001" lon="105.064789"><ele>372.2325</ele><time>2026-07-21T23:14:49.000Z</time></trkpt>
        <trkpt lat="28.707097" lon="105.065133"><ele>371.68448</ele><time>2026-07-21T23:14:51.000Z</time></trkpt>
        <trkpt lat="28.707103" lon="105.065157"><ele>371.2819</ele><time>2026-07-21T23:14:53.000Z</time></trkpt>
        <trkpt lat="28.707109" lon="105.065181"><ele>370.0356</ele><time>2026-07-21T23:14:55.000Z</time></trkpt>
        <trkpt lat="28.707132" lon="105.065285"><ele>368.53845</ele><time>2026-07-21T23:14:57.000Z</time></trkpt>
        <trkpt lat="28.707226" lon="105.065725"><ele>368.8145</ele><time>2026-07-21T23:14:59.000Z</time></trkpt>
        <trkpt lat="28.707233" lon="105.065756"><ele>369.48337</ele><time>2026-07-21T23:15:01.000Z</time></trkpt>
        <trkpt lat="28.70724" lon="105.065777"><ele>369.07315</ele><time>2026-07-21T23:15:03.000Z</time></trkpt>
        <trkpt lat="28.707273" lon="105.065858"><ele>367.38605</ele><time>2026-07-21T23:15:05.000Z</time></trkpt>
        <trkpt lat="28.707337" lon="105.066001"><ele>366.06464</ele><time>2026-07-21T23:15:07.000Z</time></trkpt>
        <trkpt lat="28.707405" lon="105.066169"><ele>365.40845</ele><time>2026-07-21T23:15:09.000Z</time></trkpt>
        <trkpt lat="28.707469" lon="105.066325"><ele>364.73328</ele><time>2026-07-21T23:15:11.000Z</time></trkpt>
        <trkpt lat="28.707491" lon="105.066484"><ele>364.09912</ele><time>2026-07-21T23:15:13.000Z</time></trkpt>
        <trkpt lat="28.707506" lon="105.066636"><ele>363.60135</ele><time>2026-07-21T23:15:15.000Z</time></trkpt>
        <trkpt lat="28.707515" lon="105.066782"><ele>363.09787</ele><time>2026-07-21T23:15:17.000Z</time></trkpt>
        <trkpt lat="28.707519" lon="105.066923"><ele>362.49915</ele><time>2026-07-21T23:15:19.000Z</time></trkpt>
        <trkpt lat="28.707518" lon="105.06705"><ele>362.04678</ele><time>2026-07-21T23:15:21.000Z</time></trkpt>
        <trkpt lat="28.707512" lon="105.067147"><ele>361.5342</ele><time>2026-07-21T23:15:23.000Z</time></trkpt>
        <trkpt lat="28.707502" lon="105.067223"><ele>360.67697</ele><time>2026-07-21T23:15:25.000Z</time></trkpt>
        <trkpt lat="28.707489" lon="105.067279"><ele>359.9072</ele><time>2026-07-21T23:15:27.000Z</time></trkpt>
        <trkpt lat="28.707478" lon="105.067302"><ele>359.67526</ele><time>2026-07-21T23:15:29.000Z</time></trkpt>
        <trkpt lat="28.707478" lon="105.067308"><ele>359.22403</ele><time>2026-07-21T23:15:31.000Z</time></trkpt>
        <trkpt lat="28.707479" lon="105.067237"><ele>359.57877</ele><time>2026-07-21T23:15:41.000Z</time></trkpt>
        <trkpt lat="28.707479" lon="105.067237"><ele>359.68903</ele><time>2026-07-21T23:15:43.000Z</time></trkpt>
        <trkpt lat="28.707472" lon="105.067247"><ele>359.58496</ele><time>2026-07-21T23:15:45.000Z</time></trkpt>
        <trkpt lat="28.707442" lon="105.067289"><ele>358.50232</ele><time>2026-07-21T23:17:05.000Z</time></trkpt>
        <trkpt lat="28.707342" lon="105.067293"><ele>357.07526</ele><time>2026-07-21T23:17:20.000Z</time></trkpt>
        <trkpt lat="28.70732" lon="105.067288"><ele>356.86032</ele><time>2026-07-21T23:17:22.000Z</time></trkpt>
        <trkpt lat="28.7073" lon="105.067284"><ele>356.49594</ele><time>2026-07-21T23:17:24.000Z</time></trkpt>
        <trkpt lat="28.707299" lon="105.067283"><ele>356.1371</ele><time>2026-07-21T23:17:26.000Z</time></trkpt>
        <trkpt lat="28.707282" lon="105.067276"><ele>355.3081</ele><time>2026-07-21T23:17:30.000Z</time></trkpt>
        <trkpt lat="28.707263" lon="105.067268"><ele>355.38315</ele><time>2026-07-21T23:17:32.000Z</time></trkpt>
        <trkpt lat="28.70724" lon="105.067258"><ele>354.7869</ele><time>2026-07-21T23:17:34.000Z</time></trkpt>
        <trkpt lat="28.707217" lon="105.067245"><ele>354.42728</ele><time>2026-07-21T23:17:36.000Z</time></trkpt>
        <trkpt lat="28.707197" lon="105.06723"><ele>354.19135</ele><time>2026-07-21T23:17:38.000Z</time></trkpt>
        <trkpt lat="28.707179" lon="105.067215"><ele>353.69238</ele><time>2026-07-21T23:17:40.000Z</time></trkpt>
        <trkpt lat="28.707164" lon="105.0672"><ele>353.48557</ele><time>2026-07-21T23:17:42.000Z</time></trkpt>
        <trkpt lat="28.707149" lon="105.067185"><ele>352.9991</ele><time>2026-07-21T23:17:44.000Z</time></trkpt>
        <trkpt lat="28.707136" lon="105.06717"><ele>352.35797</ele><time>2026-07-21T23:17:46.000Z</time></trkpt>
        <trkpt lat="28.707124" lon="105.067155"><ele>352.20117</ele><time>2026-07-21T23:17:48.000Z</time></trkpt>
        <trkpt lat="28.707112" lon="105.06714"><ele>352.36075</ele><time>2026-07-21T23:17:50.000Z</time></trkpt>
        <trkpt lat="28.7071" lon="105.067125"><ele>351.98907</ele><time>2026-07-21T23:17:52.000Z</time></trkpt>
        <trkpt lat="28.707086" lon="105.067108"><ele>351.5491</ele><time>2026-07-21T23:17:54.000Z</time></trkpt>
        <trkpt lat="28.707074" lon="105.067096"><ele>349.9431</ele><time>2026-07-21T23:17:56.000Z</time></trkpt>
        <trkpt lat="28.707062" lon="105.067085"><ele>350.35593</ele><time>2026-07-21T23:17:58.000Z</time></trkpt>
        <trkpt lat="28.707054" lon="105.067077"><ele>350.44077</ele><time>2026-07-21T23:18:00.000Z</time></trkpt>
        <trkpt lat="28.707042" lon="105.067066"><ele>349.3109</ele><time>2026-07-21T23:18:02.000Z</time></trkpt>
        <trkpt lat="28.70703" lon="105.067053"><ele>349.16144</ele><time>2026-07-21T23:18:04.000Z</time></trkpt>
        <trkpt lat="28.707016" lon="105.067038"><ele>348.68912</ele><time>2026-07-21T23:18:06.000Z</time></trkpt>
        <trkpt lat="28.707001" lon="105.067022"><ele>348.15894</ele><time>2026-07-21T23:18:08.000Z</time></trkpt>
        <trkpt lat="28.706985" lon="105.067004"><ele>347.4789</ele><time>2026-07-21T23:18:10.000Z</time></trkpt>
        <trkpt lat="28.706969" lon="105.066986"><ele>347.6342</ele><time>2026-07-21T23:18:12.000Z</time></trkpt>
        <trkpt lat="28.706952" lon="105.066967"><ele>346.60074</ele><time>2026-07-21T23:18:14.000Z</time></trkpt>
        <trkpt lat="28.706936" lon="105.066947"><ele>346.0339</ele><time>2026-07-21T23:18:16.000Z</time></trkpt>
        <trkpt lat="28.706922" lon="105.066928"><ele>345.5575</ele><time>2026-07-21T23:18:18.000Z</time></trkpt>
        <trkpt lat="28.706907" lon="105.066908"><ele>345.4288</ele><time>2026-07-21T23:18:20.000Z</time></trkpt>
        <trkpt lat="28.706891" lon="105.066889"><ele>344.41544</ele><time>2026-07-21T23:18:22.000Z</time></trkpt>
        <trkpt lat="28.706876" lon="105.06687"><ele>343.72955</ele><time>2026-07-21T23:18:24.000Z</time></trkpt>
        <trkpt lat="28.706861" lon="105.066853"><ele>343.34317</ele><time>2026-07-21T23:18:26.000Z</time></trkpt>
        <trkpt lat="28.706847" lon="105.066836"><ele>343.77008</ele><time>2026-07-21T23:18:28.000Z</time></trkpt>
        <trkpt lat="28.706835" lon="105.066819"><ele>343.9014</ele><time>2026-07-21T23:18:30.000Z</time></trkpt>
        <trkpt lat="28.706824" lon="105.066802"><ele>344.3996</ele><time>2026-07-21T23:18:32.000Z</time></trkpt>
        <trkpt lat="28.706816" lon="105.066786"><ele>343.60645</ele><time>2026-07-21T23:18:34.000Z</time></trkpt>
        <trkpt lat="28.706807" lon="105.066771"><ele>343.23737</ele><time>2026-07-21T23:18:36.000Z</time></trkpt>
        <trkpt lat="28.706801" lon="105.066756"><ele>343.14264</ele><time>2026-07-21T23:18:38.000Z</time></trkpt>
        <trkpt lat="28.706796" lon="105.066749"><ele>343.35117</ele><time>2026-07-21T23:18:40.000Z</time></trkpt>
        <trkpt lat="28.706795" lon="105.066749"><ele>343.7454</ele><time>2026-07-21T23:18:44.000Z</time></trkpt>
        <trkpt lat="28.706769" lon="105.066749"><ele>343.6227</ele><time>2026-07-21T23:18:46.000Z</time></trkpt>
        <trkpt lat="28.706769" lon="105.066748"><ele>344.6201</ele><time>2026-07-21T23:18:48.000Z</time></trkpt>
        <trkpt lat="28.706768" lon="105.066745"><ele>344.44785</ele><time>2026-07-21T23:18:50.000Z</time></trkpt>
        <trkpt lat="28.706752" lon="105.066697"><ele>344.22748</ele><time>2026-07-21T23:18:54.000Z</time></trkpt>
        <trkpt lat="28.70674" lon="105.066671"><ele>343.39618</ele><time>2026-07-21T23:18:56.000Z</time></trkpt>
        <trkpt lat="28.706724" lon="105.066647"><ele>342.3735</ele><time>2026-07-21T23:18:58.000Z</time></trkpt>
        <trkpt lat="28.706707" lon="105.066626"><ele>342.07443</ele><time>2026-07-21T23:19:00.000Z</time></trkpt>
        <trkpt lat="28.70669" lon="105.066607"><ele>341.6396</ele><time>2026-07-21T23:19:02.000Z</time></trkpt>
        <trkpt lat="28.706673" lon="105.066591"><ele>341.56696</ele><time>2026-07-21T23:19:04.000Z</time></trkpt>
        <trkpt lat="28.706658" lon="105.066581"><ele>341.47336</ele><time>2026-07-21T23:19:06.000Z</time></trkpt>
        <trkpt lat="28.706641" lon="105.066571"><ele>341.98557</ele><time>2026-07-21T23:19:08.000Z</time></trkpt>
        <trkpt lat="28.706624" lon="105.066563"><ele>341.3455</ele><time>2026-07-21T23:19:10.000Z</time></trkpt>
        <trkpt lat="28.706603" lon="105.066556"><ele>341.5571</ele><time>2026-07-21T23:19:12.000Z</time></trkpt>
        <trkpt lat="28.706581" lon="105.066549"><ele>341.33325</ele><time>2026-07-21T23:19:14.000Z</time></trkpt>
        <trkpt lat="28.706557" lon="105.066544"><ele>340.96597</ele><time>2026-07-21T23:19:16.000Z</time></trkpt>
        <trkpt lat="28.706534" lon="105.066541"><ele>340.70944</ele><time>2026-07-21T23:19:18.000Z</time></trkpt>
        <trkpt lat="28.706512" lon="105.066538"><ele>339.8277</ele><time>2026-07-21T23:19:20.000Z</time></trkpt>
        <trkpt lat="28.706494" lon="105.066535"><ele>339.213</ele><time>2026-07-21T23:19:22.000Z</time></trkpt>
        <trkpt lat="28.706472" lon="105.066529"><ele>338.5628</ele><time>2026-07-21T23:19:24.000Z</time></trkpt>
        <trkpt lat="28.70645" lon="105.066521"><ele>338.06445</ele><time>2026-07-21T23:19:26.000Z</time></trkpt>
        <trkpt lat="28.706426" lon="105.066509"><ele>337.82755</ele><time>2026-07-21T23:19:28.000Z</time></trkpt>
        <trkpt lat="28.706401" lon="105.066495"><ele>337.37054</ele><time>2026-07-21T23:19:30.000Z</time></trkpt>
        <trkpt lat="28.70638" lon="105.066478"><ele>337.52194</ele><time>2026-07-21T23:19:32.000Z</time></trkpt>
        <trkpt lat="28.706361" lon="105.066461"><ele>336.95154</ele><time>2026-07-21T23:19:34.000Z</time></trkpt>
        <trkpt lat="28.706343" lon="105.066441"><ele>337.27863</ele><time>2026-07-21T23:19:36.000Z</time></trkpt>
        <trkpt lat="28.706327" lon="105.066419"><ele>337.51367</ele><time>2026-07-21T23:19:38.000Z</time></trkpt>
        <trkpt lat="28.706311" lon="105.066394"><ele>336.7954</ele><time>2026-07-21T23:19:40.000Z</time></trkpt>
        <trkpt lat="28.706296" lon="105.066368"><ele>336.30197</ele><time>2026-07-21T23:19:42.000Z</time></trkpt>
        <trkpt lat="28.706283" lon="105.066346"><ele>336.4163</ele><time>2026-07-21T23:19:44.000Z</time></trkpt>
        <trkpt lat="28.706271" lon="105.066327"><ele>335.94684</ele><time>2026-07-21T23:19:46.000Z</time></trkpt>
        <trkpt lat="28.706259" lon="105.066305"><ele>337.49023</ele><time>2026-07-21T23:19:48.000Z</time></trkpt>
        <trkpt lat="28.706247" lon="105.06628"><ele>337.93506</ele><time>2026-07-21T23:19:50.000Z</time></trkpt>
        <trkpt lat="28.706237" lon="105.066255"><ele>337.90048</ele><time>2026-07-21T23:19:52.000Z</time></trkpt>
        <trkpt lat="28.706225" lon="105.066228"><ele>337.55844</ele><time>2026-07-21T23:19:54.000Z</time></trkpt>
        <trkpt lat="28.706214" lon="105.066204"><ele>337.56387</ele><time>2026-07-21T23:19:56.000Z</time></trkpt>
        <trkpt lat="28.706203" lon="105.066181"><ele>337.51306</ele><time>2026-07-21T23:19:58.000Z</time></trkpt>
        <trkpt lat="28.706191" lon="105.066157"><ele>337.48764</ele><time>2026-07-21T23:20:00.000Z</time></trkpt>
        <trkpt lat="28.706179" lon="105.066132"><ele>337.8769</ele><time>2026-07-21T23:20:02.000Z</time></trkpt>
        <trkpt lat="28.706165" lon="105.066108"><ele>338.2346</ele><time>2026-07-21T23:20:04.000Z</time></trkpt>
        <trkpt lat="28.706151" lon="105.06609"><ele>338.843</ele><time>2026-07-21T23:20:06.000Z</time></trkpt>
        <trkpt lat="28.706137" lon="105.066076"><ele>338.87354</ele><time>2026-07-21T23:20:08.000Z</time></trkpt>
        <trkpt lat="28.70612" lon="105.066062"><ele>339.6131</ele><time>2026-07-21T23:20:10.000Z</time></trkpt>
        <trkpt lat="28.7061" lon="105.066048"><ele>339.65323</ele><time>2026-07-21T23:20:12.000Z</time></trkpt>
        <trkpt lat="28.706083" lon="105.066039"><ele>339.1388</ele><time>2026-07-21T23:20:14.000Z</time></trkpt>
        <trkpt lat="28.706064" lon="105.06603"><ele>339.4536</ele><time>2026-07-21T23:20:16.000Z</time></trkpt>
        <trkpt lat="28.706045" lon="105.066026"><ele>338.5693</ele><time>2026-07-21T23:20:18.000Z</time></trkpt>
        <trkpt lat="28.706027" lon="105.066022"><ele>337.738</ele><time>2026-07-21T23:20:20.000Z</time></trkpt>
        <trkpt lat="28.706011" lon="105.06602"><ele>337.57074</ele><time>2026-07-21T23:20:22.000Z</time></trkpt>
        <trkpt lat="28.706" lon="105.066025"><ele>336.94415</ele><time>2026-07-21T23:20:24.000Z</time></trkpt>
        <trkpt lat="28.705988" lon="105.066036"><ele>339.6879</ele><time>2026-07-21T23:20:26.000Z</time></trkpt>
        <trkpt lat="28.705973" lon="105.066051"><ele>340.26</ele><time>2026-07-21T23:20:28.000Z</time></trkpt>
        <trkpt lat="28.705962" lon="105.066062"><ele>340.9625</ele><time>2026-07-21T23:20:30.000Z</time></trkpt>
        <trkpt lat="28.705954" lon="105.066072"><ele>342.40448</ele><time>2026-07-21T23:20:32.000Z</time></trkpt>
        <trkpt lat="28.705946" lon="105.066083"><ele>341.66037</ele><time>2026-07-21T23:20:34.000Z</time></trkpt>
        <trkpt lat="28.705935" lon="105.0661"><ele>342.97763</ele><time>2026-07-21T23:20:36.000Z</time></trkpt>
        <trkpt lat="28.705924" lon="105.066116"><ele>343.32785</ele><time>2026-07-21T23:20:38.000Z</time></trkpt>
        <trkpt lat="28.705911" lon="105.066132"><ele>343.3949</ele><time>2026-07-21T23:20:40.000Z</time></trkpt>
        <trkpt lat="28.705898" lon="105.066146"><ele>343.76895</ele><time>2026-07-21T23:20:42.000Z</time></trkpt>
        <trkpt lat="28.705884" lon="105.066157"><ele>343.2756</ele><time>2026-07-21T23:20:44.000Z</time></trkpt>
        <trkpt lat="28.705866" lon="105.066172"><ele>343.53513</ele><time>2026-07-21T23:20:46.000Z</time></trkpt>
        <trkpt lat="28.705852" lon="105.066187"><ele>343.89517</ele><time>2026-07-21T23:20:48.000Z</time></trkpt>
        <trkpt lat="28.705838" lon="105.066205"><ele>344.5375</ele><time>2026-07-21T23:20:50.000Z</time></trkpt>
        <trkpt lat="28.705825" lon="105.066225"><ele>345.28577</ele><time>2026-07-21T23:20:52.000Z</time></trkpt>
        <trkpt lat="28.705813" lon="105.066245"><ele>345.5487</ele><time>2026-07-21T23:20:54.000Z</time></trkpt>
        <trkpt lat="28.705799" lon="105.066265"><ele>345.05807</ele><time>2026-07-21T23:20:56.000Z</time></trkpt>
        <trkpt lat="28.705785" lon="105.066281"><ele>344.83</ele><time>2026-07-21T23:20:58.000Z</time></trkpt>
        <trkpt lat="28.70577" lon="105.066297"><ele>344.82465</ele><time>2026-07-21T23:21:00.000Z</time></trkpt>
        <trkpt lat="28.705753" lon="105.06631"><ele>344.3927</ele><time>2026-07-21T23:21:02.000Z</time></trkpt>
        <trkpt lat="28.705736" lon="105.066319"><ele>344.3689</ele><time>2026-07-21T23:21:04.000Z</time></trkpt>
        <trkpt lat="28.705719" lon="105.066327"><ele>344.5559</ele><time>2026-07-21T23:21:06.000Z</time></trkpt>
        <trkpt lat="28.705697" lon="105.066336"><ele>344.2914</ele><time>2026-07-21T23:21:08.000Z</time></trkpt>
        <trkpt lat="28.705675" lon="105.066344"><ele>343.98642</ele><time>2026-07-21T23:21:10.000Z</time></trkpt>
        <trkpt lat="28.705656" lon="105.066349"><ele>344.36325</ele><time>2026-07-21T23:21:12.000Z</time></trkpt>
        <trkpt lat="28.705638" lon="105.066354"><ele>344.2224</ele><time>2026-07-21T23:21:14.000Z</time></trkpt>
        <trkpt lat="28.705617" lon="105.066358"><ele>344.6715</ele><time>2026-07-21T23:21:16.000Z</time></trkpt>
        <trkpt lat="28.705596" lon="105.066363"><ele>344.60458</ele><time>2026-07-21T23:21:18.000Z</time></trkpt>
        <trkpt lat="28.705577" lon="105.066367"><ele>345.03958</ele><time>2026-07-21T23:21:20.000Z</time></trkpt>
        <trkpt lat="28.705556" lon="105.066369"><ele>344.71072</ele><time>2026-07-21T23:21:22.000Z</time></trkpt>
        <trkpt lat="28.705532" lon="105.066372"><ele>345.67166</ele><time>2026-07-21T23:21:24.000Z</time></trkpt>
        <trkpt lat="28.705508" lon="105.066372"><ele>345.43777</ele><time>2026-07-21T23:21:26.000Z</time></trkpt>
        <trkpt lat="28.705485" lon="105.066371"><ele>344.7643</ele><time>2026-07-21T23:21:28.000Z</time></trkpt>
        <trkpt lat="28.705465" lon="105.066368"><ele>344.43802</ele><time>2026-07-21T23:21:30.000Z</time></trkpt>
        <trkpt lat="28.705445" lon="105.066365"><ele>344.31268</ele><time>2026-07-21T23:21:32.000Z</time></trkpt>
        <trkpt lat="28.705421" lon="105.066359"><ele>343.9158</ele><time>2026-07-21T23:21:34.000Z</time></trkpt>
        <trkpt lat="28.705398" lon="105.066353"><ele>343.6574</ele><time>2026-07-21T23:21:36.000Z</time></trkpt>
        <trkpt lat="28.705376" lon="105.066347"><ele>343.57883</ele><time>2026-07-21T23:21:38.000Z</time></trkpt>
        <trkpt lat="28.705356" lon="105.06634"><ele>343.07498</ele><time>2026-07-21T23:21:40.000Z</time></trkpt>
        <trkpt lat="28.705336" lon="105.066332"><ele>342.8292</ele><time>2026-07-21T23:21:42.000Z</time></trkpt>
        <trkpt lat="28.705317" lon="105.066324"><ele>343.6888</ele><time>2026-07-21T23:21:44.000Z</time></trkpt>
        <trkpt lat="28.705296" lon="105.066311"><ele>342.98752</ele><time>2026-07-21T23:21:46.000Z</time></trkpt>
        <trkpt lat="28.705274" lon="105.066295"><ele>342.97006</ele><time>2026-07-21T23:21:48.000Z</time></trkpt>
        <trkpt lat="28.705255" lon="105.066279"><ele>341.3579</ele><time>2026-07-21T23:21:50.000Z</time></trkpt>
        <trkpt lat="28.705238" lon="105.066262"><ele>341.0823</ele><time>2026-07-21T23:21:52.000Z</time></trkpt>
        <trkpt lat="28.705223" lon="105.066244"><ele>340.36115</ele><time>2026-07-21T23:21:54.000Z</time></trkpt>
        <trkpt lat="28.705208" lon="105.066224"><ele>340.44012</ele><time>2026-07-21T23:21:56.000Z</time></trkpt>
        <trkpt lat="28.705195" lon="105.066203"><ele>340.1599</ele><time>2026-07-21T23:21:58.000Z</time></trkpt>
        <trkpt lat="28.70518" lon="105.06618"><ele>339.9223</ele><time>2026-07-21T23:22:00.000Z</time></trkpt>
        <trkpt lat="28.705164" lon="105.066157"><ele>339.42307</ele><time>2026-07-21T23:22:02.000Z</time></trkpt>
        <trkpt lat="28.705148" lon="105.066142"><ele>343.4297</ele><time>2026-07-21T23:22:04.000Z</time></trkpt>
        <trkpt lat="28.705131" lon="105.066135"><ele>347.9196</ele><time>2026-07-21T23:22:06.000Z</time></trkpt>
        <trkpt lat="28.705115" lon="105.066133"><ele>348.83438</ele><time>2026-07-21T23:22:08.000Z</time></trkpt>
        <trkpt lat="28.705099" lon="105.066136"><ele>349.89264</ele><time>2026-07-21T23:22:10.000Z</time></trkpt>
        <trkpt lat="28.705084" lon="105.066141"><ele>350.59473</ele><time>2026-07-21T23:22:12.000Z</time></trkpt>
        <trkpt lat="28.705067" lon="105.066148"><ele>350.22586</ele><time>2026-07-21T23:22:14.000Z</time></trkpt>
        <trkpt lat="28.70505" lon="105.066159"><ele>350.6495</ele><time>2026-07-21T23:22:16.000Z</time></trkpt>
        <trkpt lat="28.705034" lon="105.066174"><ele>351.48166</ele><time>2026-07-21T23:22:18.000Z</time></trkpt>
        <trkpt lat="28.705019" lon="105.066192"><ele>351.2525</ele><time>2026-07-21T23:22:20.000Z</time></trkpt>
        <trkpt lat="28.705002" lon="105.066213"><ele>350.95673</ele><time>2026-07-21T23:22:22.000Z</time></trkpt>
        <trkpt lat="28.704988" lon="105.066234"><ele>350.3789</ele><time>2026-07-21T23:22:24.000Z</time></trkpt>
        <trkpt lat="28.704978" lon="105.066253"><ele>349.37466</ele><time>2026-07-21T23:22:26.000Z</time></trkpt>
        <trkpt lat="28.704969" lon="105.066272"><ele>349.20166</ele><time>2026-07-21T23:22:28.000Z</time></trkpt>
        <trkpt lat="28.704962" lon="105.066291"><ele>348.4175</ele><time>2026-07-21T23:22:30.000Z</time></trkpt>
        <trkpt lat="28.704955" lon="105.066313"><ele>347.87457</ele><time>2026-07-21T23:22:32.000Z</time></trkpt>
        <trkpt lat="28.704947" lon="105.066337"><ele>346.84308</ele><time>2026-07-21T23:22:34.000Z</time></trkpt>
        <trkpt lat="28.70494" lon="105.06636"><ele>346.3891</ele><time>2026-07-21T23:22:36.000Z</time></trkpt>
        <trkpt lat="28.704933" lon="105.066381"><ele>345.3811</ele><time>2026-07-21T23:22:38.000Z</time></trkpt>
        <trkpt lat="28.704925" lon="105.066404"><ele>344.84317</ele><time>2026-07-21T23:22:40.000Z</time></trkpt>
        <trkpt lat="28.704918" lon="105.066427"><ele>343.67523</ele><time>2026-07-21T23:22:42.000Z</time></trkpt>
        <trkpt lat="28.704912" lon="105.066448"><ele>342.92343</ele><time>2026-07-21T23:22:44.000Z</time></trkpt>
        <trkpt lat="28.704908" lon="105.066468"><ele>342.6543</ele><time>2026-07-21T23:22:46.000Z</time></trkpt>
        <trkpt lat="28.704901" lon="105.06649"><ele>342.10974</ele><time>2026-07-21T23:22:48.000Z</time></trkpt>
        <trkpt lat="28.704895" lon="105.066512"><ele>341.00262</ele><time>2026-07-21T23:22:50.000Z</time></trkpt>
        <trkpt lat="28.704888" lon="105.066534"><ele>340.66605</ele><time>2026-07-21T23:22:52.000Z</time></trkpt>
        <trkpt lat="28.704882" lon="105.066557"><ele>341.16455</ele><time>2026-07-21T23:22:54.000Z</time></trkpt>
        <trkpt lat="28.704879" lon="105.066571"><ele>337.30676</ele><time>2026-07-21T23:22:56.000Z</time></trkpt>
        <trkpt lat="28.704875" lon="105.066586"><ele>338.65738</ele><time>2026-07-21T23:22:58.000Z</time></trkpt>
        <trkpt lat="28.704872" lon="105.0666"><ele>338.74426</ele><time>2026-07-21T23:23:00.000Z</time></trkpt>
        <trkpt lat="28.70487" lon="105.066615"><ele>338.54065</ele><time>2026-07-21T23:23:02.000Z</time></trkpt>
        <trkpt lat="28.704871" lon="105.06663"><ele>338.0714</ele><time>2026-07-21T23:23:04.000Z</time></trkpt>
        <trkpt lat="28.70487" lon="105.066639"><ele>335.66245</ele><time>2026-07-21T23:23:06.000Z</time></trkpt>
        <trkpt lat="28.704866" lon="105.06665"><ele>334.5735</ele><time>2026-07-21T23:23:08.000Z</time></trkpt>
        <trkpt lat="28.704861" lon="105.066676"><ele>333.28235</ele><time>2026-07-21T23:23:10.000Z</time></trkpt>
        <trkpt lat="28.704862" lon="105.066698"><ele>333.03476</ele><time>2026-07-21T23:23:12.000Z</time></trkpt>
        <trkpt lat="28.704867" lon="105.066724"><ele>334.35992</ele><time>2026-07-21T23:23:14.000Z</time></trkpt>
        <trkpt lat="28.704875" lon="105.06675"><ele>334.23767</ele><time>2026-07-21T23:23:16.000Z</time></trkpt>
        <trkpt lat="28.704885" lon="105.066776"><ele>333.9656</ele><time>2026-07-21T23:23:18.000Z</time></trkpt>
        <trkpt lat="28.704895" lon="105.066796"><ele>333.64868</ele><time>2026-07-21T23:23:20.000Z</time></trkpt>
        <trkpt lat="28.704905" lon="105.066817"><ele>334.80106</ele><time>2026-07-21T23:23:22.000Z</time></trkpt>
        <trkpt lat="28.704919" lon="105.06684"><ele>334.64276</ele><time>2026-07-21T23:23:24.000Z</time></trkpt>
        <trkpt lat="28.704935" lon="105.066864"><ele>333.58395</ele><time>2026-07-21T23:23:26.000Z</time></trkpt>
        <trkpt lat="28.704949" lon="105.066888"><ele>331.984</ele><time>2026-07-21T23:23:28.000Z</time></trkpt>
        <trkpt lat="28.704961" lon="105.066912"><ele>332.01218</ele><time>2026-07-21T23:23:30.000Z</time></trkpt>
        <trkpt lat="28.704971" lon="105.066937"><ele>331.5594</ele><time>2026-07-21T23:23:32.000Z</time></trkpt>
        <trkpt lat="28.704979" lon="105.066962"><ele>331.27695</ele><time>2026-07-21T23:23:34.000Z</time></trkpt>
        <trkpt lat="28.704988" lon="105.066988"><ele>331.5332</ele><time>2026-07-21T23:23:36.000Z</time></trkpt>
        <trkpt lat="28.704998" lon="105.067011"><ele>331.9411</ele><time>2026-07-21T23:23:38.000Z</time></trkpt>
        <trkpt lat="28.705007" lon="105.067034"><ele>331.97058</ele><time>2026-07-21T23:23:40.000Z</time></trkpt>
        <trkpt lat="28.705018" lon="105.067055"><ele>332.42023</ele><time>2026-07-21T23:23:42.000Z</time></trkpt>
        <trkpt lat="28.705031" lon="105.067078"><ele>333.30734</ele><time>2026-07-21T23:23:44.000Z</time></trkpt>
        <trkpt lat="28.705047" lon="105.067101"><ele>333.14163</ele><time>2026-07-21T23:23:46.000Z</time></trkpt>
        <trkpt lat="28.705061" lon="105.067121"><ele>333.43118</ele><time>2026-07-21T23:23:48.000Z</time></trkpt>
        <trkpt lat="28.705075" lon="105.067142"><ele>333.85858</ele><time>2026-07-21T23:23:50.000Z</time></trkpt>
        <trkpt lat="28.705086" lon="105.067165"><ele>333.96652</ele><time>2026-07-21T23:23:52.000Z</time></trkpt>
        <trkpt lat="28.705096" lon="105.067189"><ele>333.928</ele><time>2026-07-21T23:23:54.000Z</time></trkpt>
        <trkpt lat="28.705105" lon="105.067211"><ele>333.50198</ele><time>2026-07-21T23:23:56.000Z</time></trkpt>
        <trkpt lat="28.705115" lon="105.067233"><ele>332.74832</ele><time>2026-07-21T23:23:58.000Z</time></trkpt>
        <trkpt lat="28.705129" lon="105.067257"><ele>332.85837</ele><time>2026-07-21T23:24:00.000Z</time></trkpt>
        <trkpt lat="28.705142" lon="105.067278"><ele>333.20383</ele><time>2026-07-21T23:24:02.000Z</time></trkpt>
        <trkpt lat="28.705155" lon="105.0673"><ele>333.4691</ele><time>2026-07-21T23:24:04.000Z</time></trkpt>
        <trkpt lat="28.705169" lon="105.067325"><ele>334.1679</ele><time>2026-07-21T23:24:06.000Z</time></trkpt>
        <trkpt lat="28.705179" lon="105.06735"><ele>333.64975</ele><time>2026-07-21T23:24:08.000Z</time></trkpt>
        <trkpt lat="28.705189" lon="105.067374"><ele>332.5694</ele><time>2026-07-21T23:24:10.000Z</time></trkpt>
        <trkpt lat="28.705198" lon="105.067394"><ele>332.73096</ele><time>2026-07-21T23:24:12.000Z</time></trkpt>
        <trkpt lat="28.705207" lon="105.067412"><ele>333.76822</ele><time>2026-07-21T23:24:14.000Z</time></trkpt>
        <trkpt lat="28.705215" lon="105.067431"><ele>333.46234</ele><time>2026-07-21T23:24:16.000Z</time></trkpt>
        <trkpt lat="28.705226" lon="105.067453"><ele>333.6581</ele><time>2026-07-21T23:24:18.000Z</time></trkpt>
        <trkpt lat="28.705234" lon="105.067472"><ele>333.8779</ele><time>2026-07-21T23:24:20.000Z</time></trkpt>
        <trkpt lat="28.70524" lon="105.067492"><ele>333.1912</ele><time>2026-07-21T23:24:22.000Z</time></trkpt>
        <trkpt lat="28.705247" lon="105.067517"><ele>333.85724</ele><time>2026-07-21T23:24:24.000Z</time></trkpt>
        <trkpt lat="28.705252" lon="105.067543"><ele>333.71332</ele><time>2026-07-21T23:24:26.000Z</time></trkpt>
        <trkpt lat="28.705259" lon="105.067569"><ele>333.3741</ele><time>2026-07-21T23:24:28.000Z</time></trkpt>
        <trkpt lat="28.705266" lon="105.067593"><ele>333.83978</ele><time>2026-07-21T23:24:30.000Z</time></trkpt>
        <trkpt lat="28.705273" lon="105.067621"><ele>333.90005</ele><time>2026-07-21T23:24:32.000Z</time></trkpt>
        <trkpt lat="28.70528" lon="105.067647"><ele>333.4294</ele><time>2026-07-21T23:24:34.000Z</time></trkpt>
        <trkpt lat="28.705287" lon="105.067671"><ele>334.2157</ele><time>2026-07-21T23:24:36.000Z</time></trkpt>
        <trkpt lat="28.705294" lon="105.067696"><ele>334.05377</ele><time>2026-07-21T23:24:38.000Z</time></trkpt>
        <trkpt lat="28.705301" lon="105.06772"><ele>334.13705</ele><time>2026-07-21T23:24:40.000Z</time></trkpt>
        <trkpt lat="28.705308" lon="105.067745"><ele>333.9976</ele><time>2026-07-21T23:24:42.000Z</time></trkpt>
        <trkpt lat="28.705316" lon="105.067766"><ele>333.50522</ele><time>2026-07-21T23:24:44.000Z</time></trkpt>
        <trkpt lat="28.705323" lon="105.067789"><ele>333.72577</ele><time>2026-07-21T23:24:46.000Z</time></trkpt>
        <trkpt lat="28.705327" lon="105.067814"><ele>333.2876</ele><time>2026-07-21T23:24:48.000Z</time></trkpt>
        <trkpt lat="28.705332" lon="105.067841"><ele>333.91208</ele><time>2026-07-21T23:24:50.000Z</time></trkpt>
        <trkpt lat="28.705338" lon="105.067864"><ele>333.74698</ele><time>2026-07-21T23:24:52.000Z</time></trkpt>
        <trkpt lat="28.705343" lon="105.067887"><ele>332.8523</ele><time>2026-07-21T23:24:54.000Z</time></trkpt>
        <trkpt lat="28.705346" lon="105.067909"><ele>333.08594</ele><time>2026-07-21T23:24:56.000Z</time></trkpt>
        <trkpt lat="28.70535" lon="105.067929"><ele>332.9065</ele><time>2026-07-21T23:24:58.000Z</time></trkpt>
        <trkpt lat="28.705353" lon="105.067954"><ele>332.78882</ele><time>2026-07-21T23:25:00.000Z</time></trkpt>
        <trkpt lat="28.705355" lon="105.067978"><ele>332.40497</ele><time>2026-07-21T23:25:02.000Z</time></trkpt>
        <trkpt lat="28.705357" lon="105.068001"><ele>332.4004</ele><time>2026-07-21T23:25:04.000Z</time></trkpt>
        <trkpt lat="28.705356" lon="105.068023"><ele>333.10965</ele><time>2026-07-21T23:25:06.000Z</time></trkpt>
        <trkpt lat="28.705352" lon="105.068049"><ele>333.36093</ele><time>2026-07-21T23:25:08.000Z</time></trkpt>
        <trkpt lat="28.705346" lon="105.068075"><ele>333.46664</ele><time>2026-07-21T23:25:10.000Z</time></trkpt>
        <trkpt lat="28.705338" lon="105.068097"><ele>333.65714</ele><time>2026-07-21T23:25:12.000Z</time></trkpt>
        <trkpt lat="28.705331" lon="105.068118"><ele>333.70166</ele><time>2026-07-21T23:25:14.000Z</time></trkpt>
        <trkpt lat="28.705321" lon="105.068138"><ele>334.23282</ele><time>2026-07-21T23:25:16.000Z</time></trkpt>
        <trkpt lat="28.70531" lon="105.068158"><ele>334.00458</ele><time>2026-07-21T23:25:18.000Z</time></trkpt>
        <trkpt lat="28.705299" lon="105.068177"><ele>334.27283</ele><time>2026-07-21T23:25:20.000Z</time></trkpt>
        <trkpt lat="28.705287" lon="105.06819"><ele>333.79803</ele><time>2026-07-21T23:25:22.000Z</time></trkpt>
        <trkpt lat="28.70527" lon="105.068205"><ele>333.65158</ele><time>2026-07-21T23:25:24.000Z</time></trkpt>
        <trkpt lat="28.705248" lon="105.068219"><ele>333.79224</ele><time>2026-07-21T23:25:26.000Z</time></trkpt>
        <trkpt lat="28.705224" lon="105.068234"><ele>334.01266</ele><time>2026-07-21T23:25:28.000Z</time></trkpt>
        <trkpt lat="28.705199" lon="105.06825"><ele>334.581</ele><time>2026-07-21T23:25:30.000Z</time></trkpt>
        <trkpt lat="28.705176" lon="105.068265"><ele>334.5116</ele><time>2026-07-21T23:25:32.000Z</time></trkpt>
        <trkpt lat="28.705158" lon="105.068278"><ele>334.4437</ele><time>2026-07-21T23:25:34.000Z</time></trkpt>
        <trkpt lat="28.705141" lon="105.068292"><ele>335.52017</ele><time>2026-07-21T23:25:36.000Z</time></trkpt>
        <trkpt lat="28.705127" lon="105.068305"><ele>335.7242</ele><time>2026-07-21T23:25:38.000Z</time></trkpt>
        <trkpt lat="28.705105" lon="105.068325"><ele>336.26486</ele><time>2026-07-21T23:25:40.000Z</time></trkpt>
        <trkpt lat="28.705087" lon="105.068339"><ele>336.10068</ele><time>2026-07-21T23:25:42.000Z</time></trkpt>
        <trkpt lat="28.705074" lon="105.068348"><ele>335.55234</ele><time>2026-07-21T23:25:44.000Z</time></trkpt>
        <trkpt lat="28.70506" lon="105.068354"><ele>335.33844</ele><time>2026-07-21T23:25:46.000Z</time></trkpt>
        <trkpt lat="28.705046" lon="105.06836"><ele>335.58234</ele><time>2026-07-21T23:25:48.000Z</time></trkpt>
        <trkpt lat="28.70503" lon="105.068365"><ele>335.22162</ele><time>2026-07-21T23:25:50.000Z</time></trkpt>
        <trkpt lat="28.705013" lon="105.06837"><ele>335.07547</ele><time>2026-07-21T23:25:52.000Z</time></trkpt>
        <trkpt lat="28.704997" lon="105.068377"><ele>335.7644</ele><time>2026-07-21T23:25:54.000Z</time></trkpt>
        <trkpt lat="28.704983" lon="105.068385"><ele>334.43887</ele><time>2026-07-21T23:25:56.000Z</time></trkpt>
        <trkpt lat="28.704967" lon="105.068397"><ele>334.9904</ele><time>2026-07-21T23:25:58.000Z</time></trkpt>
        <trkpt lat="28.704952" lon="105.068412"><ele>334.71408</ele><time>2026-07-21T23:26:00.000Z</time></trkpt>
        <trkpt lat="28.704936" lon="105.06843"><ele>335.02338</ele><time>2026-07-21T23:26:02.000Z</time></trkpt>
        <trkpt lat="28.704922" lon="105.068447"><ele>335.07108</ele><time>2026-07-21T23:26:04.000Z</time></trkpt>
        <trkpt lat="28.704908" lon="105.068464"><ele>335.16498</ele><time>2026-07-21T23:26:06.000Z</time></trkpt>
        <trkpt lat="28.704893" lon="105.068482"><ele>335.1753</ele><time>2026-07-21T23:26:08.000Z</time></trkpt>
        <trkpt lat="28.704877" lon="105.068499"><ele>335.05875</ele><time>2026-07-21T23:26:10.000Z</time></trkpt>
        <trkpt lat="28.704862" lon="105.068513"><ele>334.45804</ele><time>2026-07-21T23:26:12.000Z</time></trkpt>
        <trkpt lat="28.704846" lon="105.068528"><ele>334.16293</ele><time>2026-07-21T23:26:14.000Z</time></trkpt>
        <trkpt lat="28.704829" lon="105.068544"><ele>334.04593</ele><time>2026-07-21T23:26:16.000Z</time></trkpt>
        <trkpt lat="28.704812" lon="105.068559"><ele>333.90405</ele><time>2026-07-21T23:26:18.000Z</time></trkpt>
        <trkpt lat="28.704794" lon="105.068579"><ele>333.90317</ele><time>2026-07-21T23:26:20.000Z</time></trkpt>
        <trkpt lat="28.704781" lon="105.068597"><ele>333.4968</ele><time>2026-07-21T23:26:22.000Z</time></trkpt>
        <trkpt lat="28.70477" lon="105.068618"><ele>333.87823</ele><time>2026-07-21T23:26:24.000Z</time></trkpt>
        <trkpt lat="28.704762" lon="105.068641"><ele>333.69812</ele><time>2026-07-21T23:26:26.000Z</time></trkpt>
        <trkpt lat="28.704758" lon="105.068663"><ele>334.19666</ele><time>2026-07-21T23:26:28.000Z</time></trkpt>
        <trkpt lat="28.704759" lon="105.068685"><ele>334.04675</ele><time>2026-07-21T23:26:30.000Z</time></trkpt>
        <trkpt lat="28.704765" lon="105.06871"><ele>333.4685</ele><time>2026-07-21T23:26:32.000Z</time></trkpt>
        <trkpt lat="28.704774" lon="105.068737"><ele>333.53296</ele><time>2026-07-21T23:26:34.000Z</time></trkpt>
        <trkpt lat="28.704785" lon="105.068762"><ele>332.91656</ele><time>2026-07-21T23:26:36.000Z</time></trkpt>
        <trkpt lat="28.7048" lon="105.068786"><ele>331.93552</ele><time>2026-07-21T23:26:38.000Z</time></trkpt>
        <trkpt lat="28.704816" lon="105.068805"><ele>330.84393</ele><time>2026-07-21T23:26:40.000Z</time></trkpt>
        <trkpt lat="28.704833" lon="105.06882"><ele>330.65094</ele><time>2026-07-21T23:26:42.000Z</time></trkpt>
        <trkpt lat="28.704854" lon="105.068835"><ele>329.89456</ele><time>2026-07-21T23:26:44.000Z</time></trkpt>
        <trkpt lat="28.704876" lon="105.068847"><ele>329.67303</ele><time>2026-07-21T23:26:46.000Z</time></trkpt>
        <trkpt lat="28.7049" lon="105.068856"><ele>329.30414</ele><time>2026-07-21T23:26:48.000Z</time></trkpt>
        <trkpt lat="28.704923" lon="105.068862"><ele>329.32254</ele><time>2026-07-21T23:26:50.000Z</time></trkpt>
        <trkpt lat="28.704941" lon="105.068865"><ele>329.03262</ele><time>2026-07-21T23:26:52.000Z</time></trkpt>
        <trkpt lat="28.704961" lon="105.068867"><ele>329.33316</ele><time>2026-07-21T23:26:54.000Z</time></trkpt>
        <trkpt lat="28.704981" lon="105.06887"><ele>329.31332</ele><time>2026-07-21T23:26:56.000Z</time></trkpt>
        <trkpt lat="28.704999" lon="105.068874"><ele>329.24475</ele><time>2026-07-21T23:26:58.000Z</time></trkpt>
        <trkpt lat="28.705016" lon="105.068878"><ele>329.30106</ele><time>2026-07-21T23:27:00.000Z</time></trkpt>
        <trkpt lat="28.705034" lon="105.068885"><ele>329.03995</ele><time>2026-07-21T23:27:02.000Z</time></trkpt>
        <trkpt lat="28.705055" lon="105.068892"><ele>328.85495</ele><time>2026-07-21T23:27:04.000Z</time></trkpt>
        <trkpt lat="28.705074" lon="105.068898"><ele>328.75598</ele><time>2026-07-21T23:27:06.000Z</time></trkpt>
        <trkpt lat="28.705093" lon="105.068906"><ele>328.7014</ele><time>2026-07-21T23:27:08.000Z</time></trkpt>
        <trkpt lat="28.705113" lon="105.068916"><ele>329.36072</ele><time>2026-07-21T23:27:10.000Z</time></trkpt>
        <trkpt lat="28.70513" lon="105.068926"><ele>329.8916</ele><time>2026-07-21T23:27:12.000Z</time></trkpt>
        <trkpt lat="28.70515" lon="105.068937"><ele>330.00833</ele><time>2026-07-21T23:27:14.000Z</time></trkpt>
        <trkpt lat="28.70517" lon="105.068949"><ele>330.9637</ele><time>2026-07-21T23:27:16.000Z</time></trkpt>
        <trkpt lat="28.705185" lon="105.068959"><ele>331.53238</ele><time>2026-07-21T23:27:18.000Z</time></trkpt>
        <trkpt lat="28.705206" lon="105.068971"><ele>331.59106</ele><time>2026-07-21T23:27:20.000Z</time></trkpt>
        <trkpt lat="28.705225" lon="105.068982"><ele>331.20163</ele><time>2026-07-21T23:27:22.000Z</time></trkpt>
        <trkpt lat="28.705244" lon="105.068993"><ele>332.08057</ele><time>2026-07-21T23:27:24.000Z</time></trkpt>
        <trkpt lat="28.705264" lon="105.069005"><ele>332.08585</ele><time>2026-07-21T23:27:26.000Z</time></trkpt>
        <trkpt lat="28.705276" lon="105.069011"><ele>332.39935</ele><time>2026-07-21T23:27:28.000Z</time></trkpt>
        <trkpt lat="28.705293" lon="105.069019"><ele>333.2648</ele><time>2026-07-21T23:27:30.000Z</time></trkpt>
        <trkpt lat="28.705311" lon="105.069027"><ele>332.48068</ele><time>2026-07-21T23:27:32.000Z</time></trkpt>
        <trkpt lat="28.705328" lon="105.069034"><ele>332.2948</ele><time>2026-07-21T23:27:34.000Z</time></trkpt>
        <trkpt lat="28.705341" lon="105.06904"><ele>333.34253</ele><time>2026-07-21T23:27:36.000Z</time></trkpt>
        <trkpt lat="28.705351" lon="105.069049"><ele>333.1326</ele><time>2026-07-21T23:27:38.000Z</time></trkpt>
        <trkpt lat="28.70536" lon="105.069064"><ele>332.9636</ele><time>2026-07-21T23:27:40.000Z</time></trkpt>
        <trkpt lat="28.705371" lon="105.069085"><ele>333.22772</ele><time>2026-07-21T23:27:42.000Z</time></trkpt>
        <trkpt lat="28.705382" lon="105.069112"><ele>332.1673</ele><time>2026-07-21T23:27:44.000Z</time></trkpt>
        <trkpt lat="28.70539" lon="105.069135"><ele>332.205</ele><time>2026-07-21T23:27:46.000Z</time></trkpt>
        <trkpt lat="28.705401" lon="105.069163"><ele>331.9332</ele><time>2026-07-21T23:27:48.000Z</time></trkpt>
        <trkpt lat="28.705412" lon="105.069188"><ele>332.24124</ele><time>2026-07-21T23:27:50.000Z</time></trkpt>
        <trkpt lat="28.705422" lon="105.069209"><ele>333.04495</ele><time>2026-07-21T23:27:52.000Z</time></trkpt>
        <trkpt lat="28.70543" lon="105.069229"><ele>332.22263</ele><time>2026-07-21T23:27:54.000Z</time></trkpt>
        <trkpt lat="28.705439" lon="105.069254"><ele>333.21982</ele><time>2026-07-21T23:27:56.000Z</time></trkpt>
        <trkpt lat="28.705448" lon="105.069274"><ele>332.18466</ele><time>2026-07-21T23:27:58.000Z</time></trkpt>
        <trkpt lat="28.705458" lon="105.069295"><ele>332.05438</ele><time>2026-07-21T23:28:00.000Z</time></trkpt>
        <trkpt lat="28.705469" lon="105.069321"><ele>332.0641</ele><time>2026-07-21T23:28:02.000Z</time></trkpt>
        <trkpt lat="28.70548" lon="105.069347"><ele>332.0295</ele><time>2026-07-21T23:28:04.000Z</time></trkpt>
        <trkpt lat="28.705491" lon="105.069369"><ele>332.98514</ele><time>2026-07-21T23:28:06.000Z</time></trkpt>
        <trkpt lat="28.705503" lon="105.069388"><ele>333.00882</ele><time>2026-07-21T23:28:08.000Z</time></trkpt>
        <trkpt lat="28.705522" lon="105.069405"><ele>332.8367</ele><time>2026-07-21T23:28:10.000Z</time></trkpt>
        <trkpt lat="28.705531" lon="105.06941"><ele>333.8237</ele><time>2026-07-21T23:28:12.000Z</time></trkpt>
        <trkpt lat="28.705536" lon="105.069412"><ele>333.23645</ele><time>2026-07-21T23:28:14.000Z</time></trkpt>
        <trkpt lat="28.705503" lon="105.069395"><ele>332.81415</ele><time>2026-07-21T23:28:22.000Z</time></trkpt>
        <trkpt lat="28.705497" lon="105.069391"><ele>333.25177</ele><time>2026-07-21T23:28:24.000Z</time></trkpt>
        <trkpt lat="28.705492" lon="105.069387"><ele>333.3768</ele><time>2026-07-21T23:28:26.000Z</time></trkpt>
        <trkpt lat="28.705483" lon="105.069385"><ele>333.93094</ele><time>2026-07-21T23:28:32.000Z</time></trkpt>
        <trkpt lat="28.705476" lon="105.069387"><ele>334.26938</ele><time>2026-07-21T23:28:38.000Z</time></trkpt>
        <trkpt lat="28.705463" lon="105.069391"><ele>334.7866</ele><time>2026-07-21T23:28:52.000Z</time></trkpt>
        <trkpt lat="28.705463" lon="105.069391"><ele>334.62595</ele><time>2026-07-21T23:28:54.000Z</time></trkpt>
        <trkpt lat="28.70546" lon="105.0694"><ele>334.3168</ele><time>2026-07-21T23:28:58.000Z</time></trkpt>
        <trkpt lat="28.70545" lon="105.069434"><ele>334.55215</ele><time>2026-07-21T23:29:02.000Z</time></trkpt>
        <trkpt lat="28.70545" lon="105.069434"><ele>334.9074</ele><time>2026-07-21T23:29:04.000Z</time></trkpt>
        <trkpt lat="28.705449" lon="105.069436"><ele>335.00122</ele><time>2026-07-21T23:29:06.000Z</time></trkpt>
        <trkpt lat="28.705439" lon="105.069489"><ele>335.18668</ele><time>2026-07-21T23:29:12.000Z</time></trkpt>
        <trkpt lat="28.705434" lon="105.069517"><ele>335.42065</ele><time>2026-07-21T23:29:14.000Z</time></trkpt>
        <trkpt lat="28.705431" lon="105.069545"><ele>335.53223</ele><time>2026-07-21T23:29:16.000Z</time></trkpt>
        <trkpt lat="28.705427" lon="105.069572"><ele>335.67166</ele><time>2026-07-21T23:29:18.000Z</time></trkpt>
        <trkpt lat="28.705424" lon="105.069598"><ele>335.8655</ele><time>2026-07-21T23:29:20.000Z</time></trkpt>
        <trkpt lat="28.705423" lon="105.069625"><ele>335.9877</ele><time>2026-07-21T23:29:22.000Z</time></trkpt>
        <trkpt lat="28.705423" lon="105.069651"><ele>336.3676</ele><time>2026-07-21T23:29:24.000Z</time></trkpt>
        <trkpt lat="28.705422" lon="105.069677"><ele>336.30945</ele><time>2026-07-21T23:29:26.000Z</time></trkpt>
        <trkpt lat="28.705424" lon="105.069701"><ele>335.98557</ele><time>2026-07-21T23:29:28.000Z</time></trkpt>
        <trkpt lat="28.705427" lon="105.069724"><ele>336.4168</ele><time>2026-07-21T23:29:30.000Z</time></trkpt>
        <trkpt lat="28.705432" lon="105.069748"><ele>336.71323</ele><time>2026-07-21T23:29:32.000Z</time></trkpt>
        <trkpt lat="28.705436" lon="105.069772"><ele>336.77533</ele><time>2026-07-21T23:29:34.000Z</time></trkpt>
        <trkpt lat="28.705438" lon="105.069795"><ele>336.50943</ele><time>2026-07-21T23:29:36.000Z</time></trkpt>
        <trkpt lat="28.705438" lon="105.069816"><ele>336.60178</ele><time>2026-07-21T23:29:38.000Z</time></trkpt>
        <trkpt lat="28.705435" lon="105.069837"><ele>336.0852</ele><time>2026-07-21T23:29:40.000Z</time></trkpt>
        <trkpt lat="28.705431" lon="105.069858"><ele>336.7211</ele><time>2026-07-21T23:29:42.000Z</time></trkpt>
        <trkpt lat="28.705425" lon="105.06988"><ele>337.13556</ele><time>2026-07-21T23:29:44.000Z</time></trkpt>
        <trkpt lat="28.705419" lon="105.069901"><ele>337.75085</ele><time>2026-07-21T23:29:46.000Z</time></trkpt>
        <trkpt lat="28.705412" lon="105.069925"><ele>338.2286</ele><time>2026-07-21T23:29:48.000Z</time></trkpt>
        <trkpt lat="28.705407" lon="105.069948"><ele>338.90054</ele><time>2026-07-21T23:29:50.000Z</time></trkpt>
        <trkpt lat="28.705401" lon="105.069971"><ele>339.49426</ele><time>2026-07-21T23:29:52.000Z</time></trkpt>
        <trkpt lat="28.705396" lon="105.069993"><ele>340.068</ele><time>2026-07-21T23:29:54.000Z</time></trkpt>
        <trkpt lat="28.705392" lon="105.070015"><ele>339.73206</ele><time>2026-07-21T23:29:56.000Z</time></trkpt>
        <trkpt lat="28.705389" lon="105.070039"><ele>339.67902</ele><time>2026-07-21T23:29:58.000Z</time></trkpt>
        <trkpt lat="28.705386" lon="105.070061"><ele>340.03897</ele><time>2026-07-21T23:30:00.000Z</time></trkpt>
        <trkpt lat="28.705382" lon="105.070081"><ele>340.41965</ele><time>2026-07-21T23:30:02.000Z</time></trkpt>
        <trkpt lat="28.705377" lon="105.070103"><ele>340.83966</ele><time>2026-07-21T23:30:04.000Z</time></trkpt>
        <trkpt lat="28.705374" lon="105.07012"><ele>341.19736</ele><time>2026-07-21T23:30:06.000Z</time></trkpt>
        <trkpt lat="28.705372" lon="105.070139"><ele>341.03152</ele><time>2026-07-21T23:30:08.000Z</time></trkpt>
        <trkpt lat="28.705369" lon="105.070153"><ele>341.18536</ele><time>2026-07-21T23:30:10.000Z</time></trkpt>
        <trkpt lat="28.705363" lon="105.070163"><ele>341.21732</ele><time>2026-07-21T23:30:12.000Z</time></trkpt>
        <trkpt lat="28.705355" lon="105.070175"><ele>340.9135</ele><time>2026-07-21T23:30:14.000Z</time></trkpt>
        <trkpt lat="28.705344" lon="105.070191"><ele>341.7354</ele><time>2026-07-21T23:30:16.000Z</time></trkpt>
        <trkpt lat="28.705332" lon="105.070212"><ele>342.5606</ele><time>2026-07-21T23:30:18.000Z</time></trkpt>
        <trkpt lat="28.70532" lon="105.070232"><ele>343.3644</ele><time>2026-07-21T23:30:20.000Z</time></trkpt>
        <trkpt lat="28.705311" lon="105.070254"><ele>343.5537</ele><time>2026-07-21T23:30:22.000Z</time></trkpt>
        <trkpt lat="28.705301" lon="105.070278"><ele>344.02094</ele><time>2026-07-21T23:30:24.000Z</time></trkpt>
        <trkpt lat="28.705294" lon="105.070299"><ele>343.9802</ele><time>2026-07-21T23:30:26.000Z</time></trkpt>
        <trkpt lat="28.705287" lon="105.070323"><ele>344.3007</ele><time>2026-07-21T23:30:28.000Z</time></trkpt>
        <trkpt lat="28.705278" lon="105.070342"><ele>344.8001</ele><time>2026-07-21T23:30:30.000Z</time></trkpt>
        <trkpt lat="28.705267" lon="105.070349"><ele>345.09344</ele><time>2026-07-21T23:30:32.000Z</time></trkpt>
        <trkpt lat="28.705268" lon="105.070351"><ele>344.75925</ele><time>2026-07-21T23:30:34.000Z</time></trkpt>
        <trkpt lat="28.70526" lon="105.070306"><ele>346.90854</ele><time>2026-07-21T23:30:38.000Z</time></trkpt>
        <trkpt lat="28.705259" lon="105.07028"><ele>347.70825</ele><time>2026-07-21T23:30:40.000Z</time></trkpt>
        <trkpt lat="28.705262" lon="105.07025"><ele>348.45453</ele><time>2026-07-21T23:30:42.000Z</time></trkpt>
        <trkpt lat="28.705267" lon="105.070228"><ele>348.2142</ele><time>2026-07-21T23:30:44.000Z</time></trkpt>
        <trkpt lat="28.705273" lon="105.0702"><ele>349.1003</ele><time>2026-07-21T23:30:46.000Z</time></trkpt>
        <trkpt lat="28.70528" lon="105.070171"><ele>348.33868</ele><time>2026-07-21T23:30:48.000Z</time></trkpt>
        <trkpt lat="28.705286" lon="105.070147"><ele>347.763</ele><time>2026-07-21T23:30:50.000Z</time></trkpt>
        <trkpt lat="28.705291" lon="105.070121"><ele>347.29355</ele><time>2026-07-21T23:30:52.000Z</time></trkpt>
        <trkpt lat="28.705294" lon="105.070095"><ele>347.8155</ele><time>2026-07-21T23:30:54.000Z</time></trkpt>
        <trkpt lat="28.705297" lon="105.070079"><ele>347.96967</ele><time>2026-07-21T23:30:56.000Z</time></trkpt>
        <trkpt lat="28.705298" lon="105.070071"><ele>348.65704</ele><time>2026-07-21T23:30:58.000Z</time></trkpt>
        <trkpt lat="28.705298" lon="105.07007"><ele>349.77753</ele><time>2026-07-21T23:31:02.000Z</time></trkpt>
        <trkpt lat="28.705292" lon="105.070051"><ele>347.98224</ele><time>2026-07-21T23:31:22.000Z</time></trkpt>
        <trkpt lat="28.70529" lon="105.070044"><ele>348.07373</ele><time>2026-07-21T23:31:24.000Z</time></trkpt>
        <trkpt lat="28.705288" lon="105.070041"><ele>348.07373</ele><time>2026-07-21T23:31:26.000Z</time></trkpt>
        <trkpt lat="28.70529" lon="105.070038"><ele>349.54593</ele><time>2026-07-21T23:31:40.000Z</time></trkpt>
        <trkpt lat="28.705298" lon="105.070027"><ele>349.63956</ele><time>2026-07-21T23:31:46.000Z</time></trkpt>
        <trkpt lat="28.705317" lon="105.07"><ele>348.1788</ele><time>2026-07-21T23:31:48.000Z</time></trkpt>
        <trkpt lat="28.705319" lon="105.069999"><ele>348.37476</ele><time>2026-07-21T23:31:50.000Z</time></trkpt>
        <trkpt lat="28.705319" lon="105.069999"><ele>347.2016</ele><time>2026-07-21T23:31:52.000Z</time></trkpt>
        <trkpt lat="28.705321" lon="105.070018"><ele>346.94284</ele><time>2026-07-21T23:32:02.000Z</time></trkpt>
        <trkpt lat="28.705321" lon="105.070018"><ele>347.72278</ele><time>2026-07-21T23:32:04.000Z</time></trkpt>
        <trkpt lat="28.705323" lon="105.070016"><ele>349.51483</ele><time>2026-07-21T23:32:06.000Z</time></trkpt>
        <trkpt lat="28.705304" lon="105.070042"><ele>350.584</ele><time>2026-07-21T23:32:09.000Z</time></trkpt>
        <trkpt lat="28.70524" lon="105.070133"><ele>351.14548</ele><time>2026-07-21T23:32:12.000Z</time></trkpt>
        <trkpt lat="28.70524" lon="105.070133"><ele>353.71115</ele><time>2026-07-21T23:32:14.000Z</time></trkpt>
        <trkpt lat="28.70523" lon="105.070149"><ele>355.6433</ele><time>2026-07-21T23:32:16.000Z</time></trkpt>
        <trkpt lat="28.7052" lon="105.070216"><ele>356.65344</ele><time>2026-07-21T23:32:18.000Z</time></trkpt>
        <trkpt lat="28.705097" lon="105.070447"><ele>358.49234</ele><time>2026-07-21T23:32:20.000Z</time></trkpt>
        <trkpt lat="28.705087" lon="105.070462"><ele>360.05157</ele><time>2026-07-21T23:32:22.000Z</time></trkpt>
        <trkpt lat="28.705074" lon="105.070472"><ele>362.3082</ele><time>2026-07-21T23:32:24.000Z</time></trkpt>
        <trkpt lat="28.705013" lon="105.070515"><ele>363.31482</ele><time>2026-07-21T23:32:26.000Z</time></trkpt>
        <trkpt lat="28.704892" lon="105.070595"><ele>366.39932</ele><time>2026-07-21T23:32:28.000Z</time></trkpt>
        <trkpt lat="28.704747" lon="105.070695"><ele>368.68365</ele><time>2026-07-21T23:32:30.000Z</time></trkpt>
        <trkpt lat="28.704608" lon="105.070793"><ele>371.3213</ele><time>2026-07-21T23:32:32.000Z</time></trkpt>
        <trkpt lat="28.704483" lon="105.070866"><ele>372.61783</ele><time>2026-07-21T23:32:34.000Z</time></trkpt>
        <trkpt lat="28.70437" lon="105.070917"><ele>373.23605</ele><time>2026-07-21T23:32:36.000Z</time></trkpt>
        <trkpt lat="28.704257" lon="105.070959"><ele>373.882</ele><time>2026-07-21T23:32:38.000Z</time></trkpt>
        <trkpt lat="28.704146" lon="105.071005"><ele>375.69278</ele><time>2026-07-21T23:32:40.000Z</time></trkpt>
        <trkpt lat="28.704046" lon="105.071046"><ele>376.8559</ele><time>2026-07-21T23:32:42.000Z</time></trkpt>
        <trkpt lat="28.703981" lon="105.071114"><ele>378.70474</ele><time>2026-07-21T23:32:44.000Z</time></trkpt>
        <trkpt lat="28.703965" lon="105.071197"><ele>380.86127</ele><time>2026-07-21T23:32:46.000Z</time></trkpt>
        <trkpt lat="28.704005" lon="105.07127"><ele>383.00262</ele><time>2026-07-21T23:32:48.000Z</time></trkpt>
        <trkpt lat="28.704087" lon="105.071345"><ele>383.26923</ele><time>2026-07-21T23:32:50.000Z</time></trkpt>
        <trkpt lat="28.70418" lon="105.071433"><ele>383.98694</ele><time>2026-07-21T23:32:52.000Z</time></trkpt>
        <trkpt lat="28.704265" lon="105.071514"><ele>384.3787</ele><time>2026-07-21T23:32:54.000Z</time></trkpt>
        <trkpt lat="28.70431" lon="105.071599"><ele>384.78244</ele><time>2026-07-21T23:32:56.000Z</time></trkpt>
        <trkpt lat="28.704311" lon="105.071684"><ele>385.50327</ele><time>2026-07-21T23:32:58.000Z</time></trkpt>
        <trkpt lat="28.704275" lon="105.071765"><ele>386.62027</ele><time>2026-07-21T23:33:00.000Z</time></trkpt>
        <trkpt lat="28.704205" lon="105.071821"><ele>388.0902</ele><time>2026-07-21T23:33:02.000Z</time></trkpt>
        <trkpt lat="28.704134" lon="105.071861"><ele>389.19513</ele><time>2026-07-21T23:33:04.000Z</time></trkpt>
        <trkpt lat="28.704072" lon="105.071879"><ele>389.72623</ele><time>2026-07-21T23:33:06.000Z</time></trkpt>
        <trkpt lat="28.704022" lon="105.071894"><ele>390.37756</ele><time>2026-07-21T23:33:08.000Z</time></trkpt>
        <trkpt lat="28.703987" lon="105.071869"><ele>390.44495</ele><time>2026-07-21T23:33:10.000Z</time></trkpt>
        <trkpt lat="28.703969" lon="105.071849"><ele>390.43515</ele><time>2026-07-21T23:33:12.000Z</time></trkpt>
        <trkpt lat="28.703964" lon="105.071835"><ele>390.51196</ele><time>2026-07-21T23:33:14.000Z</time></trkpt>
        <trkpt lat="28.703962" lon="105.071835"><ele>391.05484</ele><time>2026-07-21T23:33:16.000Z</time></trkpt>
        <trkpt lat="28.703984" lon="105.071837"><ele>391.42395</ele><time>2026-07-21T23:33:22.000Z</time></trkpt>
        <trkpt lat="28.703989" lon="105.071838"><ele>391.42395</ele><time>2026-07-21T23:33:24.000Z</time></trkpt>
        <trkpt lat="28.703991" lon="105.071836"><ele>391.42395</ele><time>2026-07-21T23:33:26.000Z</time></trkpt>
        <trkpt lat="28.704014" lon="105.07181"><ele>391.61438</ele><time>2026-07-21T23:33:32.000Z</time></trkpt>
        <trkpt lat="28.704014" lon="105.07181"><ele>392.89987</ele><time>2026-07-21T23:33:34.000Z</time></trkpt>
        <trkpt lat="28.704055" lon="105.071774"><ele>394.4312</ele><time>2026-07-21T23:33:38.000Z</time></trkpt>
        <trkpt lat="28.704104" lon="105.07173"><ele>395.3156</ele><time>2026-07-21T23:33:40.000Z</time></trkpt>
        <trkpt lat="28.704123" lon="105.071666"><ele>396.24417</ele><time>2026-07-21T23:33:42.000Z</time></trkpt>
        <trkpt lat="28.704102" lon="105.071606"><ele>396.57507</ele><time>2026-07-21T23:33:44.000Z</time></trkpt>
        <trkpt lat="28.704041" lon="105.071565"><ele>397.68857</ele><time>2026-07-21T23:33:46.000Z</time></trkpt>
        <trkpt lat="28.703978" lon="105.071521"><ele>399.17462</ele><time>2026-07-21T23:33:48.000Z</time></trkpt>
        <trkpt lat="28.703904" lon="105.071532"><ele>398.97076</ele><time>2026-07-21T23:33:50.000Z</time></trkpt>
        <trkpt lat="28.703821" lon="105.071552"><ele>400.46265</ele><time>2026-07-21T23:33:52.000Z</time></trkpt>
        <trkpt lat="28.703761" lon="105.071572"><ele>400.08688</ele><time>2026-07-21T23:33:54.000Z</time></trkpt>
        <trkpt lat="28.703729" lon="105.071589"><ele>399.7942</ele><time>2026-07-21T23:33:56.000Z</time></trkpt>
        <trkpt lat="28.703718" lon="105.0716"><ele>399.42847</ele><time>2026-07-21T23:33:58.000Z</time></trkpt>
        <trkpt lat="28.703715" lon="105.0716"><ele>399.26553</ele><time>2026-07-21T23:34:00.000Z</time></trkpt>
        <trkpt lat="28.703773" lon="105.071595"><ele>397.90363</ele><time>2026-07-21T23:34:06.000Z</time></trkpt>
        <trkpt lat="28.703796" lon="105.071588"><ele>397.84662</ele><time>2026-07-21T23:34:08.000Z</time></trkpt>
        <trkpt lat="28.703817" lon="105.071579"><ele>398.0942</ele><time>2026-07-21T23:34:10.000Z</time></trkpt>
        <trkpt lat="28.703831" lon="105.071571"><ele>398.02316</ele><time>2026-07-21T23:34:12.000Z</time></trkpt>
        <trkpt lat="28.703839" lon="105.071565"><ele>398.02277</ele><time>2026-07-21T23:34:14.000Z</time></trkpt>
        <trkpt lat="28.703842" lon="105.071562"><ele>398.02277</ele><time>2026-07-21T23:34:16.000Z</time></trkpt>
        <trkpt lat="28.703843" lon="105.071561"><ele>398.02277</ele><time>2026-07-21T23:34:18.000Z</time></trkpt>
        <trkpt lat="28.703827" lon="105.071575"><ele>397.6331</ele><time>2026-07-21T23:34:43.000Z</time></trkpt>
        <trkpt lat="28.703799" lon="105.071597"><ele>397.99756</ele><time>2026-07-21T23:34:45.000Z</time></trkpt>
        <trkpt lat="28.703797" lon="105.071598"><ele>398.03766</ele><time>2026-07-21T23:34:47.000Z</time></trkpt>
        <trkpt lat="28.703797" lon="105.071598"><ele>397.7801</ele><time>2026-07-21T23:34:49.000Z</time></trkpt>
        <trkpt lat="28.703815" lon="105.071592"><ele>397.50412</ele><time>2026-07-21T23:34:59.000Z</time></trkpt>
        <trkpt lat="28.703841" lon="105.071583"><ele>397.1792</ele><time>2026-07-21T23:35:01.000Z</time></trkpt>
        <trkpt lat="28.703842" lon="105.071581"><ele>397.1792</ele><time>2026-07-21T23:35:03.000Z</time></trkpt>
        <trkpt lat="28.703872" lon="105.071561"><ele>396.76428</ele><time>2026-07-21T23:35:06.000Z</time></trkpt>
        <trkpt lat="28.703872" lon="105.071561"><ele>396.88992</ele><time>2026-07-21T23:35:08.000Z</time></trkpt>
        <trkpt lat="28.703872" lon="105.071561"><ele>396.98944</ele><time>2026-07-21T23:35:10.000Z</time></trkpt>
        <trkpt lat="28.703906" lon="105.071599"><ele>396.15466</ele><time>2026-07-21T23:35:16.000Z</time></trkpt>
        <trkpt lat="28.703925" lon="105.071624"><ele>395.86044</ele><time>2026-07-21T23:35:18.000Z</time></trkpt>
        <trkpt lat="28.70394" lon="105.071652"><ele>395.57166</ele><time>2026-07-21T23:35:20.000Z</time></trkpt>
        <trkpt lat="28.703945" lon="105.071677"><ele>395.12793</ele><time>2026-07-21T23:35:22.000Z</time></trkpt>
        <trkpt lat="28.703939" lon="105.071693"><ele>395.10532</ele><time>2026-07-21T23:35:24.000Z</time></trkpt>
        <trkpt lat="28.703927" lon="105.071702"><ele>395.59103</ele><time>2026-07-21T23:35:26.000Z</time></trkpt>
        <trkpt lat="28.703897" lon="105.071713"><ele>394.5946</ele><time>2026-07-21T23:35:28.000Z</time></trkpt>
        <trkpt lat="28.703847" lon="105.071728"><ele>393.7806</ele><time>2026-07-21T23:35:30.000Z</time></trkpt>
        <trkpt lat="28.703775" lon="105.071747"><ele>392.74835</ele><time>2026-07-21T23:35:32.000Z</time></trkpt>
        <trkpt lat="28.703615" lon="105.071791"><ele>391.8983</ele><time>2026-07-21T23:35:34.000Z</time></trkpt>
        <trkpt lat="28.703604" lon="105.071795"><ele>391.12094</ele><time>2026-07-21T23:35:36.000Z</time></trkpt>
        <trkpt lat="28.703592" lon="105.071799"><ele>390.81824</ele><time>2026-07-21T23:35:38.000Z</time></trkpt>
        <trkpt lat="28.703422" lon="105.071853"><ele>390.3998</ele><time>2026-07-21T23:35:42.000Z</time></trkpt>
        <trkpt lat="28.703172" lon="105.071885"><ele>390.10992</ele><time>2026-07-21T23:35:44.000Z</time></trkpt>
        <trkpt lat="28.703154" lon="105.071885"><ele>389.16934</ele><time>2026-07-21T23:35:46.000Z</time></trkpt>
        <trkpt lat="28.703142" lon="105.071884"><ele>387.7361</ele><time>2026-07-21T23:35:48.000Z</time></trkpt>
        <trkpt lat="28.7031" lon="105.071896"><ele>387.45074</ele><time>2026-07-21T23:35:50.000Z</time></trkpt>
        <trkpt lat="28.703029" lon="105.071915"><ele>387.3313</ele><time>2026-07-21T23:35:52.000Z</time></trkpt>
        <trkpt lat="28.702897" lon="105.072071"><ele>385.8457</ele><time>2026-07-21T23:35:54.000Z</time></trkpt>
        <trkpt lat="28.702889" lon="105.072083"><ele>383.75064</ele><time>2026-07-21T23:35:56.000Z</time></trkpt>
        <trkpt lat="28.702887" lon="105.072094"><ele>380.72977</ele><time>2026-07-21T23:35:58.000Z</time></trkpt>
        <trkpt lat="28.70288" lon="105.072162"><ele>377.49384</ele><time>2026-07-21T23:36:00.000Z</time></trkpt>
        <trkpt lat="28.702865" lon="105.072314"><ele>373.49396</ele><time>2026-07-21T23:36:02.000Z</time></trkpt>
        <trkpt lat="28.702847" lon="105.072491"><ele>369.3763</ele><time>2026-07-21T23:36:04.000Z</time></trkpt>
        <trkpt lat="28.702905" lon="105.073486"><ele>363.5479</ele><time>2026-07-21T23:36:10.000Z</time></trkpt>
        <trkpt lat="28.702906" lon="105.073486"><ele>363.54056</ele><time>2026-07-21T23:36:12.000Z</time></trkpt>
        <trkpt lat="28.702912" lon="105.073496"><ele>361.96878</ele><time>2026-07-21T23:36:14.000Z</time></trkpt>
        <trkpt lat="28.703023" lon="105.073677"><ele>354.98285</ele><time>2026-07-21T23:36:18.000Z</time></trkpt>
        <trkpt lat="28.703141" lon="105.073813"><ele>354.22015</ele><time>2026-07-21T23:36:20.000Z</time></trkpt>
        <trkpt lat="28.703424" lon="105.074005"><ele>350.09604</ele><time>2026-07-21T23:36:22.000Z</time></trkpt>
        <trkpt lat="28.70344" lon="105.074018"><ele>350.3852</ele><time>2026-07-21T23:36:24.000Z</time></trkpt>
        <trkpt lat="28.703443" lon="105.074027"><ele>348.2313</ele><time>2026-07-21T23:36:26.000Z</time></trkpt>
        <trkpt lat="28.703497" lon="105.074216"><ele>341.59833</ele><time>2026-07-21T23:36:30.000Z</time></trkpt>
        <trkpt lat="28.703512" lon="105.074403"><ele>339.47803</ele><time>2026-07-21T23:36:32.000Z</time></trkpt>
        <trkpt lat="28.703541" lon="105.074769"><ele>337.94547</ele><time>2026-07-21T23:36:34.000Z</time></trkpt>
        <trkpt lat="28.703536" lon="105.074788"><ele>337.51175</ele><time>2026-07-21T23:36:36.000Z</time></trkpt>
        <trkpt lat="28.703529" lon="105.074798"><ele>337.04898</ele><time>2026-07-21T23:36:38.000Z</time></trkpt>
        <trkpt lat="28.703492" lon="105.07485"><ele>336.6804</ele><time>2026-07-21T23:36:40.000Z</time></trkpt>
        <trkpt lat="28.703345" lon="105.075056"><ele>336.1771</ele><time>2026-07-21T23:36:42.000Z</time></trkpt>
        <trkpt lat="28.703336" lon="105.075069"><ele>336.0986</ele><time>2026-07-21T23:36:44.000Z</time></trkpt>
        <trkpt lat="28.703334" lon="105.075075"><ele>335.70334</ele><time>2026-07-21T23:36:46.000Z</time></trkpt>
        <trkpt lat="28.703323" lon="105.075104"><ele>335.33572</ele><time>2026-07-21T23:36:48.000Z</time></trkpt>
        <trkpt lat="28.703305" lon="105.075185"><ele>334.92767</ele><time>2026-07-21T23:36:50.000Z</time></trkpt>
        <trkpt lat="28.703283" lon="105.075276"><ele>333.42236</ele><time>2026-07-21T23:36:52.000Z</time></trkpt>
        <trkpt lat="28.703358" lon="105.075496"><ele>330.6652</ele><time>2026-07-21T23:36:54.000Z</time></trkpt>
        <trkpt lat="28.703366" lon="105.075501"><ele>329.1515</ele><time>2026-07-21T23:36:56.000Z</time></trkpt>
        <trkpt lat="28.703379" lon="105.075498"><ele>328.02536</ele><time>2026-07-21T23:36:58.000Z</time></trkpt>
        <trkpt lat="28.703447" lon="105.07547"><ele>326.43076</ele><time>2026-07-21T23:37:00.000Z</time></trkpt>
        <trkpt lat="28.703711" lon="105.075359"><ele>326.00607</ele><time>2026-07-21T23:37:02.000Z</time></trkpt>
        <trkpt lat="28.703724" lon="105.075354"><ele>325.68204</ele><time>2026-07-21T23:37:04.000Z</time></trkpt>
        <trkpt lat="28.703726" lon="105.075355"><ele>325.56607</ele><time>2026-07-21T23:37:06.000Z</time></trkpt>
        <trkpt lat="28.703728" lon="105.075352"><ele>325.17465</ele><time>2026-07-21T23:37:10.000Z</time></trkpt>
        <trkpt lat="28.703695" lon="105.075402"><ele>324.57132</ele><time>2026-07-21T23:37:16.000Z</time></trkpt>
        <trkpt lat="28.703695" lon="105.075402"><ele>325.78314</ele><time>2026-07-21T23:37:18.000Z</time></trkpt>
        <trkpt lat="28.703692" lon="105.075404"><ele>326.48926</ele><time>2026-07-21T23:37:20.000Z</time></trkpt>
        <trkpt lat="28.703658" lon="105.075429"><ele>327.2202</ele><time>2026-07-21T23:37:24.000Z</time></trkpt>
        <trkpt lat="28.703641" lon="105.07544"><ele>327.59634</ele><time>2026-07-21T23:37:26.000Z</time></trkpt>
        <trkpt lat="28.703635" lon="105.075445"><ele>327.2702</ele><time>2026-07-21T23:37:28.000Z</time></trkpt>
        <trkpt lat="28.703699" lon="105.075392"><ele>325.01352</ele><time>2026-07-21T23:37:34.000Z</time></trkpt>
        <trkpt lat="28.703699" lon="105.075392"><ele>324.84433</ele><time>2026-07-21T23:37:36.000Z</time></trkpt>
        <trkpt lat="28.703701" lon="105.075392"><ele>324.87555</ele><time>2026-07-21T23:37:38.000Z</time></trkpt>
        <trkpt lat="28.70368" lon="105.075399"><ele>326.4134</ele><time>2026-07-21T23:37:48.000Z</time></trkpt>
        <trkpt lat="28.703648" lon="105.07541"><ele>326.08804</ele><time>2026-07-21T23:37:50.000Z</time></trkpt>
        <trkpt lat="28.703646" lon="105.075411"><ele>326.7017</ele><time>2026-07-21T23:37:52.000Z</time></trkpt>
        <trkpt lat="28.703644" lon="105.075414"><ele>326.98746</ele><time>2026-07-21T23:37:54.000Z</time></trkpt>
        <trkpt lat="28.703621" lon="105.075437"><ele>327.8849</ele><time>2026-07-21T23:37:58.000Z</time></trkpt>
        <trkpt lat="28.703611" lon="105.075439"><ele>326.7965</ele><time>2026-07-21T23:38:00.000Z</time></trkpt>
        <trkpt lat="28.70361" lon="105.075441"><ele>326.3818</ele><time>2026-07-21T23:38:02.000Z</time></trkpt>
        <trkpt lat="28.703639" lon="105.075404"><ele>326.01547</ele><time>2026-07-21T23:38:06.000Z</time></trkpt>
        <trkpt lat="28.703662" lon="105.075385"><ele>325.2058</ele><time>2026-07-21T23:38:08.000Z</time></trkpt>
        <trkpt lat="28.703684" lon="105.07537"><ele>326.13333</ele><time>2026-07-21T23:38:10.000Z</time></trkpt>
        <trkpt lat="28.7037" lon="105.075361"><ele>325.8506</ele><time>2026-07-21T23:38:12.000Z</time></trkpt>
        <trkpt lat="28.703708" lon="105.075358"><ele>325.94485</ele><time>2026-07-21T23:38:14.000Z</time></trkpt>
        <trkpt lat="28.703711" lon="105.075358"><ele>325.88843</ele><time>2026-07-21T23:38:16.000Z</time></trkpt>
        <trkpt lat="28.703717" lon="105.075355"><ele>325.50363</ele><time>2026-07-21T23:38:34.000Z</time></trkpt>
        <trkpt lat="28.703721" lon="105.075351"><ele>325.24756</ele><time>2026-07-21T23:38:38.000Z</time></trkpt>
        <trkpt lat="28.703723" lon="105.075351"><ele>325.11453</ele><time>2026-07-21T23:38:44.000Z</time></trkpt>
        <trkpt lat="28.703791" lon="105.075363"><ele>324.53146</ele><time>2026-07-21T23:38:51.000Z</time></trkpt>
        <trkpt lat="28.70405" lon="105.075529"><ele>323.56012</ele><time>2026-07-21T23:38:56.000Z</time></trkpt>
        <trkpt lat="28.704051" lon="105.075529"><ele>323.27142</ele><time>2026-07-21T23:38:58.000Z</time></trkpt>
        <trkpt lat="28.704064" lon="105.075538"><ele>322.92526</ele><time>2026-07-21T23:39:00.000Z</time></trkpt>
        <trkpt lat="28.704126" lon="105.075579"><ele>322.7082</ele><time>2026-07-21T23:39:02.000Z</time></trkpt>
        <trkpt lat="28.704253" lon="105.075665"><ele>322.3255</ele><time>2026-07-21T23:39:04.000Z</time></trkpt>
        <trkpt lat="28.704562" lon="105.075872"><ele>322.2207</ele><time>2026-07-21T23:39:07.000Z</time></trkpt>
        <trkpt lat="28.70458" lon="105.075888"><ele>322.4735</ele><time>2026-07-21T23:39:09.000Z</time></trkpt>
        <trkpt lat="28.704587" lon="105.075898"><ele>322.72662</ele><time>2026-07-21T23:39:11.000Z</time></trkpt>
        <trkpt lat="28.704611" lon="105.075939"><ele>323.2454</ele><time>2026-07-21T23:39:13.000Z</time></trkpt>
        <trkpt lat="28.704659" lon="105.076019"><ele>324.95306</ele><time>2026-07-21T23:39:15.000Z</time></trkpt>
        <trkpt lat="28.704716" lon="105.07624"><ele>326.63773</ele><time>2026-07-21T23:39:17.000Z</time></trkpt>
        <trkpt lat="28.704718" lon="105.076257"><ele>329.02206</ele><time>2026-07-21T23:39:19.000Z</time></trkpt>
        <trkpt lat="28.70472" lon="105.076274"><ele>329.77994</ele><time>2026-07-21T23:39:21.000Z</time></trkpt>
        <trkpt lat="28.70474" lon="105.076347"><ele>329.66205</ele><time>2026-07-21T23:39:23.000Z</time></trkpt>
        <trkpt lat="28.704781" lon="105.076498"><ele>328.93106</ele><time>2026-07-21T23:39:25.000Z</time></trkpt>
        <trkpt lat="28.704987" lon="105.076829"><ele>329.25677</ele><time>2026-07-21T23:39:27.000Z</time></trkpt>
        <trkpt lat="28.705001" lon="105.076853"><ele>332.15417</ele><time>2026-07-21T23:39:29.000Z</time></trkpt>
        <trkpt lat="28.705016" lon="105.076877"><ele>334.95425</ele><time>2026-07-21T23:39:31.000Z</time></trkpt>
        <trkpt lat="28.705089" lon="105.076965"><ele>338.31754</ele><time>2026-07-21T23:39:33.000Z</time></trkpt>
        <trkpt lat="28.705423" lon="105.077367"><ele>341.37265</ele><time>2026-07-21T23:39:35.000Z</time></trkpt>
        <trkpt lat="28.705451" lon="105.077389"><ele>343.57465</ele><time>2026-07-21T23:39:37.000Z</time></trkpt>
        <trkpt lat="28.705479" lon="105.077401"><ele>347.27695</ele><time>2026-07-21T23:39:39.000Z</time></trkpt>
        <trkpt lat="28.705597" lon="105.077437"><ele>350.52518</ele><time>2026-07-21T23:39:41.000Z</time></trkpt>
        <trkpt lat="28.706033" lon="105.077571"><ele>352.72733</ele><time>2026-07-21T23:39:43.000Z</time></trkpt>
        <trkpt lat="28.706063" lon="105.077585"><ele>354.94455</ele><time>2026-07-21T23:39:45.000Z</time></trkpt>
        <trkpt lat="28.706072" lon="105.077599"><ele>357.35513</ele><time>2026-07-21T23:39:47.000Z</time></trkpt>
        <trkpt lat="28.706116" lon="105.077662"><ele>357.28018</ele><time>2026-07-21T23:39:49.000Z</time></trkpt>
        <trkpt lat="28.706154" lon="105.077805"><ele>359.62546</ele><time>2026-07-21T23:39:51.000Z</time></trkpt>
        <trkpt lat="28.706155" lon="105.077977"><ele>360.15363</ele><time>2026-07-21T23:39:53.000Z</time></trkpt>
        <trkpt lat="28.706158" lon="105.078143"><ele>361.2602</ele><time>2026-07-21T23:39:55.000Z</time></trkpt>
        <trkpt lat="28.706171" lon="105.078296"><ele>362.05667</ele><time>2026-07-21T23:39:57.000Z</time></trkpt>
        <trkpt lat="28.706184" lon="105.07844"><ele>361.91016</ele><time>2026-07-21T23:39:59.000Z</time></trkpt>
        <trkpt lat="28.706234" lon="105.07857"><ele>362.57126</ele><time>2026-07-21T23:40:01.000Z</time></trkpt>
        <trkpt lat="28.706285" lon="105.078674"><ele>363.43555</ele><time>2026-07-21T23:40:03.000Z</time></trkpt>
        <trkpt lat="28.706322" lon="105.078749"><ele>363.7784</ele><time>2026-07-21T23:40:05.000Z</time></trkpt>
        <trkpt lat="28.706372" lon="105.078786"><ele>364.28796</ele><time>2026-07-21T23:40:07.000Z</time></trkpt>
        <trkpt lat="28.706441" lon="105.078789"><ele>364.99118</ele><time>2026-07-21T23:40:09.000Z</time></trkpt>
        <trkpt lat="28.706595" lon="105.078678"><ele>365.47568</ele><time>2026-07-21T23:40:11.000Z</time></trkpt>
        <trkpt lat="28.706605" lon="105.078676"><ele>366.3524</ele><time>2026-07-21T23:40:13.000Z</time></trkpt>
        <trkpt lat="28.706628" lon="105.078678"><ele>367.56854</ele><time>2026-07-21T23:40:15.000Z</time></trkpt>
        <trkpt lat="28.706733" lon="105.078693"><ele>369.5547</ele><time>2026-07-21T23:40:17.000Z</time></trkpt>
        <trkpt lat="28.70718" lon="105.078759"><ele>372.26852</ele><time>2026-07-21T23:40:19.000Z</time></trkpt>
        <trkpt lat="28.70721" lon="105.078762"><ele>374.4448</ele><time>2026-07-21T23:40:21.000Z</time></trkpt>
        <trkpt lat="28.707229" lon="105.078765"><ele>376.08026</ele><time>2026-07-21T23:40:23.000Z</time></trkpt>
        <trkpt lat="28.707293" lon="105.078784"><ele>376.85413</ele><time>2026-07-21T23:40:25.000Z</time></trkpt>
        <trkpt lat="28.707495" lon="105.078842"><ele>377.03952</ele><time>2026-07-21T23:40:27.000Z</time></trkpt>
        <trkpt lat="28.707507" lon="105.078851"><ele>377.47565</ele><time>2026-07-21T23:40:29.000Z</time></trkpt>
        <trkpt lat="28.707507" lon="105.07885"><ele>378.02164</ele><time>2026-07-21T23:40:31.000Z</time></trkpt>
        <trkpt lat="28.707441" lon="105.078878"><ele>379.81253</ele><time>2026-07-21T23:40:35.000Z</time></trkpt>
        <trkpt lat="28.70737" lon="105.078907"><ele>380.88394</ele><time>2026-07-21T23:40:37.000Z</time></trkpt>
        <trkpt lat="28.707242" lon="105.079045"><ele>381.96243</ele><time>2026-07-21T23:40:39.000Z</time></trkpt>
        <trkpt lat="28.707243" lon="105.079051"><ele>384.83902</ele><time>2026-07-21T23:40:41.000Z</time></trkpt>
        <trkpt lat="28.707249" lon="105.079073"><ele>387.17444</ele><time>2026-07-21T23:40:43.000Z</time></trkpt>
        <trkpt lat="28.707281" lon="105.079179"><ele>390.66873</ele><time>2026-07-21T23:40:45.000Z</time></trkpt>
        <trkpt lat="28.70742" lon="105.079641"><ele>394.7992</ele><time>2026-07-21T23:40:47.000Z</time></trkpt>
        <trkpt lat="28.707421" lon="105.07967"><ele>395.37228</ele><time>2026-07-21T23:40:49.000Z</time></trkpt>
        <trkpt lat="28.707413" lon="105.079685"><ele>398.99487</ele><time>2026-07-21T23:40:51.000Z</time></trkpt>
        <trkpt lat="28.707371" lon="105.079765"><ele>402.45074</ele><time>2026-07-21T23:40:53.000Z</time></trkpt>
        <trkpt lat="28.70726" lon="105.079887"><ele>405.09454</ele><time>2026-07-21T23:40:54.000Z</time></trkpt>
        <trkpt lat="28.707135" lon="105.080026"><ele>405.88245</ele><time>2026-07-21T23:40:56.000Z</time></trkpt>
        <trkpt lat="28.707044" lon="105.080166"><ele>407.02847</ele><time>2026-07-21T23:40:58.000Z</time></trkpt>
        <trkpt lat="28.70703" lon="105.080297"><ele>409.16214</ele><time>2026-07-21T23:41:00.000Z</time></trkpt>
        <trkpt lat="28.707085" lon="105.080401"><ele>412.2297</ele><time>2026-07-21T23:41:02.000Z</time></trkpt>
        <trkpt lat="28.707173" lon="105.080506"><ele>415.3135</ele><time>2026-07-21T23:41:04.000Z</time></trkpt>
        <trkpt lat="28.707263" lon="105.080615"><ele>417.9824</ele><time>2026-07-21T23:41:06.000Z</time></trkpt>
        <trkpt lat="28.707308" lon="105.08075"><ele>420.76556</ele><time>2026-07-21T23:41:08.000Z</time></trkpt>
        <trkpt lat="28.707307" lon="105.080902"><ele>424.70715</ele><time>2026-07-21T23:41:10.000Z</time></trkpt>
        <trkpt lat="28.707293" lon="105.081067"><ele>427.53775</ele><time>2026-07-21T23:41:12.000Z</time></trkpt>
        <trkpt lat="28.707269" lon="105.081245"><ele>430.99887</ele><time>2026-07-21T23:41:14.000Z</time></trkpt>
        <trkpt lat="28.70724" lon="105.08143"><ele>433.97882</ele><time>2026-07-21T23:41:16.000Z</time></trkpt>
        <trkpt lat="28.707212" lon="105.081621"><ele>435.78128</ele><time>2026-07-21T23:41:19.000Z</time></trkpt>
        <trkpt lat="28.707187" lon="105.081818"><ele>437.30685</ele><time>2026-07-21T23:41:21.000Z</time></trkpt>
        <trkpt lat="28.707163" lon="105.082019"><ele>439.56406</ele><time>2026-07-21T23:41:23.000Z</time></trkpt>
        <trkpt lat="28.707132" lon="105.082289"><ele>442.36737</ele><time>2026-07-21T23:41:25.000Z</time></trkpt>
        <trkpt lat="28.707128" lon="105.082306"><ele>444.2853</ele><time>2026-07-21T23:41:27.000Z</time></trkpt>
        <trkpt lat="28.707121" lon="105.082335"><ele>446.10626</ele><time>2026-07-21T23:41:29.000Z</time></trkpt>
        <trkpt lat="28.707097" lon="105.082438"><ele>446.11447</ele><time>2026-07-21T23:41:31.000Z</time></trkpt>
        <trkpt lat="28.707111" lon="105.082751"><ele>447.04993</ele><time>2026-07-21T23:41:33.000Z</time></trkpt>
        <trkpt lat="28.707112" lon="105.082772"><ele>447.72644</ele><time>2026-07-21T23:41:35.000Z</time></trkpt>
        <trkpt lat="28.707135" lon="105.082773"><ele>447.23795</ele><time>2026-07-21T23:41:37.000Z</time></trkpt>
        <trkpt lat="28.707246" lon="105.082771"><ele>449.19193</ele><time>2026-07-21T23:41:39.000Z</time></trkpt>
        <trkpt lat="28.707656" lon="105.082764"><ele>451.14285</ele><time>2026-07-21T23:41:41.000Z</time></trkpt>
        <trkpt lat="28.70768" lon="105.082766"><ele>453.30426</ele><time>2026-07-21T23:41:43.000Z</time></trkpt>
        <trkpt lat="28.7077" lon="105.082773"><ele>455.1625</ele><time>2026-07-21T23:41:45.000Z</time></trkpt>
        <trkpt lat="28.707764" lon="105.082808"><ele>456.55844</ele><time>2026-07-21T23:41:47.000Z</time></trkpt>
        <trkpt lat="28.707951" lon="105.082911"><ele>456.84183</ele><time>2026-07-21T23:41:49.000Z</time></trkpt>
        <trkpt lat="28.707963" lon="105.082917"><ele>456.87665</ele><time>2026-07-21T23:41:51.000Z</time></trkpt>
        <trkpt lat="28.707961" lon="105.082918"><ele>457.45712</ele><time>2026-07-21T23:41:53.000Z</time></trkpt>
        <trkpt lat="28.707984" lon="105.082907"><ele>459.10303</ele><time>2026-07-21T23:42:05.000Z</time></trkpt>
        <trkpt lat="28.707984" lon="105.082907"><ele>459.01627</ele><time>2026-07-21T23:42:07.000Z</time></trkpt>
        <trkpt lat="28.707986" lon="105.082907"><ele>458.7191</ele><time>2026-07-21T23:42:09.000Z</time></trkpt>
        <trkpt lat="28.708024" lon="105.082917"><ele>457.72943</ele><time>2026-07-21T23:42:15.000Z</time></trkpt>
        <trkpt lat="28.708036" lon="105.08292"><ele>457.47867</ele><time>2026-07-21T23:42:17.000Z</time></trkpt>
        <trkpt lat="28.708045" lon="105.082917"><ele>458.01523</ele><time>2026-07-21T23:42:19.000Z</time></trkpt>
        <trkpt lat="28.708052" lon="105.082915"><ele>459.46707</ele><time>2026-07-21T23:42:23.000Z</time></trkpt>
        <trkpt lat="28.708056" lon="105.082914"><ele>459.22244</ele><time>2026-07-21T23:42:25.000Z</time></trkpt>
        <trkpt lat="28.708022" lon="105.08292"><ele>457.84723</ele><time>2026-07-21T23:42:35.000Z</time></trkpt>
        <trkpt lat="28.708021" lon="105.082918"><ele>457.63226</ele><time>2026-07-21T23:42:37.000Z</time></trkpt>
        <trkpt lat="28.708012" lon="105.082894"><ele>456.9152</ele><time>2026-07-21T23:42:39.000Z</time></trkpt>
        <trkpt lat="28.707998" lon="105.082853"><ele>456.275</ele><time>2026-07-21T23:42:42.000Z</time></trkpt>
        <trkpt lat="28.707998" lon="105.082853"><ele>455.9089</ele><time>2026-07-21T23:42:44.000Z</time></trkpt>
        <trkpt lat="28.707998" lon="105.082851"><ele>456.00714</ele><time>2026-07-21T23:42:46.000Z</time></trkpt>
        <trkpt lat="28.708016" lon="105.082812"><ele>456.35724</ele><time>2026-07-21T23:42:52.000Z</time></trkpt>
        <trkpt lat="28.708016" lon="105.082812"><ele>456.5639</ele><time>2026-07-21T23:42:54.000Z</time></trkpt>
        <trkpt lat="28.708016" lon="105.082812"><ele>456.69235</ele><time>2026-07-21T23:42:56.000Z</time></trkpt>
        <trkpt lat="28.70801" lon="105.082825"><ele>454.1634</ele><time>2026-07-21T23:43:10.000Z</time></trkpt>
        <trkpt lat="28.708006" lon="105.082837"><ele>454.32135</ele><time>2026-07-21T23:43:12.000Z</time></trkpt>
        <trkpt lat="28.708006" lon="105.082837"><ele>455.45685</ele><time>2026-07-21T23:43:14.000Z</time></trkpt>
        <trkpt lat="28.70799" lon="105.082838"><ele>455.3469</ele><time>2026-07-21T23:43:16.000Z</time></trkpt>
        <trkpt lat="28.707987" lon="105.082838"><ele>455.96918</ele><time>2026-07-21T23:43:20.000Z</time></trkpt>
        <trkpt lat="28.707966" lon="105.082835"><ele>456.67776</ele><time>2026-07-21T23:43:24.000Z</time></trkpt>
        <trkpt lat="28.70795" lon="105.082832"><ele>457.72046</ele><time>2026-07-21T23:43:26.000Z</time></trkpt>
        <trkpt lat="28.70794" lon="105.082834"><ele>458.1673</ele><time>2026-07-21T23:43:28.000Z</time></trkpt>
        <trkpt lat="28.707934" lon="105.082838"><ele>457.9801</ele><time>2026-07-21T23:43:31.000Z</time></trkpt>
        <trkpt lat="28.707928" lon="105.082847"><ele>457.578</ele><time>2026-07-21T23:43:33.000Z</time></trkpt>
        <trkpt lat="28.707923" lon="105.08286"><ele>459.26865</ele><time>2026-07-21T23:43:35.000Z</time></trkpt>
        <trkpt lat="28.707925" lon="105.082865"><ele>458.60672</ele><time>2026-07-21T23:43:37.000Z</time></trkpt>
        <trkpt lat="28.707934" lon="105.082882"><ele>457.26898</ele><time>2026-07-21T23:43:41.000Z</time></trkpt>
        <trkpt lat="28.707939" lon="105.082888"><ele>456.7635</ele><time>2026-07-21T23:43:43.000Z</time></trkpt>
        <trkpt lat="28.70794" lon="105.082891"><ele>457.27887</ele><time>2026-07-21T23:43:45.000Z</time></trkpt>
        <trkpt lat="28.707939" lon="105.082905"><ele>459.3341</ele><time>2026-07-21T23:43:49.000Z</time></trkpt>
        <trkpt lat="28.707923" lon="105.083217"><ele>463.00098</ele><time>2026-07-21T23:43:55.000Z</time></trkpt>
        <trkpt lat="28.707923" lon="105.083218"><ele>465.72217</ele><time>2026-07-21T23:43:57.000Z</time></trkpt>
        <trkpt lat="28.707919" lon="105.083239"><ele>468.70233</ele><time>2026-07-21T23:43:59.000Z</time></trkpt>
        <trkpt lat="28.707899" lon="105.083342"><ele>470.98077</ele><time>2026-07-21T23:44:01.000Z</time></trkpt>
        <trkpt lat="28.707788" lon="105.083924"><ele>473.5736</ele><time>2026-07-21T23:44:03.000Z</time></trkpt>
        <trkpt lat="28.707782" lon="105.083958"><ele>476.34418</ele><time>2026-07-21T23:44:05.000Z</time></trkpt>
        <trkpt lat="28.707778" lon="105.083984"><ele>478.59702</ele><time>2026-07-21T23:44:07.000Z</time></trkpt>
        <trkpt lat="28.707761" lon="105.084095"><ele>480.0864</ele><time>2026-07-21T23:44:09.000Z</time></trkpt>
        <trkpt lat="28.70767" lon="105.084699"><ele>482.12473</ele><time>2026-07-21T23:44:11.000Z</time></trkpt>
        <trkpt lat="28.707666" lon="105.08474"><ele>483.77475</ele><time>2026-07-21T23:44:13.000Z</time></trkpt>
        <trkpt lat="28.707665" lon="105.084768"><ele>485.5109</ele><time>2026-07-21T23:44:15.000Z</time></trkpt>
        <trkpt lat="28.707663" lon="105.084887"><ele>487.4727</ele><time>2026-07-21T23:44:17.000Z</time></trkpt>
        <trkpt lat="28.707656" lon="105.085396"><ele>488.86676</ele><time>2026-07-21T23:44:19.000Z</time></trkpt>
        <trkpt lat="28.707655" lon="105.085431"><ele>489.43637</ele><time>2026-07-21T23:44:21.000Z</time></trkpt>
        <trkpt lat="28.707655" lon="105.085437"><ele>489.6049</ele><time>2026-07-21T23:44:23.000Z</time></trkpt>
        <trkpt lat="28.707653" lon="105.085455"><ele>489.88425</ele><time>2026-07-21T23:44:27.000Z</time></trkpt>
        <trkpt lat="28.707651" lon="105.085461"><ele>489.78476</ele><time>2026-07-21T23:44:29.000Z</time></trkpt>
        <trkpt lat="28.70765" lon="105.085466"><ele>489.7468</ele><time>2026-07-21T23:44:31.000Z</time></trkpt>
        <trkpt lat="28.707646" lon="105.085482"><ele>490.01794</ele><time>2026-07-21T23:44:33.000Z</time></trkpt>
        <trkpt lat="28.707695" lon="105.085483"><ele>489.92664</ele><time>2026-07-21T23:44:41.000Z</time></trkpt>
        <trkpt lat="28.707721" lon="105.085491"><ele>489.73187</ele><time>2026-07-21T23:44:43.000Z</time></trkpt>
        <trkpt lat="28.707743" lon="105.085506"><ele>490.2078</ele><time>2026-07-21T23:44:45.000Z</time></trkpt>
        <trkpt lat="28.707757" lon="105.085524"><ele>489.81604</ele><time>2026-07-21T23:44:47.000Z</time></trkpt>
        <trkpt lat="28.707769" lon="105.085543"><ele>490.30792</ele><time>2026-07-21T23:44:49.000Z</time></trkpt>
        <trkpt lat="28.70778" lon="105.085565"><ele>490.67877</ele><time>2026-07-21T23:44:51.000Z</time></trkpt>
        <trkpt lat="28.707788" lon="105.085585"><ele>490.71082</ele><time>2026-07-21T23:44:53.000Z</time></trkpt>
        <trkpt lat="28.70779" lon="105.085605"><ele>490.45062</ele><time>2026-07-21T23:44:55.000Z</time></trkpt>
        <trkpt lat="28.70779" lon="105.085624"><ele>491.57315</ele><time>2026-07-21T23:44:57.000Z</time></trkpt>
        <trkpt lat="28.707788" lon="105.085638"><ele>491.6111</ele><time>2026-07-21T23:44:59.000Z</time></trkpt>
        <trkpt lat="28.707784" lon="105.085642"><ele>491.635</ele><time>2026-07-21T23:45:01.000Z</time></trkpt>
        <trkpt lat="28.707784" lon="105.085643"><ele>491.40692</ele><time>2026-07-21T23:45:05.000Z</time></trkpt>
        <trkpt lat="28.707789" lon="105.08566"><ele>491.7172</ele><time>2026-07-21T23:45:19.000Z</time></trkpt>
        <trkpt lat="28.70779" lon="105.085663"><ele>491.69797</ele><time>2026-07-21T23:45:21.000Z</time></trkpt>
        <trkpt lat="28.70779" lon="105.085665"><ele>491.86646</ele><time>2026-07-21T23:45:23.000Z</time></trkpt>
        <trkpt lat="28.707784" lon="105.085644"><ele>489.6608</ele><time>2026-07-21T23:45:38.000Z</time></trkpt>
        <trkpt lat="28.707778" lon="105.085632"><ele>490.05255</ele><time>2026-07-21T23:45:40.000Z</time></trkpt>
        <trkpt lat="28.707771" lon="105.085614"><ele>490.4857</ele><time>2026-07-21T23:45:42.000Z</time></trkpt>
        <trkpt lat="28.70777" lon="105.085613"><ele>490.48532</ele><time>2026-07-21T23:45:44.000Z</time></trkpt>
        <trkpt lat="28.707762" lon="105.085592"><ele>490.16507</ele><time>2026-07-21T23:45:48.000Z</time></trkpt>
        <trkpt lat="28.707755" lon="105.085566"><ele>489.59814</ele><time>2026-07-21T23:45:50.000Z</time></trkpt>
        <trkpt lat="28.707745" lon="105.085535"><ele>489.53537</ele><time>2026-07-21T23:45:52.000Z</time></trkpt>
        <trkpt lat="28.707736" lon="105.085509"><ele>489.5828</ele><time>2026-07-21T23:45:54.000Z</time></trkpt>
        <trkpt lat="28.707724" lon="105.085485"><ele>489.6717</ele><time>2026-07-21T23:45:56.000Z</time></trkpt>
        <trkpt lat="28.707708" lon="105.08547"><ele>489.31152</ele><time>2026-07-21T23:45:58.000Z</time></trkpt>
        <trkpt lat="28.707691" lon="105.085457"><ele>490.09348</ele><time>2026-07-21T23:46:00.000Z</time></trkpt>
        <trkpt lat="28.707673" lon="105.085446"><ele>489.52277</ele><time>2026-07-21T23:46:02.000Z</time></trkpt>
        <trkpt lat="28.70765" lon="105.085436"><ele>489.12613</ele><time>2026-07-21T23:46:04.000Z</time></trkpt>
        <trkpt lat="28.707622" lon="105.085429"><ele>490.34326</ele><time>2026-07-21T23:46:06.000Z</time></trkpt>
        <trkpt lat="28.707593" lon="105.085428"><ele>489.59802</ele><time>2026-07-21T23:46:08.000Z</time></trkpt>
        <trkpt lat="28.707565" lon="105.085437"><ele>489.797</ele><time>2026-07-21T23:46:10.000Z</time></trkpt>
        <trkpt lat="28.70754" lon="105.085451"><ele>489.95694</ele><time>2026-07-21T23:46:12.000Z</time></trkpt>
        <trkpt lat="28.707517" lon="105.085471"><ele>490.1275</ele><time>2026-07-21T23:46:14.000Z</time></trkpt>
        <trkpt lat="28.707494" lon="105.085492"><ele>490.5334</ele><time>2026-07-21T23:46:16.000Z</time></trkpt>
        <trkpt lat="28.707473" lon="105.085513"><ele>490.18747</ele><time>2026-07-21T23:46:18.000Z</time></trkpt>
        <trkpt lat="28.707452" lon="105.085532"><ele>490.28394</ele><time>2026-07-21T23:46:20.000Z</time></trkpt>
        <trkpt lat="28.70743" lon="105.085549"><ele>489.92038</ele><time>2026-07-21T23:46:22.000Z</time></trkpt>
        <trkpt lat="28.707409" lon="105.085566"><ele>490.01566</ele><time>2026-07-21T23:46:24.000Z</time></trkpt>
        <trkpt lat="28.707387" lon="105.085583"><ele>490.32837</ele><time>2026-07-21T23:46:26.000Z</time></trkpt>
        <trkpt lat="28.707365" lon="105.0856"><ele>490.4818</ele><time>2026-07-21T23:46:28.000Z</time></trkpt>
        <trkpt lat="28.707342" lon="105.085618"><ele>490.52097</ele><time>2026-07-21T23:46:30.000Z</time></trkpt>
        <trkpt lat="28.707318" lon="105.085635"><ele>490.18076</ele><time>2026-07-21T23:46:32.000Z</time></trkpt>
        <trkpt lat="28.707293" lon="105.085651"><ele>490.36212</ele><time>2026-07-21T23:46:34.000Z</time></trkpt>
        <trkpt lat="28.707269" lon="105.085667"><ele>490.1711</ele><time>2026-07-21T23:46:36.000Z</time></trkpt>
        <trkpt lat="28.707246" lon="105.085682"><ele>489.92624</ele><time>2026-07-21T23:46:38.000Z</time></trkpt>
        <trkpt lat="28.707223" lon="105.085696"><ele>489.64777</ele><time>2026-07-21T23:46:40.000Z</time></trkpt>
        <trkpt lat="28.707199" lon="105.085708"><ele>489.58813</ele><time>2026-07-21T23:46:42.000Z</time></trkpt>
        <trkpt lat="28.707175" lon="105.08572"><ele>489.9776</ele><time>2026-07-21T23:46:44.000Z</time></trkpt>
        <trkpt lat="28.707153" lon="105.085734"><ele>489.7554</ele><time>2026-07-21T23:46:46.000Z</time></trkpt>
        <trkpt lat="28.707138" lon="105.08575"><ele>489.52316</ele><time>2026-07-21T23:46:48.000Z</time></trkpt>
        <trkpt lat="28.707131" lon="105.085761"><ele>489.63965</ele><time>2026-07-21T23:46:50.000Z</time></trkpt>
        <trkpt lat="28.707127" lon="105.085771"><ele>489.38983</ele><time>2026-07-21T23:46:52.000Z</time></trkpt>
        <trkpt lat="28.707128" lon="105.085776"><ele>488.96646</ele><time>2026-07-21T23:46:56.000Z</time></trkpt>
        <trkpt lat="28.707121" lon="105.085748"><ele>487.36786</ele><time>2026-07-21T23:47:15.000Z</time></trkpt>
        <trkpt lat="28.707121" lon="105.085747"><ele>487.2631</ele><time>2026-07-21T23:47:17.000Z</time></trkpt>
        <trkpt lat="28.707122" lon="105.085746"><ele>487.19528</ele><time>2026-07-21T23:47:19.000Z</time></trkpt>
        <trkpt lat="28.707117" lon="105.085769"><ele>487.4859</ele><time>2026-07-21T23:47:37.000Z</time></trkpt>
        <trkpt lat="28.707094" lon="105.085756"><ele>487.93274</ele><time>2026-07-21T23:47:57.000Z</time></trkpt>
        <trkpt lat="28.707094" lon="105.085756"><ele>487.96143</ele><time>2026-07-21T23:47:59.000Z</time></trkpt>
        <trkpt lat="28.707094" lon="105.085756"><ele>487.81754</ele><time>2026-07-21T23:48:01.000Z</time></trkpt>
        <trkpt lat="28.707114" lon="105.085755"><ele>486.65933</ele><time>2026-07-21T23:48:09.000Z</time></trkpt>
        <trkpt lat="28.707134" lon="105.085755"><ele>486.85388</ele><time>2026-07-21T23:48:11.000Z</time></trkpt>
        <trkpt lat="28.707136" lon="105.085755"><ele>487.85974</ele><time>2026-07-21T23:48:13.000Z</time></trkpt>
        <trkpt lat="28.707138" lon="105.085757"><ele>488.29376</ele><time>2026-07-21T23:48:15.000Z</time></trkpt>
        <trkpt lat="28.707166" lon="105.085775"><ele>488.87686</ele><time>2026-07-21T23:48:19.000Z</time></trkpt>
        <trkpt lat="28.707182" lon="105.085791"><ele>489.07504</ele><time>2026-07-21T23:48:21.000Z</time></trkpt>
        <trkpt lat="28.707195" lon="105.085811"><ele>489.58777</ele><time>2026-07-21T23:48:23.000Z</time></trkpt>
        <trkpt lat="28.707201" lon="105.085832"><ele>489.65833</ele><time>2026-07-21T23:48:25.000Z</time></trkpt>
        <trkpt lat="28.707201" lon="105.085852"><ele>489.89484</ele><time>2026-07-21T23:48:27.000Z</time></trkpt>
        <trkpt lat="28.707199" lon="105.085873"><ele>490.3747</ele><time>2026-07-21T23:48:29.000Z</time></trkpt>
        <trkpt lat="28.707195" lon="105.085894"><ele>490.53696</ele><time>2026-07-21T23:48:31.000Z</time></trkpt>
        <trkpt lat="28.707193" lon="105.085915"><ele>490.61566</ele><time>2026-07-21T23:48:33.000Z</time></trkpt>
        <trkpt lat="28.707197" lon="105.085935"><ele>491.0859</ele><time>2026-07-21T23:48:35.000Z</time></trkpt>
        <trkpt lat="28.707203" lon="105.085965"><ele>491.9047</ele><time>2026-07-21T23:48:37.000Z</time></trkpt>
        <trkpt lat="28.707209" lon="105.085981"><ele>492.1216</ele><time>2026-07-21T23:48:39.000Z</time></trkpt>
        <trkpt lat="28.707216" lon="105.085993"><ele>492.2233</ele><time>2026-07-21T23:48:41.000Z</time></trkpt>
        <trkpt lat="28.707227" lon="105.086005"><ele>492.41608</ele><time>2026-07-21T23:48:43.000Z</time></trkpt>
        <trkpt lat="28.707238" lon="105.086016"><ele>492.62985</ele><time>2026-07-21T23:48:45.000Z</time></trkpt>
        <trkpt lat="28.70725" lon="105.086028"><ele>493.06305</ele><time>2026-07-21T23:48:47.000Z</time></trkpt>
        <trkpt lat="28.707261" lon="105.08604"><ele>493.14554</ele><time>2026-07-21T23:48:49.000Z</time></trkpt>
        <trkpt lat="28.707274" lon="105.086051"><ele>494.20755</ele><time>2026-07-21T23:48:51.000Z</time></trkpt>
        <trkpt lat="28.707289" lon="105.086057"><ele>493.65585</ele><time>2026-07-21T23:48:53.000Z</time></trkpt>
        <trkpt lat="28.707304" lon="105.086055"><ele>493.3969</ele><time>2026-07-21T23:48:55.000Z</time></trkpt>
        <trkpt lat="28.707321" lon="105.086046"><ele>493.98123</ele><time>2026-07-21T23:48:57.000Z</time></trkpt>
        <trkpt lat="28.707339" lon="105.086031"><ele>494.07507</ele><time>2026-07-21T23:48:59.000Z</time></trkpt>
        <trkpt lat="28.707357" lon="105.086011"><ele>494.11746</ele><time>2026-07-21T23:49:01.000Z</time></trkpt>
        <trkpt lat="28.707374" lon="105.08599"><ele>494.5788</ele><time>2026-07-21T23:49:03.000Z</time></trkpt>
        <trkpt lat="28.707392" lon="105.08597"><ele>495.31042</ele><time>2026-07-21T23:49:05.000Z</time></trkpt>
        <trkpt lat="28.70741" lon="105.085954"><ele>495.27936</ele><time>2026-07-21T23:49:07.000Z</time></trkpt>
        <trkpt lat="28.707426" lon="105.085943"><ele>496.0986</ele><time>2026-07-21T23:49:09.000Z</time></trkpt>
        <trkpt lat="28.707444" lon="105.085933"><ele>496.8082</ele><time>2026-07-21T23:49:11.000Z</time></trkpt>
        <trkpt lat="28.707452" lon="105.085932"><ele>497.31488</ele><time>2026-07-21T23:49:13.000Z</time></trkpt>
        <trkpt lat="28.707452" lon="105.085931"><ele>497.10596</ele><time>2026-07-21T23:49:15.000Z</time></trkpt>
        <trkpt lat="28.70745" lon="105.085954"><ele>495.21744</ele><time>2026-07-21T23:49:17.000Z</time></trkpt>
        <trkpt lat="28.70745" lon="105.085954"><ele>493.91782</ele><time>2026-07-21T23:49:18.000Z</time></trkpt>
        <trkpt lat="28.70745" lon="105.085954"><ele>495.32645</ele><time>2026-07-21T23:49:20.000Z</time></trkpt>
        <trkpt lat="28.707428" lon="105.08596"><ele>495.02756</ele><time>2026-07-21T23:49:42.000Z</time></trkpt>
        <trkpt lat="28.707413" lon="105.085965"><ele>494.77362</ele><time>2026-07-21T23:49:45.000Z</time></trkpt>
        <trkpt lat="28.707412" lon="105.085966"><ele>494.5939</ele><time>2026-07-21T23:49:47.000Z</time></trkpt>
        <trkpt lat="28.707368" lon="105.085991"><ele>493.90787</ele><time>2026-07-21T23:49:50.000Z</time></trkpt>
        <trkpt lat="28.707368" lon="105.085991"><ele>494.24698</ele><time>2026-07-21T23:49:52.000Z</time></trkpt>
        <trkpt lat="28.707365" lon="105.085994"><ele>494.30124</ele><time>2026-07-21T23:49:54.000Z</time></trkpt>
        <trkpt lat="28.707329" lon="105.08603"><ele>494.87015</ele><time>2026-07-21T23:49:58.000Z</time></trkpt>
        <trkpt lat="28.707308" lon="105.086049"><ele>494.6703</ele><time>2026-07-21T23:50:00.000Z</time></trkpt>
        <trkpt lat="28.707287" lon="105.08606"><ele>494.8412</ele><time>2026-07-21T23:50:02.000Z</time></trkpt>
        <trkpt lat="28.707266" lon="105.086061"><ele>494.91702</ele><time>2026-07-21T23:50:04.000Z</time></trkpt>
        <trkpt lat="28.707246" lon="105.086058"><ele>494.4104</ele><time>2026-07-21T23:50:06.000Z</time></trkpt>
        <trkpt lat="28.70723" lon="105.08606"><ele>495.30417</ele><time>2026-07-21T23:50:08.000Z</time></trkpt>
        <trkpt lat="28.707227" lon="105.086065"><ele>495.4443</ele><time>2026-07-21T23:50:10.000Z</time></trkpt>
        <trkpt lat="28.707226" lon="105.086074"><ele>495.95627</ele><time>2026-07-21T23:50:12.000Z</time></trkpt>
        <trkpt lat="28.707227" lon="105.086092"><ele>495.47357</ele><time>2026-07-21T23:50:14.000Z</time></trkpt>
        <trkpt lat="28.707231" lon="105.086112"><ele>495.93307</ele><time>2026-07-21T23:50:16.000Z</time></trkpt>
        <trkpt lat="28.707237" lon="105.086131"><ele>495.4558</ele><time>2026-07-21T23:50:18.000Z</time></trkpt>
        <trkpt lat="28.707246" lon="105.08615"><ele>495.8355</ele><time>2026-07-21T23:50:20.000Z</time></trkpt>
        <trkpt lat="28.707257" lon="105.086171"><ele>496.0565</ele><time>2026-07-21T23:50:22.000Z</time></trkpt>
        <trkpt lat="28.707264" lon="105.086188"><ele>495.01712</ele><time>2026-07-21T23:50:24.000Z</time></trkpt>
        <trkpt lat="28.707262" lon="105.086199"><ele>494.82904</ele><time>2026-07-21T23:50:26.000Z</time></trkpt>
        <trkpt lat="28.707261" lon="105.086199"><ele>495.34286</ele><time>2026-07-21T23:50:28.000Z</time></trkpt>
        <trkpt lat="28.707228" lon="105.086197"><ele>494.88037</ele><time>2026-07-21T23:50:32.000Z</time></trkpt>
        <trkpt lat="28.707214" lon="105.086195"><ele>494.64526</ele><time>2026-07-21T23:50:34.000Z</time></trkpt>
        <trkpt lat="28.707201" lon="105.086192"><ele>494.0808</ele><time>2026-07-21T23:50:36.000Z</time></trkpt>
        <trkpt lat="28.707191" lon="105.08619"><ele>494.4572</ele><time>2026-07-21T23:50:38.000Z</time></trkpt>
        <trkpt lat="28.707179" lon="105.086187"><ele>494.0348</ele><time>2026-07-21T23:50:40.000Z</time></trkpt>
        <trkpt lat="28.707168" lon="105.086186"><ele>494.1391</ele><time>2026-07-21T23:50:42.000Z</time></trkpt>
        <trkpt lat="28.707156" lon="105.086186"><ele>493.64105</ele><time>2026-07-21T23:50:44.000Z</time></trkpt>
        <trkpt lat="28.707138" lon="105.086187"><ele>492.46765</ele><time>2026-07-21T23:50:46.000Z</time></trkpt>
        <trkpt lat="28.707126" lon="105.086189"><ele>491.52335</ele><time>2026-07-21T23:50:48.000Z</time></trkpt>
        <trkpt lat="28.707114" lon="105.086186"><ele>491.5485</ele><time>2026-07-21T23:50:50.000Z</time></trkpt>
        <trkpt lat="28.707108" lon="105.086179"><ele>490.9616</ele><time>2026-07-21T23:50:52.000Z</time></trkpt>
        <trkpt lat="28.707104" lon="105.086168"><ele>490.59097</ele><time>2026-07-21T23:50:54.000Z</time></trkpt>
        <trkpt lat="28.7071" lon="105.086156"><ele>490.22577</ele><time>2026-07-21T23:50:56.000Z</time></trkpt>
        <trkpt lat="28.707098" lon="105.086145"><ele>491.03937</ele><time>2026-07-21T23:50:58.000Z</time></trkpt>
        <trkpt lat="28.707104" lon="105.086135"><ele>490.7846</ele><time>2026-07-21T23:51:00.000Z</time></trkpt>
        <trkpt lat="28.707072" lon="105.086193"><ele>487.72928</ele><time>2026-07-21T23:51:08.000Z</time></trkpt>
        <trkpt lat="28.707072" lon="105.086193"><ele>488.1496</ele><time>2026-07-21T23:51:10.000Z</time></trkpt>
        <trkpt lat="28.70707" lon="105.086194"><ele>487.8507</ele><time>2026-07-21T23:51:12.000Z</time></trkpt>
        <trkpt lat="28.70704" lon="105.086197"><ele>488.90207</ele><time>2026-07-21T23:51:16.000Z</time></trkpt>
        <trkpt lat="28.707018" lon="105.086189"><ele>489.31732</ele><time>2026-07-21T23:51:18.000Z</time></trkpt>
        <trkpt lat="28.707001" lon="105.086173"><ele>488.60074</ele><time>2026-07-21T23:51:20.000Z</time></trkpt>
        <trkpt lat="28.706992" lon="105.086153"><ele>488.337</ele><time>2026-07-21T23:51:22.000Z</time></trkpt>
        <trkpt lat="28.706988" lon="105.08613"><ele>488.44995</ele><time>2026-07-21T23:51:24.000Z</time></trkpt>
        <trkpt lat="28.70699" lon="105.086106"><ele>488.2222</ele><time>2026-07-21T23:51:25.000Z</time></trkpt>
        <trkpt lat="28.706997" lon="105.086081"><ele>488.0202</ele><time>2026-07-21T23:51:27.000Z</time></trkpt>
        <trkpt lat="28.707005" lon="105.086056"><ele>488.4255</ele><time>2026-07-21T23:51:29.000Z</time></trkpt>
        <trkpt lat="28.707014" lon="105.086029"><ele>488.2818</ele><time>2026-07-21T23:51:31.000Z</time></trkpt>
        <trkpt lat="28.707023" lon="105.086002"><ele>488.64233</ele><time>2026-07-21T23:51:33.000Z</time></trkpt>
        <trkpt lat="28.707031" lon="105.085975"><ele>487.97845</ele><time>2026-07-21T23:51:35.000Z</time></trkpt>
        <trkpt lat="28.70704" lon="105.085948"><ele>487.91858</ele><time>2026-07-21T23:51:37.000Z</time></trkpt>
        <trkpt lat="28.707049" lon="105.085921"><ele>487.8717</ele><time>2026-07-21T23:51:39.000Z</time></trkpt>
        <trkpt lat="28.707058" lon="105.085894"><ele>487.6301</ele><time>2026-07-21T23:51:41.000Z</time></trkpt>
        <trkpt lat="28.707068" lon="105.085867"><ele>487.82227</ele><time>2026-07-21T23:51:43.000Z</time></trkpt>
        <trkpt lat="28.707078" lon="105.08584"><ele>487.77292</ele><time>2026-07-21T23:51:45.000Z</time></trkpt>
        <trkpt lat="28.707088" lon="105.085814"><ele>487.8846</ele><time>2026-07-21T23:51:48.000Z</time></trkpt>
        <trkpt lat="28.707099" lon="105.085786"><ele>488.17636</ele><time>2026-07-21T23:51:50.000Z</time></trkpt>
        <trkpt lat="28.707112" lon="105.085759"><ele>488.30673</ele><time>2026-07-21T23:51:52.000Z</time></trkpt>
        <trkpt lat="28.707127" lon="105.085736"><ele>488.3137</ele><time>2026-07-21T23:51:54.000Z</time></trkpt>
        <trkpt lat="28.707146" lon="105.085716"><ele>488.19104</ele><time>2026-07-21T23:51:56.000Z</time></trkpt>
        <trkpt lat="28.707167" lon="105.085699"><ele>488.18835</ele><time>2026-07-21T23:51:58.000Z</time></trkpt>
        <trkpt lat="28.70719" lon="105.085685"><ele>488.20154</ele><time>2026-07-21T23:52:00.000Z</time></trkpt>
        <trkpt lat="28.707213" lon="105.085674"><ele>488.24753</ele><time>2026-07-21T23:52:02.000Z</time></trkpt>
        <trkpt lat="28.707239" lon="105.085667"><ele>488.5861</ele><time>2026-07-21T23:52:04.000Z</time></trkpt>
        <trkpt lat="28.707265" lon="105.085668"><ele>488.6896</ele><time>2026-07-21T23:52:06.000Z</time></trkpt>
        <trkpt lat="28.707289" lon="105.085677"><ele>488.75708</ele><time>2026-07-21T23:52:08.000Z</time></trkpt>
        <trkpt lat="28.707311" lon="105.085691"><ele>488.72974</ele><time>2026-07-21T23:52:10.000Z</time></trkpt>
        <trkpt lat="28.707331" lon="105.08571"><ele>489.39188</ele><time>2026-07-21T23:52:12.000Z</time></trkpt>
        <trkpt lat="28.70735" lon="105.085731"><ele>489.036</ele><time>2026-07-21T23:52:14.000Z</time></trkpt>
        <trkpt lat="28.707368" lon="105.085752"><ele>489.02118</ele><time>2026-07-21T23:52:16.000Z</time></trkpt>
        <trkpt lat="28.707378" lon="105.085767"><ele>489.3735</ele><time>2026-07-21T23:52:18.000Z</time></trkpt>
        <trkpt lat="28.707385" lon="105.085775"><ele>489.87958</ele><time>2026-07-21T23:52:20.000Z</time></trkpt>
        <trkpt lat="28.707388" lon="105.085778"><ele>490.18875</ele><time>2026-07-21T23:52:22.000Z</time></trkpt>
        <trkpt lat="28.70739" lon="105.085779"><ele>490.44287</ele><time>2026-07-21T23:52:24.000Z</time></trkpt>
        <trkpt lat="28.707397" lon="105.085774"><ele>490.53378</ele><time>2026-07-21T23:52:26.000Z</time></trkpt>
        <trkpt lat="28.707506" lon="105.085692"><ele>492.7855</ele><time>2026-07-21T23:52:30.000Z</time></trkpt>
        <trkpt lat="28.707507" lon="105.085692"><ele>492.0767</ele><time>2026-07-21T23:52:32.000Z</time></trkpt>
        <trkpt lat="28.707512" lon="105.085677"><ele>491.7217</ele><time>2026-07-21T23:52:34.000Z</time></trkpt>
        <trkpt lat="28.707538" lon="105.085623"><ele>491.45428</ele><time>2026-07-21T23:52:36.000Z</time></trkpt>
        <trkpt lat="28.707581" lon="105.085552"><ele>491.0554</ele><time>2026-07-21T23:52:38.000Z</time></trkpt>
        <trkpt lat="28.707627" lon="105.085496"><ele>491.22363</ele><time>2026-07-21T23:52:40.000Z</time></trkpt>
        <trkpt lat="28.707658" lon="105.085458"><ele>490.49127</ele><time>2026-07-21T23:52:42.000Z</time></trkpt>
        <trkpt lat="28.707691" lon="105.08546"><ele>491.39023</ele><time>2026-07-21T23:52:44.000Z</time></trkpt>
        <trkpt lat="28.707705" lon="105.085503"><ele>492.61435</ele><time>2026-07-21T23:52:46.000Z</time></trkpt>
        <trkpt lat="28.707732" lon="105.085583"><ele>493.01196</ele><time>2026-07-21T23:52:48.000Z</time></trkpt>
        <trkpt lat="28.707739" lon="105.085779"><ele>493.16327</ele><time>2026-07-21T23:52:50.000Z</time></trkpt>
        <trkpt lat="28.707741" lon="105.08579"><ele>493.33746</ele><time>2026-07-21T23:52:52.000Z</time></trkpt>
        <trkpt lat="28.707747" lon="105.085813"><ele>494.4404</ele><time>2026-07-21T23:52:54.000Z</time></trkpt>
        <trkpt lat="28.707785" lon="105.085908"><ele>495.24554</ele><time>2026-07-21T23:52:56.000Z</time></trkpt>
        <trkpt lat="28.707945" lon="105.086309"><ele>497.5317</ele><time>2026-07-21T23:52:58.000Z</time></trkpt>
        <trkpt lat="28.707958" lon="105.086333"><ele>496.533</ele><time>2026-07-21T23:53:00.000Z</time></trkpt>
        <trkpt lat="28.707972" lon="105.086362"><ele>496.93903</ele><time>2026-07-21T23:53:02.000Z</time></trkpt>
        <trkpt lat="28.708029" lon="105.086473"><ele>497.2155</ele><time>2026-07-21T23:53:04.000Z</time></trkpt>
        <trkpt lat="28.708067" lon="105.08689"><ele>495.95288</ele><time>2026-07-21T23:53:06.000Z</time></trkpt>
        <trkpt lat="28.708064" lon="105.086911"><ele>495.87872</ele><time>2026-07-21T23:53:08.000Z</time></trkpt>
        <trkpt lat="28.70806" lon="105.086934"><ele>496.14636</ele><time>2026-07-21T23:53:10.000Z</time></trkpt>
        <trkpt lat="28.708044" lon="105.087042"><ele>498.66318</ele><time>2026-07-21T23:53:12.000Z</time></trkpt>
        <trkpt lat="28.707974" lon="105.08752"><ele>501.8616</ele><time>2026-07-21T23:53:14.000Z</time></trkpt>
        <trkpt lat="28.707974" lon="105.08755"><ele>504.34445</ele><time>2026-07-21T23:53:16.000Z</time></trkpt>
        <trkpt lat="28.707979" lon="105.087583"><ele>507.6471</ele><time>2026-07-21T23:53:18.000Z</time></trkpt>
        <trkpt lat="28.708001" lon="105.087719"><ele>510.89322</ele><time>2026-07-21T23:53:20.000Z</time></trkpt>
        <trkpt lat="28.708156" lon="105.088241"><ele>513.5477</ele><time>2026-07-21T23:53:22.000Z</time></trkpt>
        <trkpt lat="28.708165" lon="105.088276"><ele>515.04626</ele><time>2026-07-21T23:53:24.000Z</time></trkpt>
        <trkpt lat="28.708166" lon="105.088304"><ele>515.7377</ele><time>2026-07-21T23:53:26.000Z</time></trkpt>
        <trkpt lat="28.708169" lon="105.088419"><ele>516.8235</ele><time>2026-07-21T23:53:28.000Z</time></trkpt>
        <trkpt lat="28.708022" lon="105.088865"><ele>520.0796</ele><time>2026-07-21T23:53:30.000Z</time></trkpt>
        <trkpt lat="28.708011" lon="105.088891"><ele>521.12164</ele><time>2026-07-21T23:53:31.000Z</time></trkpt>
        <trkpt lat="28.708003" lon="105.088911"><ele>520.1631</ele><time>2026-07-21T23:53:33.000Z</time></trkpt>
        <trkpt lat="28.707972" lon="105.088986"><ele>518.6596</ele><time>2026-07-21T23:53:35.000Z</time></trkpt>
        <trkpt lat="28.707856" lon="105.089266"><ele>517.9282</ele><time>2026-07-21T23:53:37.000Z</time></trkpt>
        <trkpt lat="28.707848" lon="105.089284"><ele>517.43756</ele><time>2026-07-21T23:53:39.000Z</time></trkpt>
        <trkpt lat="28.707846" lon="105.089287"><ele>517.36676</ele><time>2026-07-21T23:53:42.000Z</time></trkpt>
        <trkpt lat="28.707837" lon="105.089299"><ele>517.0715</ele><time>2026-07-21T23:53:46.000Z</time></trkpt>
        <trkpt lat="28.707831" lon="105.089308"><ele>517.0715</ele><time>2026-07-21T23:53:50.000Z</time></trkpt>
        <trkpt lat="28.70783" lon="105.089308"><ele>516.68353</ele><time>2026-07-21T23:53:52.000Z</time></trkpt>
        <trkpt lat="28.707857" lon="105.08932"><ele>519.26624</ele><time>2026-07-21T23:54:06.000Z</time></trkpt>
        <trkpt lat="28.707864" lon="105.089354"><ele>519.67365</ele><time>2026-07-21T23:54:08.000Z</time></trkpt>
        <trkpt lat="28.707865" lon="105.089356"><ele>520.0403</ele><time>2026-07-21T23:54:10.000Z</time></trkpt>
        <trkpt lat="28.707879" lon="105.089388"><ele>520.86194</ele><time>2026-07-21T23:54:17.000Z</time></trkpt>
        <trkpt lat="28.707891" lon="105.089399"><ele>520.5335</ele><time>2026-07-21T23:54:19.000Z</time></trkpt>
        <trkpt lat="28.7079" lon="105.089399"><ele>517.0713</ele><time>2026-07-21T23:54:21.000Z</time></trkpt>
        <trkpt lat="28.7079" lon="105.0894"><ele>518.21106</ele><time>2026-07-21T23:54:23.000Z</time></trkpt>
        <trkpt lat="28.7079" lon="105.089362"><ele>515.83527</ele><time>2026-07-21T23:54:29.000Z</time></trkpt>
        <trkpt lat="28.7079" lon="105.089362"><ele>516.2325</ele><time>2026-07-21T23:54:31.000Z</time></trkpt>
        <trkpt lat="28.7079" lon="105.089362"><ele>516.3218</ele><time>2026-07-21T23:54:33.000Z</time></trkpt>
        <trkpt lat="28.707878" lon="105.089391"><ele>513.99164</ele><time>2026-07-21T23:54:55.000Z</time></trkpt>
        <trkpt lat="28.707878" lon="105.089391"><ele>513.6114</ele><time>2026-07-21T23:54:57.000Z</time></trkpt>
        <trkpt lat="28.707879" lon="105.089391"><ele>513.65967</ele><time>2026-07-21T23:54:59.000Z</time></trkpt>
        <trkpt lat="28.707907" lon="105.089378"><ele>512.47833</ele><time>2026-07-21T23:55:04.000Z</time></trkpt>
        <trkpt lat="28.707907" lon="105.089378"><ele>511.12106</ele><time>2026-07-21T23:55:06.000Z</time></trkpt>
        <trkpt lat="28.707907" lon="105.089378"><ele>513.3396</ele><time>2026-07-21T23:55:08.000Z</time></trkpt>
        <trkpt lat="28.707899" lon="105.08936"><ele>514.7423</ele><time>2026-07-21T23:55:14.000Z</time></trkpt>
        <trkpt lat="28.707894" lon="105.089348"><ele>514.1967</ele><time>2026-07-21T23:55:16.000Z</time></trkpt>
        <trkpt lat="28.707895" lon="105.089347"><ele>512.8015</ele><time>2026-07-21T23:55:18.000Z</time></trkpt>
        <trkpt lat="28.707882" lon="105.089383"><ele>514.2353</ele><time>2026-07-21T23:55:44.000Z</time></trkpt>
        <trkpt lat="28.707875" lon="105.089407"><ele>515.176</ele><time>2026-07-21T23:55:46.000Z</time></trkpt>
        <trkpt lat="28.707874" lon="105.089408"><ele>516.949</ele><time>2026-07-21T23:55:48.000Z</time></trkpt>
        <trkpt lat="28.707873" lon="105.08941"><ele>518.3261</ele><time>2026-07-21T23:55:50.000Z</time></trkpt>
        <trkpt lat="28.707859" lon="105.089437"><ele>518.606</ele><time>2026-07-21T23:55:54.000Z</time></trkpt>
        <trkpt lat="28.707849" lon="105.089457"><ele>520.2765</ele><time>2026-07-21T23:55:56.000Z</time></trkpt>
        <trkpt lat="28.707836" lon="105.089476"><ele>518.5838</ele><time>2026-07-21T23:55:58.000Z</time></trkpt>
        <trkpt lat="28.707824" lon="105.089494"><ele>517.5534</ele><time>2026-07-21T23:56:00.000Z</time></trkpt>
        <trkpt lat="28.70781" lon="105.089514"><ele>515.4141</ele><time>2026-07-21T23:56:02.000Z</time></trkpt>
        <trkpt lat="28.707786" lon="105.089539"><ele>516.12787</ele><time>2026-07-21T23:56:04.000Z</time></trkpt>
        <trkpt lat="28.707759" lon="105.089561"><ele>515.31866</ele><time>2026-07-21T23:56:06.000Z</time></trkpt>
        <trkpt lat="28.707741" lon="105.089575"><ele>513.9321</ele><time>2026-07-21T23:56:08.000Z</time></trkpt>
        <trkpt lat="28.707732" lon="105.089584"><ele>515.2815</ele><time>2026-07-21T23:56:10.000Z</time></trkpt>
        <trkpt lat="28.707728" lon="105.089589"><ele>515.96857</ele><time>2026-07-21T23:56:12.000Z</time></trkpt>
        <trkpt lat="28.707727" lon="105.089589"><ele>515.96857</ele><time>2026-07-21T23:56:14.000Z</time></trkpt>
        <trkpt lat="28.707744" lon="105.089603"><ele>519.61365</ele><time>2026-07-21T23:56:34.000Z</time></trkpt>
        <trkpt lat="28.707727" lon="105.089637"><ele>520.2469</ele><time>2026-07-21T23:56:36.000Z</time></trkpt>
        <trkpt lat="28.707725" lon="105.089639"><ele>520.5277</ele><time>2026-07-21T23:56:38.000Z</time></trkpt>
        <trkpt lat="28.707722" lon="105.089643"><ele>516.77576</ele><time>2026-07-21T23:56:40.000Z</time></trkpt>
        <trkpt lat="28.707693" lon="105.089676"><ele>514.6087</ele><time>2026-07-21T23:56:44.000Z</time></trkpt>
        <trkpt lat="28.707681" lon="105.089691"><ele>515.98975</ele><time>2026-07-21T23:56:46.000Z</time></trkpt>
        <trkpt lat="28.707669" lon="105.089706"><ele>516.54614</ele><time>2026-07-21T23:56:48.000Z</time></trkpt>
        <trkpt lat="28.707658" lon="105.089722"><ele>517.0632</ele><time>2026-07-21T23:56:50.000Z</time></trkpt>
        <trkpt lat="28.707649" lon="105.089736"><ele>517.05414</ele><time>2026-07-21T23:56:52.000Z</time></trkpt>
        <trkpt lat="28.707644" lon="105.089747"><ele>516.1369</ele><time>2026-07-21T23:56:54.000Z</time></trkpt>
        <trkpt lat="28.707644" lon="105.089755"><ele>515.935</ele><time>2026-07-21T23:56:56.000Z</time></trkpt>
        <trkpt lat="28.707645" lon="105.089767"><ele>517.4914</ele><time>2026-07-21T23:56:58.000Z</time></trkpt>
        <trkpt lat="28.707649" lon="105.089778"><ele>517.43384</ele><time>2026-07-21T23:57:00.000Z</time></trkpt>
        <trkpt lat="28.707653" lon="105.089788"><ele>519.1851</ele><time>2026-07-21T23:57:02.000Z</time></trkpt>
        <trkpt lat="28.707658" lon="105.089801"><ele>520.4424</ele><time>2026-07-21T23:57:04.000Z</time></trkpt>
        <trkpt lat="28.707659" lon="105.08981"><ele>522.6323</ele><time>2026-07-21T23:57:06.000Z</time></trkpt>
        <trkpt lat="28.707656" lon="105.089823"><ele>524.4605</ele><time>2026-07-21T23:57:08.000Z</time></trkpt>
        <trkpt lat="28.707651" lon="105.089835"><ele>521.36206</ele><time>2026-07-21T23:57:10.000Z</time></trkpt>
        <trkpt lat="28.707647" lon="105.089844"><ele>521.02985</ele><time>2026-07-21T23:57:12.000Z</time></trkpt>
        <trkpt lat="28.707639" lon="105.089853"><ele>520.65625</ele><time>2026-07-21T23:57:14.000Z</time></trkpt>
        <trkpt lat="28.707634" lon="105.089856"><ele>522.44995</ele><time>2026-07-21T23:57:18.000Z</time></trkpt>
        <trkpt lat="28.707629" lon="105.089855"><ele>523.91095</ele><time>2026-07-21T23:57:20.000Z</time></trkpt>
        <trkpt lat="28.707609" lon="105.089854"><ele>525.338</ele><time>2026-07-21T23:57:22.000Z</time></trkpt>
        <trkpt lat="28.707608" lon="105.089854"><ele>526.9188</ele><time>2026-07-21T23:57:24.000Z</time></trkpt>
        <trkpt lat="28.707597" lon="105.089861"><ele>528.8827</ele><time>2026-07-21T23:57:28.000Z</time></trkpt>
        <trkpt lat="28.70758" lon="105.089868"><ele>529.129</ele><time>2026-07-21T23:57:30.000Z</time></trkpt>
        <trkpt lat="28.707559" lon="105.089874"><ele>530.2088</ele><time>2026-07-21T23:57:32.000Z</time></trkpt>
        <trkpt lat="28.70754" lon="105.089877"><ele>530.41864</ele><time>2026-07-21T23:57:34.000Z</time></trkpt>
        <trkpt lat="28.707529" lon="105.089878"><ele>530.29297</ele><time>2026-07-21T23:57:36.000Z</time></trkpt>
        <trkpt lat="28.707529" lon="105.089877"><ele>530.31647</ele><time>2026-07-21T23:57:38.000Z</time></trkpt>
        <trkpt lat="28.707525" lon="105.089892"><ele>532.253</ele><time>2026-07-21T23:57:48.000Z</time></trkpt>
        <trkpt lat="28.707521" lon="105.089898"><ele>533.555</ele><time>2026-07-21T23:57:54.000Z</time></trkpt>
        <trkpt lat="28.7075" lon="105.089925"><ele>533.75354</ele><time>2026-07-21T23:57:56.000Z</time></trkpt>
        <trkpt lat="28.707498" lon="105.089927"><ele>535.0419</ele><time>2026-07-21T23:57:58.000Z</time></trkpt>
        <trkpt lat="28.707498" lon="105.089929"><ele>535.2544</ele><time>2026-07-21T23:58:00.000Z</time></trkpt>
        <trkpt lat="28.707491" lon="105.089955"><ele>536.30817</ele><time>2026-07-21T23:58:06.000Z</time></trkpt>
        <trkpt lat="28.707488" lon="105.089959"><ele>536.38446</ele><time>2026-07-21T23:58:08.000Z</time></trkpt>
        <trkpt lat="28.707485" lon="105.089962"><ele>535.0658</ele><time>2026-07-21T23:58:10.000Z</time></trkpt>
        <trkpt lat="28.707479" lon="105.089965"><ele>535.89417</ele><time>2026-07-21T23:58:16.000Z</time></trkpt>
        <trkpt lat="28.707472" lon="105.08997"><ele>535.8716</ele><time>2026-07-21T23:58:22.000Z</time></trkpt>
        <trkpt lat="28.707466" lon="105.089975"><ele>536.245</ele><time>2026-07-21T23:58:24.000Z</time></trkpt>
        <trkpt lat="28.707462" lon="105.089979"><ele>536.2106</ele><time>2026-07-21T23:58:26.000Z</time></trkpt>
        <trkpt lat="28.707456" lon="105.089986"><ele>535.8698</ele><time>2026-07-21T23:58:32.000Z</time></trkpt>
        <trkpt lat="28.707444" lon="105.089998"><ele>536.1654</ele><time>2026-07-21T23:58:34.000Z</time></trkpt>
        <trkpt lat="28.707443" lon="105.089999"><ele>535.67975</ele><time>2026-07-21T23:58:36.000Z</time></trkpt>
        <trkpt lat="28.70743" lon="105.090011"><ele>534.776</ele><time>2026-07-21T23:58:38.000Z</time></trkpt>
        <trkpt lat="28.707417" lon="105.09002"><ele>533.6643</ele><time>2026-07-21T23:58:46.000Z</time></trkpt>
        <trkpt lat="28.707412" lon="105.090023"><ele>533.2635</ele><time>2026-07-21T23:58:48.000Z</time></trkpt>
        <trkpt lat="28.707408" lon="105.090027"><ele>533.07263</ele><time>2026-07-21T23:58:50.000Z</time></trkpt>
        <trkpt lat="28.707406" lon="105.090033"><ele>532.5206</ele><time>2026-07-21T23:58:52.000Z</time></trkpt>
        <trkpt lat="28.70742" lon="105.089989"><ele>530.31976</ele><time>2026-07-21T23:58:56.000Z</time></trkpt>
        <trkpt lat="28.70742" lon="105.089989"><ele>530.12506</ele><time>2026-07-21T23:58:58.000Z</time></trkpt>
        <trkpt lat="28.70742" lon="105.089988"><ele>530.2472</ele><time>2026-07-21T23:59:00.000Z</time></trkpt>
        <trkpt lat="28.707424" lon="105.089948"><ele>530.02094</ele><time>2026-07-21T23:59:06.000Z</time></trkpt>
        <trkpt lat="28.707425" lon="105.089936"><ele>530.57837</ele><time>2026-07-21T23:59:08.000Z</time></trkpt>
        <trkpt lat="28.707425" lon="105.089928"><ele>530.76263</ele><time>2026-07-21T23:59:10.000Z</time></trkpt>
        <trkpt lat="28.707429" lon="105.089922"><ele>531.3685</ele><time>2026-07-21T23:59:14.000Z</time></trkpt>
        <trkpt lat="28.707393" lon="105.089981"><ele>531.2948</ele><time>2026-07-21T23:59:22.000Z</time></trkpt>
        <trkpt lat="28.707393" lon="105.089981"><ele>531.3423</ele><time>2026-07-21T23:59:24.000Z</time></trkpt>
        <trkpt lat="28.707392" lon="105.089984"><ele>531.5727</ele><time>2026-07-21T23:59:26.000Z</time></trkpt>
        <trkpt lat="28.707379" lon="105.090016"><ele>532.3256</ele><time>2026-07-21T23:59:30.000Z</time></trkpt>
        <trkpt lat="28.707365" lon="105.090033"><ele>532.5852</ele><time>2026-07-21T23:59:32.000Z</time></trkpt>
        <trkpt lat="28.707347" lon="105.090051"><ele>532.34106</ele><time>2026-07-21T23:59:34.000Z</time></trkpt>
        <trkpt lat="28.707334" lon="105.09007"><ele>530.5856</ele><time>2026-07-21T23:59:36.000Z</time></trkpt>
        <trkpt lat="28.707325" lon="105.090087"><ele>532.3875</ele><time>2026-07-21T23:59:38.000Z</time></trkpt>
        <trkpt lat="28.707317" lon="105.090104"><ele>529.9442</ele><time>2026-07-21T23:59:40.000Z</time></trkpt>
        <trkpt lat="28.707311" lon="105.090119"><ele>530.83575</ele><time>2026-07-21T23:59:42.000Z</time></trkpt>
        <trkpt lat="28.70731" lon="105.090129"><ele>530.7418</ele><time>2026-07-21T23:59:44.000Z</time></trkpt>
        <trkpt lat="28.707308" lon="105.090131"><ele>530.18835</ele><time>2026-07-21T23:59:46.000Z</time></trkpt>
        <trkpt lat="28.7073" lon="105.090139"><ele>529.1729</ele><time>2026-07-21T23:59:52.000Z</time></trkpt>
        <trkpt lat="28.707286" lon="105.090155"><ele>526.1139</ele><time>2026-07-21T23:59:54.000Z</time></trkpt>
        <trkpt lat="28.707269" lon="105.090175"><ele>523.68134</ele><time>2026-07-21T23:59:56.000Z</time></trkpt>
        <trkpt lat="28.707268" lon="105.090176"><ele>523.21405</ele><time>2026-07-21T23:59:58.000Z</time></trkpt>
        <trkpt lat="28.707265" lon="105.090178"><ele>522.8754</ele><time>2026-07-22T00:00:00.000Z</time></trkpt>
        <trkpt lat="28.707244" lon="105.090201"><ele>520.60925</ele><time>2026-07-22T00:00:04.000Z</time></trkpt>
        <trkpt lat="28.707231" lon="105.090215"><ele>519.3973</ele><time>2026-07-22T00:00:06.000Z</time></trkpt>
        <trkpt lat="28.707218" lon="105.09023"><ele>517.4351</ele><time>2026-07-22T00:00:08.000Z</time></trkpt>
        <trkpt lat="28.70721" lon="105.090246"><ele>516.9921</ele><time>2026-07-22T00:00:10.000Z</time></trkpt>
        <trkpt lat="28.707205" lon="105.090259"><ele>517.18726</ele><time>2026-07-22T00:00:12.000Z</time></trkpt>
        <trkpt lat="28.707201" lon="105.090274"><ele>517.4324</ele><time>2026-07-22T00:00:14.000Z</time></trkpt>
        <trkpt lat="28.7072" lon="105.09029"><ele>518.37067</ele><time>2026-07-22T00:00:16.000Z</time></trkpt>
        <trkpt lat="28.707199" lon="105.090302"><ele>518.84644</ele><time>2026-07-22T00:00:18.000Z</time></trkpt>
        <trkpt lat="28.707197" lon="105.090307"><ele>521.8383</ele><time>2026-07-22T00:00:20.000Z</time></trkpt>
        <trkpt lat="28.707192" lon="105.090314"><ele>531.8471</ele><time>2026-07-22T00:00:53.000Z</time></trkpt>
        <trkpt lat="28.707189" lon="105.090323"><ele>532.0592</ele><time>2026-07-22T00:01:01.000Z</time></trkpt>
        <trkpt lat="28.707172" lon="105.09035"><ele>533.3112</ele><time>2026-07-22T00:01:03.000Z</time></trkpt>
        <trkpt lat="28.707157" lon="105.090374"><ele>534.6527</ele><time>2026-07-22T00:01:05.000Z</time></trkpt>
        <trkpt lat="28.707156" lon="105.090375"><ele>533.26245</ele><time>2026-07-22T00:01:07.000Z</time></trkpt>
        <trkpt lat="28.707154" lon="105.090376"><ele>534.1598</ele><time>2026-07-22T00:01:09.000Z</time></trkpt>
        <trkpt lat="28.707134" lon="105.090393"><ele>529.37103</ele><time>2026-07-22T00:01:13.000Z</time></trkpt>
        <trkpt lat="28.707122" lon="105.090404"><ele>530.4308</ele><time>2026-07-22T00:01:15.000Z</time></trkpt>
        <trkpt lat="28.707113" lon="105.090415"><ele>529.90265</ele><time>2026-07-22T00:01:17.000Z</time></trkpt>
        <trkpt lat="28.707106" lon="105.090424"><ele>530.9381</ele><time>2026-07-22T00:01:19.000Z</time></trkpt>
        <trkpt lat="28.7071" lon="105.090431"><ele>531.16</ele><time>2026-07-22T00:01:21.000Z</time></trkpt>
        <trkpt lat="28.707094" lon="105.090439"><ele>531.21686</ele><time>2026-07-22T00:01:23.000Z</time></trkpt>
        <trkpt lat="28.707087" lon="105.090445"><ele>530.67804</ele><time>2026-07-22T00:01:25.000Z</time></trkpt>
        <trkpt lat="28.707074" lon="105.090456"><ele>525.0949</ele><time>2026-07-22T00:01:29.000Z</time></trkpt>
        <trkpt lat="28.707061" lon="105.090465"><ele>523.00604</ele><time>2026-07-22T00:01:31.000Z</time></trkpt>
        <trkpt lat="28.707045" lon="105.090473"><ele>521.6632</ele><time>2026-07-22T00:01:33.000Z</time></trkpt>
        <trkpt lat="28.707029" lon="105.090479"><ele>522.2054</ele><time>2026-07-22T00:01:35.000Z</time></trkpt>
        <trkpt lat="28.707016" lon="105.090486"><ele>520.1733</ele><time>2026-07-22T00:01:37.000Z</time></trkpt>
        <trkpt lat="28.707002" lon="105.090492"><ele>519.0578</ele><time>2026-07-22T00:01:39.000Z</time></trkpt>
        <trkpt lat="28.706992" lon="105.090493"><ele>518.7601</ele><time>2026-07-22T00:01:41.000Z</time></trkpt>
        <trkpt lat="28.706983" lon="105.090491"><ele>517.85474</ele><time>2026-07-22T00:01:43.000Z</time></trkpt>
        <trkpt lat="28.706973" lon="105.090484"><ele>517.11005</ele><time>2026-07-22T00:01:45.000Z</time></trkpt>
        <trkpt lat="28.706963" lon="105.090472"><ele>516.6506</ele><time>2026-07-22T00:01:47.000Z</time></trkpt>
        <trkpt lat="28.706955" lon="105.090455"><ele>517.8186</ele><time>2026-07-22T00:01:49.000Z</time></trkpt>
        <trkpt lat="28.706948" lon="105.090432"><ele>518.2251</ele><time>2026-07-22T00:01:51.000Z</time></trkpt>
        <trkpt lat="28.706943" lon="105.090408"><ele>518.2713</ele><time>2026-07-22T00:01:53.000Z</time></trkpt>
        <trkpt lat="28.706937" lon="105.090389"><ele>519.07416</ele><time>2026-07-22T00:01:55.000Z</time></trkpt>
        <trkpt lat="28.70693" lon="105.090377"><ele>519.0454</ele><time>2026-07-22T00:01:57.000Z</time></trkpt>
        <trkpt lat="28.706918" lon="105.090361"><ele>519.6524</ele><time>2026-07-22T00:01:59.000Z</time></trkpt>
        <trkpt lat="28.706907" lon="105.090342"><ele>521.2991</ele><time>2026-07-22T00:02:01.000Z</time></trkpt>
        <trkpt lat="28.7069" lon="105.090324"><ele>522.06604</ele><time>2026-07-22T00:02:03.000Z</time></trkpt>
        <trkpt lat="28.706894" lon="105.090302"><ele>522.4218</ele><time>2026-07-22T00:02:05.000Z</time></trkpt>
        <trkpt lat="28.706887" lon="105.090279"><ele>524.2521</ele><time>2026-07-22T00:02:07.000Z</time></trkpt>
        <trkpt lat="28.706885" lon="105.090261"><ele>525.2997</ele><time>2026-07-22T00:02:09.000Z</time></trkpt>
        <trkpt lat="28.706883" lon="105.090236"><ele>525.8431</ele><time>2026-07-22T00:02:11.000Z</time></trkpt>
        <trkpt lat="28.706878" lon="105.090207"><ele>525.1397</ele><time>2026-07-22T00:02:13.000Z</time></trkpt>
        <trkpt lat="28.706873" lon="105.090188"><ele>524.0816</ele><time>2026-07-22T00:02:15.000Z</time></trkpt>
        <trkpt lat="28.706865" lon="105.090169"><ele>524.9917</ele><time>2026-07-22T00:02:17.000Z</time></trkpt>
        <trkpt lat="28.706855" lon="105.090156"><ele>527.4628</ele><time>2026-07-22T00:02:19.000Z</time></trkpt>
        <trkpt lat="28.70684" lon="105.090149"><ele>526.28546</ele><time>2026-07-22T00:02:21.000Z</time></trkpt>
        <trkpt lat="28.706819" lon="105.090147"><ele>527.12885</ele><time>2026-07-22T00:02:23.000Z</time></trkpt>
        <trkpt lat="28.706795" lon="105.090151"><ele>526.7131</ele><time>2026-07-22T00:02:25.000Z</time></trkpt>
        <trkpt lat="28.706774" lon="105.090161"><ele>526.0644</ele><time>2026-07-22T00:02:27.000Z</time></trkpt>
        <trkpt lat="28.706747" lon="105.090178"><ele>526.9371</ele><time>2026-07-22T00:02:29.000Z</time></trkpt>
        <trkpt lat="28.706722" lon="105.090196"><ele>527.4141</ele><time>2026-07-22T00:02:31.000Z</time></trkpt>
        <trkpt lat="28.706702" lon="105.090212"><ele>527.9034</ele><time>2026-07-22T00:02:33.000Z</time></trkpt>
        <trkpt lat="28.706686" lon="105.090226"><ele>528.42816</ele><time>2026-07-22T00:02:35.000Z</time></trkpt>
        <trkpt lat="28.706666" lon="105.090243"><ele>528.4207</ele><time>2026-07-22T00:02:37.000Z</time></trkpt>
        <trkpt lat="28.70665" lon="105.090257"><ele>527.9757</ele><time>2026-07-22T00:02:39.000Z</time></trkpt>
        <trkpt lat="28.706639" lon="105.090268"><ele>526.98804</ele><time>2026-07-22T00:02:41.000Z</time></trkpt>
        <trkpt lat="28.706634" lon="105.090273"><ele>526.8231</ele><time>2026-07-22T00:02:43.000Z</time></trkpt>
        <trkpt lat="28.70663" lon="105.090273"><ele>526.7382</ele><time>2026-07-22T00:02:45.000Z</time></trkpt>
        <trkpt lat="28.706609" lon="105.090275"><ele>526.61145</ele><time>2026-07-22T00:02:47.000Z</time></trkpt>
        <trkpt lat="28.706607" lon="105.090275"><ele>526.32434</ele><time>2026-07-22T00:02:49.000Z</time></trkpt>
        <trkpt lat="28.706598" lon="105.090274"><ele>526.0241</ele><time>2026-07-22T00:02:53.000Z</time></trkpt>
        <trkpt lat="28.706564" lon="105.090273"><ele>527.2928</ele><time>2026-07-22T00:02:57.000Z</time></trkpt>
        <trkpt lat="28.706542" lon="105.090275"><ele>527.1598</ele><time>2026-07-22T00:02:59.000Z</time></trkpt>
        <trkpt lat="28.706514" lon="105.090277"><ele>527.4781</ele><time>2026-07-22T00:03:01.000Z</time></trkpt>
        <trkpt lat="28.70649" lon="105.090278"><ele>527.87054</ele><time>2026-07-22T00:03:03.000Z</time></trkpt>
        <trkpt lat="28.706467" lon="105.090277"><ele>527.40625</ele><time>2026-07-22T00:03:05.000Z</time></trkpt>
        <trkpt lat="28.706447" lon="105.090277"><ele>527.1969</ele><time>2026-07-22T00:03:07.000Z</time></trkpt>
        <trkpt lat="28.706422" lon="105.090275"><ele>527.3558</ele><time>2026-07-22T00:03:09.000Z</time></trkpt>
        <trkpt lat="28.706398" lon="105.090274"><ele>526.98083</ele><time>2026-07-22T00:03:11.000Z</time></trkpt>
        <trkpt lat="28.706374" lon="105.090271"><ele>526.41345</ele><time>2026-07-22T00:03:13.000Z</time></trkpt>
        <trkpt lat="28.706354" lon="105.090269"><ele>525.93463</ele><time>2026-07-22T00:03:15.000Z</time></trkpt>
        <trkpt lat="28.70634" lon="105.090277"><ele>526.66956</ele><time>2026-07-22T00:03:17.000Z</time></trkpt>
        <trkpt lat="28.706322" lon="105.090293"><ele>527.27185</ele><time>2026-07-22T00:03:19.000Z</time></trkpt>
        <trkpt lat="28.706303" lon="105.090304"><ele>527.5919</ele><time>2026-07-22T00:03:21.000Z</time></trkpt>
        <trkpt lat="28.706288" lon="105.090306"><ele>526.6923</ele><time>2026-07-22T00:03:23.000Z</time></trkpt>
        <trkpt lat="28.706276" lon="105.090304"><ele>525.2082</ele><time>2026-07-22T00:03:25.000Z</time></trkpt>
        <trkpt lat="28.70626" lon="105.090299"><ele>526.2133</ele><time>2026-07-22T00:03:27.000Z</time></trkpt>
        <trkpt lat="28.706245" lon="105.090292"><ele>525.81274</ele><time>2026-07-22T00:03:29.000Z</time></trkpt>
        <trkpt lat="28.706231" lon="105.090284"><ele>525.7052</ele><time>2026-07-22T00:03:31.000Z</time></trkpt>
        <trkpt lat="28.706218" lon="105.090275"><ele>525.3461</ele><time>2026-07-22T00:03:33.000Z</time></trkpt>
        <trkpt lat="28.706208" lon="105.090268"><ele>525.4955</ele><time>2026-07-22T00:03:35.000Z</time></trkpt>
        <trkpt lat="28.706201" lon="105.090264"><ele>525.236</ele><time>2026-07-22T00:03:37.000Z</time></trkpt>
        <trkpt lat="28.706194" lon="105.090261"><ele>525.09467</ele><time>2026-07-22T00:03:39.000Z</time></trkpt>
        <trkpt lat="28.706184" lon="105.090258"><ele>525.0845</ele><time>2026-07-22T00:03:41.000Z</time></trkpt>
        <trkpt lat="28.70617" lon="105.090255"><ele>525.37317</ele><time>2026-07-22T00:03:43.000Z</time></trkpt>
        <trkpt lat="28.706152" lon="105.090252"><ele>525.74945</ele><time>2026-07-22T00:03:45.000Z</time></trkpt>
        <trkpt lat="28.706136" lon="105.090248"><ele>525.87164</ele><time>2026-07-22T00:03:47.000Z</time></trkpt>
        <trkpt lat="28.706122" lon="105.090244"><ele>524.85126</ele><time>2026-07-22T00:03:49.000Z</time></trkpt>
        <trkpt lat="28.706111" lon="105.09024"><ele>525.0374</ele><time>2026-07-22T00:03:51.000Z</time></trkpt>
        <trkpt lat="28.706104" lon="105.090238"><ele>525.15027</ele><time>2026-07-22T00:03:53.000Z</time></trkpt>
        <trkpt lat="28.706087" lon="105.090235"><ele>524.7863</ele><time>2026-07-22T00:03:57.000Z</time></trkpt>
        <trkpt lat="28.706074" lon="105.090233"><ele>524.345</ele><time>2026-07-22T00:03:59.000Z</time></trkpt>
        <trkpt lat="28.706059" lon="105.090231"><ele>524.24963</ele><time>2026-07-22T00:04:01.000Z</time></trkpt>
        <trkpt lat="28.706045" lon="105.090228"><ele>524.52325</ele><time>2026-07-22T00:04:03.000Z</time></trkpt>
        <trkpt lat="28.706032" lon="105.090226"><ele>524.7427</ele><time>2026-07-22T00:04:05.000Z</time></trkpt>
        <trkpt lat="28.706019" lon="105.090224"><ele>524.8447</ele><time>2026-07-22T00:04:07.000Z</time></trkpt>
        <trkpt lat="28.706007" lon="105.090223"><ele>525.09924</ele><time>2026-07-22T00:04:09.000Z</time></trkpt>
        <trkpt lat="28.705996" lon="105.090222"><ele>525.63513</ele><time>2026-07-22T00:04:11.000Z</time></trkpt>
        <trkpt lat="28.705985" lon="105.090222"><ele>525.69696</ele><time>2026-07-22T00:04:13.000Z</time></trkpt>
        <trkpt lat="28.705976" lon="105.090222"><ele>525.48987</ele><time>2026-07-22T00:04:15.000Z</time></trkpt>
        <trkpt lat="28.705964" lon="105.090222"><ele>525.47473</ele><time>2026-07-22T00:04:17.000Z</time></trkpt>
        <trkpt lat="28.705951" lon="105.090224"><ele>525.63574</ele><time>2026-07-22T00:04:19.000Z</time></trkpt>
        <trkpt lat="28.705937" lon="105.090223"><ele>525.1296</ele><time>2026-07-22T00:04:21.000Z</time></trkpt>
        <trkpt lat="28.705919" lon="105.090218"><ele>526.33136</ele><time>2026-07-22T00:04:23.000Z</time></trkpt>
        <trkpt lat="28.705905" lon="105.090215"><ele>525.9088</ele><time>2026-07-22T00:04:25.000Z</time></trkpt>
        <trkpt lat="28.705889" lon="105.090212"><ele>526.1431</ele><time>2026-07-22T00:04:27.000Z</time></trkpt>
        <trkpt lat="28.70587" lon="105.090209"><ele>525.8056</ele><time>2026-07-22T00:04:29.000Z</time></trkpt>
        <trkpt lat="28.705849" lon="105.090207"><ele>525.6223</ele><time>2026-07-22T00:04:31.000Z</time></trkpt>
        <trkpt lat="28.705827" lon="105.090206"><ele>526.1182</ele><time>2026-07-22T00:04:33.000Z</time></trkpt>
        <trkpt lat="28.705805" lon="105.090207"><ele>526.18524</ele><time>2026-07-22T00:04:35.000Z</time></trkpt>
        <trkpt lat="28.705784" lon="105.090209"><ele>525.57043</ele><time>2026-07-22T00:04:37.000Z</time></trkpt>
        <trkpt lat="28.705761" lon="105.090211"><ele>525.9077</ele><time>2026-07-22T00:04:39.000Z</time></trkpt>
        <trkpt lat="28.705743" lon="105.090213"><ele>525.47235</ele><time>2026-07-22T00:04:41.000Z</time></trkpt>
        <trkpt lat="28.705729" lon="105.09022"><ele>525.3071</ele><time>2026-07-22T00:04:43.000Z</time></trkpt>
        <trkpt lat="28.705715" lon="105.090232"><ele>525.5055</ele><time>2026-07-22T00:04:45.000Z</time></trkpt>
        <trkpt lat="28.705698" lon="105.090251"><ele>525.5622</ele><time>2026-07-22T00:04:47.000Z</time></trkpt>
        <trkpt lat="28.705684" lon="105.090271"><ele>525.86206</ele><time>2026-07-22T00:04:49.000Z</time></trkpt>
        <trkpt lat="28.705671" lon="105.090289"><ele>525.64374</ele><time>2026-07-22T00:04:51.000Z</time></trkpt>
        <trkpt lat="28.70566" lon="105.090305"><ele>524.3499</ele><time>2026-07-22T00:04:53.000Z</time></trkpt>
        <trkpt lat="28.705648" lon="105.090333"><ele>523.85657</ele><time>2026-07-22T00:04:55.000Z</time></trkpt>
        <trkpt lat="28.705648" lon="105.090355"><ele>525.2912</ele><time>2026-07-22T00:04:57.000Z</time></trkpt>
        <trkpt lat="28.705653" lon="105.090381"><ele>523.9969</ele><time>2026-07-22T00:04:59.000Z</time></trkpt>
        <trkpt lat="28.705661" lon="105.090405"><ele>525.77057</ele><time>2026-07-22T00:05:01.000Z</time></trkpt>
        <trkpt lat="28.705671" lon="105.090426"><ele>527.27075</ele><time>2026-07-22T00:05:03.000Z</time></trkpt>
        <trkpt lat="28.705686" lon="105.090443"><ele>528.4564</ele><time>2026-07-22T00:05:05.000Z</time></trkpt>
        <trkpt lat="28.705705" lon="105.090455"><ele>528.7023</ele><time>2026-07-22T00:05:07.000Z</time></trkpt>
        <trkpt lat="28.705725" lon="105.090466"><ele>529.54456</ele><time>2026-07-22T00:05:09.000Z</time></trkpt>
        <trkpt lat="28.705742" lon="105.090475"><ele>528.66626</ele><time>2026-07-22T00:05:11.000Z</time></trkpt>
        <trkpt lat="28.705759" lon="105.090487"><ele>528.6301</ele><time>2026-07-22T00:05:13.000Z</time></trkpt>
        <trkpt lat="28.705774" lon="105.090497"><ele>528.15955</ele><time>2026-07-22T00:05:15.000Z</time></trkpt>
        <trkpt lat="28.705788" lon="105.090507"><ele>528.0017</ele><time>2026-07-22T00:05:17.000Z</time></trkpt>
        <trkpt lat="28.7058" lon="105.090516"><ele>528.3037</ele><time>2026-07-22T00:05:19.000Z</time></trkpt>
        <trkpt lat="28.705808" lon="105.090522"><ele>528.55695</ele><time>2026-07-22T00:05:21.000Z</time></trkpt>
        <trkpt lat="28.705813" lon="105.090525"><ele>528.64166</ele><time>2026-07-22T00:05:23.000Z</time></trkpt>
        <trkpt lat="28.705816" lon="105.090526"><ele>529.0473</ele><time>2026-07-22T00:05:25.000Z</time></trkpt>
        <trkpt lat="28.705829" lon="105.090537"><ele>529.6479</ele><time>2026-07-22T00:05:28.000Z</time></trkpt>
        <trkpt lat="28.705843" lon="105.090553"><ele>529.56195</ele><time>2026-07-22T00:05:34.000Z</time></trkpt>
        <trkpt lat="28.705861" lon="105.090572"><ele>529.5325</ele><time>2026-07-22T00:05:36.000Z</time></trkpt>
        <trkpt lat="28.70588" lon="105.090593"><ele>529.5037</ele><time>2026-07-22T00:05:38.000Z</time></trkpt>
        <trkpt lat="28.705898" lon="105.090613"><ele>530.0793</ele><time>2026-07-22T00:05:40.000Z</time></trkpt>
        <trkpt lat="28.705915" lon="105.090631"><ele>530.2501</ele><time>2026-07-22T00:05:42.000Z</time></trkpt>
        <trkpt lat="28.705932" lon="105.090647"><ele>530.34906</ele><time>2026-07-22T00:05:44.000Z</time></trkpt>
        <trkpt lat="28.705947" lon="105.090658"><ele>530.47565</ele><time>2026-07-22T00:05:46.000Z</time></trkpt>
        <trkpt lat="28.705965" lon="105.090669"><ele>530.72736</ele><time>2026-07-22T00:05:48.000Z</time></trkpt>
        <trkpt lat="28.70598" lon="105.090679"><ele>530.62476</ele><time>2026-07-22T00:05:50.000Z</time></trkpt>
        <trkpt lat="28.705995" lon="105.090689"><ele>530.64154</ele><time>2026-07-22T00:05:52.000Z</time></trkpt>
        <trkpt lat="28.70601" lon="105.0907"><ele>531.8932</ele><time>2026-07-22T00:05:54.000Z</time></trkpt>
        <trkpt lat="28.706022" lon="105.090712"><ele>532.2645</ele><time>2026-07-22T00:05:56.000Z</time></trkpt>
        <trkpt lat="28.706033" lon="105.090728"><ele>532.17316</ele><time>2026-07-22T00:05:58.000Z</time></trkpt>
        <trkpt lat="28.706043" lon="105.090746"><ele>532.56384</ele><time>2026-07-22T00:06:00.000Z</time></trkpt>
        <trkpt lat="28.70605" lon="105.090766"><ele>533.14</ele><time>2026-07-22T00:06:02.000Z</time></trkpt>
        <trkpt lat="28.706054" lon="105.090782"><ele>533.0384</ele><time>2026-07-22T00:06:04.000Z</time></trkpt>
        <trkpt lat="28.706058" lon="105.090808"><ele>534.33307</ele><time>2026-07-22T00:06:06.000Z</time></trkpt>
        <trkpt lat="28.706063" lon="105.09083"><ele>533.9258</ele><time>2026-07-22T00:06:08.000Z</time></trkpt>
        <trkpt lat="28.706067" lon="105.090851"><ele>534.585</ele><time>2026-07-22T00:06:10.000Z</time></trkpt>
        <trkpt lat="28.706072" lon="105.090872"><ele>533.8678</ele><time>2026-07-22T00:06:12.000Z</time></trkpt>
        <trkpt lat="28.706075" lon="105.09089"><ele>533.6323</ele><time>2026-07-22T00:06:14.000Z</time></trkpt>
        <trkpt lat="28.70608" lon="105.09091"><ele>534.5739</ele><time>2026-07-22T00:06:16.000Z</time></trkpt>
        <trkpt lat="28.706082" lon="105.090937"><ele>534.639</ele><time>2026-07-22T00:06:18.000Z</time></trkpt>
        <trkpt lat="28.706082" lon="105.090962"><ele>536.49335</ele><time>2026-07-22T00:06:20.000Z</time></trkpt>
        <trkpt lat="28.70608" lon="105.090986"><ele>535.57336</ele><time>2026-07-22T00:06:22.000Z</time></trkpt>
        <trkpt lat="28.706078" lon="105.091006"><ele>534.58136</ele><time>2026-07-22T00:06:24.000Z</time></trkpt>
        <trkpt lat="28.706076" lon="105.091027"><ele>534.20715</ele><time>2026-07-22T00:06:26.000Z</time></trkpt>
        <trkpt lat="28.706075" lon="105.091048"><ele>533.81305</ele><time>2026-07-22T00:06:28.000Z</time></trkpt>
        <trkpt lat="28.706075" lon="105.091072"><ele>533.8477</ele><time>2026-07-22T00:06:30.000Z</time></trkpt>
        <trkpt lat="28.706075" lon="105.091093"><ele>533.35626</ele><time>2026-07-22T00:06:32.000Z</time></trkpt>
        <trkpt lat="28.706075" lon="105.091114"><ele>533.7987</ele><time>2026-07-22T00:06:34.000Z</time></trkpt>
        <trkpt lat="28.706075" lon="105.091132"><ele>533.4646</ele><time>2026-07-22T00:06:36.000Z</time></trkpt>
        <trkpt lat="28.706075" lon="105.091148"><ele>533.7705</ele><time>2026-07-22T00:06:38.000Z</time></trkpt>
        <trkpt lat="28.706073" lon="105.091169"><ele>534.3319</ele><time>2026-07-22T00:06:40.000Z</time></trkpt>
        <trkpt lat="28.706071" lon="105.09119"><ele>533.7757</ele><time>2026-07-22T00:06:42.000Z</time></trkpt>
        <trkpt lat="28.706069" lon="105.091207"><ele>533.8404</ele><time>2026-07-22T00:06:44.000Z</time></trkpt>
        <trkpt lat="28.706067" lon="105.09122"><ele>533.2847</ele><time>2026-07-22T00:06:46.000Z</time></trkpt>
        <trkpt lat="28.706063" lon="105.091233"><ele>533.0181</ele><time>2026-07-22T00:06:48.000Z</time></trkpt>
        <trkpt lat="28.706059" lon="105.091254"><ele>532.6251</ele><time>2026-07-22T00:06:50.000Z</time></trkpt>
        <trkpt lat="28.706057" lon="105.091273"><ele>533.1155</ele><time>2026-07-22T00:06:52.000Z</time></trkpt>
        <trkpt lat="28.706056" lon="105.091292"><ele>533.57806</ele><time>2026-07-22T00:06:54.000Z</time></trkpt>
        <trkpt lat="28.706058" lon="105.091307"><ele>533.92175</ele><time>2026-07-22T00:06:56.000Z</time></trkpt>
        <trkpt lat="28.706058" lon="105.091324"><ele>533.5975</ele><time>2026-07-22T00:06:58.000Z</time></trkpt>
        <trkpt lat="28.706058" lon="105.091341"><ele>533.5836</ele><time>2026-07-22T00:07:00.000Z</time></trkpt>
        <trkpt lat="28.706057" lon="105.091357"><ele>533.6474</ele><time>2026-07-22T00:07:02.000Z</time></trkpt>
        <trkpt lat="28.706058" lon="105.091372"><ele>534.15625</ele><time>2026-07-22T00:07:04.000Z</time></trkpt>
        <trkpt lat="28.706059" lon="105.091389"><ele>534.601</ele><time>2026-07-22T00:07:06.000Z</time></trkpt>
        <trkpt lat="28.706064" lon="105.091405"><ele>533.7462</ele><time>2026-07-22T00:07:08.000Z</time></trkpt>
        <trkpt lat="28.706069" lon="105.091418"><ele>533.7022</ele><time>2026-07-22T00:07:10.000Z</time></trkpt>
        <trkpt lat="28.706073" lon="105.091435"><ele>533.30206</ele><time>2026-07-22T00:07:12.000Z</time></trkpt>
        <trkpt lat="28.706075" lon="105.091454"><ele>532.9745</ele><time>2026-07-22T00:07:14.000Z</time></trkpt>
        <trkpt lat="28.706074" lon="105.09147"><ele>533.1558</ele><time>2026-07-22T00:07:16.000Z</time></trkpt>
        <trkpt lat="28.706073" lon="105.091486"><ele>533.1825</ele><time>2026-07-22T00:07:18.000Z</time></trkpt>
        <trkpt lat="28.706071" lon="105.091502"><ele>532.6151</ele><time>2026-07-22T00:07:20.000Z</time></trkpt>
        <trkpt lat="28.706069" lon="105.091517"><ele>532.7048</ele><time>2026-07-22T00:07:22.000Z</time></trkpt>
        <trkpt lat="28.706068" lon="105.091531"><ele>532.2769</ele><time>2026-07-22T00:07:24.000Z</time></trkpt>
        <trkpt lat="28.706066" lon="105.091542"><ele>532.0333</ele><time>2026-07-22T00:07:26.000Z</time></trkpt>
        <trkpt lat="28.706065" lon="105.091548"><ele>531.24927</ele><time>2026-07-22T00:07:28.000Z</time></trkpt>
        <trkpt lat="28.706064" lon="105.091552"><ele>531.49615</ele><time>2026-07-22T00:07:30.000Z</time></trkpt>
        <trkpt lat="28.706059" lon="105.09157"><ele>531.1714</ele><time>2026-07-22T00:07:34.000Z</time></trkpt>
        <trkpt lat="28.706058" lon="105.091577"><ele>530.9075</ele><time>2026-07-22T00:07:36.000Z</time></trkpt>
        <trkpt lat="28.706057" lon="105.091585"><ele>530.7269</ele><time>2026-07-22T00:07:38.000Z</time></trkpt>
        <trkpt lat="28.706058" lon="105.091594"><ele>530.64636</ele><time>2026-07-22T00:07:40.000Z</time></trkpt>
        <trkpt lat="28.706062" lon="105.091608"><ele>530.097</ele><time>2026-07-22T00:07:42.000Z</time></trkpt>
        <trkpt lat="28.706064" lon="105.091623"><ele>527.9614</ele><time>2026-07-22T00:07:48.000Z</time></trkpt>
        <trkpt lat="28.706066" lon="105.091638"><ele>527.8642</ele><time>2026-07-22T00:07:50.000Z</time></trkpt>
        <trkpt lat="28.706067" lon="105.091658"><ele>527.3627</ele><time>2026-07-22T00:07:52.000Z</time></trkpt>
        <trkpt lat="28.706066" lon="105.091676"><ele>526.906</ele><time>2026-07-22T00:07:54.000Z</time></trkpt>
        <trkpt lat="28.706063" lon="105.091695"><ele>526.49634</ele><time>2026-07-22T00:07:56.000Z</time></trkpt>
        <trkpt lat="28.706061" lon="105.091714"><ele>526.2024</ele><time>2026-07-22T00:07:58.000Z</time></trkpt>
        <trkpt lat="28.706059" lon="105.091727"><ele>526.095</ele><time>2026-07-22T00:08:00.000Z</time></trkpt>
        <trkpt lat="28.706057" lon="105.091738"><ele>525.24567</ele><time>2026-07-22T00:08:02.000Z</time></trkpt>
        <trkpt lat="28.706057" lon="105.091748"><ele>526.00946</ele><time>2026-07-22T00:08:04.000Z</time></trkpt>
        <trkpt lat="28.706056" lon="105.091759"><ele>526.1207</ele><time>2026-07-22T00:08:06.000Z</time></trkpt>
        <trkpt lat="28.706054" lon="105.09177"><ele>525.9521</ele><time>2026-07-22T00:08:08.000Z</time></trkpt>
        <trkpt lat="28.70605" lon="105.091788"><ele>525.489</ele><time>2026-07-22T00:08:10.000Z</time></trkpt>
        <trkpt lat="28.706047" lon="105.091808"><ele>525.59937</ele><time>2026-07-22T00:08:12.000Z</time></trkpt>
        <trkpt lat="28.706045" lon="105.091827"><ele>524.9946</ele><time>2026-07-22T00:08:14.000Z</time></trkpt>
        <trkpt lat="28.706041" lon="105.091852"><ele>524.8767</ele><time>2026-07-22T00:08:16.000Z</time></trkpt>
        <trkpt lat="28.706039" lon="105.091876"><ele>524.86237</ele><time>2026-07-22T00:08:18.000Z</time></trkpt>
        <trkpt lat="28.70604" lon="105.091888"><ele>524.1684</ele><time>2026-07-22T00:08:20.000Z</time></trkpt>
        <trkpt lat="28.706042" lon="105.091906"><ele>523.8632</ele><time>2026-07-22T00:08:22.000Z</time></trkpt>
        <trkpt lat="28.706045" lon="105.091923"><ele>522.5121</ele><time>2026-07-22T00:08:24.000Z</time></trkpt>
        <trkpt lat="28.706048" lon="105.091941"><ele>522.0816</ele><time>2026-07-22T00:08:26.000Z</time></trkpt>
        <trkpt lat="28.706052" lon="105.091956"><ele>520.6705</ele><time>2026-07-22T00:08:28.000Z</time></trkpt>
        <trkpt lat="28.706055" lon="105.09197"><ele>520.48035</ele><time>2026-07-22T00:08:30.000Z</time></trkpt>
        <trkpt lat="28.706059" lon="105.091986"><ele>519.98975</ele><time>2026-07-22T00:08:32.000Z</time></trkpt>
        <trkpt lat="28.706059" lon="105.092001"><ele>519.4891</ele><time>2026-07-22T00:08:34.000Z</time></trkpt>
        <trkpt lat="28.70606" lon="105.092023"><ele>519.2089</ele><time>2026-07-22T00:08:36.000Z</time></trkpt>
        <trkpt lat="28.706065" lon="105.092046"><ele>518.46985</ele><time>2026-07-22T00:08:38.000Z</time></trkpt>
        <trkpt lat="28.706075" lon="105.09207"><ele>517.75726</ele><time>2026-07-22T00:08:40.000Z</time></trkpt>
        <trkpt lat="28.70609" lon="105.0921"><ele>517.4946</ele><time>2026-07-22T00:08:42.000Z</time></trkpt>
        <trkpt lat="28.706104" lon="105.092134"><ele>518.9029</ele><time>2026-07-22T00:08:44.000Z</time></trkpt>
        <trkpt lat="28.706113" lon="105.092163"><ele>517.7155</ele><time>2026-07-22T00:08:46.000Z</time></trkpt>
        <trkpt lat="28.706121" lon="105.092188"><ele>518.7472</ele><time>2026-07-22T00:08:48.000Z</time></trkpt>
        <trkpt lat="28.706127" lon="105.092204"><ele>516.5031</ele><time>2026-07-22T00:08:50.000Z</time></trkpt>
        <trkpt lat="28.706131" lon="105.092205"><ele>516.34424</ele><time>2026-07-22T00:08:52.000Z</time></trkpt>
        <trkpt lat="28.706139" lon="105.092211"><ele>513.8939</ele><time>2026-07-22T00:08:56.000Z</time></trkpt>
        <trkpt lat="28.706149" lon="105.092226"><ele>514.7512</ele><time>2026-07-22T00:09:00.000Z</time></trkpt>
        <trkpt lat="28.706162" lon="105.092246"><ele>515.2711</ele><time>2026-07-22T00:09:02.000Z</time></trkpt>
        <trkpt lat="28.706163" lon="105.092248"><ele>515.359</ele><time>2026-07-22T00:09:04.000Z</time></trkpt>
        <trkpt lat="28.70617" lon="105.092258"><ele>514.94916</ele><time>2026-07-22T00:09:08.000Z</time></trkpt>
        <trkpt lat="28.706178" lon="105.09227"><ele>515.40643</ele><time>2026-07-22T00:09:10.000Z</time></trkpt>
        <trkpt lat="28.706184" lon="105.092284"><ele>513.8778</ele><time>2026-07-22T00:09:12.000Z</time></trkpt>
        <trkpt lat="28.706187" lon="105.092296"><ele>513.8062</ele><time>2026-07-22T00:09:14.000Z</time></trkpt>
        <trkpt lat="28.706187" lon="105.092305"><ele>513.72485</ele><time>2026-07-22T00:09:16.000Z</time></trkpt>
        <trkpt lat="28.706185" lon="105.092319"><ele>512.5024</ele><time>2026-07-22T00:09:20.000Z</time></trkpt>
        <trkpt lat="28.706184" lon="105.092324"><ele>511.2527</ele><time>2026-07-22T00:09:22.000Z</time></trkpt>
        <trkpt lat="28.706187" lon="105.092329"><ele>511.1858</ele><time>2026-07-22T00:09:24.000Z</time></trkpt>
        <trkpt lat="28.706201" lon="105.09236"><ele>508.92746</ele><time>2026-07-22T00:09:32.000Z</time></trkpt>
        <trkpt lat="28.706201" lon="105.09236"><ele>508.14722</ele><time>2026-07-22T00:09:34.000Z</time></trkpt>
        <trkpt lat="28.706185" lon="105.092394"><ele>506.23492</ele><time>2026-07-22T00:09:36.000Z</time></trkpt>
        <trkpt lat="28.706185" lon="105.092394"><ele>503.99207</ele><time>2026-07-22T00:09:38.000Z</time></trkpt>
        <trkpt lat="28.706185" lon="105.092394"><ele>504.2806</ele><time>2026-07-22T00:09:40.000Z</time></trkpt>
        <trkpt lat="28.706211" lon="105.092399"><ele>502.46652</ele><time>2026-07-22T00:09:48.000Z</time></trkpt>
        <trkpt lat="28.706216" lon="105.092402"><ele>503.33743</ele><time>2026-07-22T00:09:50.000Z</time></trkpt>
        <trkpt lat="28.706221" lon="105.0924"><ele>503.9958</ele><time>2026-07-22T00:09:52.000Z</time></trkpt>
        <trkpt lat="28.706184" lon="105.092412"><ele>501.91245</ele><time>2026-07-22T00:10:10.000Z</time></trkpt>
        <trkpt lat="28.706181" lon="105.092414"><ele>502.12802</ele><time>2026-07-22T00:10:12.000Z</time></trkpt>
        <trkpt lat="28.706176" lon="105.092418"><ele>502.11575</ele><time>2026-07-22T00:10:14.000Z</time></trkpt>
        <trkpt lat="28.70616" lon="105.092431"><ele>501.82974</ele><time>2026-07-22T00:10:20.000Z</time></trkpt>
        <trkpt lat="28.706154" lon="105.092433"><ele>503.35062</ele><time>2026-07-22T00:10:22.000Z</time></trkpt>
        <trkpt lat="28.706148" lon="105.092432"><ele>504.41</ele><time>2026-07-22T00:10:24.000Z</time></trkpt>
        <trkpt lat="28.70612" lon="105.09243"><ele>505.4002</ele><time>2026-07-22T00:10:28.000Z</time></trkpt>
        <trkpt lat="28.70611" lon="105.09243"><ele>505.77054</ele><time>2026-07-22T00:10:30.000Z</time></trkpt>
        <trkpt lat="28.706094" lon="105.092429"><ele>505.25085</ele><time>2026-07-22T00:10:32.000Z</time></trkpt>
        <trkpt lat="28.706083" lon="105.092428"><ele>503.6584</ele><time>2026-07-22T00:10:34.000Z</time></trkpt>
        <trkpt lat="28.706068" lon="105.092425"><ele>504.04758</ele><time>2026-07-22T00:10:36.000Z</time></trkpt>
        <trkpt lat="28.706055" lon="105.09242"><ele>503.19354</ele><time>2026-07-22T00:10:38.000Z</time></trkpt>
        <trkpt lat="28.706044" lon="105.092412"><ele>502.20474</ele><time>2026-07-22T00:10:40.000Z</time></trkpt>
        <trkpt lat="28.706033" lon="105.092402"><ele>502.64304</ele><time>2026-07-22T00:10:42.000Z</time></trkpt>
        <trkpt lat="28.706019" lon="105.09239"><ele>502.93903</ele><time>2026-07-22T00:10:44.000Z</time></trkpt>
        <trkpt lat="28.706007" lon="105.092382"><ele>503.4696</ele><time>2026-07-22T00:10:46.000Z</time></trkpt>
        <trkpt lat="28.705995" lon="105.092375"><ele>502.71164</ele><time>2026-07-22T00:10:48.000Z</time></trkpt>
        <trkpt lat="28.705984" lon="105.092368"><ele>503.1264</ele><time>2026-07-22T00:10:50.000Z</time></trkpt>
        <trkpt lat="28.705976" lon="105.092361"><ele>504.74448</ele><time>2026-07-22T00:10:52.000Z</time></trkpt>
        <trkpt lat="28.705968" lon="105.092354"><ele>506.08334</ele><time>2026-07-22T00:10:54.000Z</time></trkpt>
        <trkpt lat="28.705956" lon="105.09235"><ele>507.10004</ele><time>2026-07-22T00:10:56.000Z</time></trkpt>
        <trkpt lat="28.705943" lon="105.092351"><ele>507.61243</ele><time>2026-07-22T00:10:58.000Z</time></trkpt>
        <trkpt lat="28.705927" lon="105.092354"><ele>507.7908</ele><time>2026-07-22T00:11:00.000Z</time></trkpt>
        <trkpt lat="28.705915" lon="105.092361"><ele>507.9886</ele><time>2026-07-22T00:11:02.000Z</time></trkpt>
        <trkpt lat="28.705911" lon="105.092371"><ele>507.84473</ele><time>2026-07-22T00:11:04.000Z</time></trkpt>
        <trkpt lat="28.705905" lon="105.092394"><ele>507.83014</ele><time>2026-07-22T00:11:08.000Z</time></trkpt>
        <trkpt lat="28.705905" lon="105.092401"><ele>507.6122</ele><time>2026-07-22T00:11:10.000Z</time></trkpt>
        <trkpt lat="28.705904" lon="105.09241"><ele>509.30386</ele><time>2026-07-22T00:11:14.000Z</time></trkpt>
        <trkpt lat="28.705904" lon="105.092436"><ele>508.0119</ele><time>2026-07-22T00:11:24.000Z</time></trkpt>
        <trkpt lat="28.705904" lon="105.092453"><ele>507.60855</ele><time>2026-07-22T00:11:26.000Z</time></trkpt>
        <trkpt lat="28.705905" lon="105.092454"><ele>507.33545</ele><time>2026-07-22T00:11:28.000Z</time></trkpt>
        <trkpt lat="28.705916" lon="105.092476"><ele>506.40582</ele><time>2026-07-22T00:11:34.000Z</time></trkpt>
        <trkpt lat="28.705922" lon="105.092486"><ele>505.63647</ele><time>2026-07-22T00:11:36.000Z</time></trkpt>
        <trkpt lat="28.705928" lon="105.092494"><ele>504.6786</ele><time>2026-07-22T00:11:38.000Z</time></trkpt>
        <trkpt lat="28.705938" lon="105.092499"><ele>503.8973</ele><time>2026-07-22T00:11:40.000Z</time></trkpt>
        <trkpt lat="28.705952" lon="105.092507"><ele>504.2163</ele><time>2026-07-22T00:11:44.000Z</time></trkpt>
        <trkpt lat="28.705967" lon="105.092517"><ele>503.0496</ele><time>2026-07-22T00:11:46.000Z</time></trkpt>
        <trkpt lat="28.705981" lon="105.092525"><ele>501.30627</ele><time>2026-07-22T00:11:48.000Z</time></trkpt>
        <trkpt lat="28.705991" lon="105.092531"><ele>501.19226</ele><time>2026-07-22T00:11:50.000Z</time></trkpt>
        <trkpt lat="28.705996" lon="105.092531"><ele>500.67044</ele><time>2026-07-22T00:11:52.000Z</time></trkpt>
        <trkpt lat="28.706006" lon="105.092523"><ele>498.61346</ele><time>2026-07-22T00:11:56.000Z</time></trkpt>
        <trkpt lat="28.706018" lon="105.092513"><ele>497.1944</ele><time>2026-07-22T00:11:58.000Z</time></trkpt>
        <trkpt lat="28.706018" lon="105.092513"><ele>497.9493</ele><time>2026-07-22T00:12:00.000Z</time></trkpt>
        <trkpt lat="28.70604" lon="105.092523"><ele>499.11615</ele><time>2026-07-22T00:12:08.000Z</time></trkpt>
        <trkpt lat="28.706063" lon="105.092533"><ele>499.15744</ele><time>2026-07-22T00:12:10.000Z</time></trkpt>
        <trkpt lat="28.706065" lon="105.092533"><ele>498.90115</ele><time>2026-07-22T00:12:12.000Z</time></trkpt>
        <trkpt lat="28.706067" lon="105.092533"><ele>498.13504</ele><time>2026-07-22T00:12:14.000Z</time></trkpt>
        <trkpt lat="28.706098" lon="105.092528"><ele>497.50742</ele><time>2026-07-22T00:12:18.000Z</time></trkpt>
        <trkpt lat="28.706122" lon="105.092526"><ele>497.5425</ele><time>2026-07-22T00:12:20.000Z</time></trkpt>
        <trkpt lat="28.70614" lon="105.092529"><ele>496.9067</ele><time>2026-07-22T00:12:22.000Z</time></trkpt>
        <trkpt lat="28.706159" lon="105.092536"><ele>496.3689</ele><time>2026-07-22T00:12:24.000Z</time></trkpt>
        <trkpt lat="28.706183" lon="105.092544"><ele>496.4453</ele><time>2026-07-22T00:12:26.000Z</time></trkpt>
        <trkpt lat="28.706204" lon="105.092546"><ele>497.68253</ele><time>2026-07-22T00:12:28.000Z</time></trkpt>
        <trkpt lat="28.706223" lon="105.092545"><ele>496.7857</ele><time>2026-07-22T00:12:30.000Z</time></trkpt>
        <trkpt lat="28.706237" lon="105.092552"><ele>496.15103</ele><time>2026-07-22T00:12:32.000Z</time></trkpt>
        <trkpt lat="28.70625" lon="105.092563"><ele>497.57236</ele><time>2026-07-22T00:12:34.000Z</time></trkpt>
        <trkpt lat="28.706255" lon="105.092573"><ele>497.74622</ele><time>2026-07-22T00:12:36.000Z</time></trkpt>
        <trkpt lat="28.706262" lon="105.092576"><ele>499.7296</ele><time>2026-07-22T00:12:38.000Z</time></trkpt>
        <trkpt lat="28.70613" lon="105.092522"><ele>497.63443</ele><time>2026-07-22T00:13:21.000Z</time></trkpt>
        <trkpt lat="28.706119" lon="105.092552"><ele>498.19348</ele><time>2026-07-22T00:13:25.000Z</time></trkpt>
        <trkpt lat="28.706119" lon="105.092552"><ele>497.8047</ele><time>2026-07-22T00:13:27.000Z</time></trkpt>
        <trkpt lat="28.706118" lon="105.092552"><ele>497.17548</ele><time>2026-07-22T00:13:29.000Z</time></trkpt>
        <trkpt lat="28.706081" lon="105.092569"><ele>498.19534</ele><time>2026-07-22T00:13:35.000Z</time></trkpt>
        <trkpt lat="28.70607" lon="105.092576"><ele>497.7348</ele><time>2026-07-22T00:13:37.000Z</time></trkpt>
        <trkpt lat="28.706061" lon="105.092586"><ele>497.87375</ele><time>2026-07-22T00:13:39.000Z</time></trkpt>
        <trkpt lat="28.706053" lon="105.092599"><ele>498.12262</ele><time>2026-07-22T00:13:41.000Z</time></trkpt>
        <trkpt lat="28.706047" lon="105.092612"><ele>497.3746</ele><time>2026-07-22T00:13:43.000Z</time></trkpt>
        <trkpt lat="28.706042" lon="105.092626"><ele>497.0882</ele><time>2026-07-22T00:13:45.000Z</time></trkpt>
        <trkpt lat="28.706035" lon="105.092638"><ele>497.22986</ele><time>2026-07-22T00:13:47.000Z</time></trkpt>
        <trkpt lat="28.706027" lon="105.092648"><ele>497.41965</ele><time>2026-07-22T00:13:49.000Z</time></trkpt>
        <trkpt lat="28.706018" lon="105.092659"><ele>497.73212</ele><time>2026-07-22T00:13:51.000Z</time></trkpt>
        <trkpt lat="28.70601" lon="105.092668"><ele>498.1406</ele><time>2026-07-22T00:13:53.000Z</time></trkpt>
        <trkpt lat="28.706002" lon="105.092675"><ele>498.14822</ele><time>2026-07-22T00:13:55.000Z</time></trkpt>
        <trkpt lat="28.705998" lon="105.092683"><ele>498.905</ele><time>2026-07-22T00:13:57.000Z</time></trkpt>
        <trkpt lat="28.705999" lon="105.092684"><ele>499.7193</ele><time>2026-07-22T00:14:01.000Z</time></trkpt>
        <trkpt lat="28.706027" lon="105.092711"><ele>500.4265</ele><time>2026-07-22T00:14:07.000Z</time></trkpt>
        <trkpt lat="28.706027" lon="105.092711"><ele>499.9638</ele><time>2026-07-22T00:14:09.000Z</time></trkpt>
        <trkpt lat="28.706027" lon="105.092712"><ele>499.2357</ele><time>2026-07-22T00:14:11.000Z</time></trkpt>
        <trkpt lat="28.706048" lon="105.09275"><ele>501.17636</ele><time>2026-07-22T00:14:17.000Z</time></trkpt>
        <trkpt lat="28.706048" lon="105.09275"><ele>501.91425</ele><time>2026-07-22T00:14:19.000Z</time></trkpt>
        <trkpt lat="28.706048" lon="105.09275"><ele>502.48996</ele><time>2026-07-22T00:14:21.000Z</time></trkpt>
        <trkpt lat="28.706034" lon="105.092777"><ele>503.8191</ele><time>2026-07-22T00:14:29.000Z</time></trkpt>
        <trkpt lat="28.706009" lon="105.092772"><ele>503.5274</ele><time>2026-07-22T00:14:31.000Z</time></trkpt>
        <trkpt lat="28.706008" lon="105.092772"><ele>502.8397</ele><time>2026-07-22T00:14:33.000Z</time></trkpt>
        <trkpt lat="28.706007" lon="105.092772"><ele>502.81903</ele><time>2026-07-22T00:14:35.000Z</time></trkpt>
        <trkpt lat="28.705963" lon="105.092766"><ele>501.7082</ele><time>2026-07-22T00:14:41.000Z</time></trkpt>
        <trkpt lat="28.705962" lon="105.092766"><ele>502.01428</ele><time>2026-07-22T00:14:43.000Z</time></trkpt>
        <trkpt lat="28.705961" lon="105.092765"><ele>502.21143</ele><time>2026-07-22T00:14:45.000Z</time></trkpt>
        <trkpt lat="28.705923" lon="105.092738"><ele>502.49155</ele><time>2026-07-22T00:14:51.000Z</time></trkpt>
        <trkpt lat="28.705923" lon="105.092738"><ele>503.37637</ele><time>2026-07-22T00:14:53.000Z</time></trkpt>
        <trkpt lat="28.705921" lon="105.092737"><ele>503.73328</ele><time>2026-07-22T00:14:55.000Z</time></trkpt>
        <trkpt lat="28.705896" lon="105.092726"><ele>505.83615</ele><time>2026-07-22T00:14:59.000Z</time></trkpt>
        <trkpt lat="28.705882" lon="105.092721"><ele>507.63315</ele><time>2026-07-22T00:15:01.000Z</time></trkpt>
        <trkpt lat="28.705874" lon="105.092724"><ele>506.81015</ele><time>2026-07-22T00:15:03.000Z</time></trkpt>
        <trkpt lat="28.705874" lon="105.092723"><ele>506.52985</ele><time>2026-07-22T00:15:05.000Z</time></trkpt>
        <trkpt lat="28.705888" lon="105.092752"><ele>507.22702</ele><time>2026-07-22T00:15:09.000Z</time></trkpt>
        <trkpt lat="28.705898" lon="105.09277"><ele>507.10553</ele><time>2026-07-22T00:15:11.000Z</time></trkpt>
        <trkpt lat="28.705908" lon="105.092783"><ele>509.88464</ele><time>2026-07-22T00:15:13.000Z</time></trkpt>
        <trkpt lat="28.705918" lon="105.092797"><ele>510.83044</ele><time>2026-07-22T00:15:15.000Z</time></trkpt>
        <trkpt lat="28.705926" lon="105.092811"><ele>510.3274</ele><time>2026-07-22T00:15:17.000Z</time></trkpt>
        <trkpt lat="28.705926" lon="105.092818"><ele>511.25238</ele><time>2026-07-22T00:15:19.000Z</time></trkpt>
        <trkpt lat="28.705921" lon="105.092829"><ele>510.94925</ele><time>2026-07-22T00:15:21.000Z</time></trkpt>
        <trkpt lat="28.705907" lon="105.092849"><ele>509.37344</ele><time>2026-07-22T00:15:25.000Z</time></trkpt>
        <trkpt lat="28.705896" lon="105.09286"><ele>508.15118</ele><time>2026-07-22T00:15:27.000Z</time></trkpt>
        <trkpt lat="28.705884" lon="105.092867"><ele>507.609</ele><time>2026-07-22T00:15:29.000Z</time></trkpt>
        <trkpt lat="28.705877" lon="105.092874"><ele>508.34317</ele><time>2026-07-22T00:15:31.000Z</time></trkpt>
        <trkpt lat="28.705863" lon="105.092884"><ele>509.54367</ele><time>2026-07-22T00:15:33.000Z</time></trkpt>
        <trkpt lat="28.70586" lon="105.092887"><ele>510.3542</ele><time>2026-07-22T00:15:35.000Z</time></trkpt>
        <trkpt lat="28.705853" lon="105.092892"><ele>509.88675</ele><time>2026-07-22T00:15:46.000Z</time></trkpt>
        <trkpt lat="28.705819" lon="105.092913"><ele>510.5465</ele><time>2026-07-22T00:15:48.000Z</time></trkpt>
        <trkpt lat="28.705817" lon="105.092914"><ele>510.8487</ele><time>2026-07-22T00:15:50.000Z</time></trkpt>
        <trkpt lat="28.705816" lon="105.092914"><ele>511.0998</ele><time>2026-07-22T00:15:52.000Z</time></trkpt>
        <trkpt lat="28.705795" lon="105.092928"><ele>510.01627</ele><time>2026-07-22T00:15:56.000Z</time></trkpt>
        <trkpt lat="28.705786" lon="105.092937"><ele>511.06696</ele><time>2026-07-22T00:15:58.000Z</time></trkpt>
        <trkpt lat="28.705775" lon="105.092949"><ele>511.27402</ele><time>2026-07-22T00:16:00.000Z</time></trkpt>
        <trkpt lat="28.705768" lon="105.092961"><ele>512.62415</ele><time>2026-07-22T00:16:02.000Z</time></trkpt>
        <trkpt lat="28.705764" lon="105.092969"><ele>513.9576</ele><time>2026-07-22T00:16:04.000Z</time></trkpt>
        <trkpt lat="28.705761" lon="105.092968"><ele>516.17804</ele><time>2026-07-22T00:16:08.000Z</time></trkpt>
        <trkpt lat="28.70573" lon="105.092971"><ele>520.59753</ele><time>2026-07-22T00:16:20.000Z</time></trkpt>
        <trkpt lat="28.705717" lon="105.092973"><ele>519.59863</ele><time>2026-07-22T00:16:22.000Z</time></trkpt>
        <trkpt lat="28.705716" lon="105.092973"><ele>518.5489</ele><time>2026-07-22T00:16:24.000Z</time></trkpt>
        <trkpt lat="28.705683" lon="105.09298"><ele>517.22614</ele><time>2026-07-22T00:16:27.000Z</time></trkpt>
        <trkpt lat="28.705683" lon="105.09298"><ele>516.64264</ele><time>2026-07-22T00:16:29.000Z</time></trkpt>
        <trkpt lat="28.705682" lon="105.092981"><ele>518.0073</ele><time>2026-07-22T00:16:31.000Z</time></trkpt>
        <trkpt lat="28.705663" lon="105.093021"><ele>518.5935</ele><time>2026-07-22T00:16:37.000Z</time></trkpt>
        <trkpt lat="28.705663" lon="105.093021"><ele>518.43854</ele><time>2026-07-22T00:16:39.000Z</time></trkpt>
        <trkpt lat="28.705663" lon="105.093024"><ele>517.22406</ele><time>2026-07-22T00:16:41.000Z</time></trkpt>
        <trkpt lat="28.705665" lon="105.093063"><ele>518.47046</ele><time>2026-07-22T00:16:45.000Z</time></trkpt>
        <trkpt lat="28.70566" lon="105.093086"><ele>519.09204</ele><time>2026-07-22T00:16:47.000Z</time></trkpt>
        <trkpt lat="28.705651" lon="105.093104"><ele>519.8527</ele><time>2026-07-22T00:16:49.000Z</time></trkpt>
        <trkpt lat="28.705642" lon="105.093115"><ele>519.7206</ele><time>2026-07-22T00:16:51.000Z</time></trkpt>
        <trkpt lat="28.705635" lon="105.093119"><ele>521.96295</ele><time>2026-07-22T00:16:53.000Z</time></trkpt>
        <trkpt lat="28.705621" lon="105.093128"><ele>523.09064</ele><time>2026-07-22T00:17:08.000Z</time></trkpt>
        <trkpt lat="28.705616" lon="105.093132"><ele>521.37146</ele><time>2026-07-22T00:17:14.000Z</time></trkpt>
        <trkpt lat="28.705591" lon="105.093149"><ele>520.8804</ele><time>2026-07-22T00:17:16.000Z</time></trkpt>
        <trkpt lat="28.70559" lon="105.09315"><ele>519.47174</ele><time>2026-07-22T00:17:18.000Z</time></trkpt>
        <trkpt lat="28.705589" lon="105.093152"><ele>522.2729</ele><time>2026-07-22T00:17:20.000Z</time></trkpt>
        <trkpt lat="28.705578" lon="105.093179"><ele>527.7366</ele><time>2026-07-22T00:17:32.000Z</time></trkpt>
        <trkpt lat="28.705578" lon="105.093179"><ele>527.71564</ele><time>2026-07-22T00:17:34.000Z</time></trkpt>
        <trkpt lat="28.705576" lon="105.09318"><ele>526.6603</ele><time>2026-07-22T00:17:36.000Z</time></trkpt>
        <trkpt lat="28.705541" lon="105.093199"><ele>525.03815</ele><time>2026-07-22T00:17:44.000Z</time></trkpt>
        <trkpt lat="28.705541" lon="105.093199"><ele>523.66797</ele><time>2026-07-22T00:17:46.000Z</time></trkpt>
        <trkpt lat="28.705541" lon="105.0932"><ele>524.7715</ele><time>2026-07-22T00:17:48.000Z</time></trkpt>
        <trkpt lat="28.705529" lon="105.093226"><ele>531.6392</ele><time>2026-07-22T00:18:14.000Z</time></trkpt>
        <trkpt lat="28.705529" lon="105.093228"><ele>529.1619</ele><time>2026-07-22T00:18:16.000Z</time></trkpt>
        <trkpt lat="28.705537" lon="105.093236"><ele>526.77783</ele><time>2026-07-22T00:18:18.000Z</time></trkpt>
        <trkpt lat="28.705502" lon="105.093196"><ele>528.1093</ele><time>2026-07-22T00:18:26.000Z</time></trkpt>
        <trkpt lat="28.705502" lon="105.093196"><ele>524.7924</ele><time>2026-07-22T00:18:28.000Z</time></trkpt>
        <trkpt lat="28.705502" lon="105.093199"><ele>527.16254</ele><time>2026-07-22T00:18:30.000Z</time></trkpt>
        <trkpt lat="28.705494" lon="105.093233"><ele>525.1895</ele><time>2026-07-22T00:18:36.000Z</time></trkpt>
        <trkpt lat="28.705491" lon="105.093239"><ele>526.83795</ele><time>2026-07-22T00:18:38.000Z</time></trkpt>
        <trkpt lat="28.705486" lon="105.093245"><ele>526.73706</ele><time>2026-07-22T00:18:40.000Z</time></trkpt>
        <trkpt lat="28.705472" lon="105.093255"><ele>525.89124</ele><time>2026-07-22T00:18:44.000Z</time></trkpt>
        <trkpt lat="28.705461" lon="105.093263"><ele>526.16724</ele><time>2026-07-22T00:18:46.000Z</time></trkpt>
        <trkpt lat="28.70546" lon="105.093263"><ele>528.6427</ele><time>2026-07-22T00:18:48.000Z</time></trkpt>
        <trkpt lat="28.705443" lon="105.093279"><ele>529.66626</ele><time>2026-07-22T00:18:52.000Z</time></trkpt>
        <trkpt lat="28.705424" lon="105.093299"><ele>529.8052</ele><time>2026-07-22T00:18:54.000Z</time></trkpt>
        <trkpt lat="28.705405" lon="105.09332"><ele>529.93427</ele><time>2026-07-22T00:18:56.000Z</time></trkpt>
        <trkpt lat="28.705392" lon="105.093334"><ele>529.9246</ele><time>2026-07-22T00:18:58.000Z</time></trkpt>
        <trkpt lat="28.705384" lon="105.093342"><ele>529.49396</ele><time>2026-07-22T00:19:00.000Z</time></trkpt>
        <trkpt lat="28.705378" lon="105.093348"><ele>529.7915</ele><time>2026-07-22T00:19:02.000Z</time></trkpt>
        <trkpt lat="28.705371" lon="105.093355"><ele>530.1323</ele><time>2026-07-22T00:19:10.000Z</time></trkpt>
        <trkpt lat="28.705365" lon="105.093359"><ele>530.2803</ele><time>2026-07-22T00:19:12.000Z</time></trkpt>
        <trkpt lat="28.705355" lon="105.093371"><ele>531.8949</ele><time>2026-07-22T00:19:16.000Z</time></trkpt>
        <trkpt lat="28.705345" lon="105.093384"><ele>534.5691</ele><time>2026-07-22T00:19:18.000Z</time></trkpt>
        <trkpt lat="28.705344" lon="105.093384"><ele>533.3604</ele><time>2026-07-22T00:19:20.000Z</time></trkpt>
        <trkpt lat="28.705322" lon="105.093399"><ele>534.31525</ele><time>2026-07-22T00:19:26.000Z</time></trkpt>
        <trkpt lat="28.70531" lon="105.093399"><ele>533.581</ele><time>2026-07-22T00:19:28.000Z</time></trkpt>
        <trkpt lat="28.705303" lon="105.0934"><ele>533.3523</ele><time>2026-07-22T00:19:30.000Z</time></trkpt>
        <trkpt lat="28.705299" lon="105.093405"><ele>532.8229</ele><time>2026-07-22T00:19:32.000Z</time></trkpt>
        <trkpt lat="28.705279" lon="105.093433"><ele>534.10803</ele><time>2026-07-22T00:19:36.000Z</time></trkpt>
        <trkpt lat="28.705268" lon="105.093448"><ele>535.8815</ele><time>2026-07-22T00:19:38.000Z</time></trkpt>
        <trkpt lat="28.705256" lon="105.093461"><ele>534.5367</ele><time>2026-07-22T00:19:40.000Z</time></trkpt>
        <trkpt lat="28.705245" lon="105.093472"><ele>534.22156</ele><time>2026-07-22T00:19:42.000Z</time></trkpt>
        <trkpt lat="28.705239" lon="105.09348"><ele>533.9531</ele><time>2026-07-22T00:19:44.000Z</time></trkpt>
        <trkpt lat="28.70523" lon="105.093487"><ele>534.02246</ele><time>2026-07-22T00:19:46.000Z</time></trkpt>
        <trkpt lat="28.705218" lon="105.093497"><ele>534.7828</ele><time>2026-07-22T00:19:48.000Z</time></trkpt>
        <trkpt lat="28.705206" lon="105.093508"><ele>536.16626</ele><time>2026-07-22T00:19:50.000Z</time></trkpt>
        <trkpt lat="28.705193" lon="105.093522"><ele>535.68115</ele><time>2026-07-22T00:19:52.000Z</time></trkpt>
        <trkpt lat="28.705184" lon="105.093533"><ele>535.3526</ele><time>2026-07-22T00:19:54.000Z</time></trkpt>
        <trkpt lat="28.705172" lon="105.093542"><ele>536.3206</ele><time>2026-07-22T00:19:56.000Z</time></trkpt>
        <trkpt lat="28.705158" lon="105.093549"><ele>535.8271</ele><time>2026-07-22T00:19:58.000Z</time></trkpt>
        <trkpt lat="28.70514" lon="105.093553"><ele>535.67816</ele><time>2026-07-22T00:20:00.000Z</time></trkpt>
        <trkpt lat="28.705126" lon="105.093553"><ele>537.06604</ele><time>2026-07-22T00:20:02.000Z</time></trkpt>
        <trkpt lat="28.705108" lon="105.093552"><ele>538.4086</ele><time>2026-07-22T00:20:04.000Z</time></trkpt>
        <trkpt lat="28.70509" lon="105.093553"><ele>538.37445</ele><time>2026-07-22T00:20:06.000Z</time></trkpt>
        <trkpt lat="28.705074" lon="105.093556"><ele>538.9975</ele><time>2026-07-22T00:20:08.000Z</time></trkpt>
        <trkpt lat="28.705057" lon="105.093562"><ele>538.4897</ele><time>2026-07-22T00:20:10.000Z</time></trkpt>
        <trkpt lat="28.705037" lon="105.093571"><ele>538.9813</ele><time>2026-07-22T00:20:12.000Z</time></trkpt>
        <trkpt lat="28.705022" lon="105.093576"><ele>539.5503</ele><time>2026-07-22T00:20:14.000Z</time></trkpt>
        <trkpt lat="28.705003" lon="105.093578"><ele>539.6148</ele><time>2026-07-22T00:20:16.000Z</time></trkpt>
        <trkpt lat="28.704986" lon="105.093579"><ele>539.23773</ele><time>2026-07-22T00:20:18.000Z</time></trkpt>
        <trkpt lat="28.704966" lon="105.093581"><ele>538.2913</ele><time>2026-07-22T00:20:20.000Z</time></trkpt>
        <trkpt lat="28.704943" lon="105.093585"><ele>539.0894</ele><time>2026-07-22T00:20:22.000Z</time></trkpt>
        <trkpt lat="28.704924" lon="105.093591"><ele>539.05804</ele><time>2026-07-22T00:20:24.000Z</time></trkpt>
        <trkpt lat="28.704907" lon="105.093603"><ele>539.9922</ele><time>2026-07-22T00:20:26.000Z</time></trkpt>
        <trkpt lat="28.7049" lon="105.093619"><ele>541.24615</ele><time>2026-07-22T00:20:28.000Z</time></trkpt>
        <trkpt lat="28.7049" lon="105.093633"><ele>541.4207</ele><time>2026-07-22T00:20:30.000Z</time></trkpt>
        <trkpt lat="28.704903" lon="105.093651"><ele>541.724</ele><time>2026-07-22T00:20:32.000Z</time></trkpt>
        <trkpt lat="28.704909" lon="105.09367"><ele>541.66425</ele><time>2026-07-22T00:20:34.000Z</time></trkpt>
        <trkpt lat="28.704915" lon="105.093689"><ele>541.5608</ele><time>2026-07-22T00:20:36.000Z</time></trkpt>
        <trkpt lat="28.70492" lon="105.093708"><ele>541.0875</ele><time>2026-07-22T00:20:38.000Z</time></trkpt>
        <trkpt lat="28.704925" lon="105.093728"><ele>540.9731</ele><time>2026-07-22T00:20:40.000Z</time></trkpt>
        <trkpt lat="28.704928" lon="105.093749"><ele>540.8264</ele><time>2026-07-22T00:20:42.000Z</time></trkpt>
        <trkpt lat="28.704931" lon="105.093771"><ele>540.4154</ele><time>2026-07-22T00:20:44.000Z</time></trkpt>
        <trkpt lat="28.704934" lon="105.093793"><ele>540.2977</ele><time>2026-07-22T00:20:46.000Z</time></trkpt>
        <trkpt lat="28.704937" lon="105.093817"><ele>540.08185</ele><time>2026-07-22T00:20:48.000Z</time></trkpt>
        <trkpt lat="28.70494" lon="105.093841"><ele>540.2667</ele><time>2026-07-22T00:20:50.000Z</time></trkpt>
        <trkpt lat="28.704943" lon="105.093864"><ele>540.0278</ele><time>2026-07-22T00:20:52.000Z</time></trkpt>
        <trkpt lat="28.704947" lon="105.093887"><ele>539.6949</ele><time>2026-07-22T00:20:54.000Z</time></trkpt>
        <trkpt lat="28.704951" lon="105.09391"><ele>539.2721</ele><time>2026-07-22T00:20:56.000Z</time></trkpt>
        <trkpt lat="28.704956" lon="105.093931"><ele>539.00256</ele><time>2026-07-22T00:20:58.000Z</time></trkpt>
        <trkpt lat="28.704964" lon="105.093954"><ele>538.5192</ele><time>2026-07-22T00:21:00.000Z</time></trkpt>
        <trkpt lat="28.704973" lon="105.093974"><ele>537.8096</ele><time>2026-07-22T00:21:02.000Z</time></trkpt>
        <trkpt lat="28.704984" lon="105.093992"><ele>537.2774</ele><time>2026-07-22T00:21:04.000Z</time></trkpt>
        <trkpt lat="28.704999" lon="105.094005"><ele>537.6425</ele><time>2026-07-22T00:21:06.000Z</time></trkpt>
        <trkpt lat="28.705015" lon="105.09401"><ele>537.97925</ele><time>2026-07-22T00:21:08.000Z</time></trkpt>
        <trkpt lat="28.70503" lon="105.094011"><ele>536.15686</ele><time>2026-07-22T00:21:10.000Z</time></trkpt>
        <trkpt lat="28.705046" lon="105.094009"><ele>537.8031</ele><time>2026-07-22T00:21:12.000Z</time></trkpt>
        <trkpt lat="28.705065" lon="105.09401"><ele>538.8885</ele><time>2026-07-22T00:21:14.000Z</time></trkpt>
        <trkpt lat="28.705079" lon="105.094019"><ele>539.71747</ele><time>2026-07-22T00:21:16.000Z</time></trkpt>
        <trkpt lat="28.705088" lon="105.094033"><ele>539.7423</ele><time>2026-07-22T00:21:18.000Z</time></trkpt>
        <trkpt lat="28.705089" lon="105.094046"><ele>540.07355</ele><time>2026-07-22T00:21:20.000Z</time></trkpt>
        <trkpt lat="28.705087" lon="105.094048"><ele>535.3505</ele><time>2026-07-22T00:21:22.000Z</time></trkpt>
        <trkpt lat="28.705069" lon="105.094054"><ele>534.2305</ele><time>2026-07-22T00:21:26.000Z</time></trkpt>
        <trkpt lat="28.705063" lon="105.094053"><ele>536.5048</ele><time>2026-07-22T00:21:28.000Z</time></trkpt>
        <trkpt lat="28.705063" lon="105.09405"><ele>537.1811</ele><time>2026-07-22T00:21:30.000Z</time></trkpt>
        <trkpt lat="28.705058" lon="105.094028"><ele>535.89197</ele><time>2026-07-22T00:21:36.000Z</time></trkpt>
        <trkpt lat="28.705083" lon="105.094015"><ele>535.06445</ele><time>2026-07-22T00:21:38.000Z</time></trkpt>
        <trkpt lat="28.705084" lon="105.094014"><ele>534.29816</ele><time>2026-07-22T00:21:40.000Z</time></trkpt>
        <trkpt lat="28.705084" lon="105.094015"><ele>536.0744</ele><time>2026-07-22T00:21:42.000Z</time></trkpt>
        <trkpt lat="28.705097" lon="105.094041"><ele>542.51776</ele><time>2026-07-22T00:21:54.000Z</time></trkpt>
        <trkpt lat="28.705103" lon="105.094055"><ele>543.3028</ele><time>2026-07-22T00:21:56.000Z</time></trkpt>
        <trkpt lat="28.705103" lon="105.094055"><ele>544.19415</ele><time>2026-07-22T00:21:58.000Z</time></trkpt>
        <trkpt lat="28.705083" lon="105.094072"><ele>542.6818</ele><time>2026-07-22T00:22:04.000Z</time></trkpt>
        <trkpt lat="28.705068" lon="105.094081"><ele>543.14923</ele><time>2026-07-22T00:22:06.000Z</time></trkpt>
        <trkpt lat="28.705052" lon="105.094084"><ele>544.22766</ele><time>2026-07-22T00:22:08.000Z</time></trkpt>
        <trkpt lat="28.70504" lon="105.094079"><ele>545.3676</ele><time>2026-07-22T00:22:10.000Z</time></trkpt>
        <trkpt lat="28.705035" lon="105.094069"><ele>545.9046</ele><time>2026-07-22T00:22:12.000Z</time></trkpt>
        <trkpt lat="28.705035" lon="105.094055"><ele>543.0987</ele><time>2026-07-22T00:22:14.000Z</time></trkpt>
        <trkpt lat="28.705043" lon="105.094039"><ele>542.2549</ele><time>2026-07-22T00:22:16.000Z</time></trkpt>
        <trkpt lat="28.705054" lon="105.094028"><ele>540.51996</ele><time>2026-07-22T00:22:18.000Z</time></trkpt>
        <trkpt lat="28.705053" lon="105.094024"><ele>541.9652</ele><time>2026-07-22T00:22:20.000Z</time></trkpt>
        <trkpt lat="28.705061" lon="105.094068"><ele>539.0265</ele><time>2026-07-22T00:22:34.000Z</time></trkpt>
        <trkpt lat="28.705061" lon="105.094068"><ele>537.10815</ele><time>2026-07-22T00:22:36.000Z</time></trkpt>
        <trkpt lat="28.705062" lon="105.094067"><ele>536.5361</ele><time>2026-07-22T00:22:38.000Z</time></trkpt>
        <trkpt lat="28.705076" lon="105.094045"><ele>538.16583</ele><time>2026-07-22T00:22:44.000Z</time></trkpt>
        <trkpt lat="28.705098" lon="105.094009"><ele>536.4116</ele><time>2026-07-22T00:22:46.000Z</time></trkpt>
        <trkpt lat="28.705099" lon="105.094008"><ele>538.3031</ele><time>2026-07-22T00:22:48.000Z</time></trkpt>
        <trkpt lat="28.705099" lon="105.094008"><ele>539.45984</ele><time>2026-07-22T00:22:50.000Z</time></trkpt>
        <trkpt lat="28.705057" lon="105.094014"><ele>540.547</ele><time>2026-07-22T00:22:55.000Z</time></trkpt>
        <trkpt lat="28.705032" lon="105.094016"><ele>541.5672</ele><time>2026-07-22T00:22:57.000Z</time></trkpt>
        <trkpt lat="28.705009" lon="105.09401"><ele>540.10156</ele><time>2026-07-22T00:22:59.000Z</time></trkpt>
        <trkpt lat="28.704991" lon="105.093997"><ele>539.1125</ele><time>2026-07-22T00:23:01.000Z</time></trkpt>
        <trkpt lat="28.704975" lon="105.093979"><ele>538.3031</ele><time>2026-07-22T00:23:03.000Z</time></trkpt>
        <trkpt lat="28.704962" lon="105.093956"><ele>537.71954</ele><time>2026-07-22T00:23:05.000Z</time></trkpt>
        <trkpt lat="28.704954" lon="105.093931"><ele>537.22845</ele><time>2026-07-22T00:23:07.000Z</time></trkpt>
        <trkpt lat="28.704948" lon="105.093903"><ele>537.18005</ele><time>2026-07-22T00:23:10.000Z</time></trkpt>
        <trkpt lat="28.704943" lon="105.093875"><ele>537.3292</ele><time>2026-07-22T00:23:12.000Z</time></trkpt>
        <trkpt lat="28.70494" lon="105.093848"><ele>537.59625</ele><time>2026-07-22T00:23:14.000Z</time></trkpt>
        <trkpt lat="28.704937" lon="105.093822"><ele>537.60724</ele><time>2026-07-22T00:23:16.000Z</time></trkpt>
        <trkpt lat="28.704935" lon="105.0938"><ele>538.22614</ele><time>2026-07-22T00:23:18.000Z</time></trkpt>
        <trkpt lat="28.704933" lon="105.093774"><ele>539.4265</ele><time>2026-07-22T00:23:20.000Z</time></trkpt>
        <trkpt lat="28.70493" lon="105.093749"><ele>539.6259</ele><time>2026-07-22T00:23:22.000Z</time></trkpt>
        <trkpt lat="28.704926" lon="105.093723"><ele>540.47363</ele><time>2026-07-22T00:23:24.000Z</time></trkpt>
        <trkpt lat="28.704927" lon="105.093698"><ele>540.5338</ele><time>2026-07-22T00:23:26.000Z</time></trkpt>
        <trkpt lat="28.704929" lon="105.09368"><ele>540.1904</ele><time>2026-07-22T00:23:28.000Z</time></trkpt>
        <trkpt lat="28.704931" lon="105.093661"><ele>539.86304</ele><time>2026-07-22T00:23:30.000Z</time></trkpt>
        <trkpt lat="28.70493" lon="105.093641"><ele>539.9408</ele><time>2026-07-22T00:23:32.000Z</time></trkpt>
        <trkpt lat="28.704925" lon="105.093617"><ele>539.9519</ele><time>2026-07-22T00:23:34.000Z</time></trkpt>
        <trkpt lat="28.704913" lon="105.093589"><ele>540.2279</ele><time>2026-07-22T00:23:36.000Z</time></trkpt>
        <trkpt lat="28.704874" lon="105.093503"><ele>540.981</ele><time>2026-07-22T00:23:38.000Z</time></trkpt>
        <trkpt lat="28.704871" lon="105.093498"><ele>541.9664</ele><time>2026-07-22T00:23:40.000Z</time></trkpt>
        <trkpt lat="28.704867" lon="105.093493"><ele>542.79803</ele><time>2026-07-22T00:23:42.000Z</time></trkpt>
        <trkpt lat="28.704814" lon="105.093435"><ele>544.8051</ele><time>2026-07-22T00:23:46.000Z</time></trkpt>
        <trkpt lat="28.70478" lon="105.093395"><ele>545.8334</ele><time>2026-07-22T00:23:48.000Z</time></trkpt>
        <trkpt lat="28.704749" lon="105.093356"><ele>546.26227</ele><time>2026-07-22T00:23:50.000Z</time></trkpt>
        <trkpt lat="28.704723" lon="105.093323"><ele>546.5643</ele><time>2026-07-22T00:23:52.000Z</time></trkpt>
        <trkpt lat="28.704705" lon="105.093298"><ele>547.07117</ele><time>2026-07-22T00:23:54.000Z</time></trkpt>
        <trkpt lat="28.704689" lon="105.093277"><ele>547.3396</ele><time>2026-07-22T00:23:56.000Z</time></trkpt>
        <trkpt lat="28.704676" lon="105.093259"><ele>548.26776</ele><time>2026-07-22T00:23:58.000Z</time></trkpt>
        <trkpt lat="28.704663" lon="105.093242"><ele>548.59937</ele><time>2026-07-22T00:24:00.000Z</time></trkpt>
        <trkpt lat="28.70465" lon="105.093229"><ele>547.9418</ele><time>2026-07-22T00:24:02.000Z</time></trkpt>
        <trkpt lat="28.704636" lon="105.093218"><ele>548.3968</ele><time>2026-07-22T00:24:04.000Z</time></trkpt>
        <trkpt lat="28.704619" lon="105.093204"><ele>549.12585</ele><time>2026-07-22T00:24:06.000Z</time></trkpt>
        <trkpt lat="28.7046" lon="105.093189"><ele>548.67175</ele><time>2026-07-22T00:24:08.000Z</time></trkpt>
        <trkpt lat="28.704586" lon="105.093179"><ele>548.34424</ele><time>2026-07-22T00:24:10.000Z</time></trkpt>
        <trkpt lat="28.704574" lon="105.093173"><ele>548.7771</ele><time>2026-07-22T00:24:12.000Z</time></trkpt>
        <trkpt lat="28.704562" lon="105.09317"><ele>548.2157</ele><time>2026-07-22T00:24:14.000Z</time></trkpt>
        <trkpt lat="28.704561" lon="105.093172"><ele>548.09717</ele><time>2026-07-22T00:24:16.000Z</time></trkpt>
        <trkpt lat="28.704554" lon="105.093183"><ele>549.4828</ele><time>2026-07-22T00:24:20.000Z</time></trkpt>
        <trkpt lat="28.70455" lon="105.093191"><ele>548.7597</ele><time>2026-07-22T00:24:22.000Z</time></trkpt>
        <trkpt lat="28.704547" lon="105.093196"><ele>547.39215</ele><time>2026-07-22T00:24:24.000Z</time></trkpt>
        <trkpt lat="28.704538" lon="105.093209"><ele>548.59045</ele><time>2026-07-22T00:24:32.000Z</time></trkpt>
        <trkpt lat="28.704512" lon="105.093193"><ele>547.65497</ele><time>2026-07-22T00:24:48.000Z</time></trkpt>
        <trkpt lat="28.704471" lon="105.093165"><ele>548.04083</ele><time>2026-07-22T00:24:50.000Z</time></trkpt>
        <trkpt lat="28.704442" lon="105.093148"><ele>547.14417</ele><time>2026-07-22T00:24:52.000Z</time></trkpt>
        <trkpt lat="28.704355" lon="105.093099"><ele>548.8803</ele><time>2026-07-22T00:24:57.000Z</time></trkpt>
        <trkpt lat="28.704355" lon="105.093099"><ele>551.72174</ele><time>2026-07-22T00:24:59.000Z</time></trkpt>
        <trkpt lat="28.704349" lon="105.093094"><ele>550.19556</ele><time>2026-07-22T00:25:00.000Z</time></trkpt>
        <trkpt lat="28.704269" lon="105.093028"><ele>550.4472</ele><time>2026-07-22T00:25:05.000Z</time></trkpt>
        <trkpt lat="28.704216" lon="105.092983"><ele>549.8793</ele><time>2026-07-22T00:25:06.000Z</time></trkpt>
        <trkpt lat="28.704164" lon="105.092939"><ele>549.4728</ele><time>2026-07-22T00:25:09.000Z</time></trkpt>
        <trkpt lat="28.704119" lon="105.0929"><ele>549.2025</ele><time>2026-07-22T00:25:11.000Z</time></trkpt>
        <trkpt lat="28.704083" lon="105.09287"><ele>548.684</ele><time>2026-07-22T00:25:13.000Z</time></trkpt>
        <trkpt lat="28.704052" lon="105.092846"><ele>548.13464</ele><time>2026-07-22T00:25:15.000Z</time></trkpt>
        <trkpt lat="28.704024" lon="105.092823"><ele>547.72095</ele><time>2026-07-22T00:25:17.000Z</time></trkpt>
        <trkpt lat="28.703994" lon="105.092798"><ele>547.2397</ele><time>2026-07-22T00:25:19.000Z</time></trkpt>
        <trkpt lat="28.703965" lon="105.092773"><ele>546.69965</ele><time>2026-07-22T00:25:21.000Z</time></trkpt>
        <trkpt lat="28.703923" lon="105.092737"><ele>546.03644</ele><time>2026-07-22T00:25:23.000Z</time></trkpt>
        <trkpt lat="28.703884" lon="105.092703"><ele>545.7658</ele><time>2026-07-22T00:25:25.000Z</time></trkpt>
        <trkpt lat="28.703842" lon="105.092669"><ele>545.6719</ele><time>2026-07-22T00:25:27.000Z</time></trkpt>
        <trkpt lat="28.703797" lon="105.092638"><ele>545.599</ele><time>2026-07-22T00:25:29.000Z</time></trkpt>
        <trkpt lat="28.703751" lon="105.092617"><ele>546.0557</ele><time>2026-07-22T00:25:31.000Z</time></trkpt>
        <trkpt lat="28.703689" lon="105.092597"><ele>546.0751</ele><time>2026-07-22T00:25:33.000Z</time></trkpt>
        <trkpt lat="28.703619" lon="105.092585"><ele>545.9768</ele><time>2026-07-22T00:25:35.000Z</time></trkpt>
        <trkpt lat="28.703547" lon="105.092579"><ele>546.5644</ele><time>2026-07-22T00:25:37.000Z</time></trkpt>
        <trkpt lat="28.703479" lon="105.092579"><ele>546.70337</ele><time>2026-07-22T00:25:39.000Z</time></trkpt>
        <trkpt lat="28.703414" lon="105.092584"><ele>546.86176</ele><time>2026-07-22T00:25:41.000Z</time></trkpt>
        <trkpt lat="28.703361" lon="105.092591"><ele>547.1004</ele><time>2026-07-22T00:25:43.000Z</time></trkpt>
        <trkpt lat="28.703312" lon="105.092599"><ele>546.5503</ele><time>2026-07-22T00:25:45.000Z</time></trkpt>
        <trkpt lat="28.703265" lon="105.092602"><ele>546.68115</ele><time>2026-07-22T00:25:47.000Z</time></trkpt>
        <trkpt lat="28.703222" lon="105.092598"><ele>547.17377</ele><time>2026-07-22T00:25:49.000Z</time></trkpt>
        <trkpt lat="28.703182" lon="105.092583"><ele>547.4262</ele><time>2026-07-22T00:25:51.000Z</time></trkpt>
        <trkpt lat="28.703141" lon="105.092559"><ele>547.957</ele><time>2026-07-22T00:25:53.000Z</time></trkpt>
        <trkpt lat="28.703096" lon="105.092527"><ele>549.0756</ele><time>2026-07-22T00:25:55.000Z</time></trkpt>
        <trkpt lat="28.703049" lon="105.092492"><ele>548.59344</ele><time>2026-07-22T00:25:57.000Z</time></trkpt>
        <trkpt lat="28.702991" lon="105.092448"><ele>549.6385</ele><time>2026-07-22T00:25:59.000Z</time></trkpt>
        <trkpt lat="28.702933" lon="105.092406"><ele>552.47485</ele><time>2026-07-22T00:26:01.000Z</time></trkpt>
        <trkpt lat="28.702875" lon="105.092368"><ele>553.14185</ele><time>2026-07-22T00:26:03.000Z</time></trkpt>
        <trkpt lat="28.702809" lon="105.092329"><ele>553.7591</ele><time>2026-07-22T00:26:05.000Z</time></trkpt>
        <trkpt lat="28.702746" lon="105.092299"><ele>553.3283</ele><time>2026-07-22T00:26:07.000Z</time></trkpt>
        <trkpt lat="28.702697" lon="105.092284"><ele>553.78296</ele><time>2026-07-22T00:26:09.000Z</time></trkpt>
        <trkpt lat="28.702658" lon="105.09228"><ele>554.1881</ele><time>2026-07-22T00:26:11.000Z</time></trkpt>
        <trkpt lat="28.702627" lon="105.092285"><ele>554.93365</ele><time>2026-07-22T00:26:13.000Z</time></trkpt>
        <trkpt lat="28.702596" lon="105.092295"><ele>555.63257</ele><time>2026-07-22T00:26:15.000Z</time></trkpt>
        <trkpt lat="28.702568" lon="105.09231"><ele>555.88043</ele><time>2026-07-22T00:26:17.000Z</time></trkpt>
        <trkpt lat="28.702541" lon="105.092327"><ele>556.0714</ele><time>2026-07-22T00:26:19.000Z</time></trkpt>
        <trkpt lat="28.702512" lon="105.092349"><ele>555.77924</ele><time>2026-07-22T00:26:21.000Z</time></trkpt>
        <trkpt lat="28.702485" lon="105.09237"><ele>555.80054</ele><time>2026-07-22T00:26:23.000Z</time></trkpt>
        <trkpt lat="28.702462" lon="105.092388"><ele>555.5975</ele><time>2026-07-22T00:26:25.000Z</time></trkpt>
        <trkpt lat="28.702436" lon="105.092411"><ele>555.3991</ele><time>2026-07-22T00:26:27.000Z</time></trkpt>
        <trkpt lat="28.702412" lon="105.092433"><ele>555.885</ele><time>2026-07-22T00:26:29.000Z</time></trkpt>
        <trkpt lat="28.702387" lon="105.092453"><ele>555.6862</ele><time>2026-07-22T00:26:31.000Z</time></trkpt>
        <trkpt lat="28.702361" lon="105.09247"><ele>556.38745</ele><time>2026-07-22T00:26:33.000Z</time></trkpt>
        <trkpt lat="28.702334" lon="105.092482"><ele>557.1006</ele><time>2026-07-22T00:26:35.000Z</time></trkpt>
        <trkpt lat="28.702306" lon="105.092492"><ele>557.6623</ele><time>2026-07-22T00:26:37.000Z</time></trkpt>
        <trkpt lat="28.702278" lon="105.0925"><ele>557.73505</ele><time>2026-07-22T00:26:39.000Z</time></trkpt>
        <trkpt lat="28.702244" lon="105.092508"><ele>558.51044</ele><time>2026-07-22T00:26:41.000Z</time></trkpt>
        <trkpt lat="28.702175" lon="105.092525"><ele>559.0366</ele><time>2026-07-22T00:26:43.000Z</time></trkpt>
        <trkpt lat="28.70217" lon="105.092526"><ele>558.8422</ele><time>2026-07-22T00:26:45.000Z</time></trkpt>
        <trkpt lat="28.702162" lon="105.092527"><ele>558.1016</ele><time>2026-07-22T00:26:47.000Z</time></trkpt>
        <trkpt lat="28.702129" lon="105.092526"><ele>558.3673</ele><time>2026-07-22T00:26:49.000Z</time></trkpt>
        <trkpt lat="28.702073" lon="105.092517"><ele>557.81757</ele><time>2026-07-22T00:26:51.000Z</time></trkpt>
        <trkpt lat="28.702016" lon="105.092498"><ele>558.23553</ele><time>2026-07-22T00:26:53.000Z</time></trkpt>
        <trkpt lat="28.701966" lon="105.092469"><ele>557.59863</ele><time>2026-07-22T00:26:55.000Z</time></trkpt>
        <trkpt lat="28.70193" lon="105.092437"><ele>557.39264</ele><time>2026-07-22T00:26:57.000Z</time></trkpt>
        <trkpt lat="28.701904" lon="105.092404"><ele>557.29553</ele><time>2026-07-22T00:26:59.000Z</time></trkpt>
        <trkpt lat="28.701884" lon="105.092369"><ele>557.6092</ele><time>2026-07-22T00:27:01.000Z</time></trkpt>
        <trkpt lat="28.701867" lon="105.09233"><ele>557.2102</ele><time>2026-07-22T00:27:03.000Z</time></trkpt>
        <trkpt lat="28.701852" lon="105.092294"><ele>557.0934</ele><time>2026-07-22T00:27:05.000Z</time></trkpt>
        <trkpt lat="28.701838" lon="105.092261"><ele>556.7225</ele><time>2026-07-22T00:27:07.000Z</time></trkpt>
        <trkpt lat="28.701823" lon="105.092229"><ele>556.64355</ele><time>2026-07-22T00:27:09.000Z</time></trkpt>
        <trkpt lat="28.701806" lon="105.092203"><ele>556.6388</ele><time>2026-07-22T00:27:11.000Z</time></trkpt>
        <trkpt lat="28.701784" lon="105.092176"><ele>556.82965</ele><time>2026-07-22T00:27:13.000Z</time></trkpt>
        <trkpt lat="28.70176" lon="105.092151"><ele>556.35565</ele><time>2026-07-22T00:27:15.000Z</time></trkpt>
        <trkpt lat="28.701735" lon="105.092126"><ele>556.308</ele><time>2026-07-22T00:27:17.000Z</time></trkpt>
        <trkpt lat="28.701712" lon="105.092097"><ele>555.8139</ele><time>2026-07-22T00:27:19.000Z</time></trkpt>
        <trkpt lat="28.701691" lon="105.092062"><ele>555.3855</ele><time>2026-07-22T00:27:21.000Z</time></trkpt>
        <trkpt lat="28.701643" lon="105.091981"><ele>555.71576</ele><time>2026-07-22T00:27:23.000Z</time></trkpt>
        <trkpt lat="28.70164" lon="105.091974"><ele>555.6455</ele><time>2026-07-22T00:27:25.000Z</time></trkpt>
        <trkpt lat="28.701635" lon="105.091965"><ele>554.55554</ele><time>2026-07-22T00:27:27.000Z</time></trkpt>
        <trkpt lat="28.701614" lon="105.091926"><ele>552.46075</ele><time>2026-07-22T00:27:29.000Z</time></trkpt>
        <trkpt lat="28.701578" lon="105.091858"><ele>551.0001</ele><time>2026-07-22T00:27:31.000Z</time></trkpt>
        <trkpt lat="28.701542" lon="105.091793"><ele>552.2372</ele><time>2026-07-22T00:27:33.000Z</time></trkpt>
        <trkpt lat="28.701518" lon="105.09175"><ele>551.7879</ele><time>2026-07-22T00:27:35.000Z</time></trkpt>
        <trkpt lat="28.701505" lon="105.091727"><ele>551.7857</ele><time>2026-07-22T00:27:37.000Z</time></trkpt>
        <trkpt lat="28.701505" lon="105.091714"><ele>551.47095</ele><time>2026-07-22T00:27:39.000Z</time></trkpt>
        <trkpt lat="28.701505" lon="105.09171"><ele>550.1432</ele><time>2026-07-22T00:27:43.000Z</time></trkpt>
        <trkpt lat="28.701503" lon="105.091686"><ele>549.4118</ele><time>2026-07-22T00:27:55.000Z</time></trkpt>
        <trkpt lat="28.701501" lon="105.091659"><ele>550.37994</ele><time>2026-07-22T00:27:57.000Z</time></trkpt>
        <trkpt lat="28.701502" lon="105.091658"><ele>549.55945</ele><time>2026-07-22T00:27:59.000Z</time></trkpt>
        <trkpt lat="28.701467" lon="105.091683"><ele>551.89087</ele><time>2026-07-22T00:28:03.000Z</time></trkpt>
        <trkpt lat="28.701467" lon="105.091683"><ele>552.36804</ele><time>2026-07-22T00:28:05.000Z</time></trkpt>
        <trkpt lat="28.701468" lon="105.091683"><ele>551.224</ele><time>2026-07-22T00:28:07.000Z</time></trkpt>
        <trkpt lat="28.701497" lon="105.091692"><ele>551.7139</ele><time>2026-07-22T00:28:15.000Z</time></trkpt>
        <trkpt lat="28.701499" lon="105.091692"><ele>552.8434</ele><time>2026-07-22T00:28:17.000Z</time></trkpt>
        <trkpt lat="28.7015" lon="105.091689"><ele>552.16504</ele><time>2026-07-22T00:28:19.000Z</time></trkpt>
        <trkpt lat="28.701509" lon="105.091663"><ele>549.9149</ele><time>2026-07-22T00:28:27.000Z</time></trkpt>
        <trkpt lat="28.701451" lon="105.091712"><ele>547.7869</ele><time>2026-07-22T00:28:37.000Z</time></trkpt>
        <trkpt lat="28.70145" lon="105.091712"><ele>547.7732</ele><time>2026-07-22T00:28:39.000Z</time></trkpt>
        <trkpt lat="28.701386" lon="105.091726"><ele>547.7483</ele><time>2026-07-22T00:28:42.000Z</time></trkpt>
        <trkpt lat="28.701386" lon="105.091726"><ele>547.9002</ele><time>2026-07-22T00:28:44.000Z</time></trkpt>
        <trkpt lat="28.701383" lon="105.091726"><ele>548.21655</ele><time>2026-07-22T00:28:46.000Z</time></trkpt>
        <trkpt lat="28.701354" lon="105.091731"><ele>549.2916</ele><time>2026-07-22T00:28:50.000Z</time></trkpt>
        <trkpt lat="28.701333" lon="105.091733"><ele>549.19006</ele><time>2026-07-22T00:28:52.000Z</time></trkpt>
        <trkpt lat="28.701307" lon="105.091734"><ele>550.12854</ele><time>2026-07-22T00:28:54.000Z</time></trkpt>
        <trkpt lat="28.701282" lon="105.091734"><ele>549.70734</ele><time>2026-07-22T00:28:56.000Z</time></trkpt>
        <trkpt lat="28.701258" lon="105.09173"><ele>549.8344</ele><time>2026-07-22T00:28:58.000Z</time></trkpt>
        <trkpt lat="28.701237" lon="105.091725"><ele>551.42676</ele><time>2026-07-22T00:29:00.000Z</time></trkpt>
        <trkpt lat="28.701217" lon="105.09172"><ele>550.4896</ele><time>2026-07-22T00:29:02.000Z</time></trkpt>
        <trkpt lat="28.701198" lon="105.091717"><ele>549.75433</ele><time>2026-07-22T00:29:04.000Z</time></trkpt>
        <trkpt lat="28.701179" lon="105.091714"><ele>549.62494</ele><time>2026-07-22T00:29:06.000Z</time></trkpt>
        <trkpt lat="28.701162" lon="105.091713"><ele>548.93536</ele><time>2026-07-22T00:29:08.000Z</time></trkpt>
        <trkpt lat="28.701146" lon="105.091713"><ele>548.2499</ele><time>2026-07-22T00:29:10.000Z</time></trkpt>
        <trkpt lat="28.701128" lon="105.091713"><ele>548.50366</ele><time>2026-07-22T00:29:12.000Z</time></trkpt>
        <trkpt lat="28.701109" lon="105.091712"><ele>547.97644</ele><time>2026-07-22T00:29:13.000Z</time></trkpt>
        <trkpt lat="28.70109" lon="105.091711"><ele>547.41583</ele><time>2026-07-22T00:29:15.000Z</time></trkpt>
        <trkpt lat="28.701069" lon="105.091708"><ele>547.1633</ele><time>2026-07-22T00:29:17.000Z</time></trkpt>
        <trkpt lat="28.701041" lon="105.091704"><ele>546.4762</ele><time>2026-07-22T00:29:19.000Z</time></trkpt>
        <trkpt lat="28.701019" lon="105.091699"><ele>545.76495</ele><time>2026-07-22T00:29:21.000Z</time></trkpt>
        <trkpt lat="28.700995" lon="105.091693"><ele>546.1071</ele><time>2026-07-22T00:29:23.000Z</time></trkpt>
        <trkpt lat="28.700974" lon="105.091687"><ele>546.10364</ele><time>2026-07-22T00:29:25.000Z</time></trkpt>
        <trkpt lat="28.700953" lon="105.091679"><ele>546.3002</ele><time>2026-07-22T00:29:27.000Z</time></trkpt>
        <trkpt lat="28.700935" lon="105.09167"><ele>545.4611</ele><time>2026-07-22T00:29:29.000Z</time></trkpt>
        <trkpt lat="28.700921" lon="105.091661"><ele>544.75256</ele><time>2026-07-22T00:29:31.000Z</time></trkpt>
        <trkpt lat="28.700904" lon="105.09165"><ele>545.177</ele><time>2026-07-22T00:29:33.000Z</time></trkpt>
        <trkpt lat="28.700883" lon="105.091639"><ele>544.556</ele><time>2026-07-22T00:29:36.000Z</time></trkpt>
        <trkpt lat="28.700862" lon="105.09163"><ele>544.3166</ele><time>2026-07-22T00:29:38.000Z</time></trkpt>
        <trkpt lat="28.700843" lon="105.091624"><ele>542.21875</ele><time>2026-07-22T00:29:40.000Z</time></trkpt>
        <trkpt lat="28.700825" lon="105.091623"><ele>542.3</ele><time>2026-07-22T00:29:42.000Z</time></trkpt>
        <trkpt lat="28.700807" lon="105.091624"><ele>542.4631</ele><time>2026-07-22T00:29:44.000Z</time></trkpt>
        <trkpt lat="28.700788" lon="105.091625"><ele>542.6867</ele><time>2026-07-22T00:29:46.000Z</time></trkpt>
        <trkpt lat="28.70077" lon="105.091625"><ele>541.9637</ele><time>2026-07-22T00:29:48.000Z</time></trkpt>
        <trkpt lat="28.700753" lon="105.091624"><ele>541.181</ele><time>2026-07-22T00:29:50.000Z</time></trkpt>
        <trkpt lat="28.700739" lon="105.091623"><ele>540.734</ele><time>2026-07-22T00:29:52.000Z</time></trkpt>
        <trkpt lat="28.700725" lon="105.091621"><ele>540.8691</ele><time>2026-07-22T00:29:54.000Z</time></trkpt>
        <trkpt lat="28.700712" lon="105.09162"><ele>539.9247</ele><time>2026-07-22T00:29:56.000Z</time></trkpt>
        <trkpt lat="28.700695" lon="105.091619"><ele>540.3379</ele><time>2026-07-22T00:29:58.000Z</time></trkpt>
        <trkpt lat="28.700681" lon="105.09162"><ele>539.1295</ele><time>2026-07-22T00:30:00.000Z</time></trkpt>
        <trkpt lat="28.700667" lon="105.091622"><ele>538.4734</ele><time>2026-07-22T00:30:02.000Z</time></trkpt>
        <trkpt lat="28.700644" lon="105.091622"><ele>538.7226</ele><time>2026-07-22T00:30:04.000Z</time></trkpt>
        <trkpt lat="28.700626" lon="105.091618"><ele>538.29596</ele><time>2026-07-22T00:30:06.000Z</time></trkpt>
        <trkpt lat="28.700608" lon="105.091614"><ele>537.0272</ele><time>2026-07-22T00:30:08.000Z</time></trkpt>
        <trkpt lat="28.700586" lon="105.091608"><ele>536.0948</ele><time>2026-07-22T00:30:10.000Z</time></trkpt>
        <trkpt lat="28.700569" lon="105.091603"><ele>536.5756</ele><time>2026-07-22T00:30:12.000Z</time></trkpt>
        <trkpt lat="28.700557" lon="105.091599"><ele>536.31445</ele><time>2026-07-22T00:30:14.000Z</time></trkpt>
        <trkpt lat="28.700541" lon="105.091595"><ele>536.1763</ele><time>2026-07-22T00:30:16.000Z</time></trkpt>
        <trkpt lat="28.700524" lon="105.091592"><ele>536.3937</ele><time>2026-07-22T00:30:18.000Z</time></trkpt>
        <trkpt lat="28.700504" lon="105.091588"><ele>536.1719</ele><time>2026-07-22T00:30:20.000Z</time></trkpt>
        <trkpt lat="28.700479" lon="105.091582"><ele>535.6975</ele><time>2026-07-22T00:30:22.000Z</time></trkpt>
        <trkpt lat="28.700452" lon="105.091575"><ele>534.81866</ele><time>2026-07-22T00:30:24.000Z</time></trkpt>
        <trkpt lat="28.700424" lon="105.09157"><ele>534.43115</ele><time>2026-07-22T00:30:26.000Z</time></trkpt>
        <trkpt lat="28.700398" lon="105.091567"><ele>534.0049</ele><time>2026-07-22T00:30:28.000Z</time></trkpt>
        <trkpt lat="28.700376" lon="105.091568"><ele>533.46094</ele><time>2026-07-22T00:30:30.000Z</time></trkpt>
        <trkpt lat="28.700357" lon="105.091571"><ele>533.8542</ele><time>2026-07-22T00:30:32.000Z</time></trkpt>
        <trkpt lat="28.700338" lon="105.091575"><ele>533.4654</ele><time>2026-07-22T00:30:34.000Z</time></trkpt>
        <trkpt lat="28.700316" lon="105.09158"><ele>532.7271</ele><time>2026-07-22T00:30:36.000Z</time></trkpt>
        <trkpt lat="28.700294" lon="105.091586"><ele>533.1709</ele><time>2026-07-22T00:30:38.000Z</time></trkpt>
        <trkpt lat="28.70027" lon="105.091592"><ele>532.6082</ele><time>2026-07-22T00:30:40.000Z</time></trkpt>
        <trkpt lat="28.700248" lon="105.091596"><ele>532.5531</ele><time>2026-07-22T00:30:42.000Z</time></trkpt>
        <trkpt lat="28.700223" lon="105.091601"><ele>532.0349</ele><time>2026-07-22T00:30:44.000Z</time></trkpt>
        <trkpt lat="28.700195" lon="105.091604"><ele>532.3386</ele><time>2026-07-22T00:30:46.000Z</time></trkpt>
        <trkpt lat="28.700167" lon="105.091605"><ele>531.7817</ele><time>2026-07-22T00:30:48.000Z</time></trkpt>
        <trkpt lat="28.70014" lon="105.091605"><ele>532.4014</ele><time>2026-07-22T00:30:50.000Z</time></trkpt>
        <trkpt lat="28.700112" lon="105.091602"><ele>532.27826</ele><time>2026-07-22T00:30:52.000Z</time></trkpt>
        <trkpt lat="28.700085" lon="105.0916"><ele>531.9009</ele><time>2026-07-22T00:30:54.000Z</time></trkpt>
        <trkpt lat="28.700063" lon="105.0916"><ele>531.486</ele><time>2026-07-22T00:30:56.000Z</time></trkpt>
        <trkpt lat="28.700046" lon="105.091603"><ele>531.1807</ele><time>2026-07-22T00:30:58.000Z</time></trkpt>
        <trkpt lat="28.700031" lon="105.091609"><ele>531.2677</ele><time>2026-07-22T00:31:00.000Z</time></trkpt>
        <trkpt lat="28.700017" lon="105.091615"><ele>530.8533</ele><time>2026-07-22T00:31:02.000Z</time></trkpt>
        <trkpt lat="28.700003" lon="105.091619"><ele>530.3156</ele><time>2026-07-22T00:31:04.000Z</time></trkpt>
        <trkpt lat="28.699987" lon="105.091625"><ele>530.1195</ele><time>2026-07-22T00:31:06.000Z</time></trkpt>
        <trkpt lat="28.699971" lon="105.091634"><ele>529.5514</ele><time>2026-07-22T00:31:08.000Z</time></trkpt>
        <trkpt lat="28.699954" lon="105.091646"><ele>528.94354</ele><time>2026-07-22T00:31:10.000Z</time></trkpt>
        <trkpt lat="28.699937" lon="105.091662"><ele>529.2023</ele><time>2026-07-22T00:31:12.000Z</time></trkpt>
        <trkpt lat="28.69992" lon="105.091682"><ele>528.8804</ele><time>2026-07-22T00:31:14.000Z</time></trkpt>
        <trkpt lat="28.699903" lon="105.091703"><ele>529.2357</ele><time>2026-07-22T00:31:16.000Z</time></trkpt>
        <trkpt lat="28.699889" lon="105.091719"><ele>529.3316</ele><time>2026-07-22T00:31:18.000Z</time></trkpt>
        <trkpt lat="28.699875" lon="105.091735"><ele>530.6481</ele><time>2026-07-22T00:31:20.000Z</time></trkpt>
        <trkpt lat="28.699864" lon="105.091749"><ele>529.4193</ele><time>2026-07-22T00:31:22.000Z</time></trkpt>
        <trkpt lat="28.699854" lon="105.091763"><ele>528.9055</ele><time>2026-07-22T00:31:24.000Z</time></trkpt>
        <trkpt lat="28.699846" lon="105.091776"><ele>528.1646</ele><time>2026-07-22T00:31:26.000Z</time></trkpt>
        <trkpt lat="28.699839" lon="105.091788"><ele>527.5399</ele><time>2026-07-22T00:31:28.000Z</time></trkpt>
        <trkpt lat="28.699834" lon="105.091797"><ele>527.6361</ele><time>2026-07-22T00:31:30.000Z</time></trkpt>
        <trkpt lat="28.699829" lon="105.091807"><ele>527.6026</ele><time>2026-07-22T00:31:32.000Z</time></trkpt>
        <trkpt lat="28.699823" lon="105.091818"><ele>527.06256</ele><time>2026-07-22T00:31:34.000Z</time></trkpt>
        <trkpt lat="28.699817" lon="105.091826"><ele>526.66956</ele><time>2026-07-22T00:31:36.000Z</time></trkpt>
        <trkpt lat="28.699806" lon="105.091838"><ele>526.9588</ele><time>2026-07-22T00:31:38.000Z</time></trkpt>
        <trkpt lat="28.699795" lon="105.091846"><ele>526.84784</ele><time>2026-07-22T00:31:40.000Z</time></trkpt>
        <trkpt lat="28.699781" lon="105.091851"><ele>526.5764</ele><time>2026-07-22T00:31:42.000Z</time></trkpt>
        <trkpt lat="28.699765" lon="105.091858"><ele>525.5095</ele><time>2026-07-22T00:31:44.000Z</time></trkpt>
        <trkpt lat="28.699747" lon="105.091865"><ele>526.14856</ele><time>2026-07-22T00:31:46.000Z</time></trkpt>
        <trkpt lat="28.699729" lon="105.091872"><ele>525.6341</ele><time>2026-07-22T00:31:48.000Z</time></trkpt>
        <trkpt lat="28.699708" lon="105.091879"><ele>525.8128</ele><time>2026-07-22T00:31:50.000Z</time></trkpt>
        <trkpt lat="28.699686" lon="105.091886"><ele>525.28217</ele><time>2026-07-22T00:31:52.000Z</time></trkpt>
        <trkpt lat="28.699665" lon="105.091892"><ele>524.6319</ele><time>2026-07-22T00:31:54.000Z</time></trkpt>
        <trkpt lat="28.699643" lon="105.091897"><ele>524.9865</ele><time>2026-07-22T00:31:56.000Z</time></trkpt>
        <trkpt lat="28.69962" lon="105.091903"><ele>523.4099</ele><time>2026-07-22T00:31:58.000Z</time></trkpt>
        <trkpt lat="28.699598" lon="105.091909"><ele>522.6198</ele><time>2026-07-22T00:32:00.000Z</time></trkpt>
        <trkpt lat="28.699573" lon="105.091915"><ele>523.3506</ele><time>2026-07-22T00:32:02.000Z</time></trkpt>
        <trkpt lat="28.699553" lon="105.091921"><ele>522.7749</ele><time>2026-07-22T00:32:04.000Z</time></trkpt>
        <trkpt lat="28.699533" lon="105.091928"><ele>522.5586</ele><time>2026-07-22T00:32:06.000Z</time></trkpt>
        <trkpt lat="28.699518" lon="105.091932"><ele>521.75305</ele><time>2026-07-22T00:32:08.000Z</time></trkpt>
        <trkpt lat="28.699502" lon="105.091935"><ele>521.21375</ele><time>2026-07-22T00:32:10.000Z</time></trkpt>
        <trkpt lat="28.699487" lon="105.091938"><ele>520.7525</ele><time>2026-07-22T00:32:12.000Z</time></trkpt>
        <trkpt lat="28.699473" lon="105.091939"><ele>519.5498</ele><time>2026-07-22T00:32:14.000Z</time></trkpt>
        <trkpt lat="28.699456" lon="105.091941"><ele>519.0871</ele><time>2026-07-22T00:32:16.000Z</time></trkpt>
        <trkpt lat="28.69944" lon="105.091944"><ele>518.0819</ele><time>2026-07-22T00:32:18.000Z</time></trkpt>
        <trkpt lat="28.699423" lon="105.091947"><ele>518.4094</ele><time>2026-07-22T00:32:20.000Z</time></trkpt>
        <trkpt lat="28.699408" lon="105.09195"><ele>518.63904</ele><time>2026-07-22T00:32:22.000Z</time></trkpt>
        <trkpt lat="28.699395" lon="105.091955"><ele>518.0388</ele><time>2026-07-22T00:32:24.000Z</time></trkpt>
        <trkpt lat="28.699379" lon="105.091963"><ele>518.0768</ele><time>2026-07-22T00:32:26.000Z</time></trkpt>
        <trkpt lat="28.699363" lon="105.091972"><ele>517.7881</ele><time>2026-07-22T00:32:28.000Z</time></trkpt>
        <trkpt lat="28.699344" lon="105.091981"><ele>517.53094</ele><time>2026-07-22T00:32:30.000Z</time></trkpt>
        <trkpt lat="28.699324" lon="105.09199"><ele>517.6829</ele><time>2026-07-22T00:32:32.000Z</time></trkpt>
        <trkpt lat="28.699305" lon="105.091997"><ele>518.06244</ele><time>2026-07-22T00:32:34.000Z</time></trkpt>
        <trkpt lat="28.699283" lon="105.092003"><ele>517.4553</ele><time>2026-07-22T00:32:36.000Z</time></trkpt>
        <trkpt lat="28.699262" lon="105.092005"><ele>517.23676</ele><time>2026-07-22T00:32:38.000Z</time></trkpt>
        <trkpt lat="28.699243" lon="105.092002"><ele>517.0106</ele><time>2026-07-22T00:32:40.000Z</time></trkpt>
        <trkpt lat="28.699225" lon="105.091996"><ele>516.8148</ele><time>2026-07-22T00:32:42.000Z</time></trkpt>
        <trkpt lat="28.699204" lon="105.091986"><ele>516.33167</ele><time>2026-07-22T00:32:44.000Z</time></trkpt>
        <trkpt lat="28.699185" lon="105.091974"><ele>516.0581</ele><time>2026-07-22T00:32:46.000Z</time></trkpt>
        <trkpt lat="28.699165" lon="105.091961"><ele>515.48486</ele><time>2026-07-22T00:32:48.000Z</time></trkpt>
        <trkpt lat="28.699143" lon="105.091949"><ele>514.9564</ele><time>2026-07-22T00:32:50.000Z</time></trkpt>
        <trkpt lat="28.699122" lon="105.091941"><ele>514.6403</ele><time>2026-07-22T00:32:52.000Z</time></trkpt>
        <trkpt lat="28.699101" lon="105.091933"><ele>514.16205</ele><time>2026-07-22T00:32:54.000Z</time></trkpt>
        <trkpt lat="28.69908" lon="105.091924"><ele>513.533</ele><time>2026-07-22T00:32:56.000Z</time></trkpt>
        <trkpt lat="28.699058" lon="105.091915"><ele>514.12067</ele><time>2026-07-22T00:32:58.000Z</time></trkpt>
        <trkpt lat="28.699041" lon="105.091912"><ele>514.06165</ele><time>2026-07-22T00:33:00.000Z</time></trkpt>
        <trkpt lat="28.699027" lon="105.09191"><ele>513.75854</ele><time>2026-07-22T00:33:02.000Z</time></trkpt>
        <trkpt lat="28.699011" lon="105.091908"><ele>513.7466</ele><time>2026-07-22T00:33:04.000Z</time></trkpt>
        <trkpt lat="28.698997" lon="105.091906"><ele>513.0573</ele><time>2026-07-22T00:33:06.000Z</time></trkpt>
        <trkpt lat="28.698992" lon="105.091906"><ele>513.0533</ele><time>2026-07-22T00:33:08.000Z</time></trkpt>
        <trkpt lat="28.698981" lon="105.091906"><ele>512.4443</ele><time>2026-07-22T00:33:10.000Z</time></trkpt>
        <trkpt lat="28.698967" lon="105.091906"><ele>512.9209</ele><time>2026-07-22T00:33:12.000Z</time></trkpt>
        <trkpt lat="28.698952" lon="105.091903"><ele>512.61194</ele><time>2026-07-22T00:33:14.000Z</time></trkpt>
        <trkpt lat="28.69893" lon="105.091896"><ele>511.81946</ele><time>2026-07-22T00:33:16.000Z</time></trkpt>
        <trkpt lat="28.698904" lon="105.091887"><ele>511.3819</ele><time>2026-07-22T00:33:18.000Z</time></trkpt>
        <trkpt lat="28.698876" lon="105.09188"><ele>511.30093</ele><time>2026-07-22T00:33:20.000Z</time></trkpt>
        <trkpt lat="28.698851" lon="105.091877"><ele>510.84085</ele><time>2026-07-22T00:33:22.000Z</time></trkpt>
        <trkpt lat="28.698826" lon="105.091874"><ele>510.77225</ele><time>2026-07-22T00:33:24.000Z</time></trkpt>
        <trkpt lat="28.698801" lon="105.091873"><ele>509.87152</ele><time>2026-07-22T00:33:26.000Z</time></trkpt>
        <trkpt lat="28.698773" lon="105.09187"><ele>509.6814</ele><time>2026-07-22T00:33:28.000Z</time></trkpt>
        <trkpt lat="28.698744" lon="105.091867"><ele>509.15933</ele><time>2026-07-22T00:33:30.000Z</time></trkpt>
        <trkpt lat="28.698715" lon="105.091862"><ele>510.15546</ele><time>2026-07-22T00:33:32.000Z</time></trkpt>
        <trkpt lat="28.698686" lon="105.091859"><ele>510.08835</ele><time>2026-07-22T00:33:34.000Z</time></trkpt>
        <trkpt lat="28.698658" lon="105.091859"><ele>509.811</ele><time>2026-07-22T00:33:36.000Z</time></trkpt>
        <trkpt lat="28.698631" lon="105.09186"><ele>509.307</ele><time>2026-07-22T00:33:38.000Z</time></trkpt>
        <trkpt lat="28.698606" lon="105.09186"><ele>508.67996</ele><time>2026-07-22T00:33:40.000Z</time></trkpt>
        <trkpt lat="28.698582" lon="105.09186"><ele>508.44345</ele><time>2026-07-22T00:33:42.000Z</time></trkpt>
        <trkpt lat="28.698559" lon="105.091862"><ele>507.91437</ele><time>2026-07-22T00:33:44.000Z</time></trkpt>
        <trkpt lat="28.698535" lon="105.091866"><ele>507.6742</ele><time>2026-07-22T00:33:46.000Z</time></trkpt>
        <trkpt lat="28.698512" lon="105.091868"><ele>507.28583</ele><time>2026-07-22T00:33:48.000Z</time></trkpt>
        <trkpt lat="28.698492" lon="105.09187"><ele>506.36734</ele><time>2026-07-22T00:33:50.000Z</time></trkpt>
        <trkpt lat="28.698472" lon="105.091874"><ele>506.32285</ele><time>2026-07-22T00:33:52.000Z</time></trkpt>
        <trkpt lat="28.698448" lon="105.091877"><ele>506.15692</ele><time>2026-07-22T00:33:54.000Z</time></trkpt>
        <trkpt lat="28.698421" lon="105.091876"><ele>506.44928</ele><time>2026-07-22T00:33:56.000Z</time></trkpt>
        <trkpt lat="28.698394" lon="105.091873"><ele>505.57404</ele><time>2026-07-22T00:33:58.000Z</time></trkpt>
        <trkpt lat="28.698366" lon="105.091871"><ele>505.13275</ele><time>2026-07-22T00:34:00.000Z</time></trkpt>
        <trkpt lat="28.698339" lon="105.091869"><ele>504.40247</ele><time>2026-07-22T00:34:02.000Z</time></trkpt>
        <trkpt lat="28.698315" lon="105.091866"><ele>503.39203</ele><time>2026-07-22T00:34:04.000Z</time></trkpt>
        <trkpt lat="28.698291" lon="105.091868"><ele>504.01044</ele><time>2026-07-22T00:34:06.000Z</time></trkpt>
        <trkpt lat="28.69827" lon="105.091871"><ele>503.98334</ele><time>2026-07-22T00:34:08.000Z</time></trkpt>
        <trkpt lat="28.698253" lon="105.091872"><ele>503.47806</ele><time>2026-07-22T00:34:10.000Z</time></trkpt>
        <trkpt lat="28.698238" lon="105.091872"><ele>503.36243</ele><time>2026-07-22T00:34:12.000Z</time></trkpt>
        <trkpt lat="28.698224" lon="105.09187"><ele>502.27356</ele><time>2026-07-22T00:34:14.000Z</time></trkpt>
        <trkpt lat="28.698207" lon="105.091867"><ele>501.9891</ele><time>2026-07-22T00:34:16.000Z</time></trkpt>
        <trkpt lat="28.698191" lon="105.091865"><ele>501.87158</ele><time>2026-07-22T00:34:18.000Z</time></trkpt>
        <trkpt lat="28.698174" lon="105.091862"><ele>501.149</ele><time>2026-07-22T00:34:20.000Z</time></trkpt>
        <trkpt lat="28.698156" lon="105.091862"><ele>500.31918</ele><time>2026-07-22T00:34:22.000Z</time></trkpt>
        <trkpt lat="28.698139" lon="105.091861"><ele>499.63232</ele><time>2026-07-22T00:34:24.000Z</time></trkpt>
        <trkpt lat="28.698121" lon="105.091857"><ele>499.43115</ele><time>2026-07-22T00:34:26.000Z</time></trkpt>
        <trkpt lat="28.698098" lon="105.09185"><ele>498.39178</ele><time>2026-07-22T00:34:28.000Z</time></trkpt>
        <trkpt lat="28.698074" lon="105.091841"><ele>498.29962</ele><time>2026-07-22T00:34:30.000Z</time></trkpt>
        <trkpt lat="28.698052" lon="105.091832"><ele>497.59384</ele><time>2026-07-22T00:34:32.000Z</time></trkpt>
        <trkpt lat="28.698028" lon="105.091824"><ele>497.19965</ele><time>2026-07-22T00:34:34.000Z</time></trkpt>
        <trkpt lat="28.698003" lon="105.091816"><ele>497.61615</ele><time>2026-07-22T00:34:36.000Z</time></trkpt>
        <trkpt lat="28.697979" lon="105.091808"><ele>496.737</ele><time>2026-07-22T00:34:38.000Z</time></trkpt>
        <trkpt lat="28.697952" lon="105.0918"><ele>496.81104</ele><time>2026-07-22T00:34:40.000Z</time></trkpt>
        <trkpt lat="28.697927" lon="105.091793"><ele>496.8423</ele><time>2026-07-22T00:34:42.000Z</time></trkpt>
        <trkpt lat="28.697904" lon="105.091788"><ele>496.3062</ele><time>2026-07-22T00:34:44.000Z</time></trkpt>
        <trkpt lat="28.697881" lon="105.091783"><ele>495.9373</ele><time>2026-07-22T00:34:46.000Z</time></trkpt>
        <trkpt lat="28.697859" lon="105.091779"><ele>495.6254</ele><time>2026-07-22T00:34:48.000Z</time></trkpt>
        <trkpt lat="28.697838" lon="105.091774"><ele>495.94424</ele><time>2026-07-22T00:34:50.000Z</time></trkpt>
        <trkpt lat="28.697816" lon="105.09177"><ele>495.13495</ele><time>2026-07-22T00:34:52.000Z</time></trkpt>
        <trkpt lat="28.697794" lon="105.091767"><ele>494.98126</ele><time>2026-07-22T00:34:54.000Z</time></trkpt>
        <trkpt lat="28.697769" lon="105.091763"><ele>494.55096</ele><time>2026-07-22T00:34:56.000Z</time></trkpt>
        <trkpt lat="28.697746" lon="105.091761"><ele>493.85538</ele><time>2026-07-22T00:34:58.000Z</time></trkpt>
        <trkpt lat="28.697721" lon="105.091758"><ele>493.97507</ele><time>2026-07-22T00:35:00.000Z</time></trkpt>
        <trkpt lat="28.697699" lon="105.091755"><ele>493.05426</ele><time>2026-07-22T00:35:02.000Z</time></trkpt>
        <trkpt lat="28.697675" lon="105.091752"><ele>492.91092</ele><time>2026-07-22T00:35:04.000Z</time></trkpt>
        <trkpt lat="28.697651" lon="105.091748"><ele>491.97885</ele><time>2026-07-22T00:35:06.000Z</time></trkpt>
        <trkpt lat="28.697627" lon="105.091744"><ele>492.08533</ele><time>2026-07-22T00:35:08.000Z</time></trkpt>
        <trkpt lat="28.697601" lon="105.091739"><ele>492.6526</ele><time>2026-07-22T00:35:10.000Z</time></trkpt>
        <trkpt lat="28.697573" lon="105.091733"><ele>491.94308</ele><time>2026-07-22T00:35:12.000Z</time></trkpt>
        <trkpt lat="28.697545" lon="105.091727"><ele>491.92178</ele><time>2026-07-22T00:35:14.000Z</time></trkpt>
        <trkpt lat="28.697515" lon="105.09172"><ele>491.68845</ele><time>2026-07-22T00:35:16.000Z</time></trkpt>
        <trkpt lat="28.697485" lon="105.091714"><ele>491.1043</ele><time>2026-07-22T00:35:18.000Z</time></trkpt>
        <trkpt lat="28.697456" lon="105.091708"><ele>490.9372</ele><time>2026-07-22T00:35:20.000Z</time></trkpt>
        <trkpt lat="28.69743" lon="105.091699"><ele>490.68723</ele><time>2026-07-22T00:35:22.000Z</time></trkpt>
        <trkpt lat="28.697407" lon="105.09169"><ele>490.1871</ele><time>2026-07-22T00:35:24.000Z</time></trkpt>
        <trkpt lat="28.697384" lon="105.09168"><ele>490.4234</ele><time>2026-07-22T00:35:26.000Z</time></trkpt>
        <trkpt lat="28.697363" lon="105.09167"><ele>491.0539</ele><time>2026-07-22T00:35:28.000Z</time></trkpt>
        <trkpt lat="28.697345" lon="105.091661"><ele>491.04184</ele><time>2026-07-22T00:35:30.000Z</time></trkpt>
        <trkpt lat="28.697326" lon="105.091652"><ele>490.59613</ele><time>2026-07-22T00:35:32.000Z</time></trkpt>
        <trkpt lat="28.697306" lon="105.091642"><ele>490.79175</ele><time>2026-07-22T00:35:34.000Z</time></trkpt>
        <trkpt lat="28.697286" lon="105.091632"><ele>490.69757</ele><time>2026-07-22T00:35:36.000Z</time></trkpt>
        <trkpt lat="28.697265" lon="105.091623"><ele>489.90622</ele><time>2026-07-22T00:35:38.000Z</time></trkpt>
        <trkpt lat="28.697241" lon="105.091614"><ele>490.4449</ele><time>2026-07-22T00:35:40.000Z</time></trkpt>
        <trkpt lat="28.697216" lon="105.091605"><ele>490.08975</ele><time>2026-07-22T00:35:42.000Z</time></trkpt>
        <trkpt lat="28.697189" lon="105.091598"><ele>489.76923</ele><time>2026-07-22T00:35:44.000Z</time></trkpt>
        <trkpt lat="28.697161" lon="105.091591"><ele>489.55978</ele><time>2026-07-22T00:35:46.000Z</time></trkpt>
        <trkpt lat="28.697134" lon="105.091584"><ele>489.30896</ele><time>2026-07-22T00:35:48.000Z</time></trkpt>
        <trkpt lat="28.697108" lon="105.091579"><ele>489.2416</ele><time>2026-07-22T00:35:50.000Z</time></trkpt>
        <trkpt lat="28.697083" lon="105.091577"><ele>489.43768</ele><time>2026-07-22T00:35:52.000Z</time></trkpt>
        <trkpt lat="28.697063" lon="105.091578"><ele>489.01575</ele><time>2026-07-22T00:35:54.000Z</time></trkpt>
        <trkpt lat="28.697046" lon="105.091582"><ele>488.53656</ele><time>2026-07-22T00:35:56.000Z</time></trkpt>
        <trkpt lat="28.697029" lon="105.091587"><ele>488.75955</ele><time>2026-07-22T00:35:58.000Z</time></trkpt>
        <trkpt lat="28.697009" lon="105.091593"><ele>487.96866</ele><time>2026-07-22T00:36:00.000Z</time></trkpt>
        <trkpt lat="28.696986" lon="105.0916"><ele>487.21384</ele><time>2026-07-22T00:36:02.000Z</time></trkpt>
        <trkpt lat="28.696962" lon="105.091608"><ele>486.91144</ele><time>2026-07-22T00:36:04.000Z</time></trkpt>
        <trkpt lat="28.696937" lon="105.091617"><ele>486.7624</ele><time>2026-07-22T00:36:06.000Z</time></trkpt>
        <trkpt lat="28.696911" lon="105.091625"><ele>486.91266</ele><time>2026-07-22T00:36:08.000Z</time></trkpt>
        <trkpt lat="28.696885" lon="105.09163"><ele>486.7255</ele><time>2026-07-22T00:36:10.000Z</time></trkpt>
        <trkpt lat="28.696863" lon="105.091633"><ele>486.31473</ele><time>2026-07-22T00:36:12.000Z</time></trkpt>
        <trkpt lat="28.696844" lon="105.091635"><ele>486.3964</ele><time>2026-07-22T00:36:14.000Z</time></trkpt>
        <trkpt lat="28.696824" lon="105.091637"><ele>486.16364</ele><time>2026-07-22T00:36:16.000Z</time></trkpt>
        <trkpt lat="28.696806" lon="105.091639"><ele>485.60123</ele><time>2026-07-22T00:36:18.000Z</time></trkpt>
        <trkpt lat="28.696788" lon="105.09164"><ele>485.04694</ele><time>2026-07-22T00:36:20.000Z</time></trkpt>
        <trkpt lat="28.69677" lon="105.09164"><ele>484.73898</ele><time>2026-07-22T00:36:22.000Z</time></trkpt>
        <trkpt lat="28.696749" lon="105.09164"><ele>484.4567</ele><time>2026-07-22T00:36:24.000Z</time></trkpt>
        <trkpt lat="28.696726" lon="105.091638"><ele>484.74402</ele><time>2026-07-22T00:36:26.000Z</time></trkpt>
        <trkpt lat="28.6967" lon="105.091636"><ele>484.4996</ele><time>2026-07-22T00:36:28.000Z</time></trkpt>
        <trkpt lat="28.696675" lon="105.091634"><ele>484.35327</ele><time>2026-07-22T00:36:30.000Z</time></trkpt>
        <trkpt lat="28.696651" lon="105.091634"><ele>484.19736</ele><time>2026-07-22T00:36:32.000Z</time></trkpt>
        <trkpt lat="28.696634" lon="105.091635"><ele>483.49823</ele><time>2026-07-22T00:36:34.000Z</time></trkpt>
        <trkpt lat="28.696626" lon="105.091637"><ele>483.70004</ele><time>2026-07-22T00:36:36.000Z</time></trkpt>
        <trkpt lat="28.696626" lon="105.091639"><ele>483.8138</ele><time>2026-07-22T00:36:38.000Z</time></trkpt>
        <trkpt lat="28.696622" lon="105.091664"><ele>482.68512</ele><time>2026-07-22T00:37:08.000Z</time></trkpt>
        <trkpt lat="28.696622" lon="105.091664"><ele>482.63126</ele><time>2026-07-22T00:37:10.000Z</time></trkpt>
        <trkpt lat="28.69662" lon="105.091665"><ele>482.76993</ele><time>2026-07-22T00:37:12.000Z</time></trkpt>
        <trkpt lat="28.696593" lon="105.091675"><ele>482.9498</ele><time>2026-07-22T00:37:16.000Z</time></trkpt>
        <trkpt lat="28.696574" lon="105.091682"><ele>482.50308</ele><time>2026-07-22T00:37:18.000Z</time></trkpt>
        <trkpt lat="28.696557" lon="105.091687"><ele>482.58954</ele><time>2026-07-22T00:37:20.000Z</time></trkpt>
        <trkpt lat="28.696547" lon="105.091688"><ele>482.2784</ele><time>2026-07-22T00:37:22.000Z</time></trkpt>
        <trkpt lat="28.696547" lon="105.091688"><ele>481.61765</ele><time>2026-07-22T00:37:24.000Z</time></trkpt>
        <trkpt lat="28.696541" lon="105.091664"><ele>481.98697</ele><time>2026-07-22T00:37:50.000Z</time></trkpt>
        <trkpt lat="28.696535" lon="105.091662"><ele>482.17624</ele><time>2026-07-22T00:38:06.000Z</time></trkpt>
        <trkpt lat="28.696526" lon="105.091663"><ele>481.87106</ele><time>2026-07-22T00:38:10.000Z</time></trkpt>
        <trkpt lat="28.696509" lon="105.091664"><ele>481.4884</ele><time>2026-07-22T00:38:12.000Z</time></trkpt>
        <trkpt lat="28.696508" lon="105.091665"><ele>481.4038</ele><time>2026-07-22T00:38:14.000Z</time></trkpt>
        <trkpt lat="28.696495" lon="105.091668"><ele>481.25125</ele><time>2026-07-22T00:38:18.000Z</time></trkpt>
        <trkpt lat="28.696474" lon="105.091673"><ele>481.80807</ele><time>2026-07-22T00:38:20.000Z</time></trkpt>
        <trkpt lat="28.696449" lon="105.091678"><ele>481.29227</ele><time>2026-07-22T00:38:22.000Z</time></trkpt>
        <trkpt lat="28.696425" lon="105.091682"><ele>481.36365</ele><time>2026-07-22T00:38:24.000Z</time></trkpt>
        <trkpt lat="28.696401" lon="105.091686"><ele>481.37982</ele><time>2026-07-22T00:38:26.000Z</time></trkpt>
        <trkpt lat="28.696379" lon="105.091689"><ele>481.28873</ele><time>2026-07-22T00:38:28.000Z</time></trkpt>
        <trkpt lat="28.69636" lon="105.091696"><ele>481.1596</ele><time>2026-07-22T00:38:30.000Z</time></trkpt>
        <trkpt lat="28.696338" lon="105.091703"><ele>481.5973</ele><time>2026-07-22T00:38:32.000Z</time></trkpt>
        <trkpt lat="28.696318" lon="105.091708"><ele>480.43228</ele><time>2026-07-22T00:38:34.000Z</time></trkpt>
        <trkpt lat="28.696299" lon="105.09171"><ele>480.2767</ele><time>2026-07-22T00:38:36.000Z</time></trkpt>
        <trkpt lat="28.696279" lon="105.091711"><ele>479.90952</ele><time>2026-07-22T00:38:38.000Z</time></trkpt>
        <trkpt lat="28.69626" lon="105.091711"><ele>479.16296</ele><time>2026-07-22T00:38:40.000Z</time></trkpt>
        <trkpt lat="28.696242" lon="105.091709"><ele>479.0294</ele><time>2026-07-22T00:38:42.000Z</time></trkpt>
        <trkpt lat="28.696224" lon="105.091707"><ele>478.78903</ele><time>2026-07-22T00:38:44.000Z</time></trkpt>
        <trkpt lat="28.696207" lon="105.091704"><ele>478.5954</ele><time>2026-07-22T00:38:46.000Z</time></trkpt>
        <trkpt lat="28.69619" lon="105.091699"><ele>478.08453</ele><time>2026-07-22T00:38:48.000Z</time></trkpt>
        <trkpt lat="28.696172" lon="105.091693"><ele>477.9724</ele><time>2026-07-22T00:38:50.000Z</time></trkpt>
        <trkpt lat="28.696154" lon="105.091688"><ele>477.82867</ele><time>2026-07-22T00:38:52.000Z</time></trkpt>
        <trkpt lat="28.696137" lon="105.091684"><ele>477.6425</ele><time>2026-07-22T00:38:54.000Z</time></trkpt>
        <trkpt lat="28.696119" lon="105.091679"><ele>477.39688</ele><time>2026-07-22T00:38:56.000Z</time></trkpt>
        <trkpt lat="28.696101" lon="105.091675"><ele>476.76712</ele><time>2026-07-22T00:38:58.000Z</time></trkpt>
        <trkpt lat="28.696085" lon="105.091673"><ele>476.61813</ele><time>2026-07-22T00:39:00.000Z</time></trkpt>
        <trkpt lat="28.696067" lon="105.091672"><ele>477.02246</ele><time>2026-07-22T00:39:02.000Z</time></trkpt>
        <trkpt lat="28.696051" lon="105.091668"><ele>476.41553</ele><time>2026-07-22T00:39:04.000Z</time></trkpt>
        <trkpt lat="28.696032" lon="105.091661"><ele>476.5533</ele><time>2026-07-22T00:39:06.000Z</time></trkpt>
        <trkpt lat="28.696012" lon="105.091652"><ele>476.83713</ele><time>2026-07-22T00:39:08.000Z</time></trkpt>
        <trkpt lat="28.695993" lon="105.091643"><ele>475.6595</ele><time>2026-07-22T00:39:10.000Z</time></trkpt>
        <trkpt lat="28.695973" lon="105.091632"><ele>475.6874</ele><time>2026-07-22T00:39:12.000Z</time></trkpt>
        <trkpt lat="28.695953" lon="105.091624"><ele>475.8035</ele><time>2026-07-22T00:39:14.000Z</time></trkpt>
        <trkpt lat="28.695932" lon="105.091616"><ele>475.06714</ele><time>2026-07-22T00:39:16.000Z</time></trkpt>
        <trkpt lat="28.695911" lon="105.091609"><ele>474.92776</ele><time>2026-07-22T00:39:18.000Z</time></trkpt>
        <trkpt lat="28.69589" lon="105.091603"><ele>475.565</ele><time>2026-07-22T00:39:20.000Z</time></trkpt>
        <trkpt lat="28.695871" lon="105.0916"><ele>475.3183</ele><time>2026-07-22T00:39:22.000Z</time></trkpt>
        <trkpt lat="28.695854" lon="105.091594"><ele>475.2738</ele><time>2026-07-22T00:39:24.000Z</time></trkpt>
        <trkpt lat="28.695837" lon="105.091588"><ele>474.68073</ele><time>2026-07-22T00:39:26.000Z</time></trkpt>
        <trkpt lat="28.695822" lon="105.091583"><ele>474.37683</ele><time>2026-07-22T00:39:28.000Z</time></trkpt>
        <trkpt lat="28.695806" lon="105.091578"><ele>474.3795</ele><time>2026-07-22T00:39:30.000Z</time></trkpt>
        <trkpt lat="28.695787" lon="105.091572"><ele>474.40204</ele><time>2026-07-22T00:39:32.000Z</time></trkpt>
        <trkpt lat="28.695769" lon="105.091565"><ele>474.12256</ele><time>2026-07-22T00:39:34.000Z</time></trkpt>
        <trkpt lat="28.695748" lon="105.091558"><ele>473.78732</ele><time>2026-07-22T00:39:36.000Z</time></trkpt>
        <trkpt lat="28.69573" lon="105.091553"><ele>473.3331</ele><time>2026-07-22T00:39:38.000Z</time></trkpt>
        <trkpt lat="28.695712" lon="105.091547"><ele>473.05246</ele><time>2026-07-22T00:39:40.000Z</time></trkpt>
        <trkpt lat="28.695692" lon="105.09154"><ele>473.20615</ele><time>2026-07-22T00:39:42.000Z</time></trkpt>
        <trkpt lat="28.695675" lon="105.091533"><ele>472.55515</ele><time>2026-07-22T00:39:44.000Z</time></trkpt>
        <trkpt lat="28.695658" lon="105.091526"><ele>472.08655</ele><time>2026-07-22T00:39:46.000Z</time></trkpt>
        <trkpt lat="28.695639" lon="105.091519"><ele>471.90216</ele><time>2026-07-22T00:39:48.000Z</time></trkpt>
        <trkpt lat="28.69562" lon="105.091512"><ele>471.77814</ele><time>2026-07-22T00:39:50.000Z</time></trkpt>
        <trkpt lat="28.6956" lon="105.091505"><ele>471.57394</ele><time>2026-07-22T00:39:52.000Z</time></trkpt>
        <trkpt lat="28.695581" lon="105.091501"><ele>470.9239</ele><time>2026-07-22T00:39:54.000Z</time></trkpt>
        <trkpt lat="28.695562" lon="105.091498"><ele>470.68933</ele><time>2026-07-22T00:39:56.000Z</time></trkpt>
        <trkpt lat="28.695543" lon="105.091498"><ele>470.82455</ele><time>2026-07-22T00:39:58.000Z</time></trkpt>
        <trkpt lat="28.695523" lon="105.091497"><ele>469.8675</ele><time>2026-07-22T00:40:00.000Z</time></trkpt>
        <trkpt lat="28.695503" lon="105.091498"><ele>469.47675</ele><time>2026-07-22T00:40:02.000Z</time></trkpt>
        <trkpt lat="28.695482" lon="105.091499"><ele>470.24002</ele><time>2026-07-22T00:40:04.000Z</time></trkpt>
        <trkpt lat="28.695462" lon="105.091499"><ele>470.1157</ele><time>2026-07-22T00:40:06.000Z</time></trkpt>
        <trkpt lat="28.69544" lon="105.091499"><ele>469.68</ele><time>2026-07-22T00:40:08.000Z</time></trkpt>
        <trkpt lat="28.695419" lon="105.0915"><ele>469.17688</ele><time>2026-07-22T00:40:10.000Z</time></trkpt>
        <trkpt lat="28.6954" lon="105.091502"><ele>468.3553</ele><time>2026-07-22T00:40:12.000Z</time></trkpt>
        <trkpt lat="28.695382" lon="105.091507"><ele>467.81372</ele><time>2026-07-22T00:40:14.000Z</time></trkpt>
        <trkpt lat="28.695362" lon="105.091512"><ele>467.5059</ele><time>2026-07-22T00:40:16.000Z</time></trkpt>
        <trkpt lat="28.695339" lon="105.091519"><ele>467.70917</ele><time>2026-07-22T00:40:18.000Z</time></trkpt>
        <trkpt lat="28.695316" lon="105.091525"><ele>466.72308</ele><time>2026-07-22T00:40:20.000Z</time></trkpt>
        <trkpt lat="28.695294" lon="105.091531"><ele>466.46576</ele><time>2026-07-22T00:40:22.000Z</time></trkpt>
        <trkpt lat="28.695273" lon="105.091537"><ele>466.3933</ele><time>2026-07-22T00:40:24.000Z</time></trkpt>
        <trkpt lat="28.695251" lon="105.091543"><ele>466.0866</ele><time>2026-07-22T00:40:26.000Z</time></trkpt>
        <trkpt lat="28.695229" lon="105.091549"><ele>465.41034</ele><time>2026-07-22T00:40:28.000Z</time></trkpt>
        <trkpt lat="28.695208" lon="105.091557"><ele>464.73645</ele><time>2026-07-22T00:40:30.000Z</time></trkpt>
        <trkpt lat="28.695187" lon="105.091565"><ele>465.17944</ele><time>2026-07-22T00:40:32.000Z</time></trkpt>
        <trkpt lat="28.695165" lon="105.09157"><ele>464.80896</ele><time>2026-07-22T00:40:34.000Z</time></trkpt>
        <trkpt lat="28.695143" lon="105.091574"><ele>464.29965</ele><time>2026-07-22T00:40:36.000Z</time></trkpt>
        <trkpt lat="28.695122" lon="105.091579"><ele>463.4898</ele><time>2026-07-22T00:40:38.000Z</time></trkpt>
        <trkpt lat="28.695103" lon="105.091585"><ele>463.49734</ele><time>2026-07-22T00:40:40.000Z</time></trkpt>
        <trkpt lat="28.695082" lon="105.091593"><ele>462.62823</ele><time>2026-07-22T00:40:42.000Z</time></trkpt>
        <trkpt lat="28.695061" lon="105.091601"><ele>461.88718</ele><time>2026-07-22T00:40:44.000Z</time></trkpt>
        <trkpt lat="28.695041" lon="105.091609"><ele>461.85275</ele><time>2026-07-22T00:40:46.000Z</time></trkpt>
        <trkpt lat="28.69502" lon="105.091617"><ele>461.2113</ele><time>2026-07-22T00:40:48.000Z</time></trkpt>
        <trkpt lat="28.695" lon="105.091625"><ele>461.26944</ele><time>2026-07-22T00:40:50.000Z</time></trkpt>
        <trkpt lat="28.694979" lon="105.091632"><ele>461.09183</ele><time>2026-07-22T00:40:52.000Z</time></trkpt>
        <trkpt lat="28.694959" lon="105.09164"><ele>461.3798</ele><time>2026-07-22T00:40:54.000Z</time></trkpt>
        <trkpt lat="28.69494" lon="105.091646"><ele>460.50613</ele><time>2026-07-22T00:40:56.000Z</time></trkpt>
        <trkpt lat="28.694922" lon="105.091651"><ele>460.31503</ele><time>2026-07-22T00:40:58.000Z</time></trkpt>
        <trkpt lat="28.694903" lon="105.091657"><ele>460.38593</ele><time>2026-07-22T00:41:00.000Z</time></trkpt>
        <trkpt lat="28.694886" lon="105.091662"><ele>460.20154</ele><time>2026-07-22T00:41:02.000Z</time></trkpt>
        <trkpt lat="28.694867" lon="105.091672"><ele>460.3042</ele><time>2026-07-22T00:41:04.000Z</time></trkpt>
        <trkpt lat="28.694848" lon="105.091682"><ele>461.11026</ele><time>2026-07-22T00:41:06.000Z</time></trkpt>
        <trkpt lat="28.694832" lon="105.091691"><ele>459.7283</ele><time>2026-07-22T00:41:08.000Z</time></trkpt>
        <trkpt lat="28.694814" lon="105.091698"><ele>459.14032</ele><time>2026-07-22T00:41:10.000Z</time></trkpt>
        <trkpt lat="28.694796" lon="105.091703"><ele>458.30072</ele><time>2026-07-22T00:41:12.000Z</time></trkpt>
        <trkpt lat="28.694777" lon="105.091708"><ele>458.3331</ele><time>2026-07-22T00:41:14.000Z</time></trkpt>
        <trkpt lat="28.694757" lon="105.091715"><ele>457.71564</ele><time>2026-07-22T00:41:16.000Z</time></trkpt>
        <trkpt lat="28.694738" lon="105.091721"><ele>457.18982</ele><time>2026-07-22T00:41:18.000Z</time></trkpt>
        <trkpt lat="28.694716" lon="105.091729"><ele>456.8158</ele><time>2026-07-22T00:41:20.000Z</time></trkpt>
        <trkpt lat="28.694693" lon="105.091737"><ele>456.8377</ele><time>2026-07-22T00:41:22.000Z</time></trkpt>
        <trkpt lat="28.694669" lon="105.091748"><ele>456.8372</ele><time>2026-07-22T00:41:24.000Z</time></trkpt>
        <trkpt lat="28.694646" lon="105.09176"><ele>456.5796</ele><time>2026-07-22T00:41:26.000Z</time></trkpt>
        <trkpt lat="28.694627" lon="105.091774"><ele>455.8984</ele><time>2026-07-22T00:41:28.000Z</time></trkpt>
        <trkpt lat="28.694609" lon="105.091789"><ele>455.43228</ele><time>2026-07-22T00:41:30.000Z</time></trkpt>
        <trkpt lat="28.694592" lon="105.091804"><ele>455.0115</ele><time>2026-07-22T00:41:32.000Z</time></trkpt>
        <trkpt lat="28.694574" lon="105.091819"><ele>455.37503</ele><time>2026-07-22T00:41:34.000Z</time></trkpt>
        <trkpt lat="28.694556" lon="105.091833"><ele>455.19482</ele><time>2026-07-22T00:41:36.000Z</time></trkpt>
        <trkpt lat="28.694536" lon="105.091847"><ele>454.74503</ele><time>2026-07-22T00:41:38.000Z</time></trkpt>
        <trkpt lat="28.694517" lon="105.091859"><ele>455.0642</ele><time>2026-07-22T00:41:40.000Z</time></trkpt>
        <trkpt lat="28.694499" lon="105.091868"><ele>454.02728</ele><time>2026-07-22T00:41:42.000Z</time></trkpt>
        <trkpt lat="28.694478" lon="105.091877"><ele>454.1427</ele><time>2026-07-22T00:41:44.000Z</time></trkpt>
        <trkpt lat="28.694457" lon="105.091885"><ele>453.5494</ele><time>2026-07-22T00:41:46.000Z</time></trkpt>
        <trkpt lat="28.694434" lon="105.091892"><ele>453.34537</ele><time>2026-07-22T00:41:48.000Z</time></trkpt>
        <trkpt lat="28.694412" lon="105.091897"><ele>453.13522</ele><time>2026-07-22T00:41:50.000Z</time></trkpt>
        <trkpt lat="28.694392" lon="105.091902"><ele>453.01263</ele><time>2026-07-22T00:41:52.000Z</time></trkpt>
        <trkpt lat="28.69437" lon="105.091906"><ele>452.31702</ele><time>2026-07-22T00:41:54.000Z</time></trkpt>
        <trkpt lat="28.694352" lon="105.091907"><ele>452.17172</ele><time>2026-07-22T00:41:56.000Z</time></trkpt>
        <trkpt lat="28.694332" lon="105.091906"><ele>452.66873</ele><time>2026-07-22T00:41:58.000Z</time></trkpt>
        <trkpt lat="28.69431" lon="105.091903"><ele>452.2672</ele><time>2026-07-22T00:42:00.000Z</time></trkpt>
        <trkpt lat="28.694292" lon="105.091899"><ele>450.7749</ele><time>2026-07-22T00:42:02.000Z</time></trkpt>
        <trkpt lat="28.694274" lon="105.091892"><ele>450.3351</ele><time>2026-07-22T00:42:04.000Z</time></trkpt>
        <trkpt lat="28.694254" lon="105.091883"><ele>449.73007</ele><time>2026-07-22T00:42:06.000Z</time></trkpt>
        <trkpt lat="28.694237" lon="105.091874"><ele>449.06387</ele><time>2026-07-22T00:42:08.000Z</time></trkpt>
        <trkpt lat="28.694218" lon="105.091864"><ele>448.93124</ele><time>2026-07-22T00:42:10.000Z</time></trkpt>
        <trkpt lat="28.694199" lon="105.091854"><ele>449.13324</ele><time>2026-07-22T00:42:12.000Z</time></trkpt>
        <trkpt lat="28.694181" lon="105.091842"><ele>449.88986</ele><time>2026-07-22T00:42:14.000Z</time></trkpt>
        <trkpt lat="28.694164" lon="105.091829"><ele>448.34366</ele><time>2026-07-22T00:42:16.000Z</time></trkpt>
        <trkpt lat="28.694144" lon="105.091814"><ele>448.64993</ele><time>2026-07-22T00:42:18.000Z</time></trkpt>
        <trkpt lat="28.694122" lon="105.091796"><ele>447.81015</ele><time>2026-07-22T00:42:20.000Z</time></trkpt>
        <trkpt lat="28.694101" lon="105.091774"><ele>447.8848</ele><time>2026-07-22T00:42:22.000Z</time></trkpt>
        <trkpt lat="28.694085" lon="105.09175"><ele>447.345</ele><time>2026-07-22T00:42:24.000Z</time></trkpt>
        <trkpt lat="28.694071" lon="105.091723"><ele>447.35666</ele><time>2026-07-22T00:42:26.000Z</time></trkpt>
        <trkpt lat="28.694061" lon="105.091694"><ele>446.72192</ele><time>2026-07-22T00:42:28.000Z</time></trkpt>
        <trkpt lat="28.694054" lon="105.091665"><ele>448.27905</ele><time>2026-07-22T00:42:30.000Z</time></trkpt>
        <trkpt lat="28.694052" lon="105.091634"><ele>447.018</ele><time>2026-07-22T00:42:32.000Z</time></trkpt>
        <trkpt lat="28.694053" lon="105.091604"><ele>445.52216</ele><time>2026-07-22T00:42:34.000Z</time></trkpt>
        <trkpt lat="28.694057" lon="105.091581"><ele>445.96512</ele><time>2026-07-22T00:42:36.000Z</time></trkpt>
        <trkpt lat="28.694062" lon="105.091563"><ele>445.03052</ele><time>2026-07-22T00:42:38.000Z</time></trkpt>
        <trkpt lat="28.694067" lon="105.091546"><ele>444.79282</ele><time>2026-07-22T00:42:40.000Z</time></trkpt>
        <trkpt lat="28.694068" lon="105.091528"><ele>443.45898</ele><time>2026-07-22T00:42:42.000Z</time></trkpt>
        <trkpt lat="28.694068" lon="105.091507"><ele>443.61575</ele><time>2026-07-22T00:42:44.000Z</time></trkpt>
        <trkpt lat="28.694066" lon="105.091485"><ele>444.01254</ele><time>2026-07-22T00:42:46.000Z</time></trkpt>
        <trkpt lat="28.694062" lon="105.091462"><ele>442.79163</ele><time>2026-07-22T00:42:48.000Z</time></trkpt>
        <trkpt lat="28.694057" lon="105.09144"><ele>442.57477</ele><time>2026-07-22T00:42:50.000Z</time></trkpt>
        <trkpt lat="28.694049" lon="105.091421"><ele>441.84964</ele><time>2026-07-22T00:42:52.000Z</time></trkpt>
        <trkpt lat="28.694035" lon="105.091405"><ele>441.50464</ele><time>2026-07-22T00:42:54.000Z</time></trkpt>
        <trkpt lat="28.694017" lon="105.091392"><ele>441.55673</ele><time>2026-07-22T00:42:56.000Z</time></trkpt>
        <trkpt lat="28.693995" lon="105.091381"><ele>441.22177</ele><time>2026-07-22T00:42:58.000Z</time></trkpt>
        <trkpt lat="28.693972" lon="105.091374"><ele>439.7753</ele><time>2026-07-22T00:43:00.000Z</time></trkpt>
        <trkpt lat="28.693949" lon="105.091365"><ele>440.10745</ele><time>2026-07-22T00:43:02.000Z</time></trkpt>
        <trkpt lat="28.693927" lon="105.091355"><ele>438.69586</ele><time>2026-07-22T00:43:04.000Z</time></trkpt>
        <trkpt lat="28.693906" lon="105.091344"><ele>438.04407</ele><time>2026-07-22T00:43:06.000Z</time></trkpt>
        <trkpt lat="28.693887" lon="105.091334"><ele>437.70532</ele><time>2026-07-22T00:43:08.000Z</time></trkpt>
        <trkpt lat="28.693869" lon="105.091324"><ele>436.59918</ele><time>2026-07-22T00:43:10.000Z</time></trkpt>
        <trkpt lat="28.693854" lon="105.091314"><ele>436.12354</ele><time>2026-07-22T00:43:12.000Z</time></trkpt>
        <trkpt lat="28.693838" lon="105.091301"><ele>436.59366</ele><time>2026-07-22T00:43:14.000Z</time></trkpt>
        <trkpt lat="28.693823" lon="105.091286"><ele>436.23422</ele><time>2026-07-22T00:43:16.000Z</time></trkpt>
        <trkpt lat="28.693808" lon="105.091268"><ele>435.43744</ele><time>2026-07-22T00:43:18.000Z</time></trkpt>
        <trkpt lat="28.693794" lon="105.091248"><ele>436.46072</ele><time>2026-07-22T00:43:20.000Z</time></trkpt>
        <trkpt lat="28.69378" lon="105.091227"><ele>435.59985</ele><time>2026-07-22T00:43:22.000Z</time></trkpt>
        <trkpt lat="28.693765" lon="105.091204"><ele>435.1272</ele><time>2026-07-22T00:43:24.000Z</time></trkpt>
        <trkpt lat="28.69375" lon="105.091181"><ele>434.5856</ele><time>2026-07-22T00:43:26.000Z</time></trkpt>
        <trkpt lat="28.693741" lon="105.091163"><ele>434.53293</ele><time>2026-07-22T00:43:28.000Z</time></trkpt>
        <trkpt lat="28.693737" lon="105.091155"><ele>434.77307</ele><time>2026-07-22T00:43:30.000Z</time></trkpt>
        <trkpt lat="28.693736" lon="105.091152"><ele>434.71274</ele><time>2026-07-22T00:43:32.000Z</time></trkpt>
        <trkpt lat="28.693728" lon="105.091145"><ele>434.20822</ele><time>2026-07-22T00:43:35.000Z</time></trkpt>
        <trkpt lat="28.693714" lon="105.091134"><ele>434.29645</ele><time>2026-07-22T00:43:40.000Z</time></trkpt>
        <trkpt lat="28.693713" lon="105.091133"><ele>434.35007</ele><time>2026-07-22T00:43:42.000Z</time></trkpt>
        <trkpt lat="28.693699" lon="105.091119"><ele>434.80292</ele><time>2026-07-22T00:43:46.000Z</time></trkpt>
        <trkpt lat="28.693678" lon="105.091101"><ele>434.39484</ele><time>2026-07-22T00:43:48.000Z</time></trkpt>
        <trkpt lat="28.693648" lon="105.091081"><ele>433.97723</ele><time>2026-07-22T00:43:50.000Z</time></trkpt>
        <trkpt lat="28.693613" lon="105.091066"><ele>434.45047</ele><time>2026-07-22T00:43:52.000Z</time></trkpt>
        <trkpt lat="28.693578" lon="105.091058"><ele>433.64523</ele><time>2026-07-22T00:43:54.000Z</time></trkpt>
        <trkpt lat="28.693547" lon="105.091055"><ele>433.36295</ele><time>2026-07-22T00:43:56.000Z</time></trkpt>
        <trkpt lat="28.693523" lon="105.091056"><ele>432.40646</ele><time>2026-07-22T00:43:58.000Z</time></trkpt>
        <trkpt lat="28.693502" lon="105.091061"><ele>432.06274</ele><time>2026-07-22T00:44:00.000Z</time></trkpt>
        <trkpt lat="28.693483" lon="105.091069"><ele>432.0507</ele><time>2026-07-22T00:44:02.000Z</time></trkpt>
        <trkpt lat="28.693463" lon="105.091079"><ele>431.48648</ele><time>2026-07-22T00:44:04.000Z</time></trkpt>
        <trkpt lat="28.693443" lon="105.091089"><ele>431.3598</ele><time>2026-07-22T00:44:06.000Z</time></trkpt>
        <trkpt lat="28.693422" lon="105.0911"><ele>431.83575</ele><time>2026-07-22T00:44:08.000Z</time></trkpt>
        <trkpt lat="28.693401" lon="105.091108"><ele>431.25476</ele><time>2026-07-22T00:44:10.000Z</time></trkpt>
        <trkpt lat="28.693379" lon="105.091115"><ele>430.96222</ele><time>2026-07-22T00:44:12.000Z</time></trkpt>
        <trkpt lat="28.693356" lon="105.091121"><ele>431.01913</ele><time>2026-07-22T00:44:14.000Z</time></trkpt>
        <trkpt lat="28.693331" lon="105.091126"><ele>430.52164</ele><time>2026-07-22T00:44:16.000Z</time></trkpt>
        <trkpt lat="28.693306" lon="105.091128"><ele>430.52557</ele><time>2026-07-22T00:44:18.000Z</time></trkpt>
        <trkpt lat="28.693281" lon="105.091128"><ele>429.8265</ele><time>2026-07-22T00:44:20.000Z</time></trkpt>
        <trkpt lat="28.693257" lon="105.091127"><ele>429.02814</ele><time>2026-07-22T00:44:22.000Z</time></trkpt>
        <trkpt lat="28.693232" lon="105.091124"><ele>429.0425</ele><time>2026-07-22T00:44:24.000Z</time></trkpt>
        <trkpt lat="28.693208" lon="105.091121"><ele>428.83945</ele><time>2026-07-22T00:44:26.000Z</time></trkpt>
        <trkpt lat="28.693182" lon="105.091119"><ele>428.9634</ele><time>2026-07-22T00:44:28.000Z</time></trkpt>
        <trkpt lat="28.693156" lon="105.091117"><ele>428.81876</ele><time>2026-07-22T00:44:30.000Z</time></trkpt>
        <trkpt lat="28.693129" lon="105.091114"><ele>428.28574</ele><time>2026-07-22T00:44:32.000Z</time></trkpt>
        <trkpt lat="28.693101" lon="105.091109"><ele>428.7748</ele><time>2026-07-22T00:44:34.000Z</time></trkpt>
        <trkpt lat="28.693075" lon="105.091103"><ele>429.95618</ele><time>2026-07-22T00:44:36.000Z</time></trkpt>
        <trkpt lat="28.693053" lon="105.091095"><ele>428.84427</ele><time>2026-07-22T00:44:38.000Z</time></trkpt>
        <trkpt lat="28.693029" lon="105.091081"><ele>428.36484</ele><time>2026-07-22T00:44:40.000Z</time></trkpt>
        <trkpt lat="28.693009" lon="105.091065"><ele>426.9349</ele><time>2026-07-22T00:44:42.000Z</time></trkpt>
        <trkpt lat="28.692992" lon="105.091049"><ele>426.5952</ele><time>2026-07-22T00:44:44.000Z</time></trkpt>
        <trkpt lat="28.692976" lon="105.091031"><ele>427.0462</ele><time>2026-07-22T00:44:46.000Z</time></trkpt>
        <trkpt lat="28.692961" lon="105.091012"><ele>426.5992</ele><time>2026-07-22T00:44:48.000Z</time></trkpt>
        <trkpt lat="28.692945" lon="105.090989"><ele>425.81076</ele><time>2026-07-22T00:44:50.000Z</time></trkpt>
        <trkpt lat="28.692927" lon="105.090966"><ele>425.83255</ele><time>2026-07-22T00:44:52.000Z</time></trkpt>
        <trkpt lat="28.692909" lon="105.090941"><ele>425.93576</ele><time>2026-07-22T00:44:54.000Z</time></trkpt>
        <trkpt lat="28.692891" lon="105.090918"><ele>424.79156</ele><time>2026-07-22T00:44:56.000Z</time></trkpt>
        <trkpt lat="28.692873" lon="105.090896"><ele>424.60336</ele><time>2026-07-22T00:44:58.000Z</time></trkpt>
        <trkpt lat="28.692855" lon="105.090872"><ele>424.30127</ele><time>2026-07-22T00:45:00.000Z</time></trkpt>
        <trkpt lat="28.692841" lon="105.090851"><ele>423.92096</ele><time>2026-07-22T00:45:02.000Z</time></trkpt>
        <trkpt lat="28.692827" lon="105.090828"><ele>423.91553</ele><time>2026-07-22T00:45:04.000Z</time></trkpt>
        <trkpt lat="28.692812" lon="105.090804"><ele>423.4739</ele><time>2026-07-22T00:45:06.000Z</time></trkpt>
        <trkpt lat="28.692796" lon="105.090781"><ele>422.7588</ele><time>2026-07-22T00:45:08.000Z</time></trkpt>
        <trkpt lat="28.69278" lon="105.090757"><ele>423.22583</ele><time>2026-07-22T00:45:10.000Z</time></trkpt>
        <trkpt lat="28.692762" lon="105.090736"><ele>423.1573</ele><time>2026-07-22T00:45:12.000Z</time></trkpt>
        <trkpt lat="28.692745" lon="105.090717"><ele>421.11798</ele><time>2026-07-22T00:45:14.000Z</time></trkpt>
        <trkpt lat="28.692727" lon="105.090697"><ele>420.8356</ele><time>2026-07-22T00:45:16.000Z</time></trkpt>
        <trkpt lat="28.69271" lon="105.090677"><ele>420.16068</ele><time>2026-07-22T00:45:18.000Z</time></trkpt>
        <trkpt lat="28.692692" lon="105.090656"><ele>419.56213</ele><time>2026-07-22T00:45:20.000Z</time></trkpt>
        <trkpt lat="28.692676" lon="105.090639"><ele>419.3672</ele><time>2026-07-22T00:45:22.000Z</time></trkpt>
        <trkpt lat="28.69266" lon="105.090621"><ele>418.8028</ele><time>2026-07-22T00:45:24.000Z</time></trkpt>
        <trkpt lat="28.692642" lon="105.090603"><ele>418.25955</ele><time>2026-07-22T00:45:26.000Z</time></trkpt>
        <trkpt lat="28.692623" lon="105.090588"><ele>417.741</ele><time>2026-07-22T00:45:28.000Z</time></trkpt>
        <trkpt lat="28.692604" lon="105.090577"><ele>417.50537</ele><time>2026-07-22T00:45:30.000Z</time></trkpt>
        <trkpt lat="28.692588" lon="105.09057"><ele>417.33508</ele><time>2026-07-22T00:45:32.000Z</time></trkpt>
        <trkpt lat="28.692576" lon="105.090568"><ele>417.28882</ele><time>2026-07-22T00:45:34.000Z</time></trkpt>
        <trkpt lat="28.692573" lon="105.090564"><ele>417.41803</ele><time>2026-07-22T00:45:36.000Z</time></trkpt>
        <trkpt lat="28.692559" lon="105.090549"><ele>416.75885</ele><time>2026-07-22T00:45:44.000Z</time></trkpt>
        <trkpt lat="28.692557" lon="105.090546"><ele>415.8313</ele><time>2026-07-22T00:45:48.000Z</time></trkpt>
        <trkpt lat="28.692548" lon="105.090531"><ele>415.46405</ele><time>2026-07-22T00:45:50.000Z</time></trkpt>
        <trkpt lat="28.692533" lon="105.090503"><ele>414.59653</ele><time>2026-07-22T00:45:52.000Z</time></trkpt>
        <trkpt lat="28.692519" lon="105.090478"><ele>414.6981</ele><time>2026-07-22T00:45:54.000Z</time></trkpt>
        <trkpt lat="28.692509" lon="105.090461"><ele>414.6353</ele><time>2026-07-22T00:45:56.000Z</time></trkpt>
        <trkpt lat="28.692505" lon="105.090454"><ele>414.81372</ele><time>2026-07-22T00:45:58.000Z</time></trkpt>
        <trkpt lat="28.692504" lon="105.090454"><ele>414.88086</ele><time>2026-07-22T00:46:00.000Z</time></trkpt>
        <trkpt lat="28.69254" lon="105.090449"><ele>414.21207</ele><time>2026-07-22T00:46:14.000Z</time></trkpt>
        <trkpt lat="28.69254" lon="105.090449"><ele>414.52164</ele><time>2026-07-22T00:46:16.000Z</time></trkpt>
        <trkpt lat="28.692539" lon="105.090451"><ele>414.4476</ele><time>2026-07-22T00:46:18.000Z</time></trkpt>
        <trkpt lat="28.692536" lon="105.090478"><ele>416.36374</ele><time>2026-07-22T00:46:24.000Z</time></trkpt>
        <trkpt lat="28.692537" lon="105.090478"><ele>416.0155</ele><time>2026-07-22T00:46:26.000Z</time></trkpt>
        <trkpt lat="28.692531" lon="105.090463"><ele>416.19125</ele><time>2026-07-22T00:46:28.000Z</time></trkpt>
        <trkpt lat="28.69252" lon="105.090417"><ele>414.8692</ele><time>2026-07-22T00:46:34.000Z</time></trkpt>
        <trkpt lat="28.692502" lon="105.090338"><ele>415.22406</ele><time>2026-07-22T00:46:37.000Z</time></trkpt>
        <trkpt lat="28.692502" lon="105.090338"><ele>414.5824</ele><time>2026-07-22T00:46:39.000Z</time></trkpt>
        <trkpt lat="28.692505" lon="105.090329"><ele>414.3634</ele><time>2026-07-22T00:46:41.000Z</time></trkpt>
        <trkpt lat="28.69252" lon="105.090289"><ele>414.25854</ele><time>2026-07-22T00:46:43.000Z</time></trkpt>
        <trkpt lat="28.692556" lon="105.090221"><ele>414.3532</ele><time>2026-07-22T00:46:45.000Z</time></trkpt>
        <trkpt lat="28.692604" lon="105.090148"><ele>414.32254</ele><time>2026-07-22T00:46:47.000Z</time></trkpt>
        <trkpt lat="28.692657" lon="105.090086"><ele>414.3442</ele><time>2026-07-22T00:46:49.000Z</time></trkpt>
        <trkpt lat="28.692715" lon="105.090032"><ele>414.2918</ele><time>2026-07-22T00:46:51.000Z</time></trkpt>
        <trkpt lat="28.692778" lon="105.089983"><ele>414.08527</ele><time>2026-07-22T00:46:53.000Z</time></trkpt>
        <trkpt lat="28.692832" lon="105.089946"><ele>413.9764</ele><time>2026-07-22T00:46:55.000Z</time></trkpt>
        <trkpt lat="28.692868" lon="105.089925"><ele>414.23325</ele><time>2026-07-22T00:46:57.000Z</time></trkpt>
        <trkpt lat="28.692886" lon="105.089919"><ele>414.9245</ele><time>2026-07-22T00:46:59.000Z</time></trkpt>
        <trkpt lat="28.69289" lon="105.089921"><ele>414.55072</ele><time>2026-07-22T00:47:01.000Z</time></trkpt>
        <trkpt lat="28.69289" lon="105.089921"><ele>414.6316</ele><time>2026-07-22T00:47:03.000Z</time></trkpt>
        <trkpt lat="28.692865" lon="105.089943"><ele>415.0311</ele><time>2026-07-22T00:47:07.000Z</time></trkpt>
        <trkpt lat="28.692856" lon="105.089946"><ele>415.93274</ele><time>2026-07-22T00:47:09.000Z</time></trkpt>
        <trkpt lat="28.692856" lon="105.089946"><ele>416.15112</ele><time>2026-07-22T00:47:11.000Z</time></trkpt>
        <trkpt lat="28.692864" lon="105.089969"><ele>415.2123</ele><time>2026-07-22T00:47:23.000Z</time></trkpt>
        <trkpt lat="28.692866" lon="105.089971"><ele>415.44882</ele><time>2026-07-22T00:47:25.000Z</time></trkpt>
        <trkpt lat="28.692866" lon="105.089971"><ele>415.17075</ele><time>2026-07-22T00:47:27.000Z</time></trkpt>
        <trkpt lat="28.692898" lon="105.089947"><ele>415.31863</ele><time>2026-07-22T00:47:33.000Z</time></trkpt>
        <trkpt lat="28.692972" lon="105.089892"><ele>415.1255</ele><time>2026-07-22T00:47:36.000Z</time></trkpt>
        <trkpt lat="28.692973" lon="105.089892"><ele>415.18488</ele><time>2026-07-22T00:47:38.000Z</time></trkpt>
        <trkpt lat="28.692983" lon="105.089891"><ele>415.00198</ele><time>2026-07-22T00:47:40.000Z</time></trkpt>
        <trkpt lat="28.693031" lon="105.089885"><ele>415.0757</ele><time>2026-07-22T00:47:42.000Z</time></trkpt>
        <trkpt lat="28.693235" lon="105.089958"><ele>415.21558</ele><time>2026-07-22T00:47:44.000Z</time></trkpt>
        <trkpt lat="28.693249" lon="105.089964"><ele>415.0462</ele><time>2026-07-22T00:47:46.000Z</time></trkpt>
        <trkpt lat="28.69326" lon="105.089965"><ele>414.86206</ele><time>2026-07-22T00:47:48.000Z</time></trkpt>
        <trkpt lat="28.693303" lon="105.08997"><ele>415.3288</ele><time>2026-07-22T00:47:50.000Z</time></trkpt>
        <trkpt lat="28.693369" lon="105.089936"><ele>415.79343</ele><time>2026-07-22T00:47:52.000Z</time></trkpt>
        <trkpt lat="28.693415" lon="105.089854"><ele>416.40308</ele><time>2026-07-22T00:47:54.000Z</time></trkpt>
        <trkpt lat="28.693423" lon="105.089745"><ele>416.63052</ele><time>2026-07-22T00:47:56.000Z</time></trkpt>
        <trkpt lat="28.693438" lon="105.089627"><ele>416.6982</ele><time>2026-07-22T00:47:58.000Z</time></trkpt>
        <trkpt lat="28.693452" lon="105.089514"><ele>416.67297</ele><time>2026-07-22T00:48:00.000Z</time></trkpt>
        <trkpt lat="28.693506" lon="105.089429"><ele>416.65442</ele><time>2026-07-22T00:48:02.000Z</time></trkpt>
        <trkpt lat="28.693584" lon="105.089391"><ele>417.46268</ele><time>2026-07-22T00:48:04.000Z</time></trkpt>
        <trkpt lat="28.693681" lon="105.089418"><ele>418.86105</ele><time>2026-07-22T00:48:06.000Z</time></trkpt>
        <trkpt lat="28.693794" lon="105.089457"><ele>419.22833</ele><time>2026-07-22T00:48:08.000Z</time></trkpt>
        <trkpt lat="28.693924" lon="105.089509"><ele>419.95682</ele><time>2026-07-22T00:48:10.000Z</time></trkpt>
        <trkpt lat="28.694061" lon="105.089569"><ele>421.11237</ele><time>2026-07-22T00:48:12.000Z</time></trkpt>
        <trkpt lat="28.694194" lon="105.089629"><ele>420.8535</ele><time>2026-07-22T00:48:14.000Z</time></trkpt>
        <trkpt lat="28.694317" lon="105.089685"><ele>421.39307</ele><time>2026-07-22T00:48:16.000Z</time></trkpt>
        <trkpt lat="28.694432" lon="105.089705"><ele>422.57416</ele><time>2026-07-22T00:48:18.000Z</time></trkpt>
        <trkpt lat="28.694534" lon="105.089672"><ele>423.77646</ele><time>2026-07-22T00:48:20.000Z</time></trkpt>
        <trkpt lat="28.694618" lon="105.089606"><ele>425.35214</ele><time>2026-07-22T00:48:22.000Z</time></trkpt>
        <trkpt lat="28.694663" lon="105.08952"><ele>426.4461</ele><time>2026-07-22T00:48:24.000Z</time></trkpt>
        <trkpt lat="28.694647" lon="105.089428"><ele>430.96457</ele><time>2026-07-22T00:48:26.000Z</time></trkpt>
        <trkpt lat="28.694565" lon="105.089364"><ele>434.9561</ele><time>2026-07-22T00:48:28.000Z</time></trkpt>
        <trkpt lat="28.694438" lon="105.089335"><ele>434.5912</ele><time>2026-07-22T00:48:30.000Z</time></trkpt>
        <trkpt lat="28.694297" lon="105.089299"><ele>433.80685</ele><time>2026-07-22T00:48:32.000Z</time></trkpt>
        <trkpt lat="28.694155" lon="105.089261"><ele>432.1107</ele><time>2026-07-22T00:48:34.000Z</time></trkpt>
        <trkpt lat="28.694028" lon="105.08919"><ele>431.45334</ele><time>2026-07-22T00:48:36.000Z</time></trkpt>
        <trkpt lat="28.693935" lon="105.089087"><ele>429.06668</ele><time>2026-07-22T00:48:38.000Z</time></trkpt>
        <trkpt lat="28.693842" lon="105.088996"><ele>429.54947</ele><time>2026-07-22T00:48:40.000Z</time></trkpt>
        <trkpt lat="28.69375" lon="105.08892"><ele>429.76224</ele><time>2026-07-22T00:48:42.000Z</time></trkpt>
        <trkpt lat="28.69365" lon="105.08885"><ele>427.9255</ele><time>2026-07-22T00:48:44.000Z</time></trkpt>
        <trkpt lat="28.69354" lon="105.088779"><ele>426.06976</ele><time>2026-07-22T00:48:46.000Z</time></trkpt>
        <trkpt lat="28.693434" lon="105.088703"><ele>422.88647</ele><time>2026-07-22T00:48:48.000Z</time></trkpt>
        <trkpt lat="28.693336" lon="105.088632"><ele>421.11975</ele><time>2026-07-22T00:48:50.000Z</time></trkpt>
        <trkpt lat="28.693278" lon="105.088532"><ele>420.1884</ele><time>2026-07-22T00:48:52.000Z</time></trkpt>
        <trkpt lat="28.693258" lon="105.088415"><ele>419.35275</ele><time>2026-07-22T00:48:54.000Z</time></trkpt>
        <trkpt lat="28.693276" lon="105.088285"><ele>418.96478</ele><time>2026-07-22T00:48:56.000Z</time></trkpt>
        <trkpt lat="28.693301" lon="105.088144"><ele>419.1218</ele><time>2026-07-22T00:48:58.000Z</time></trkpt>
        <trkpt lat="28.693329" lon="105.08801"><ele>419.79123</ele><time>2026-07-22T00:49:00.000Z</time></trkpt>
        <trkpt lat="28.693364" lon="105.087906"><ele>420.42398</ele><time>2026-07-22T00:49:02.000Z</time></trkpt>
        <trkpt lat="28.693389" lon="105.087832"><ele>421.01382</ele><time>2026-07-22T00:49:04.000Z</time></trkpt>
        <trkpt lat="28.693437" lon="105.087813"><ele>421.98682</ele><time>2026-07-22T00:49:06.000Z</time></trkpt>
        <trkpt lat="28.69349" lon="105.087839"><ele>423.80368</ele><time>2026-07-22T00:49:08.000Z</time></trkpt>
        <trkpt lat="28.693615" lon="105.088017"><ele>425.49496</ele><time>2026-07-22T00:49:10.000Z</time></trkpt>
        <trkpt lat="28.693626" lon="105.088027"><ele>427.8115</ele><time>2026-07-22T00:49:12.000Z</time></trkpt>
        <trkpt lat="28.693643" lon="105.088036"><ele>429.03467</ele><time>2026-07-22T00:49:14.000Z</time></trkpt>
        <trkpt lat="28.693719" lon="105.088069"><ele>429.61874</ele><time>2026-07-22T00:49:16.000Z</time></trkpt>
        <trkpt lat="28.693865" lon="105.088131"><ele>430.04874</ele><time>2026-07-22T00:49:18.000Z</time></trkpt>
        <trkpt lat="28.694201" lon="105.088182"><ele>431.43988</ele><time>2026-07-22T00:49:20.000Z</time></trkpt>
        <trkpt lat="28.694224" lon="105.088182"><ele>431.68567</ele><time>2026-07-22T00:49:22.000Z</time></trkpt>
        <trkpt lat="28.694241" lon="105.088176"><ele>431.63882</ele><time>2026-07-22T00:49:24.000Z</time></trkpt>
        <trkpt lat="28.694307" lon="105.088142"><ele>431.27185</ele><time>2026-07-22T00:49:26.000Z</time></trkpt>
        <trkpt lat="28.69443" lon="105.088065"><ele>431.13937</ele><time>2026-07-22T00:49:28.000Z</time></trkpt>
        <trkpt lat="28.694576" lon="105.087973"><ele>431.82385</ele><time>2026-07-22T00:49:30.000Z</time></trkpt>
        <trkpt lat="28.694682" lon="105.087862"><ele>431.54947</ele><time>2026-07-22T00:49:32.000Z</time></trkpt>
        <trkpt lat="28.69466" lon="105.087701"><ele>430.8595</ele><time>2026-07-22T00:49:34.000Z</time></trkpt>
        <trkpt lat="28.694658" lon="105.08769"><ele>430.8857</ele><time>2026-07-22T00:49:36.000Z</time></trkpt>
        <trkpt lat="28.694658" lon="105.087672"><ele>431.48895</ele><time>2026-07-22T00:49:38.000Z</time></trkpt>
        <trkpt lat="28.694655" lon="105.0876"><ele>432.04117</ele><time>2026-07-22T00:49:40.000Z</time></trkpt>
        <trkpt lat="28.694649" lon="105.087469"><ele>433.18613</ele><time>2026-07-22T00:49:42.000Z</time></trkpt>
        <trkpt lat="28.694542" lon="105.087247"><ele>433.60498</ele><time>2026-07-22T00:49:44.000Z</time></trkpt>
        <trkpt lat="28.694532" lon="105.087233"><ele>434.3158</ele><time>2026-07-22T00:49:46.000Z</time></trkpt>
        <trkpt lat="28.694518" lon="105.087217"><ele>434.92007</ele><time>2026-07-22T00:49:48.000Z</time></trkpt>
        <trkpt lat="28.694461" lon="105.087145"><ele>436.00766</ele><time>2026-07-22T00:49:50.000Z</time></trkpt>
        <trkpt lat="28.694352" lon="105.087015"><ele>436.68372</ele><time>2026-07-22T00:49:52.000Z</time></trkpt>
        <trkpt lat="28.694223" lon="105.086882"><ele>437.7342</ele><time>2026-07-22T00:49:54.000Z</time></trkpt>
        <trkpt lat="28.694104" lon="105.086771"><ele>437.65167</ele><time>2026-07-22T00:49:56.000Z</time></trkpt>
        <trkpt lat="28.69399" lon="105.086681"><ele>436.41446</ele><time>2026-07-22T00:49:58.000Z</time></trkpt>
        <trkpt lat="28.693884" lon="105.086597"><ele>434.94196</ele><time>2026-07-22T00:50:00.000Z</time></trkpt>
        <trkpt lat="28.693769" lon="105.086561"><ele>433.21832</ele><time>2026-07-22T00:50:02.000Z</time></trkpt>
        <trkpt lat="28.693661" lon="105.086522"><ele>431.00266</ele><time>2026-07-22T00:50:04.000Z</time></trkpt>
        <trkpt lat="28.693557" lon="105.086483"><ele>428.5832</ele><time>2026-07-22T00:50:06.000Z</time></trkpt>
        <trkpt lat="28.693465" lon="105.086409"><ele>425.8418</ele><time>2026-07-22T00:50:08.000Z</time></trkpt>
        <trkpt lat="28.693377" lon="105.086329"><ele>423.33926</ele><time>2026-07-22T00:50:10.000Z</time></trkpt>
        <trkpt lat="28.693312" lon="105.086265"><ele>422.53278</ele><time>2026-07-22T00:50:11.000Z</time></trkpt>
        <trkpt lat="28.693282" lon="105.086229"><ele>422.97614</ele><time>2026-07-22T00:50:13.000Z</time></trkpt>
        <trkpt lat="28.69328" lon="105.086215"><ele>423.18204</ele><time>2026-07-22T00:50:15.000Z</time></trkpt>
        <trkpt lat="28.693279" lon="105.086213"><ele>423.21466</ele><time>2026-07-22T00:50:17.000Z</time></trkpt>
        <trkpt lat="28.693316" lon="105.086255"><ele>424.71866</ele><time>2026-07-22T00:50:23.000Z</time></trkpt>
        <trkpt lat="28.693308" lon="105.086277"><ele>424.60355</ele><time>2026-07-22T00:50:25.000Z</time></trkpt>
        <trkpt lat="28.693296" lon="105.086301"><ele>424.1579</ele><time>2026-07-22T00:50:28.000Z</time></trkpt>
        <trkpt lat="28.693281" lon="105.086317"><ele>423.50098</ele><time>2026-07-22T00:50:30.000Z</time></trkpt>
        <trkpt lat="28.693263" lon="105.086328"><ele>422.9476</ele><time>2026-07-22T00:50:32.000Z</time></trkpt>
        <trkpt lat="28.693239" lon="105.086338"><ele>423.4013</ele><time>2026-07-22T00:50:34.000Z</time></trkpt>
        <trkpt lat="28.693209" lon="105.086349"><ele>421.77234</ele><time>2026-07-22T00:50:36.000Z</time></trkpt>
        <trkpt lat="28.693183" lon="105.086357"><ele>421.1118</ele><time>2026-07-22T00:50:38.000Z</time></trkpt>
        <trkpt lat="28.693159" lon="105.086363"><ele>420.89767</ele><time>2026-07-22T00:50:40.000Z</time></trkpt>
        <trkpt lat="28.693136" lon="105.08637"><ele>420.33112</ele><time>2026-07-22T00:50:42.000Z</time></trkpt>
        <trkpt lat="28.693114" lon="105.086376"><ele>419.94952</ele><time>2026-07-22T00:50:44.000Z</time></trkpt>
        <trkpt lat="28.693092" lon="105.086382"><ele>419.4665</ele><time>2026-07-22T00:50:46.000Z</time></trkpt>
        <trkpt lat="28.693071" lon="105.08639"><ele>418.9343</ele><time>2026-07-22T00:50:48.000Z</time></trkpt>
        <trkpt lat="28.693052" lon="105.086397"><ele>417.7758</ele><time>2026-07-22T00:50:50.000Z</time></trkpt>
        <trkpt lat="28.693034" lon="105.086405"><ele>417.04587</ele><time>2026-07-22T00:50:52.000Z</time></trkpt>
        <trkpt lat="28.693014" lon="105.086413"><ele>416.6803</ele><time>2026-07-22T00:50:54.000Z</time></trkpt>
        <trkpt lat="28.692995" lon="105.086421"><ele>416.54602</ele><time>2026-07-22T00:50:56.000Z</time></trkpt>
        <trkpt lat="28.692976" lon="105.086428"><ele>416.14175</ele><time>2026-07-22T00:50:58.000Z</time></trkpt>
        <trkpt lat="28.692956" lon="105.086434"><ele>416.0559</ele><time>2026-07-22T00:51:00.000Z</time></trkpt>
        <trkpt lat="28.692935" lon="105.086442"><ele>415.7254</ele><time>2026-07-22T00:51:02.000Z</time></trkpt>
        <trkpt lat="28.692917" lon="105.086449"><ele>415.42075</ele><time>2026-07-22T00:51:04.000Z</time></trkpt>
        <trkpt lat="28.692903" lon="105.086454"><ele>415.3528</ele><time>2026-07-22T00:51:06.000Z</time></trkpt>
        <trkpt lat="28.692894" lon="105.086456"><ele>415.2492</ele><time>2026-07-22T00:51:08.000Z</time></trkpt>
        <trkpt lat="28.692892" lon="105.086458"><ele>415.19028</ele><time>2026-07-22T00:51:10.000Z</time></trkpt>
        <trkpt lat="28.692924" lon="105.086431"><ele>413.7678</ele><time>2026-07-22T00:51:32.000Z</time></trkpt>
        <trkpt lat="28.692953" lon="105.086411"><ele>413.7901</ele><time>2026-07-22T00:51:34.000Z</time></trkpt>
        <trkpt lat="28.69297" lon="105.086401"><ele>414.51953</ele><time>2026-07-22T00:51:39.000Z</time></trkpt>
        <trkpt lat="28.693025" lon="105.086369"><ele>414.741</ele><time>2026-07-22T00:51:41.000Z</time></trkpt>
        <trkpt lat="28.693029" lon="105.086367"><ele>414.63715</ele><time>2026-07-22T00:51:43.000Z</time></trkpt>
        <trkpt lat="28.693033" lon="105.086365"><ele>414.8259</ele><time>2026-07-22T00:51:45.000Z</time></trkpt>
        <trkpt lat="28.693049" lon="105.086356"><ele>415.28156</ele><time>2026-07-22T00:51:47.000Z</time></trkpt>
        <trkpt lat="28.693078" lon="105.086339"><ele>416.58972</ele><time>2026-07-22T00:51:49.000Z</time></trkpt>
        <trkpt lat="28.693111" lon="105.086321"><ele>417.95068</ele><time>2026-07-22T00:51:51.000Z</time></trkpt>
        <trkpt lat="28.693142" lon="105.086308"><ele>417.429</ele><time>2026-07-22T00:51:53.000Z</time></trkpt>
        <trkpt lat="28.693171" lon="105.086296"><ele>417.6224</ele><time>2026-07-22T00:51:55.000Z</time></trkpt>
        <trkpt lat="28.693197" lon="105.086287"><ele>418.66956</ele><time>2026-07-22T00:51:57.000Z</time></trkpt>
        <trkpt lat="28.693221" lon="105.08628"><ele>418.56393</ele><time>2026-07-22T00:51:59.000Z</time></trkpt>
        <trkpt lat="28.693244" lon="105.086273"><ele>419.6894</ele><time>2026-07-22T00:52:01.000Z</time></trkpt>
        <trkpt lat="28.693266" lon="105.086268"><ele>420.19934</ele><time>2026-07-22T00:52:03.000Z</time></trkpt>
        <trkpt lat="28.693286" lon="105.086261"><ele>421.51343</ele><time>2026-07-22T00:52:05.000Z</time></trkpt>
        <trkpt lat="28.693309" lon="105.086253"><ele>422.49197</ele><time>2026-07-22T00:52:07.000Z</time></trkpt>
        <trkpt lat="28.693329" lon="105.086246"><ele>423.22507</ele><time>2026-07-22T00:52:09.000Z</time></trkpt>
        <trkpt lat="28.693348" lon="105.086237"><ele>423.8515</ele><time>2026-07-22T00:52:11.000Z</time></trkpt>
        <trkpt lat="28.693359" lon="105.086227"><ele>423.9512</ele><time>2026-07-22T00:52:13.000Z</time></trkpt>
        <trkpt lat="28.693362" lon="105.086229"><ele>424.2111</ele><time>2026-07-22T00:52:15.000Z</time></trkpt>
        <trkpt lat="28.693291" lon="105.086194"><ele>424.50598</ele><time>2026-07-22T00:52:25.000Z</time></trkpt>
        <trkpt lat="28.693291" lon="105.086194"><ele>422.56815</ele><time>2026-07-22T00:52:27.000Z</time></trkpt>
        <trkpt lat="28.693278" lon="105.086179"><ele>420.61835</ele><time>2026-07-22T00:52:29.000Z</time></trkpt>
        <trkpt lat="28.693216" lon="105.086123"><ele>419.03265</ele><time>2026-07-22T00:52:31.000Z</time></trkpt>
        <trkpt lat="28.693105" lon="105.086021"><ele>416.8036</ele><time>2026-07-22T00:52:33.000Z</time></trkpt>
        <trkpt lat="28.692964" lon="105.085952"><ele>415.3294</ele><time>2026-07-22T00:52:35.000Z</time></trkpt>
        <trkpt lat="28.692864" lon="105.085909"><ele>414.52322</ele><time>2026-07-22T00:52:37.000Z</time></trkpt>
        <trkpt lat="28.692809" lon="105.085891"><ele>414.29037</ele><time>2026-07-22T00:52:39.000Z</time></trkpt>
        <trkpt lat="28.692786" lon="105.08589"><ele>414.3519</ele><time>2026-07-22T00:52:41.000Z</time></trkpt>
        <trkpt lat="28.692785" lon="105.085889"><ele>414.3519</ele><time>2026-07-22T00:52:43.000Z</time></trkpt>
        <trkpt lat="28.692836" lon="105.085932"><ele>412.74875</ele><time>2026-07-22T00:52:51.000Z</time></trkpt>
        <trkpt lat="28.692836" lon="105.085932"><ele>412.74875</ele><time>2026-07-22T00:52:53.000Z</time></trkpt>
        <trkpt lat="28.692835" lon="105.085932"><ele>411.64532</ele><time>2026-07-22T00:52:55.000Z</time></trkpt>
        <trkpt lat="28.692779" lon="105.085939"><ele>410.71948</ele><time>2026-07-22T00:53:09.000Z</time></trkpt>
        <trkpt lat="28.692503" lon="105.085971"><ele>411.68106</ele><time>2026-07-22T00:53:14.000Z</time></trkpt>
        <trkpt lat="28.692502" lon="105.085971"><ele>412.66333</ele><time>2026-07-22T00:53:16.000Z</time></trkpt>
        <trkpt lat="28.692477" lon="105.085973"><ele>414.0815</ele><time>2026-07-22T00:53:18.000Z</time></trkpt>
        <trkpt lat="28.692372" lon="105.085971"><ele>415.69745</ele><time>2026-07-22T00:53:20.000Z</time></trkpt>
        <trkpt lat="28.69199" lon="105.085964"><ele>417.4631</ele><time>2026-07-22T00:53:22.000Z</time></trkpt>
        <trkpt lat="28.691963" lon="105.085958"><ele>419.0644</ele><time>2026-07-22T00:53:24.000Z</time></trkpt>
        <trkpt lat="28.691938" lon="105.085953"><ele>419.69223</ele><time>2026-07-22T00:53:26.000Z</time></trkpt>
        <trkpt lat="28.691827" lon="105.085928"><ele>421.91306</ele><time>2026-07-22T00:53:28.000Z</time></trkpt>
        <trkpt lat="28.69142" lon="105.08598"><ele>425.98856</ele><time>2026-07-22T00:53:30.000Z</time></trkpt>
        <trkpt lat="28.691393" lon="105.085985"><ele>431.74976</ele><time>2026-07-22T00:53:32.000Z</time></trkpt>
        <trkpt lat="28.691363" lon="105.08599"><ele>435.34668</ele><time>2026-07-22T00:53:34.000Z</time></trkpt>
        <trkpt lat="28.691241" lon="105.086002"><ele>438.176</ele><time>2026-07-22T00:53:36.000Z</time></trkpt>
        <trkpt lat="28.690755" lon="105.086049"><ele>442.32565</ele><time>2026-07-22T00:53:38.000Z</time></trkpt>
        <trkpt lat="28.690721" lon="105.086053"><ele>445.22888</ele><time>2026-07-22T00:53:40.000Z</time></trkpt>
        <trkpt lat="28.690692" lon="105.086052"><ele>448.98206</ele><time>2026-07-22T00:53:42.000Z</time></trkpt>
        <trkpt lat="28.690576" lon="105.086047"><ele>452.21243</ele><time>2026-07-22T00:53:44.000Z</time></trkpt>
        <trkpt lat="28.690138" lon="105.085883"><ele>454.40305</ele><time>2026-07-22T00:53:46.000Z</time></trkpt>
        <trkpt lat="28.69011" lon="105.085864"><ele>455.85962</ele><time>2026-07-22T00:53:48.000Z</time></trkpt>
        <trkpt lat="28.690092" lon="105.085842"><ele>455.33862</ele><time>2026-07-22T00:53:50.000Z</time></trkpt>
        <trkpt lat="28.690043" lon="105.085777"><ele>454.39465</ele><time>2026-07-22T00:53:52.000Z</time></trkpt>
        <trkpt lat="28.689984" lon="105.085698"><ele>454.05475</ele><time>2026-07-22T00:53:54.000Z</time></trkpt>
        <trkpt lat="28.689943" lon="105.085644"><ele>453.73074</ele><time>2026-07-22T00:53:56.000Z</time></trkpt>
        <trkpt lat="28.689924" lon="105.085625"><ele>453.55826</ele><time>2026-07-22T00:53:58.000Z</time></trkpt>
        <trkpt lat="28.68992" lon="105.085625"><ele>453.20657</ele><time>2026-07-22T00:54:00.000Z</time></trkpt>
        <trkpt lat="28.690062" lon="105.085657"><ele>453.5919</ele><time>2026-07-22T00:54:08.000Z</time></trkpt>
        <trkpt lat="28.690063" lon="105.085657"><ele>454.31516</ele><time>2026-07-22T00:54:10.000Z</time></trkpt>
        <trkpt lat="28.690068" lon="105.085649"><ele>454.87344</ele><time>2026-07-22T00:54:12.000Z</time></trkpt>
        <trkpt lat="28.690081" lon="105.085611"><ele>454.76483</ele><time>2026-07-22T00:54:14.000Z</time></trkpt>
        <trkpt lat="28.690112" lon="105.08552"><ele>455.55252</ele><time>2026-07-22T00:54:16.000Z</time></trkpt>
        <trkpt lat="28.690113" lon="105.085377"><ele>455.38876</ele><time>2026-07-22T00:54:18.000Z</time></trkpt>
        <trkpt lat="28.690113" lon="105.08524"><ele>454.65082</ele><time>2026-07-22T00:54:20.000Z</time></trkpt>
        <trkpt lat="28.690072" lon="105.085098"><ele>454.59592</ele><time>2026-07-22T00:54:22.000Z</time></trkpt>
        <trkpt lat="28.690069" lon="105.085089"><ele>453.69733</ele><time>2026-07-22T00:54:24.000Z</time></trkpt>
        <trkpt lat="28.690064" lon="105.085079"><ele>453.0554</ele><time>2026-07-22T00:54:26.000Z</time></trkpt>
        <trkpt lat="28.690044" lon="105.085029"><ele>451.9639</ele><time>2026-07-22T00:54:28.000Z</time></trkpt>
        <trkpt lat="28.689937" lon="105.084761"><ele>450.6722</ele><time>2026-07-22T00:54:30.000Z</time></trkpt>
        <trkpt lat="28.689931" lon="105.084742"><ele>449.69492</ele><time>2026-07-22T00:54:32.000Z</time></trkpt>
        <trkpt lat="28.68993" lon="105.084731"><ele>448.80603</ele><time>2026-07-22T00:54:34.000Z</time></trkpt>
        <trkpt lat="28.689928" lon="105.084689"><ele>447.5732</ele><time>2026-07-22T00:54:36.000Z</time></trkpt>
        <trkpt lat="28.689926" lon="105.084592"><ele>446.16653</ele><time>2026-07-22T00:54:38.000Z</time></trkpt>
        <trkpt lat="28.689922" lon="105.084317"><ele>444.75275</ele><time>2026-07-22T00:54:40.000Z</time></trkpt>
        <trkpt lat="28.689923" lon="105.084297"><ele>443.14655</ele><time>2026-07-22T00:54:42.000Z</time></trkpt>
        <trkpt lat="28.689926" lon="105.084284"><ele>441.30197</ele><time>2026-07-22T00:54:44.000Z</time></trkpt>
        <trkpt lat="28.689971" lon="105.084089"><ele>436.97272</ele><time>2026-07-22T00:54:48.000Z</time></trkpt>
        <trkpt lat="28.690008" lon="105.08393"><ele>435.67297</ele><time>2026-07-22T00:54:50.000Z</time></trkpt>
        <trkpt lat="28.690048" lon="105.083761"><ele>434.87418</ele><time>2026-07-22T00:54:52.000Z</time></trkpt>
        <trkpt lat="28.690091" lon="105.0836"><ele>434.8643</ele><time>2026-07-22T00:54:54.000Z</time></trkpt>
        <trkpt lat="28.690141" lon="105.083459"><ele>433.99774</ele><time>2026-07-22T00:54:56.000Z</time></trkpt>
        <trkpt lat="28.69019" lon="105.083345"><ele>434.32098</ele><time>2026-07-22T00:54:58.000Z</time></trkpt>
        <trkpt lat="28.690216" lon="105.083252"><ele>434.38074</ele><time>2026-07-22T00:55:00.000Z</time></trkpt>
        <trkpt lat="28.690255" lon="105.08311"><ele>433.26065</ele><time>2026-07-22T00:55:02.000Z</time></trkpt>
        <trkpt lat="28.690255" lon="105.0831"><ele>432.01062</ele><time>2026-07-22T00:55:04.000Z</time></trkpt>
        <trkpt lat="28.690256" lon="105.083078"><ele>430.32547</ele><time>2026-07-22T00:55:06.000Z</time></trkpt>
        <trkpt lat="28.690257" lon="105.082996"><ele>428.89984</ele><time>2026-07-22T00:55:08.000Z</time></trkpt>
        <trkpt lat="28.690262" lon="105.082696"><ele>427.58295</ele><time>2026-07-22T00:55:10.000Z</time></trkpt>
        <trkpt lat="28.690261" lon="105.082674"><ele>425.1444</ele><time>2026-07-22T00:55:12.000Z</time></trkpt>
        <trkpt lat="28.690259" lon="105.082652"><ele>423.45932</ele><time>2026-07-22T00:55:14.000Z</time></trkpt>
        <trkpt lat="28.69025" lon="105.082565"><ele>421.0024</ele><time>2026-07-22T00:55:16.000Z</time></trkpt>
        <trkpt lat="28.690223" lon="105.082281"><ele>419.11035</ele><time>2026-07-22T00:55:18.000Z</time></trkpt>
        <trkpt lat="28.690225" lon="105.08226"><ele>416.94504</ele><time>2026-07-22T00:55:20.000Z</time></trkpt>
        <trkpt lat="28.690232" lon="105.082244"><ele>413.04178</ele><time>2026-07-22T00:55:22.000Z</time></trkpt>
        <trkpt lat="28.690273" lon="105.082175"><ele>411.94247</ele><time>2026-07-22T00:55:24.000Z</time></trkpt>
        <trkpt lat="28.690346" lon="105.082051"><ele>409.93747</ele><time>2026-07-22T00:55:26.000Z</time></trkpt>
        <trkpt lat="28.690457" lon="105.081941"><ele>408.97</ele><time>2026-07-22T00:55:28.000Z</time></trkpt>
        <trkpt lat="28.690561" lon="105.081838"><ele>406.62585</ele><time>2026-07-22T00:55:30.000Z</time></trkpt>
        <trkpt lat="28.690674" lon="105.081774"><ele>404.2365</ele><time>2026-07-22T00:55:32.000Z</time></trkpt>
        <trkpt lat="28.690778" lon="105.081721"><ele>402.56732</ele><time>2026-07-22T00:55:34.000Z</time></trkpt>
        <trkpt lat="28.690875" lon="105.081669"><ele>400.12476</ele><time>2026-07-22T00:55:36.000Z</time></trkpt>
        <trkpt lat="28.690963" lon="105.081622"><ele>399.69678</ele><time>2026-07-22T00:55:38.000Z</time></trkpt>
        <trkpt lat="28.691019" lon="105.081549"><ele>398.8143</ele><time>2026-07-22T00:55:40.000Z</time></trkpt>
        <trkpt lat="28.691066" lon="105.081472"><ele>397.58926</ele><time>2026-07-22T00:55:42.000Z</time></trkpt>
        <trkpt lat="28.691109" lon="105.081391"><ele>396.40833</ele><time>2026-07-22T00:55:44.000Z</time></trkpt>
        <trkpt lat="28.69114" lon="105.081326"><ele>396.2682</ele><time>2026-07-22T00:55:46.000Z</time></trkpt>
        <trkpt lat="28.691167" lon="105.08126"><ele>395.28403</ele><time>2026-07-22T00:55:48.000Z</time></trkpt>
        <trkpt lat="28.691185" lon="105.081201"><ele>394.36398</ele><time>2026-07-22T00:55:50.000Z</time></trkpt>
        <trkpt lat="28.691195" lon="105.081157"><ele>393.4044</ele><time>2026-07-22T00:55:52.000Z</time></trkpt>
        <trkpt lat="28.691196" lon="105.081136"><ele>393.6551</ele><time>2026-07-22T00:55:54.000Z</time></trkpt>
        <trkpt lat="28.691195" lon="105.081119"><ele>393.2054</ele><time>2026-07-22T00:55:56.000Z</time></trkpt>
        <trkpt lat="28.691195" lon="105.081091"><ele>392.2073</ele><time>2026-07-22T00:55:58.000Z</time></trkpt>
        <trkpt lat="28.691196" lon="105.081043"><ele>390.50543</ele><time>2026-07-22T00:56:00.000Z</time></trkpt>
        <trkpt lat="28.6912" lon="105.080981"><ele>389.05347</ele><time>2026-07-22T00:56:02.000Z</time></trkpt>
        <trkpt lat="28.691212" lon="105.080915"><ele>388.2922</ele><time>2026-07-22T00:56:04.000Z</time></trkpt>
        <trkpt lat="28.691233" lon="105.080851"><ele>387.81192</ele><time>2026-07-22T00:56:06.000Z</time></trkpt>
        <trkpt lat="28.691265" lon="105.080786"><ele>386.91776</ele><time>2026-07-22T00:56:08.000Z</time></trkpt>
        <trkpt lat="28.691302" lon="105.080724"><ele>385.89648</ele><time>2026-07-22T00:56:10.000Z</time></trkpt>
        <trkpt lat="28.691346" lon="105.080662"><ele>384.77002</ele><time>2026-07-22T00:56:12.000Z</time></trkpt>
        <trkpt lat="28.691395" lon="105.080594"><ele>383.0283</ele><time>2026-07-22T00:56:14.000Z</time></trkpt>
        <trkpt lat="28.691438" lon="105.080519"><ele>382.36246</ele><time>2026-07-22T00:56:16.000Z</time></trkpt>
        <trkpt lat="28.69148" lon="105.080446"><ele>381.73782</ele><time>2026-07-22T00:56:18.000Z</time></trkpt>
        <trkpt lat="28.69149" lon="105.080371"><ele>380.4573</ele><time>2026-07-22T00:56:20.000Z</time></trkpt>
        <trkpt lat="28.691469" lon="105.080309"><ele>378.5853</ele><time>2026-07-22T00:56:22.000Z</time></trkpt>
        <trkpt lat="28.691413" lon="105.080277"><ele>377.31085</ele><time>2026-07-22T00:56:24.000Z</time></trkpt>
        <trkpt lat="28.691344" lon="105.080253"><ele>375.58795</ele><time>2026-07-22T00:56:26.000Z</time></trkpt>
        <trkpt lat="28.691269" lon="105.080238"><ele>374.5233</ele><time>2026-07-22T00:56:28.000Z</time></trkpt>
        <trkpt lat="28.691198" lon="105.080231"><ele>373.82236</ele><time>2026-07-22T00:56:30.000Z</time></trkpt>
        <trkpt lat="28.69114" lon="105.080233"><ele>373.98117</ele><time>2026-07-22T00:56:32.000Z</time></trkpt>
        <trkpt lat="28.691091" lon="105.080245"><ele>373.4673</ele><time>2026-07-22T00:56:34.000Z</time></trkpt>
        <trkpt lat="28.691036" lon="105.080258"><ele>373.33438</ele><time>2026-07-22T00:56:36.000Z</time></trkpt>
        <trkpt lat="28.690994" lon="105.080318"><ele>373.98215</ele><time>2026-07-22T00:56:38.000Z</time></trkpt>
        <trkpt lat="28.690943" lon="105.08039"><ele>375.0888</ele><time>2026-07-22T00:56:40.000Z</time></trkpt>
        <trkpt lat="28.690888" lon="105.08056"><ele>376.91327</ele><time>2026-07-22T00:56:42.000Z</time></trkpt>
        <trkpt lat="28.690884" lon="105.080572"><ele>378.0639</ele><time>2026-07-22T00:56:44.000Z</time></trkpt>
        <trkpt lat="28.690878" lon="105.080589"><ele>379.05045</ele><time>2026-07-22T00:56:46.000Z</time></trkpt>
        <trkpt lat="28.690851" lon="105.080657"><ele>379.98676</ele><time>2026-07-22T00:56:48.000Z</time></trkpt>
        <trkpt lat="28.690793" lon="105.080771"><ele>380.4825</ele><time>2026-07-22T00:56:50.000Z</time></trkpt>
        <trkpt lat="28.690689" lon="105.080976"><ele>381.58832</ele><time>2026-07-22T00:56:52.000Z</time></trkpt>
        <trkpt lat="28.690678" lon="105.080986"><ele>382.8117</ele><time>2026-07-22T00:56:54.000Z</time></trkpt>
        <trkpt lat="28.690665" lon="105.080992"><ele>384.1435</ele><time>2026-07-22T00:56:56.000Z</time></trkpt>
        <trkpt lat="28.690598" lon="105.081018"><ele>385.60626</ele><time>2026-07-22T00:56:58.000Z</time></trkpt>
        <trkpt lat="28.690469" lon="105.081066"><ele>387.02982</ele><time>2026-07-22T00:57:00.000Z</time></trkpt>
        <trkpt lat="28.690322" lon="105.08112"><ele>387.97092</ele><time>2026-07-22T00:57:02.000Z</time></trkpt>
        <trkpt lat="28.690199" lon="105.081167"><ele>390.0647</ele><time>2026-07-22T00:57:04.000Z</time></trkpt>
        <trkpt lat="28.690115" lon="105.0812"><ele>390.6467</ele><time>2026-07-22T00:57:06.000Z</time></trkpt>
        <trkpt lat="28.690056" lon="105.081225"><ele>391.33188</ele><time>2026-07-22T00:57:08.000Z</time></trkpt>
        <trkpt lat="28.690005" lon="105.08125"><ele>392.54242</ele><time>2026-07-22T00:57:10.000Z</time></trkpt>
        <trkpt lat="28.689946" lon="105.081282"><ele>393.29218</ele><time>2026-07-22T00:57:12.000Z</time></trkpt>
        <trkpt lat="28.689902" lon="105.08131"><ele>394.01044</ele><time>2026-07-22T00:57:14.000Z</time></trkpt>
        <trkpt lat="28.689865" lon="105.081337"><ele>395.3937</ele><time>2026-07-22T00:57:16.000Z</time></trkpt>
        <trkpt lat="28.689837" lon="105.08136"><ele>396.3279</ele><time>2026-07-22T00:57:18.000Z</time></trkpt>
        <trkpt lat="28.689829" lon="105.081371"><ele>396.5782</ele><time>2026-07-22T00:57:20.000Z</time></trkpt>
        <trkpt lat="28.689829" lon="105.081371"><ele>397.37726</ele><time>2026-07-22T00:57:22.000Z</time></trkpt>
        <trkpt lat="28.68982" lon="105.081379"><ele>399.36017</ele><time>2026-07-22T00:57:31.000Z</time></trkpt>
        <trkpt lat="28.689807" lon="105.081394"><ele>400.02478</ele><time>2026-07-22T00:57:33.000Z</time></trkpt>
        <trkpt lat="28.689798" lon="105.081405"><ele>399.91995</ele><time>2026-07-22T00:57:35.000Z</time></trkpt>
        <trkpt lat="28.689798" lon="105.081404"><ele>399.5826</ele><time>2026-07-22T00:57:37.000Z</time></trkpt>
        <trkpt lat="28.689781" lon="105.081397"><ele>399.63654</ele><time>2026-07-22T00:57:43.000Z</time></trkpt>
        <trkpt lat="28.68977" lon="105.081392"><ele>399.9857</ele><time>2026-07-22T00:57:45.000Z</time></trkpt>
        <trkpt lat="28.689769" lon="105.081392"><ele>400.26694</ele><time>2026-07-22T00:57:47.000Z</time></trkpt>
        <trkpt lat="28.689748" lon="105.081397"><ele>400.4788</ele><time>2026-07-22T00:57:49.000Z</time></trkpt>
        <trkpt lat="28.689744" lon="105.0814"><ele>401.2177</ele><time>2026-07-22T00:57:53.000Z</time></trkpt>
        <trkpt lat="28.689732" lon="105.081409"><ele>401.70544</ele><time>2026-07-22T00:57:55.000Z</time></trkpt>
        <trkpt lat="28.689709" lon="105.081426"><ele>402.7647</ele><time>2026-07-22T00:57:57.000Z</time></trkpt>
        <trkpt lat="28.689681" lon="105.081444"><ele>402.70767</ele><time>2026-07-22T00:57:59.000Z</time></trkpt>
        <trkpt lat="28.689654" lon="105.08146"><ele>402.93787</ele><time>2026-07-22T00:58:01.000Z</time></trkpt>
        <trkpt lat="28.689632" lon="105.081472"><ele>402.82245</ele><time>2026-07-22T00:58:03.000Z</time></trkpt>
        <trkpt lat="28.689612" lon="105.081479"><ele>403.13272</ele><time>2026-07-22T00:58:05.000Z</time></trkpt>
        <trkpt lat="28.689593" lon="105.081482"><ele>403.57904</ele><time>2026-07-22T00:58:07.000Z</time></trkpt>
        <trkpt lat="28.689573" lon="105.081482"><ele>403.71307</ele><time>2026-07-22T00:58:09.000Z</time></trkpt>
        <trkpt lat="28.689549" lon="105.081479"><ele>404.43256</ele><time>2026-07-22T00:58:11.000Z</time></trkpt>
        <trkpt lat="28.68953" lon="105.081476"><ele>404.20383</ele><time>2026-07-22T00:58:13.000Z</time></trkpt>
        <trkpt lat="28.68951" lon="105.081474"><ele>403.8107</ele><time>2026-07-22T00:58:15.000Z</time></trkpt>
        <trkpt lat="28.689493" lon="105.081473"><ele>404.0998</ele><time>2026-07-22T00:58:17.000Z</time></trkpt>
        <trkpt lat="28.689475" lon="105.081469"><ele>402.8086</ele><time>2026-07-22T00:58:19.000Z</time></trkpt>
        <trkpt lat="28.689457" lon="105.081464"><ele>403.48743</ele><time>2026-07-22T00:58:21.000Z</time></trkpt>
        <trkpt lat="28.689436" lon="105.08146"><ele>404.27625</ele><time>2026-07-22T00:58:23.000Z</time></trkpt>
        <trkpt lat="28.689423" lon="105.081462"><ele>405.26398</ele><time>2026-07-22T00:58:25.000Z</time></trkpt>
        <trkpt lat="28.689412" lon="105.081469"><ele>405.3085</ele><time>2026-07-22T00:58:27.000Z</time></trkpt>
        <trkpt lat="28.689403" lon="105.081478"><ele>405.86063</ele><time>2026-07-22T00:58:29.000Z</time></trkpt>
        <trkpt lat="28.689399" lon="105.081486"><ele>406.07416</ele><time>2026-07-22T00:58:31.000Z</time></trkpt>
        <trkpt lat="28.689393" lon="105.081499"><ele>406.91623</ele><time>2026-07-22T00:58:33.000Z</time></trkpt>
        <trkpt lat="28.689386" lon="105.081505"><ele>405.82886</ele><time>2026-07-22T00:58:39.000Z</time></trkpt>
        <trkpt lat="28.689385" lon="105.081513"><ele>405.96698</ele><time>2026-07-22T00:58:43.000Z</time></trkpt>
        <trkpt lat="28.689392" lon="105.081458"><ele>406.38248</ele><time>2026-07-22T00:59:01.000Z</time></trkpt>
        <trkpt lat="28.689393" lon="105.081458"><ele>405.98004</ele><time>2026-07-22T00:59:03.000Z</time></trkpt>
        <trkpt lat="28.689404" lon="105.081453"><ele>406.2287</ele><time>2026-07-22T00:59:05.000Z</time></trkpt>
        <trkpt lat="28.689448" lon="105.081432"><ele>406.06842</ele><time>2026-07-22T00:59:13.000Z</time></trkpt>
        <trkpt lat="28.689448" lon="105.081432"><ele>405.80795</ele><time>2026-07-22T00:59:15.000Z</time></trkpt>
        <trkpt lat="28.689449" lon="105.081432"><ele>405.5796</ele><time>2026-07-22T00:59:17.000Z</time></trkpt>
        <trkpt lat="28.689491" lon="105.081433"><ele>403.688</ele><time>2026-07-22T00:59:22.000Z</time></trkpt>
        <trkpt lat="28.689491" lon="105.081433"><ele>404.54874</ele><time>2026-07-22T00:59:24.000Z</time></trkpt>
        <trkpt lat="28.689494" lon="105.081433"><ele>404.63364</ele><time>2026-07-22T00:59:26.000Z</time></trkpt>
        <trkpt lat="28.689538" lon="105.081421"><ele>404.48288</ele><time>2026-07-22T00:59:32.000Z</time></trkpt>
        <trkpt lat="28.689558" lon="105.081417"><ele>403.05087</ele><time>2026-07-22T00:59:34.000Z</time></trkpt>
        <trkpt lat="28.689581" lon="105.081412"><ele>402.59973</ele><time>2026-07-22T00:59:36.000Z</time></trkpt>
        <trkpt lat="28.689592" lon="105.081411"><ele>403.25925</ele><time>2026-07-22T00:59:38.000Z</time></trkpt>
        <trkpt lat="28.689595" lon="105.081409"><ele>403.53555</ele><time>2026-07-22T00:59:40.000Z</time></trkpt>
        <trkpt lat="28.689619" lon="105.081397"><ele>402.63022</ele><time>2026-07-22T00:59:48.000Z</time></trkpt>
        <trkpt lat="28.689639" lon="105.081388"><ele>401.9941</ele><time>2026-07-22T00:59:54.000Z</time></trkpt>
        <trkpt lat="28.689663" lon="105.081375"><ele>401.78662</ele><time>2026-07-22T00:59:56.000Z</time></trkpt>
        <trkpt lat="28.689691" lon="105.081359"><ele>401.65057</ele><time>2026-07-22T00:59:58.000Z</time></trkpt>
        <trkpt lat="28.689716" lon="105.081342"><ele>401.44308</ele><time>2026-07-22T01:00:00.000Z</time></trkpt>
        <trkpt lat="28.689739" lon="105.081329"><ele>400.99664</ele><time>2026-07-22T01:00:02.000Z</time></trkpt>
        <trkpt lat="28.689763" lon="105.081321"><ele>402.3079</ele><time>2026-07-22T01:00:04.000Z</time></trkpt>
        <trkpt lat="28.689775" lon="105.081322"><ele>401.76178</ele><time>2026-07-22T01:00:06.000Z</time></trkpt>
        <trkpt lat="28.689786" lon="105.081331"><ele>402.4664</ele><time>2026-07-22T01:00:08.000Z</time></trkpt>
        <trkpt lat="28.689795" lon="105.081342"><ele>402.42413</ele><time>2026-07-22T01:00:10.000Z</time></trkpt>
        <trkpt lat="28.689799" lon="105.081356"><ele>401.95337</ele><time>2026-07-22T01:00:12.000Z</time></trkpt>
        <trkpt lat="28.689798" lon="105.081366"><ele>401.52835</ele><time>2026-07-22T01:00:18.000Z</time></trkpt>
        <trkpt lat="28.689795" lon="105.081383"><ele>401.05563</ele><time>2026-07-22T01:00:40.000Z</time></trkpt>
        <trkpt lat="28.689834" lon="105.081367"><ele>400.9925</ele><time>2026-07-22T01:00:52.000Z</time></trkpt>
        <trkpt lat="28.689834" lon="105.081367"><ele>400.0869</ele><time>2026-07-22T01:00:54.000Z</time></trkpt>
        <trkpt lat="28.689853" lon="105.081357"><ele>401.13852</ele><time>2026-07-22T01:00:56.000Z</time></trkpt>
        <trkpt lat="28.689876" lon="105.081346"><ele>398.75278</ele><time>2026-07-22T01:01:04.000Z</time></trkpt>
        <trkpt lat="28.689892" lon="105.081339"><ele>398.41995</ele><time>2026-07-22T01:01:06.000Z</time></trkpt>
        <trkpt lat="28.689904" lon="105.081333"><ele>398.51575</ele><time>2026-07-22T01:01:08.000Z</time></trkpt>
        <trkpt lat="28.689905" lon="105.081328"><ele>399.69785</ele><time>2026-07-22T01:01:10.000Z</time></trkpt>
        <trkpt lat="28.68992" lon="105.081312"><ele>399.184</ele><time>2026-07-22T01:01:20.000Z</time></trkpt>
        <trkpt lat="28.689957" lon="105.081275"><ele>398.2284</ele><time>2026-07-22T01:01:22.000Z</time></trkpt>
        <trkpt lat="28.68996" lon="105.081273"><ele>397.86438</ele><time>2026-07-22T01:01:24.000Z</time></trkpt>
        <trkpt lat="28.68997" lon="105.081267"><ele>397.61444</ele><time>2026-07-22T01:01:26.000Z</time></trkpt>
        <trkpt lat="28.690012" lon="105.081244"><ele>396.82507</ele><time>2026-07-22T01:01:28.000Z</time></trkpt>
        <trkpt lat="28.690214" lon="105.081136"><ele>396.28824</ele><time>2026-07-22T01:01:30.000Z</time></trkpt>
        <trkpt lat="28.690229" lon="105.081129"><ele>394.92313</ele><time>2026-07-22T01:01:32.000Z</time></trkpt>
        <trkpt lat="28.690245" lon="105.081123"><ele>394.18427</ele><time>2026-07-22T01:01:34.000Z</time></trkpt>
        <trkpt lat="28.690313" lon="105.0811"><ele>393.22107</ele><time>2026-07-22T01:01:36.000Z</time></trkpt>
        <trkpt lat="28.69044" lon="105.081055"><ele>391.9178</ele><time>2026-07-22T01:01:38.000Z</time></trkpt>
        <trkpt lat="28.690584" lon="105.080992"><ele>390.48065</ele><time>2026-07-22T01:01:40.000Z</time></trkpt>
        <trkpt lat="28.690713" lon="105.080936"><ele>390.03296</ele><time>2026-07-22T01:01:42.000Z</time></trkpt>
        <trkpt lat="28.690785" lon="105.080826"><ele>389.0811</ele><time>2026-07-22T01:01:44.000Z</time></trkpt>
        <trkpt lat="28.690788" lon="105.080817"><ele>388.85938</ele><time>2026-07-22T01:01:46.000Z</time></trkpt>
        <trkpt lat="28.690793" lon="105.0808"><ele>377.4485</ele><time>2026-07-22T01:01:48.000Z</time></trkpt>
        <trkpt lat="28.690814" lon="105.080725"><ele>378.78928</ele><time>2026-07-22T01:01:50.000Z</time></trkpt>
        <trkpt lat="28.690899" lon="105.080425"><ele>377.58112</ele><time>2026-07-22T01:01:52.000Z</time></trkpt>
        <trkpt lat="28.690906" lon="105.080404"><ele>376.8492</ele><time>2026-07-22T01:01:54.000Z</time></trkpt>
        <trkpt lat="28.690911" lon="105.080391"><ele>375.52658</ele><time>2026-07-22T01:01:56.000Z</time></trkpt>
        <trkpt lat="28.69093" lon="105.08034"><ele>374.41592</ele><time>2026-07-22T01:01:58.000Z</time></trkpt>
        <trkpt lat="28.691014" lon="105.080119"><ele>373.78714</ele><time>2026-07-22T01:02:00.000Z</time></trkpt>
        <trkpt lat="28.691019" lon="105.080103"><ele>372.76273</ele><time>2026-07-22T01:02:02.000Z</time></trkpt>
        <trkpt lat="28.691022" lon="105.080091"><ele>371.6861</ele><time>2026-07-22T01:02:04.000Z</time></trkpt>
        <trkpt lat="28.691032" lon="105.080051"><ele>371.95285</ele><time>2026-07-22T01:02:06.000Z</time></trkpt>
        <trkpt lat="28.691047" lon="105.079996"><ele>371.69516</ele><time>2026-07-22T01:02:08.000Z</time></trkpt>
        <trkpt lat="28.691062" lon="105.079953"><ele>371.22284</ele><time>2026-07-22T01:02:10.000Z</time></trkpt>
        <trkpt lat="28.691073" lon="105.079928"><ele>371.071</ele><time>2026-07-22T01:02:12.000Z</time></trkpt>
        <trkpt lat="28.69108" lon="105.079917"><ele>370.55045</ele><time>2026-07-22T01:02:14.000Z</time></trkpt>
        <trkpt lat="28.691086" lon="105.07991"><ele>370.0493</ele><time>2026-07-22T01:02:16.000Z</time></trkpt>
        <trkpt lat="28.691091" lon="105.079901"><ele>369.97467</ele><time>2026-07-22T01:02:18.000Z</time></trkpt>
        <trkpt lat="28.691095" lon="105.07989"><ele>369.81232</ele><time>2026-07-22T01:02:20.000Z</time></trkpt>
        <trkpt lat="28.691098" lon="105.079875"><ele>369.91562</ele><time>2026-07-22T01:02:22.000Z</time></trkpt>
        <trkpt lat="28.6911" lon="105.079855"><ele>369.4397</ele><time>2026-07-22T01:02:24.000Z</time></trkpt>
        <trkpt lat="28.691104" lon="105.079832"><ele>369.9602</ele><time>2026-07-22T01:02:26.000Z</time></trkpt>
        <trkpt lat="28.691109" lon="105.079809"><ele>370.3041</ele><time>2026-07-22T01:02:28.000Z</time></trkpt>
        <trkpt lat="28.691115" lon="105.079785"><ele>370.92133</ele><time>2026-07-22T01:02:30.000Z</time></trkpt>
        <trkpt lat="28.691122" lon="105.079762"><ele>371.002</ele><time>2026-07-22T01:02:32.000Z</time></trkpt>
        <trkpt lat="28.69113" lon="105.079741"><ele>370.2577</ele><time>2026-07-22T01:02:34.000Z</time></trkpt>
        <trkpt lat="28.691135" lon="105.07972"><ele>370.58636</ele><time>2026-07-22T01:02:36.000Z</time></trkpt>
        <trkpt lat="28.691145" lon="105.079699"><ele>371.75586</ele><time>2026-07-22T01:02:38.000Z</time></trkpt>
        <trkpt lat="28.691155" lon="105.079688"><ele>372.78873</ele><time>2026-07-22T01:02:40.000Z</time></trkpt>
        <trkpt lat="28.691172" lon="105.079673"><ele>373.27902</ele><time>2026-07-22T01:02:42.000Z</time></trkpt>
        <trkpt lat="28.691191" lon="105.079658"><ele>373.05566</ele><time>2026-07-22T01:02:44.000Z</time></trkpt>
        <trkpt lat="28.691211" lon="105.079643"><ele>372.88373</ele><time>2026-07-22T01:02:46.000Z</time></trkpt>
        <trkpt lat="28.691227" lon="105.079631"><ele>372.84363</ele><time>2026-07-22T01:02:48.000Z</time></trkpt>
        <trkpt lat="28.691244" lon="105.079622"><ele>373.17606</ele><time>2026-07-22T01:02:50.000Z</time></trkpt>
        <trkpt lat="28.691258" lon="105.079619"><ele>373.84787</ele><time>2026-07-22T01:02:52.000Z</time></trkpt>
        <trkpt lat="28.691269" lon="105.079619"><ele>375.02036</ele><time>2026-07-22T01:02:54.000Z</time></trkpt>
        <trkpt lat="28.691273" lon="105.079616"><ele>375.75604</ele><time>2026-07-22T01:02:56.000Z</time></trkpt>
        <trkpt lat="28.691277" lon="105.0796"><ele>376.93988</ele><time>2026-07-22T01:03:23.000Z</time></trkpt>
        <trkpt lat="28.691283" lon="105.079574"><ele>376.3784</ele><time>2026-07-22T01:03:27.000Z</time></trkpt>
        <trkpt lat="28.691283" lon="105.079574"><ele>376.00928</ele><time>2026-07-22T01:03:29.000Z</time></trkpt>
        <trkpt lat="28.691298" lon="105.079558"><ele>377.69385</ele><time>2026-07-22T01:03:35.000Z</time></trkpt>
        <trkpt lat="28.691309" lon="105.079546"><ele>377.03964</ele><time>2026-07-22T01:03:39.000Z</time></trkpt>
        <trkpt lat="28.69131" lon="105.079545"><ele>377.16824</ele><time>2026-07-22T01:03:41.000Z</time></trkpt>
        <trkpt lat="28.691241" lon="105.079651"><ele>378.11563</ele><time>2026-07-22T01:04:50.000Z</time></trkpt>
        <trkpt lat="28.691171" lon="105.079705"><ele>375.04208</ele><time>2026-07-22T01:05:06.000Z</time></trkpt>
        <trkpt lat="28.691173" lon="105.079736"><ele>374.94412</ele><time>2026-07-22T01:05:08.000Z</time></trkpt>
        <trkpt lat="28.691172" lon="105.079737"><ele>374.57263</ele><time>2026-07-22T01:05:10.000Z</time></trkpt>
        <trkpt lat="28.691171" lon="105.079739"><ele>374.50058</ele><time>2026-07-22T01:05:12.000Z</time></trkpt>
        <trkpt lat="28.691161" lon="105.079763"><ele>375.15884</ele><time>2026-07-22T01:05:16.000Z</time></trkpt>
        <trkpt lat="28.691163" lon="105.079771"><ele>373.56302</ele><time>2026-07-22T01:05:18.000Z</time></trkpt>
        <trkpt lat="28.691169" lon="105.079785"><ele>374.00598</ele><time>2026-07-22T01:05:20.000Z</time></trkpt>
        <trkpt lat="28.691173" lon="105.079786"><ele>373.46582</ele><time>2026-07-22T01:05:22.000Z</time></trkpt>
        <trkpt lat="28.691136" lon="105.07978"><ele>372.7925</ele><time>2026-07-22T01:05:34.000Z</time></trkpt>
        <trkpt lat="28.69114" lon="105.079806"><ele>372.77823</ele><time>2026-07-22T01:05:36.000Z</time></trkpt>
        <trkpt lat="28.691141" lon="105.079807"><ele>373.07468</ele><time>2026-07-22T01:05:38.000Z</time></trkpt>
        <trkpt lat="28.691144" lon="105.07982"><ele>372.74274</ele><time>2026-07-22T01:05:42.000Z</time></trkpt>
        <trkpt lat="28.691148" lon="105.079835"><ele>372.3947</ele><time>2026-07-22T01:05:44.000Z</time></trkpt>
        <trkpt lat="28.691151" lon="105.079852"><ele>372.58167</ele><time>2026-07-22T01:05:46.000Z</time></trkpt>
        <trkpt lat="28.691154" lon="105.079869"><ele>372.23508</ele><time>2026-07-22T01:05:48.000Z</time></trkpt>
        <trkpt lat="28.691156" lon="105.079882"><ele>372.17996</ele><time>2026-07-22T01:05:50.000Z</time></trkpt>
        <trkpt lat="28.691159" lon="105.079894"><ele>371.98694</ele><time>2026-07-22T01:05:52.000Z</time></trkpt>
        <trkpt lat="28.691162" lon="105.079904"><ele>371.98172</ele><time>2026-07-22T01:05:54.000Z</time></trkpt>
        <trkpt lat="28.691165" lon="105.079914"><ele>371.36435</ele><time>2026-07-22T01:05:56.000Z</time></trkpt>
        <trkpt lat="28.691167" lon="105.079924"><ele>370.60745</ele><time>2026-07-22T01:05:58.000Z</time></trkpt>
        <trkpt lat="28.69117" lon="105.079934"><ele>371.0537</ele><time>2026-07-22T01:06:00.000Z</time></trkpt>
        <trkpt lat="28.691171" lon="105.079944"><ele>370.90854</ele><time>2026-07-22T01:06:04.000Z</time></trkpt>
        <trkpt lat="28.691168" lon="105.079946"><ele>370.7112</ele><time>2026-07-22T01:06:08.000Z</time></trkpt>
        <trkpt lat="28.691143" lon="105.079966"><ele>370.49194</ele><time>2026-07-22T01:06:12.000Z</time></trkpt>
        <trkpt lat="28.691143" lon="105.079966"><ele>369.32977</ele><time>2026-07-22T01:06:14.000Z</time></trkpt>
        <trkpt lat="28.691143" lon="105.079966"><ele>370.11365</ele><time>2026-07-22T01:06:16.000Z</time></trkpt>
        <trkpt lat="28.691144" lon="105.07999"><ele>369.3425</ele><time>2026-07-22T01:06:28.000Z</time></trkpt>
        <trkpt lat="28.691143" lon="105.080002"><ele>369.36655</ele><time>2026-07-22T01:06:30.000Z</time></trkpt>
        <trkpt lat="28.69114" lon="105.080036"><ele>369.99377</ele><time>2026-07-22T01:06:32.000Z</time></trkpt>
        <trkpt lat="28.691129" lon="105.08015"><ele>370.8626</ele><time>2026-07-22T01:06:35.000Z</time></trkpt>
        <trkpt lat="28.691129" lon="105.080151"><ele>370.9512</ele><time>2026-07-22T01:06:37.000Z</time></trkpt>
        <trkpt lat="28.691135" lon="105.080154"><ele>371.83505</ele><time>2026-07-22T01:06:39.000Z</time></trkpt>
        <trkpt lat="28.69123" lon="105.080212"><ele>374.57843</ele><time>2026-07-22T01:06:43.000Z</time></trkpt>
        <trkpt lat="28.691387" lon="105.080307"><ele>376.15244</ele><time>2026-07-22T01:06:45.000Z</time></trkpt>
        <trkpt lat="28.691397" lon="105.080316"><ele>377.64853</ele><time>2026-07-22T01:06:47.000Z</time></trkpt>
        <trkpt lat="28.691402" lon="105.080327"><ele>379.82062</ele><time>2026-07-22T01:06:49.000Z</time></trkpt>
        <trkpt lat="28.691425" lon="105.080377"><ele>382.69812</ele><time>2026-07-22T01:06:51.000Z</time></trkpt>
        <trkpt lat="28.691427" lon="105.080483"><ele>384.89465</ele><time>2026-07-22T01:06:53.000Z</time></trkpt>
        <trkpt lat="28.691386" lon="105.080619"><ele>387.00018</ele><time>2026-07-22T01:06:55.000Z</time></trkpt>
        <trkpt lat="28.691348" lon="105.080744"><ele>388.33154</ele><time>2026-07-22T01:06:57.000Z</time></trkpt>
        <trkpt lat="28.691272" lon="105.080883"><ele>385.40878</ele><time>2026-07-22T01:06:58.000Z</time></trkpt>
        <trkpt lat="28.691213" lon="105.081013"><ele>386.45398</ele><time>2026-07-22T01:07:00.000Z</time></trkpt>
        <trkpt lat="28.691168" lon="105.081135"><ele>389.12042</ele><time>2026-07-22T01:07:02.000Z</time></trkpt>
        <trkpt lat="28.691142" lon="105.081227"><ele>390.05997</ele><time>2026-07-22T01:07:05.000Z</time></trkpt>
        <trkpt lat="28.691121" lon="105.081298"><ele>392.54074</ele><time>2026-07-22T01:07:07.000Z</time></trkpt>
        <trkpt lat="28.691093" lon="105.081366"><ele>393.42612</ele><time>2026-07-22T01:07:09.000Z</time></trkpt>
        <trkpt lat="28.691051" lon="105.081451"><ele>394.98077</ele><time>2026-07-22T01:07:11.000Z</time></trkpt>
        <trkpt lat="28.690994" lon="105.081547"><ele>397.78455</ele><time>2026-07-22T01:07:13.000Z</time></trkpt>
        <trkpt lat="28.690923" lon="105.081646"><ele>400.2426</ele><time>2026-07-22T01:07:15.000Z</time></trkpt>
        <trkpt lat="28.690852" lon="105.081746"><ele>403.74417</ele><time>2026-07-22T01:07:17.000Z</time></trkpt>
        <trkpt lat="28.690747" lon="105.08181"><ele>407.23367</ele><time>2026-07-22T01:07:19.000Z</time></trkpt>
        <trkpt lat="28.690637" lon="105.08187"><ele>410.68576</ele><time>2026-07-22T01:07:21.000Z</time></trkpt>
        <trkpt lat="28.690523" lon="105.081936"><ele>412.13876</ele><time>2026-07-22T01:07:23.000Z</time></trkpt>
        <trkpt lat="28.690409" lon="105.082003"><ele>413.82355</ele><time>2026-07-22T01:07:25.000Z</time></trkpt>
        <trkpt lat="28.690317" lon="105.082092"><ele>415.54288</ele><time>2026-07-22T01:07:27.000Z</time></trkpt>
        <trkpt lat="28.690253" lon="105.082205"><ele>417.85638</ele><time>2026-07-22T01:07:29.000Z</time></trkpt>
        <trkpt lat="28.690235" lon="105.082318"><ele>419.21252</ele><time>2026-07-22T01:07:31.000Z</time></trkpt>
        <trkpt lat="28.690229" lon="105.082429"><ele>420.131</ele><time>2026-07-22T01:07:33.000Z</time></trkpt>
        <trkpt lat="28.690233" lon="105.08252"><ele>421.28485</ele><time>2026-07-22T01:07:35.000Z</time></trkpt>
        <trkpt lat="28.690236" lon="105.082595"><ele>422.5195</ele><time>2026-07-22T01:07:37.000Z</time></trkpt>
        <trkpt lat="28.69023" lon="105.082668"><ele>425.56696</ele><time>2026-07-22T01:07:39.000Z</time></trkpt>
        <trkpt lat="28.690217" lon="105.082715"><ele>425.1336</ele><time>2026-07-22T01:07:41.000Z</time></trkpt>
        <trkpt lat="28.6902" lon="105.082766"><ele>425.66565</ele><time>2026-07-22T01:07:43.000Z</time></trkpt>
        <trkpt lat="28.690184" lon="105.082812"><ele>425.65717</ele><time>2026-07-22T01:07:45.000Z</time></trkpt>
        <trkpt lat="28.69022" lon="105.083283"><ele>431.7389</ele><time>2026-07-22T01:07:47.000Z</time></trkpt>
        <trkpt lat="28.690223" lon="105.083324"><ele>434.88507</ele><time>2026-07-22T01:07:50.000Z</time></trkpt>
        <trkpt lat="28.690195" lon="105.083371"><ele>435.769</ele><time>2026-07-22T01:07:52.000Z</time></trkpt>
        <trkpt lat="28.690139" lon="105.083483"><ele>435.05328</ele><time>2026-07-22T01:07:54.000Z</time></trkpt>
        <trkpt lat="28.690066" lon="105.083629"><ele>434.44672</ele><time>2026-07-22T01:07:56.000Z</time></trkpt>
        <trkpt lat="28.690013" lon="105.083806"><ele>435.8869</ele><time>2026-07-22T01:07:58.000Z</time></trkpt>
        <trkpt lat="28.689961" lon="105.083985"><ele>438.27524</ele><time>2026-07-22T01:08:00.000Z</time></trkpt>
        <trkpt lat="28.689916" lon="105.084158"><ele>441.0822</ele><time>2026-07-22T01:08:02.000Z</time></trkpt>
        <trkpt lat="28.689873" lon="105.084325"><ele>443.88583</ele><time>2026-07-22T01:08:04.000Z</time></trkpt>
        <trkpt lat="28.689867" lon="105.084487"><ele>450.18787</ele><time>2026-07-22T01:08:06.000Z</time></trkpt>
        <trkpt lat="28.68987" lon="105.084626"><ele>452.25024</ele><time>2026-07-22T01:08:08.000Z</time></trkpt>
        <trkpt lat="28.689874" lon="105.084771"><ele>454.0523</ele><time>2026-07-22T01:08:10.000Z</time></trkpt>
        <trkpt lat="28.689915" lon="105.0849"><ele>455.09512</ele><time>2026-07-22T01:08:12.000Z</time></trkpt>
        <trkpt lat="28.689966" lon="105.085017"><ele>455.23743</ele><time>2026-07-22T01:08:14.000Z</time></trkpt>
        <trkpt lat="28.690016" lon="105.08513"><ele>456.07477</ele><time>2026-07-22T01:08:16.000Z</time></trkpt>
        <trkpt lat="28.690056" lon="105.085233"><ele>456.09076</ele><time>2026-07-22T01:08:18.000Z</time></trkpt>
        <trkpt lat="28.690091" lon="105.085333"><ele>455.60492</ele><time>2026-07-22T01:08:20.000Z</time></trkpt>
        <trkpt lat="28.690121" lon="105.085425"><ele>454.32794</ele><time>2026-07-22T01:08:22.000Z</time></trkpt>
        <trkpt lat="28.690141" lon="105.08549"><ele>452.0457</ele><time>2026-07-22T01:08:24.000Z</time></trkpt>
        <trkpt lat="28.690153" lon="105.085546"><ele>451.51657</ele><time>2026-07-22T01:08:26.000Z</time></trkpt>
        <trkpt lat="28.690154" lon="105.085605"><ele>451.65536</ele><time>2026-07-22T01:08:28.000Z</time></trkpt>
        <trkpt lat="28.690155" lon="105.085651"><ele>451.38464</ele><time>2026-07-22T01:08:30.000Z</time></trkpt>
        <trkpt lat="28.690128" lon="105.085667"><ele>450.89368</ele><time>2026-07-22T01:08:32.000Z</time></trkpt>
        <trkpt lat="28.690101" lon="105.08567"><ele>450.68884</ele><time>2026-07-22T01:08:34.000Z</time></trkpt>
        <trkpt lat="28.690061" lon="105.085662"><ele>449.6035</ele><time>2026-07-22T01:08:36.000Z</time></trkpt>
        <trkpt lat="28.689995" lon="105.085648"><ele>450.09433</ele><time>2026-07-22T01:08:38.000Z</time></trkpt>
        <trkpt lat="28.689934" lon="105.085594"><ele>450.9165</ele><time>2026-07-22T01:08:40.000Z</time></trkpt>
        <trkpt lat="28.689846" lon="105.085374"><ele>451.81656</ele><time>2026-07-22T01:08:42.000Z</time></trkpt>
        <trkpt lat="28.689842" lon="105.085363"><ele>451.94867</ele><time>2026-07-22T01:08:44.000Z</time></trkpt>
        <trkpt lat="28.689831" lon="105.085333"><ele>450.7103</ele><time>2026-07-22T01:08:46.000Z</time></trkpt>
        <trkpt lat="28.68979" lon="105.085202"><ele>450.099</ele><time>2026-07-22T01:08:48.000Z</time></trkpt>
        <trkpt lat="28.689633" lon="105.084703"><ele>448.63647</ele><time>2026-07-22T01:08:50.000Z</time></trkpt>
        <trkpt lat="28.689626" lon="105.084674"><ele>446.76462</ele><time>2026-07-22T01:08:52.000Z</time></trkpt>
        <trkpt lat="28.68962" lon="105.084648"><ele>444.26443</ele><time>2026-07-22T01:08:54.000Z</time></trkpt>
        <trkpt lat="28.689594" lon="105.084543"><ele>440.99387</ele><time>2026-07-22T01:08:56.000Z</time></trkpt>
        <trkpt lat="28.6894" lon="105.084136"><ele>438.94333</ele><time>2026-07-22T01:08:58.000Z</time></trkpt>
        <trkpt lat="28.689383" lon="105.084114"><ele>436.6632</ele><time>2026-07-22T01:09:00.000Z</time></trkpt>
        <trkpt lat="28.68936" lon="105.084096"><ele>433.61362</ele><time>2026-07-22T01:09:02.000Z</time></trkpt>
        <trkpt lat="28.689262" lon="105.084022"><ele>430.6096</ele><time>2026-07-22T01:09:04.000Z</time></trkpt>
        <trkpt lat="28.688862" lon="105.083722"><ele>427.57364</ele><time>2026-07-22T01:09:06.000Z</time></trkpt>
        <trkpt lat="28.688837" lon="105.083698"><ele>425.66507</ele><time>2026-07-22T01:09:08.000Z</time></trkpt>
        <trkpt lat="28.688823" lon="105.083677"><ele>423.4694</ele><time>2026-07-22T01:09:10.000Z</time></trkpt>
        <trkpt lat="28.688778" lon="105.083605"><ele>421.90262</ele><time>2026-07-22T01:09:12.000Z</time></trkpt>
        <trkpt lat="28.688668" lon="105.083424"><ele>422.30264</ele><time>2026-07-22T01:09:14.000Z</time></trkpt>
        <trkpt lat="28.688661" lon="105.083411"><ele>422.82706</ele><time>2026-07-22T01:09:16.000Z</time></trkpt>
        <trkpt lat="28.688657" lon="105.083403"><ele>420.7107</ele><time>2026-07-22T01:09:18.000Z</time></trkpt>
        <trkpt lat="28.688634" lon="105.083358"><ele>419.7093</ele><time>2026-07-22T01:09:20.000Z</time></trkpt>
        <trkpt lat="28.688574" lon="105.083241"><ele>421.17587</ele><time>2026-07-22T01:09:22.000Z</time></trkpt>
        <trkpt lat="28.688494" lon="105.083098"><ele>421.53195</ele><time>2026-07-22T01:09:24.000Z</time></trkpt>
        <trkpt lat="28.688406" lon="105.082954"><ele>422.66147</ele><time>2026-07-22T01:09:26.000Z</time></trkpt>
        <trkpt lat="28.688323" lon="105.082822"><ele>423.9095</ele><time>2026-07-22T01:09:28.000Z</time></trkpt>
        <trkpt lat="28.688264" lon="105.082733"><ele>425.63437</ele><time>2026-07-22T01:09:30.000Z</time></trkpt>
        <trkpt lat="28.688232" lon="105.082687"><ele>426.58963</ele><time>2026-07-22T01:09:32.000Z</time></trkpt>
        <trkpt lat="28.688222" lon="105.082671"><ele>426.28964</ele><time>2026-07-22T01:09:34.000Z</time></trkpt>
        <trkpt lat="28.688224" lon="105.082673"><ele>426.42844</ele><time>2026-07-22T01:09:36.000Z</time></trkpt>
        <trkpt lat="28.688261" lon="105.082701"><ele>425.1461</ele><time>2026-07-22T01:09:50.000Z</time></trkpt>
        <trkpt lat="28.688267" lon="105.082706"><ele>425.68552</ele><time>2026-07-22T01:09:52.000Z</time></trkpt>
        <trkpt lat="28.688273" lon="105.08271"><ele>425.1912</ele><time>2026-07-22T01:09:54.000Z</time></trkpt>
        <trkpt lat="28.688297" lon="105.082725"><ele>424.62646</ele><time>2026-07-22T01:09:58.000Z</time></trkpt>
        <trkpt lat="28.688297" lon="105.082725"><ele>423.65073</ele><time>2026-07-22T01:10:00.000Z</time></trkpt>
        <trkpt lat="28.6883" lon="105.082724"><ele>422.4335</ele><time>2026-07-22T01:10:02.000Z</time></trkpt>
        <trkpt lat="28.688345" lon="105.082703"><ele>422.1353</ele><time>2026-07-22T01:10:06.000Z</time></trkpt>
        <trkpt lat="28.688375" lon="105.082693"><ele>421.83823</ele><time>2026-07-22T01:10:08.000Z</time></trkpt>
        <trkpt lat="28.688404" lon="105.082686"><ele>422.53394</ele><time>2026-07-22T01:10:10.000Z</time></trkpt>
        <trkpt lat="28.688428" lon="105.082682"><ele>422.5015</ele><time>2026-07-22T01:10:12.000Z</time></trkpt>
        <trkpt lat="28.68844" lon="105.082678"><ele>422.38498</ele><time>2026-07-22T01:10:14.000Z</time></trkpt>
        <trkpt lat="28.688441" lon="105.082673"><ele>422.9793</ele><time>2026-07-22T01:10:16.000Z</time></trkpt>
        <trkpt lat="28.688442" lon="105.08265"><ele>423.31638</ele><time>2026-07-22T01:10:18.000Z</time></trkpt>
        <trkpt lat="28.688441" lon="105.082638"><ele>422.7295</ele><time>2026-07-22T01:10:20.000Z</time></trkpt>
        <trkpt lat="28.688439" lon="105.08263"><ele>423.2354</ele><time>2026-07-22T01:10:22.000Z</time></trkpt>
        <trkpt lat="28.688438" lon="105.082627"><ele>423.0973</ele><time>2026-07-22T01:10:26.000Z</time></trkpt>
        <trkpt lat="28.688448" lon="105.082663"><ele>423.57608</ele><time>2026-07-22T01:10:42.000Z</time></trkpt>
        <trkpt lat="28.688449" lon="105.082668"><ele>423.59583</ele><time>2026-07-22T01:10:44.000Z</time></trkpt>
        <trkpt lat="28.688449" lon="105.082668"><ele>423.48602</ele><time>2026-07-22T01:10:46.000Z</time></trkpt>
        <trkpt lat="28.688408" lon="105.082672"><ele>421.85974</ele><time>2026-07-22T01:11:16.000Z</time></trkpt>
        <trkpt lat="28.688408" lon="105.082672"><ele>422.93527</ele><time>2026-07-22T01:11:18.000Z</time></trkpt>
        <trkpt lat="28.688386" lon="105.082703"><ele>423.29626</ele><time>2026-07-22T01:11:20.000Z</time></trkpt>
        <trkpt lat="28.688384" lon="105.082705"><ele>424.328</ele><time>2026-07-22T01:11:22.000Z</time></trkpt>
        <trkpt lat="28.688381" lon="105.082708"><ele>423.2357</ele><time>2026-07-22T01:11:24.000Z</time></trkpt>
        <trkpt lat="28.688348" lon="105.082733"><ele>425.23236</ele><time>2026-07-22T01:11:28.000Z</time></trkpt>
        <trkpt lat="28.688333" lon="105.082741"><ele>424.92773</ele><time>2026-07-22T01:11:30.000Z</time></trkpt>
        <trkpt lat="28.68832" lon="105.082745"><ele>425.08954</ele><time>2026-07-22T01:11:32.000Z</time></trkpt>
        <trkpt lat="28.68831" lon="105.082744"><ele>424.77008</ele><time>2026-07-22T01:11:34.000Z</time></trkpt>
        <trkpt lat="28.688301" lon="105.082741"><ele>425.1397</ele><time>2026-07-22T01:11:36.000Z</time></trkpt>
        <trkpt lat="28.688293" lon="105.082737"><ele>425.21548</ele><time>2026-07-22T01:11:38.000Z</time></trkpt>
        <trkpt lat="28.688279" lon="105.082732"><ele>426.8106</ele><time>2026-07-22T01:11:42.000Z</time></trkpt>
        <trkpt lat="28.688272" lon="105.082731"><ele>427.33282</ele><time>2026-07-22T01:11:44.000Z</time></trkpt>
        <trkpt lat="28.688264" lon="105.082733"><ele>427.30118</ele><time>2026-07-22T01:11:46.000Z</time></trkpt>
        <trkpt lat="28.688262" lon="105.082731"><ele>428.01642</ele><time>2026-07-22T01:11:48.000Z</time></trkpt>
        <trkpt lat="28.688289" lon="105.082765"><ele>427.59116</ele><time>2026-07-22T01:11:54.000Z</time></trkpt>
        <trkpt lat="28.688289" lon="105.082765"><ele>427.34375</ele><time>2026-07-22T01:11:56.000Z</time></trkpt>
        <trkpt lat="28.688288" lon="105.082765"><ele>427.35318</ele><time>2026-07-22T01:11:58.000Z</time></trkpt>
        <trkpt lat="28.688246" lon="105.082725"><ele>426.57175</ele><time>2026-07-22T01:12:08.000Z</time></trkpt>
        <trkpt lat="28.688055" lon="105.082542"><ele>427.53424</ele><time>2026-07-22T01:12:12.000Z</time></trkpt>
        <trkpt lat="28.688055" lon="105.082541"><ele>428.44516</ele><time>2026-07-22T01:12:14.000Z</time></trkpt>
        <trkpt lat="28.688037" lon="105.082524"><ele>430.58603</ele><time>2026-07-22T01:12:16.000Z</time></trkpt>
        <trkpt lat="28.687957" lon="105.082445"><ele>432.05627</ele><time>2026-07-22T01:12:18.000Z</time></trkpt>
        <trkpt lat="28.687603" lon="105.082219"><ele>433.47098</ele><time>2026-07-22T01:12:20.000Z</time></trkpt>
        <trkpt lat="28.687575" lon="105.082209"><ele>434.7371</ele><time>2026-07-22T01:12:22.000Z</time></trkpt>
        <trkpt lat="28.687541" lon="105.082199"><ele>434.92493</ele><time>2026-07-22T01:12:24.000Z</time></trkpt>
        <trkpt lat="28.687411" lon="105.082161"><ele>434.70245</ele><time>2026-07-22T01:12:26.000Z</time></trkpt>
        <trkpt lat="28.68701" lon="105.081917"><ele>435.15674</ele><time>2026-07-22T01:12:28.000Z</time></trkpt>
        <trkpt lat="28.686991" lon="105.08189"><ele>437.3969</ele><time>2026-07-22T01:12:30.000Z</time></trkpt>
        <trkpt lat="28.68698" lon="105.081861"><ele>437.3989</ele><time>2026-07-22T01:12:32.000Z</time></trkpt>
        <trkpt lat="28.686933" lon="105.081739"><ele>437.05112</ele><time>2026-07-22T01:12:34.000Z</time></trkpt>
        <trkpt lat="28.686662" lon="105.081381"><ele>436.70877</ele><time>2026-07-22T01:12:36.000Z</time></trkpt>
        <trkpt lat="28.686641" lon="105.081361"><ele>437.6655</ele><time>2026-07-22T01:12:38.000Z</time></trkpt>
        <trkpt lat="28.686614" lon="105.08134"><ele>437.90704</ele><time>2026-07-22T01:12:40.000Z</time></trkpt>
        <trkpt lat="28.686515" lon="105.081246"><ele>437.3722</ele><time>2026-07-22T01:12:42.000Z</time></trkpt>
        <trkpt lat="28.686154" lon="105.0809"><ele>438.13553</ele><time>2026-07-22T01:12:44.000Z</time></trkpt>
        <trkpt lat="28.686135" lon="105.080871"><ele>438.96002</ele><time>2026-07-22T01:12:46.000Z</time></trkpt>
        <trkpt lat="28.686123" lon="105.080843"><ele>439.55304</ele><time>2026-07-22T01:12:48.000Z</time></trkpt>
        <trkpt lat="28.686062" lon="105.080719"><ele>441.6136</ele><time>2026-07-22T01:12:50.000Z</time></trkpt>
        <trkpt lat="28.685812" lon="105.080211"><ele>444.59033</ele><time>2026-07-22T01:12:52.000Z</time></trkpt>
        <trkpt lat="28.685791" lon="105.080179"><ele>446.11505</ele><time>2026-07-22T01:12:54.000Z</time></trkpt>
        <trkpt lat="28.685771" lon="105.080168"><ele>446.62927</ele><time>2026-07-22T01:12:56.000Z</time></trkpt>
        <trkpt lat="28.685681" lon="105.080115"><ele>447.4752</ele><time>2026-07-22T01:12:58.000Z</time></trkpt>
        <trkpt lat="28.685253" lon="105.080119"><ele>447.20493</ele><time>2026-07-22T01:13:00.000Z</time></trkpt>
        <trkpt lat="28.685231" lon="105.080126"><ele>448.08252</ele><time>2026-07-22T01:13:02.000Z</time></trkpt>
        <trkpt lat="28.685211" lon="105.080135"><ele>450.11325</ele><time>2026-07-22T01:13:04.000Z</time></trkpt>
        <trkpt lat="28.685129" lon="105.080173"><ele>450.70227</ele><time>2026-07-22T01:13:06.000Z</time></trkpt>
        <trkpt lat="28.684968" lon="105.080196"><ele>452.98822</ele><time>2026-07-22T01:13:08.000Z</time></trkpt>
        <trkpt lat="28.684629" lon="105.080033"><ele>453.43484</ele><time>2026-07-22T01:13:10.000Z</time></trkpt>
        <trkpt lat="28.684614" lon="105.08002"><ele>453.427</ele><time>2026-07-22T01:13:12.000Z</time></trkpt>
        <trkpt lat="28.684598" lon="105.080002"><ele>454.85205</ele><time>2026-07-22T01:13:14.000Z</time></trkpt>
        <trkpt lat="28.684517" lon="105.079925"><ele>458.28586</ele><time>2026-07-22T01:13:16.000Z</time></trkpt>
        <trkpt lat="28.684082" lon="105.07951"><ele>459.80197</ele><time>2026-07-22T01:13:18.000Z</time></trkpt>
        <trkpt lat="28.684053" lon="105.079485"><ele>459.86737</ele><time>2026-07-22T01:13:20.000Z</time></trkpt>
        <trkpt lat="28.684039" lon="105.079473"><ele>460.27768</ele><time>2026-07-22T01:13:22.000Z</time></trkpt>
        <trkpt lat="28.683992" lon="105.079417"><ele>459.5856</ele><time>2026-07-22T01:13:24.000Z</time></trkpt>
        <trkpt lat="28.683897" lon="105.079304"><ele>457.6267</ele><time>2026-07-22T01:13:26.000Z</time></trkpt>
        <trkpt lat="28.683823" lon="105.079123"><ele>456.13754</ele><time>2026-07-22T01:13:28.000Z</time></trkpt>
        <trkpt lat="28.683739" lon="105.078763"><ele>454.10437</ele><time>2026-07-22T01:13:30.000Z</time></trkpt>
        <trkpt lat="28.68373" lon="105.078744"><ele>452.86453</ele><time>2026-07-22T01:13:32.000Z</time></trkpt>
        <trkpt lat="28.683718" lon="105.078728"><ele>453.73904</ele><time>2026-07-22T01:13:34.000Z</time></trkpt>
        <trkpt lat="28.683653" lon="105.078661"><ele>454.04486</ele><time>2026-07-22T01:13:36.000Z</time></trkpt>
        <trkpt lat="28.683298" lon="105.078295"><ele>454.90628</ele><time>2026-07-22T01:13:38.000Z</time></trkpt>
        <trkpt lat="28.683277" lon="105.078269"><ele>456.3745</ele><time>2026-07-22T01:13:40.000Z</time></trkpt>
        <trkpt lat="28.683265" lon="105.078249"><ele>457.4952</ele><time>2026-07-22T01:13:42.000Z</time></trkpt>
        <trkpt lat="28.683223" lon="105.078157"><ele>457.516</ele><time>2026-07-22T01:13:44.000Z</time></trkpt>
        <trkpt lat="28.683002" lon="105.077677"><ele>457.92535</ele><time>2026-07-22T01:13:46.000Z</time></trkpt>
        <trkpt lat="28.682991" lon="105.077642"><ele>459.03873</ele><time>2026-07-22T01:13:48.000Z</time></trkpt>
        <trkpt lat="28.682985" lon="105.077614"><ele>459.97095</ele><time>2026-07-22T01:13:50.000Z</time></trkpt>
        <trkpt lat="28.682964" lon="105.077492"><ele>460.05286</ele><time>2026-07-22T01:13:52.000Z</time></trkpt>
        <trkpt lat="28.682875" lon="105.076964"><ele>458.47568</ele><time>2026-07-22T01:13:54.000Z</time></trkpt>
        <trkpt lat="28.682872" lon="105.076926"><ele>458.29153</ele><time>2026-07-22T01:13:56.000Z</time></trkpt>
        <trkpt lat="28.682873" lon="105.0769"><ele>455.9717</ele><time>2026-07-22T01:13:58.000Z</time></trkpt>
        <trkpt lat="28.682871" lon="105.076792"><ele>453.86032</ele><time>2026-07-22T01:14:00.000Z</time></trkpt>
        <trkpt lat="28.68286" lon="105.076326"><ele>450.91748</ele><time>2026-07-22T01:14:02.000Z</time></trkpt>
        <trkpt lat="28.682857" lon="105.076293"><ele>449.29294</ele><time>2026-07-22T01:14:04.000Z</time></trkpt>
        <trkpt lat="28.682853" lon="105.076268"><ele>447.20984</ele><time>2026-07-22T01:14:06.000Z</time></trkpt>
        <trkpt lat="28.682832" lon="105.076182"><ele>446.75754</ele><time>2026-07-22T01:14:08.000Z</time></trkpt>
        <trkpt lat="28.682768" lon="105.075926"><ele>446.36432</ele><time>2026-07-22T01:14:10.000Z</time></trkpt>
        <trkpt lat="28.682758" lon="105.075913"><ele>446.80173</ele><time>2026-07-22T01:14:12.000Z</time></trkpt>
        <trkpt lat="28.682753" lon="105.075913"><ele>446.7129</ele><time>2026-07-22T01:14:14.000Z</time></trkpt>
        <trkpt lat="28.682689" lon="105.075923"><ele>447.08972</ele><time>2026-07-22T01:14:16.000Z</time></trkpt>
        <trkpt lat="28.682539" lon="105.075948"><ele>448.49396</ele><time>2026-07-22T01:14:18.000Z</time></trkpt>
        <trkpt lat="28.682151" lon="105.076011"><ele>450.44833</ele><time>2026-07-22T01:14:20.000Z</time></trkpt>
        <trkpt lat="28.68213" lon="105.076017"><ele>451.06326</ele><time>2026-07-22T01:14:22.000Z</time></trkpt>
        <trkpt lat="28.682109" lon="105.076028"><ele>451.94748</ele><time>2026-07-22T01:14:24.000Z</time></trkpt>
        <trkpt lat="28.682017" lon="105.076077"><ele>451.45056</ele><time>2026-07-22T01:14:26.000Z</time></trkpt>
        <trkpt lat="28.681632" lon="105.076478"><ele>450.73907</ele><time>2026-07-22T01:14:28.000Z</time></trkpt>
        <trkpt lat="28.681614" lon="105.076509"><ele>448.61426</ele><time>2026-07-22T01:14:30.000Z</time></trkpt>
        <trkpt lat="28.681606" lon="105.076531"><ele>449.87817</ele><time>2026-07-22T01:14:32.000Z</time></trkpt>
        <trkpt lat="28.681558" lon="105.076622"><ele>451.25424</ele><time>2026-07-22T01:14:34.000Z</time></trkpt>
        <trkpt lat="28.681307" lon="105.077097"><ele>452.85147</ele><time>2026-07-22T01:14:36.000Z</time></trkpt>
        <trkpt lat="28.681292" lon="105.077129"><ele>452.65186</ele><time>2026-07-22T01:14:38.000Z</time></trkpt>
        <trkpt lat="28.681282" lon="105.077158"><ele>453.01794</ele><time>2026-07-22T01:14:40.000Z</time></trkpt>
        <trkpt lat="28.681241" lon="105.077277"><ele>452.93307</ele><time>2026-07-22T01:14:42.000Z</time></trkpt>
        <trkpt lat="28.681141" lon="105.07785"><ele>452.41534</ele><time>2026-07-22T01:14:44.000Z</time></trkpt>
        <trkpt lat="28.681131" lon="105.077889"><ele>452.74768</ele><time>2026-07-22T01:14:46.000Z</time></trkpt>
        <trkpt lat="28.681123" lon="105.077906"><ele>455.13437</ele><time>2026-07-22T01:14:48.000Z</time></trkpt>
        <trkpt lat="28.681082" lon="105.077982"><ele>455.77795</ele><time>2026-07-22T01:14:50.000Z</time></trkpt>
        <trkpt lat="28.680834" lon="105.078439"><ele>455.39346</ele><time>2026-07-22T01:14:52.000Z</time></trkpt>
        <trkpt lat="28.680815" lon="105.078471"><ele>457.26663</ele><time>2026-07-22T01:14:54.000Z</time></trkpt>
        <trkpt lat="28.680798" lon="105.07849"><ele>461.90994</ele><time>2026-07-22T01:14:56.000Z</time></trkpt>
        <trkpt lat="28.680721" lon="105.07857"><ele>464.53638</ele><time>2026-07-22T01:14:58.000Z</time></trkpt>
        <trkpt lat="28.680312" lon="105.078992"><ele>467.82407</ele><time>2026-07-22T01:15:00.000Z</time></trkpt>
        <trkpt lat="28.680281" lon="105.079021"><ele>468.7802</ele><time>2026-07-22T01:15:02.000Z</time></trkpt>
        <trkpt lat="28.68026" lon="105.079032"><ele>470.13412</ele><time>2026-07-22T01:15:04.000Z</time></trkpt>
        <trkpt lat="28.680165" lon="105.079069"><ele>471.5641</ele><time>2026-07-22T01:15:06.000Z</time></trkpt>
        <trkpt lat="28.679668" lon="105.079264"><ele>472.47867</ele><time>2026-07-22T01:15:08.000Z</time></trkpt>
        <trkpt lat="28.679632" lon="105.079279"><ele>471.9183</ele><time>2026-07-22T01:15:10.000Z</time></trkpt>
        <trkpt lat="28.679611" lon="105.079293"><ele>470.9483</ele><time>2026-07-22T01:15:12.000Z</time></trkpt>
        <trkpt lat="28.679523" lon="105.079348"><ele>468.714</ele><time>2026-07-22T01:15:14.000Z</time></trkpt>
        <trkpt lat="28.679135" lon="105.0797"><ele>466.12326</ele><time>2026-07-22T01:15:16.000Z</time></trkpt>
        <trkpt lat="28.679105" lon="105.079723"><ele>464.01843</ele><time>2026-07-22T01:15:18.000Z</time></trkpt>
        <trkpt lat="28.679085" lon="105.079727"><ele>465.14453</ele><time>2026-07-22T01:15:20.000Z</time></trkpt>
        <trkpt lat="28.679005" lon="105.079746"><ele>464.8095</ele><time>2026-07-22T01:15:22.000Z</time></trkpt>
        <trkpt lat="28.678838" lon="105.079725"><ele>465.69662</ele><time>2026-07-22T01:15:24.000Z</time></trkpt>
        <trkpt lat="28.678432" lon="105.079672"><ele>465.62567</ele><time>2026-07-22T01:15:25.000Z</time></trkpt>
        <trkpt lat="28.67841" lon="105.079676"><ele>463.82062</ele><time>2026-07-22T01:15:28.000Z</time></trkpt>
        <trkpt lat="28.678387" lon="105.079686"><ele>463.11218</ele><time>2026-07-22T01:15:30.000Z</time></trkpt>
        <trkpt lat="28.678276" lon="105.079744"><ele>463.5251</ele><time>2026-07-22T01:15:32.000Z</time></trkpt>
        <trkpt lat="28.67768" lon="105.080055"><ele>464.78445</ele><time>2026-07-22T01:15:34.000Z</time></trkpt>
        <trkpt lat="28.677639" lon="105.080061"><ele>466.14435</ele><time>2026-07-22T01:15:36.000Z</time></trkpt>
        <trkpt lat="28.676976" lon="105.080171"><ele>468.33258</ele><time>2026-07-22T01:15:41.000Z</time></trkpt>
        <trkpt lat="28.676976" lon="105.080172"><ele>466.87106</ele><time>2026-07-22T01:15:43.000Z</time></trkpt>
        <trkpt lat="28.676953" lon="105.080178"><ele>467.71844</ele><time>2026-07-22T01:15:45.000Z</time></trkpt>
        <trkpt lat="28.676844" lon="105.080213"><ele>470.8567</ele><time>2026-07-22T01:15:47.000Z</time></trkpt>
        <trkpt lat="28.676223" lon="105.080414"><ele>473.66214</ele><time>2026-07-22T01:15:49.000Z</time></trkpt>
        <trkpt lat="28.676179" lon="105.080428"><ele>475.7812</ele><time>2026-07-22T01:15:51.000Z</time></trkpt>
        <trkpt lat="28.675289" lon="105.080707"><ele>486.68378</ele><time>2026-07-22T01:15:57.000Z</time></trkpt>
        <trkpt lat="28.675288" lon="105.080706"><ele>487.5962</ele><time>2026-07-22T01:15:59.000Z</time></trkpt>
        <trkpt lat="28.675265" lon="105.080703"><ele>487.3838</ele><time>2026-07-22T01:16:01.000Z</time></trkpt>
        <trkpt lat="28.675158" lon="105.080686"><ele>485.74557</ele><time>2026-07-22T01:16:03.000Z</time></trkpt>
        <trkpt lat="28.674655" lon="105.080603"><ele>483.52686</ele><time>2026-07-22T01:16:05.000Z</time></trkpt>
        <trkpt lat="28.67462" lon="105.080593"><ele>482.15695</ele><time>2026-07-22T01:16:07.000Z</time></trkpt>
        <trkpt lat="28.674597" lon="105.080587"><ele>483.37415</ele><time>2026-07-22T01:16:09.000Z</time></trkpt>
        <trkpt lat="28.674511" lon="105.080578"><ele>482.84274</ele><time>2026-07-22T01:16:11.000Z</time></trkpt>
        <trkpt lat="28.674342" lon="105.080562"><ele>484.2802</ele><time>2026-07-22T01:16:13.000Z</time></trkpt>
        <trkpt lat="28.673935" lon="105.080676"><ele>487.30768</ele><time>2026-07-22T01:16:15.000Z</time></trkpt>
        <trkpt lat="28.673905" lon="105.080681"><ele>487.99805</ele><time>2026-07-22T01:16:17.000Z</time></trkpt>
        <trkpt lat="28.673876" lon="105.080682"><ele>488.16187</ele><time>2026-07-22T01:16:19.000Z</time></trkpt>
        <trkpt lat="28.673741" lon="105.080685"><ele>490.63162</ele><time>2026-07-22T01:16:21.000Z</time></trkpt>
        <trkpt lat="28.673125" lon="105.080699"><ele>494.54727</ele><time>2026-07-22T01:16:23.000Z</time></trkpt>
        <trkpt lat="28.673081" lon="105.0807"><ele>496.8629</ele><time>2026-07-22T01:16:25.000Z</time></trkpt>
        <trkpt lat="28.673051" lon="105.080697"><ele>499.90656</ele><time>2026-07-22T01:16:27.000Z</time></trkpt>
        <trkpt lat="28.67294" lon="105.080691"><ele>502.78333</ele><time>2026-07-22T01:16:29.000Z</time></trkpt>
        <trkpt lat="28.672522" lon="105.080672"><ele>504.30966</ele><time>2026-07-22T01:16:31.000Z</time></trkpt>
        <trkpt lat="28.672494" lon="105.080679"><ele>505.4846</ele><time>2026-07-22T01:16:33.000Z</time></trkpt>
        <trkpt lat="28.672472" lon="105.080689"><ele>505.63815</ele><time>2026-07-22T01:16:35.000Z</time></trkpt>
        <trkpt lat="28.672384" lon="105.080729"><ele>505.47498</ele><time>2026-07-22T01:16:37.000Z</time></trkpt>
        <trkpt lat="28.672214" lon="105.080754"><ele>508.24878</ele><time>2026-07-22T01:16:39.000Z</time></trkpt>
        <trkpt lat="28.671856" lon="105.080706"><ele>510.62924</ele><time>2026-07-22T01:16:41.000Z</time></trkpt>
        <trkpt lat="28.671832" lon="105.080708"><ele>511.27734</ele><time>2026-07-22T01:16:43.000Z</time></trkpt>
        <trkpt lat="28.671809" lon="105.080716"><ele>510.063</ele><time>2026-07-22T01:16:45.000Z</time></trkpt>
        <trkpt lat="28.671705" lon="105.080749"><ele>508.7479</ele><time>2026-07-22T01:16:47.000Z</time></trkpt>
        <trkpt lat="28.671244" lon="105.080895"><ele>507.89377</ele><time>2026-07-22T01:16:49.000Z</time></trkpt>
        <trkpt lat="28.671211" lon="105.0809"><ele>506.96176</ele><time>2026-07-22T01:16:51.000Z</time></trkpt>
        <trkpt lat="28.671191" lon="105.080901"><ele>504.6494</ele><time>2026-07-22T01:16:53.000Z</time></trkpt>
        <trkpt lat="28.671117" lon="105.080918"><ele>502.15576</ele><time>2026-07-22T01:16:55.000Z</time></trkpt>
        <trkpt lat="28.670979" lon="105.080948"><ele>502.3083</ele><time>2026-07-22T01:16:57.000Z</time></trkpt>
        <trkpt lat="28.670859" lon="105.081048"><ele>502.76685</ele><time>2026-07-22T01:16:59.000Z</time></trkpt>
        <trkpt lat="28.670793" lon="105.081204"><ele>503.85266</ele><time>2026-07-22T01:17:01.000Z</time></trkpt>
        <trkpt lat="28.670731" lon="105.081357"><ele>504.97952</ele><time>2026-07-22T01:17:03.000Z</time></trkpt>
        <trkpt lat="28.670677" lon="105.081488"><ele>506.36893</ele><time>2026-07-22T01:17:05.000Z</time></trkpt>
        <trkpt lat="28.670618" lon="105.081566"><ele>505.767</ele><time>2026-07-22T01:17:07.000Z</time></trkpt>
        <trkpt lat="28.670502" lon="105.081556"><ele>505.75385</ele><time>2026-07-22T01:17:09.000Z</time></trkpt>
        <trkpt lat="28.670495" lon="105.081557"><ele>506.26334</ele><time>2026-07-22T01:17:11.000Z</time></trkpt>
        <trkpt lat="28.670489" lon="105.081559"><ele>507.10608</ele><time>2026-07-22T01:17:13.000Z</time></trkpt>
        <trkpt lat="28.670447" lon="105.081578"><ele>508.82028</ele><time>2026-07-22T01:17:17.000Z</time></trkpt>
        <trkpt lat="28.670432" lon="105.081589"><ele>510.53793</ele><time>2026-07-22T01:17:19.000Z</time></trkpt>
        <trkpt lat="28.670429" lon="105.081587"><ele>511.42926</ele><time>2026-07-22T01:17:21.000Z</time></trkpt>
        <trkpt lat="28.670439" lon="105.081587"><ele>511.42825</ele><time>2026-07-22T01:17:25.000Z</time></trkpt>
        <trkpt lat="28.67045" lon="105.081588"><ele>512.1354</ele><time>2026-07-22T01:17:29.000Z</time></trkpt>
        <trkpt lat="28.670453" lon="105.081588"><ele>511.87878</ele><time>2026-07-22T01:17:31.000Z</time></trkpt>
        <trkpt lat="28.670456" lon="105.081585"><ele>511.76794</ele><time>2026-07-22T01:17:33.000Z</time></trkpt>
        <trkpt lat="28.670459" lon="105.081575"><ele>510.5169</ele><time>2026-07-22T01:17:43.000Z</time></trkpt>
        <trkpt lat="28.67044" lon="105.081609"><ele>511.66983</ele><time>2026-07-22T01:18:15.000Z</time></trkpt>
        <trkpt lat="28.670429" lon="105.081626"><ele>511.49106</ele><time>2026-07-22T01:18:17.000Z</time></trkpt>
        <trkpt lat="28.670429" lon="105.081626"><ele>511.41342</ele><time>2026-07-22T01:18:19.000Z</time></trkpt>
        <trkpt lat="28.670391" lon="105.081628"><ele>512.4907</ele><time>2026-07-22T01:18:22.000Z</time></trkpt>
        <trkpt lat="28.670391" lon="105.081628"><ele>511.9888</ele><time>2026-07-22T01:18:24.000Z</time></trkpt>
        <trkpt lat="28.670392" lon="105.081627"><ele>511.68375</ele><time>2026-07-22T01:18:26.000Z</time></trkpt>
        <trkpt lat="28.670347" lon="105.0817"><ele>514.1541</ele><time>2026-07-22T01:18:38.000Z</time></trkpt>
        <trkpt lat="28.67029" lon="105.08195"><ele>508.80148</ele><time>2026-07-22T01:18:42.000Z</time></trkpt>
        <trkpt lat="28.67029" lon="105.081951"><ele>507.43564</ele><time>2026-07-22T01:18:44.000Z</time></trkpt>
        <trkpt lat="28.670284" lon="105.081973"><ele>504.79556</ele><time>2026-07-22T01:18:46.000Z</time></trkpt>
        <trkpt lat="28.670264" lon="105.082074"><ele>502.23578</ele><time>2026-07-22T01:18:48.000Z</time></trkpt>
        <trkpt lat="28.670172" lon="105.082542"><ele>501.1762</ele><time>2026-07-22T01:18:50.000Z</time></trkpt>
        <trkpt lat="28.67016" lon="105.08257"><ele>499.967</ele><time>2026-07-22T01:18:52.000Z</time></trkpt>
        <trkpt lat="28.670146" lon="105.082584"><ele>497.86682</ele><time>2026-07-22T01:18:54.000Z</time></trkpt>
        <trkpt lat="28.670078" lon="105.082653"><ele>495.16122</ele><time>2026-07-22T01:18:56.000Z</time></trkpt>
        <trkpt lat="28.669672" lon="105.082866"><ele>492.62778</ele><time>2026-07-22T01:18:58.000Z</time></trkpt>
        <trkpt lat="28.669671" lon="105.082867"><ele>491.71054</ele><time>2026-07-22T01:19:00.000Z</time></trkpt>
        <trkpt lat="28.669643" lon="105.082881"><ele>491.03363</ele><time>2026-07-22T01:19:02.000Z</time></trkpt>
        <trkpt lat="28.669524" lon="105.082951"><ele>489.53802</ele><time>2026-07-22T01:19:04.000Z</time></trkpt>
        <trkpt lat="28.669032" lon="105.083242"><ele>488.10565</ele><time>2026-07-22T01:19:06.000Z</time></trkpt>
        <trkpt lat="28.669005" lon="105.083271"><ele>486.81326</ele><time>2026-07-22T01:19:08.000Z</time></trkpt>
        <trkpt lat="28.668994" lon="105.083295"><ele>485.3418</ele><time>2026-07-22T01:19:10.000Z</time></trkpt>
        <trkpt lat="28.668947" lon="105.083424"><ele>486.6266</ele><time>2026-07-22T01:19:12.000Z</time></trkpt>
        <trkpt lat="28.668702" lon="105.084099"><ele>489.88065</ele><time>2026-07-22T01:19:14.000Z</time></trkpt>
        <trkpt lat="28.668693" lon="105.084147"><ele>493.2576</ele><time>2026-07-22T01:19:16.000Z</time></trkpt>
        <trkpt lat="28.668529" lon="105.084981"><ele>498.81387</ele><time>2026-07-22T01:19:21.000Z</time></trkpt>
        <trkpt lat="28.668529" lon="105.084981"><ele>500.29395</ele><time>2026-07-22T01:19:23.000Z</time></trkpt>
        <trkpt lat="28.668514" lon="105.085009"><ele>501.92227</ele><time>2026-07-22T01:19:25.000Z</time></trkpt>
        <trkpt lat="28.668447" lon="105.085132"><ele>504.812</ele><time>2026-07-22T01:19:27.000Z</time></trkpt>
        <trkpt lat="28.668067" lon="105.08559"><ele>506.8629</ele><time>2026-07-22T01:19:29.000Z</time></trkpt>
        <trkpt lat="28.668034" lon="105.085616"><ele>508.56424</ele><time>2026-07-22T01:19:31.000Z</time></trkpt>
        <trkpt lat="28.668012" lon="105.085629"><ele>509.71225</ele><time>2026-07-22T01:19:33.000Z</time></trkpt>
        <trkpt lat="28.667923" lon="105.085681"><ele>510.67996</ele><time>2026-07-22T01:19:35.000Z</time></trkpt>
        <trkpt lat="28.667615" lon="105.085985"><ele>511.16296</ele><time>2026-07-22T01:19:37.000Z</time></trkpt>
        <trkpt lat="28.667591" lon="105.086001"><ele>512.93756</ele><time>2026-07-22T01:19:39.000Z</time></trkpt>
        <trkpt lat="28.667573" lon="105.086006"><ele>515.50354</ele><time>2026-07-22T01:19:41.000Z</time></trkpt>
        <trkpt lat="28.667494" lon="105.086035"><ele>515.57715</ele><time>2026-07-22T01:19:43.000Z</time></trkpt>
        <trkpt lat="28.667338" lon="105.086093"><ele>516.82336</ele><time>2026-07-22T01:19:45.000Z</time></trkpt>
        <trkpt lat="28.667024" lon="105.086343"><ele>516.8625</ele><time>2026-07-22T01:19:47.000Z</time></trkpt>
        <trkpt lat="28.667002" lon="105.086358"><ele>517.2119</ele><time>2026-07-22T01:19:49.000Z</time></trkpt>
        <trkpt lat="28.666984" lon="105.086366"><ele>518.3088</ele><time>2026-07-22T01:19:51.000Z</time></trkpt>
        <trkpt lat="28.666902" lon="105.086411"><ele>517.6227</ele><time>2026-07-22T01:19:53.000Z</time></trkpt>
        <trkpt lat="28.666431" lon="105.086666"><ele>516.5795</ele><time>2026-07-22T01:19:55.000Z</time></trkpt>
        <trkpt lat="28.666398" lon="105.086684"><ele>516.6453</ele><time>2026-07-22T01:19:57.000Z</time></trkpt>
        <trkpt lat="28.666378" lon="105.086696"><ele>517.08813</ele><time>2026-07-22T01:19:59.000Z</time></trkpt>
        <trkpt lat="28.666309" lon="105.086757"><ele>516.16705</ele><time>2026-07-22T01:20:01.000Z</time></trkpt>
        <trkpt lat="28.665951" lon="105.087074"><ele>517.1947</ele><time>2026-07-22T01:20:03.000Z</time></trkpt>
        <trkpt lat="28.665923" lon="105.08709"><ele>521.55566</ele><time>2026-07-22T01:20:05.000Z</time></trkpt>
        <trkpt lat="28.665908" lon="105.087088"><ele>523.5538</ele><time>2026-07-22T01:20:07.000Z</time></trkpt>
        <trkpt lat="28.665829" lon="105.087071"><ele>524.6732</ele><time>2026-07-22T01:20:09.000Z</time></trkpt>
        <trkpt lat="28.665661" lon="105.087029"><ele>525.02124</ele><time>2026-07-22T01:20:11.000Z</time></trkpt>
        <trkpt lat="28.66525" lon="105.086927"><ele>525.0787</ele><time>2026-07-22T01:20:13.000Z</time></trkpt>
        <trkpt lat="28.665224" lon="105.086927"><ele>524.72064</ele><time>2026-07-22T01:20:15.000Z</time></trkpt>
        <trkpt lat="28.66521" lon="105.086933"><ele>524.62665</ele><time>2026-07-22T01:20:17.000Z</time></trkpt>
        <trkpt lat="28.665146" lon="105.086964"><ele>524.7829</ele><time>2026-07-22T01:20:19.000Z</time></trkpt>
        <trkpt lat="28.665019" lon="105.087018"><ele>525.5937</ele><time>2026-07-22T01:20:21.000Z</time></trkpt>
        <trkpt lat="28.664864" lon="105.08707"><ele>526.3176</ele><time>2026-07-22T01:20:23.000Z</time></trkpt>
        <trkpt lat="28.664709" lon="105.087111"><ele>526.9207</ele><time>2026-07-22T01:20:25.000Z</time></trkpt>
        <trkpt lat="28.664554" lon="105.087148"><ele>528.104</ele><time>2026-07-22T01:20:27.000Z</time></trkpt>
        <trkpt lat="28.664411" lon="105.087182"><ele>527.90875</ele><time>2026-07-22T01:20:29.000Z</time></trkpt>
        <trkpt lat="28.664278" lon="105.087181"><ele>528.90643</ele><time>2026-07-22T01:20:31.000Z</time></trkpt>
        <trkpt lat="28.664169" lon="105.087124"><ele>529.9654</ele><time>2026-07-22T01:20:33.000Z</time></trkpt>
        <trkpt lat="28.664064" lon="105.087069"><ele>529.14923</ele><time>2026-07-22T01:20:35.000Z</time></trkpt>
        <trkpt lat="28.663948" lon="105.087009"><ele>529.1206</ele><time>2026-07-22T01:20:37.000Z</time></trkpt>
        <trkpt lat="28.663806" lon="105.086992"><ele>529.6725</ele><time>2026-07-22T01:20:39.000Z</time></trkpt>
        <trkpt lat="28.663646" lon="105.086973"><ele>531.07104</ele><time>2026-07-22T01:20:41.000Z</time></trkpt>
        <trkpt lat="28.663479" lon="105.086989"><ele>533.5685</ele><time>2026-07-22T01:20:43.000Z</time></trkpt>
        <trkpt lat="28.66333" lon="105.087049"><ele>535.81934</ele><time>2026-07-22T01:20:45.000Z</time></trkpt>
        <trkpt lat="28.663201" lon="105.087157"><ele>540.5271</ele><time>2026-07-22T01:20:47.000Z</time></trkpt>
        <trkpt lat="28.663068" lon="105.087259"><ele>543.8146</ele><time>2026-07-22T01:20:49.000Z</time></trkpt>
        <trkpt lat="28.662931" lon="105.087355"><ele>548.2945</ele><time>2026-07-22T01:20:51.000Z</time></trkpt>
        <trkpt lat="28.662797" lon="105.087449"><ele>551.3561</ele><time>2026-07-22T01:20:53.000Z</time></trkpt>
        <trkpt lat="28.662672" lon="105.087545"><ele>554.21313</ele><time>2026-07-22T01:20:55.000Z</time></trkpt>
        <trkpt lat="28.662556" lon="105.087652"><ele>556.61176</ele><time>2026-07-22T01:20:57.000Z</time></trkpt>
        <trkpt lat="28.662449" lon="105.08775"><ele>558.0945</ele><time>2026-07-22T01:20:59.000Z</time></trkpt>
        <trkpt lat="28.662385" lon="105.087877"><ele>560.3627</ele><time>2026-07-22T01:21:01.000Z</time></trkpt>
        <trkpt lat="28.662331" lon="105.088006"><ele>562.3563</ele><time>2026-07-22T01:21:03.000Z</time></trkpt>
        <trkpt lat="28.662283" lon="105.08812"><ele>563.3569</ele><time>2026-07-22T01:21:05.000Z</time></trkpt>
        <trkpt lat="28.662308" lon="105.088243"><ele>564.1007</ele><time>2026-07-22T01:21:07.000Z</time></trkpt>
        <trkpt lat="28.662305" lon="105.088249"><ele>565.21106</ele><time>2026-07-22T01:21:09.000Z</time></trkpt>
        <trkpt lat="28.662293" lon="105.088266"><ele>566.55084</ele><time>2026-07-22T01:21:11.000Z</time></trkpt>
        <trkpt lat="28.662234" lon="105.088348"><ele>567.50116</ele><time>2026-07-22T01:21:13.000Z</time></trkpt>
        <trkpt lat="28.661975" lon="105.0887"><ele>569.1928</ele><time>2026-07-22T01:21:15.000Z</time></trkpt>
        <trkpt lat="28.661954" lon="105.088722"><ele>571.4759</ele><time>2026-07-22T01:21:17.000Z</time></trkpt>
        <trkpt lat="28.661923" lon="105.088741"><ele>573.9328</ele><time>2026-07-22T01:21:19.000Z</time></trkpt>
        <trkpt lat="28.661797" lon="105.08882"><ele>575.3051</ele><time>2026-07-22T01:21:21.000Z</time></trkpt>
        <trkpt lat="28.66128" lon="105.088996"><ele>576.7715</ele><time>2026-07-22T01:21:23.000Z</time></trkpt>
        <trkpt lat="28.661242" lon="105.089007"><ele>579.38617</ele><time>2026-07-22T01:21:25.000Z</time></trkpt>
        <trkpt lat="28.661201" lon="105.089016"><ele>581.2977</ele><time>2026-07-22T01:21:27.000Z</time></trkpt>
        <trkpt lat="28.661041" lon="105.089039"><ele>584.1527</ele><time>2026-07-22T01:21:29.000Z</time></trkpt>
        <trkpt lat="28.660487" lon="105.089117"><ele>587.4699</ele><time>2026-07-22T01:21:31.000Z</time></trkpt>
        <trkpt lat="28.660447" lon="105.089124"><ele>590.7644</ele><time>2026-07-22T01:21:33.000Z</time></trkpt>
        <trkpt lat="28.660409" lon="105.089135"><ele>596.69995</ele><time>2026-07-22T01:21:35.000Z</time></trkpt>
        <trkpt lat="28.660261" lon="105.08918"><ele>598.0406</ele><time>2026-07-22T01:21:37.000Z</time></trkpt>
        <trkpt lat="28.659711" lon="105.089349"><ele>600.9624</ele><time>2026-07-22T01:21:39.000Z</time></trkpt>
        <trkpt lat="28.659673" lon="105.089366"><ele>605.855</ele><time>2026-07-22T01:21:41.000Z</time></trkpt>
        <trkpt lat="28.659638" lon="105.089389"><ele>610.3593</ele><time>2026-07-22T01:21:43.000Z</time></trkpt>
        <trkpt lat="28.659499" lon="105.089478"><ele>611.35486</ele><time>2026-07-22T01:21:45.000Z</time></trkpt>
        <trkpt lat="28.659093" lon="105.089814"><ele>614.50476</ele><time>2026-07-22T01:21:47.000Z</time></trkpt>
        <trkpt lat="28.65907" lon="105.089845"><ele>616.33844</ele><time>2026-07-22T01:21:49.000Z</time></trkpt>
        <trkpt lat="28.659061" lon="105.089874"><ele>618.5781</ele><time>2026-07-22T01:21:51.000Z</time></trkpt>
        <trkpt lat="28.659025" lon="105.089999"><ele>618.6316</ele><time>2026-07-22T01:21:53.000Z</time></trkpt>
        <trkpt lat="28.659015" lon="105.090472"><ele>618.9573</ele><time>2026-07-22T01:21:55.000Z</time></trkpt>
        <trkpt lat="28.659015" lon="105.090503"><ele>620.12445</ele><time>2026-07-22T01:21:57.000Z</time></trkpt>
        <trkpt lat="28.659018" lon="105.090524"><ele>621.135</ele><time>2026-07-22T01:21:59.000Z</time></trkpt>
        <trkpt lat="28.659033" lon="105.090622"><ele>622.46356</ele><time>2026-07-22T01:22:01.000Z</time></trkpt>
        <trkpt lat="28.659264" lon="105.091064"><ele>624.5971</ele><time>2026-07-22T01:22:03.000Z</time></trkpt>
        <trkpt lat="28.659285" lon="105.091081"><ele>627.7156</ele><time>2026-07-22T01:22:05.000Z</time></trkpt>
        <trkpt lat="28.659299" lon="105.091082"><ele>630.34265</ele><time>2026-07-22T01:22:07.000Z</time></trkpt>
        <trkpt lat="28.65939" lon="105.091082"><ele>633.07965</ele><time>2026-07-22T01:22:09.000Z</time></trkpt>
        <trkpt lat="28.659562" lon="105.091084"><ele>635.15704</ele><time>2026-07-22T01:22:11.000Z</time></trkpt>
        <trkpt lat="28.65994" lon="105.091152"><ele>636.628</ele><time>2026-07-22T01:22:13.000Z</time></trkpt>
        <trkpt lat="28.659961" lon="105.091161"><ele>637.3296</ele><time>2026-07-22T01:22:15.000Z</time></trkpt>
        <trkpt lat="28.659961" lon="105.091165"><ele>638.2815</ele><time>2026-07-22T01:22:17.000Z</time></trkpt>
        <trkpt lat="28.659977" lon="105.091357"><ele>635.7333</ele><time>2026-07-22T01:22:21.000Z</time></trkpt>
        <trkpt lat="28.659842" lon="105.091835"><ele>635.368</ele><time>2026-07-22T01:22:23.000Z</time></trkpt>
        <trkpt lat="28.659832" lon="105.091859"><ele>635.76605</ele><time>2026-07-22T01:22:25.000Z</time></trkpt>
        <trkpt lat="28.659825" lon="105.091871"><ele>635.6415</ele><time>2026-07-22T01:22:27.000Z</time></trkpt>
        <trkpt lat="28.659804" lon="105.091933"><ele>635.75543</ele><time>2026-07-22T01:22:29.000Z</time></trkpt>
        <trkpt lat="28.659752" lon="105.092083"><ele>638.09625</ele><time>2026-07-22T01:22:31.000Z</time></trkpt>
        <trkpt lat="28.659835" lon="105.092662"><ele>638.5323</ele><time>2026-07-22T01:22:33.000Z</time></trkpt>
        <trkpt lat="28.659843" lon="105.092688"><ele>636.7216</ele><time>2026-07-22T01:22:35.000Z</time></trkpt>
        <trkpt lat="28.659849" lon="105.092694"><ele>635.9012</ele><time>2026-07-22T01:22:37.000Z</time></trkpt>
        <trkpt lat="28.65993" lon="105.092786"><ele>634.91565</ele><time>2026-07-22T01:22:41.000Z</time></trkpt>
        <trkpt lat="28.659953" lon="105.092874"><ele>635.45496</ele><time>2026-07-22T01:22:43.000Z</time></trkpt>
        <trkpt lat="28.659914" lon="105.092957"><ele>636.1474</ele><time>2026-07-22T01:22:45.000Z</time></trkpt>
        <trkpt lat="28.659808" lon="105.093003"><ele>635.17816</ele><time>2026-07-22T01:22:47.000Z</time></trkpt>
        <trkpt lat="28.65966" lon="105.093053"><ele>635.57697</ele><time>2026-07-22T01:22:49.000Z</time></trkpt>
        <trkpt lat="28.659488" lon="105.093105"><ele>636.01184</ele><time>2026-07-22T01:22:51.000Z</time></trkpt>
        <trkpt lat="28.659317" lon="105.093165"><ele>636.3798</ele><time>2026-07-22T01:22:53.000Z</time></trkpt>
        <trkpt lat="28.659151" lon="105.093235"><ele>636.6332</ele><time>2026-07-22T01:22:55.000Z</time></trkpt>
        <trkpt lat="28.658999" lon="105.093309"><ele>637.31476</ele><time>2026-07-22T01:22:57.000Z</time></trkpt>
        <trkpt lat="28.658871" lon="105.093372"><ele>637.52515</ele><time>2026-07-22T01:22:59.000Z</time></trkpt>
        <trkpt lat="28.658791" lon="105.093444"><ele>637.73425</ele><time>2026-07-22T01:23:01.000Z</time></trkpt>
        <trkpt lat="28.658788" lon="105.09345"><ele>637.6275</ele><time>2026-07-22T01:23:03.000Z</time></trkpt>
        <trkpt lat="28.658786" lon="105.093457"><ele>637.2467</ele><time>2026-07-22T01:23:05.000Z</time></trkpt>
        <trkpt lat="28.65875" lon="105.093617"><ele>635.3918</ele><time>2026-07-22T01:23:09.000Z</time></trkpt>
        <trkpt lat="28.658703" lon="105.093827"><ele>635.2248</ele><time>2026-07-22T01:23:11.000Z</time></trkpt>
        <trkpt lat="28.658702" lon="105.09384"><ele>635.8717</ele><time>2026-07-22T01:23:13.000Z</time></trkpt>
        <trkpt lat="28.658702" lon="105.09384"><ele>636.13794</ele><time>2026-07-22T01:23:15.000Z</time></trkpt>
        <trkpt lat="28.658735" lon="105.093846"><ele>637.81586</ele><time>2026-07-22T01:23:21.000Z</time></trkpt>
        <trkpt lat="28.658735" lon="105.093846"><ele>638.19745</ele><time>2026-07-22T01:23:23.000Z</time></trkpt>
        <trkpt lat="28.658734" lon="105.093846"><ele>638.6599</ele><time>2026-07-22T01:23:25.000Z</time></trkpt>
        <trkpt lat="28.658716" lon="105.093845"><ele>638.9065</ele><time>2026-07-22T01:23:35.000Z</time></trkpt>
        <trkpt lat="28.65878" lon="105.09385"><ele>639.04095</ele><time>2026-07-22T01:24:07.000Z</time></trkpt>
        <trkpt lat="28.65878" lon="105.09385"><ele>642.5352</ele><time>2026-07-22T01:24:09.000Z</time></trkpt>
        <trkpt lat="28.658779" lon="105.093852"><ele>641.4067</ele><time>2026-07-22T01:24:11.000Z</time></trkpt>
        <trkpt lat="28.658745" lon="105.093937"><ele>641.7394</ele><time>2026-07-22T01:24:27.000Z</time></trkpt>
        <trkpt lat="28.658716" lon="105.094007"><ele>641.15</ele><time>2026-07-22T01:24:29.000Z</time></trkpt>
        <trkpt lat="28.658713" lon="105.094011"><ele>639.9331</ele><time>2026-07-22T01:24:31.000Z</time></trkpt>
        <trkpt lat="28.658672" lon="105.094079"><ele>636.919</ele><time>2026-07-22T01:24:35.000Z</time></trkpt>
        <trkpt lat="28.658606" lon="105.094184"><ele>635.49493</ele><time>2026-07-22T01:24:37.000Z</time></trkpt>
        <trkpt lat="28.65851" lon="105.09433"><ele>633.94653</ele><time>2026-07-22T01:24:39.000Z</time></trkpt>
        <trkpt lat="28.658405" lon="105.094484"><ele>632.6628</ele><time>2026-07-22T01:24:41.000Z</time></trkpt>
        <trkpt lat="28.658303" lon="105.09463"><ele>630.5148</ele><time>2026-07-22T01:24:43.000Z</time></trkpt>
        <trkpt lat="28.658203" lon="105.094758"><ele>628.0825</ele><time>2026-07-22T01:24:45.000Z</time></trkpt>
        <trkpt lat="28.658115" lon="105.094857"><ele>626.01294</ele><time>2026-07-22T01:24:47.000Z</time></trkpt>
        <trkpt lat="28.658047" lon="105.094916"><ele>625.03265</ele><time>2026-07-22T01:24:49.000Z</time></trkpt>
        <trkpt lat="28.657995" lon="105.094943"><ele>623.691</ele><time>2026-07-22T01:24:51.000Z</time></trkpt>
        <trkpt lat="28.657947" lon="105.094953"><ele>621.96466</ele><time>2026-07-22T01:24:53.000Z</time></trkpt>
        <trkpt lat="28.657903" lon="105.09495"><ele>621.0083</ele><time>2026-07-22T01:24:55.000Z</time></trkpt>
        <trkpt lat="28.657876" lon="105.09494"><ele>620.79596</ele><time>2026-07-22T01:24:57.000Z</time></trkpt>
        <trkpt lat="28.657855" lon="105.094929"><ele>620.49646</ele><time>2026-07-22T01:24:59.000Z</time></trkpt>
        <trkpt lat="28.657832" lon="105.094915"><ele>619.2395</ele><time>2026-07-22T01:25:01.000Z</time></trkpt>
        <trkpt lat="28.657806" lon="105.094899"><ele>618.54236</ele><time>2026-07-22T01:25:03.000Z</time></trkpt>
        <trkpt lat="28.65779" lon="105.094885"><ele>618.5299</ele><time>2026-07-22T01:25:05.000Z</time></trkpt>
        <trkpt lat="28.657783" lon="105.094877"><ele>618.5806</ele><time>2026-07-22T01:25:07.000Z</time></trkpt>
        <trkpt lat="28.657777" lon="105.094875"><ele>618.26666</ele><time>2026-07-22T01:25:09.000Z</time></trkpt>
        <trkpt lat="28.657742" lon="105.094869"><ele>616.2361</ele><time>2026-07-22T01:25:13.000Z</time></trkpt>
        <trkpt lat="28.657715" lon="105.094869"><ele>615.37726</ele><time>2026-07-22T01:25:15.000Z</time></trkpt>
        <trkpt lat="28.65768" lon="105.094871"><ele>614.9083</ele><time>2026-07-22T01:25:17.000Z</time></trkpt>
        <trkpt lat="28.657639" lon="105.094874"><ele>613.6781</ele><time>2026-07-22T01:25:19.000Z</time></trkpt>
        <trkpt lat="28.657585" lon="105.09488"><ele>612.56464</ele><time>2026-07-22T01:25:21.000Z</time></trkpt>
        <trkpt lat="28.657522" lon="105.094888"><ele>611.1655</ele><time>2026-07-22T01:25:23.000Z</time></trkpt>
        <trkpt lat="28.657452" lon="105.094901"><ele>609.43317</ele><time>2026-07-22T01:25:25.000Z</time></trkpt>
        <trkpt lat="28.65738" lon="105.094923"><ele>607.8893</ele><time>2026-07-22T01:25:27.000Z</time></trkpt>
        <trkpt lat="28.657311" lon="105.094956"><ele>607.06915</ele><time>2026-07-22T01:25:29.000Z</time></trkpt>
        <trkpt lat="28.657251" lon="105.094998"><ele>605.7792</ele><time>2026-07-22T01:25:31.000Z</time></trkpt>
        <trkpt lat="28.657203" lon="105.095039"><ele>605.36066</ele><time>2026-07-22T01:25:33.000Z</time></trkpt>
        <trkpt lat="28.657179" lon="105.095066"><ele>605.5827</ele><time>2026-07-22T01:25:35.000Z</time></trkpt>
        <trkpt lat="28.65717" lon="105.095084"><ele>606.3557</ele><time>2026-07-22T01:25:37.000Z</time></trkpt>
        <trkpt lat="28.657167" lon="105.095087"><ele>605.7083</ele><time>2026-07-22T01:25:39.000Z</time></trkpt>
        <trkpt lat="28.656971" lon="105.095303"><ele>601.6499</ele><time>2026-07-22T01:25:52.000Z</time></trkpt>
        <trkpt lat="28.656971" lon="105.095304"><ele>600.13416</ele><time>2026-07-22T01:25:54.000Z</time></trkpt>
        <trkpt lat="28.65695" lon="105.095315"><ele>598.1382</ele><time>2026-07-22T01:25:56.000Z</time></trkpt>
        <trkpt lat="28.656863" lon="105.095366"><ele>596.32336</ele><time>2026-07-22T01:25:58.000Z</time></trkpt>
        <trkpt lat="28.656714" lon="105.095454"><ele>594.26495</ele><time>2026-07-22T01:26:00.000Z</time></trkpt>
        <trkpt lat="28.656504" lon="105.095684"><ele>592.49207</ele><time>2026-07-22T01:26:02.000Z</time></trkpt>
        <trkpt lat="28.656487" lon="105.095699"><ele>591.1564</ele><time>2026-07-22T01:26:04.000Z</time></trkpt>
        <trkpt lat="28.656468" lon="105.095703"><ele>590.6138</ele><time>2026-07-22T01:26:06.000Z</time></trkpt>
        <trkpt lat="28.656392" lon="105.095721"><ele>590.47845</ele><time>2026-07-22T01:26:08.000Z</time></trkpt>
        <trkpt lat="28.656267" lon="105.095682"><ele>589.7115</ele><time>2026-07-22T01:26:10.000Z</time></trkpt>
        <trkpt lat="28.656146" lon="105.095597"><ele>588.0075</ele><time>2026-07-22T01:26:12.000Z</time></trkpt>
        <trkpt lat="28.65603" lon="105.095521"><ele>585.7659</ele><time>2026-07-22T01:26:14.000Z</time></trkpt>
        <trkpt lat="28.655928" lon="105.095453"><ele>583.51697</ele><time>2026-07-22T01:26:16.000Z</time></trkpt>
        <trkpt lat="28.655827" lon="105.095438"><ele>580.56433</ele><time>2026-07-22T01:26:18.000Z</time></trkpt>
        <trkpt lat="28.655728" lon="105.095481"><ele>577.56</ele><time>2026-07-22T01:26:20.000Z</time></trkpt>
        <trkpt lat="28.655615" lon="105.095537"><ele>575.5414</ele><time>2026-07-22T01:26:22.000Z</time></trkpt>
        <trkpt lat="28.655495" lon="105.095596"><ele>573.9517</ele><time>2026-07-22T01:26:24.000Z</time></trkpt>
        <trkpt lat="28.655394" lon="105.09569"><ele>571.23804</ele><time>2026-07-22T01:26:26.000Z</time></trkpt>
        <trkpt lat="28.655307" lon="105.09582"><ele>569.0259</ele><time>2026-07-22T01:26:28.000Z</time></trkpt>
        <trkpt lat="28.655258" lon="105.095968"><ele>567.7584</ele><time>2026-07-22T01:26:30.000Z</time></trkpt>
        <trkpt lat="28.655206" lon="105.096089"><ele>566.7565</ele><time>2026-07-22T01:26:32.000Z</time></trkpt>
        <trkpt lat="28.655171" lon="105.096172"><ele>565.91614</ele><time>2026-07-22T01:26:34.000Z</time></trkpt>
        <trkpt lat="28.655095" lon="105.096204"><ele>564.8866</ele><time>2026-07-22T01:26:36.000Z</time></trkpt>
        <trkpt lat="28.654991" lon="105.096204"><ele>562.9599</ele><time>2026-07-22T01:26:38.000Z</time></trkpt>
        <trkpt lat="28.654865" lon="105.096194"><ele>560.8788</ele><time>2026-07-22T01:26:40.000Z</time></trkpt>
        <trkpt lat="28.654719" lon="105.096173"><ele>561.9879</ele><time>2026-07-22T01:26:42.000Z</time></trkpt>
        <trkpt lat="28.654573" lon="105.096138"><ele>561.1547</ele><time>2026-07-22T01:26:44.000Z</time></trkpt>
        <trkpt lat="28.654446" lon="105.096106"><ele>560.38654</ele><time>2026-07-22T01:26:46.000Z</time></trkpt>
        <trkpt lat="28.654359" lon="105.096045"><ele>559.7886</ele><time>2026-07-22T01:26:48.000Z</time></trkpt>
        <trkpt lat="28.654298" lon="105.096006"><ele>558.9315</ele><time>2026-07-22T01:26:50.000Z</time></trkpt>
        <trkpt lat="28.654271" lon="105.095988"><ele>558.9878</ele><time>2026-07-22T01:26:52.000Z</time></trkpt>
        <trkpt lat="28.654266" lon="105.095988"><ele>558.7015</ele><time>2026-07-22T01:26:54.000Z</time></trkpt>
        <trkpt lat="28.654339" lon="105.09599"><ele>557.57745</ele><time>2026-07-22T01:27:06.000Z</time></trkpt>
        <trkpt lat="28.654339" lon="105.09599"><ele>557.8356</ele><time>2026-07-22T01:27:08.000Z</time></trkpt>
        <trkpt lat="28.654339" lon="105.09599"><ele>557.83997</ele><time>2026-07-22T01:27:10.000Z</time></trkpt>
        <trkpt lat="28.654278" lon="105.096055"><ele>558.01996</ele><time>2026-07-22T01:27:37.000Z</time></trkpt>
        <trkpt lat="28.654301" lon="105.096066"><ele>558.005</ele><time>2026-07-22T01:27:39.000Z</time></trkpt>
        <trkpt lat="28.654295" lon="105.096095"><ele>558.3336</ele><time>2026-07-22T01:27:41.000Z</time></trkpt>
        <trkpt lat="28.654295" lon="105.096097"><ele>558.7264</ele><time>2026-07-22T01:27:43.000Z</time></trkpt>
        <trkpt lat="28.654296" lon="105.0961"><ele>559.8007</ele><time>2026-07-22T01:27:45.000Z</time></trkpt>
        <trkpt lat="28.654309" lon="105.096139"><ele>559.8518</ele><time>2026-07-22T01:27:49.000Z</time></trkpt>
        <trkpt lat="28.654321" lon="105.096166"><ele>559.5147</ele><time>2026-07-22T01:27:51.000Z</time></trkpt>
        <trkpt lat="28.654334" lon="105.096194"><ele>559.79865</ele><time>2026-07-22T01:27:53.000Z</time></trkpt>
        <trkpt lat="28.654346" lon="105.096213"><ele>560.2704</ele><time>2026-07-22T01:27:55.000Z</time></trkpt>
        <trkpt lat="28.654356" lon="105.09623"><ele>560.0879</ele><time>2026-07-22T01:27:57.000Z</time></trkpt>
        <trkpt lat="28.654366" lon="105.096245"><ele>559.7597</ele><time>2026-07-22T01:27:59.000Z</time></trkpt>
        <trkpt lat="28.654376" lon="105.096262"><ele>560.1948</ele><time>2026-07-22T01:28:01.000Z</time></trkpt>
        <trkpt lat="28.654387" lon="105.096278"><ele>559.7513</ele><time>2026-07-22T01:28:03.000Z</time></trkpt>
        <trkpt lat="28.654396" lon="105.096291"><ele>559.312</ele><time>2026-07-22T01:28:05.000Z</time></trkpt>
        <trkpt lat="28.654406" lon="105.096304"><ele>559.6968</ele><time>2026-07-22T01:28:07.000Z</time></trkpt>
        <trkpt lat="28.654418" lon="105.09632"><ele>560.1205</ele><time>2026-07-22T01:28:09.000Z</time></trkpt>
        <trkpt lat="28.654428" lon="105.096339"><ele>559.9998</ele><time>2026-07-22T01:28:11.000Z</time></trkpt>
        <trkpt lat="28.654439" lon="105.096358"><ele>560.0564</ele><time>2026-07-22T01:28:13.000Z</time></trkpt>
        <trkpt lat="28.65445" lon="105.096375"><ele>559.5712</ele><time>2026-07-22T01:28:15.000Z</time></trkpt>
        <trkpt lat="28.654466" lon="105.09639"><ele>559.7079</ele><time>2026-07-22T01:28:17.000Z</time></trkpt>
        <trkpt lat="28.654487" lon="105.096406"><ele>560.0758</ele><time>2026-07-22T01:28:19.000Z</time></trkpt>
        <trkpt lat="28.654509" lon="105.096421"><ele>560.2006</ele><time>2026-07-22T01:28:21.000Z</time></trkpt>
        <trkpt lat="28.654526" lon="105.096431"><ele>560.8317</ele><time>2026-07-22T01:28:23.000Z</time></trkpt>
        <trkpt lat="28.654537" lon="105.096436"><ele>561.6241</ele><time>2026-07-22T01:28:25.000Z</time></trkpt>
        <trkpt lat="28.654544" lon="105.096436"><ele>561.52606</ele><time>2026-07-22T01:28:27.000Z</time></trkpt>
        <trkpt lat="28.654544" lon="105.096437"><ele>561.5632</ele><time>2026-07-22T01:28:31.000Z</time></trkpt>
        <trkpt lat="28.65456" lon="105.096448"><ele>562.40985</ele><time>2026-07-22T01:28:37.000Z</time></trkpt>
        <trkpt lat="28.654574" lon="105.096459"><ele>561.3876</ele><time>2026-07-22T01:28:39.000Z</time></trkpt>
        <trkpt lat="28.654575" lon="105.09646"><ele>560.6228</ele><time>2026-07-22T01:28:41.000Z</time></trkpt>
        <trkpt lat="28.654586" lon="105.096473"><ele>561.8809</ele><time>2026-07-22T01:28:45.000Z</time></trkpt>
        <trkpt lat="28.654603" lon="105.096489"><ele>562.0992</ele><time>2026-07-22T01:28:47.000Z</time></trkpt>
        <trkpt lat="28.654627" lon="105.096508"><ele>562.8496</ele><time>2026-07-22T01:28:49.000Z</time></trkpt>
        <trkpt lat="28.654652" lon="105.096524"><ele>562.3877</ele><time>2026-07-22T01:28:51.000Z</time></trkpt>
        <trkpt lat="28.654674" lon="105.096537"><ele>562.67065</ele><time>2026-07-22T01:28:53.000Z</time></trkpt>
        <trkpt lat="28.654696" lon="105.09655"><ele>563.35486</ele><time>2026-07-22T01:28:55.000Z</time></trkpt>
        <trkpt lat="28.654714" lon="105.096559"><ele>564.1238</ele><time>2026-07-22T01:28:57.000Z</time></trkpt>
        <trkpt lat="28.654733" lon="105.096568"><ele>564.13934</ele><time>2026-07-22T01:28:59.000Z</time></trkpt>
        <trkpt lat="28.654753" lon="105.096576"><ele>565.2549</ele><time>2026-07-22T01:29:01.000Z</time></trkpt>
        <trkpt lat="28.654772" lon="105.096586"><ele>564.75244</ele><time>2026-07-22T01:29:03.000Z</time></trkpt>
        <trkpt lat="28.654789" lon="105.096596"><ele>564.8819</ele><time>2026-07-22T01:29:05.000Z</time></trkpt>
        <trkpt lat="28.654804" lon="105.09661"><ele>565.5146</ele><time>2026-07-22T01:29:07.000Z</time></trkpt>
        <trkpt lat="28.654816" lon="105.096626"><ele>565.0961</ele><time>2026-07-22T01:29:09.000Z</time></trkpt>
        <trkpt lat="28.654829" lon="105.096647"><ele>565.92993</ele><time>2026-07-22T01:29:11.000Z</time></trkpt>
        <trkpt lat="28.65484" lon="105.096671"><ele>565.9371</ele><time>2026-07-22T01:29:13.000Z</time></trkpt>
        <trkpt lat="28.654852" lon="105.096693"><ele>566.6649</ele><time>2026-07-22T01:29:15.000Z</time></trkpt>
        <trkpt lat="28.654865" lon="105.096714"><ele>566.1256</ele><time>2026-07-22T01:29:17.000Z</time></trkpt>
        <trkpt lat="28.65488" lon="105.096733"><ele>566.6772</ele><time>2026-07-22T01:29:19.000Z</time></trkpt>
        <trkpt lat="28.654897" lon="105.096751"><ele>567.06995</ele><time>2026-07-22T01:29:21.000Z</time></trkpt>
        <trkpt lat="28.654916" lon="105.096768"><ele>568.0131</ele><time>2026-07-22T01:29:23.000Z</time></trkpt>
        <trkpt lat="28.654936" lon="105.096783"><ele>567.9615</ele><time>2026-07-22T01:29:25.000Z</time></trkpt>
        <trkpt lat="28.65495" lon="105.096795"><ele>568.37964</ele><time>2026-07-22T01:29:27.000Z</time></trkpt>
        <trkpt lat="28.654961" lon="105.096806"><ele>567.432</ele><time>2026-07-22T01:29:29.000Z</time></trkpt>
        <trkpt lat="28.654973" lon="105.096821"><ele>567.5391</ele><time>2026-07-22T01:29:31.000Z</time></trkpt>
        <trkpt lat="28.654989" lon="105.096838"><ele>568.6875</ele><time>2026-07-22T01:29:33.000Z</time></trkpt>
        <trkpt lat="28.655003" lon="105.096854"><ele>568.9763</ele><time>2026-07-22T01:29:35.000Z</time></trkpt>
        <trkpt lat="28.655018" lon="105.096868"><ele>568.48926</ele><time>2026-07-22T01:29:37.000Z</time></trkpt>
        <trkpt lat="28.655033" lon="105.09688"><ele>568.33923</ele><time>2026-07-22T01:29:39.000Z</time></trkpt>
        <trkpt lat="28.655046" lon="105.096892"><ele>567.7672</ele><time>2026-07-22T01:29:41.000Z</time></trkpt>
        <trkpt lat="28.655061" lon="105.096906"><ele>568.2745</ele><time>2026-07-22T01:29:43.000Z</time></trkpt>
        <trkpt lat="28.655076" lon="105.09692"><ele>568.7118</ele><time>2026-07-22T01:29:45.000Z</time></trkpt>
        <trkpt lat="28.655092" lon="105.096932"><ele>569.09344</ele><time>2026-07-22T01:29:47.000Z</time></trkpt>
        <trkpt lat="28.655112" lon="105.096945"><ele>568.58514</ele><time>2026-07-22T01:29:49.000Z</time></trkpt>
        <trkpt lat="28.655134" lon="105.096954"><ele>570.20337</ele><time>2026-07-22T01:29:51.000Z</time></trkpt>
        <trkpt lat="28.655156" lon="105.096961"><ele>570.4468</ele><time>2026-07-22T01:29:53.000Z</time></trkpt>
        <trkpt lat="28.655177" lon="105.096966"><ele>569.8305</ele><time>2026-07-22T01:29:55.000Z</time></trkpt>
        <trkpt lat="28.655197" lon="105.096972"><ele>571.12354</ele><time>2026-07-22T01:29:57.000Z</time></trkpt>
        <trkpt lat="28.655218" lon="105.096981"><ele>569.74396</ele><time>2026-07-22T01:29:59.000Z</time></trkpt>
        <trkpt lat="28.655232" lon="105.096993"><ele>571.1791</ele><time>2026-07-22T01:30:01.000Z</time></trkpt>
        <trkpt lat="28.655244" lon="105.097007"><ele>570.43097</ele><time>2026-07-22T01:30:03.000Z</time></trkpt>
        <trkpt lat="28.655254" lon="105.097021"><ele>571.3893</ele><time>2026-07-22T01:30:05.000Z</time></trkpt>
        <trkpt lat="28.655263" lon="105.097034"><ele>570.56793</ele><time>2026-07-22T01:30:07.000Z</time></trkpt>
        <trkpt lat="28.655275" lon="105.097049"><ele>570.19965</ele><time>2026-07-22T01:30:09.000Z</time></trkpt>
        <trkpt lat="28.655286" lon="105.097065"><ele>571.2962</ele><time>2026-07-22T01:30:11.000Z</time></trkpt>
        <trkpt lat="28.655296" lon="105.097081"><ele>571.7084</ele><time>2026-07-22T01:30:13.000Z</time></trkpt>
        <trkpt lat="28.655305" lon="105.097099"><ele>570.8287</ele><time>2026-07-22T01:30:15.000Z</time></trkpt>
        <trkpt lat="28.655316" lon="105.09712"><ele>570.03766</ele><time>2026-07-22T01:30:17.000Z</time></trkpt>
        <trkpt lat="28.655329" lon="105.097137"><ele>570.13403</ele><time>2026-07-22T01:30:19.000Z</time></trkpt>
        <trkpt lat="28.655344" lon="105.097155"><ele>570.8974</ele><time>2026-07-22T01:30:21.000Z</time></trkpt>
        <trkpt lat="28.65536" lon="105.097173"><ele>570.9628</ele><time>2026-07-22T01:30:23.000Z</time></trkpt>
        <trkpt lat="28.655377" lon="105.097187"><ele>571.69055</ele><time>2026-07-22T01:30:25.000Z</time></trkpt>
        <trkpt lat="28.655394" lon="105.097202"><ele>572.19543</ele><time>2026-07-22T01:30:27.000Z</time></trkpt>
        <trkpt lat="28.655412" lon="105.097218"><ele>572.1217</ele><time>2026-07-22T01:30:29.000Z</time></trkpt>
        <trkpt lat="28.655426" lon="105.097237"><ele>571.84766</ele><time>2026-07-22T01:30:31.000Z</time></trkpt>
        <trkpt lat="28.655437" lon="105.097255"><ele>571.90173</ele><time>2026-07-22T01:30:33.000Z</time></trkpt>
        <trkpt lat="28.655445" lon="105.097274"><ele>572.31085</ele><time>2026-07-22T01:30:35.000Z</time></trkpt>
        <trkpt lat="28.655455" lon="105.097292"><ele>571.5932</ele><time>2026-07-22T01:30:37.000Z</time></trkpt>
        <trkpt lat="28.655464" lon="105.097304"><ele>570.8613</ele><time>2026-07-22T01:30:39.000Z</time></trkpt>
        <trkpt lat="28.655474" lon="105.097315"><ele>570.4066</ele><time>2026-07-22T01:30:41.000Z</time></trkpt>
        <trkpt lat="28.655487" lon="105.097328"><ele>569.62476</ele><time>2026-07-22T01:30:43.000Z</time></trkpt>
        <trkpt lat="28.655498" lon="105.097335"><ele>569.7746</ele><time>2026-07-22T01:30:45.000Z</time></trkpt>
        <trkpt lat="28.655511" lon="105.097341"><ele>568.9811</ele><time>2026-07-22T01:30:47.000Z</time></trkpt>
        <trkpt lat="28.655527" lon="105.097346"><ele>569.19525</ele><time>2026-07-22T01:30:49.000Z</time></trkpt>
        <trkpt lat="28.655543" lon="105.097348"><ele>569.05225</ele><time>2026-07-22T01:30:51.000Z</time></trkpt>
        <trkpt lat="28.655562" lon="105.09735"><ele>568.23505</ele><time>2026-07-22T01:30:53.000Z</time></trkpt>
        <trkpt lat="28.655583" lon="105.097353"><ele>568.1178</ele><time>2026-07-22T01:30:55.000Z</time></trkpt>
        <trkpt lat="28.655604" lon="105.097362"><ele>569.1756</ele><time>2026-07-22T01:30:57.000Z</time></trkpt>
        <trkpt lat="28.655623" lon="105.097375"><ele>569.7293</ele><time>2026-07-22T01:30:59.000Z</time></trkpt>
        <trkpt lat="28.655639" lon="105.097391"><ele>569.1079</ele><time>2026-07-22T01:31:01.000Z</time></trkpt>
        <trkpt lat="28.655654" lon="105.097409"><ele>569.17487</ele><time>2026-07-22T01:31:03.000Z</time></trkpt>
        <trkpt lat="28.655671" lon="105.097429"><ele>569.8033</ele><time>2026-07-22T01:31:05.000Z</time></trkpt>
        <trkpt lat="28.655691" lon="105.097453"><ele>571.41656</ele><time>2026-07-22T01:31:07.000Z</time></trkpt>
        <trkpt lat="28.655709" lon="105.097474"><ele>571.0291</ele><time>2026-07-22T01:31:09.000Z</time></trkpt>
        <trkpt lat="28.655726" lon="105.09749"><ele>571.6683</ele><time>2026-07-22T01:31:11.000Z</time></trkpt>
        <trkpt lat="28.655744" lon="105.097505"><ele>571.82086</ele><time>2026-07-22T01:31:13.000Z</time></trkpt>
        <trkpt lat="28.655761" lon="105.097515"><ele>572.45667</ele><time>2026-07-22T01:31:15.000Z</time></trkpt>
        <trkpt lat="28.655778" lon="105.097525"><ele>572.11224</ele><time>2026-07-22T01:31:17.000Z</time></trkpt>
        <trkpt lat="28.655793" lon="105.097535"><ele>572.53046</ele><time>2026-07-22T01:31:19.000Z</time></trkpt>
        <trkpt lat="28.655809" lon="105.097549"><ele>573.4388</ele><time>2026-07-22T01:31:21.000Z</time></trkpt>
        <trkpt lat="28.655824" lon="105.097562"><ele>574.39166</ele><time>2026-07-22T01:31:23.000Z</time></trkpt>
        <trkpt lat="28.655844" lon="105.097577"><ele>574.262</ele><time>2026-07-22T01:31:25.000Z</time></trkpt>
        <trkpt lat="28.655864" lon="105.097589"><ele>574.32495</ele><time>2026-07-22T01:31:27.000Z</time></trkpt>
        <trkpt lat="28.655882" lon="105.097599"><ele>573.9225</ele><time>2026-07-22T01:31:29.000Z</time></trkpt>
        <trkpt lat="28.655901" lon="105.097612"><ele>575.2111</ele><time>2026-07-22T01:31:31.000Z</time></trkpt>
        <trkpt lat="28.655917" lon="105.097623"><ele>574.9781</ele><time>2026-07-22T01:31:33.000Z</time></trkpt>
        <trkpt lat="28.65593" lon="105.097634"><ele>575.05756</ele><time>2026-07-22T01:31:35.000Z</time></trkpt>
        <trkpt lat="28.655943" lon="105.097646"><ele>575.2053</ele><time>2026-07-22T01:31:37.000Z</time></trkpt>
        <trkpt lat="28.655955" lon="105.09766"><ele>574.9711</ele><time>2026-07-22T01:31:39.000Z</time></trkpt>
        <trkpt lat="28.655965" lon="105.097676"><ele>575.00836</ele><time>2026-07-22T01:31:41.000Z</time></trkpt>
        <trkpt lat="28.655978" lon="105.097697"><ele>576.0381</ele><time>2026-07-22T01:31:43.000Z</time></trkpt>
        <trkpt lat="28.655991" lon="105.097715"><ele>575.99713</ele><time>2026-07-22T01:31:45.000Z</time></trkpt>
        <trkpt lat="28.656007" lon="105.097731"><ele>575.3607</ele><time>2026-07-22T01:31:47.000Z</time></trkpt>
        <trkpt lat="28.656022" lon="105.097741"><ele>574.9392</ele><time>2026-07-22T01:31:49.000Z</time></trkpt>
        <trkpt lat="28.656042" lon="105.097749"><ele>575.1548</ele><time>2026-07-22T01:31:51.000Z</time></trkpt>
        <trkpt lat="28.656062" lon="105.097754"><ele>575.7554</ele><time>2026-07-22T01:31:53.000Z</time></trkpt>
        <trkpt lat="28.656082" lon="105.097757"><ele>576.28894</ele><time>2026-07-22T01:31:55.000Z</time></trkpt>
        <trkpt lat="28.656101" lon="105.097764"><ele>575.46533</ele><time>2026-07-22T01:31:57.000Z</time></trkpt>
        <trkpt lat="28.656117" lon="105.097776"><ele>576.0593</ele><time>2026-07-22T01:31:59.000Z</time></trkpt>
        <trkpt lat="28.656131" lon="105.097793"><ele>576.64844</ele><time>2026-07-22T01:32:01.000Z</time></trkpt>
        <trkpt lat="28.656149" lon="105.097817"><ele>577.10693</ele><time>2026-07-22T01:32:03.000Z</time></trkpt>
        <trkpt lat="28.656166" lon="105.097836"><ele>576.69305</ele><time>2026-07-22T01:32:05.000Z</time></trkpt>
        <trkpt lat="28.656181" lon="105.097849"><ele>576.4812</ele><time>2026-07-22T01:32:07.000Z</time></trkpt>
        <trkpt lat="28.656196" lon="105.097858"><ele>576.38416</ele><time>2026-07-22T01:32:09.000Z</time></trkpt>
        <trkpt lat="28.656211" lon="105.097865"><ele>577.0062</ele><time>2026-07-22T01:32:11.000Z</time></trkpt>
        <trkpt lat="28.656226" lon="105.097874"><ele>576.9712</ele><time>2026-07-22T01:32:13.000Z</time></trkpt>
        <trkpt lat="28.656241" lon="105.097884"><ele>577.3979</ele><time>2026-07-22T01:32:15.000Z</time></trkpt>
        <trkpt lat="28.656257" lon="105.097897"><ele>577.9911</ele><time>2026-07-22T01:32:17.000Z</time></trkpt>
        <trkpt lat="28.656277" lon="105.097915"><ele>578.82697</ele><time>2026-07-22T01:32:19.000Z</time></trkpt>
        <trkpt lat="28.65629" lon="105.09793"><ele>577.91925</ele><time>2026-07-22T01:32:21.000Z</time></trkpt>
        <trkpt lat="28.656304" lon="105.097946"><ele>579.6522</ele><time>2026-07-22T01:32:23.000Z</time></trkpt>
        <trkpt lat="28.656317" lon="105.097962"><ele>578.58014</ele><time>2026-07-22T01:32:25.000Z</time></trkpt>
        <trkpt lat="28.656328" lon="105.097977"><ele>578.2843</ele><time>2026-07-22T01:32:27.000Z</time></trkpt>
        <trkpt lat="28.656337" lon="105.097989"><ele>578.4294</ele><time>2026-07-22T01:32:29.000Z</time></trkpt>
        <trkpt lat="28.656351" lon="105.098003"><ele>579.2738</ele><time>2026-07-22T01:32:31.000Z</time></trkpt>
        <trkpt lat="28.656365" lon="105.098012"><ele>579.2626</ele><time>2026-07-22T01:32:33.000Z</time></trkpt>
        <trkpt lat="28.656378" lon="105.098016"><ele>578.96826</ele><time>2026-07-22T01:32:35.000Z</time></trkpt>
        <trkpt lat="28.656393" lon="105.098022"><ele>578.3088</ele><time>2026-07-22T01:32:37.000Z</time></trkpt>
        <trkpt lat="28.656405" lon="105.098029"><ele>578.9907</ele><time>2026-07-22T01:32:39.000Z</time></trkpt>
        <trkpt lat="28.656418" lon="105.098041"><ele>579.4007</ele><time>2026-07-22T01:32:41.000Z</time></trkpt>
        <trkpt lat="28.656428" lon="105.098056"><ele>579.92194</ele><time>2026-07-22T01:32:43.000Z</time></trkpt>
        <trkpt lat="28.656436" lon="105.098075"><ele>580.6567</ele><time>2026-07-22T01:32:45.000Z</time></trkpt>
        <trkpt lat="28.656441" lon="105.098096"><ele>579.66095</ele><time>2026-07-22T01:32:47.000Z</time></trkpt>
        <trkpt lat="28.656445" lon="105.098119"><ele>579.7979</ele><time>2026-07-22T01:32:49.000Z</time></trkpt>
        <trkpt lat="28.656449" lon="105.098145"><ele>580.7534</ele><time>2026-07-22T01:32:51.000Z</time></trkpt>
        <trkpt lat="28.656453" lon="105.098167"><ele>581.1738</ele><time>2026-07-22T01:32:53.000Z</time></trkpt>
        <trkpt lat="28.656456" lon="105.098188"><ele>581.3134</ele><time>2026-07-22T01:32:55.000Z</time></trkpt>
        <trkpt lat="28.656458" lon="105.098206"><ele>581.173</ele><time>2026-07-22T01:32:57.000Z</time></trkpt>
        <trkpt lat="28.656462" lon="105.098225"><ele>581.112</ele><time>2026-07-22T01:32:59.000Z</time></trkpt>
        <trkpt lat="28.656465" lon="105.098242"><ele>581.25055</ele><time>2026-07-22T01:33:01.000Z</time></trkpt>
        <trkpt lat="28.656469" lon="105.098261"><ele>581.83453</ele><time>2026-07-22T01:33:03.000Z</time></trkpt>
        <trkpt lat="28.656474" lon="105.098279"><ele>581.93414</ele><time>2026-07-22T01:33:05.000Z</time></trkpt>
        <trkpt lat="28.656479" lon="105.098299"><ele>581.70197</ele><time>2026-07-22T01:33:07.000Z</time></trkpt>
        <trkpt lat="28.656485" lon="105.098319"><ele>581.52325</ele><time>2026-07-22T01:33:09.000Z</time></trkpt>
        <trkpt lat="28.65649" lon="105.098337"><ele>581.241</ele><time>2026-07-22T01:33:11.000Z</time></trkpt>
        <trkpt lat="28.656497" lon="105.098359"><ele>580.9069</ele><time>2026-07-22T01:33:13.000Z</time></trkpt>
        <trkpt lat="28.656502" lon="105.098377"><ele>580.43976</ele><time>2026-07-22T01:33:15.000Z</time></trkpt>
        <trkpt lat="28.656508" lon="105.098396"><ele>580.1406</ele><time>2026-07-22T01:33:17.000Z</time></trkpt>
        <trkpt lat="28.656514" lon="105.098412"><ele>579.95197</ele><time>2026-07-22T01:33:19.000Z</time></trkpt>
        <trkpt lat="28.656522" lon="105.098428"><ele>579.91595</ele><time>2026-07-22T01:33:21.000Z</time></trkpt>
        <trkpt lat="28.656533" lon="105.098444"><ele>579.8701</ele><time>2026-07-22T01:33:23.000Z</time></trkpt>
        <trkpt lat="28.656544" lon="105.098457"><ele>580.31366</ele><time>2026-07-22T01:33:25.000Z</time></trkpt>
        <trkpt lat="28.656557" lon="105.098469"><ele>581.3994</ele><time>2026-07-22T01:33:27.000Z</time></trkpt>
        <trkpt lat="28.656571" lon="105.09848"><ele>581.84546</ele><time>2026-07-22T01:33:29.000Z</time></trkpt>
        <trkpt lat="28.656582" lon="105.098488"><ele>582.08746</ele><time>2026-07-22T01:33:31.000Z</time></trkpt>
        <trkpt lat="28.656596" lon="105.098496"><ele>582.43243</ele><time>2026-07-22T01:33:33.000Z</time></trkpt>
        <trkpt lat="28.656608" lon="105.098501"><ele>582.9136</ele><time>2026-07-22T01:33:35.000Z</time></trkpt>
        <trkpt lat="28.65662" lon="105.098508"><ele>583.1716</ele><time>2026-07-22T01:33:37.000Z</time></trkpt>
        <trkpt lat="28.656631" lon="105.098514"><ele>583.9953</ele><time>2026-07-22T01:33:39.000Z</time></trkpt>
        <trkpt lat="28.65664" lon="105.098519"><ele>584.1539</ele><time>2026-07-22T01:33:41.000Z</time></trkpt>
        <trkpt lat="28.656648" lon="105.098526"><ele>584.6445</ele><time>2026-07-22T01:33:43.000Z</time></trkpt>
        <trkpt lat="28.656657" lon="105.098535"><ele>585.668</ele><time>2026-07-22T01:33:45.000Z</time></trkpt>
        <trkpt lat="28.656666" lon="105.098545"><ele>586.4554</ele><time>2026-07-22T01:33:47.000Z</time></trkpt>
        <trkpt lat="28.656676" lon="105.098558"><ele>586.97546</ele><time>2026-07-22T01:33:49.000Z</time></trkpt>
        <trkpt lat="28.656684" lon="105.098572"><ele>587.84937</ele><time>2026-07-22T01:33:51.000Z</time></trkpt>
        <trkpt lat="28.656692" lon="105.098589"><ele>588.241</ele><time>2026-07-22T01:33:53.000Z</time></trkpt>
        <trkpt lat="28.656701" lon="105.098608"><ele>587.9395</ele><time>2026-07-22T01:33:55.000Z</time></trkpt>
        <trkpt lat="28.656709" lon="105.098625"><ele>588.23584</ele><time>2026-07-22T01:33:57.000Z</time></trkpt>
        <trkpt lat="28.656716" lon="105.098642"><ele>588.7604</ele><time>2026-07-22T01:33:59.000Z</time></trkpt>
        <trkpt lat="28.656723" lon="105.098654"><ele>590.10443</ele><time>2026-07-22T01:34:01.000Z</time></trkpt>
        <trkpt lat="28.656731" lon="105.098662"><ele>589.1847</ele><time>2026-07-22T01:34:03.000Z</time></trkpt>
        <trkpt lat="28.65674" lon="105.098667"><ele>588.78766</ele><time>2026-07-22T01:34:05.000Z</time></trkpt>
        <trkpt lat="28.656751" lon="105.098673"><ele>588.6376</ele><time>2026-07-22T01:34:07.000Z</time></trkpt>
        <trkpt lat="28.656764" lon="105.09868"><ele>588.7183</ele><time>2026-07-22T01:34:09.000Z</time></trkpt>
        <trkpt lat="28.656779" lon="105.098687"><ele>589.3984</ele><time>2026-07-22T01:34:11.000Z</time></trkpt>
        <trkpt lat="28.656794" lon="105.098695"><ele>588.484</ele><time>2026-07-22T01:34:13.000Z</time></trkpt>
        <trkpt lat="28.656808" lon="105.098704"><ele>588.3131</ele><time>2026-07-22T01:34:15.000Z</time></trkpt>
        <trkpt lat="28.656818" lon="105.098714"><ele>589.15015</ele><time>2026-07-22T01:34:17.000Z</time></trkpt>
        <trkpt lat="28.65683" lon="105.098731"><ele>590.07324</ele><time>2026-07-22T01:34:19.000Z</time></trkpt>
        <trkpt lat="28.656842" lon="105.09875"><ele>590.3261</ele><time>2026-07-22T01:34:21.000Z</time></trkpt>
        <trkpt lat="28.656856" lon="105.098773"><ele>591.5146</ele><time>2026-07-22T01:34:23.000Z</time></trkpt>
        <trkpt lat="28.656871" lon="105.098785"><ele>591.7901</ele><time>2026-07-22T01:34:25.000Z</time></trkpt>
        <trkpt lat="28.656888" lon="105.098793"><ele>592.6778</ele><time>2026-07-22T01:34:27.000Z</time></trkpt>
        <trkpt lat="28.656903" lon="105.098804"><ele>592.1341</ele><time>2026-07-22T01:34:29.000Z</time></trkpt>
        <trkpt lat="28.656918" lon="105.098817"><ele>592.2354</ele><time>2026-07-22T01:34:31.000Z</time></trkpt>
        <trkpt lat="28.656932" lon="105.098831"><ele>592.913</ele><time>2026-07-22T01:34:33.000Z</time></trkpt>
        <trkpt lat="28.656951" lon="105.09885"><ele>593.0543</ele><time>2026-07-22T01:34:35.000Z</time></trkpt>
        <trkpt lat="28.656966" lon="105.098865"><ele>594.33734</ele><time>2026-07-22T01:34:37.000Z</time></trkpt>
        <trkpt lat="28.656978" lon="105.098884"><ele>594.11646</ele><time>2026-07-22T01:34:39.000Z</time></trkpt>
        <trkpt lat="28.656994" lon="105.098908"><ele>594.2498</ele><time>2026-07-22T01:34:41.000Z</time></trkpt>
        <trkpt lat="28.657008" lon="105.098929"><ele>593.9332</ele><time>2026-07-22T01:34:43.000Z</time></trkpt>
        <trkpt lat="28.657019" lon="105.098945"><ele>594.76654</ele><time>2026-07-22T01:34:45.000Z</time></trkpt>
        <trkpt lat="28.657032" lon="105.098959"><ele>594.35376</ele><time>2026-07-22T01:34:47.000Z</time></trkpt>
        <trkpt lat="28.657045" lon="105.098968"><ele>593.0841</ele><time>2026-07-22T01:34:49.000Z</time></trkpt>
        <trkpt lat="28.657061" lon="105.098978"><ele>593.5258</ele><time>2026-07-22T01:34:51.000Z</time></trkpt>
        <trkpt lat="28.657074" lon="105.098986"><ele>593.71277</ele><time>2026-07-22T01:34:53.000Z</time></trkpt>
        <trkpt lat="28.657085" lon="105.098994"><ele>594.1112</ele><time>2026-07-22T01:34:55.000Z</time></trkpt>
        <trkpt lat="28.657097" lon="105.099004"><ele>594.6775</ele><time>2026-07-22T01:34:57.000Z</time></trkpt>
        <trkpt lat="28.65711" lon="105.099015"><ele>595.6674</ele><time>2026-07-22T01:34:59.000Z</time></trkpt>
        <trkpt lat="28.657123" lon="105.099028"><ele>595.923</ele><time>2026-07-22T01:35:01.000Z</time></trkpt>
        <trkpt lat="28.657137" lon="105.099042"><ele>595.7806</ele><time>2026-07-22T01:35:03.000Z</time></trkpt>
        <trkpt lat="28.657147" lon="105.099054"><ele>594.9366</ele><time>2026-07-22T01:35:05.000Z</time></trkpt>
        <trkpt lat="28.657156" lon="105.099062"><ele>595.0261</ele><time>2026-07-22T01:35:07.000Z</time></trkpt>
        <trkpt lat="28.65717" lon="105.099077"><ele>595.06757</ele><time>2026-07-22T01:35:09.000Z</time></trkpt>
        <trkpt lat="28.657185" lon="105.099101"><ele>595.7755</ele><time>2026-07-22T01:35:11.000Z</time></trkpt>
        <trkpt lat="28.657203" lon="105.09913"><ele>596.5572</ele><time>2026-07-22T01:35:13.000Z</time></trkpt>
        <trkpt lat="28.657215" lon="105.099149"><ele>596.1917</ele><time>2026-07-22T01:35:15.000Z</time></trkpt>
        <trkpt lat="28.657224" lon="105.099161"><ele>596.38666</ele><time>2026-07-22T01:35:17.000Z</time></trkpt>
        <trkpt lat="28.657232" lon="105.099172"><ele>596.75793</ele><time>2026-07-22T01:35:19.000Z</time></trkpt>
        <trkpt lat="28.657242" lon="105.099185"><ele>595.64</ele><time>2026-07-22T01:35:21.000Z</time></trkpt>
        <trkpt lat="28.65725" lon="105.099196"><ele>595.98486</ele><time>2026-07-22T01:35:23.000Z</time></trkpt>
        <trkpt lat="28.657256" lon="105.099206"><ele>596.0381</ele><time>2026-07-22T01:35:25.000Z</time></trkpt>
        <trkpt lat="28.657262" lon="105.09922"><ele>596.8187</ele><time>2026-07-22T01:35:27.000Z</time></trkpt>
        <trkpt lat="28.65727" lon="105.099231"><ele>596.2101</ele><time>2026-07-22T01:35:29.000Z</time></trkpt>
        <trkpt lat="28.657279" lon="105.099244"><ele>596.53705</ele><time>2026-07-22T01:35:31.000Z</time></trkpt>
        <trkpt lat="28.657287" lon="105.099259"><ele>596.8219</ele><time>2026-07-22T01:35:33.000Z</time></trkpt>
        <trkpt lat="28.657295" lon="105.099275"><ele>597.7532</ele><time>2026-07-22T01:35:35.000Z</time></trkpt>
        <trkpt lat="28.657301" lon="105.09929"><ele>597.93604</ele><time>2026-07-22T01:35:37.000Z</time></trkpt>
        <trkpt lat="28.65731" lon="105.099309"><ele>598.945</ele><time>2026-07-22T01:35:39.000Z</time></trkpt>
        <trkpt lat="28.657318" lon="105.099327"><ele>598.73315</ele><time>2026-07-22T01:35:41.000Z</time></trkpt>
        <trkpt lat="28.657326" lon="105.099344"><ele>598.6226</ele><time>2026-07-22T01:35:43.000Z</time></trkpt>
        <trkpt lat="28.657331" lon="105.099358"><ele>599.1916</ele><time>2026-07-22T01:35:45.000Z</time></trkpt>
        <trkpt lat="28.657332" lon="105.099367"><ele>598.8136</ele><time>2026-07-22T01:35:47.000Z</time></trkpt>
        <trkpt lat="28.657335" lon="105.099381"><ele>600.08795</ele><time>2026-07-22T01:35:49.000Z</time></trkpt>
        <trkpt lat="28.657342" lon="105.099395"><ele>600.3655</ele><time>2026-07-22T01:35:51.000Z</time></trkpt>
        <trkpt lat="28.657353" lon="105.099415"><ele>599.03217</ele><time>2026-07-22T01:35:53.000Z</time></trkpt>
        <trkpt lat="28.65736" lon="105.099432"><ele>599.3287</ele><time>2026-07-22T01:35:55.000Z</time></trkpt>
        <trkpt lat="28.65737" lon="105.099452"><ele>600.4559</ele><time>2026-07-22T01:35:57.000Z</time></trkpt>
        <trkpt lat="28.657377" lon="105.099465"><ele>601.44604</ele><time>2026-07-22T01:35:59.000Z</time></trkpt>
        <trkpt lat="28.657383" lon="105.099475"><ele>601.23914</ele><time>2026-07-22T01:36:01.000Z</time></trkpt>
        <trkpt lat="28.657387" lon="105.099483"><ele>601.7634</ele><time>2026-07-22T01:36:03.000Z</time></trkpt>
        <trkpt lat="28.657386" lon="105.099489"><ele>601.6964</ele><time>2026-07-22T01:36:05.000Z</time></trkpt>
        <trkpt lat="28.657379" lon="105.099505"><ele>601.0328</ele><time>2026-07-22T01:36:09.000Z</time></trkpt>
        <trkpt lat="28.65737" lon="105.099524"><ele>600.6771</ele><time>2026-07-22T01:36:11.000Z</time></trkpt>
        <trkpt lat="28.657369" lon="105.099524"><ele>600.5902</ele><time>2026-07-22T01:36:13.000Z</time></trkpt>
        <trkpt lat="28.657431" lon="105.09951"><ele>602.95636</ele><time>2026-07-22T01:37:01.000Z</time></trkpt>
        <trkpt lat="28.657431" lon="105.09951"><ele>602.25433</ele><time>2026-07-22T01:37:03.000Z</time></trkpt>
        <trkpt lat="28.65743" lon="105.099512"><ele>602.2734</ele><time>2026-07-22T01:37:05.000Z</time></trkpt>
        <trkpt lat="28.65742" lon="105.099569"><ele>601.13306</ele><time>2026-07-22T01:37:11.000Z</time></trkpt>
        <trkpt lat="28.657418" lon="105.099587"><ele>601.52954</ele><time>2026-07-22T01:37:13.000Z</time></trkpt>
        <trkpt lat="28.657417" lon="105.099587"><ele>601.69366</ele><time>2026-07-22T01:37:15.000Z</time></trkpt>
        <trkpt lat="28.657475" lon="105.099587"><ele>603.55444</ele><time>2026-07-22T01:37:27.000Z</time></trkpt>
        <trkpt lat="28.657475" lon="105.099587"><ele>603.7064</ele><time>2026-07-22T01:37:29.000Z</time></trkpt>
        <trkpt lat="28.657475" lon="105.099581"><ele>603.05963</ele><time>2026-07-22T01:37:31.000Z</time></trkpt>
        <trkpt lat="28.657478" lon="105.099467"><ele>605.0884</ele><time>2026-07-22T01:37:37.000Z</time></trkpt>
        <trkpt lat="28.657422" lon="105.099377"><ele>606.3724</ele><time>2026-07-22T01:37:39.000Z</time></trkpt>
        <trkpt lat="28.657423" lon="105.099374"><ele>606.94806</ele><time>2026-07-22T01:37:41.000Z</time></trkpt>
        <trkpt lat="28.657424" lon="105.099382"><ele>604.9248</ele><time>2026-07-22T01:37:43.000Z</time></trkpt>
        <trkpt lat="28.657433" lon="105.099485"><ele>606.39557</ele><time>2026-07-22T01:37:47.000Z</time></trkpt>
        <trkpt lat="28.65744" lon="105.099537"><ele>607.15045</ele><time>2026-07-22T01:37:49.000Z</time></trkpt>
        <trkpt lat="28.657441" lon="105.099568"><ele>607.64185</ele><time>2026-07-22T01:37:51.000Z</time></trkpt>
        <trkpt lat="28.65744" lon="105.099568"><ele>607.1071</ele><time>2026-07-22T01:37:53.000Z</time></trkpt>
        <trkpt lat="28.657506" lon="105.099564"><ele>607.21875</ele><time>2026-07-22T01:38:01.000Z</time></trkpt>
        <trkpt lat="28.657525" lon="105.099563"><ele>607.77454</ele><time>2026-07-22T01:38:03.000Z</time></trkpt>
        <trkpt lat="28.65752" lon="105.099583"><ele>607.77594</ele><time>2026-07-22T01:38:05.000Z</time></trkpt>
        <trkpt lat="28.65749" lon="105.099703"><ele>603.8833</ele><time>2026-07-22T01:38:07.000Z</time></trkpt>
        <trkpt lat="28.657489" lon="105.099709"><ele>603.6125</ele><time>2026-07-22T01:38:09.000Z</time></trkpt>
        <trkpt lat="28.657489" lon="105.09971"><ele>602.59094</ele><time>2026-07-22T01:38:11.000Z</time></trkpt>
        <trkpt lat="28.657513" lon="105.099763"><ele>602.60583</ele><time>2026-07-22T01:38:36.000Z</time></trkpt>
        <trkpt lat="28.657505" lon="105.099804"><ele>602.78894</ele><time>2026-07-22T01:38:38.000Z</time></trkpt>
        <trkpt lat="28.657505" lon="105.099805"><ele>602.39636</ele><time>2026-07-22T01:38:40.000Z</time></trkpt>
        <trkpt lat="28.657516" lon="105.099829"><ele>604.8327</ele><time>2026-07-22T01:38:46.000Z</time></trkpt>
        <trkpt lat="28.657531" lon="105.099864"><ele>606.18274</ele><time>2026-07-22T01:38:50.000Z</time></trkpt>
        <trkpt lat="28.657538" lon="105.099875"><ele>606.72144</ele><time>2026-07-22T01:38:52.000Z</time></trkpt>
        <trkpt lat="28.657542" lon="105.099885"><ele>607.35693</ele><time>2026-07-22T01:38:54.000Z</time></trkpt>
        <trkpt lat="28.657552" lon="105.09991"><ele>607.6669</ele><time>2026-07-22T01:38:58.000Z</time></trkpt>
        <trkpt lat="28.657553" lon="105.09992"><ele>608.30835</ele><time>2026-07-22T01:39:00.000Z</time></trkpt>
        <trkpt lat="28.657553" lon="105.099934"><ele>608.499</ele><time>2026-07-22T01:39:02.000Z</time></trkpt>
        <trkpt lat="28.657547" lon="105.099964"><ele>608.6837</ele><time>2026-07-22T01:39:06.000Z</time></trkpt>
        <trkpt lat="28.657542" lon="105.099982"><ele>610.38257</ele><time>2026-07-22T01:39:08.000Z</time></trkpt>
        <trkpt lat="28.65754" lon="105.099995"><ele>610.7938</ele><time>2026-07-22T01:39:10.000Z</time></trkpt>
        <trkpt lat="28.657536" lon="105.099997"><ele>610.1158</ele><time>2026-07-22T01:39:14.000Z</time></trkpt>
        <trkpt lat="28.657412" lon="105.100056"><ele>608.68066</ele><time>2026-07-22T01:39:21.000Z</time></trkpt>
        <trkpt lat="28.657412" lon="105.100057"><ele>607.6674</ele><time>2026-07-22T01:39:23.000Z</time></trkpt>
        <trkpt lat="28.657421" lon="105.10006"><ele>606.1154</ele><time>2026-07-22T01:39:25.000Z</time></trkpt>
        <trkpt lat="28.657454" lon="105.100071"><ele>607.26373</ele><time>2026-07-22T01:39:27.000Z</time></trkpt>
        <trkpt lat="28.657506" lon="105.10009"><ele>607.99994</ele><time>2026-07-22T01:39:29.000Z</time></trkpt>
        <trkpt lat="28.65755" lon="105.100107"><ele>609.91187</ele><time>2026-07-22T01:39:31.000Z</time></trkpt>
        <trkpt lat="28.657577" lon="105.100126"><ele>610.63824</ele><time>2026-07-22T01:39:33.000Z</time></trkpt>
        <trkpt lat="28.657591" lon="105.100137"><ele>611.45795</ele><time>2026-07-22T01:39:35.000Z</time></trkpt>
        <trkpt lat="28.657599" lon="105.100145"><ele>610.6191</ele><time>2026-07-22T01:39:37.000Z</time></trkpt>
        <trkpt lat="28.657598" lon="105.10015"><ele>610.9733</ele><time>2026-07-22T01:39:39.000Z</time></trkpt>
        <trkpt lat="28.657597" lon="105.100182"><ele>611.7209</ele><time>2026-07-22T01:39:45.000Z</time></trkpt>
        <trkpt lat="28.657597" lon="105.100182"><ele>613.5988</ele><time>2026-07-22T01:39:47.000Z</time></trkpt>
        <trkpt lat="28.657595" lon="105.100184"><ele>613.57227</ele><time>2026-07-22T01:39:49.000Z</time></trkpt>
        <trkpt lat="28.657576" lon="105.100202"><ele>610.6407</ele><time>2026-07-22T01:39:55.000Z</time></trkpt>
        <trkpt lat="28.657573" lon="105.100208"><ele>608.5207</ele><time>2026-07-22T01:39:57.000Z</time></trkpt>
        <trkpt lat="28.657574" lon="105.100212"><ele>606.714</ele><time>2026-07-22T01:39:59.000Z</time></trkpt>
        <trkpt lat="28.657575" lon="105.10025"><ele>607.8409</ele><time>2026-07-22T01:42:00.000Z</time></trkpt>
        <trkpt lat="28.657576" lon="105.100271"><ele>607.6975</ele><time>2026-07-22T01:42:04.000Z</time></trkpt>
        <trkpt lat="28.657576" lon="105.100271"><ele>607.2543</ele><time>2026-07-22T01:42:06.000Z</time></trkpt>
        <trkpt lat="28.657615" lon="105.100193"><ele>606.2912</ele><time>2026-07-22T01:42:32.000Z</time></trkpt>
        <trkpt lat="28.657615" lon="105.100193"><ele>606.8038</ele><time>2026-07-22T01:42:34.000Z</time></trkpt>
        <trkpt lat="28.657615" lon="105.100194"><ele>606.50903</ele><time>2026-07-22T01:42:36.000Z</time></trkpt>
        <trkpt lat="28.65761" lon="105.100285"><ele>605.26776</ele><time>2026-07-22T01:43:31.000Z</time></trkpt>
        <trkpt lat="28.657592" lon="105.100273"><ele>604.67426</ele><time>2026-07-22T01:43:33.000Z</time></trkpt>
        <trkpt lat="28.657591" lon="105.100273"><ele>604.7933</ele><time>2026-07-22T01:43:35.000Z</time></trkpt>
        <trkpt lat="28.657547" lon="105.100276"><ele>606.60333</ele><time>2026-07-22T01:43:45.000Z</time></trkpt>
        <trkpt lat="28.65753" lon="105.100277"><ele>605.98267</ele><time>2026-07-22T01:43:55.000Z</time></trkpt>
        <trkpt lat="28.65753" lon="105.100277"><ele>606.7201</ele><time>2026-07-22T01:43:57.000Z</time></trkpt>
        <trkpt lat="28.657585" lon="105.100333"><ele>605.2725</ele><time>2026-07-22T01:44:37.000Z</time></trkpt>
        <trkpt lat="28.657576" lon="105.100361"><ele>605.1095</ele><time>2026-07-22T01:44:39.000Z</time></trkpt>
        <trkpt lat="28.657576" lon="105.100362"><ele>606.6262</ele><time>2026-07-22T01:44:41.000Z</time></trkpt>
        <trkpt lat="28.657555" lon="105.100392"><ele>605.93384</ele><time>2026-07-22T01:44:44.000Z</time></trkpt>
        <trkpt lat="28.657527" lon="105.100388"><ele>602.9961</ele><time>2026-07-22T01:44:51.000Z</time></trkpt>
        <trkpt lat="28.657515" lon="105.100392"><ele>601.3881</ele><time>2026-07-22T01:44:53.000Z</time></trkpt>
        <trkpt lat="28.657508" lon="105.1004"><ele>600.59686</ele><time>2026-07-22T01:44:55.000Z</time></trkpt>
        <trkpt lat="28.657505" lon="105.100413"><ele>600.54004</ele><time>2026-07-22T01:44:57.000Z</time></trkpt>
        <trkpt lat="28.657501" lon="105.100437"><ele>597.44824</ele><time>2026-07-22T01:45:01.000Z</time></trkpt>
        <trkpt lat="28.657497" lon="105.100454"><ele>597.9398</ele><time>2026-07-22T01:45:03.000Z</time></trkpt>
        <trkpt lat="28.657491" lon="105.100476"><ele>599.56726</ele><time>2026-07-22T01:45:05.000Z</time></trkpt>
        <trkpt lat="28.657485" lon="105.100502"><ele>600.9781</ele><time>2026-07-22T01:45:07.000Z</time></trkpt>
        <trkpt lat="28.657483" lon="105.10051"><ele>602.1819</ele><time>2026-07-22T01:45:09.000Z</time></trkpt>
        <trkpt lat="28.657481" lon="105.10052"><ele>601.1304</ele><time>2026-07-22T01:45:12.000Z</time></trkpt>
        <trkpt lat="28.657479" lon="105.100544"><ele>596.4128</ele><time>2026-07-22T01:45:20.000Z</time></trkpt>
        <trkpt lat="28.657477" lon="105.100569"><ele>595.7967</ele><time>2026-07-22T01:45:22.000Z</time></trkpt>
        <trkpt lat="28.657477" lon="105.10057"><ele>595.813</ele><time>2026-07-22T01:45:24.000Z</time></trkpt>
        <trkpt lat="28.657476" lon="105.100581"><ele>594.165</ele><time>2026-07-22T01:45:28.000Z</time></trkpt>
        <trkpt lat="28.657466" lon="105.10062"><ele>593.3043</ele><time>2026-07-22T01:45:32.000Z</time></trkpt>
        <trkpt lat="28.657456" lon="105.100632"><ele>594.4376</ele><time>2026-07-22T01:45:34.000Z</time></trkpt>
        <trkpt lat="28.657451" lon="105.100631"><ele>593.5594</ele><time>2026-07-22T01:45:36.000Z</time></trkpt>
        <trkpt lat="28.657436" lon="105.100621"><ele>592.8752</ele><time>2026-07-22T01:45:42.000Z</time></trkpt>
        <trkpt lat="28.657416" lon="105.100609"><ele>592.01135</ele><time>2026-07-22T01:45:44.000Z</time></trkpt>
        <trkpt lat="28.657415" lon="105.100608"><ele>590.2119</ele><time>2026-07-22T01:45:46.000Z</time></trkpt>
        <trkpt lat="28.65741" lon="105.100592"><ele>591.3373</ele><time>2026-07-22T01:45:50.000Z</time></trkpt>
        <trkpt lat="28.657403" lon="105.100574"><ele>588.04425</ele><time>2026-07-22T01:45:52.000Z</time></trkpt>
        <trkpt lat="28.657392" lon="105.100551"><ele>588.0793</ele><time>2026-07-22T01:45:54.000Z</time></trkpt>
        <trkpt lat="28.657383" lon="105.100534"><ele>588.6428</ele><time>2026-07-22T01:45:56.000Z</time></trkpt>
        <trkpt lat="28.657375" lon="105.100519"><ele>587.5397</ele><time>2026-07-22T01:45:58.000Z</time></trkpt>
        <trkpt lat="28.657367" lon="105.100501"><ele>587.3914</ele><time>2026-07-22T01:46:00.000Z</time></trkpt>
        <trkpt lat="28.657362" lon="105.100481"><ele>587.23285</ele><time>2026-07-22T01:46:02.000Z</time></trkpt>
        <trkpt lat="28.657359" lon="105.100468"><ele>586.1983</ele><time>2026-07-22T01:46:04.000Z</time></trkpt>
        <trkpt lat="28.657361" lon="105.100458"><ele>585.38605</ele><time>2026-07-22T01:46:06.000Z</time></trkpt>
        <trkpt lat="28.657348" lon="105.100531"><ele>582.9874</ele><time>2026-07-22T01:46:16.000Z</time></trkpt>
        <trkpt lat="28.657348" lon="105.100531"><ele>582.93665</ele><time>2026-07-22T01:46:18.000Z</time></trkpt>
        <trkpt lat="28.657346" lon="105.100533"><ele>583.45856</ele><time>2026-07-22T01:46:20.000Z</time></trkpt>
        <trkpt lat="28.657331" lon="105.100556"><ele>582.4734</ele><time>2026-07-22T01:46:24.000Z</time></trkpt>
        <trkpt lat="28.657318" lon="105.100577"><ele>582.06104</ele><time>2026-07-22T01:46:26.000Z</time></trkpt>
        <trkpt lat="28.657309" lon="105.100595"><ele>581.4704</ele><time>2026-07-22T01:46:28.000Z</time></trkpt>
        <trkpt lat="28.657304" lon="105.10061"><ele>581.3</ele><time>2026-07-22T01:46:30.000Z</time></trkpt>
        <trkpt lat="28.6573" lon="105.100625"><ele>580.1654</ele><time>2026-07-22T01:46:32.000Z</time></trkpt>
        <trkpt lat="28.657295" lon="105.100639"><ele>579.70105</ele><time>2026-07-22T01:46:34.000Z</time></trkpt>
        <trkpt lat="28.657294" lon="105.100647"><ele>577.9225</ele><time>2026-07-22T01:46:36.000Z</time></trkpt>
        <trkpt lat="28.657289" lon="105.10065"><ele>576.28644</ele><time>2026-07-22T01:46:38.000Z</time></trkpt>
        <trkpt lat="28.657277" lon="105.100649"><ele>576.1596</ele><time>2026-07-22T01:46:40.000Z</time></trkpt>
        <trkpt lat="28.657267" lon="105.100643"><ele>574.4575</ele><time>2026-07-22T01:46:42.000Z</time></trkpt>
        <trkpt lat="28.657257" lon="105.100628"><ele>574.7506</ele><time>2026-07-22T01:46:44.000Z</time></trkpt>
        <trkpt lat="28.657253" lon="105.100613"><ele>573.3626</ele><time>2026-07-22T01:46:46.000Z</time></trkpt>
        <trkpt lat="28.657252" lon="105.100596"><ele>572.9427</ele><time>2026-07-22T01:46:48.000Z</time></trkpt>
        <trkpt lat="28.657253" lon="105.10058"><ele>573.5955</ele><time>2026-07-22T01:46:50.000Z</time></trkpt>
        <trkpt lat="28.657254" lon="105.100559"><ele>573.1053</ele><time>2026-07-22T01:46:51.000Z</time></trkpt>
        <trkpt lat="28.657256" lon="105.100542"><ele>573.1082</ele><time>2026-07-22T01:46:53.000Z</time></trkpt>
        <trkpt lat="28.657255" lon="105.100528"><ele>571.73267</ele><time>2026-07-22T01:46:55.000Z</time></trkpt>
        <trkpt lat="28.65725" lon="105.100523"><ele>571.99207</ele><time>2026-07-22T01:46:57.000Z</time></trkpt>
        <trkpt lat="28.657239" lon="105.100518"><ele>571.22</ele><time>2026-07-22T01:47:01.000Z</time></trkpt>
        <trkpt lat="28.657232" lon="105.100516"><ele>570.6269</ele><time>2026-07-22T01:47:03.000Z</time></trkpt>
        <trkpt lat="28.657222" lon="105.100506"><ele>570.3539</ele><time>2026-07-22T01:47:07.000Z</time></trkpt>
        <trkpt lat="28.657211" lon="105.100495"><ele>570.5086</ele><time>2026-07-22T01:47:09.000Z</time></trkpt>
        <trkpt lat="28.657211" lon="105.100495"><ele>569.4601</ele><time>2026-07-22T01:47:11.000Z</time></trkpt>
        <trkpt lat="28.657203" lon="105.100477"><ele>567.2826</ele><time>2026-07-22T01:47:18.000Z</time></trkpt>
        <trkpt lat="28.657198" lon="105.100467"><ele>567.10614</ele><time>2026-07-22T01:47:20.000Z</time></trkpt>
        <trkpt lat="28.657188" lon="105.100453"><ele>565.34125</ele><time>2026-07-22T01:47:22.000Z</time></trkpt>
        <trkpt lat="28.657188" lon="105.100452"><ele>563.86993</ele><time>2026-07-22T01:47:24.000Z</time></trkpt>
        <trkpt lat="28.657177" lon="105.100431"><ele>562.07855</ele><time>2026-07-22T01:47:30.000Z</time></trkpt>
        <trkpt lat="28.65717" lon="105.100414"><ele>561.95953</ele><time>2026-07-22T01:47:32.000Z</time></trkpt>
        <trkpt lat="28.657162" lon="105.100395"><ele>561.1993</ele><time>2026-07-22T01:47:34.000Z</time></trkpt>
        <trkpt lat="28.657156" lon="105.100376"><ele>559.8568</ele><time>2026-07-22T01:47:36.000Z</time></trkpt>
        <trkpt lat="28.65715" lon="105.100364"><ele>561.41327</ele><time>2026-07-22T01:47:38.000Z</time></trkpt>
        <trkpt lat="28.657144" lon="105.100364"><ele>560.9928</ele><time>2026-07-22T01:47:40.000Z</time></trkpt>
        <trkpt lat="28.657129" lon="105.10037"><ele>560.7702</ele><time>2026-07-22T01:47:42.000Z</time></trkpt>
        <trkpt lat="28.657109" lon="105.100369"><ele>559.31244</ele><time>2026-07-22T01:47:44.000Z</time></trkpt>
        <trkpt lat="28.657108" lon="105.100369"><ele>559.04987</ele><time>2026-07-22T01:47:46.000Z</time></trkpt>
        <trkpt lat="28.657169" lon="105.100389"><ele>558.0658</ele><time>2026-07-22T01:47:58.000Z</time></trkpt>
        <trkpt lat="28.657168" lon="105.100389"><ele>557.187</ele><time>2026-07-22T01:48:00.000Z</time></trkpt>
        <trkpt lat="28.657167" lon="105.100389"><ele>555.0728</ele><time>2026-07-22T01:48:02.000Z</time></trkpt>
        <trkpt lat="28.657118" lon="105.100439"><ele>555.6033</ele><time>2026-07-22T01:48:05.000Z</time></trkpt>
        <trkpt lat="28.657118" lon="105.100439"><ele>553.6955</ele><time>2026-07-22T01:48:07.000Z</time></trkpt>
        <trkpt lat="28.657115" lon="105.10044"><ele>552.9154</ele><time>2026-07-22T01:48:09.000Z</time></trkpt>
        <trkpt lat="28.657077" lon="105.100464"><ele>549.3969</ele><time>2026-07-22T01:48:15.000Z</time></trkpt>
        <trkpt lat="28.657065" lon="105.100475"><ele>549.2978</ele><time>2026-07-22T01:48:17.000Z</time></trkpt>
        <trkpt lat="28.657051" lon="105.100484"><ele>549.328</ele><time>2026-07-22T01:48:19.000Z</time></trkpt>
        <trkpt lat="28.657042" lon="105.100491"><ele>548.0372</ele><time>2026-07-22T01:48:21.000Z</time></trkpt>
        <trkpt lat="28.657033" lon="105.100497"><ele>547.39667</ele><time>2026-07-22T01:48:23.000Z</time></trkpt>
        <trkpt lat="28.657025" lon="105.100505"><ele>545.97437</ele><time>2026-07-22T01:48:25.000Z</time></trkpt>
        <trkpt lat="28.657014" lon="105.10051"><ele>545.57495</ele><time>2026-07-22T01:48:27.000Z</time></trkpt>
        <trkpt lat="28.657006" lon="105.100513"><ele>544.4963</ele><time>2026-07-22T01:48:29.000Z</time></trkpt>
        <trkpt lat="28.656995" lon="105.100517"><ele>543.8346</ele><time>2026-07-22T01:48:31.000Z</time></trkpt>
        <trkpt lat="28.656986" lon="105.100523"><ele>543.2025</ele><time>2026-07-22T01:48:33.000Z</time></trkpt>
        <trkpt lat="28.656978" lon="105.100531"><ele>541.9715</ele><time>2026-07-22T01:48:35.000Z</time></trkpt>
        <trkpt lat="28.656962" lon="105.100548"><ele>542.16693</ele><time>2026-07-22T01:48:37.000Z</time></trkpt>
        <trkpt lat="28.656949" lon="105.100561"><ele>541.53955</ele><time>2026-07-22T01:48:39.000Z</time></trkpt>
        <trkpt lat="28.656937" lon="105.10057"><ele>540.6715</ele><time>2026-07-22T01:48:41.000Z</time></trkpt>
        <trkpt lat="28.656927" lon="105.100575"><ele>539.4126</ele><time>2026-07-22T01:48:43.000Z</time></trkpt>
        <trkpt lat="28.656917" lon="105.100579"><ele>538.99164</ele><time>2026-07-22T01:48:45.000Z</time></trkpt>
        <trkpt lat="28.656903" lon="105.100586"><ele>537.7004</ele><time>2026-07-22T01:48:47.000Z</time></trkpt>
        <trkpt lat="28.656891" lon="105.10059"><ele>536.8112</ele><time>2026-07-22T01:48:49.000Z</time></trkpt>
        <trkpt lat="28.65688" lon="105.100594"><ele>535.30426</ele><time>2026-07-22T01:48:51.000Z</time></trkpt>
        <trkpt lat="28.656874" lon="105.100598"><ele>534.5274</ele><time>2026-07-22T01:48:53.000Z</time></trkpt>
        <trkpt lat="28.656866" lon="105.100603"><ele>534.918</ele><time>2026-07-22T01:48:55.000Z</time></trkpt>
        <trkpt lat="28.656853" lon="105.100613"><ele>534.04816</ele><time>2026-07-22T01:48:58.000Z</time></trkpt>
        <trkpt lat="28.65684" lon="105.100623"><ele>532.86884</ele><time>2026-07-22T01:49:01.000Z</time></trkpt>
        <trkpt lat="28.65684" lon="105.100624"><ele>533.1646</ele><time>2026-07-22T01:49:03.000Z</time></trkpt>
        <trkpt lat="28.656829" lon="105.100626"><ele>533.0357</ele><time>2026-07-22T01:49:07.000Z</time></trkpt>
        <trkpt lat="28.656812" lon="105.100619"><ele>530.70593</ele><time>2026-07-22T01:49:11.000Z</time></trkpt>
        <trkpt lat="28.656798" lon="105.100613"><ele>529.6961</ele><time>2026-07-22T01:49:13.000Z</time></trkpt>
        <trkpt lat="28.656797" lon="105.100613"><ele>529.08954</ele><time>2026-07-22T01:49:15.000Z</time></trkpt>
        <trkpt lat="28.656776" lon="105.100603"><ele>526.794</ele><time>2026-07-22T01:49:21.000Z</time></trkpt>
        <trkpt lat="28.656753" lon="105.100594"><ele>526.7144</ele><time>2026-07-22T01:49:23.000Z</time></trkpt>
        <trkpt lat="28.656731" lon="105.100581"><ele>527.3678</ele><time>2026-07-22T01:49:25.000Z</time></trkpt>
        <trkpt lat="28.656716" lon="105.100571"><ele>526.3752</ele><time>2026-07-22T01:49:27.000Z</time></trkpt>
        <trkpt lat="28.656716" lon="105.100567"><ele>526.2714</ele><time>2026-07-22T01:49:29.000Z</time></trkpt>
        <trkpt lat="28.656718" lon="105.100547"><ele>524.2046</ele><time>2026-07-22T01:49:33.000Z</time></trkpt>
        <trkpt lat="28.656717" lon="105.10054"><ele>524.7276</ele><time>2026-07-22T01:49:35.000Z</time></trkpt>
        <trkpt lat="28.656714" lon="105.100531"><ele>524.17975</ele><time>2026-07-22T01:49:37.000Z</time></trkpt>
        <trkpt lat="28.656703" lon="105.100485"><ele>523.72504</ele><time>2026-07-22T01:49:59.000Z</time></trkpt>
        <trkpt lat="28.656689" lon="105.100429"><ele>523.4737</ele><time>2026-07-22T01:50:01.000Z</time></trkpt>
        <trkpt lat="28.656689" lon="105.100426"><ele>522.2091</ele><time>2026-07-22T01:50:03.000Z</time></trkpt>
        <trkpt lat="28.65669" lon="105.100413"><ele>521.3664</ele><time>2026-07-22T01:50:05.000Z</time></trkpt>
        <trkpt lat="28.656699" lon="105.100359"><ele>520.19244</ele><time>2026-07-22T01:50:07.000Z</time></trkpt>
        <trkpt lat="28.65674" lon="105.100115"><ele>520.2686</ele><time>2026-07-22T01:50:09.000Z</time></trkpt>
        <trkpt lat="28.656741" lon="105.100098"><ele>521.21313</ele><time>2026-07-22T01:50:11.000Z</time></trkpt>
        <trkpt lat="28.65674" lon="105.100085"><ele>520.79205</ele><time>2026-07-22T01:50:13.000Z</time></trkpt>
        <trkpt lat="28.65673" lon="105.100032"><ele>520.75885</ele><time>2026-07-22T01:50:15.000Z</time></trkpt>
        <trkpt lat="28.656685" lon="105.099788"><ele>521.3697</ele><time>2026-07-22T01:50:17.000Z</time></trkpt>
        <trkpt lat="28.656677" lon="105.099775"><ele>520.88</ele><time>2026-07-22T01:50:19.000Z</time></trkpt>
        <trkpt lat="28.656669" lon="105.09977"><ele>519.6368</ele><time>2026-07-22T01:50:21.000Z</time></trkpt>
        <trkpt lat="28.656622" lon="105.099746"><ele>518.5506</ele><time>2026-07-22T01:50:23.000Z</time></trkpt>
        <trkpt lat="28.656409" lon="105.099637"><ele>517.3615</ele><time>2026-07-22T01:50:25.000Z</time></trkpt>
        <trkpt lat="28.656393" lon="105.099629"><ele>514.4784</ele><time>2026-07-22T01:50:27.000Z</time></trkpt>
        <trkpt lat="28.656382" lon="105.099623"><ele>513.07477</ele><time>2026-07-22T01:50:29.000Z</time></trkpt>
        <trkpt lat="28.65634" lon="105.099597"><ele>510.80362</ele><time>2026-07-22T01:50:31.000Z</time></trkpt>
        <trkpt lat="28.656151" lon="105.099483"><ele>508.6835</ele><time>2026-07-22T01:50:33.000Z</time></trkpt>
        <trkpt lat="28.656138" lon="105.099473"><ele>506.5076</ele><time>2026-07-22T01:50:35.000Z</time></trkpt>
        <trkpt lat="28.65613" lon="105.099465"><ele>505.2823</ele><time>2026-07-22T01:50:37.000Z</time></trkpt>
        <trkpt lat="28.6561" lon="105.099432"><ele>503.72528</ele><time>2026-07-22T01:50:39.000Z</time></trkpt>
        <trkpt lat="28.656046" lon="105.099371"><ele>503.15036</ele><time>2026-07-22T01:50:41.000Z</time></trkpt>
        <trkpt lat="28.65599" lon="105.099299"><ele>501.49484</ele><time>2026-07-22T01:50:43.000Z</time></trkpt>
        <trkpt lat="28.655942" lon="105.099224"><ele>500.26962</ele><time>2026-07-22T01:50:45.000Z</time></trkpt>
        <trkpt lat="28.655904" lon="105.099147"><ele>498.13507</ele><time>2026-07-22T01:50:47.000Z</time></trkpt>
        <trkpt lat="28.655872" lon="105.099069"><ele>498.03644</ele><time>2026-07-22T01:50:49.000Z</time></trkpt>
        <trkpt lat="28.655846" lon="105.098985"><ele>498.46487</ele><time>2026-07-22T01:50:51.000Z</time></trkpt>
        <trkpt lat="28.655825" lon="105.098906"><ele>496.4132</ele><time>2026-07-22T01:50:53.000Z</time></trkpt>
        <trkpt lat="28.655809" lon="105.098837"><ele>496.62894</ele><time>2026-07-22T01:50:55.000Z</time></trkpt>
        <trkpt lat="28.655794" lon="105.098779"><ele>495.86087</ele><time>2026-07-22T01:50:57.000Z</time></trkpt>
        <trkpt lat="28.655775" lon="105.098713"><ele>494.63058</ele><time>2026-07-22T01:50:59.000Z</time></trkpt>
        <trkpt lat="28.655748" lon="105.098653"><ele>493.44492</ele><time>2026-07-22T01:51:01.000Z</time></trkpt>
        <trkpt lat="28.655707" lon="105.098584"><ele>493.69824</ele><time>2026-07-22T01:51:03.000Z</time></trkpt>
        <trkpt lat="28.655658" lon="105.098521"><ele>495.05365</ele><time>2026-07-22T01:51:05.000Z</time></trkpt>
        <trkpt lat="28.655599" lon="105.098461"><ele>494.5878</ele><time>2026-07-22T01:51:07.000Z</time></trkpt>
        <trkpt lat="28.65555" lon="105.09841"><ele>494.63007</ele><time>2026-07-22T01:51:09.000Z</time></trkpt>
        <trkpt lat="28.655383" lon="105.098352"><ele>494.13327</ele><time>2026-07-22T01:51:11.000Z</time></trkpt>
        <trkpt lat="28.65537" lon="105.098348"><ele>494.514</ele><time>2026-07-22T01:51:13.000Z</time></trkpt>
        <trkpt lat="28.655358" lon="105.098345"><ele>494.10864</ele><time>2026-07-22T01:51:15.000Z</time></trkpt>
        <trkpt lat="28.655305" lon="105.098332"><ele>493.1208</ele><time>2026-07-22T01:51:17.000Z</time></trkpt>
        <trkpt lat="28.655069" lon="105.098277"><ele>491.5259</ele><time>2026-07-22T01:51:19.000Z</time></trkpt>
        <trkpt lat="28.655052" lon="105.098275"><ele>490.27994</ele><time>2026-07-22T01:51:21.000Z</time></trkpt>
        <trkpt lat="28.655041" lon="105.098273"><ele>486.7344</ele><time>2026-07-22T01:51:23.000Z</time></trkpt>
        <trkpt lat="28.655003" lon="105.098256"><ele>483.92108</ele><time>2026-07-22T01:51:25.000Z</time></trkpt>
        <trkpt lat="28.654926" lon="105.098223"><ele>481.90692</ele><time>2026-07-22T01:51:27.000Z</time></trkpt>
        <trkpt lat="28.654808" lon="105.098053"><ele>480.75662</ele><time>2026-07-22T01:51:29.000Z</time></trkpt>
        <trkpt lat="28.654798" lon="105.09804"><ele>479.82336</ele><time>2026-07-22T01:51:31.000Z</time></trkpt>
        <trkpt lat="28.654787" lon="105.09803"><ele>481.18094</ele><time>2026-07-22T01:51:33.000Z</time></trkpt>
        <trkpt lat="28.654738" lon="105.097993"><ele>483.41367</ele><time>2026-07-22T01:51:35.000Z</time></trkpt>
        <trkpt lat="28.654648" lon="105.097937"><ele>481.7776</ele><time>2026-07-22T01:51:37.000Z</time></trkpt>
        <trkpt lat="28.654475" lon="105.09783"><ele>480.13788</ele><time>2026-07-22T01:51:39.000Z</time></trkpt>
        <trkpt lat="28.654463" lon="105.097821"><ele>477.40033</ele><time>2026-07-22T01:51:41.000Z</time></trkpt>
        <trkpt lat="28.654448" lon="105.097807"><ele>476.77496</ele><time>2026-07-22T01:51:43.000Z</time></trkpt>
        <trkpt lat="28.654387" lon="105.097761"><ele>476.64102</ele><time>2026-07-22T01:51:45.000Z</time></trkpt>
        <trkpt lat="28.65414" lon="105.097576"><ele>476.90622</ele><time>2026-07-22T01:51:47.000Z</time></trkpt>
        <trkpt lat="28.654121" lon="105.097564"><ele>475.71652</ele><time>2026-07-22T01:51:49.000Z</time></trkpt>
        <trkpt lat="28.65411" lon="105.097557"><ele>474.23907</ele><time>2026-07-22T01:51:51.000Z</time></trkpt>
        <trkpt lat="28.654069" lon="105.097521"><ele>473.04694</ele><time>2026-07-22T01:51:53.000Z</time></trkpt>
        <trkpt lat="28.653891" lon="105.097363"><ele>471.48462</ele><time>2026-07-22T01:51:55.000Z</time></trkpt>
        <trkpt lat="28.653881" lon="105.097349"><ele>470.82925</ele><time>2026-07-22T01:51:57.000Z</time></trkpt>
        <trkpt lat="28.653876" lon="105.097337"><ele>467.60455</ele><time>2026-07-22T01:51:59.000Z</time></trkpt>
        <trkpt lat="28.653854" lon="105.097288"><ele>466.97647</ele><time>2026-07-22T01:52:01.000Z</time></trkpt>
        <trkpt lat="28.653732" lon="105.097025"><ele>469.00778</ele><time>2026-07-22T01:52:03.000Z</time></trkpt>
        <trkpt lat="28.65372" lon="105.097007"><ele>469.1787</ele><time>2026-07-22T01:52:05.000Z</time></trkpt>
        <trkpt lat="28.653713" lon="105.097002"><ele>468.7714</ele><time>2026-07-22T01:52:07.000Z</time></trkpt>
        <trkpt lat="28.653684" lon="105.096987"><ele>468.6664</ele><time>2026-07-22T01:52:09.000Z</time></trkpt>
        <trkpt lat="28.653618" lon="105.096966"><ele>470.40994</ele><time>2026-07-22T01:52:11.000Z</time></trkpt>
        <trkpt lat="28.653462" lon="105.096919"><ele>468.01926</ele><time>2026-07-22T01:52:13.000Z</time></trkpt>
        <trkpt lat="28.653451" lon="105.096914"><ele>465.4774</ele><time>2026-07-22T01:52:15.000Z</time></trkpt>
        <trkpt lat="28.653442" lon="105.096906"><ele>464.03745</ele><time>2026-07-22T01:52:17.000Z</time></trkpt>
        <trkpt lat="28.653406" lon="105.096875"><ele>462.4375</ele><time>2026-07-22T01:52:19.000Z</time></trkpt>
        <trkpt lat="28.653306" lon="105.096616"><ele>462.3083</ele><time>2026-07-22T01:52:21.000Z</time></trkpt>
        <trkpt lat="28.653296" lon="105.096604"><ele>465.4702</ele><time>2026-07-22T01:52:23.000Z</time></trkpt>
        <trkpt lat="28.653278" lon="105.09659"><ele>468.0884</ele><time>2026-07-22T01:52:25.000Z</time></trkpt>
        <trkpt lat="28.653206" lon="105.096535"><ele>466.5991</ele><time>2026-07-22T01:52:27.000Z</time></trkpt>
        <trkpt lat="28.653083" lon="105.096441"><ele>465.3577</ele><time>2026-07-22T01:52:29.000Z</time></trkpt>
        <trkpt lat="28.652976" lon="105.096341"><ele>464.5991</ele><time>2026-07-22T01:52:31.000Z</time></trkpt>
        <trkpt lat="28.652861" lon="105.096214"><ele>463.23187</ele><time>2026-07-22T01:52:33.000Z</time></trkpt>
        <trkpt lat="28.652759" lon="105.096083"><ele>462.47235</ele><time>2026-07-22T01:52:35.000Z</time></trkpt>
        <trkpt lat="28.652676" lon="105.095954"><ele>460.9221</ele><time>2026-07-22T01:52:37.000Z</time></trkpt>
        <trkpt lat="28.652593" lon="105.095825"><ele>459.86343</ele><time>2026-07-22T01:52:39.000Z</time></trkpt>
        <trkpt lat="28.652541" lon="105.09568"><ele>460.0339</ele><time>2026-07-22T01:52:41.000Z</time></trkpt>
        <trkpt lat="28.6525" lon="105.095535"><ele>459.1448</ele><time>2026-07-22T01:52:43.000Z</time></trkpt>
        <trkpt lat="28.652471" lon="105.095401"><ele>458.12534</ele><time>2026-07-22T01:52:45.000Z</time></trkpt>
        <trkpt lat="28.652451" lon="105.095278"><ele>456.7244</ele><time>2026-07-22T01:52:47.000Z</time></trkpt>
        <trkpt lat="28.652443" lon="105.095167"><ele>455.24924</ele><time>2026-07-22T01:52:49.000Z</time></trkpt>
        <trkpt lat="28.652439" lon="105.095084"><ele>454.33325</ele><time>2026-07-22T01:52:51.000Z</time></trkpt>
        <trkpt lat="28.65243" lon="105.095018"><ele>453.79645</ele><time>2026-07-22T01:52:53.000Z</time></trkpt>
        <trkpt lat="28.652412" lon="105.094943"><ele>451.61597</ele><time>2026-07-22T01:52:55.000Z</time></trkpt>
        <trkpt lat="28.652392" lon="105.09489"><ele>451.15112</ele><time>2026-07-22T01:52:57.000Z</time></trkpt>
        <trkpt lat="28.652368" lon="105.094845"><ele>450.50348</ele><time>2026-07-22T01:52:59.000Z</time></trkpt>
        <trkpt lat="28.652338" lon="105.094793"><ele>448.6215</ele><time>2026-07-22T01:53:01.000Z</time></trkpt>
        <trkpt lat="28.652311" lon="105.09475"><ele>447.74738</ele><time>2026-07-22T01:53:03.000Z</time></trkpt>
        <trkpt lat="28.652284" lon="105.094702"><ele>447.352</ele><time>2026-07-22T01:53:05.000Z</time></trkpt>
        <trkpt lat="28.652262" lon="105.094648"><ele>445.85098</ele><time>2026-07-22T01:53:07.000Z</time></trkpt>
        <trkpt lat="28.652243" lon="105.094592"><ele>445.2642</ele><time>2026-07-22T01:53:09.000Z</time></trkpt>
        <trkpt lat="28.652233" lon="105.094543"><ele>444.82098</ele><time>2026-07-22T01:53:11.000Z</time></trkpt>
        <trkpt lat="28.65222" lon="105.094476"><ele>443.55008</ele><time>2026-07-22T01:53:13.000Z</time></trkpt>
        <trkpt lat="28.652205" lon="105.094416"><ele>442.59204</ele><time>2026-07-22T01:53:15.000Z</time></trkpt>
        <trkpt lat="28.652181" lon="105.094324"><ele>438.1535</ele><time>2026-07-22T01:53:17.000Z</time></trkpt>
        <trkpt lat="28.652191" lon="105.094136"><ele>437.86737</ele><time>2026-07-22T01:53:19.000Z</time></trkpt>
        <trkpt lat="28.652193" lon="105.094122"><ele>437.9481</ele><time>2026-07-22T01:53:21.000Z</time></trkpt>
        <trkpt lat="28.6522" lon="105.094084"><ele>439.41003</ele><time>2026-07-22T01:53:23.000Z</time></trkpt>
        <trkpt lat="28.652226" lon="105.093925"><ele>439.96045</ele><time>2026-07-22T01:53:25.000Z</time></trkpt>
        <trkpt lat="28.652321" lon="105.093358"><ele>440.8778</ele><time>2026-07-22T01:53:27.000Z</time></trkpt>
        <trkpt lat="28.652329" lon="105.093317"><ele>440.74026</ele><time>2026-07-22T01:53:29.000Z</time></trkpt>
        <trkpt lat="28.652335" lon="105.093285"><ele>444.3429</ele><time>2026-07-22T01:53:31.000Z</time></trkpt>
        <trkpt lat="28.652354" lon="105.093174"><ele>445.98953</ele><time>2026-07-22T01:53:33.000Z</time></trkpt>
        <trkpt lat="28.652384" lon="105.09298"><ele>446.82593</ele><time>2026-07-22T01:53:35.000Z</time></trkpt>
        <trkpt lat="28.652444" lon="105.092596"><ele>447.25787</ele><time>2026-07-22T01:53:37.000Z</time></trkpt>
        <trkpt lat="28.652448" lon="105.092568"><ele>446.591</ele><time>2026-07-22T01:53:39.000Z</time></trkpt>
        <trkpt lat="28.652449" lon="105.092534"><ele>445.4046</ele><time>2026-07-22T01:53:41.000Z</time></trkpt>
        <trkpt lat="28.652454" lon="105.092402"><ele>444.39304</ele><time>2026-07-22T01:53:43.000Z</time></trkpt>
        <trkpt lat="28.652355" lon="105.091967"><ele>443.44363</ele><time>2026-07-22T01:53:45.000Z</time></trkpt>
        <trkpt lat="28.652341" lon="105.091942"><ele>443.37985</ele><time>2026-07-22T01:53:47.000Z</time></trkpt>
        <trkpt lat="28.65232" lon="105.091911"><ele>443.10648</ele><time>2026-07-22T01:53:49.000Z</time></trkpt>
        <trkpt lat="28.652248" lon="105.091786"><ele>442.5298</ele><time>2026-07-22T01:53:51.000Z</time></trkpt>
        <trkpt lat="28.652029" lon="105.091408"><ele>441.70096</ele><time>2026-07-22T01:53:53.000Z</time></trkpt>
        <trkpt lat="28.652018" lon="105.09138"><ele>441.30856</ele><time>2026-07-22T01:53:55.000Z</time></trkpt>
        <trkpt lat="28.652013" lon="105.09136"><ele>441.556</ele><time>2026-07-22T01:53:57.000Z</time></trkpt>
        <trkpt lat="28.652001" lon="105.09129"><ele>441.85635</ele><time>2026-07-22T01:53:59.000Z</time></trkpt>
        <trkpt lat="28.651982" lon="105.091193"><ele>441.46124</ele><time>2026-07-22T01:54:01.000Z</time></trkpt>
        <trkpt lat="28.651966" lon="105.091112"><ele>442.60544</ele><time>2026-07-22T01:54:03.000Z</time></trkpt>
        <trkpt lat="28.651882" lon="105.091084"><ele>442.461</ele><time>2026-07-22T01:54:05.000Z</time></trkpt>
        <trkpt lat="28.651811" lon="105.091105"><ele>443.877</ele><time>2026-07-22T01:54:07.000Z</time></trkpt>
        <trkpt lat="28.651752" lon="105.091136"><ele>444.9922</ele><time>2026-07-22T01:54:09.000Z</time></trkpt>
        <trkpt lat="28.651706" lon="105.091173"><ele>446.49713</ele><time>2026-07-22T01:54:11.000Z</time></trkpt>
        <trkpt lat="28.651661" lon="105.091216"><ele>447.5427</ele><time>2026-07-22T01:54:13.000Z</time></trkpt>
        <trkpt lat="28.651617" lon="105.09126"><ele>449.3352</ele><time>2026-07-22T01:54:15.000Z</time></trkpt>
        <trkpt lat="28.651569" lon="105.091304"><ele>450.77158</ele><time>2026-07-22T01:54:17.000Z</time></trkpt>
        <trkpt lat="28.651515" lon="105.091351"><ele>452.992</ele><time>2026-07-22T01:54:19.000Z</time></trkpt>
        <trkpt lat="28.651457" lon="105.091396"><ele>454.3985</ele><time>2026-07-22T01:54:21.000Z</time></trkpt>
        <trkpt lat="28.651402" lon="105.091436"><ele>455.76456</ele><time>2026-07-22T01:54:23.000Z</time></trkpt>
        <trkpt lat="28.651349" lon="105.091471"><ele>457.71616</ele><time>2026-07-22T01:54:25.000Z</time></trkpt>
        <trkpt lat="28.6513" lon="105.091501"><ele>458.66638</ele><time>2026-07-22T01:54:27.000Z</time></trkpt>
        <trkpt lat="28.651239" lon="105.091537"><ele>458.71182</ele><time>2026-07-22T01:54:29.000Z</time></trkpt>
        <trkpt lat="28.651179" lon="105.09157"><ele>460.1544</ele><time>2026-07-22T01:54:31.000Z</time></trkpt>
        <trkpt lat="28.651113" lon="105.091607"><ele>462.42865</ele><time>2026-07-22T01:54:33.000Z</time></trkpt>
        <trkpt lat="28.651045" lon="105.091645"><ele>464.48743</ele><time>2026-07-22T01:54:35.000Z</time></trkpt>
        <trkpt lat="28.650994" lon="105.091677"><ele>466.75076</ele><time>2026-07-22T01:54:37.000Z</time></trkpt>
        <trkpt lat="28.650944" lon="105.091713"><ele>467.94815</ele><time>2026-07-22T01:54:39.000Z</time></trkpt>
        <trkpt lat="28.650895" lon="105.091758"><ele>468.28726</ele><time>2026-07-22T01:54:41.000Z</time></trkpt>
        <trkpt lat="28.650845" lon="105.091804"><ele>468.97772</ele><time>2026-07-22T01:54:43.000Z</time></trkpt>
        <trkpt lat="28.650815" lon="105.091872"><ele>471.06592</ele><time>2026-07-22T01:54:45.000Z</time></trkpt>
        <trkpt lat="28.650827" lon="105.091955"><ele>471.3397</ele><time>2026-07-22T01:54:47.000Z</time></trkpt>
        <trkpt lat="28.650841" lon="105.092049"><ele>472.36917</ele><time>2026-07-22T01:54:49.000Z</time></trkpt>
        <trkpt lat="28.65097" lon="105.092174"><ele>474.84937</ele><time>2026-07-22T01:54:51.000Z</time></trkpt>
        <trkpt lat="28.650978" lon="105.092184"><ele>475.27872</ele><time>2026-07-22T01:54:53.000Z</time></trkpt>
        <trkpt lat="28.650983" lon="105.092192"><ele>474.47314</ele><time>2026-07-22T01:54:55.000Z</time></trkpt>
        <trkpt lat="28.651004" lon="105.092232"><ele>476.56915</ele><time>2026-07-22T01:54:57.000Z</time></trkpt>
        <trkpt lat="28.651047" lon="105.092314"><ele>475.96817</ele><time>2026-07-22T01:54:59.000Z</time></trkpt>
        <trkpt lat="28.651084" lon="105.092401"><ele>477.50742</ele><time>2026-07-22T01:55:01.000Z</time></trkpt>
        <trkpt lat="28.651143" lon="105.092539"><ele>479.05344</ele><time>2026-07-22T01:55:03.000Z</time></trkpt>
        <trkpt lat="28.651143" lon="105.09255"><ele>479.38733</ele><time>2026-07-22T01:55:05.000Z</time></trkpt>
        <trkpt lat="28.65114" lon="105.092556"><ele>480.0956</ele><time>2026-07-22T01:55:07.000Z</time></trkpt>
        <trkpt lat="28.651118" lon="105.092583"><ele>481.98947</ele><time>2026-07-22T01:55:09.000Z</time></trkpt>
        <trkpt lat="28.651069" lon="105.092629"><ele>482.61508</ele><time>2026-07-22T01:55:11.000Z</time></trkpt>
        <trkpt lat="28.651009" lon="105.092667"><ele>484.23666</ele><time>2026-07-22T01:55:13.000Z</time></trkpt>
        <trkpt lat="28.650945" lon="105.092691"><ele>484.67737</ele><time>2026-07-22T01:55:15.000Z</time></trkpt>
        <trkpt lat="28.650876" lon="105.092702"><ele>486.71335</ele><time>2026-07-22T01:55:16.000Z</time></trkpt>
        <trkpt lat="28.650808" lon="105.092712"><ele>487.29214</ele><time>2026-07-22T01:55:18.000Z</time></trkpt>
        <trkpt lat="28.650618" lon="105.092663"><ele>489.9842</ele><time>2026-07-22T01:55:20.000Z</time></trkpt>
        <trkpt lat="28.650604" lon="105.092659"><ele>491.61356</ele><time>2026-07-22T01:55:22.000Z</time></trkpt>
        <trkpt lat="28.65059" lon="105.092655"><ele>492.49176</ele><time>2026-07-22T01:55:24.000Z</time></trkpt>
        <trkpt lat="28.65053" lon="105.092636"><ele>493.8656</ele><time>2026-07-22T01:55:27.000Z</time></trkpt>
        <trkpt lat="28.650274" lon="105.092553"><ele>494.26492</ele><time>2026-07-22T01:55:28.000Z</time></trkpt>
        <trkpt lat="28.650257" lon="105.092543"><ele>495.45914</ele><time>2026-07-22T01:55:31.000Z</time></trkpt>
        <trkpt lat="28.650246" lon="105.092531"><ele>495.3699</ele><time>2026-07-22T01:55:33.000Z</time></trkpt>
        <trkpt lat="28.650199" lon="105.092479"><ele>495.30087</ele><time>2026-07-22T01:55:35.000Z</time></trkpt>
        <trkpt lat="28.649997" lon="105.092254"><ele>495.62326</ele><time>2026-07-22T01:55:37.000Z</time></trkpt>
        <trkpt lat="28.64998" lon="105.09224"><ele>496.5544</ele><time>2026-07-22T01:55:39.000Z</time></trkpt>
        <trkpt lat="28.64997" lon="105.092233"><ele>498.82214</ele><time>2026-07-22T01:55:41.000Z</time></trkpt>
        <trkpt lat="28.649947" lon="105.0922"><ele>500.42548</ele><time>2026-07-22T01:55:43.000Z</time></trkpt>
        <trkpt lat="28.649809" lon="105.091998"><ele>499.62625</ele><time>2026-07-22T01:55:45.000Z</time></trkpt>
        <trkpt lat="28.649809" lon="105.091982"><ele>499.7417</ele><time>2026-07-22T01:55:47.000Z</time></trkpt>
        <trkpt lat="28.649814" lon="105.091975"><ele>499.531</ele><time>2026-07-22T01:55:49.000Z</time></trkpt>
        <trkpt lat="28.649868" lon="105.091924"><ele>498.96786</ele><time>2026-07-22T01:55:51.000Z</time></trkpt>
        <trkpt lat="28.64997" lon="105.091828"><ele>498.17328</ele><time>2026-07-22T01:55:53.000Z</time></trkpt>
        <trkpt lat="28.650072" lon="105.091713"><ele>497.81885</ele><time>2026-07-22T01:55:55.000Z</time></trkpt>
        <trkpt lat="28.650154" lon="105.091621"><ele>496.787</ele><time>2026-07-22T01:55:57.000Z</time></trkpt>
        <trkpt lat="28.650175" lon="105.09153"><ele>496.31094</ele><time>2026-07-22T01:55:59.000Z</time></trkpt>
        <trkpt lat="28.650142" lon="105.091464"><ele>496.12766</ele><time>2026-07-22T01:56:01.000Z</time></trkpt>
        <trkpt lat="28.649855" lon="105.091433"><ele>492.7639</ele><time>2026-07-22T01:56:03.000Z</time></trkpt>
        <trkpt lat="28.649842" lon="105.091428"><ele>491.95038</ele><time>2026-07-22T01:56:05.000Z</time></trkpt>
        <trkpt lat="28.649831" lon="105.091418"><ele>490.42587</ele><time>2026-07-22T01:56:07.000Z</time></trkpt>
        <trkpt lat="28.649783" lon="105.091378"><ele>490.26685</ele><time>2026-07-22T01:56:09.000Z</time></trkpt>
        <trkpt lat="28.649706" lon="105.091143"><ele>491.08047</ele><time>2026-07-22T01:56:11.000Z</time></trkpt>
        <trkpt lat="28.64971" lon="105.091132"><ele>491.96274</ele><time>2026-07-22T01:56:13.000Z</time></trkpt>
        <trkpt lat="28.649718" lon="105.091123"><ele>492.77426</ele><time>2026-07-22T01:56:15.000Z</time></trkpt>
        <trkpt lat="28.649764" lon="105.091068"><ele>492.19193</ele><time>2026-07-22T01:56:17.000Z</time></trkpt>
        <trkpt lat="28.649838" lon="105.090961"><ele>491.50153</ele><time>2026-07-22T01:56:19.000Z</time></trkpt>
        <trkpt lat="28.64992" lon="105.09084"><ele>491.00308</ele><time>2026-07-22T01:56:21.000Z</time></trkpt>
        <trkpt lat="28.649977" lon="105.090632"><ele>490.1061</ele><time>2026-07-22T01:56:23.000Z</time></trkpt>
        <trkpt lat="28.649982" lon="105.090618"><ele>489.4461</ele><time>2026-07-22T01:56:25.000Z</time></trkpt>
        <trkpt lat="28.649988" lon="105.090604"><ele>488.05338</ele><time>2026-07-22T01:56:27.000Z</time></trkpt>
        <trkpt lat="28.650018" lon="105.090545"><ele>487.45575</ele><time>2026-07-22T01:56:29.000Z</time></trkpt>
        <trkpt lat="28.650145" lon="105.090294"><ele>486.7041</ele><time>2026-07-22T01:56:31.000Z</time></trkpt>
        <trkpt lat="28.650154" lon="105.090276"><ele>485.3449</ele><time>2026-07-22T01:56:33.000Z</time></trkpt>
        <trkpt lat="28.650157" lon="105.090263"><ele>484.48355</ele><time>2026-07-22T01:56:35.000Z</time></trkpt>
        <trkpt lat="28.650164" lon="105.090214"><ele>483.41348</ele><time>2026-07-22T01:56:37.000Z</time></trkpt>
        <trkpt lat="28.650174" lon="105.090133"><ele>483.2007</ele><time>2026-07-22T01:56:39.000Z</time></trkpt>
        <trkpt lat="28.650153" lon="105.090053"><ele>482.56927</ele><time>2026-07-22T01:56:41.000Z</time></trkpt>
        <trkpt lat="28.650102" lon="105.090005"><ele>482.29874</ele><time>2026-07-22T01:56:43.000Z</time></trkpt>
        <trkpt lat="28.650026" lon="105.090004"><ele>483.66626</ele><time>2026-07-22T01:56:45.000Z</time></trkpt>
        <trkpt lat="28.649935" lon="105.090013"><ele>484.76697</ele><time>2026-07-22T01:56:47.000Z</time></trkpt>
        <trkpt lat="28.64984" lon="105.090031"><ele>484.15237</ele><time>2026-07-22T01:56:49.000Z</time></trkpt>
        <trkpt lat="28.649694" lon="105.090059"><ele>484.82837</ele><time>2026-07-22T01:56:51.000Z</time></trkpt>
        <trkpt lat="28.649685" lon="105.090057"><ele>484.64313</ele><time>2026-07-22T01:56:53.000Z</time></trkpt>
        <trkpt lat="28.649674" lon="105.09005"><ele>485.51794</ele><time>2026-07-22T01:56:55.000Z</time></trkpt>
        <trkpt lat="28.649629" lon="105.090018"><ele>485.72427</ele><time>2026-07-22T01:56:57.000Z</time></trkpt>
        <trkpt lat="28.649421" lon="105.089871"><ele>486.43478</ele><time>2026-07-22T01:56:59.000Z</time></trkpt>
        <trkpt lat="28.649406" lon="105.08986"><ele>488.19742</ele><time>2026-07-22T01:57:01.000Z</time></trkpt>
        <trkpt lat="28.649393" lon="105.089851"><ele>490.4981</ele><time>2026-07-22T01:57:03.000Z</time></trkpt>
        <trkpt lat="28.649338" lon="105.089809"><ele>491.75522</ele><time>2026-07-22T01:57:05.000Z</time></trkpt>
        <trkpt lat="28.649238" lon="105.089729"><ele>493.764</ele><time>2026-07-22T01:57:07.000Z</time></trkpt>
        <trkpt lat="28.64912" lon="105.089632"><ele>495.94104</ele><time>2026-07-22T01:57:09.000Z</time></trkpt>
        <trkpt lat="28.649005" lon="105.089544"><ele>498.79718</ele><time>2026-07-22T01:57:11.000Z</time></trkpt>
        <trkpt lat="28.648895" lon="105.089475"><ele>498.6207</ele><time>2026-07-22T01:57:13.000Z</time></trkpt>
        <trkpt lat="28.648794" lon="105.089413"><ele>499.39938</ele><time>2026-07-22T01:57:15.000Z</time></trkpt>
        <trkpt lat="28.648687" lon="105.089395"><ele>501.1392</ele><time>2026-07-22T01:57:17.000Z</time></trkpt>
        <trkpt lat="28.648575" lon="105.089383"><ele>502.9543</ele><time>2026-07-22T01:57:19.000Z</time></trkpt>
        <trkpt lat="28.648461" lon="105.089369"><ele>505.10587</ele><time>2026-07-22T01:57:21.000Z</time></trkpt>
        <trkpt lat="28.648351" lon="105.089344"><ele>507.0982</ele><time>2026-07-22T01:57:22.000Z</time></trkpt>
        <trkpt lat="28.648247" lon="105.08932"><ele>507.21515</ele><time>2026-07-22T01:57:24.000Z</time></trkpt>
        <trkpt lat="28.648165" lon="105.089261"><ele>506.6452</ele><time>2026-07-22T01:57:26.000Z</time></trkpt>
        <trkpt lat="28.648094" lon="105.089202"><ele>507.1848</ele><time>2026-07-22T01:57:28.000Z</time></trkpt>
        <trkpt lat="28.648039" lon="105.089153"><ele>507.31766</ele><time>2026-07-22T01:57:30.000Z</time></trkpt>
        <trkpt lat="28.648002" lon="105.08912"><ele>506.90576</ele><time>2026-07-22T01:57:33.000Z</time></trkpt>
        <trkpt lat="28.647975" lon="105.089101"><ele>506.57214</ele><time>2026-07-22T01:57:35.000Z</time></trkpt>
        <trkpt lat="28.647951" lon="105.089091"><ele>507.03442</ele><time>2026-07-22T01:57:37.000Z</time></trkpt>
        <trkpt lat="28.647928" lon="105.089088"><ele>506.59055</ele><time>2026-07-22T01:57:39.000Z</time></trkpt>
        <trkpt lat="28.647899" lon="105.089092"><ele>506.45914</ele><time>2026-07-22T01:57:41.000Z</time></trkpt>
        <trkpt lat="28.647858" lon="105.0891"><ele>506.83896</ele><time>2026-07-22T01:57:43.000Z</time></trkpt>
        <trkpt lat="28.64779" lon="105.089106"><ele>506.55008</ele><time>2026-07-22T01:57:45.000Z</time></trkpt>
        <trkpt lat="28.647707" lon="105.089112"><ele>507.09885</ele><time>2026-07-22T01:57:47.000Z</time></trkpt>
        <trkpt lat="28.647616" lon="105.089078"><ele>508.30984</ele><time>2026-07-22T01:57:49.000Z</time></trkpt>
        <trkpt lat="28.647524" lon="105.089039"><ele>509.5373</ele><time>2026-07-22T01:57:51.000Z</time></trkpt>
        <trkpt lat="28.647442" lon="105.089001"><ele>510.11737</ele><time>2026-07-22T01:57:53.000Z</time></trkpt>
        <trkpt lat="28.647385" lon="105.088973"><ele>510.8409</ele><time>2026-07-22T01:57:55.000Z</time></trkpt>
        <trkpt lat="28.647339" lon="105.088958"><ele>511.0843</ele><time>2026-07-22T01:57:57.000Z</time></trkpt>
        <trkpt lat="28.647298" lon="105.088945"><ele>510.5767</ele><time>2026-07-22T01:57:59.000Z</time></trkpt>
        <trkpt lat="28.647109" lon="105.088973"><ele>511.80563</ele><time>2026-07-22T01:58:01.000Z</time></trkpt>
        <trkpt lat="28.647094" lon="105.088973"><ele>512.4979</ele><time>2026-07-22T01:58:03.000Z</time></trkpt>
        <trkpt lat="28.647073" lon="105.088971"><ele>512.2062</ele><time>2026-07-22T01:58:05.000Z</time></trkpt>
        <trkpt lat="28.646982" lon="105.088969"><ele>511.4567</ele><time>2026-07-22T01:58:07.000Z</time></trkpt>
        <trkpt lat="28.646819" lon="105.088966"><ele>510.45404</ele><time>2026-07-22T01:58:09.000Z</time></trkpt>
        <trkpt lat="28.646527" lon="105.089014"><ele>510.12634</ele><time>2026-07-22T01:58:11.000Z</time></trkpt>
        <trkpt lat="28.646505" lon="105.089016"><ele>510.54675</ele><time>2026-07-22T01:58:13.000Z</time></trkpt>
        <trkpt lat="28.646481" lon="105.089017"><ele>511.14243</ele><time>2026-07-22T01:58:15.000Z</time></trkpt>
        <trkpt lat="28.646396" lon="105.089018"><ele>512.25287</ele><time>2026-07-22T01:58:17.000Z</time></trkpt>
        <trkpt lat="28.646255" lon="105.089018"><ele>512.6543</ele><time>2026-07-22T01:58:19.000Z</time></trkpt>
        <trkpt lat="28.646098" lon="105.089019"><ele>514.194</ele><time>2026-07-22T01:58:21.000Z</time></trkpt>
        <trkpt lat="28.645962" lon="105.088986"><ele>516.0783</ele><time>2026-07-22T01:58:23.000Z</time></trkpt>
        <trkpt lat="28.64585" lon="105.088909"><ele>516.8297</ele><time>2026-07-22T01:58:25.000Z</time></trkpt>
        <trkpt lat="28.645739" lon="105.088818"><ele>516.80505</ele><time>2026-07-22T01:58:27.000Z</time></trkpt>
        <trkpt lat="28.645629" lon="105.088712"><ele>517.38086</ele><time>2026-07-22T01:58:29.000Z</time></trkpt>
        <trkpt lat="28.645528" lon="105.088597"><ele>519.51965</ele><time>2026-07-22T01:58:31.000Z</time></trkpt>
        <trkpt lat="28.645434" lon="105.08849"><ele>521.72314</ele><time>2026-07-22T01:58:33.000Z</time></trkpt>
        <trkpt lat="28.645383" lon="105.088365"><ele>523.43475</ele><time>2026-07-22T01:58:35.000Z</time></trkpt>
        <trkpt lat="28.645334" lon="105.088253"><ele>523.49884</ele><time>2026-07-22T01:58:37.000Z</time></trkpt>
        <trkpt lat="28.645283" lon="105.08816"><ele>523.6579</ele><time>2026-07-22T01:58:39.000Z</time></trkpt>
        <trkpt lat="28.645243" lon="105.088088"><ele>523.37616</ele><time>2026-07-22T01:58:41.000Z</time></trkpt>
        <trkpt lat="28.645198" lon="105.088069"><ele>523.32574</ele><time>2026-07-22T01:58:43.000Z</time></trkpt>
        <trkpt lat="28.645174" lon="105.088069"><ele>523.0625</ele><time>2026-07-22T01:58:45.000Z</time></trkpt>
        <trkpt lat="28.645169" lon="105.088074"><ele>523.22327</ele><time>2026-07-22T01:58:47.000Z</time></trkpt>
        <trkpt lat="28.645171" lon="105.088078"><ele>523.35535</ele><time>2026-07-22T01:58:49.000Z</time></trkpt>
        <trkpt lat="28.645186" lon="105.088101"><ele>523.1553</ele><time>2026-07-22T01:58:53.000Z</time></trkpt>
        <trkpt lat="28.645193" lon="105.088109"><ele>523.2623</ele><time>2026-07-22T01:58:55.000Z</time></trkpt>
        <trkpt lat="28.645196" lon="105.088118"><ele>523.1139</ele><time>2026-07-22T01:58:57.000Z</time></trkpt>
        <trkpt lat="28.645195" lon="105.088132"><ele>523.5277</ele><time>2026-07-22T01:59:01.000Z</time></trkpt>
        <trkpt lat="28.645195" lon="105.08814"><ele>524.0124</ele><time>2026-07-22T01:59:12.000Z</time></trkpt>
        <trkpt lat="28.645195" lon="105.088148"><ele>526.2503</ele><time>2026-07-22T01:59:16.000Z</time></trkpt>
        <trkpt lat="28.645189" lon="105.088187"><ele>527.90515</ele><time>2026-07-22T01:59:18.000Z</time></trkpt>
        <trkpt lat="28.645173" lon="105.088255"><ele>528.3974</ele><time>2026-07-22T01:59:20.000Z</time></trkpt>
        <trkpt lat="28.645151" lon="105.088334"><ele>531.6861</ele><time>2026-07-22T01:59:22.000Z</time></trkpt>
        <trkpt lat="28.64513" lon="105.088423"><ele>532.49243</ele><time>2026-07-22T01:59:24.000Z</time></trkpt>
        <trkpt lat="28.645115" lon="105.08852"><ele>534.1947</ele><time>2026-07-22T01:59:26.000Z</time></trkpt>
        <trkpt lat="28.645091" lon="105.08868"><ele>534.4712</ele><time>2026-07-22T01:59:28.000Z</time></trkpt>
        <trkpt lat="28.645087" lon="105.088691"><ele>534.5012</ele><time>2026-07-22T01:59:30.000Z</time></trkpt>
        <trkpt lat="28.645081" lon="105.088703"><ele>536.14557</ele><time>2026-07-22T01:59:32.000Z</time></trkpt>
        <trkpt lat="28.645058" lon="105.088756"><ele>539.87177</ele><time>2026-07-22T01:59:34.000Z</time></trkpt>
        <trkpt lat="28.644965" lon="105.088972"><ele>542.2116</ele><time>2026-07-22T01:59:36.000Z</time></trkpt>
        <trkpt lat="28.644964" lon="105.088988"><ele>544.6989</ele><time>2026-07-22T01:59:38.000Z</time></trkpt>
        <trkpt lat="28.644968" lon="105.089002"><ele>546.37274</ele><time>2026-07-22T01:59:40.000Z</time></trkpt>
        <trkpt lat="28.644994" lon="105.08908"><ele>550.4849</ele><time>2026-07-22T01:59:42.000Z</time></trkpt>
        <trkpt lat="28.645102" lon="105.089404"><ele>550.11566</ele><time>2026-07-22T01:59:44.000Z</time></trkpt>
        <trkpt lat="28.645107" lon="105.089426"><ele>550.00885</ele><time>2026-07-22T01:59:46.000Z</time></trkpt>
        <trkpt lat="28.64511" lon="105.089441"><ele>550.1097</ele><time>2026-07-22T01:59:48.000Z</time></trkpt>
        <trkpt lat="28.645119" lon="105.089496"><ele>549.92346</ele><time>2026-07-22T01:59:50.000Z</time></trkpt>
        <trkpt lat="28.645132" lon="105.089581"><ele>549.4358</ele><time>2026-07-22T01:59:52.000Z</time></trkpt>
        <trkpt lat="28.645142" lon="105.08966"><ele>549.15717</ele><time>2026-07-22T01:59:54.000Z</time></trkpt>
        <trkpt lat="28.645148" lon="105.089734"><ele>549.18176</ele><time>2026-07-22T01:59:56.000Z</time></trkpt>
        <trkpt lat="28.645146" lon="105.08981"><ele>549.7184</ele><time>2026-07-22T01:59:58.000Z</time></trkpt>
        <trkpt lat="28.645141" lon="105.089882"><ele>550.0797</ele><time>2026-07-22T02:00:00.000Z</time></trkpt>
        <trkpt lat="28.645138" lon="105.089915"><ele>550.6061</ele><time>2026-07-22T02:00:02.000Z</time></trkpt>
        <trkpt lat="28.645141" lon="105.089921"><ele>550.4717</ele><time>2026-07-22T02:00:04.000Z</time></trkpt>
        <trkpt lat="28.645139" lon="105.089908"><ele>550.1833</ele><time>2026-07-22T02:00:08.000Z</time></trkpt>
        <trkpt lat="28.645134" lon="105.089878"><ele>550.0051</ele><time>2026-07-22T02:00:14.000Z</time></trkpt>
        <trkpt lat="28.645134" lon="105.089872"><ele>549.3722</ele><time>2026-07-22T02:00:16.000Z</time></trkpt>
        <trkpt lat="28.645134" lon="105.089867"><ele>549.64813</ele><time>2026-07-22T02:00:18.000Z</time></trkpt>
        <trkpt lat="28.645127" lon="105.089907"><ele>550.06104</ele><time>2026-07-22T02:00:32.000Z</time></trkpt>
        <trkpt lat="28.645122" lon="105.089937"><ele>549.85516</ele><time>2026-07-22T02:00:34.000Z</time></trkpt>
        <trkpt lat="28.645121" lon="105.08994"><ele>550.04034</ele><time>2026-07-22T02:00:36.000Z</time></trkpt>
        <trkpt lat="28.645121" lon="105.089942"><ele>550.23663</ele><time>2026-07-22T02:00:38.000Z</time></trkpt>
        <trkpt lat="28.645112" lon="105.089981"><ele>551.0754</ele><time>2026-07-22T02:00:42.000Z</time></trkpt>
        <trkpt lat="28.645106" lon="105.090008"><ele>551.3456</ele><time>2026-07-22T02:00:44.000Z</time></trkpt>
        <trkpt lat="28.645098" lon="105.090035"><ele>551.7632</ele><time>2026-07-22T02:00:46.000Z</time></trkpt>
        <trkpt lat="28.645091" lon="105.090057"><ele>552.11395</ele><time>2026-07-22T02:00:48.000Z</time></trkpt>
        <trkpt lat="28.645086" lon="105.090077"><ele>552.0334</ele><time>2026-07-22T02:00:50.000Z</time></trkpt>
        <trkpt lat="28.645083" lon="105.090095"><ele>552.54504</ele><time>2026-07-22T02:00:52.000Z</time></trkpt>
        <trkpt lat="28.645079" lon="105.090109"><ele>553.0244</ele><time>2026-07-22T02:00:54.000Z</time></trkpt>
        <trkpt lat="28.645075" lon="105.090125"><ele>553.4413</ele><time>2026-07-22T02:00:56.000Z</time></trkpt>
        <trkpt lat="28.645072" lon="105.090136"><ele>554.4748</ele><time>2026-07-22T02:00:58.000Z</time></trkpt>
        <trkpt lat="28.645067" lon="105.090148"><ele>554.4561</ele><time>2026-07-22T02:01:00.000Z</time></trkpt>
        <trkpt lat="28.645061" lon="105.090163"><ele>554.6026</ele><time>2026-07-22T02:01:02.000Z</time></trkpt>
        <trkpt lat="28.645056" lon="105.090179"><ele>554.693</ele><time>2026-07-22T02:01:04.000Z</time></trkpt>
        <trkpt lat="28.645053" lon="105.090191"><ele>555.4205</ele><time>2026-07-22T02:01:06.000Z</time></trkpt>
        <trkpt lat="28.645051" lon="105.090205"><ele>555.3046</ele><time>2026-07-22T02:01:08.000Z</time></trkpt>
        <trkpt lat="28.645048" lon="105.090218"><ele>555.3286</ele><time>2026-07-22T02:01:10.000Z</time></trkpt>
        <trkpt lat="28.645046" lon="105.09023"><ele>555.23175</ele><time>2026-07-22T02:01:12.000Z</time></trkpt>
        <trkpt lat="28.645043" lon="105.090242"><ele>555.3257</ele><time>2026-07-22T02:01:14.000Z</time></trkpt>
        <trkpt lat="28.645041" lon="105.090258"><ele>555.53937</ele><time>2026-07-22T02:01:16.000Z</time></trkpt>
        <trkpt lat="28.645039" lon="105.090274"><ele>556.53705</ele><time>2026-07-22T02:01:18.000Z</time></trkpt>
        <trkpt lat="28.645037" lon="105.090289"><ele>556.3032</ele><time>2026-07-22T02:01:20.000Z</time></trkpt>
        <trkpt lat="28.645035" lon="105.090307"><ele>556.7754</ele><time>2026-07-22T02:01:22.000Z</time></trkpt>
        <trkpt lat="28.645033" lon="105.090322"><ele>557.00793</ele><time>2026-07-22T02:01:24.000Z</time></trkpt>
        <trkpt lat="28.645031" lon="105.090337"><ele>556.547</ele><time>2026-07-22T02:01:26.000Z</time></trkpt>
        <trkpt lat="28.64503" lon="105.090352"><ele>557.09686</ele><time>2026-07-22T02:01:28.000Z</time></trkpt>
        <trkpt lat="28.645029" lon="105.090365"><ele>556.2061</ele><time>2026-07-22T02:01:30.000Z</time></trkpt>
        <trkpt lat="28.645026" lon="105.090384"><ele>556.14624</ele><time>2026-07-22T02:01:32.000Z</time></trkpt>
        <trkpt lat="28.64502" lon="105.090402"><ele>556.78644</ele><time>2026-07-22T02:01:34.000Z</time></trkpt>
        <trkpt lat="28.645013" lon="105.090419"><ele>557.09796</ele><time>2026-07-22T02:01:36.000Z</time></trkpt>
        <trkpt lat="28.645008" lon="105.090436"><ele>556.4597</ele><time>2026-07-22T02:01:38.000Z</time></trkpt>
        <trkpt lat="28.645006" lon="105.090454"><ele>557.59326</ele><time>2026-07-22T02:01:40.000Z</time></trkpt>
        <trkpt lat="28.645004" lon="105.090474"><ele>558.097</ele><time>2026-07-22T02:01:42.000Z</time></trkpt>
        <trkpt lat="28.645003" lon="105.090495"><ele>557.14703</ele><time>2026-07-22T02:01:44.000Z</time></trkpt>
        <trkpt lat="28.645004" lon="105.090512"><ele>556.4764</ele><time>2026-07-22T02:01:46.000Z</time></trkpt>
        <trkpt lat="28.645004" lon="105.090529"><ele>557.1598</ele><time>2026-07-22T02:01:48.000Z</time></trkpt>
        <trkpt lat="28.645004" lon="105.090539"><ele>557.1464</ele><time>2026-07-22T02:01:50.000Z</time></trkpt>
        <trkpt lat="28.645003" lon="105.090549"><ele>557.8045</ele><time>2026-07-22T02:01:52.000Z</time></trkpt>
        <trkpt lat="28.645003" lon="105.090561"><ele>557.939</ele><time>2026-07-22T02:01:54.000Z</time></trkpt>
        <trkpt lat="28.645005" lon="105.090573"><ele>557.41266</ele><time>2026-07-22T02:01:56.000Z</time></trkpt>
        <trkpt lat="28.645007" lon="105.090587"><ele>557.7964</ele><time>2026-07-22T02:01:58.000Z</time></trkpt>
        <trkpt lat="28.645011" lon="105.090602"><ele>558.0902</ele><time>2026-07-22T02:02:00.000Z</time></trkpt>
        <trkpt lat="28.645013" lon="105.090616"><ele>558.34705</ele><time>2026-07-22T02:02:02.000Z</time></trkpt>
        <trkpt lat="28.645014" lon="105.09063"><ele>558.4867</ele><time>2026-07-22T02:02:04.000Z</time></trkpt>
        <trkpt lat="28.645016" lon="105.090644"><ele>557.80426</ele><time>2026-07-22T02:02:06.000Z</time></trkpt>
        <trkpt lat="28.645019" lon="105.090659"><ele>558.7883</ele><time>2026-07-22T02:02:08.000Z</time></trkpt>
        <trkpt lat="28.645021" lon="105.090674"><ele>559.32544</ele><time>2026-07-22T02:02:10.000Z</time></trkpt>
        <trkpt lat="28.645024" lon="105.090689"><ele>559.3747</ele><time>2026-07-22T02:02:12.000Z</time></trkpt>
        <trkpt lat="28.645026" lon="105.090702"><ele>559.399</ele><time>2026-07-22T02:02:14.000Z</time></trkpt>
        <trkpt lat="28.645027" lon="105.090716"><ele>559.23157</ele><time>2026-07-22T02:02:16.000Z</time></trkpt>
        <trkpt lat="28.645026" lon="105.090728"><ele>559.38727</ele><time>2026-07-22T02:02:18.000Z</time></trkpt>
        <trkpt lat="28.645026" lon="105.090739"><ele>559.48413</ele><time>2026-07-22T02:02:20.000Z</time></trkpt>
        <trkpt lat="28.645028" lon="105.090754"><ele>559.5373</ele><time>2026-07-22T02:02:22.000Z</time></trkpt>
        <trkpt lat="28.645032" lon="105.09077"><ele>559.84955</ele><time>2026-07-22T02:02:24.000Z</time></trkpt>
        <trkpt lat="28.645036" lon="105.090782"><ele>559.9793</ele><time>2026-07-22T02:02:26.000Z</time></trkpt>
        <trkpt lat="28.645037" lon="105.09079"><ele>560.3561</ele><time>2026-07-22T02:02:28.000Z</time></trkpt>
        <trkpt lat="28.64504" lon="105.090807"><ele>560.37274</ele><time>2026-07-22T02:02:30.000Z</time></trkpt>
        <trkpt lat="28.645044" lon="105.090825"><ele>561.07227</ele><time>2026-07-22T02:02:32.000Z</time></trkpt>
        <trkpt lat="28.645053" lon="105.090844"><ele>560.7869</ele><time>2026-07-22T02:02:34.000Z</time></trkpt>
        <trkpt lat="28.645065" lon="105.090864"><ele>560.024</ele><time>2026-07-22T02:02:36.000Z</time></trkpt>
        <trkpt lat="28.645079" lon="105.090884"><ele>560.3555</ele><time>2026-07-22T02:02:38.000Z</time></trkpt>
        <trkpt lat="28.645089" lon="105.0909"><ele>560.58</ele><time>2026-07-22T02:02:40.000Z</time></trkpt>
        <trkpt lat="28.645094" lon="105.090909"><ele>560.6515</ele><time>2026-07-22T02:02:42.000Z</time></trkpt>
        <trkpt lat="28.645097" lon="105.090917"><ele>560.7655</ele><time>2026-07-22T02:02:44.000Z</time></trkpt>
        <trkpt lat="28.645101" lon="105.090931"><ele>561.189</ele><time>2026-07-22T02:02:48.000Z</time></trkpt>
        <trkpt lat="28.645111" lon="105.090911"><ele>560.8869</ele><time>2026-07-22T02:02:50.000Z</time></trkpt>
        <trkpt lat="28.645114" lon="105.090939"><ele>560.3017</ele><time>2026-07-22T02:03:00.000Z</time></trkpt>
        <trkpt lat="28.645123" lon="105.090971"><ele>560.672</ele><time>2026-07-22T02:03:02.000Z</time></trkpt>
        <trkpt lat="28.645129" lon="105.090992"><ele>560.858</ele><time>2026-07-22T02:03:04.000Z</time></trkpt>
        <trkpt lat="28.645129" lon="105.090994"><ele>561.6707</ele><time>2026-07-22T02:03:06.000Z</time></trkpt>
        <trkpt lat="28.645132" lon="105.091009"><ele>562.1889</ele><time>2026-07-22T02:03:10.000Z</time></trkpt>
        <trkpt lat="28.645136" lon="105.091027"><ele>561.9753</ele><time>2026-07-22T02:03:12.000Z</time></trkpt>
        <trkpt lat="28.645142" lon="105.091044"><ele>562.69775</ele><time>2026-07-22T02:03:14.000Z</time></trkpt>
        <trkpt lat="28.645149" lon="105.09105"><ele>563.16205</ele><time>2026-07-22T02:03:16.000Z</time></trkpt>
        <trkpt lat="28.645154" lon="105.091053"><ele>562.34973</ele><time>2026-07-22T02:03:18.000Z</time></trkpt>
        <trkpt lat="28.645156" lon="105.091058"><ele>562.05914</ele><time>2026-07-22T02:03:22.000Z</time></trkpt>
        <trkpt lat="28.645162" lon="105.091072"><ele>560.12384</ele><time>2026-07-22T02:03:34.000Z</time></trkpt>
        <trkpt lat="28.645169" lon="105.091088"><ele>560.2606</ele><time>2026-07-22T02:03:36.000Z</time></trkpt>
        <trkpt lat="28.64517" lon="105.091089"><ele>559.7501</ele><time>2026-07-22T02:03:38.000Z</time></trkpt>
        <trkpt lat="28.645172" lon="105.091095"><ele>559.4623</ele><time>2026-07-22T02:03:44.000Z</time></trkpt>
        <trkpt lat="28.64515" lon="105.091039"><ele>561.2141</ele><time>2026-07-22T02:04:14.000Z</time></trkpt>
        <trkpt lat="28.64515" lon="105.091039"><ele>560.8889</ele><time>2026-07-22T02:04:16.000Z</time></trkpt>
        <trkpt lat="28.645149" lon="105.091038"><ele>560.0086</ele><time>2026-07-22T02:04:18.000Z</time></trkpt>
        <trkpt lat="28.645128" lon="105.090995"><ele>560.02106</ele><time>2026-07-22T02:04:24.000Z</time></trkpt>
        <trkpt lat="28.645119" lon="105.090979"><ele>559.5322</ele><time>2026-07-22T02:04:26.000Z</time></trkpt>
        <trkpt lat="28.64511" lon="105.090964"><ele>560.2992</ele><time>2026-07-22T02:04:28.000Z</time></trkpt>
        <trkpt lat="28.645106" lon="105.090952"><ele>559.72174</ele><time>2026-07-22T02:04:30.000Z</time></trkpt>
        <trkpt lat="28.645105" lon="105.090945"><ele>559.0728</ele><time>2026-07-22T02:04:32.000Z</time></trkpt>
        <trkpt lat="28.645104" lon="105.090929"><ele>559.47455</ele><time>2026-07-22T02:04:36.000Z</time></trkpt>
        <trkpt lat="28.645102" lon="105.090916"><ele>559.2443</ele><time>2026-07-22T02:04:40.000Z</time></trkpt>
        <trkpt lat="28.645102" lon="105.090908"><ele>559.23267</ele><time>2026-07-22T02:04:42.000Z</time></trkpt>
        <trkpt lat="28.645099" lon="105.09089"><ele>558.9995</ele><time>2026-07-22T02:04:44.000Z</time></trkpt>
        <trkpt lat="28.645096" lon="105.090887"><ele>559.0352</ele><time>2026-07-22T02:04:48.000Z</time></trkpt>
        <trkpt lat="28.645088" lon="105.090878"><ele>558.7331</ele><time>2026-07-22T02:04:50.000Z</time></trkpt>
        <trkpt lat="28.645076" lon="105.090867"><ele>559.15704</ele><time>2026-07-22T02:04:52.000Z</time></trkpt>
        <trkpt lat="28.645065" lon="105.090853"><ele>559.21643</ele><time>2026-07-22T02:04:54.000Z</time></trkpt>
        <trkpt lat="28.645058" lon="105.090838"><ele>559.0817</ele><time>2026-07-22T02:04:56.000Z</time></trkpt>
        <trkpt lat="28.645054" lon="105.09082"><ele>558.7958</ele><time>2026-07-22T02:04:58.000Z</time></trkpt>
        <trkpt lat="28.645051" lon="105.090801"><ele>558.6346</ele><time>2026-07-22T02:05:00.000Z</time></trkpt>
        <trkpt lat="28.645047" lon="105.090782"><ele>558.3288</ele><time>2026-07-22T02:05:02.000Z</time></trkpt>
        <trkpt lat="28.645043" lon="105.090769"><ele>558.98486</ele><time>2026-07-22T02:05:04.000Z</time></trkpt>
        <trkpt lat="28.64504" lon="105.090759"><ele>558.53296</ele><time>2026-07-22T02:05:06.000Z</time></trkpt>
        <trkpt lat="28.645037" lon="105.090751"><ele>558.26337</ele><time>2026-07-22T02:05:08.000Z</time></trkpt>
        <trkpt lat="28.645034" lon="105.090735"><ele>557.7178</ele><time>2026-07-22T02:05:10.000Z</time></trkpt>
        <trkpt lat="28.645033" lon="105.09072"><ele>557.9154</ele><time>2026-07-22T02:05:12.000Z</time></trkpt>
        <trkpt lat="28.645031" lon="105.090702"><ele>557.5043</ele><time>2026-07-22T02:05:14.000Z</time></trkpt>
        <trkpt lat="28.645027" lon="105.090678"><ele>557.6313</ele><time>2026-07-22T02:05:16.000Z</time></trkpt>
        <trkpt lat="28.645023" lon="105.09066"><ele>557.24915</ele><time>2026-07-22T02:05:18.000Z</time></trkpt>
        <trkpt lat="28.645017" lon="105.090643"><ele>557.869</ele><time>2026-07-22T02:05:20.000Z</time></trkpt>
        <trkpt lat="28.645012" lon="105.090621"><ele>557.5874</ele><time>2026-07-22T02:05:22.000Z</time></trkpt>
        <trkpt lat="28.645009" lon="105.090606"><ele>556.3591</ele><time>2026-07-22T02:05:24.000Z</time></trkpt>
        <trkpt lat="28.645006" lon="105.090587"><ele>556.3088</ele><time>2026-07-22T02:05:26.000Z</time></trkpt>
        <trkpt lat="28.645004" lon="105.090568"><ele>557.1378</ele><time>2026-07-22T02:05:28.000Z</time></trkpt>
        <trkpt lat="28.645002" lon="105.090544"><ele>557.434</ele><time>2026-07-22T02:05:30.000Z</time></trkpt>
        <trkpt lat="28.645003" lon="105.09053"><ele>557.63947</ele><time>2026-07-22T02:05:32.000Z</time></trkpt>
        <trkpt lat="28.645005" lon="105.090521"><ele>557.2047</ele><time>2026-07-22T02:05:34.000Z</time></trkpt>
        <trkpt lat="28.645009" lon="105.090507"><ele>557.2438</ele><time>2026-07-22T02:05:36.000Z</time></trkpt>
        <trkpt lat="28.645012" lon="105.090493"><ele>557.1625</ele><time>2026-07-22T02:05:38.000Z</time></trkpt>
        <trkpt lat="28.645014" lon="105.090479"><ele>556.86646</ele><time>2026-07-22T02:05:40.000Z</time></trkpt>
        <trkpt lat="28.645015" lon="105.090462"><ele>556.61554</ele><time>2026-07-22T02:05:42.000Z</time></trkpt>
        <trkpt lat="28.645017" lon="105.090444"><ele>556.3788</ele><time>2026-07-22T02:05:44.000Z</time></trkpt>
        <trkpt lat="28.645021" lon="105.090431"><ele>557.155</ele><time>2026-07-22T02:05:46.000Z</time></trkpt>
        <trkpt lat="28.645025" lon="105.090413"><ele>555.5166</ele><time>2026-07-22T02:05:48.000Z</time></trkpt>
        <trkpt lat="28.645028" lon="105.090401"><ele>555.802</ele><time>2026-07-22T02:05:50.000Z</time></trkpt>
        <trkpt lat="28.645032" lon="105.090385"><ele>555.5865</ele><time>2026-07-22T02:05:52.000Z</time></trkpt>
        <trkpt lat="28.645034" lon="105.090372"><ele>556.18774</ele><time>2026-07-22T02:05:54.000Z</time></trkpt>
        <trkpt lat="28.645037" lon="105.090353"><ele>555.97095</ele><time>2026-07-22T02:05:56.000Z</time></trkpt>
        <trkpt lat="28.645039" lon="105.090333"><ele>555.9989</ele><time>2026-07-22T02:05:58.000Z</time></trkpt>
        <trkpt lat="28.64504" lon="105.090315"><ele>555.83936</ele><time>2026-07-22T02:06:00.000Z</time></trkpt>
        <trkpt lat="28.645043" lon="105.0903"><ele>555.62683</ele><time>2026-07-22T02:06:02.000Z</time></trkpt>
        <trkpt lat="28.64505" lon="105.090281"><ele>556.2688</ele><time>2026-07-22T02:06:04.000Z</time></trkpt>
        <trkpt lat="28.64506" lon="105.090259"><ele>555.33105</ele><time>2026-07-22T02:06:06.000Z</time></trkpt>
        <trkpt lat="28.64507" lon="105.090236"><ele>554.29645</ele><time>2026-07-22T02:06:08.000Z</time></trkpt>
        <trkpt lat="28.645076" lon="105.090219"><ele>553.7409</ele><time>2026-07-22T02:06:10.000Z</time></trkpt>
        <trkpt lat="28.645081" lon="105.090205"><ele>553.7963</ele><time>2026-07-22T02:06:12.000Z</time></trkpt>
        <trkpt lat="28.645083" lon="105.090191"><ele>554.2608</ele><time>2026-07-22T02:06:14.000Z</time></trkpt>
        <trkpt lat="28.645082" lon="105.090176"><ele>553.6592</ele><time>2026-07-22T02:06:16.000Z</time></trkpt>
        <trkpt lat="28.645081" lon="105.090161"><ele>553.5668</ele><time>2026-07-22T02:06:18.000Z</time></trkpt>
        <trkpt lat="28.645081" lon="105.090147"><ele>553.06995</ele><time>2026-07-22T02:06:20.000Z</time></trkpt>
        <trkpt lat="28.645084" lon="105.090131"><ele>553.61456</ele><time>2026-07-22T02:06:22.000Z</time></trkpt>
        <trkpt lat="28.645088" lon="105.090117"><ele>553.2614</ele><time>2026-07-22T02:06:24.000Z</time></trkpt>
        <trkpt lat="28.645092" lon="105.090103"><ele>552.70123</ele><time>2026-07-22T02:06:26.000Z</time></trkpt>
        <trkpt lat="28.645096" lon="105.090084"><ele>552.12976</ele><time>2026-07-22T02:06:28.000Z</time></trkpt>
        <trkpt lat="28.645101" lon="105.090069"><ele>552.3198</ele><time>2026-07-22T02:06:30.000Z</time></trkpt>
        <trkpt lat="28.645105" lon="105.090051"><ele>552.1673</ele><time>2026-07-22T02:06:32.000Z</time></trkpt>
        <trkpt lat="28.645113" lon="105.090028"><ele>553.063</ele><time>2026-07-22T02:06:34.000Z</time></trkpt>
        <trkpt lat="28.645123" lon="105.090001"><ele>552.3183</ele><time>2026-07-22T02:06:36.000Z</time></trkpt>
        <trkpt lat="28.645131" lon="105.089981"><ele>551.68976</ele><time>2026-07-22T02:06:38.000Z</time></trkpt>
        <trkpt lat="28.645134" lon="105.089965"><ele>550.8554</ele><time>2026-07-22T02:06:40.000Z</time></trkpt>
        <trkpt lat="28.645134" lon="105.08995"><ele>551.23224</ele><time>2026-07-22T02:06:42.000Z</time></trkpt>
        <trkpt lat="28.645133" lon="105.089947"><ele>552.464</ele><time>2026-07-22T02:06:44.000Z</time></trkpt>
        <trkpt lat="28.645129" lon="105.089944"><ele>552.14026</ele><time>2026-07-22T02:06:46.000Z</time></trkpt>
        <trkpt lat="28.645115" lon="105.089935"><ele>552.47107</ele><time>2026-07-22T02:06:52.000Z</time></trkpt>
        <trkpt lat="28.645115" lon="105.089935"><ele>552.46606</ele><time>2026-07-22T02:06:54.000Z</time></trkpt>
        <trkpt lat="28.645133" lon="105.089905"><ele>549.3977</ele><time>2026-07-22T02:07:58.000Z</time></trkpt>
        <trkpt lat="28.645144" lon="105.089916"><ele>549.83264</ele><time>2026-07-22T02:08:01.000Z</time></trkpt>
        <trkpt lat="28.645144" lon="105.089916"><ele>549.953</ele><time>2026-07-22T02:08:03.000Z</time></trkpt>
        <trkpt lat="28.645154" lon="105.089865"><ele>548.697</ele><time>2026-07-22T02:08:50.000Z</time></trkpt>
        <trkpt lat="28.645154" lon="105.089862"><ele>548.3438</ele><time>2026-07-22T02:08:52.000Z</time></trkpt>
        <trkpt lat="28.645154" lon="105.089854"><ele>548.4506</ele><time>2026-07-22T02:08:54.000Z</time></trkpt>
        <trkpt lat="28.645152" lon="105.089816"><ele>547.83923</ele><time>2026-07-22T02:09:00.000Z</time></trkpt>
        <trkpt lat="28.645151" lon="105.089807"><ele>547.8209</ele><time>2026-07-22T02:09:02.000Z</time></trkpt>
        <trkpt lat="28.64515" lon="105.089797"><ele>547.4529</ele><time>2026-07-22T02:09:04.000Z</time></trkpt>
        <trkpt lat="28.645149" lon="105.089774"><ele>546.7139</ele><time>2026-07-22T02:09:08.000Z</time></trkpt>
        <trkpt lat="28.64515" lon="105.089763"><ele>546.569</ele><time>2026-07-22T02:09:10.000Z</time></trkpt>
        <trkpt lat="28.645151" lon="105.08975"><ele>546.6604</ele><time>2026-07-22T02:09:12.000Z</time></trkpt>
        <trkpt lat="28.645153" lon="105.089739"><ele>546.93713</ele><time>2026-07-22T02:09:14.000Z</time></trkpt>
        <trkpt lat="28.645157" lon="105.089729"><ele>546.4347</ele><time>2026-07-22T02:09:16.000Z</time></trkpt>
        <trkpt lat="28.645161" lon="105.089719"><ele>546.3911</ele><time>2026-07-22T02:09:18.000Z</time></trkpt>
        <trkpt lat="28.645165" lon="105.089711"><ele>546.3285</ele><time>2026-07-22T02:09:20.000Z</time></trkpt>
        <trkpt lat="28.645166" lon="105.089704"><ele>547.21545</ele><time>2026-07-22T02:09:24.000Z</time></trkpt>
        <trkpt lat="28.645166" lon="105.089686"><ele>546.1791</ele><time>2026-07-22T02:09:38.000Z</time></trkpt>
        <trkpt lat="28.645165" lon="105.089656"><ele>545.7281</ele><time>2026-07-22T02:09:40.000Z</time></trkpt>
        <trkpt lat="28.645165" lon="105.089654"><ele>545.3686</ele><time>2026-07-22T02:09:42.000Z</time></trkpt>
        <trkpt lat="28.645166" lon="105.089652"><ele>545.29865</ele><time>2026-07-22T02:09:44.000Z</time></trkpt>
        <trkpt lat="28.645174" lon="105.089604"><ele>545.2976</ele><time>2026-07-22T02:10:02.000Z</time></trkpt>
        <trkpt lat="28.645174" lon="105.089604"><ele>546.181</ele><time>2026-07-22T02:10:04.000Z</time></trkpt>
        <trkpt lat="28.645174" lon="105.089603"><ele>545.665</ele><time>2026-07-22T02:10:06.000Z</time></trkpt>
        <trkpt lat="28.645151" lon="105.089563"><ele>546.658</ele><time>2026-07-22T02:10:16.000Z</time></trkpt>
        <trkpt lat="28.645144" lon="105.08955"><ele>546.3317</ele><time>2026-07-22T02:10:18.000Z</time></trkpt>
        <trkpt lat="28.645144" lon="105.089549"><ele>546.70447</ele><time>2026-07-22T02:10:20.000Z</time></trkpt>
        <trkpt lat="28.645139" lon="105.089524"><ele>547.4743</ele><time>2026-07-22T02:10:30.000Z</time></trkpt>
        <trkpt lat="28.645138" lon="105.089506"><ele>548.1677</ele><time>2026-07-22T02:10:34.000Z</time></trkpt>
        <trkpt lat="28.645137" lon="105.089435"><ele>549.0594</ele><time>2026-07-22T02:10:36.000Z</time></trkpt>
        <trkpt lat="28.645136" lon="105.08943"><ele>548.45</ele><time>2026-07-22T02:10:38.000Z</time></trkpt>
        <trkpt lat="28.645131" lon="105.089418"><ele>546.94727</ele><time>2026-07-22T02:10:40.000Z</time></trkpt>
        <trkpt lat="28.645108" lon="105.08937"><ele>545.818</ele><time>2026-07-22T02:10:42.000Z</time></trkpt>
        <trkpt lat="28.645" lon="105.089147"><ele>545.9327</ele><time>2026-07-22T02:10:44.000Z</time></trkpt>
        <trkpt lat="28.644993" lon="105.08913"><ele>546.25336</ele><time>2026-07-22T02:10:46.000Z</time></trkpt>
        <trkpt lat="28.64499" lon="105.089119"><ele>544.2657</ele><time>2026-07-22T02:10:48.000Z</time></trkpt>
        <trkpt lat="28.644988" lon="105.089078"><ele>543.42896</ele><time>2026-07-22T02:10:50.000Z</time></trkpt>
        <trkpt lat="28.644984" lon="105.088999"><ele>543.5542</ele><time>2026-07-22T02:10:52.000Z</time></trkpt>
        <trkpt lat="28.645038" lon="105.088818"><ele>540.3194</ele><time>2026-07-22T02:10:54.000Z</time></trkpt>
        <trkpt lat="28.645042" lon="105.088805"><ele>538.74866</ele><time>2026-07-22T02:10:56.000Z</time></trkpt>
        <trkpt lat="28.645045" lon="105.088795"><ele>536.9724</ele><time>2026-07-22T02:10:58.000Z</time></trkpt>
        <trkpt lat="28.645058" lon="105.088756"><ele>534.8021</ele><time>2026-07-22T02:11:00.000Z</time></trkpt>
        <trkpt lat="28.645078" lon="105.088684"><ele>533.68823</ele><time>2026-07-22T02:11:02.000Z</time></trkpt>
        <trkpt lat="28.645096" lon="105.088605"><ele>532.0605</ele><time>2026-07-22T02:11:04.000Z</time></trkpt>
        <trkpt lat="28.645111" lon="105.088528"><ele>531.7463</ele><time>2026-07-22T02:11:06.000Z</time></trkpt>
        <trkpt lat="28.645124" lon="105.088466"><ele>530.24963</ele><time>2026-07-22T02:11:08.000Z</time></trkpt>
        <trkpt lat="28.645138" lon="105.088415"><ele>529.32916</ele><time>2026-07-22T02:11:10.000Z</time></trkpt>
        <trkpt lat="28.645155" lon="105.088369"><ele>527.84924</ele><time>2026-07-22T02:11:12.000Z</time></trkpt>
        <trkpt lat="28.645172" lon="105.088333"><ele>527.0053</ele><time>2026-07-22T02:11:14.000Z</time></trkpt>
        <trkpt lat="28.645189" lon="105.088296"><ele>525.6899</ele><time>2026-07-22T02:11:16.000Z</time></trkpt>
        <trkpt lat="28.6452" lon="105.088265"><ele>524.9885</ele><time>2026-07-22T02:11:18.000Z</time></trkpt>
        <trkpt lat="28.645206" lon="105.088233"><ele>524.30597</ele><time>2026-07-22T02:11:20.000Z</time></trkpt>
        <trkpt lat="28.645208" lon="105.088199"><ele>523.87335</ele><time>2026-07-22T02:11:22.000Z</time></trkpt>
        <trkpt lat="28.645206" lon="105.088167"><ele>522.96857</ele><time>2026-07-22T02:11:24.000Z</time></trkpt>
        <trkpt lat="28.645201" lon="105.088143"><ele>522.42645</ele><time>2026-07-22T02:11:26.000Z</time></trkpt>
        <trkpt lat="28.645194" lon="105.088124"><ele>522.6838</ele><time>2026-07-22T02:11:28.000Z</time></trkpt>
        <trkpt lat="28.645182" lon="105.088111"><ele>522.9274</ele><time>2026-07-22T02:11:30.000Z</time></trkpt>
        <trkpt lat="28.645164" lon="105.088093"><ele>523.65594</ele><time>2026-07-22T02:11:32.000Z</time></trkpt>
        <trkpt lat="28.64506" lon="105.088135"><ele>522.5708</ele><time>2026-07-22T02:11:34.000Z</time></trkpt>
        <trkpt lat="28.645052" lon="105.088138"><ele>522.9263</ele><time>2026-07-22T02:11:36.000Z</time></trkpt>
        <trkpt lat="28.645042" lon="105.088141"><ele>522.97217</ele><time>2026-07-22T02:11:38.000Z</time></trkpt>
        <trkpt lat="28.644982" lon="105.088163"><ele>523.9619</ele><time>2026-07-22T02:11:40.000Z</time></trkpt>
        <trkpt lat="28.644863" lon="105.088198"><ele>523.8984</ele><time>2026-07-22T02:11:42.000Z</time></trkpt>
        <trkpt lat="28.644659" lon="105.088258"><ele>523.88513</ele><time>2026-07-22T02:11:44.000Z</time></trkpt>
        <trkpt lat="28.644649" lon="105.088258"><ele>524.5209</ele><time>2026-07-22T02:11:46.000Z</time></trkpt>
        <trkpt lat="28.644636" lon="105.088255"><ele>524.28674</ele><time>2026-07-22T02:11:48.000Z</time></trkpt>
        <trkpt lat="28.644579" lon="105.088229"><ele>524.78674</ele><time>2026-07-22T02:11:50.000Z</time></trkpt>
        <trkpt lat="28.644338" lon="105.088122"><ele>524.6602</ele><time>2026-07-22T02:11:52.000Z</time></trkpt>
        <trkpt lat="28.644326" lon="105.088112"><ele>523.87396</ele><time>2026-07-22T02:11:54.000Z</time></trkpt>
        <trkpt lat="28.644321" lon="105.088105"><ele>524.13104</ele><time>2026-07-22T02:11:56.000Z</time></trkpt>
        <trkpt lat="28.644286" lon="105.088073"><ele>522.19464</ele><time>2026-07-22T02:11:58.000Z</time></trkpt>
        <trkpt lat="28.644127" lon="105.087925"><ele>521.58765</ele><time>2026-07-22T02:12:00.000Z</time></trkpt>
        <trkpt lat="28.644115" lon="105.087917"><ele>522.3658</ele><time>2026-07-22T02:12:02.000Z</time></trkpt>
        <trkpt lat="28.644102" lon="105.087911"><ele>522.9274</ele><time>2026-07-22T02:12:04.000Z</time></trkpt>
        <trkpt lat="28.644057" lon="105.087872"><ele>525.4008</ele><time>2026-07-22T02:12:06.000Z</time></trkpt>
        <trkpt lat="28.643814" lon="105.087664"><ele>526.01495</ele><time>2026-07-22T02:12:08.000Z</time></trkpt>
        <trkpt lat="28.643798" lon="105.087648"><ele>527.0646</ele><time>2026-07-22T02:12:10.000Z</time></trkpt>
        <trkpt lat="28.643788" lon="105.087637"><ele>526.107</ele><time>2026-07-22T02:12:12.000Z</time></trkpt>
        <trkpt lat="28.643744" lon="105.087604"><ele>525.47864</ele><time>2026-07-22T02:12:14.000Z</time></trkpt>
        <trkpt lat="28.643536" lon="105.087449"><ele>526.0917</ele><time>2026-07-22T02:12:16.000Z</time></trkpt>
        <trkpt lat="28.643521" lon="105.087437"><ele>527.28516</ele><time>2026-07-22T02:12:18.000Z</time></trkpt>
        <trkpt lat="28.643514" lon="105.087424"><ele>528.00134</ele><time>2026-07-22T02:12:20.000Z</time></trkpt>
        <trkpt lat="28.643495" lon="105.087365"><ele>528.3093</ele><time>2026-07-22T02:12:22.000Z</time></trkpt>
        <trkpt lat="28.643466" lon="105.087239"><ele>527.2329</ele><time>2026-07-22T02:12:24.000Z</time></trkpt>
        <trkpt lat="28.643435" lon="105.087088"><ele>526.89355</ele><time>2026-07-22T02:12:26.000Z</time></trkpt>
        <trkpt lat="28.643405" lon="105.086937"><ele>522.2924</ele><time>2026-07-22T02:12:28.000Z</time></trkpt>
        <trkpt lat="28.643352" lon="105.086812"><ele>519.55756</ele><time>2026-07-22T02:12:30.000Z</time></trkpt>
        <trkpt lat="28.643271" lon="105.086739"><ele>516.95294</ele><time>2026-07-22T02:12:32.000Z</time></trkpt>
        <trkpt lat="28.643182" lon="105.086699"><ele>515.1965</ele><time>2026-07-22T02:12:34.000Z</time></trkpt>
        <trkpt lat="28.643113" lon="105.086668"><ele>514.9718</ele><time>2026-07-22T02:12:36.000Z</time></trkpt>
        <trkpt lat="28.64303" lon="105.08657"><ele>515.7768</ele><time>2026-07-22T02:12:38.000Z</time></trkpt>
        <trkpt lat="28.643028" lon="105.086564"><ele>514.7133</ele><time>2026-07-22T02:12:40.000Z</time></trkpt>
        <trkpt lat="28.643026" lon="105.08655"><ele>513.2248</ele><time>2026-07-22T02:12:42.000Z</time></trkpt>
        <trkpt lat="28.643011" lon="105.086495"><ele>511.7935</ele><time>2026-07-22T02:12:44.000Z</time></trkpt>
        <trkpt lat="28.642947" lon="105.086264"><ele>510.9555</ele><time>2026-07-22T02:12:46.000Z</time></trkpt>
        <trkpt lat="28.642939" lon="105.086252"><ele>509.68304</ele><time>2026-07-22T02:12:48.000Z</time></trkpt>
        <trkpt lat="28.64293" lon="105.086242"><ele>508.59146</ele><time>2026-07-22T02:12:50.000Z</time></trkpt>
        <trkpt lat="28.642898" lon="105.08619"><ele>508.15643</ele><time>2026-07-22T02:12:52.000Z</time></trkpt>
        <trkpt lat="28.64276" lon="105.085964"><ele>507.77255</ele><time>2026-07-22T02:12:54.000Z</time></trkpt>
        <trkpt lat="28.642754" lon="105.085947"><ele>505.55447</ele><time>2026-07-22T02:12:56.000Z</time></trkpt>
        <trkpt lat="28.64275" lon="105.085934"><ele>504.64633</ele><time>2026-07-22T02:12:58.000Z</time></trkpt>
        <trkpt lat="28.642722" lon="105.085878"><ele>505.35202</ele><time>2026-07-22T02:13:00.000Z</time></trkpt>
        <trkpt lat="28.642593" lon="105.085621"><ele>505.0521</ele><time>2026-07-22T02:13:02.000Z</time></trkpt>
        <trkpt lat="28.64258" lon="105.085615"><ele>505.3842</ele><time>2026-07-22T02:13:04.000Z</time></trkpt>
        <trkpt lat="28.642571" lon="105.085619"><ele>505.42517</ele><time>2026-07-22T02:13:06.000Z</time></trkpt>
        <trkpt lat="28.642502" lon="105.085656"><ele>505.17535</ele><time>2026-07-22T02:13:08.000Z</time></trkpt>
        <trkpt lat="28.642371" lon="105.085728"><ele>505.44437</ele><time>2026-07-22T02:13:10.000Z</time></trkpt>
        <trkpt lat="28.642218" lon="105.085796"><ele>505.69232</ele><time>2026-07-22T02:13:12.000Z</time></trkpt>
        <trkpt lat="28.642077" lon="105.085858"><ele>505.81668</ele><time>2026-07-22T02:13:14.000Z</time></trkpt>
        <trkpt lat="28.641943" lon="105.085865"><ele>505.783</ele><time>2026-07-22T02:13:16.000Z</time></trkpt>
        <trkpt lat="28.641834" lon="105.085871"><ele>505.10638</ele><time>2026-07-22T02:13:18.000Z</time></trkpt>
        <trkpt lat="28.641742" lon="105.085832"><ele>505.3661</ele><time>2026-07-22T02:13:20.000Z</time></trkpt>
        <trkpt lat="28.6417" lon="105.085776"><ele>505.95084</ele><time>2026-07-22T02:13:22.000Z</time></trkpt>
        <trkpt lat="28.641754" lon="105.085555"><ele>507.80777</ele><time>2026-07-22T02:13:24.000Z</time></trkpt>
        <trkpt lat="28.641753" lon="105.085542"><ele>507.07858</ele><time>2026-07-22T02:13:26.000Z</time></trkpt>
        <trkpt lat="28.641749" lon="105.08553"><ele>506.37524</ele><time>2026-07-22T02:13:28.000Z</time></trkpt>
        <trkpt lat="28.64172" lon="105.085484"><ele>506.3502</ele><time>2026-07-22T02:13:30.000Z</time></trkpt>
        <trkpt lat="28.641545" lon="105.085201"><ele>507.19223</ele><time>2026-07-22T02:13:32.000Z</time></trkpt>
        <trkpt lat="28.641532" lon="105.085184"><ele>507.59882</ele><time>2026-07-22T02:13:34.000Z</time></trkpt>
        <trkpt lat="28.641522" lon="105.085173"><ele>506.6459</ele><time>2026-07-22T02:13:36.000Z</time></trkpt>
        <trkpt lat="28.64149" lon="105.085128"><ele>508.5734</ele><time>2026-07-22T02:13:38.000Z</time></trkpt>
        <trkpt lat="28.641346" lon="105.08492"><ele>508.72235</ele><time>2026-07-22T02:13:40.000Z</time></trkpt>
        <trkpt lat="28.641335" lon="105.084905"><ele>506.85202</ele><time>2026-07-22T02:13:42.000Z</time></trkpt>
        <trkpt lat="28.641322" lon="105.084894"><ele>504.6058</ele><time>2026-07-22T02:13:44.000Z</time></trkpt>
        <trkpt lat="28.641271" lon="105.08485"><ele>506.0154</ele><time>2026-07-22T02:13:46.000Z</time></trkpt>
        <trkpt lat="28.641019" lon="105.084739"><ele>505.99258</ele><time>2026-07-22T02:13:48.000Z</time></trkpt>
        <trkpt lat="28.641" lon="105.084735"><ele>504.80844</ele><time>2026-07-22T02:13:50.000Z</time></trkpt>
        <trkpt lat="28.640988" lon="105.084736"><ele>502.98914</ele><time>2026-07-22T02:13:52.000Z</time></trkpt>
        <trkpt lat="28.640938" lon="105.084739"><ele>500.80228</ele><time>2026-07-22T02:13:54.000Z</time></trkpt>
        <trkpt lat="28.640852" lon="105.084736"><ele>501.39774</ele><time>2026-07-22T02:13:56.000Z</time></trkpt>
        <trkpt lat="28.640679" lon="105.084729"><ele>498.969</ele><time>2026-07-22T02:13:58.000Z</time></trkpt>
        <trkpt lat="28.640668" lon="105.084725"><ele>497.36667</ele><time>2026-07-22T02:14:00.000Z</time></trkpt>
        <trkpt lat="28.640659" lon="105.084718"><ele>497.722</ele><time>2026-07-22T02:14:02.000Z</time></trkpt>
        <trkpt lat="28.640625" lon="105.084687"><ele>495.3422</ele><time>2026-07-22T02:14:04.000Z</time></trkpt>
        <trkpt lat="28.640568" lon="105.084627"><ele>495.98593</ele><time>2026-07-22T02:14:06.000Z</time></trkpt>
        <trkpt lat="28.640457" lon="105.084509"><ele>495.38272</ele><time>2026-07-22T02:14:08.000Z</time></trkpt>
        <trkpt lat="28.64045" lon="105.084499"><ele>494.0786</ele><time>2026-07-22T02:14:10.000Z</time></trkpt>
        <trkpt lat="28.640444" lon="105.08449"><ele>493.67288</ele><time>2026-07-22T02:14:12.000Z</time></trkpt>
        <trkpt lat="28.640418" lon="105.08445"><ele>493.16745</ele><time>2026-07-22T02:14:14.000Z</time></trkpt>
        <trkpt lat="28.640373" lon="105.08437"><ele>491.91318</ele><time>2026-07-22T02:14:16.000Z</time></trkpt>
        <trkpt lat="28.640278" lon="105.084201"><ele>490.94333</ele><time>2026-07-22T02:14:18.000Z</time></trkpt>
        <trkpt lat="28.640272" lon="105.084188"><ele>489.696</ele><time>2026-07-22T02:14:20.000Z</time></trkpt>
        <trkpt lat="28.640265" lon="105.084174"><ele>488.99817</ele><time>2026-07-22T02:14:22.000Z</time></trkpt>
        <trkpt lat="28.640233" lon="105.084112"><ele>488.88742</ele><time>2026-07-22T02:14:24.000Z</time></trkpt>
        <trkpt lat="28.64017" lon="105.083987"><ele>489.7975</ele><time>2026-07-22T02:14:26.000Z</time></trkpt>
        <trkpt lat="28.640099" lon="105.083834"><ele>488.81</ele><time>2026-07-22T02:14:28.000Z</time></trkpt>
        <trkpt lat="28.640034" lon="105.083682"><ele>487.6517</ele><time>2026-07-22T02:14:30.000Z</time></trkpt>
        <trkpt lat="28.639978" lon="105.083543"><ele>486.2709</ele><time>2026-07-22T02:14:32.000Z</time></trkpt>
        <trkpt lat="28.639934" lon="105.083417"><ele>484.78784</ele><time>2026-07-22T02:14:34.000Z</time></trkpt>
        <trkpt lat="28.639894" lon="105.083302"><ele>483.67676</ele><time>2026-07-22T02:14:36.000Z</time></trkpt>
        <trkpt lat="28.639907" lon="105.083183"><ele>482.39047</ele><time>2026-07-22T02:14:38.000Z</time></trkpt>
        <trkpt lat="28.639908" lon="105.083174"><ele>480.94162</ele><time>2026-07-22T02:14:40.000Z</time></trkpt>
        <trkpt lat="28.63991" lon="105.083159"><ele>479.89142</ele><time>2026-07-22T02:14:42.000Z</time></trkpt>
        <trkpt lat="28.639924" lon="105.083101"><ele>478.27267</ele><time>2026-07-22T02:14:44.000Z</time></trkpt>
        <trkpt lat="28.639978" lon="105.082879"><ele>473.68997</ele><time>2026-07-22T02:14:46.000Z</time></trkpt>
        <trkpt lat="28.639982" lon="105.082863"><ele>473.839</ele><time>2026-07-22T02:14:48.000Z</time></trkpt>
        <trkpt lat="28.639983" lon="105.082858"><ele>473.98325</ele><time>2026-07-22T02:14:50.000Z</time></trkpt>
        <trkpt lat="28.639997" lon="105.082769"><ele>472.11438</ele><time>2026-07-22T02:14:54.000Z</time></trkpt>
        <trkpt lat="28.640006" lon="105.082708"><ele>472.3557</ele><time>2026-07-22T02:14:56.000Z</time></trkpt>
        <trkpt lat="28.640014" lon="105.08264"><ele>471.3462</ele><time>2026-07-22T02:14:58.000Z</time></trkpt>
        <trkpt lat="28.640021" lon="105.08257"><ele>471.02924</ele><time>2026-07-22T02:15:00.000Z</time></trkpt>
        <trkpt lat="28.640024" lon="105.08251"><ele>469.4968</ele><time>2026-07-22T02:15:02.000Z</time></trkpt>
        <trkpt lat="28.640026" lon="105.082438"><ele>467.82123</ele><time>2026-07-22T02:15:04.000Z</time></trkpt>
        <trkpt lat="28.640022" lon="105.082384"><ele>467.95615</ele><time>2026-07-22T02:15:06.000Z</time></trkpt>
        <trkpt lat="28.640016" lon="105.08234"><ele>468.4938</ele><time>2026-07-22T02:15:08.000Z</time></trkpt>
        <trkpt lat="28.640006" lon="105.082296"><ele>468.32532</ele><time>2026-07-22T02:15:10.000Z</time></trkpt>
        <trkpt lat="28.639995" lon="105.082253"><ele>467.22394</ele><time>2026-07-22T02:15:12.000Z</time></trkpt>
        <trkpt lat="28.639983" lon="105.082211"><ele>467.01932</ele><time>2026-07-22T02:15:14.000Z</time></trkpt>
        <trkpt lat="28.639969" lon="105.082169"><ele>465.99637</ele><time>2026-07-22T02:15:16.000Z</time></trkpt>
        <trkpt lat="28.639954" lon="105.082122"><ele>465.95612</ele><time>2026-07-22T02:15:18.000Z</time></trkpt>
        <trkpt lat="28.639939" lon="105.082067"><ele>464.62708</ele><time>2026-07-22T02:15:20.000Z</time></trkpt>
        <trkpt lat="28.639921" lon="105.082002"><ele>462.62427</ele><time>2026-07-22T02:15:22.000Z</time></trkpt>
        <trkpt lat="28.639906" lon="105.081945"><ele>461.35486</ele><time>2026-07-22T02:15:24.000Z</time></trkpt>
        <trkpt lat="28.639893" lon="105.081889"><ele>460.99695</ele><time>2026-07-22T02:15:26.000Z</time></trkpt>
        <trkpt lat="28.639878" lon="105.081826"><ele>458.505</ele><time>2026-07-22T02:15:28.000Z</time></trkpt>
        <trkpt lat="28.639868" lon="105.081772"><ele>457.67532</ele><time>2026-07-22T02:15:30.000Z</time></trkpt>
        <trkpt lat="28.639856" lon="105.081705"><ele>455.82855</ele><time>2026-07-22T02:15:32.000Z</time></trkpt>
        <trkpt lat="28.639846" lon="105.081646"><ele>454.4669</ele><time>2026-07-22T02:15:34.000Z</time></trkpt>
        <trkpt lat="28.639837" lon="105.081587"><ele>453.23236</ele><time>2026-07-22T02:15:36.000Z</time></trkpt>
        <trkpt lat="28.639827" lon="105.08153"><ele>453.33887</ele><time>2026-07-22T02:15:38.000Z</time></trkpt>
        <trkpt lat="28.639816" lon="105.081476"><ele>452.61606</ele><time>2026-07-22T02:15:40.000Z</time></trkpt>
        <trkpt lat="28.639801" lon="105.081424"><ele>451.88248</ele><time>2026-07-22T02:15:42.000Z</time></trkpt>
        <trkpt lat="28.639775" lon="105.08136"><ele>451.3668</ele><time>2026-07-22T02:15:44.000Z</time></trkpt>
        <trkpt lat="28.639686" lon="105.081137"><ele>449.62302</ele><time>2026-07-22T02:15:46.000Z</time></trkpt>
        <trkpt lat="28.639679" lon="105.081121"><ele>447.67978</ele><time>2026-07-22T02:15:48.000Z</time></trkpt>
        <trkpt lat="28.639671" lon="105.081099"><ele>445.8313</ele><time>2026-07-22T02:15:50.000Z</time></trkpt>
        <trkpt lat="28.639651" lon="105.08102"><ele>446.83646</ele><time>2026-07-22T02:15:52.000Z</time></trkpt>
        <trkpt lat="28.639588" lon="105.080776"><ele>444.59348</ele><time>2026-07-22T02:15:54.000Z</time></trkpt>
        <trkpt lat="28.639589" lon="105.080759"><ele>444.53967</ele><time>2026-07-22T02:15:56.000Z</time></trkpt>
        <trkpt lat="28.639593" lon="105.080746"><ele>443.54776</ele><time>2026-07-22T02:15:58.000Z</time></trkpt>
        <trkpt lat="28.639614" lon="105.080694"><ele>442.9856</ele><time>2026-07-22T02:16:00.000Z</time></trkpt>
        <trkpt lat="28.639688" lon="105.080512"><ele>442.86017</ele><time>2026-07-22T02:16:02.000Z</time></trkpt>
        <trkpt lat="28.639693" lon="105.080498"><ele>441.77966</ele><time>2026-07-22T02:16:04.000Z</time></trkpt>
        <trkpt lat="28.639697" lon="105.080483"><ele>441.0036</ele><time>2026-07-22T02:16:06.000Z</time></trkpt>
        <trkpt lat="28.63971" lon="105.080431"><ele>439.8783</ele><time>2026-07-22T02:16:08.000Z</time></trkpt>
        <trkpt lat="28.63973" lon="105.08035"><ele>439.50525</ele><time>2026-07-22T02:16:10.000Z</time></trkpt>
        <trkpt lat="28.639756" lon="105.080266"><ele>438.57535</ele><time>2026-07-22T02:16:12.000Z</time></trkpt>
        <trkpt lat="28.63979" lon="105.080176"><ele>436.87857</ele><time>2026-07-22T02:16:14.000Z</time></trkpt>
        <trkpt lat="28.639827" lon="105.080103"><ele>436.22104</ele><time>2026-07-22T02:16:16.000Z</time></trkpt>
        <trkpt lat="28.639863" lon="105.080059"><ele>434.53687</ele><time>2026-07-22T02:16:18.000Z</time></trkpt>
        <trkpt lat="28.639894" lon="105.080031"><ele>432.79242</ele><time>2026-07-22T02:16:20.000Z</time></trkpt>
        <trkpt lat="28.639927" lon="105.080005"><ele>432.578</ele><time>2026-07-22T02:16:22.000Z</time></trkpt>
        <trkpt lat="28.639964" lon="105.079973"><ele>431.73975</ele><time>2026-07-22T02:16:24.000Z</time></trkpt>
        <trkpt lat="28.640011" lon="105.079923"><ele>429.78473</ele><time>2026-07-22T02:16:26.000Z</time></trkpt>
        <trkpt lat="28.640048" lon="105.079866"><ele>429.6644</ele><time>2026-07-22T02:16:28.000Z</time></trkpt>
        <trkpt lat="28.640093" lon="105.079797"><ele>429.8145</ele><time>2026-07-22T02:16:30.000Z</time></trkpt>
        <trkpt lat="28.640136" lon="105.079632"><ele>429.0809</ele><time>2026-07-22T02:16:32.000Z</time></trkpt>
        <trkpt lat="28.640142" lon="105.079621"><ele>429.1276</ele><time>2026-07-22T02:16:34.000Z</time></trkpt>
        <trkpt lat="28.640147" lon="105.079614"><ele>429.49414</ele><time>2026-07-22T02:16:36.000Z</time></trkpt>
        <trkpt lat="28.640167" lon="105.079576"><ele>430.10046</ele><time>2026-07-22T02:16:38.000Z</time></trkpt>
        <trkpt lat="28.640268" lon="105.079384"><ele>432.24655</ele><time>2026-07-22T02:16:40.000Z</time></trkpt>
        <trkpt lat="28.640276" lon="105.07937"><ele>433.00974</ele><time>2026-07-22T02:16:42.000Z</time></trkpt>
        <trkpt lat="28.640288" lon="105.079345"><ele>433.08505</ele><time>2026-07-22T02:16:44.000Z</time></trkpt>
        <trkpt lat="28.640343" lon="105.079235"><ele>433.0876</ele><time>2026-07-22T02:16:46.000Z</time></trkpt>
        <trkpt lat="28.640513" lon="105.078732"><ele>432.4609</ele><time>2026-07-22T02:16:48.000Z</time></trkpt>
        <trkpt lat="28.640521" lon="105.078694"><ele>431.6842</ele><time>2026-07-22T02:16:50.000Z</time></trkpt>
        <trkpt lat="28.640533" lon="105.07865"><ele>432.04816</ele><time>2026-07-22T02:16:52.000Z</time></trkpt>
        <trkpt lat="28.640574" lon="105.078491"><ele>431.84375</ele><time>2026-07-22T02:16:54.000Z</time></trkpt>
        <trkpt lat="28.64081" lon="105.07798"><ele>433.13617</ele><time>2026-07-22T02:16:56.000Z</time></trkpt>
        <trkpt lat="28.640833" lon="105.077948"><ele>433.6931</ele><time>2026-07-22T02:16:58.000Z</time></trkpt>
        <trkpt lat="28.640859" lon="105.077924"><ele>435.5336</ele><time>2026-07-22T02:17:00.000Z</time></trkpt>
        <trkpt lat="28.640961" lon="105.077835"><ele>434.73856</ele><time>2026-07-22T02:17:02.000Z</time></trkpt>
        <trkpt lat="28.641306" lon="105.077537"><ele>434.26797</ele><time>2026-07-22T02:17:04.000Z</time></trkpt>
        <trkpt lat="28.641331" lon="105.077513"><ele>432.83777</ele><time>2026-07-22T02:17:06.000Z</time></trkpt>
        <trkpt lat="28.641354" lon="105.077485"><ele>431.88092</ele><time>2026-07-22T02:17:08.000Z</time></trkpt>
        <trkpt lat="28.641445" lon="105.077362"><ele>433.39862</ele><time>2026-07-22T02:17:10.000Z</time></trkpt>
        <trkpt lat="28.641787" lon="105.076893"><ele>436.1056</ele><time>2026-07-22T02:17:12.000Z</time></trkpt>
        <trkpt lat="28.641811" lon="105.076858"><ele>436.08603</ele><time>2026-07-22T02:17:14.000Z</time></trkpt>
        <trkpt lat="28.641837" lon="105.076822"><ele>436.16974</ele><time>2026-07-22T02:17:16.000Z</time></trkpt>
        <trkpt lat="28.64194" lon="105.076686"><ele>436.07516</ele><time>2026-07-22T02:17:18.000Z</time></trkpt>
        <trkpt lat="28.642287" lon="105.076224"><ele>435.4571</ele><time>2026-07-22T02:17:20.000Z</time></trkpt>
        <trkpt lat="28.642307" lon="105.076187"><ele>435.85114</ele><time>2026-07-22T02:17:22.000Z</time></trkpt>
        <trkpt lat="28.642319" lon="105.076153"><ele>436.61203</ele><time>2026-07-22T02:17:24.000Z</time></trkpt>
        <trkpt lat="28.642353" lon="105.076018"><ele>436.8946</ele><time>2026-07-22T02:17:26.000Z</time></trkpt>
        <trkpt lat="28.642473" lon="105.075547"><ele>436.91696</ele><time>2026-07-22T02:17:28.000Z</time></trkpt>
        <trkpt lat="28.64248" lon="105.075513"><ele>436.42035</ele><time>2026-07-22T02:17:30.000Z</time></trkpt>
        <trkpt lat="28.64248" lon="105.075491"><ele>436.1326</ele><time>2026-07-22T02:17:32.000Z</time></trkpt>
        <trkpt lat="28.64248" lon="105.075404"><ele>436.6667</ele><time>2026-07-22T02:17:34.000Z</time></trkpt>
        <trkpt lat="28.642428" lon="105.075269"><ele>437.90826</ele><time>2026-07-22T02:17:36.000Z</time></trkpt>
        <trkpt lat="28.642302" lon="105.075155"><ele>439.93472</ele><time>2026-07-22T02:17:38.000Z</time></trkpt>
        <trkpt lat="28.641953" lon="105.075161"><ele>442.67444</ele><time>2026-07-22T02:17:40.000Z</time></trkpt>
        <trkpt lat="28.641936" lon="105.075166"><ele>446.82874</ele><time>2026-07-22T02:17:42.000Z</time></trkpt>
        <trkpt lat="28.641914" lon="105.075178"><ele>450.30673</ele><time>2026-07-22T02:17:44.000Z</time></trkpt>
        <trkpt lat="28.641811" lon="105.075231"><ele>453.74774</ele><time>2026-07-22T02:17:46.000Z</time></trkpt>
        <trkpt lat="28.641272" lon="105.07551"><ele>456.5061</ele><time>2026-07-22T02:17:48.000Z</time></trkpt>
        <trkpt lat="28.641237" lon="105.075523"><ele>458.0538</ele><time>2026-07-22T02:17:50.000Z</time></trkpt>
        <trkpt lat="28.641211" lon="105.075528"><ele>461.2271</ele><time>2026-07-22T02:17:52.000Z</time></trkpt>
        <trkpt lat="28.641091" lon="105.075544"><ele>465.88687</ele><time>2026-07-22T02:17:54.000Z</time></trkpt>
        <trkpt lat="28.640459" lon="105.075632"><ele>470.16245</ele><time>2026-07-22T02:17:56.000Z</time></trkpt>
        <trkpt lat="28.640417" lon="105.075634"><ele>472.20862</ele><time>2026-07-22T02:17:58.000Z</time></trkpt>
        <trkpt lat="28.640389" lon="105.075631"><ele>473.0335</ele><time>2026-07-22T02:18:00.000Z</time></trkpt>
        <trkpt lat="28.640277" lon="105.075624"><ele>473.0425</ele><time>2026-07-22T02:18:02.000Z</time></trkpt>
        <trkpt lat="28.639793" lon="105.075594"><ele>473.68304</ele><time>2026-07-22T02:18:04.000Z</time></trkpt>
        <trkpt lat="28.639759" lon="105.075599"><ele>473.96213</ele><time>2026-07-22T02:18:06.000Z</time></trkpt>
        <trkpt lat="28.639735" lon="105.075607"><ele>473.2423</ele><time>2026-07-22T02:18:08.000Z</time></trkpt>
        <trkpt lat="28.639619" lon="105.075634"><ele>472.4193</ele><time>2026-07-22T02:18:10.000Z</time></trkpt>
        <trkpt lat="28.638958" lon="105.075785"><ele>472.3647</ele><time>2026-07-22T02:18:12.000Z</time></trkpt>
        <trkpt lat="28.638028" lon="105.075997"><ele>485.4145</ele><time>2026-07-22T02:18:19.000Z</time></trkpt>
        <trkpt lat="28.638027" lon="105.075997"><ele>490.19244</ele><time>2026-07-22T02:18:21.000Z</time></trkpt>
        <trkpt lat="28.637992" lon="105.075994"><ele>494.4418</ele><time>2026-07-22T02:18:23.000Z</time></trkpt>
        <trkpt lat="28.637847" lon="105.075981"><ele>498.5208</ele><time>2026-07-22T02:18:25.000Z</time></trkpt>
        <trkpt lat="28.637338" lon="105.075791"><ele>501.41843</ele><time>2026-07-22T02:18:27.000Z</time></trkpt>
        <trkpt lat="28.637304" lon="105.075781"><ele>503.32404</ele><time>2026-07-22T02:18:29.000Z</time></trkpt>
        <trkpt lat="28.637285" lon="105.075784"><ele>505.27612</ele><time>2026-07-22T02:18:31.000Z</time></trkpt>
        <trkpt lat="28.63721" lon="105.075799"><ele>506.52875</ele><time>2026-07-22T02:18:33.000Z</time></trkpt>
        <trkpt lat="28.637094" lon="105.075902"><ele>509.01044</ele><time>2026-07-22T02:18:35.000Z</time></trkpt>
        <trkpt lat="28.63691" lon="105.076277"><ele>511.48578</ele><time>2026-07-22T02:18:37.000Z</time></trkpt>
        <trkpt lat="28.636902" lon="105.076297"><ele>514.3786</ele><time>2026-07-22T02:18:39.000Z</time></trkpt>
        <trkpt lat="28.636894" lon="105.076323"><ele>517.57324</ele><time>2026-07-22T02:18:41.000Z</time></trkpt>
        <trkpt lat="28.63685" lon="105.076435"><ele>520.1205</ele><time>2026-07-22T02:18:43.000Z</time></trkpt>
        <trkpt lat="28.636638" lon="105.076971"><ele>521.2794</ele><time>2026-07-22T02:18:45.000Z</time></trkpt>
        <trkpt lat="28.636616" lon="105.076993"><ele>522.4354</ele><time>2026-07-22T02:18:47.000Z</time></trkpt>
        <trkpt lat="28.636612" lon="105.076991"><ele>525.11926</ele><time>2026-07-22T02:18:49.000Z</time></trkpt>
        <trkpt lat="28.636541" lon="105.07695"><ele>529.6291</ele><time>2026-07-22T02:18:51.000Z</time></trkpt>
        <trkpt lat="28.636093" lon="105.076688"><ele>534.0554</ele><time>2026-07-22T02:18:53.000Z</time></trkpt>
        <trkpt lat="28.636069" lon="105.076673"><ele>534.5839</ele><time>2026-07-22T02:18:55.000Z</time></trkpt>
        <trkpt lat="28.636049" lon="105.076661"><ele>536.94104</ele><time>2026-07-22T02:18:57.000Z</time></trkpt>
        <trkpt lat="28.635959" lon="105.076614"><ele>539.38995</ele><time>2026-07-22T02:18:59.000Z</time></trkpt>
        <trkpt lat="28.635401" lon="105.076324"><ele>543.53754</ele><time>2026-07-22T02:19:01.000Z</time></trkpt>
        <trkpt lat="28.635364" lon="105.076312"><ele>547.9971</ele><time>2026-07-22T02:19:03.000Z</time></trkpt>
        <trkpt lat="28.635344" lon="105.076312"><ele>550.6947</ele><time>2026-07-22T02:19:05.000Z</time></trkpt>
        <trkpt lat="28.635266" lon="105.076317"><ele>552.3654</ele><time>2026-07-22T02:19:07.000Z</time></trkpt>
        <trkpt lat="28.63492" lon="105.076337"><ele>552.99805</ele><time>2026-07-22T02:19:09.000Z</time></trkpt>
        <trkpt lat="28.634896" lon="105.076336"><ele>553.66943</ele><time>2026-07-22T02:19:11.000Z</time></trkpt>
        <trkpt lat="28.634886" lon="105.076333"><ele>554.4582</ele><time>2026-07-22T02:19:13.000Z</time></trkpt>
        <trkpt lat="28.634839" lon="105.07631"><ele>554.5587</ele><time>2026-07-22T02:19:15.000Z</time></trkpt>
        <trkpt lat="28.634725" lon="105.076256"><ele>554.35706</ele><time>2026-07-22T02:19:17.000Z</time></trkpt>
        <trkpt lat="28.634386" lon="105.076015"><ele>554.49524</ele><time>2026-07-22T02:19:19.000Z</time></trkpt>
        <trkpt lat="28.634363" lon="105.075995"><ele>555.43396</ele><time>2026-07-22T02:19:21.000Z</time></trkpt>
        <trkpt lat="28.634349" lon="105.075978"><ele>555.54297</ele><time>2026-07-22T02:19:23.000Z</time></trkpt>
        <trkpt lat="28.634304" lon="105.075906"><ele>554.7161</ele><time>2026-07-22T02:19:25.000Z</time></trkpt>
        <trkpt lat="28.634227" lon="105.075781"><ele>553.2137</ele><time>2026-07-22T02:19:27.000Z</time></trkpt>
        <trkpt lat="28.634188" lon="105.075598"><ele>551.1131</ele><time>2026-07-22T02:19:29.000Z</time></trkpt>
        <trkpt lat="28.634147" lon="105.075401"><ele>549.4887</ele><time>2026-07-22T02:19:31.000Z</time></trkpt>
        <trkpt lat="28.634179" lon="105.075078"><ele>547.5132</ele><time>2026-07-22T02:19:33.000Z</time></trkpt>
        <trkpt lat="28.634182" lon="105.075055"><ele>544.7877</ele><time>2026-07-22T02:19:35.000Z</time></trkpt>
        <trkpt lat="28.634187" lon="105.07503"><ele>543.4379</ele><time>2026-07-22T02:19:37.000Z</time></trkpt>
        <trkpt lat="28.634196" lon="105.074926"><ele>544.04065</ele><time>2026-07-22T02:19:39.000Z</time></trkpt>
        <trkpt lat="28.634213" lon="105.074734"><ele>544.8331</ele><time>2026-07-22T02:19:41.000Z</time></trkpt>
        <trkpt lat="28.634121" lon="105.074321"><ele>545.38635</ele><time>2026-07-22T02:19:43.000Z</time></trkpt>
        <trkpt lat="28.634112" lon="105.074296"><ele>545.38806</ele><time>2026-07-22T02:19:45.000Z</time></trkpt>
        <trkpt lat="28.634105" lon="105.074277"><ele>545.559</ele><time>2026-07-22T02:19:47.000Z</time></trkpt>
        <trkpt lat="28.634077" lon="105.074193"><ele>545.21216</ele><time>2026-07-22T02:19:49.000Z</time></trkpt>
        <trkpt lat="28.634025" lon="105.074039"><ele>544.9561</ele><time>2026-07-22T02:19:51.000Z</time></trkpt>
        <trkpt lat="28.634065" lon="105.073858"><ele>544.5684</ele><time>2026-07-22T02:19:53.000Z</time></trkpt>
        <trkpt lat="28.634141" lon="105.073705"><ele>543.6756</ele><time>2026-07-22T02:19:55.000Z</time></trkpt>
        <trkpt lat="28.634206" lon="105.073549"><ele>542.7534</ele><time>2026-07-22T02:19:57.000Z</time></trkpt>
        <trkpt lat="28.634269" lon="105.0734"><ele>543.07416</ele><time>2026-07-22T02:19:59.000Z</time></trkpt>
        <trkpt lat="28.634273" lon="105.073246"><ele>545.31464</ele><time>2026-07-22T02:20:01.000Z</time></trkpt>
        <trkpt lat="28.63424" lon="105.073096"><ele>546.18176</ele><time>2026-07-22T02:20:03.000Z</time></trkpt>
        <trkpt lat="28.634215" lon="105.072944"><ele>546.2942</ele><time>2026-07-22T02:20:05.000Z</time></trkpt>
        <trkpt lat="28.634192" lon="105.072807"><ele>545.41174</ele><time>2026-07-22T02:20:07.000Z</time></trkpt>
        <trkpt lat="28.634231" lon="105.072683"><ele>544.2965</ele><time>2026-07-22T02:20:09.000Z</time></trkpt>
        <trkpt lat="28.634318" lon="105.072565"><ele>542.58545</ele><time>2026-07-22T02:20:11.000Z</time></trkpt>
        <trkpt lat="28.634417" lon="105.072434"><ele>541.13916</ele><time>2026-07-22T02:20:13.000Z</time></trkpt>
        <trkpt lat="28.634505" lon="105.072296"><ele>540.5067</ele><time>2026-07-22T02:20:15.000Z</time></trkpt>
        <trkpt lat="28.634581" lon="105.072175"><ele>541.10376</ele><time>2026-07-22T02:20:17.000Z</time></trkpt>
        <trkpt lat="28.634583" lon="105.072059"><ele>543.77094</ele><time>2026-07-22T02:20:19.000Z</time></trkpt>
        <trkpt lat="28.634507" lon="105.071979"><ele>546.51337</ele><time>2026-07-22T02:20:21.000Z</time></trkpt>
        <trkpt lat="28.634368" lon="105.07192"><ele>548.4984</ele><time>2026-07-22T02:20:23.000Z</time></trkpt>
        <trkpt lat="28.634" lon="105.071917"><ele>548.86395</ele><time>2026-07-22T02:20:25.000Z</time></trkpt>
        <trkpt lat="28.633982" lon="105.071914"><ele>547.99274</ele><time>2026-07-22T02:20:27.000Z</time></trkpt>
        <trkpt lat="28.633959" lon="105.071905"><ele>546.9232</ele><time>2026-07-22T02:20:29.000Z</time></trkpt>
        <trkpt lat="28.633871" lon="105.071864"><ele>546.2146</ele><time>2026-07-22T02:20:31.000Z</time></trkpt>
        <trkpt lat="28.633732" lon="105.071797"><ele>545.8555</ele><time>2026-07-22T02:20:33.000Z</time></trkpt>
        <trkpt lat="28.63361" lon="105.071738"><ele>545.2882</ele><time>2026-07-22T02:20:35.000Z</time></trkpt>
        <trkpt lat="28.633534" lon="105.071698"><ele>545.03564</ele><time>2026-07-22T02:20:37.000Z</time></trkpt>
        <trkpt lat="28.633497" lon="105.071677"><ele>545.2617</ele><time>2026-07-22T02:20:39.000Z</time></trkpt>
        <trkpt lat="28.633487" lon="105.071668"><ele>545.8456</ele><time>2026-07-22T02:20:41.000Z</time></trkpt>
        <trkpt lat="28.633494" lon="105.07167"><ele>545.16235</ele><time>2026-07-22T02:20:43.000Z</time></trkpt>
        <trkpt lat="28.633523" lon="105.071684"><ele>544.5471</ele><time>2026-07-22T02:20:47.000Z</time></trkpt>
        <trkpt lat="28.633536" lon="105.071694"><ele>544.4579</ele><time>2026-07-22T02:20:49.000Z</time></trkpt>
        <trkpt lat="28.633549" lon="105.0717"><ele>544.3818</ele><time>2026-07-22T02:20:51.000Z</time></trkpt>
        <trkpt lat="28.633556" lon="105.071698"><ele>544.35345</ele><time>2026-07-22T02:20:53.000Z</time></trkpt>
        <trkpt lat="28.633559" lon="105.071691"><ele>544.2249</ele><time>2026-07-22T02:20:55.000Z</time></trkpt>
        <trkpt lat="28.633569" lon="105.071676"><ele>543.6106</ele><time>2026-07-22T02:20:57.000Z</time></trkpt>
        <trkpt lat="28.633581" lon="105.071661"><ele>543.82886</ele><time>2026-07-22T02:20:59.000Z</time></trkpt>
        <trkpt lat="28.63359" lon="105.071653"><ele>544.7882</ele><time>2026-07-22T02:21:01.000Z</time></trkpt>
        <trkpt lat="28.633599" lon="105.071645"><ele>545.0815</ele><time>2026-07-22T02:21:03.000Z</time></trkpt>
        <trkpt lat="28.633609" lon="105.071639"><ele>544.9826</ele><time>2026-07-22T02:21:05.000Z</time></trkpt>
        <trkpt lat="28.633622" lon="105.071631"><ele>544.0998</ele><time>2026-07-22T02:21:07.000Z</time></trkpt>
        <trkpt lat="28.633631" lon="105.071625"><ele>543.81226</ele><time>2026-07-22T02:21:09.000Z</time></trkpt>
        <trkpt lat="28.633639" lon="105.071622"><ele>543.85175</ele><time>2026-07-22T02:21:11.000Z</time></trkpt>
        <trkpt lat="28.63365" lon="105.071622"><ele>544.13354</ele><time>2026-07-22T02:21:15.000Z</time></trkpt>
        <trkpt lat="28.633655" lon="105.071622"><ele>544.22754</ele><time>2026-07-22T02:21:17.000Z</time></trkpt>
        <trkpt lat="28.633673" lon="105.071622"><ele>544.92615</ele><time>2026-07-22T02:21:19.000Z</time></trkpt>
        <trkpt lat="28.633682" lon="105.071622"><ele>546.31757</ele><time>2026-07-22T02:21:25.000Z</time></trkpt>
        <trkpt lat="28.633691" lon="105.071622"><ele>546.1295</ele><time>2026-07-22T02:21:27.000Z</time></trkpt>
        <trkpt lat="28.633701" lon="105.071618"><ele>545.9679</ele><time>2026-07-22T02:21:29.000Z</time></trkpt>
        <trkpt lat="28.63371" lon="105.071612"><ele>546.04736</ele><time>2026-07-22T02:21:31.000Z</time></trkpt>
        <trkpt lat="28.633721" lon="105.071602"><ele>546.2367</ele><time>2026-07-22T02:21:33.000Z</time></trkpt>
        <trkpt lat="28.633733" lon="105.071592"><ele>546.51404</ele><time>2026-07-22T02:21:35.000Z</time></trkpt>
        <trkpt lat="28.633746" lon="105.071583"><ele>546.9542</ele><time>2026-07-22T02:21:37.000Z</time></trkpt>
        <trkpt lat="28.633758" lon="105.071573"><ele>546.5234</ele><time>2026-07-22T02:21:39.000Z</time></trkpt>
        <trkpt lat="28.63377" lon="105.071566"><ele>545.86926</ele><time>2026-07-22T02:21:41.000Z</time></trkpt>
        <trkpt lat="28.633783" lon="105.071558"><ele>545.9536</ele><time>2026-07-22T02:21:43.000Z</time></trkpt>
        <trkpt lat="28.633798" lon="105.071552"><ele>545.87146</ele><time>2026-07-22T02:21:45.000Z</time></trkpt>
        <trkpt lat="28.633812" lon="105.071547"><ele>546.51294</ele><time>2026-07-22T02:21:47.000Z</time></trkpt>
        <trkpt lat="28.633828" lon="105.071543"><ele>546.68353</ele><time>2026-07-22T02:21:49.000Z</time></trkpt>
        <trkpt lat="28.633843" lon="105.071542"><ele>546.5555</ele><time>2026-07-22T02:21:51.000Z</time></trkpt>
        <trkpt lat="28.633859" lon="105.071542"><ele>545.7701</ele><time>2026-07-22T02:21:53.000Z</time></trkpt>
        <trkpt lat="28.633874" lon="105.071541"><ele>546.3198</ele><time>2026-07-22T02:21:55.000Z</time></trkpt>
        <trkpt lat="28.63389" lon="105.07154"><ele>546.64465</ele><time>2026-07-22T02:21:57.000Z</time></trkpt>
        <trkpt lat="28.633906" lon="105.071538"><ele>547.12305</ele><time>2026-07-22T02:21:59.000Z</time></trkpt>
        <trkpt lat="28.633919" lon="105.071537"><ele>546.9074</ele><time>2026-07-22T02:22:01.000Z</time></trkpt>
        <trkpt lat="28.633933" lon="105.071535"><ele>546.8297</ele><time>2026-07-22T02:22:03.000Z</time></trkpt>
        <trkpt lat="28.633948" lon="105.071535"><ele>547.0277</ele><time>2026-07-22T02:22:05.000Z</time></trkpt>
        <trkpt lat="28.633963" lon="105.071537"><ele>546.79175</ele><time>2026-07-22T02:22:07.000Z</time></trkpt>
        <trkpt lat="28.633977" lon="105.07154"><ele>546.80444</ele><time>2026-07-22T02:22:09.000Z</time></trkpt>
        <trkpt lat="28.633995" lon="105.071544"><ele>546.8202</ele><time>2026-07-22T02:22:11.000Z</time></trkpt>
        <trkpt lat="28.634009" lon="105.071548"><ele>547.92316</ele><time>2026-07-22T02:22:13.000Z</time></trkpt>
        <trkpt lat="28.634017" lon="105.07155"><ele>548.1095</ele><time>2026-07-22T02:22:15.000Z</time></trkpt>
        <trkpt lat="28.634029" lon="105.071553"><ele>548.55164</ele><time>2026-07-22T02:22:19.000Z</time></trkpt>
        <trkpt lat="28.634029" lon="105.071553"><ele>548.2476</ele><time>2026-07-22T02:22:21.000Z</time></trkpt>
        <trkpt lat="28.634038" lon="105.071556"><ele>547.37317</ele><time>2026-07-22T02:22:29.000Z</time></trkpt>
        <trkpt lat="28.634062" lon="105.071565"><ele>547.2699</ele><time>2026-07-22T02:22:31.000Z</time></trkpt>
        <trkpt lat="28.634079" lon="105.071571"><ele>547.73694</ele><time>2026-07-22T02:22:33.000Z</time></trkpt>
        <trkpt lat="28.63408" lon="105.071571"><ele>547.75244</ele><time>2026-07-22T02:22:35.000Z</time></trkpt>
        <trkpt lat="28.634095" lon="105.071573"><ele>548.12646</ele><time>2026-07-22T02:22:39.000Z</time></trkpt>
        <trkpt lat="28.634115" lon="105.071578"><ele>548.3201</ele><time>2026-07-22T02:22:41.000Z</time></trkpt>
        <trkpt lat="28.634137" lon="105.071584"><ele>548.587</ele><time>2026-07-22T02:22:43.000Z</time></trkpt>
        <trkpt lat="28.634158" lon="105.07159"><ele>548.7587</ele><time>2026-07-22T02:22:45.000Z</time></trkpt>
        <trkpt lat="28.634179" lon="105.071596"><ele>549.31396</ele><time>2026-07-22T02:22:47.000Z</time></trkpt>
        <trkpt lat="28.634197" lon="105.071602"><ele>549.1354</ele><time>2026-07-22T02:22:49.000Z</time></trkpt>
        <trkpt lat="28.634211" lon="105.071607"><ele>549.3758</ele><time>2026-07-22T02:22:51.000Z</time></trkpt>
        <trkpt lat="28.634222" lon="105.071609"><ele>550.5677</ele><time>2026-07-22T02:22:53.000Z</time></trkpt>
        <trkpt lat="28.634231" lon="105.071611"><ele>550.5507</ele><time>2026-07-22T02:22:55.000Z</time></trkpt>
        <trkpt lat="28.634244" lon="105.071612"><ele>550.9149</ele><time>2026-07-22T02:22:57.000Z</time></trkpt>
        <trkpt lat="28.634259" lon="105.071612"><ele>551.4885</ele><time>2026-07-22T02:22:59.000Z</time></trkpt>
        <trkpt lat="28.634273" lon="105.071611"><ele>551.7721</ele><time>2026-07-22T02:23:01.000Z</time></trkpt>
        <trkpt lat="28.634288" lon="105.071609"><ele>551.98376</ele><time>2026-07-22T02:23:03.000Z</time></trkpt>
        <trkpt lat="28.634302" lon="105.071608"><ele>552.4346</ele><time>2026-07-22T02:23:05.000Z</time></trkpt>
        <trkpt lat="28.634319" lon="105.071609"><ele>552.5576</ele><time>2026-07-22T02:23:07.000Z</time></trkpt>
        <trkpt lat="28.634333" lon="105.071612"><ele>553.6616</ele><time>2026-07-22T02:23:09.000Z</time></trkpt>
        <trkpt lat="28.634345" lon="105.071615"><ele>554.5332</ele><time>2026-07-22T02:23:11.000Z</time></trkpt>
        <trkpt lat="28.634358" lon="105.071618"><ele>555.2262</ele><time>2026-07-22T02:23:13.000Z</time></trkpt>
        <trkpt lat="28.634372" lon="105.071621"><ele>556.05164</ele><time>2026-07-22T02:23:15.000Z</time></trkpt>
        <trkpt lat="28.634387" lon="105.071623"><ele>556.22266</ele><time>2026-07-22T02:23:17.000Z</time></trkpt>
        <trkpt lat="28.634398" lon="105.071626"><ele>556.56586</ele><time>2026-07-22T02:23:19.000Z</time></trkpt>
        <trkpt lat="28.634408" lon="105.071626"><ele>556.5275</ele><time>2026-07-22T02:23:21.000Z</time></trkpt>
        <trkpt lat="28.634414" lon="105.071621"><ele>556.6759</ele><time>2026-07-22T02:23:23.000Z</time></trkpt>
        <trkpt lat="28.634435" lon="105.071608"><ele>557.09607</ele><time>2026-07-22T02:23:27.000Z</time></trkpt>
        <trkpt lat="28.634435" lon="105.071608"><ele>557.27484</ele><time>2026-07-22T02:23:29.000Z</time></trkpt>
        <trkpt lat="28.634437" lon="105.071605"><ele>558.0158</ele><time>2026-07-22T02:23:31.000Z</time></trkpt>
        <trkpt lat="28.634463" lon="105.071584"><ele>558.4499</ele><time>2026-07-22T02:23:35.000Z</time></trkpt>
        <trkpt lat="28.634484" lon="105.07157"><ele>558.6094</ele><time>2026-07-22T02:23:37.000Z</time></trkpt>
        <trkpt lat="28.634511" lon="105.071555"><ele>558.79346</ele><time>2026-07-22T02:23:39.000Z</time></trkpt>
        <trkpt lat="28.634538" lon="105.071543"><ele>558.771</ele><time>2026-07-22T02:23:41.000Z</time></trkpt>
        <trkpt lat="28.634564" lon="105.071535"><ele>559.4278</ele><time>2026-07-22T02:23:43.000Z</time></trkpt>
        <trkpt lat="28.634592" lon="105.071529"><ele>560.34937</ele><time>2026-07-22T02:23:45.000Z</time></trkpt>
        <trkpt lat="28.634619" lon="105.071525"><ele>560.06805</ele><time>2026-07-22T02:23:47.000Z</time></trkpt>
        <trkpt lat="28.634643" lon="105.071522"><ele>560.6944</ele><time>2026-07-22T02:23:49.000Z</time></trkpt>
        <trkpt lat="28.634665" lon="105.071522"><ele>561.2028</ele><time>2026-07-22T02:23:51.000Z</time></trkpt>
        <trkpt lat="28.634687" lon="105.071523"><ele>560.5527</ele><time>2026-07-22T02:23:53.000Z</time></trkpt>
        <trkpt lat="28.634709" lon="105.071525"><ele>561.05237</ele><time>2026-07-22T02:23:55.000Z</time></trkpt>
        <trkpt lat="28.634731" lon="105.071531"><ele>561.19775</ele><time>2026-07-22T02:23:57.000Z</time></trkpt>
        <trkpt lat="28.634755" lon="105.071541"><ele>562.7503</ele><time>2026-07-22T02:23:59.000Z</time></trkpt>
        <trkpt lat="28.634776" lon="105.071551"><ele>562.18195</ele><time>2026-07-22T02:24:01.000Z</time></trkpt>
        <trkpt lat="28.634795" lon="105.07156"><ele>562.7655</ele><time>2026-07-22T02:24:03.000Z</time></trkpt>
        <trkpt lat="28.634815" lon="105.071566"><ele>563.20575</ele><time>2026-07-22T02:24:05.000Z</time></trkpt>
        <trkpt lat="28.634837" lon="105.071568"><ele>563.56714</ele><time>2026-07-22T02:24:07.000Z</time></trkpt>
        <trkpt lat="28.634861" lon="105.071569"><ele>564.2284</ele><time>2026-07-22T02:24:09.000Z</time></trkpt>
        <trkpt lat="28.634881" lon="105.071566"><ele>563.8425</ele><time>2026-07-22T02:24:11.000Z</time></trkpt>
        <trkpt lat="28.634902" lon="105.07156"><ele>564.52936</ele><time>2026-07-22T02:24:13.000Z</time></trkpt>
        <trkpt lat="28.634924" lon="105.071553"><ele>564.2226</ele><time>2026-07-22T02:24:15.000Z</time></trkpt>
        <trkpt lat="28.634943" lon="105.071544"><ele>564.6883</ele><time>2026-07-22T02:24:17.000Z</time></trkpt>
        <trkpt lat="28.63496" lon="105.071534"><ele>564.9972</ele><time>2026-07-22T02:24:19.000Z</time></trkpt>
        <trkpt lat="28.634978" lon="105.071523"><ele>564.42755</ele><time>2026-07-22T02:24:21.000Z</time></trkpt>
        <trkpt lat="28.634999" lon="105.071509"><ele>564.7656</ele><time>2026-07-22T02:24:23.000Z</time></trkpt>
        <trkpt lat="28.635021" lon="105.071495"><ele>565.3903</ele><time>2026-07-22T02:24:25.000Z</time></trkpt>
        <trkpt lat="28.635036" lon="105.071483"><ele>565.7278</ele><time>2026-07-22T02:24:27.000Z</time></trkpt>
        <trkpt lat="28.635051" lon="105.07147"><ele>565.3884</ele><time>2026-07-22T02:24:29.000Z</time></trkpt>
        <trkpt lat="28.635068" lon="105.071455"><ele>565.47205</ele><time>2026-07-22T02:24:31.000Z</time></trkpt>
        <trkpt lat="28.635082" lon="105.071441"><ele>565.8467</ele><time>2026-07-22T02:24:33.000Z</time></trkpt>
        <trkpt lat="28.635095" lon="105.071428"><ele>565.4902</ele><time>2026-07-22T02:24:35.000Z</time></trkpt>
        <trkpt lat="28.635108" lon="105.071415"><ele>565.3549</ele><time>2026-07-22T02:24:37.000Z</time></trkpt>
        <trkpt lat="28.635123" lon="105.0714"><ele>565.7176</ele><time>2026-07-22T02:24:38.000Z</time></trkpt>
        <trkpt lat="28.635137" lon="105.071388"><ele>565.7209</ele><time>2026-07-22T02:24:40.000Z</time></trkpt>
        <trkpt lat="28.635149" lon="105.071376"><ele>565.82544</ele><time>2026-07-22T02:24:42.000Z</time></trkpt>
        <trkpt lat="28.635163" lon="105.071361"><ele>565.6279</ele><time>2026-07-22T02:24:44.000Z</time></trkpt>
        <trkpt lat="28.635177" lon="105.071343"><ele>564.72064</ele><time>2026-07-22T02:24:46.000Z</time></trkpt>
        <trkpt lat="28.635187" lon="105.071321"><ele>565.13324</ele><time>2026-07-22T02:24:48.000Z</time></trkpt>
        <trkpt lat="28.63519" lon="105.071298"><ele>564.9634</ele><time>2026-07-22T02:24:50.000Z</time></trkpt>
        <trkpt lat="28.635188" lon="105.071275"><ele>565.07434</ele><time>2026-07-22T02:24:52.000Z</time></trkpt>
        <trkpt lat="28.635182" lon="105.071251"><ele>564.1029</ele><time>2026-07-22T02:24:54.000Z</time></trkpt>
        <trkpt lat="28.635171" lon="105.071227"><ele>564.8122</ele><time>2026-07-22T02:24:57.000Z</time></trkpt>
        <trkpt lat="28.635159" lon="105.071203"><ele>565.3378</ele><time>2026-07-22T02:24:59.000Z</time></trkpt>
        <trkpt lat="28.635148" lon="105.071184"><ele>565.20966</ele><time>2026-07-22T02:25:01.000Z</time></trkpt>
        <trkpt lat="28.635134" lon="105.071166"><ele>565.1897</ele><time>2026-07-22T02:25:03.000Z</time></trkpt>
        <trkpt lat="28.63512" lon="105.071155"><ele>565.4589</ele><time>2026-07-22T02:25:05.000Z</time></trkpt>
        <trkpt lat="28.635105" lon="105.071143"><ele>566.24854</ele><time>2026-07-22T02:25:07.000Z</time></trkpt>
        <trkpt lat="28.635095" lon="105.071134"><ele>564.46204</ele><time>2026-07-22T02:25:09.000Z</time></trkpt>
        <trkpt lat="28.635085" lon="105.071125"><ele>564.12427</ele><time>2026-07-22T02:25:11.000Z</time></trkpt>
        <trkpt lat="28.635077" lon="105.071119"><ele>565.1206</ele><time>2026-07-22T02:25:13.000Z</time></trkpt>
        <trkpt lat="28.635068" lon="105.071113"><ele>565.64233</ele><time>2026-07-22T02:25:15.000Z</time></trkpt>
        <trkpt lat="28.635058" lon="105.071107"><ele>566.17255</ele><time>2026-07-22T02:25:17.000Z</time></trkpt>
        <trkpt lat="28.635048" lon="105.0711"><ele>566.67285</ele><time>2026-07-22T02:25:19.000Z</time></trkpt>
        <trkpt lat="28.635038" lon="105.071093"><ele>566.745</ele><time>2026-07-22T02:25:21.000Z</time></trkpt>
        <trkpt lat="28.635027" lon="105.071085"><ele>566.9271</ele><time>2026-07-22T02:25:23.000Z</time></trkpt>
        <trkpt lat="28.635017" lon="105.071078"><ele>567.12506</ele><time>2026-07-22T02:25:25.000Z</time></trkpt>
        <trkpt lat="28.635006" lon="105.071071"><ele>567.1575</ele><time>2026-07-22T02:25:27.000Z</time></trkpt>
        <trkpt lat="28.634993" lon="105.071064"><ele>566.9066</ele><time>2026-07-22T02:25:29.000Z</time></trkpt>
        <trkpt lat="28.634979" lon="105.071057"><ele>567.21643</ele><time>2026-07-22T02:25:31.000Z</time></trkpt>
        <trkpt lat="28.634965" lon="105.071051"><ele>567.858</ele><time>2026-07-22T02:25:33.000Z</time></trkpt>
        <trkpt lat="28.634952" lon="105.071043"><ele>567.73895</ele><time>2026-07-22T02:25:35.000Z</time></trkpt>
        <trkpt lat="28.634936" lon="105.071029"><ele>568.22205</ele><time>2026-07-22T02:25:37.000Z</time></trkpt>
        <trkpt lat="28.634929" lon="105.07102"><ele>567.2764</ele><time>2026-07-22T02:25:39.000Z</time></trkpt>
        <trkpt lat="28.634927" lon="105.071019"><ele>567.314</ele><time>2026-07-22T02:25:41.000Z</time></trkpt>
        <trkpt lat="28.634907" lon="105.071005"><ele>566.0068</ele><time>2026-07-22T02:26:03.000Z</time></trkpt>
        <trkpt lat="28.634878" lon="105.070986"><ele>565.60156</ele><time>2026-07-22T02:26:07.000Z</time></trkpt>
        <trkpt lat="28.6349" lon="105.070961"><ele>564.46423</ele><time>2026-07-22T02:26:09.000Z</time></trkpt>
        <trkpt lat="28.634901" lon="105.070961"><ele>564.1937</ele><time>2026-07-22T02:26:11.000Z</time></trkpt>
        <trkpt lat="28.634923" lon="105.070962"><ele>565.4816</ele><time>2026-07-22T02:26:37.000Z</time></trkpt>
        <trkpt lat="28.634947" lon="105.070961"><ele>566.2556</ele><time>2026-07-22T02:26:39.000Z</time></trkpt>
        <trkpt lat="28.634948" lon="105.070961"><ele>566.3829</ele><time>2026-07-22T02:26:41.000Z</time></trkpt>
        <trkpt lat="28.634968" lon="105.070951"><ele>567.969</ele><time>2026-07-22T02:26:46.000Z</time></trkpt>
        <trkpt lat="28.63498" lon="105.070944"><ele>568.59125</ele><time>2026-07-22T02:26:48.000Z</time></trkpt>
        <trkpt lat="28.634993" lon="105.070936"><ele>569.2128</ele><time>2026-07-22T02:26:50.000Z</time></trkpt>
        <trkpt lat="28.635004" lon="105.070929"><ele>569.7532</ele><time>2026-07-22T02:26:52.000Z</time></trkpt>
        <trkpt lat="28.635013" lon="105.070923"><ele>570.04016</ele><time>2026-07-22T02:26:54.000Z</time></trkpt>
        <trkpt lat="28.635015" lon="105.070916"><ele>570.12476</ele><time>2026-07-22T02:26:58.000Z</time></trkpt>
        <trkpt lat="28.635021" lon="105.070903"><ele>570.23145</ele><time>2026-07-22T02:27:04.000Z</time></trkpt>
        <trkpt lat="28.635026" lon="105.07089"><ele>570.6123</ele><time>2026-07-22T02:27:08.000Z</time></trkpt>
        <trkpt lat="28.635029" lon="105.070884"><ele>570.8105</ele><time>2026-07-22T02:27:10.000Z</time></trkpt>
        <trkpt lat="28.635034" lon="105.070879"><ele>571.22644</ele><time>2026-07-22T02:27:12.000Z</time></trkpt>
        <trkpt lat="28.635057" lon="105.070859"><ele>572.3133</ele><time>2026-07-22T02:27:19.000Z</time></trkpt>
        <trkpt lat="28.635068" lon="105.07085"><ele>572.9825</ele><time>2026-07-22T02:27:21.000Z</time></trkpt>
        <trkpt lat="28.635069" lon="105.07085"><ele>573.33923</ele><time>2026-07-22T02:27:23.000Z</time></trkpt>
        <trkpt lat="28.635083" lon="105.070836"><ele>574.7353</ele><time>2026-07-22T02:27:29.000Z</time></trkpt>
        <trkpt lat="28.635093" lon="105.070827"><ele>574.8538</ele><time>2026-07-22T02:27:31.000Z</time></trkpt>
        <trkpt lat="28.635103" lon="105.070819"><ele>575.0217</ele><time>2026-07-22T02:27:33.000Z</time></trkpt>
        <trkpt lat="28.635112" lon="105.070809"><ele>575.0143</ele><time>2026-07-22T02:27:35.000Z</time></trkpt>
        <trkpt lat="28.635118" lon="105.070801"><ele>575.3238</ele><time>2026-07-22T02:27:38.000Z</time></trkpt>
        <trkpt lat="28.635122" lon="105.070793"><ele>574.842</ele><time>2026-07-22T02:27:40.000Z</time></trkpt>
        <trkpt lat="28.63513" lon="105.070779"><ele>575.5287</ele><time>2026-07-22T02:27:44.000Z</time></trkpt>
        <trkpt lat="28.635132" lon="105.070773"><ele>575.68066</ele><time>2026-07-22T02:27:46.000Z</time></trkpt>
        <trkpt lat="28.635135" lon="105.070762"><ele>575.9596</ele><time>2026-07-22T02:27:48.000Z</time></trkpt>
        <trkpt lat="28.635139" lon="105.070745"><ele>575.86914</ele><time>2026-07-22T02:27:50.000Z</time></trkpt>
        <trkpt lat="28.635143" lon="105.070732"><ele>575.8728</ele><time>2026-07-22T02:27:52.000Z</time></trkpt>
        <trkpt lat="28.635145" lon="105.070723"><ele>576.0579</ele><time>2026-07-22T02:27:54.000Z</time></trkpt>
        <trkpt lat="28.63515" lon="105.070712"><ele>577.04254</ele><time>2026-07-22T02:27:58.000Z</time></trkpt>
        <trkpt lat="28.635152" lon="105.070706"><ele>577.4034</ele><time>2026-07-22T02:28:00.000Z</time></trkpt>
        <trkpt lat="28.635156" lon="105.0707"><ele>578.16064</ele><time>2026-07-22T02:28:02.000Z</time></trkpt>
        <trkpt lat="28.63517" lon="105.070677"><ele>578.4964</ele><time>2026-07-22T02:28:06.000Z</time></trkpt>
        <trkpt lat="28.63517" lon="105.070677"><ele>578.5662</ele><time>2026-07-22T02:28:08.000Z</time></trkpt>
        <trkpt lat="28.635168" lon="105.070677"><ele>579.0045</ele><time>2026-07-22T02:28:12.000Z</time></trkpt>
        <trkpt lat="28.635157" lon="105.070663"><ele>579.0232</ele><time>2026-07-22T02:28:18.000Z</time></trkpt>
        <trkpt lat="28.635146" lon="105.070648"><ele>579.3594</ele><time>2026-07-22T02:28:20.000Z</time></trkpt>
        <trkpt lat="28.635146" lon="105.070647"><ele>579.1605</ele><time>2026-07-22T02:28:22.000Z</time></trkpt>
        <trkpt lat="28.635146" lon="105.070645"><ele>580.3053</ele><time>2026-07-22T02:28:24.000Z</time></trkpt>
        <trkpt lat="28.635153" lon="105.070615"><ele>581.1405</ele><time>2026-07-22T02:28:28.000Z</time></trkpt>
        <trkpt lat="28.635157" lon="105.070596"><ele>581.4131</ele><time>2026-07-22T02:28:30.000Z</time></trkpt>
        <trkpt lat="28.63516" lon="105.070577"><ele>582.2547</ele><time>2026-07-22T02:28:32.000Z</time></trkpt>
        <trkpt lat="28.63516" lon="105.070561"><ele>582.5106</ele><time>2026-07-22T02:28:34.000Z</time></trkpt>
        <trkpt lat="28.635159" lon="105.070545"><ele>583.00964</ele><time>2026-07-22T02:28:36.000Z</time></trkpt>
        <trkpt lat="28.635157" lon="105.070533"><ele>583.1657</ele><time>2026-07-22T02:28:38.000Z</time></trkpt>
        <trkpt lat="28.635155" lon="105.070522"><ele>583.7027</ele><time>2026-07-22T02:28:40.000Z</time></trkpt>
        <trkpt lat="28.635151" lon="105.070512"><ele>583.3797</ele><time>2026-07-22T02:28:42.000Z</time></trkpt>
        <trkpt lat="28.635146" lon="105.070502"><ele>583.72217</ele><time>2026-07-22T02:28:44.000Z</time></trkpt>
        <trkpt lat="28.635143" lon="105.070492"><ele>583.6914</ele><time>2026-07-22T02:28:46.000Z</time></trkpt>
        <trkpt lat="28.635142" lon="105.070484"><ele>584.3825</ele><time>2026-07-22T02:28:48.000Z</time></trkpt>
        <trkpt lat="28.63514" lon="105.070461"><ele>585.72595</ele><time>2026-07-22T02:28:51.000Z</time></trkpt>
        <trkpt lat="28.635141" lon="105.070445"><ele>585.0336</ele><time>2026-07-22T02:28:53.000Z</time></trkpt>
        <trkpt lat="28.635141" lon="105.070428"><ele>585.2941</ele><time>2026-07-22T02:28:55.000Z</time></trkpt>
        <trkpt lat="28.635142" lon="105.070412"><ele>586.0917</ele><time>2026-07-22T02:28:57.000Z</time></trkpt>
        <trkpt lat="28.635144" lon="105.070396"><ele>586.3888</ele><time>2026-07-22T02:28:59.000Z</time></trkpt>
        <trkpt lat="28.635145" lon="105.070381"><ele>588.2896</ele><time>2026-07-22T02:29:01.000Z</time></trkpt>
        <trkpt lat="28.635144" lon="105.070368"><ele>588.12115</ele><time>2026-07-22T02:29:03.000Z</time></trkpt>
        <trkpt lat="28.635144" lon="105.070349"><ele>588.73804</ele><time>2026-07-22T02:29:05.000Z</time></trkpt>
        <trkpt lat="28.635143" lon="105.070333"><ele>589.793</ele><time>2026-07-22T02:29:07.000Z</time></trkpt>
        <trkpt lat="28.635142" lon="105.070317"><ele>589.90796</ele><time>2026-07-22T02:29:09.000Z</time></trkpt>
        <trkpt lat="28.63514" lon="105.0703"><ele>590.1633</ele><time>2026-07-22T02:29:12.000Z</time></trkpt>
        <trkpt lat="28.63514" lon="105.070283"><ele>590.1689</ele><time>2026-07-22T02:29:14.000Z</time></trkpt>
        <trkpt lat="28.63514" lon="105.070266"><ele>590.48645</ele><time>2026-07-22T02:29:16.000Z</time></trkpt>
        <trkpt lat="28.635139" lon="105.070248"><ele>590.79596</ele><time>2026-07-22T02:29:18.000Z</time></trkpt>
        <trkpt lat="28.635137" lon="105.070229"><ele>591.6189</ele><time>2026-07-22T02:29:20.000Z</time></trkpt>
        <trkpt lat="28.635133" lon="105.07021"><ele>591.7669</ele><time>2026-07-22T02:29:22.000Z</time></trkpt>
        <trkpt lat="28.63513" lon="105.070193"><ele>591.3469</ele><time>2026-07-22T02:29:24.000Z</time></trkpt>
        <trkpt lat="28.635128" lon="105.070176"><ele>591.9256</ele><time>2026-07-22T02:29:26.000Z</time></trkpt>
        <trkpt lat="28.635126" lon="105.070164"><ele>591.0609</ele><time>2026-07-22T02:29:28.000Z</time></trkpt>
        <trkpt lat="28.635123" lon="105.070155"><ele>591.41925</ele><time>2026-07-22T02:29:30.000Z</time></trkpt>
        <trkpt lat="28.63512" lon="105.070147"><ele>592.1064</ele><time>2026-07-22T02:29:32.000Z</time></trkpt>
        <trkpt lat="28.63511" lon="105.070129"><ele>593.2286</ele><time>2026-07-22T02:29:36.000Z</time></trkpt>
        <trkpt lat="28.635107" lon="105.070121"><ele>593.51086</ele><time>2026-07-22T02:29:38.000Z</time></trkpt>
        <trkpt lat="28.635102" lon="105.070111"><ele>593.7622</ele><time>2026-07-22T02:29:40.000Z</time></trkpt>
        <trkpt lat="28.6351" lon="105.070101"><ele>594.54126</ele><time>2026-07-22T02:29:42.000Z</time></trkpt>
        <trkpt lat="28.635098" lon="105.070091"><ele>595.0366</ele><time>2026-07-22T02:29:44.000Z</time></trkpt>
        <trkpt lat="28.635096" lon="105.070077"><ele>594.8979</ele><time>2026-07-22T02:29:46.000Z</time></trkpt>
        <trkpt lat="28.635093" lon="105.070063"><ele>595.91095</ele><time>2026-07-22T02:29:48.000Z</time></trkpt>
        <trkpt lat="28.63509" lon="105.070049"><ele>595.8477</ele><time>2026-07-22T02:29:50.000Z</time></trkpt>
        <trkpt lat="28.635084" lon="105.070037"><ele>596.04095</ele><time>2026-07-22T02:29:52.000Z</time></trkpt>
        <trkpt lat="28.635077" lon="105.070027"><ele>596.5756</ele><time>2026-07-22T02:29:54.000Z</time></trkpt>
        <trkpt lat="28.635068" lon="105.070018"><ele>596.2984</ele><time>2026-07-22T02:29:56.000Z</time></trkpt>
        <trkpt lat="28.635058" lon="105.070009"><ele>596.4825</ele><time>2026-07-22T02:29:58.000Z</time></trkpt>
        <trkpt lat="28.63505" lon="105.070003"><ele>595.6776</ele><time>2026-07-22T02:30:00.000Z</time></trkpt>
        <trkpt lat="28.635042" lon="105.069997"><ele>595.56445</ele><time>2026-07-22T02:30:02.000Z</time></trkpt>
        <trkpt lat="28.635042" lon="105.069997"><ele>595.77106</ele><time>2026-07-22T02:30:06.000Z</time></trkpt>
        <trkpt lat="28.635062" lon="105.069962"><ele>595.0095</ele><time>2026-07-22T02:30:20.000Z</time></trkpt>
        <trkpt lat="28.635062" lon="105.069962"><ele>594.89923</ele><time>2026-07-22T02:30:22.000Z</time></trkpt>
        <trkpt lat="28.635063" lon="105.069959"><ele>594.82263</ele><time>2026-07-22T02:30:24.000Z</time></trkpt>
        <trkpt lat="28.635065" lon="105.06993"><ele>594.09033</ele><time>2026-07-22T02:30:28.000Z</time></trkpt>
        <trkpt lat="28.635065" lon="105.069917"><ele>594.5185</ele><time>2026-07-22T02:30:30.000Z</time></trkpt>
        <trkpt lat="28.635066" lon="105.0699"><ele>595.0078</ele><time>2026-07-22T02:30:32.000Z</time></trkpt>
        <trkpt lat="28.635067" lon="105.0699"><ele>594.2501</ele><time>2026-07-22T02:30:34.000Z</time></trkpt>
        <trkpt lat="28.635087" lon="105.069895"><ele>595.838</ele><time>2026-07-22T02:30:58.000Z</time></trkpt>
        <trkpt lat="28.635089" lon="105.069854"><ele>595.2723</ele><time>2026-07-22T02:31:02.000Z</time></trkpt>
        <trkpt lat="28.635091" lon="105.069829"><ele>595.5344</ele><time>2026-07-22T02:31:04.000Z</time></trkpt>
        <trkpt lat="28.635092" lon="105.069829"><ele>594.99005</ele><time>2026-07-22T02:31:06.000Z</time></trkpt>
        <trkpt lat="28.635093" lon="105.069813"><ele>593.7269</ele><time>2026-07-22T02:31:16.000Z</time></trkpt>
        <trkpt lat="28.635096" lon="105.069776"><ele>587.9366</ele><time>2026-07-22T02:31:30.000Z</time></trkpt>
        <trkpt lat="28.635096" lon="105.069776"><ele>588.8487</ele><time>2026-07-22T02:31:32.000Z</time></trkpt>
        <trkpt lat="28.635096" lon="105.069775"><ele>588.23254</ele><time>2026-07-22T02:31:34.000Z</time></trkpt>
        <trkpt lat="28.635106" lon="105.069747"><ele>591.44116</ele><time>2026-07-22T02:31:58.000Z</time></trkpt>
        <trkpt lat="28.635108" lon="105.069741"><ele>591.3258</ele><time>2026-07-22T02:32:00.000Z</time></trkpt>
        <trkpt lat="28.63511" lon="105.069736"><ele>590.78687</ele><time>2026-07-22T02:32:02.000Z</time></trkpt>
        <trkpt lat="28.635116" lon="105.069718"><ele>590.87427</ele><time>2026-07-22T02:32:18.000Z</time></trkpt>
        <trkpt lat="28.635126" lon="105.069687"><ele>590.054</ele><time>2026-07-22T02:32:20.000Z</time></trkpt>
        <trkpt lat="28.635127" lon="105.069685"><ele>589.2226</ele><time>2026-07-22T02:32:22.000Z</time></trkpt>
        <trkpt lat="28.635129" lon="105.06968"><ele>588.6467</ele><time>2026-07-22T02:32:24.000Z</time></trkpt>
        <trkpt lat="28.635139" lon="105.06966"><ele>588.3167</ele><time>2026-07-22T02:32:26.000Z</time></trkpt>
        <trkpt lat="28.635156" lon="105.069623"><ele>588.0872</ele><time>2026-07-22T02:32:28.000Z</time></trkpt>
        <trkpt lat="28.635174" lon="105.06958"><ele>587.78284</ele><time>2026-07-22T02:32:30.000Z</time></trkpt>
        <trkpt lat="28.635188" lon="105.069547"><ele>587.72955</ele><time>2026-07-22T02:32:32.000Z</time></trkpt>
        <trkpt lat="28.635197" lon="105.069521"><ele>587.3551</ele><time>2026-07-22T02:32:34.000Z</time></trkpt>
        <trkpt lat="28.635205" lon="105.0695"><ele>587.22095</ele><time>2026-07-22T02:32:36.000Z</time></trkpt>
        <trkpt lat="28.635212" lon="105.069484"><ele>586.88806</ele><time>2026-07-22T02:32:38.000Z</time></trkpt>
        <trkpt lat="28.635219" lon="105.069465"><ele>586.7334</ele><time>2026-07-22T02:32:40.000Z</time></trkpt>
        <trkpt lat="28.635228" lon="105.069443"><ele>586.9307</ele><time>2026-07-22T02:32:42.000Z</time></trkpt>
        <trkpt lat="28.635238" lon="105.069418"><ele>586.5891</ele><time>2026-07-22T02:32:44.000Z</time></trkpt>
        <trkpt lat="28.635248" lon="105.069397"><ele>584.90137</ele><time>2026-07-22T02:32:46.000Z</time></trkpt>
        <trkpt lat="28.635262" lon="105.06937"><ele>584.08154</ele><time>2026-07-22T02:32:48.000Z</time></trkpt>
        <trkpt lat="28.635271" lon="105.069347"><ele>582.02515</ele><time>2026-07-22T02:32:50.000Z</time></trkpt>
        <trkpt lat="28.635277" lon="105.069327"><ele>580.77106</ele><time>2026-07-22T02:32:52.000Z</time></trkpt>
        <trkpt lat="28.635282" lon="105.069304"><ele>580.7978</ele><time>2026-07-22T02:32:54.000Z</time></trkpt>
        <trkpt lat="28.635283" lon="105.06928"><ele>580.9432</ele><time>2026-07-22T02:32:56.000Z</time></trkpt>
        <trkpt lat="28.635285" lon="105.069254"><ele>580.48914</ele><time>2026-07-22T02:32:58.000Z</time></trkpt>
        <trkpt lat="28.635287" lon="105.069231"><ele>579.9784</ele><time>2026-07-22T02:33:00.000Z</time></trkpt>
        <trkpt lat="28.635288" lon="105.06921"><ele>579.2992</ele><time>2026-07-22T02:33:01.000Z</time></trkpt>
        <trkpt lat="28.635292" lon="105.069187"><ele>579.55756</ele><time>2026-07-22T02:33:03.000Z</time></trkpt>
        <trkpt lat="28.635296" lon="105.069155"><ele>578.9003</ele><time>2026-07-22T02:33:05.000Z</time></trkpt>
        <trkpt lat="28.635305" lon="105.069118"><ele>578.61914</ele><time>2026-07-22T02:33:07.000Z</time></trkpt>
        <trkpt lat="28.635308" lon="105.069113"><ele>576.1454</ele><time>2026-07-22T02:33:09.000Z</time></trkpt>
        <trkpt lat="28.635312" lon="105.069104"><ele>576.22296</ele><time>2026-07-22T02:33:11.000Z</time></trkpt>
        <trkpt lat="28.635317" lon="105.069086"><ele>576.2497</ele><time>2026-07-22T02:33:13.000Z</time></trkpt>
        <trkpt lat="28.635322" lon="105.06906"><ele>577.03827</ele><time>2026-07-22T02:33:15.000Z</time></trkpt>
        <trkpt lat="28.635326" lon="105.069031"><ele>576.9183</ele><time>2026-07-22T02:33:17.000Z</time></trkpt>
        <trkpt lat="28.63533" lon="105.069003"><ele>577.257</ele><time>2026-07-22T02:33:19.000Z</time></trkpt>
        <trkpt lat="28.635336" lon="105.068985"><ele>578.4062</ele><time>2026-07-22T02:33:21.000Z</time></trkpt>
        <trkpt lat="28.635341" lon="105.068975"><ele>578.7016</ele><time>2026-07-22T02:33:23.000Z</time></trkpt>
        <trkpt lat="28.635343" lon="105.068971"><ele>579.42676</ele><time>2026-07-22T02:33:25.000Z</time></trkpt>
        <trkpt lat="28.635354" lon="105.068939"><ele>583.7187</ele><time>2026-07-22T02:34:00.000Z</time></trkpt>
        <trkpt lat="28.635356" lon="105.068918"><ele>582.671</ele><time>2026-07-22T02:34:02.000Z</time></trkpt>
        <trkpt lat="28.635359" lon="105.06889"><ele>582.47186</ele><time>2026-07-22T02:34:04.000Z</time></trkpt>
        <trkpt lat="28.635359" lon="105.068888"><ele>582.44354</ele><time>2026-07-22T02:34:06.000Z</time></trkpt>
        <trkpt lat="28.635359" lon="105.068886"><ele>582.73895</ele><time>2026-07-22T02:34:08.000Z</time></trkpt>
        <trkpt lat="28.635362" lon="105.06884"><ele>587.40656</ele><time>2026-07-22T02:34:12.000Z</time></trkpt>
        <trkpt lat="28.635365" lon="105.068811"><ele>585.3714</ele><time>2026-07-22T02:34:14.000Z</time></trkpt>
        <trkpt lat="28.635367" lon="105.068779"><ele>587.43726</ele><time>2026-07-22T02:34:16.000Z</time></trkpt>
        <trkpt lat="28.635367" lon="105.068749"><ele>587.0521</ele><time>2026-07-22T02:34:18.000Z</time></trkpt>
        <trkpt lat="28.635364" lon="105.068721"><ele>585.56006</ele><time>2026-07-22T02:34:20.000Z</time></trkpt>
        <trkpt lat="28.635362" lon="105.068695"><ele>586.9908</ele><time>2026-07-22T02:34:22.000Z</time></trkpt>
        <trkpt lat="28.635359" lon="105.068675"><ele>589.09283</ele><time>2026-07-22T02:34:24.000Z</time></trkpt>
        <trkpt lat="28.635359" lon="105.068648"><ele>589.7776</ele><time>2026-07-22T02:34:26.000Z</time></trkpt>
        <trkpt lat="28.635363" lon="105.068616"><ele>591.253</ele><time>2026-07-22T02:34:28.000Z</time></trkpt>
        <trkpt lat="28.635366" lon="105.068578"><ele>590.3302</ele><time>2026-07-22T02:34:30.000Z</time></trkpt>
        <trkpt lat="28.635363" lon="105.068544"><ele>588.8829</ele><time>2026-07-22T02:34:32.000Z</time></trkpt>
        <trkpt lat="28.635359" lon="105.068516"><ele>587.5419</ele><time>2026-07-22T02:34:34.000Z</time></trkpt>
        <trkpt lat="28.635354" lon="105.068495"><ele>585.7148</ele><time>2026-07-22T02:34:36.000Z</time></trkpt>
        <trkpt lat="28.63535" lon="105.068477"><ele>586.38104</ele><time>2026-07-22T02:34:38.000Z</time></trkpt>
        <trkpt lat="28.635346" lon="105.068462"><ele>583.491</ele><time>2026-07-22T02:34:40.000Z</time></trkpt>
        <trkpt lat="28.635345" lon="105.068453"><ele>582.5484</ele><time>2026-07-22T02:34:42.000Z</time></trkpt>
        <trkpt lat="28.635343" lon="105.068446"><ele>583.1207</ele><time>2026-07-22T02:34:44.000Z</time></trkpt>
        <trkpt lat="28.635338" lon="105.068424"><ele>584.20013</ele><time>2026-07-22T02:34:48.000Z</time></trkpt>
        <trkpt lat="28.635338" lon="105.068424"><ele>585.4529</ele><time>2026-07-22T02:34:50.000Z</time></trkpt>
        <trkpt lat="28.635339" lon="105.068406"><ele>586.33966</ele><time>2026-07-22T02:34:52.000Z</time></trkpt>
        <trkpt lat="28.635342" lon="105.068389"><ele>587.34955</ele><time>2026-07-22T02:35:00.000Z</time></trkpt>
        <trkpt lat="28.635351" lon="105.06834"><ele>590.2057</ele><time>2026-07-22T02:35:02.000Z</time></trkpt>
        <trkpt lat="28.635352" lon="105.068336"><ele>589.79944</ele><time>2026-07-22T02:35:04.000Z</time></trkpt>
        <trkpt lat="28.635352" lon="105.068334"><ele>589.19977</ele><time>2026-07-22T02:35:06.000Z</time></trkpt>
        <trkpt lat="28.635354" lon="105.068307"><ele>588.0834</ele><time>2026-07-22T02:35:09.000Z</time></trkpt>
        <trkpt lat="28.635357" lon="105.068282"><ele>589.2862</ele><time>2026-07-22T02:35:11.000Z</time></trkpt>
        <trkpt lat="28.635357" lon="105.068259"><ele>586.97833</ele><time>2026-07-22T02:35:13.000Z</time></trkpt>
        <trkpt lat="28.635356" lon="105.068237"><ele>587.6751</ele><time>2026-07-22T02:35:15.000Z</time></trkpt>
        <trkpt lat="28.635351" lon="105.068217"><ele>588.07086</ele><time>2026-07-22T02:35:17.000Z</time></trkpt>
        <trkpt lat="28.635341" lon="105.068194"><ele>589.3645</ele><time>2026-07-22T02:35:19.000Z</time></trkpt>
        <trkpt lat="28.635329" lon="105.068167"><ele>589.5405</ele><time>2026-07-22T02:35:21.000Z</time></trkpt>
        <trkpt lat="28.635317" lon="105.068144"><ele>589.6309</ele><time>2026-07-22T02:35:23.000Z</time></trkpt>
        <trkpt lat="28.635305" lon="105.068121"><ele>591.21735</ele><time>2026-07-22T02:35:25.000Z</time></trkpt>
        <trkpt lat="28.635294" lon="105.068096"><ele>592.4597</ele><time>2026-07-22T02:35:28.000Z</time></trkpt>
        <trkpt lat="28.63528" lon="105.068063"><ele>595.78436</ele><time>2026-07-22T02:35:30.000Z</time></trkpt>
        <trkpt lat="28.635267" lon="105.068031"><ele>597.09454</ele><time>2026-07-22T02:35:32.000Z</time></trkpt>
        <trkpt lat="28.635258" lon="105.068009"><ele>597.1137</ele><time>2026-07-22T02:35:34.000Z</time></trkpt>
        <trkpt lat="28.635248" lon="105.067986"><ele>594.50604</ele><time>2026-07-22T02:35:36.000Z</time></trkpt>
        <trkpt lat="28.635237" lon="105.067962"><ele>593.1367</ele><time>2026-07-22T02:35:38.000Z</time></trkpt>
        <trkpt lat="28.635228" lon="105.067939"><ele>592.5414</ele><time>2026-07-22T02:35:40.000Z</time></trkpt>
        <trkpt lat="28.63522" lon="105.067924"><ele>591.5877</ele><time>2026-07-22T02:35:42.000Z</time></trkpt>
        <trkpt lat="28.635209" lon="105.067902"><ele>591.1715</ele><time>2026-07-22T02:35:44.000Z</time></trkpt>
        <trkpt lat="28.635197" lon="105.067881"><ele>591.2926</ele><time>2026-07-22T02:35:46.000Z</time></trkpt>
        <trkpt lat="28.635185" lon="105.067861"><ele>591.3122</ele><time>2026-07-22T02:35:48.000Z</time></trkpt>
        <trkpt lat="28.635176" lon="105.067839"><ele>591.24066</ele><time>2026-07-22T02:35:50.000Z</time></trkpt>
        <trkpt lat="28.63517" lon="105.067832"><ele>591.8669</ele><time>2026-07-22T02:35:52.000Z</time></trkpt>
        <trkpt lat="28.63516" lon="105.067822"><ele>591.72235</ele><time>2026-07-22T02:35:54.000Z</time></trkpt>
        <trkpt lat="28.635147" lon="105.067814"><ele>591.50183</ele><time>2026-07-22T02:35:56.000Z</time></trkpt>
        <trkpt lat="28.635137" lon="105.06781"><ele>591.6795</ele><time>2026-07-22T02:35:58.000Z</time></trkpt>
        <trkpt lat="28.635138" lon="105.067808"><ele>591.63995</ele><time>2026-07-22T02:36:00.000Z</time></trkpt>
        <trkpt lat="28.635138" lon="105.067775"><ele>593.45654</ele><time>2026-07-22T02:36:05.000Z</time></trkpt>
        <trkpt lat="28.635138" lon="105.067775"><ele>592.41705</ele><time>2026-07-22T02:36:07.000Z</time></trkpt>
        <trkpt lat="28.635136" lon="105.067772"><ele>591.93665</ele><time>2026-07-22T02:36:09.000Z</time></trkpt>
        <trkpt lat="28.635102" lon="105.06773"><ele>592.2997</ele><time>2026-07-22T02:36:13.000Z</time></trkpt>
        <trkpt lat="28.635079" lon="105.067699"><ele>592.3347</ele><time>2026-07-22T02:36:15.000Z</time></trkpt>
        <trkpt lat="28.635056" lon="105.067668"><ele>592.9278</ele><time>2026-07-22T02:36:17.000Z</time></trkpt>
        <trkpt lat="28.635039" lon="105.06764"><ele>592.9698</ele><time>2026-07-22T02:36:19.000Z</time></trkpt>
        <trkpt lat="28.635024" lon="105.067615"><ele>592.9227</ele><time>2026-07-22T02:36:21.000Z</time></trkpt>
        <trkpt lat="28.635012" lon="105.067591"><ele>593.16455</ele><time>2026-07-22T02:36:23.000Z</time></trkpt>
        <trkpt lat="28.634999" lon="105.067569"><ele>593.9854</ele><time>2026-07-22T02:36:25.000Z</time></trkpt>
        <trkpt lat="28.634987" lon="105.067545"><ele>594.7438</ele><time>2026-07-22T02:36:27.000Z</time></trkpt>
        <trkpt lat="28.63498" lon="105.067526"><ele>594.6821</ele><time>2026-07-22T02:36:29.000Z</time></trkpt>
        <trkpt lat="28.634973" lon="105.067504"><ele>595.58563</ele><time>2026-07-22T02:36:31.000Z</time></trkpt>
        <trkpt lat="28.634963" lon="105.067476"><ele>595.826</ele><time>2026-07-22T02:36:33.000Z</time></trkpt>
        <trkpt lat="28.634953" lon="105.067454"><ele>595.6728</ele><time>2026-07-22T02:36:35.000Z</time></trkpt>
        <trkpt lat="28.634945" lon="105.067438"><ele>596.68225</ele><time>2026-07-22T02:36:37.000Z</time></trkpt>
        <trkpt lat="28.634938" lon="105.067426"><ele>596.4723</ele><time>2026-07-22T02:36:39.000Z</time></trkpt>
        <trkpt lat="28.634925" lon="105.067402"><ele>594.70905</ele><time>2026-07-22T02:36:41.000Z</time></trkpt>
        <trkpt lat="28.634916" lon="105.067383"><ele>595.8262</ele><time>2026-07-22T02:36:43.000Z</time></trkpt>
        <trkpt lat="28.634907" lon="105.067367"><ele>596.58405</ele><time>2026-07-22T02:36:45.000Z</time></trkpt>
        <trkpt lat="28.634894" lon="105.067346"><ele>596.5922</ele><time>2026-07-22T02:36:47.000Z</time></trkpt>
        <trkpt lat="28.634884" lon="105.06733"><ele>597.17206</ele><time>2026-07-22T02:36:49.000Z</time></trkpt>
        <trkpt lat="28.634873" lon="105.067313"><ele>597.19403</ele><time>2026-07-22T02:36:51.000Z</time></trkpt>
        <trkpt lat="28.634858" lon="105.067291"><ele>596.90283</ele><time>2026-07-22T02:36:53.000Z</time></trkpt>
        <trkpt lat="28.634843" lon="105.067268"><ele>597.51996</ele><time>2026-07-22T02:36:55.000Z</time></trkpt>
        <trkpt lat="28.634831" lon="105.06725"><ele>597.3729</ele><time>2026-07-22T02:36:57.000Z</time></trkpt>
        <trkpt lat="28.634815" lon="105.067225"><ele>598.0617</ele><time>2026-07-22T02:36:59.000Z</time></trkpt>
        <trkpt lat="28.634803" lon="105.067202"><ele>598.60376</ele><time>2026-07-22T02:37:01.000Z</time></trkpt>
        <trkpt lat="28.634795" lon="105.067185"><ele>598.212</ele><time>2026-07-22T02:37:03.000Z</time></trkpt>
        <trkpt lat="28.634785" lon="105.067164"><ele>598.2361</ele><time>2026-07-22T02:37:05.000Z</time></trkpt>
        <trkpt lat="28.634774" lon="105.067142"><ele>597.9952</ele><time>2026-07-22T02:37:07.000Z</time></trkpt>
        <trkpt lat="28.634764" lon="105.067121"><ele>598.7081</ele><time>2026-07-22T02:37:09.000Z</time></trkpt>
        <trkpt lat="28.634756" lon="105.067104"><ele>598.7132</ele><time>2026-07-22T02:37:11.000Z</time></trkpt>
        <trkpt lat="28.634747" lon="105.067086"><ele>598.1224</ele><time>2026-07-22T02:37:12.000Z</time></trkpt>
        <trkpt lat="28.634739" lon="105.06707"><ele>597.80725</ele><time>2026-07-22T02:37:14.000Z</time></trkpt>
        <trkpt lat="28.63473" lon="105.067054"><ele>597.8376</ele><time>2026-07-22T02:37:16.000Z</time></trkpt>
        <trkpt lat="28.634718" lon="105.067036"><ele>597.9477</ele><time>2026-07-22T02:37:18.000Z</time></trkpt>
        <trkpt lat="28.634706" lon="105.06702"><ele>598.85876</ele><time>2026-07-22T02:37:20.000Z</time></trkpt>
        <trkpt lat="28.634694" lon="105.067003"><ele>598.54315</ele><time>2026-07-22T02:37:22.000Z</time></trkpt>
        <trkpt lat="28.634679" lon="105.066981"><ele>597.9822</ele><time>2026-07-22T02:37:24.000Z</time></trkpt>
        <trkpt lat="28.634663" lon="105.066957"><ele>597.8564</ele><time>2026-07-22T02:37:27.000Z</time></trkpt>
        <trkpt lat="28.634652" lon="105.066939"><ele>597.8655</ele><time>2026-07-22T02:37:29.000Z</time></trkpt>
        <trkpt lat="28.634646" lon="105.066926"><ele>597.99115</ele><time>2026-07-22T02:37:31.000Z</time></trkpt>
        <trkpt lat="28.634641" lon="105.066909"><ele>597.68665</ele><time>2026-07-22T02:37:33.000Z</time></trkpt>
        <trkpt lat="28.634635" lon="105.066887"><ele>598.78625</ele><time>2026-07-22T02:37:35.000Z</time></trkpt>
        <trkpt lat="28.634635" lon="105.066877"><ele>600.0062</ele><time>2026-07-22T02:37:37.000Z</time></trkpt>
        <trkpt lat="28.634633" lon="105.066875"><ele>599.5458</ele><time>2026-07-22T02:37:39.000Z</time></trkpt>
        <trkpt lat="28.634652" lon="105.066892"><ele>602.2167</ele><time>2026-07-22T02:37:45.000Z</time></trkpt>
        <trkpt lat="28.634673" lon="105.066912"><ele>601.8191</ele><time>2026-07-22T02:37:47.000Z</time></trkpt>
        <trkpt lat="28.634675" lon="105.066913"><ele>601.2641</ele><time>2026-07-22T02:37:49.000Z</time></trkpt>
        <trkpt lat="28.634676" lon="105.066913"><ele>602.16064</ele><time>2026-07-22T02:37:51.000Z</time></trkpt>
        <trkpt lat="28.63472" lon="105.066927"><ele>601.63007</ele><time>2026-07-22T02:37:57.000Z</time></trkpt>
        <trkpt lat="28.634736" lon="105.066934"><ele>603.1587</ele><time>2026-07-22T02:37:59.000Z</time></trkpt>
        <trkpt lat="28.634755" lon="105.066943"><ele>603.2363</ele><time>2026-07-22T02:38:01.000Z</time></trkpt>
        <trkpt lat="28.634774" lon="105.066952"><ele>603.2747</ele><time>2026-07-22T02:38:03.000Z</time></trkpt>
        <trkpt lat="28.634789" lon="105.066961"><ele>603.5325</ele><time>2026-07-22T02:38:05.000Z</time></trkpt>
        <trkpt lat="28.634804" lon="105.066968"><ele>603.75977</ele><time>2026-07-22T02:38:07.000Z</time></trkpt>
        <trkpt lat="28.634813" lon="105.066974"><ele>603.5277</ele><time>2026-07-22T02:38:09.000Z</time></trkpt>
        <trkpt lat="28.634822" lon="105.066979"><ele>603.90027</ele><time>2026-07-22T02:38:11.000Z</time></trkpt>
        <trkpt lat="28.634831" lon="105.066985"><ele>603.82294</ele><time>2026-07-22T02:38:13.000Z</time></trkpt>
        <trkpt lat="28.63484" lon="105.066991"><ele>604.2317</ele><time>2026-07-22T02:38:15.000Z</time></trkpt>
        <trkpt lat="28.634851" lon="105.066997"><ele>604.30884</ele><time>2026-07-22T02:38:17.000Z</time></trkpt>
        <trkpt lat="28.634863" lon="105.067005"><ele>604.68805</ele><time>2026-07-22T02:38:19.000Z</time></trkpt>
        <trkpt lat="28.634875" lon="105.067014"><ele>605.10516</ele><time>2026-07-22T02:38:21.000Z</time></trkpt>
        <trkpt lat="28.634884" lon="105.067023"><ele>605.73584</ele><time>2026-07-22T02:38:23.000Z</time></trkpt>
        <trkpt lat="28.634894" lon="105.067031"><ele>605.7771</ele><time>2026-07-22T02:38:25.000Z</time></trkpt>
        <trkpt lat="28.634904" lon="105.067039"><ele>605.761</ele><time>2026-07-22T02:38:27.000Z</time></trkpt>
        <trkpt lat="28.634916" lon="105.067048"><ele>605.92346</ele><time>2026-07-22T02:38:29.000Z</time></trkpt>
        <trkpt lat="28.634928" lon="105.067055"><ele>606.1199</ele><time>2026-07-22T02:38:31.000Z</time></trkpt>
        <trkpt lat="28.63494" lon="105.067062"><ele>606.94556</ele><time>2026-07-22T02:38:33.000Z</time></trkpt>
        <trkpt lat="28.634954" lon="105.06707"><ele>606.75336</ele><time>2026-07-22T02:38:35.000Z</time></trkpt>
        <trkpt lat="28.634967" lon="105.067077"><ele>607.3248</ele><time>2026-07-22T02:38:37.000Z</time></trkpt>
        <trkpt lat="28.634978" lon="105.067083"><ele>607.75305</ele><time>2026-07-22T02:38:39.000Z</time></trkpt>
        <trkpt lat="28.634989" lon="105.067088"><ele>607.8571</ele><time>2026-07-22T02:38:41.000Z</time></trkpt>
        <trkpt lat="28.635003" lon="105.067092"><ele>608.0556</ele><time>2026-07-22T02:38:43.000Z</time></trkpt>
        <trkpt lat="28.635017" lon="105.067095"><ele>608.08124</ele><time>2026-07-22T02:38:45.000Z</time></trkpt>
        <trkpt lat="28.635031" lon="105.067096"><ele>608.0461</ele><time>2026-07-22T02:38:47.000Z</time></trkpt>
        <trkpt lat="28.635045" lon="105.067096"><ele>608.1038</ele><time>2026-07-22T02:38:49.000Z</time></trkpt>
        <trkpt lat="28.635061" lon="105.067094"><ele>608.59906</ele><time>2026-07-22T02:38:51.000Z</time></trkpt>
        <trkpt lat="28.63508" lon="105.06709"><ele>608.9495</ele><time>2026-07-22T02:38:53.000Z</time></trkpt>
        <trkpt lat="28.635094" lon="105.067084"><ele>608.46857</ele><time>2026-07-22T02:38:55.000Z</time></trkpt>
        <trkpt lat="28.635111" lon="105.067075"><ele>609.16486</ele><time>2026-07-22T02:38:57.000Z</time></trkpt>
        <trkpt lat="28.63512" lon="105.067068"><ele>608.9042</ele><time>2026-07-22T02:38:59.000Z</time></trkpt>
        <trkpt lat="28.635126" lon="105.067065"><ele>609.34955</ele><time>2026-07-22T02:39:01.000Z</time></trkpt>
        <trkpt lat="28.635129" lon="105.067063"><ele>609.16724</ele><time>2026-07-22T02:39:11.000Z</time></trkpt>
        <trkpt lat="28.635089" lon="105.067084"><ele>610.1185</ele><time>2026-07-22T02:39:15.000Z</time></trkpt>
        <trkpt lat="28.635089" lon="105.067084"><ele>612.896</ele><time>2026-07-22T02:39:17.000Z</time></trkpt>
        <trkpt lat="28.635091" lon="105.067084"><ele>610.55347</ele><time>2026-07-22T02:39:19.000Z</time></trkpt>
        <trkpt lat="28.635042" lon="105.06708"><ele>611.43536</ele><time>2026-07-22T02:40:08.000Z</time></trkpt>
        <trkpt lat="28.635023" lon="105.067082"><ele>611.3208</ele><time>2026-07-22T02:40:10.000Z</time></trkpt>
        <trkpt lat="28.635007" lon="105.067083"><ele>610.73096</ele><time>2026-07-22T02:40:12.000Z</time></trkpt>
        <trkpt lat="28.634975" lon="105.067084"><ele>609.92096</ele><time>2026-07-22T02:40:15.000Z</time></trkpt>
        <trkpt lat="28.634975" lon="105.067084"><ele>609.05273</ele><time>2026-07-22T02:40:17.000Z</time></trkpt>
        <trkpt lat="28.634966" lon="105.067079"><ele>608.2776</ele><time>2026-07-22T02:40:21.000Z</time></trkpt>
        <trkpt lat="28.63494" lon="105.067065"><ele>607.5672</ele><time>2026-07-22T02:40:27.000Z</time></trkpt>
        <trkpt lat="28.63494" lon="105.067065"><ele>607.6468</ele><time>2026-07-22T02:40:29.000Z</time></trkpt>
        <trkpt lat="28.634933" lon="105.067061"><ele>607.28925</ele><time>2026-07-22T02:40:33.000Z</time></trkpt>
        <trkpt lat="28.63491" lon="105.067045"><ele>606.3361</ele><time>2026-07-22T02:40:37.000Z</time></trkpt>
        <trkpt lat="28.634897" lon="105.067035"><ele>604.9478</ele><time>2026-07-22T02:40:39.000Z</time></trkpt>
        <trkpt lat="28.634879" lon="105.067023"><ele>604.5932</ele><time>2026-07-22T02:40:41.000Z</time></trkpt>
        <trkpt lat="28.634865" lon="105.067016"><ele>603.9352</ele><time>2026-07-22T02:40:43.000Z</time></trkpt>
        <trkpt lat="28.634851" lon="105.06701"><ele>604.2596</ele><time>2026-07-22T02:40:45.000Z</time></trkpt>
        <trkpt lat="28.634838" lon="105.067003"><ele>603.0302</ele><time>2026-07-22T02:40:47.000Z</time></trkpt>
        <trkpt lat="28.634821" lon="105.066992"><ele>603.6791</ele><time>2026-07-22T02:40:49.000Z</time></trkpt>
        <trkpt lat="28.634808" lon="105.066982"><ele>603.4441</ele><time>2026-07-22T02:40:51.000Z</time></trkpt>
        <trkpt lat="28.634799" lon="105.066974"><ele>602.8786</ele><time>2026-07-22T02:40:53.000Z</time></trkpt>
        <trkpt lat="28.634791" lon="105.066968"><ele>602.13983</ele><time>2026-07-22T02:40:55.000Z</time></trkpt>
        <trkpt lat="28.634783" lon="105.066962"><ele>601.8622</ele><time>2026-07-22T02:40:57.000Z</time></trkpt>
        <trkpt lat="28.634769" lon="105.066953"><ele>601.6812</ele><time>2026-07-22T02:40:59.000Z</time></trkpt>
        <trkpt lat="28.634753" lon="105.066944"><ele>601.6596</ele><time>2026-07-22T02:41:01.000Z</time></trkpt>
        <trkpt lat="28.634736" lon="105.066935"><ele>600.8789</ele><time>2026-07-22T02:41:03.000Z</time></trkpt>
        <trkpt lat="28.634719" lon="105.066928"><ele>600.22455</ele><time>2026-07-22T02:41:05.000Z</time></trkpt>
        <trkpt lat="28.634704" lon="105.066921"><ele>599.91644</ele><time>2026-07-22T02:41:07.000Z</time></trkpt>
        <trkpt lat="28.634687" lon="105.066913"><ele>599.54694</ele><time>2026-07-22T02:41:09.000Z</time></trkpt>
        <trkpt lat="28.634664" lon="105.066901"><ele>599.48016</ele><time>2026-07-22T02:41:11.000Z</time></trkpt>
        <trkpt lat="28.634642" lon="105.066886"><ele>599.01495</ele><time>2026-07-22T02:41:13.000Z</time></trkpt>
        <trkpt lat="28.634617" lon="105.066865"><ele>599.78076</ele><time>2026-07-22T02:41:15.000Z</time></trkpt>
        <trkpt lat="28.634597" lon="105.066841"><ele>599.5799</ele><time>2026-07-22T02:41:17.000Z</time></trkpt>
        <trkpt lat="28.634583" lon="105.066817"><ele>600.4594</ele><time>2026-07-22T02:41:19.000Z</time></trkpt>
        <trkpt lat="28.634576" lon="105.066803"><ele>602.87537</ele><time>2026-07-22T02:41:21.000Z</time></trkpt>
        <trkpt lat="28.634576" lon="105.066801"><ele>601.88824</ele><time>2026-07-22T02:41:23.000Z</time></trkpt>
        <trkpt lat="28.634571" lon="105.066776"><ele>600.6042</ele><time>2026-07-22T02:41:35.000Z</time></trkpt>
        <trkpt lat="28.634568" lon="105.06676"><ele>600.6009</ele><time>2026-07-22T02:41:37.000Z</time></trkpt>
        <trkpt lat="28.634566" lon="105.066741"><ele>601.13684</ele><time>2026-07-22T02:41:39.000Z</time></trkpt>
        <trkpt lat="28.634563" lon="105.066715"><ele>602.0592</ele><time>2026-07-22T02:41:42.000Z</time></trkpt>
        <trkpt lat="28.634563" lon="105.066715"><ele>602.26434</ele><time>2026-07-22T02:41:44.000Z</time></trkpt>
        <trkpt lat="28.634563" lon="105.0667"><ele>604.5261</ele><time>2026-07-22T02:41:48.000Z</time></trkpt>
        <trkpt lat="28.634563" lon="105.066683"><ele>604.62024</ele><time>2026-07-22T02:41:50.000Z</time></trkpt>
        <trkpt lat="28.634563" lon="105.066667"><ele>604.61945</ele><time>2026-07-22T02:41:52.000Z</time></trkpt>
        <trkpt lat="28.634564" lon="105.066657"><ele>605.0843</ele><time>2026-07-22T02:41:54.000Z</time></trkpt>
        <trkpt lat="28.634562" lon="105.066654"><ele>605.6738</ele><time>2026-07-22T02:41:58.000Z</time></trkpt>
        <trkpt lat="28.634554" lon="105.066623"><ele>605.2958</ele><time>2026-07-22T02:42:14.000Z</time></trkpt>
        <trkpt lat="28.634552" lon="105.066606"><ele>605.043</ele><time>2026-07-22T02:42:16.000Z</time></trkpt>
        <trkpt lat="28.63455" lon="105.066581"><ele>604.88165</ele><time>2026-07-22T02:42:18.000Z</time></trkpt>
        <trkpt lat="28.63455" lon="105.066579"><ele>604.76465</ele><time>2026-07-22T02:42:20.000Z</time></trkpt>
        <trkpt lat="28.634552" lon="105.066559"><ele>604.4072</ele><time>2026-07-22T02:42:24.000Z</time></trkpt>
        <trkpt lat="28.634555" lon="105.066531"><ele>604.4044</ele><time>2026-07-22T02:42:26.000Z</time></trkpt>
        <trkpt lat="28.634557" lon="105.066494"><ele>604.5767</ele><time>2026-07-22T02:42:28.000Z</time></trkpt>
        <trkpt lat="28.634561" lon="105.066458"><ele>604.6509</ele><time>2026-07-22T02:42:30.000Z</time></trkpt>
        <trkpt lat="28.634563" lon="105.066427"><ele>604.55035</ele><time>2026-07-22T02:42:32.000Z</time></trkpt>
        <trkpt lat="28.634567" lon="105.066397"><ele>604.10077</ele><time>2026-07-22T02:42:34.000Z</time></trkpt>
        <trkpt lat="28.634569" lon="105.066376"><ele>604.23834</ele><time>2026-07-22T02:42:36.000Z</time></trkpt>
        <trkpt lat="28.634571" lon="105.066351"><ele>603.94165</ele><time>2026-07-22T02:42:38.000Z</time></trkpt>
        <trkpt lat="28.634574" lon="105.066328"><ele>604.0555</ele><time>2026-07-22T02:42:40.000Z</time></trkpt>
        <trkpt lat="28.634576" lon="105.066305"><ele>603.8776</ele><time>2026-07-22T02:42:42.000Z</time></trkpt>
        <trkpt lat="28.634577" lon="105.066282"><ele>603.7635</ele><time>2026-07-22T02:42:44.000Z</time></trkpt>
        <trkpt lat="28.634579" lon="105.066259"><ele>603.9907</ele><time>2026-07-22T02:42:46.000Z</time></trkpt>
        <trkpt lat="28.634581" lon="105.066237"><ele>603.903</ele><time>2026-07-22T02:42:48.000Z</time></trkpt>
        <trkpt lat="28.634583" lon="105.066214"><ele>603.83417</ele><time>2026-07-22T02:42:50.000Z</time></trkpt>
        <trkpt lat="28.634584" lon="105.066194"><ele>603.9945</ele><time>2026-07-22T02:42:52.000Z</time></trkpt>
        <trkpt lat="28.634586" lon="105.066173"><ele>603.6447</ele><time>2026-07-22T02:42:54.000Z</time></trkpt>
        <trkpt lat="28.634587" lon="105.066152"><ele>603.9584</ele><time>2026-07-22T02:42:56.000Z</time></trkpt>
        <trkpt lat="28.634587" lon="105.066129"><ele>605.3933</ele><time>2026-07-22T02:42:58.000Z</time></trkpt>
        <trkpt lat="28.634585" lon="105.066108"><ele>604.5465</ele><time>2026-07-22T02:43:00.000Z</time></trkpt>
        <trkpt lat="28.634577" lon="105.066087"><ele>604.80237</ele><time>2026-07-22T02:43:02.000Z</time></trkpt>
        <trkpt lat="28.634571" lon="105.066064"><ele>605.25684</ele><time>2026-07-22T02:43:04.000Z</time></trkpt>
        <trkpt lat="28.634567" lon="105.066043"><ele>605.45886</ele><time>2026-07-22T02:43:06.000Z</time></trkpt>
        <trkpt lat="28.634565" lon="105.066019"><ele>604.8282</ele><time>2026-07-22T02:43:08.000Z</time></trkpt>
        <trkpt lat="28.634566" lon="105.065993"><ele>605.14545</ele><time>2026-07-22T02:43:10.000Z</time></trkpt>
        <trkpt lat="28.634571" lon="105.06597"><ele>606.31433</ele><time>2026-07-22T02:43:12.000Z</time></trkpt>
        <trkpt lat="28.634575" lon="105.065949"><ele>606.66156</ele><time>2026-07-22T02:43:14.000Z</time></trkpt>
        <trkpt lat="28.634579" lon="105.065928"><ele>605.71515</ele><time>2026-07-22T02:43:16.000Z</time></trkpt>
        <trkpt lat="28.634582" lon="105.065909"><ele>605.8091</ele><time>2026-07-22T02:43:18.000Z</time></trkpt>
        <trkpt lat="28.634584" lon="105.065894"><ele>606.5362</ele><time>2026-07-22T02:43:20.000Z</time></trkpt>
        <trkpt lat="28.634585" lon="105.06588"><ele>606.5841</ele><time>2026-07-22T02:43:22.000Z</time></trkpt>
        <trkpt lat="28.634585" lon="105.065869"><ele>606.8903</ele><time>2026-07-22T02:43:24.000Z</time></trkpt>
        <trkpt lat="28.634584" lon="105.065859"><ele>606.5753</ele><time>2026-07-22T02:43:26.000Z</time></trkpt>
        <trkpt lat="28.634582" lon="105.065844"><ele>606.7079</ele><time>2026-07-22T02:43:28.000Z</time></trkpt>
        <trkpt lat="28.634582" lon="105.065828"><ele>608.1383</ele><time>2026-07-22T02:43:30.000Z</time></trkpt>
        <trkpt lat="28.634584" lon="105.065811"><ele>607.2327</ele><time>2026-07-22T02:43:32.000Z</time></trkpt>
        <trkpt lat="28.634586" lon="105.065794"><ele>608.0222</ele><time>2026-07-22T02:43:34.000Z</time></trkpt>
        <trkpt lat="28.63459" lon="105.065774"><ele>607.6918</ele><time>2026-07-22T02:43:36.000Z</time></trkpt>
        <trkpt lat="28.634592" lon="105.065754"><ele>606.9473</ele><time>2026-07-22T02:43:38.000Z</time></trkpt>
        <trkpt lat="28.634592" lon="105.065733"><ele>607.7646</ele><time>2026-07-22T02:43:40.000Z</time></trkpt>
        <trkpt lat="28.63459" lon="105.065715"><ele>608.5915</ele><time>2026-07-22T02:43:42.000Z</time></trkpt>
        <trkpt lat="28.634587" lon="105.065695"><ele>608.89856</ele><time>2026-07-22T02:43:44.000Z</time></trkpt>
        <trkpt lat="28.634584" lon="105.065678"><ele>608.4001</ele><time>2026-07-22T02:43:46.000Z</time></trkpt>
        <trkpt lat="28.63458" lon="105.065655"><ele>609.3458</ele><time>2026-07-22T02:43:48.000Z</time></trkpt>
        <trkpt lat="28.634575" lon="105.065633"><ele>609.3862</ele><time>2026-07-22T02:43:50.000Z</time></trkpt>
        <trkpt lat="28.634568" lon="105.065614"><ele>609.6698</ele><time>2026-07-22T02:43:52.000Z</time></trkpt>
        <trkpt lat="28.634562" lon="105.065597"><ele>609.9782</ele><time>2026-07-22T02:43:54.000Z</time></trkpt>
        <trkpt lat="28.63456" lon="105.065583"><ele>610.1038</ele><time>2026-07-22T02:43:56.000Z</time></trkpt>
        <trkpt lat="28.634555" lon="105.065565"><ele>609.92194</ele><time>2026-07-22T02:43:58.000Z</time></trkpt>
        <trkpt lat="28.634551" lon="105.065543"><ele>610.3977</ele><time>2026-07-22T02:44:00.000Z</time></trkpt>
        <trkpt lat="28.634548" lon="105.06552"><ele>610.7582</ele><time>2026-07-22T02:44:02.000Z</time></trkpt>
        <trkpt lat="28.634543" lon="105.065494"><ele>611.0938</ele><time>2026-07-22T02:44:04.000Z</time></trkpt>
        <trkpt lat="28.634536" lon="105.065475"><ele>611.1247</ele><time>2026-07-22T02:44:06.000Z</time></trkpt>
        <trkpt lat="28.634532" lon="105.065468"><ele>609.0985</ele><time>2026-07-22T02:44:08.000Z</time></trkpt>
        <trkpt lat="28.634522" lon="105.06545"><ele>609.9037</ele><time>2026-07-22T02:44:10.000Z</time></trkpt>
        <trkpt lat="28.634516" lon="105.065437"><ele>609.606</ele><time>2026-07-22T02:44:12.000Z</time></trkpt>
        <trkpt lat="28.634509" lon="105.065423"><ele>608.9286</ele><time>2026-07-22T02:44:14.000Z</time></trkpt>
        <trkpt lat="28.634501" lon="105.065407"><ele>609.26337</ele><time>2026-07-22T02:44:16.000Z</time></trkpt>
        <trkpt lat="28.634493" lon="105.065395"><ele>609.1139</ele><time>2026-07-22T02:44:18.000Z</time></trkpt>
        <trkpt lat="28.634488" lon="105.065384"><ele>608.1568</ele><time>2026-07-22T02:44:20.000Z</time></trkpt>
        <trkpt lat="28.634483" lon="105.065377"><ele>608.04346</ele><time>2026-07-22T02:44:22.000Z</time></trkpt>
        <trkpt lat="28.634476" lon="105.065369"><ele>608.6951</ele><time>2026-07-22T02:44:24.000Z</time></trkpt>
        <trkpt lat="28.63447" lon="105.06536"><ele>608.88794</ele><time>2026-07-22T02:44:26.000Z</time></trkpt>
        <trkpt lat="28.634464" lon="105.065351"><ele>608.2914</ele><time>2026-07-22T02:44:28.000Z</time></trkpt>
        <trkpt lat="28.634454" lon="105.065338"><ele>608.0036</ele><time>2026-07-22T02:44:32.000Z</time></trkpt>
        <trkpt lat="28.634447" lon="105.06533"><ele>607.977</ele><time>2026-07-22T02:44:34.000Z</time></trkpt>
        <trkpt lat="28.634439" lon="105.065319"><ele>607.53564</ele><time>2026-07-22T02:44:36.000Z</time></trkpt>
        <trkpt lat="28.634432" lon="105.065308"><ele>607.19446</ele><time>2026-07-22T02:44:38.000Z</time></trkpt>
        <trkpt lat="28.634422" lon="105.065295"><ele>606.39966</ele><time>2026-07-22T02:44:40.000Z</time></trkpt>
        <trkpt lat="28.634413" lon="105.065283"><ele>605.732</ele><time>2026-07-22T02:44:42.000Z</time></trkpt>
        <trkpt lat="28.634398" lon="105.065264"><ele>606.45844</ele><time>2026-07-22T02:44:44.000Z</time></trkpt>
        <trkpt lat="28.634388" lon="105.065249"><ele>604.92346</ele><time>2026-07-22T02:44:46.000Z</time></trkpt>
        <trkpt lat="28.634378" lon="105.065236"><ele>603.8552</ele><time>2026-07-22T02:44:48.000Z</time></trkpt>
        <trkpt lat="28.634369" lon="105.065224"><ele>603.828</ele><time>2026-07-22T02:44:50.000Z</time></trkpt>
        <trkpt lat="28.634358" lon="105.065209"><ele>604.3803</ele><time>2026-07-22T02:44:52.000Z</time></trkpt>
        <trkpt lat="28.634353" lon="105.065199"><ele>603.2744</ele><time>2026-07-22T02:44:54.000Z</time></trkpt>
        <trkpt lat="28.634346" lon="105.065186"><ele>602.61035</ele><time>2026-07-22T02:44:56.000Z</time></trkpt>
        <trkpt lat="28.634342" lon="105.065172"><ele>602.37506</ele><time>2026-07-22T02:44:58.000Z</time></trkpt>
        <trkpt lat="28.634336" lon="105.065154"><ele>601.9902</ele><time>2026-07-22T02:45:00.000Z</time></trkpt>
        <trkpt lat="28.634333" lon="105.065139"><ele>600.89166</ele><time>2026-07-22T02:45:02.000Z</time></trkpt>
        <trkpt lat="28.634332" lon="105.065128"><ele>599.8175</ele><time>2026-07-22T02:45:04.000Z</time></trkpt>
        <trkpt lat="28.63433" lon="105.065117"><ele>599.7964</ele><time>2026-07-22T02:45:06.000Z</time></trkpt>
        <trkpt lat="28.634326" lon="105.065105"><ele>600.0836</ele><time>2026-07-22T02:45:08.000Z</time></trkpt>
        <trkpt lat="28.634322" lon="105.065093"><ele>599.37256</ele><time>2026-07-22T02:45:10.000Z</time></trkpt>
        <trkpt lat="28.634316" lon="105.065079"><ele>599.1182</ele><time>2026-07-22T02:45:12.000Z</time></trkpt>
        <trkpt lat="28.63431" lon="105.065066"><ele>598.59924</ele><time>2026-07-22T02:45:14.000Z</time></trkpt>
        <trkpt lat="28.634303" lon="105.065052"><ele>597.89014</ele><time>2026-07-22T02:45:16.000Z</time></trkpt>
        <trkpt lat="28.634298" lon="105.06504"><ele>597.25696</ele><time>2026-07-22T02:45:18.000Z</time></trkpt>
        <trkpt lat="28.634295" lon="105.065028"><ele>597.5197</ele><time>2026-07-22T02:45:20.000Z</time></trkpt>
        <trkpt lat="28.634291" lon="105.065018"><ele>596.3673</ele><time>2026-07-22T02:45:22.000Z</time></trkpt>
        <trkpt lat="28.634286" lon="105.065009"><ele>596.3894</ele><time>2026-07-22T02:45:24.000Z</time></trkpt>
        <trkpt lat="28.634281" lon="105.064999"><ele>596.0494</ele><time>2026-07-22T02:45:26.000Z</time></trkpt>
        <trkpt lat="28.634277" lon="105.064986"><ele>597.39813</ele><time>2026-07-22T02:45:28.000Z</time></trkpt>
        <trkpt lat="28.634273" lon="105.064967"><ele>597.38586</ele><time>2026-07-22T02:45:30.000Z</time></trkpt>
        <trkpt lat="28.63427" lon="105.064946"><ele>596.7198</ele><time>2026-07-22T02:45:32.000Z</time></trkpt>
        <trkpt lat="28.634264" lon="105.064927"><ele>596.17236</ele><time>2026-07-22T02:45:34.000Z</time></trkpt>
        <trkpt lat="28.634256" lon="105.064909"><ele>595.9119</ele><time>2026-07-22T02:45:36.000Z</time></trkpt>
        <trkpt lat="28.63425" lon="105.064897"><ele>596.37665</ele><time>2026-07-22T02:45:38.000Z</time></trkpt>
        <trkpt lat="28.634245" lon="105.064893"><ele>596.4212</ele><time>2026-07-22T02:45:40.000Z</time></trkpt>
        <trkpt lat="28.634242" lon="105.064889"><ele>596.461</ele><time>2026-07-22T02:45:44.000Z</time></trkpt>
        <trkpt lat="28.634268" lon="105.064925"><ele>595.9288</ele><time>2026-07-22T02:45:48.000Z</time></trkpt>
        <trkpt lat="28.634268" lon="105.064925"><ele>595.9586</ele><time>2026-07-22T02:45:50.000Z</time></trkpt>
        <trkpt lat="28.634267" lon="105.064927"><ele>596.11206</ele><time>2026-07-22T02:45:52.000Z</time></trkpt>
        <trkpt lat="28.634247" lon="105.064962"><ele>596.32184</ele><time>2026-07-22T02:45:58.000Z</time></trkpt>
        <trkpt lat="28.634241" lon="105.064969"><ele>596.1869</ele><time>2026-07-22T02:46:00.000Z</time></trkpt>
        <trkpt lat="28.63424" lon="105.064974"><ele>595.9809</ele><time>2026-07-22T02:46:02.000Z</time></trkpt>
        <trkpt lat="28.634256" lon="105.064915"><ele>596.8737</ele><time>2026-07-22T02:46:15.000Z</time></trkpt>
        <trkpt lat="28.634256" lon="105.064914"><ele>596.7779</ele><time>2026-07-22T02:46:17.000Z</time></trkpt>
        <trkpt lat="28.634275" lon="105.064835"><ele>596.7257</ele><time>2026-07-22T02:46:19.000Z</time></trkpt>
        <trkpt lat="28.634296" lon="105.064749"><ele>596.4841</ele><time>2026-07-22T02:46:22.000Z</time></trkpt>
        <trkpt lat="28.634296" lon="105.064749"><ele>596.68274</ele><time>2026-07-22T02:46:24.000Z</time></trkpt>
        <trkpt lat="28.634298" lon="105.064737"><ele>596.9661</ele><time>2026-07-22T02:46:26.000Z</time></trkpt>
        <trkpt lat="28.634304" lon="105.064689"><ele>597.3036</ele><time>2026-07-22T02:46:28.000Z</time></trkpt>
        <trkpt lat="28.63431" lon="105.064613"><ele>597.776</ele><time>2026-07-22T02:46:30.000Z</time></trkpt>
        <trkpt lat="28.634313" lon="105.064548"><ele>597.8909</ele><time>2026-07-22T02:46:32.000Z</time></trkpt>
        <trkpt lat="28.634313" lon="105.064508"><ele>598.11066</ele><time>2026-07-22T02:46:34.000Z</time></trkpt>
        <trkpt lat="28.634312" lon="105.064486"><ele>597.1723</ele><time>2026-07-22T02:46:36.000Z</time></trkpt>
        <trkpt lat="28.634309" lon="105.064482"><ele>597.2976</ele><time>2026-07-22T02:46:38.000Z</time></trkpt>
        <trkpt lat="28.634271" lon="105.064431"><ele>602.1217</ele><time>2026-07-22T02:47:25.000Z</time></trkpt>
        <trkpt lat="28.634271" lon="105.06443"><ele>603.26025</ele><time>2026-07-22T02:47:27.000Z</time></trkpt>
        <trkpt lat="28.634269" lon="105.064416"><ele>602.96466</ele><time>2026-07-22T02:47:29.000Z</time></trkpt>
        <trkpt lat="28.634239" lon="105.064184"><ele>602.94806</ele><time>2026-07-22T02:47:33.000Z</time></trkpt>
        <trkpt lat="28.634208" lon="105.064024"><ele>603.33624</ele><time>2026-07-22T02:47:35.000Z</time></trkpt>
        <trkpt lat="28.634167" lon="105.063812"><ele>603.0036</ele><time>2026-07-22T02:47:37.000Z</time></trkpt>
        <trkpt lat="28.63416" lon="105.0638"><ele>602.32336</ele><time>2026-07-22T02:47:39.000Z</time></trkpt>
        <trkpt lat="28.634151" lon="105.063793"><ele>600.85345</ele><time>2026-07-22T02:47:41.000Z</time></trkpt>
        <trkpt lat="28.633988" lon="105.063669"><ele>598.52203</ele><time>2026-07-22T02:47:45.000Z</time></trkpt>
        <trkpt lat="28.6339" lon="105.063552"><ele>598.9711</ele><time>2026-07-22T02:47:47.000Z</time></trkpt>
        <trkpt lat="28.633853" lon="105.063415"><ele>599.2056</ele><time>2026-07-22T02:47:49.000Z</time></trkpt>
        <trkpt lat="28.633864" lon="105.063284"><ele>600.80035</ele><time>2026-07-22T02:47:51.000Z</time></trkpt>
        <trkpt lat="28.633878" lon="105.06315"><ele>600.52875</ele><time>2026-07-22T02:47:53.000Z</time></trkpt>
        <trkpt lat="28.63389" lon="105.063001"><ele>600.99207</ele><time>2026-07-22T02:47:55.000Z</time></trkpt>
        <trkpt lat="28.633903" lon="105.062846"><ele>600.5226</ele><time>2026-07-22T02:47:57.000Z</time></trkpt>
        <trkpt lat="28.633889" lon="105.062694"><ele>599.87335</ele><time>2026-07-22T02:47:59.000Z</time></trkpt>
        <trkpt lat="28.633825" lon="105.062567"><ele>597.0618</ele><time>2026-07-22T02:48:01.000Z</time></trkpt>
        <trkpt lat="28.633753" lon="105.062434"><ele>594.60034</ele><time>2026-07-22T02:48:03.000Z</time></trkpt>
        <trkpt lat="28.633675" lon="105.06229"><ele>593.7347</ele><time>2026-07-22T02:48:05.000Z</time></trkpt>
        <trkpt lat="28.633599" lon="105.062147"><ele>590.628</ele><time>2026-07-22T02:48:07.000Z</time></trkpt>
        <trkpt lat="28.633558" lon="105.061999"><ele>588.63837</ele><time>2026-07-22T02:48:09.000Z</time></trkpt>
        <trkpt lat="28.633566" lon="105.06186"><ele>589.48975</ele><time>2026-07-22T02:48:11.000Z</time></trkpt>
        <trkpt lat="28.633623" lon="105.061749"><ele>590.7026</ele><time>2026-07-22T02:48:13.000Z</time></trkpt>
        <trkpt lat="28.633718" lon="105.06167"><ele>591.35706</ele><time>2026-07-22T02:48:15.000Z</time></trkpt>
        <trkpt lat="28.633839" lon="105.061641"><ele>590.3772</ele><time>2026-07-22T02:48:17.000Z</time></trkpt>
        <trkpt lat="28.633974" lon="105.061608"><ele>588.8996</ele><time>2026-07-22T02:48:19.000Z</time></trkpt>
        <trkpt lat="28.63413" lon="105.061615"><ele>588.2945</ele><time>2026-07-22T02:48:21.000Z</time></trkpt>
        <trkpt lat="28.63429" lon="105.061633"><ele>586.1294</ele><time>2026-07-22T02:48:23.000Z</time></trkpt>
        <trkpt lat="28.634447" lon="105.061651"><ele>584.0648</ele><time>2026-07-22T02:48:25.000Z</time></trkpt>
        <trkpt lat="28.634596" lon="105.061701"><ele>582.0446</ele><time>2026-07-22T02:48:27.000Z</time></trkpt>
        <trkpt lat="28.634735" lon="105.061741"><ele>580.43604</ele><time>2026-07-22T02:48:29.000Z</time></trkpt>
        <trkpt lat="28.634863" lon="105.061777"><ele>579.6099</ele><time>2026-07-22T02:48:31.000Z</time></trkpt>
        <trkpt lat="28.634967" lon="105.061777"><ele>578.46185</ele><time>2026-07-22T02:48:33.000Z</time></trkpt>
        <trkpt lat="28.635053" lon="105.061742"><ele>577.1267</ele><time>2026-07-22T02:48:35.000Z</time></trkpt>
        <trkpt lat="28.635105" lon="105.06165"><ele>574.3554</ele><time>2026-07-22T02:48:37.000Z</time></trkpt>
        <trkpt lat="28.635121" lon="105.061524"><ele>571.9524</ele><time>2026-07-22T02:48:39.000Z</time></trkpt>
        <trkpt lat="28.635133" lon="105.061389"><ele>569.2973</ele><time>2026-07-22T02:48:41.000Z</time></trkpt>
        <trkpt lat="28.635139" lon="105.061266"><ele>568.517</ele><time>2026-07-22T02:48:43.000Z</time></trkpt>
        <trkpt lat="28.635138" lon="105.061189"><ele>569.68243</ele><time>2026-07-22T02:48:45.000Z</time></trkpt>
        <trkpt lat="28.635134" lon="105.061147"><ele>570.50745</ele><time>2026-07-22T02:48:47.000Z</time></trkpt>
        <trkpt lat="28.635129" lon="105.06112"><ele>571.02856</ele><time>2026-07-22T02:48:49.000Z</time></trkpt>
        <trkpt lat="28.635125" lon="105.061094"><ele>572.0434</ele><time>2026-07-22T02:48:51.000Z</time></trkpt>
        <trkpt lat="28.634919" lon="105.061054"><ele>573.4315</ele><time>2026-07-22T02:48:53.000Z</time></trkpt>
        <trkpt lat="28.63491" lon="105.061052"><ele>575.46704</ele><time>2026-07-22T02:48:55.000Z</time></trkpt>
        <trkpt lat="28.634888" lon="105.061045"><ele>576.955</ele><time>2026-07-22T02:48:57.000Z</time></trkpt>
        <trkpt lat="28.634796" lon="105.061017"><ele>577.68445</ele><time>2026-07-22T02:48:59.000Z</time></trkpt>
        <trkpt lat="28.634657" lon="105.060975"><ele>577.5568</ele><time>2026-07-22T02:49:01.000Z</time></trkpt>
        <trkpt lat="28.634544" lon="105.06094"><ele>577.33563</ele><time>2026-07-22T02:49:03.000Z</time></trkpt>
        <trkpt lat="28.634476" lon="105.060917"><ele>577.63055</ele><time>2026-07-22T02:49:05.000Z</time></trkpt>
        <trkpt lat="28.634443" lon="105.060904"><ele>578.1606</ele><time>2026-07-22T02:49:07.000Z</time></trkpt>
        <trkpt lat="28.63444" lon="105.060907"><ele>578.5784</ele><time>2026-07-22T02:49:09.000Z</time></trkpt>
        <trkpt lat="28.634414" lon="105.060935"><ele>580.5633</ele><time>2026-07-22T02:49:20.000Z</time></trkpt>
        <trkpt lat="28.634414" lon="105.060935"><ele>582.6534</ele><time>2026-07-22T02:49:22.000Z</time></trkpt>
        <trkpt lat="28.634413" lon="105.060935"><ele>581.3224</ele><time>2026-07-22T02:49:26.000Z</time></trkpt>
        <trkpt lat="28.634477" lon="105.060937"><ele>579.8366</ele><time>2026-07-22T02:49:34.000Z</time></trkpt>
        <trkpt lat="28.634477" lon="105.060937"><ele>579.6962</ele><time>2026-07-22T02:49:36.000Z</time></trkpt>
        <trkpt lat="28.63448" lon="105.060937"><ele>579.27637</ele><time>2026-07-22T02:49:38.000Z</time></trkpt>
        <trkpt lat="28.634416" lon="105.060939"><ele>578.7849</ele><time>2026-07-22T02:49:51.000Z</time></trkpt>
        <trkpt lat="28.634415" lon="105.060939"><ele>578.6334</ele><time>2026-07-22T02:49:53.000Z</time></trkpt>
        <trkpt lat="28.634399" lon="105.060938"><ele>578.894</ele><time>2026-07-22T02:49:55.000Z</time></trkpt>
        <trkpt lat="28.634319" lon="105.060934"><ele>578.4895</ele><time>2026-07-22T02:49:57.000Z</time></trkpt>
        <trkpt lat="28.634156" lon="105.060932"><ele>577.78253</ele><time>2026-07-22T02:49:59.000Z</time></trkpt>
        <trkpt lat="28.633786" lon="105.060929"><ele>577.16</ele><time>2026-07-22T02:50:01.000Z</time></trkpt>
        <trkpt lat="28.633762" lon="105.06093"><ele>577.13214</ele><time>2026-07-22T02:50:03.000Z</time></trkpt>
        <trkpt lat="28.63374" lon="105.060931"><ele>577.30676</ele><time>2026-07-22T02:50:05.000Z</time></trkpt>
        <trkpt lat="28.633662" lon="105.060938"><ele>577.7785</ele><time>2026-07-22T02:50:07.000Z</time></trkpt>
        <trkpt lat="28.633393" lon="105.060962"><ele>577.80066</ele><time>2026-07-22T02:50:09.000Z</time></trkpt>
        <trkpt lat="28.633375" lon="105.060965"><ele>578.0277</ele><time>2026-07-22T02:50:12.000Z</time></trkpt>
        <trkpt lat="28.633371" lon="105.060966"><ele>578.8174</ele><time>2026-07-22T02:50:14.000Z</time></trkpt>
        <trkpt lat="28.633199" lon="105.06098"><ele>578.01337</ele><time>2026-07-22T02:50:20.000Z</time></trkpt>
        <trkpt lat="28.633199" lon="105.06098"><ele>575.82294</ele><time>2026-07-22T02:50:22.000Z</time></trkpt>
        <trkpt lat="28.633175" lon="105.060984"><ele>573.036</ele><time>2026-07-22T02:50:24.000Z</time></trkpt>
        <trkpt lat="28.633072" lon="105.061004"><ele>569.18835</ele><time>2026-07-22T02:50:26.000Z</time></trkpt>
        <trkpt lat="28.632644" lon="105.06109"><ele>564.4809</ele><time>2026-07-22T02:50:28.000Z</time></trkpt>
        <trkpt lat="28.632614" lon="105.0611"><ele>560.1897</ele><time>2026-07-22T02:50:30.000Z</time></trkpt>
        <trkpt lat="28.632593" lon="105.061112"><ele>554.477</ele><time>2026-07-22T02:50:32.000Z</time></trkpt>
        <trkpt lat="28.632513" lon="105.061175"><ele>549.77167</ele><time>2026-07-22T02:50:34.000Z</time></trkpt>
        <trkpt lat="28.632187" lon="105.061429"><ele>546.4187</ele><time>2026-07-22T02:50:36.000Z</time></trkpt>
        <trkpt lat="28.632165" lon="105.061448"><ele>543.4326</ele><time>2026-07-22T02:50:38.000Z</time></trkpt>
        <trkpt lat="28.63216" lon="105.061454"><ele>542.5307</ele><time>2026-07-22T02:50:40.000Z</time></trkpt>
        <trkpt lat="28.632137" lon="105.061483"><ele>541.739</ele><time>2026-07-22T02:50:44.000Z</time></trkpt>
        <trkpt lat="28.632131" lon="105.061491"><ele>540.4386</ele><time>2026-07-22T02:50:46.000Z</time></trkpt>
        <trkpt lat="28.632131" lon="105.061491"><ele>540.4853</ele><time>2026-07-22T02:50:48.000Z</time></trkpt>
        <trkpt lat="28.632199" lon="105.061552"><ele>538.9476</ele><time>2026-07-22T02:50:56.000Z</time></trkpt>
        <trkpt lat="28.632199" lon="105.061552"><ele>538.243</ele><time>2026-07-22T02:50:58.000Z</time></trkpt>
        <trkpt lat="28.632199" lon="105.061551"><ele>537.8371</ele><time>2026-07-22T02:51:00.000Z</time></trkpt>
        <trkpt lat="28.6322" lon="105.061497"><ele>537.2733</ele><time>2026-07-22T02:51:08.000Z</time></trkpt>
        <trkpt lat="28.632182" lon="105.061487"><ele>537.4463</ele><time>2026-07-22T02:51:10.000Z</time></trkpt>
        <trkpt lat="28.632182" lon="105.061487"><ele>537.04254</ele><time>2026-07-22T02:51:12.000Z</time></trkpt>
        <trkpt lat="28.632119" lon="105.061583"><ele>534.60315</ele><time>2026-07-22T02:51:22.000Z</time></trkpt>
        <trkpt lat="28.631955" lon="105.06174"><ele>529.7468</ele><time>2026-07-22T02:51:26.000Z</time></trkpt>
        <trkpt lat="28.631954" lon="105.06174"><ele>527.2387</ele><time>2026-07-22T02:51:28.000Z</time></trkpt>
        <trkpt lat="28.631941" lon="105.061745"><ele>524.5261</ele><time>2026-07-22T02:51:30.000Z</time></trkpt>
        <trkpt lat="28.631759" lon="105.061801"><ele>522.477</ele><time>2026-07-22T02:51:34.000Z</time></trkpt>
        <trkpt lat="28.631599" lon="105.06185"><ele>522.4372</ele><time>2026-07-22T02:51:36.000Z</time></trkpt>
        <trkpt lat="28.631588" lon="105.061853"><ele>522.57635</ele><time>2026-07-22T02:51:38.000Z</time></trkpt>
        <trkpt lat="28.631588" lon="105.061853"><ele>522.2111</ele><time>2026-07-22T02:51:40.000Z</time></trkpt>
        <trkpt lat="28.631566" lon="105.061863"><ele>520.91016</ele><time>2026-07-22T02:51:55.000Z</time></trkpt>
        <trkpt lat="28.631549" lon="105.061871"><ele>522.34485</ele><time>2026-07-22T02:52:31.000Z</time></trkpt>
        <trkpt lat="28.631549" lon="105.061871"><ele>522.4088</ele><time>2026-07-22T02:52:33.000Z</time></trkpt>
        <trkpt lat="28.631531" lon="105.061871"><ele>521.4779</ele><time>2026-07-22T02:52:37.000Z</time></trkpt>
        <trkpt lat="28.631507" lon="105.061874"><ele>520.81244</ele><time>2026-07-22T02:52:39.000Z</time></trkpt>
        <trkpt lat="28.631479" lon="105.06188"><ele>520.40356</ele><time>2026-07-22T02:52:41.000Z</time></trkpt>
        <trkpt lat="28.631452" lon="105.061891"><ele>520.1519</ele><time>2026-07-22T02:52:43.000Z</time></trkpt>
        <trkpt lat="28.631424" lon="105.061907"><ele>520.0843</ele><time>2026-07-22T02:52:45.000Z</time></trkpt>
        <trkpt lat="28.631398" lon="105.061926"><ele>520.30884</ele><time>2026-07-22T02:52:47.000Z</time></trkpt>
        <trkpt lat="28.631375" lon="105.061948"><ele>520.5041</ele><time>2026-07-22T02:52:49.000Z</time></trkpt>
        <trkpt lat="28.631355" lon="105.06197"><ele>520.5768</ele><time>2026-07-22T02:52:51.000Z</time></trkpt>
        <trkpt lat="28.631336" lon="105.061991"><ele>520.4819</ele><time>2026-07-22T02:52:53.000Z</time></trkpt>
        <trkpt lat="28.631321" lon="105.062009"><ele>520.17926</ele><time>2026-07-22T02:52:55.000Z</time></trkpt>
        <trkpt lat="28.631306" lon="105.062025"><ele>520.1532</ele><time>2026-07-22T02:52:57.000Z</time></trkpt>
        <trkpt lat="28.631287" lon="105.062046"><ele>520.0975</ele><time>2026-07-22T02:52:59.000Z</time></trkpt>
        <trkpt lat="28.63127" lon="105.062063"><ele>520.567</ele><time>2026-07-22T02:53:01.000Z</time></trkpt>
        <trkpt lat="28.631257" lon="105.062076"><ele>520.5634</ele><time>2026-07-22T02:53:03.000Z</time></trkpt>
        <trkpt lat="28.631241" lon="105.06209"><ele>521.11084</ele><time>2026-07-22T02:53:05.000Z</time></trkpt>
        <trkpt lat="28.631223" lon="105.062102"><ele>521.4955</ele><time>2026-07-22T02:53:07.000Z</time></trkpt>
        <trkpt lat="28.631207" lon="105.062113"><ele>521.4173</ele><time>2026-07-22T02:53:09.000Z</time></trkpt>
        <trkpt lat="28.631187" lon="105.062126"><ele>522.1576</ele><time>2026-07-22T02:53:11.000Z</time></trkpt>
        <trkpt lat="28.631168" lon="105.062139"><ele>522.8296</ele><time>2026-07-22T02:53:13.000Z</time></trkpt>
        <trkpt lat="28.631152" lon="105.062149"><ele>521.97284</ele><time>2026-07-22T02:53:15.000Z</time></trkpt>
        <trkpt lat="28.631133" lon="105.062162"><ele>522.68475</ele><time>2026-07-22T02:53:17.000Z</time></trkpt>
        <trkpt lat="28.631116" lon="105.062174"><ele>523.83777</ele><time>2026-07-22T02:53:19.000Z</time></trkpt>
        <trkpt lat="28.631098" lon="105.062186"><ele>522.913</ele><time>2026-07-22T02:53:21.000Z</time></trkpt>
        <trkpt lat="28.631079" lon="105.062199"><ele>522.90393</ele><time>2026-07-22T02:53:23.000Z</time></trkpt>
        <trkpt lat="28.63106" lon="105.062212"><ele>523.9623</ele><time>2026-07-22T02:53:25.000Z</time></trkpt>
        <trkpt lat="28.631045" lon="105.062226"><ele>523.6261</ele><time>2026-07-22T02:53:27.000Z</time></trkpt>
        <trkpt lat="28.631025" lon="105.062243"><ele>524.8169</ele><time>2026-07-22T02:53:29.000Z</time></trkpt>
        <trkpt lat="28.631008" lon="105.062259"><ele>524.01965</ele><time>2026-07-22T02:53:31.000Z</time></trkpt>
        <trkpt lat="28.630995" lon="105.062272"><ele>524.0039</ele><time>2026-07-22T02:53:33.000Z</time></trkpt>
        <trkpt lat="28.63098" lon="105.062287"><ele>523.8294</ele><time>2026-07-22T02:53:35.000Z</time></trkpt>
        <trkpt lat="28.630962" lon="105.062304"><ele>524.21576</ele><time>2026-07-22T02:53:37.000Z</time></trkpt>
        <trkpt lat="28.63094" lon="105.062321"><ele>524.4672</ele><time>2026-07-22T02:53:39.000Z</time></trkpt>
        <trkpt lat="28.630918" lon="105.062337"><ele>524.1558</ele><time>2026-07-22T02:53:41.000Z</time></trkpt>
        <trkpt lat="28.630895" lon="105.062353"><ele>524.78735</ele><time>2026-07-22T02:53:43.000Z</time></trkpt>
        <trkpt lat="28.630871" lon="105.062368"><ele>524.807</ele><time>2026-07-22T02:53:45.000Z</time></trkpt>
        <trkpt lat="28.630849" lon="105.062381"><ele>525.0238</ele><time>2026-07-22T02:53:47.000Z</time></trkpt>
        <trkpt lat="28.630828" lon="105.062392"><ele>525.057</ele><time>2026-07-22T02:53:49.000Z</time></trkpt>
        <trkpt lat="28.630806" lon="105.062401"><ele>525.5044</ele><time>2026-07-22T02:53:51.000Z</time></trkpt>
        <trkpt lat="28.630784" lon="105.062409"><ele>526.02295</ele><time>2026-07-22T02:53:53.000Z</time></trkpt>
        <trkpt lat="28.630763" lon="105.062416"><ele>526.2083</ele><time>2026-07-22T02:53:55.000Z</time></trkpt>
        <trkpt lat="28.630744" lon="105.06242"><ele>525.6978</ele><time>2026-07-22T02:53:57.000Z</time></trkpt>
        <trkpt lat="28.63072" lon="105.062425"><ele>526.0985</ele><time>2026-07-22T02:53:59.000Z</time></trkpt>
        <trkpt lat="28.630696" lon="105.062428"><ele>526.55383</ele><time>2026-07-22T02:54:01.000Z</time></trkpt>
        <trkpt lat="28.630673" lon="105.062429"><ele>527.34515</ele><time>2026-07-22T02:54:03.000Z</time></trkpt>
        <trkpt lat="28.630652" lon="105.06243"><ele>526.26575</ele><time>2026-07-22T02:54:05.000Z</time></trkpt>
        <trkpt lat="28.630629" lon="105.062432"><ele>526.4954</ele><time>2026-07-22T02:54:07.000Z</time></trkpt>
        <trkpt lat="28.630606" lon="105.062437"><ele>526.2313</ele><time>2026-07-22T02:54:09.000Z</time></trkpt>
        <trkpt lat="28.630584" lon="105.062443"><ele>526.20886</ele><time>2026-07-22T02:54:11.000Z</time></trkpt>
        <trkpt lat="28.630564" lon="105.06245"><ele>526.7787</ele><time>2026-07-22T02:54:13.000Z</time></trkpt>
        <trkpt lat="28.630544" lon="105.062456"><ele>527.3607</ele><time>2026-07-22T02:54:15.000Z</time></trkpt>
        <trkpt lat="28.630524" lon="105.062465"><ele>525.725</ele><time>2026-07-22T02:54:17.000Z</time></trkpt>
        <trkpt lat="28.630503" lon="105.062475"><ele>526.62805</ele><time>2026-07-22T02:54:19.000Z</time></trkpt>
        <trkpt lat="28.630481" lon="105.062486"><ele>525.75323</ele><time>2026-07-22T02:54:21.000Z</time></trkpt>
        <trkpt lat="28.630461" lon="105.062496"><ele>525.1441</ele><time>2026-07-22T02:54:23.000Z</time></trkpt>
        <trkpt lat="28.63044" lon="105.062505"><ele>524.69006</ele><time>2026-07-22T02:54:25.000Z</time></trkpt>
        <trkpt lat="28.63042" lon="105.062513"><ele>524.07135</ele><time>2026-07-22T02:54:27.000Z</time></trkpt>
        <trkpt lat="28.630398" lon="105.06252"><ele>523.6579</ele><time>2026-07-22T02:54:29.000Z</time></trkpt>
        <trkpt lat="28.630377" lon="105.062526"><ele>523.32947</ele><time>2026-07-22T02:54:31.000Z</time></trkpt>
        <trkpt lat="28.630355" lon="105.062531"><ele>522.90894</ele><time>2026-07-22T02:54:33.000Z</time></trkpt>
        <trkpt lat="28.630334" lon="105.062536"><ele>522.6063</ele><time>2026-07-22T02:54:35.000Z</time></trkpt>
        <trkpt lat="28.630312" lon="105.062541"><ele>521.8055</ele><time>2026-07-22T02:54:37.000Z</time></trkpt>
        <trkpt lat="28.630292" lon="105.062546"><ele>521.5238</ele><time>2026-07-22T02:54:39.000Z</time></trkpt>
        <trkpt lat="28.63028" lon="105.062549"><ele>521.5269</ele><time>2026-07-22T02:54:41.000Z</time></trkpt>
        <trkpt lat="28.630275" lon="105.06255"><ele>521.4023</ele><time>2026-07-22T02:54:43.000Z</time></trkpt>
        <trkpt lat="28.630273" lon="105.062549"><ele>521.1805</ele><time>2026-07-22T02:54:45.000Z</time></trkpt>
        <trkpt lat="28.63026" lon="105.062546"><ele>520.11127</ele><time>2026-07-22T02:55:05.000Z</time></trkpt>
        <trkpt lat="28.63026" lon="105.062547"><ele>519.82275</ele><time>2026-07-22T02:55:07.000Z</time></trkpt>
        <trkpt lat="28.630252" lon="105.062565"><ele>519.7861</ele><time>2026-07-22T02:55:09.000Z</time></trkpt>
        <trkpt lat="28.630252" lon="105.062566"><ele>519.858</ele><time>2026-07-22T02:55:11.000Z</time></trkpt>
        <trkpt lat="28.630252" lon="105.062566"><ele>519.83936</ele><time>2026-07-22T02:55:17.000Z</time></trkpt>
        <trkpt lat="28.6302" lon="105.062569"><ele>519.76715</ele><time>2026-07-22T02:55:56.000Z</time></trkpt>
        <trkpt lat="28.630172" lon="105.062571"><ele>519.5948</ele><time>2026-07-22T02:55:58.000Z</time></trkpt>
        <trkpt lat="28.630169" lon="105.062571"><ele>519.20245</ele><time>2026-07-22T02:56:00.000Z</time></trkpt>
        <trkpt lat="28.63015" lon="105.062574"><ele>518.398</ele><time>2026-07-22T02:56:04.000Z</time></trkpt>
        <trkpt lat="28.63012" lon="105.062578"><ele>517.99066</ele><time>2026-07-22T02:56:06.000Z</time></trkpt>
        <trkpt lat="28.630081" lon="105.062584"><ele>517.87756</ele><time>2026-07-22T02:56:08.000Z</time></trkpt>
        <trkpt lat="28.630057" lon="105.062587"><ele>517.08496</ele><time>2026-07-22T02:56:10.000Z</time></trkpt>
        <trkpt lat="28.630044" lon="105.062589"><ele>517.21606</ele><time>2026-07-22T02:56:12.000Z</time></trkpt>
        <trkpt lat="28.63004" lon="105.062589"><ele>516.89197</ele><time>2026-07-22T02:56:14.000Z</time></trkpt>
        <trkpt lat="28.630028" lon="105.06259"><ele>516.7115</ele><time>2026-07-22T02:56:24.000Z</time></trkpt>
        <trkpt lat="28.630009" lon="105.062592"><ele>516.7458</ele><time>2026-07-22T02:56:26.000Z</time></trkpt>
        <trkpt lat="28.630008" lon="105.062592"><ele>516.4965</ele><time>2026-07-22T02:56:28.000Z</time></trkpt>
        <trkpt lat="28.629991" lon="105.062594"><ele>516.2143</ele><time>2026-07-22T02:56:32.000Z</time></trkpt>
        <trkpt lat="28.629967" lon="105.062596"><ele>516.2545</ele><time>2026-07-22T02:56:34.000Z</time></trkpt>
        <trkpt lat="28.629937" lon="105.062599"><ele>516.45624</ele><time>2026-07-22T02:56:36.000Z</time></trkpt>
        <trkpt lat="28.629908" lon="105.062602"><ele>516.7593</ele><time>2026-07-22T02:56:38.000Z</time></trkpt>
        <trkpt lat="28.629882" lon="105.062604"><ele>517.0512</ele><time>2026-07-22T02:56:40.000Z</time></trkpt>
        <trkpt lat="28.629858" lon="105.062608"><ele>517.14966</ele><time>2026-07-22T02:56:42.000Z</time></trkpt>
        <trkpt lat="28.629837" lon="105.062611"><ele>517.30707</ele><time>2026-07-22T02:56:44.000Z</time></trkpt>
        <trkpt lat="28.629815" lon="105.062616"><ele>517.14355</ele><time>2026-07-22T02:56:46.000Z</time></trkpt>
        <trkpt lat="28.62979" lon="105.062623"><ele>517.35016</ele><time>2026-07-22T02:56:48.000Z</time></trkpt>
        <trkpt lat="28.629765" lon="105.062631"><ele>517.396</ele><time>2026-07-22T02:56:50.000Z</time></trkpt>
        <trkpt lat="28.629748" lon="105.062637"><ele>517.5147</ele><time>2026-07-22T02:56:52.000Z</time></trkpt>
        <trkpt lat="28.629739" lon="105.06264"><ele>517.57635</ele><time>2026-07-22T02:56:54.000Z</time></trkpt>
        <trkpt lat="28.62973" lon="105.062641"><ele>517.4663</ele><time>2026-07-22T02:56:56.000Z</time></trkpt>
        <trkpt lat="28.629719" lon="105.062643"><ele>517.64703</ele><time>2026-07-22T02:56:58.000Z</time></trkpt>
        <trkpt lat="28.629706" lon="105.062644"><ele>517.4931</ele><time>2026-07-22T02:57:00.000Z</time></trkpt>
        <trkpt lat="28.629691" lon="105.062647"><ele>517.54175</ele><time>2026-07-22T02:57:02.000Z</time></trkpt>
        <trkpt lat="28.629675" lon="105.062649"><ele>517.7885</ele><time>2026-07-22T02:57:04.000Z</time></trkpt>
        <trkpt lat="28.629659" lon="105.062652"><ele>517.6662</ele><time>2026-07-22T02:57:06.000Z</time></trkpt>
        <trkpt lat="28.629641" lon="105.062656"><ele>517.74896</ele><time>2026-07-22T02:57:08.000Z</time></trkpt>
        <trkpt lat="28.629622" lon="105.06266"><ele>517.8567</ele><time>2026-07-22T02:57:10.000Z</time></trkpt>
        <trkpt lat="28.629604" lon="105.062665"><ele>517.61957</ele><time>2026-07-22T02:57:12.000Z</time></trkpt>
        <trkpt lat="28.629585" lon="105.06267"><ele>517.7915</ele><time>2026-07-22T02:57:14.000Z</time></trkpt>
        <trkpt lat="28.629567" lon="105.062675"><ele>517.7942</ele><time>2026-07-22T02:57:16.000Z</time></trkpt>
        <trkpt lat="28.62955" lon="105.062679"><ele>517.79504</ele><time>2026-07-22T02:57:18.000Z</time></trkpt>
        <trkpt lat="28.629532" lon="105.062682"><ele>517.87573</ele><time>2026-07-22T02:57:20.000Z</time></trkpt>
        <trkpt lat="28.629516" lon="105.062683"><ele>517.495</ele><time>2026-07-22T02:57:22.000Z</time></trkpt>
        <trkpt lat="28.629499" lon="105.062681"><ele>517.254</ele><time>2026-07-22T02:57:24.000Z</time></trkpt>
        <trkpt lat="28.629484" lon="105.062678"><ele>517.2328</ele><time>2026-07-22T02:57:26.000Z</time></trkpt>
        <trkpt lat="28.629471" lon="105.062673"><ele>517.1179</ele><time>2026-07-22T02:57:28.000Z</time></trkpt>
        <trkpt lat="28.62946" lon="105.062669"><ele>517.34235</ele><time>2026-07-22T02:57:30.000Z</time></trkpt>
        <trkpt lat="28.629455" lon="105.062662"><ele>517.5037</ele><time>2026-07-22T02:57:32.000Z</time></trkpt>
        <trkpt lat="28.629456" lon="105.06266"><ele>517.3602</ele><time>2026-07-22T02:57:36.000Z</time></trkpt>
        <trkpt lat="28.629468" lon="105.062639"><ele>517.3469</ele><time>2026-07-22T02:57:38.000Z</time></trkpt>
        <trkpt lat="28.629448" lon="105.06261"><ele>517.12933</ele><time>2026-07-22T02:57:40.000Z</time></trkpt>
        <trkpt lat="28.629446" lon="105.062608"><ele>516.7998</ele><time>2026-07-22T02:57:42.000Z</time></trkpt>
        <trkpt lat="28.629445" lon="105.062605"><ele>516.7234</ele><time>2026-07-22T02:57:44.000Z</time></trkpt>
        <trkpt lat="28.629427" lon="105.062572"><ele>516.5927</ele><time>2026-07-22T02:57:48.000Z</time></trkpt>
        <trkpt lat="28.629411" lon="105.06255"><ele>516.8178</ele><time>2026-07-22T02:57:50.000Z</time></trkpt>
        <trkpt lat="28.629392" lon="105.062529"><ele>516.98145</ele><time>2026-07-22T02:57:52.000Z</time></trkpt>
        <trkpt lat="28.629373" lon="105.062512"><ele>517.0806</ele><time>2026-07-22T02:57:54.000Z</time></trkpt>
        <trkpt lat="28.629353" lon="105.062498"><ele>516.8733</ele><time>2026-07-22T02:57:56.000Z</time></trkpt>
        <trkpt lat="28.629333" lon="105.062486"><ele>516.70807</ele><time>2026-07-22T02:57:58.000Z</time></trkpt>
        <trkpt lat="28.629313" lon="105.062475"><ele>516.6514</ele><time>2026-07-22T02:58:00.000Z</time></trkpt>
        <trkpt lat="28.629294" lon="105.062467"><ele>516.4115</ele><time>2026-07-22T02:58:02.000Z</time></trkpt>
        <trkpt lat="28.629275" lon="105.062459"><ele>516.3464</ele><time>2026-07-22T02:58:04.000Z</time></trkpt>
        <trkpt lat="28.629255" lon="105.062451"><ele>516.371</ele><time>2026-07-22T02:58:06.000Z</time></trkpt>
        <trkpt lat="28.629236" lon="105.062442"><ele>516.2769</ele><time>2026-07-22T02:58:08.000Z</time></trkpt>
        <trkpt lat="28.629218" lon="105.062431"><ele>516.41724</ele><time>2026-07-22T02:58:10.000Z</time></trkpt>
        <trkpt lat="28.629199" lon="105.06242"><ele>516.49884</ele><time>2026-07-22T02:58:12.000Z</time></trkpt>
        <trkpt lat="28.629184" lon="105.062408"><ele>516.2502</ele><time>2026-07-22T02:58:14.000Z</time></trkpt>
        <trkpt lat="28.62917" lon="105.062394"><ele>516.4289</ele><time>2026-07-22T02:58:16.000Z</time></trkpt>
        <trkpt lat="28.629156" lon="105.062379"><ele>516.4405</ele><time>2026-07-22T02:58:18.000Z</time></trkpt>
        <trkpt lat="28.629144" lon="105.062364"><ele>516.73047</ele><time>2026-07-22T02:58:20.000Z</time></trkpt>
        <trkpt lat="28.629133" lon="105.062348"><ele>516.47076</ele><time>2026-07-22T02:58:22.000Z</time></trkpt>
        <trkpt lat="28.629124" lon="105.062326"><ele>516.8895</ele><time>2026-07-22T02:58:24.000Z</time></trkpt>
        <trkpt lat="28.629116" lon="105.062308"><ele>515.3571</ele><time>2026-07-22T02:58:26.000Z</time></trkpt>
        <trkpt lat="28.62911" lon="105.062292"><ele>515.49255</ele><time>2026-07-22T02:58:28.000Z</time></trkpt>
        <trkpt lat="28.629101" lon="105.06227"><ele>515.935</ele><time>2026-07-22T02:58:30.000Z</time></trkpt>
        <trkpt lat="28.629093" lon="105.062247"><ele>515.5803</ele><time>2026-07-22T02:58:32.000Z</time></trkpt>
        <trkpt lat="28.629084" lon="105.062222"><ele>515.44183</ele><time>2026-07-22T02:58:34.000Z</time></trkpt>
        <trkpt lat="28.629077" lon="105.062198"><ele>515.38965</ele><time>2026-07-22T02:58:36.000Z</time></trkpt>
        <trkpt lat="28.629071" lon="105.062179"><ele>515.2087</ele><time>2026-07-22T02:58:38.000Z</time></trkpt>
        <trkpt lat="28.629066" lon="105.062166"><ele>515.19073</ele><time>2026-07-22T02:58:40.000Z</time></trkpt>
        <trkpt lat="28.629062" lon="105.062156"><ele>515.18994</ele><time>2026-07-22T02:58:42.000Z</time></trkpt>
        <trkpt lat="28.62906" lon="105.062146"><ele>514.91046</ele><time>2026-07-22T02:58:44.000Z</time></trkpt>
        <trkpt lat="28.629058" lon="105.062136"><ele>514.7179</ele><time>2026-07-22T02:58:46.000Z</time></trkpt>
        <trkpt lat="28.629057" lon="105.062124"><ele>514.6047</ele><time>2026-07-22T02:58:48.000Z</time></trkpt>
        <trkpt lat="28.629054" lon="105.062114"><ele>514.2175</ele><time>2026-07-22T02:58:50.000Z</time></trkpt>
        <trkpt lat="28.629052" lon="105.062106"><ele>514.3608</ele><time>2026-07-22T02:58:52.000Z</time></trkpt>
        <trkpt lat="28.629049" lon="105.062095"><ele>514.31757</ele><time>2026-07-22T02:58:54.000Z</time></trkpt>
        <trkpt lat="28.629044" lon="105.062079"><ele>513.90955</ele><time>2026-07-22T02:58:56.000Z</time></trkpt>
        <trkpt lat="28.629038" lon="105.062061"><ele>514.3394</ele><time>2026-07-22T02:58:58.000Z</time></trkpt>
        <trkpt lat="28.629032" lon="105.062043"><ele>514.1485</ele><time>2026-07-22T02:59:00.000Z</time></trkpt>
        <trkpt lat="28.629026" lon="105.062023"><ele>514.06726</ele><time>2026-07-22T02:59:02.000Z</time></trkpt>
        <trkpt lat="28.629022" lon="105.062005"><ele>513.91833</ele><time>2026-07-22T02:59:04.000Z</time></trkpt>
        <trkpt lat="28.629017" lon="105.061989"><ele>513.76135</ele><time>2026-07-22T02:59:06.000Z</time></trkpt>
        <trkpt lat="28.629015" lon="105.061979"><ele>513.7999</ele><time>2026-07-22T02:59:08.000Z</time></trkpt>
        <trkpt lat="28.629013" lon="105.061975"><ele>513.8836</ele><time>2026-07-22T02:59:10.000Z</time></trkpt>
        <trkpt lat="28.629006" lon="105.061958"><ele>514.557</ele><time>2026-07-22T02:59:34.000Z</time></trkpt>
        <trkpt lat="28.629003" lon="105.061951"><ele>514.04504</ele><time>2026-07-22T02:59:36.000Z</time></trkpt>
        <trkpt lat="28.629002" lon="105.061946"><ele>514.1075</ele><time>2026-07-22T02:59:38.000Z</time></trkpt>
        <trkpt lat="28.628991" lon="105.061913"><ele>514.06256</ele><time>2026-07-22T02:59:54.000Z</time></trkpt>
        <trkpt lat="28.628984" lon="105.061894"><ele>513.93207</ele><time>2026-07-22T02:59:56.000Z</time></trkpt>
        <trkpt lat="28.628983" lon="105.061892"><ele>514.23956</ele><time>2026-07-22T02:59:58.000Z</time></trkpt>
        <trkpt lat="28.628975" lon="105.061874"><ele>513.5824</ele><time>2026-07-22T03:00:08.000Z</time></trkpt>
        <trkpt lat="28.628967" lon="105.061856"><ele>513.41156</ele><time>2026-07-22T03:00:10.000Z</time></trkpt>
        <trkpt lat="28.628967" lon="105.061855"><ele>513.26685</ele><time>2026-07-22T03:00:12.000Z</time></trkpt>
        <trkpt lat="28.62896" lon="105.061837"><ele>512.98914</ele><time>2026-07-22T03:00:16.000Z</time></trkpt>
        <trkpt lat="28.628951" lon="105.061812"><ele>513.01526</ele><time>2026-07-22T03:00:18.000Z</time></trkpt>
        <trkpt lat="28.628941" lon="105.061778"><ele>512.69727</ele><time>2026-07-22T03:00:20.000Z</time></trkpt>
        <trkpt lat="28.628935" lon="105.061744"><ele>512.63715</ele><time>2026-07-22T03:00:22.000Z</time></trkpt>
        <trkpt lat="28.628931" lon="105.06171"><ele>512.4321</ele><time>2026-07-22T03:00:24.000Z</time></trkpt>
        <trkpt lat="28.628931" lon="105.061679"><ele>512.5791</ele><time>2026-07-22T03:00:26.000Z</time></trkpt>
        <trkpt lat="28.628932" lon="105.06165"><ele>512.30145</ele><time>2026-07-22T03:00:28.000Z</time></trkpt>
        <trkpt lat="28.628935" lon="105.061623"><ele>512.57056</ele><time>2026-07-22T03:00:30.000Z</time></trkpt>
        <trkpt lat="28.628938" lon="105.061598"><ele>512.453</ele><time>2026-07-22T03:00:32.000Z</time></trkpt>
        <trkpt lat="28.628942" lon="105.061575"><ele>512.1754</ele><time>2026-07-22T03:00:34.000Z</time></trkpt>
        <trkpt lat="28.628948" lon="105.061552"><ele>512.137</ele><time>2026-07-22T03:00:36.000Z</time></trkpt>
        <trkpt lat="28.628953" lon="105.061534"><ele>511.26767</ele><time>2026-07-22T03:00:38.000Z</time></trkpt>
        <trkpt lat="28.628959" lon="105.061517"><ele>510.68634</ele><time>2026-07-22T03:00:40.000Z</time></trkpt>
        <trkpt lat="28.628964" lon="105.061501"><ele>510.40265</ele><time>2026-07-22T03:00:42.000Z</time></trkpt>
        <trkpt lat="28.628968" lon="105.061487"><ele>509.9929</ele><time>2026-07-22T03:00:44.000Z</time></trkpt>
        <trkpt lat="28.628971" lon="105.061472"><ele>509.557</ele><time>2026-07-22T03:00:46.000Z</time></trkpt>
        <trkpt lat="28.628975" lon="105.061457"><ele>509.1093</ele><time>2026-07-22T03:00:48.000Z</time></trkpt>
        <trkpt lat="28.628978" lon="105.061443"><ele>508.7452</ele><time>2026-07-22T03:00:50.000Z</time></trkpt>
        <trkpt lat="28.62898" lon="105.061426"><ele>508.55154</ele><time>2026-07-22T03:00:52.000Z</time></trkpt>
        <trkpt lat="28.628983" lon="105.06141"><ele>507.38727</ele><time>2026-07-22T03:00:54.000Z</time></trkpt>
        <trkpt lat="28.628985" lon="105.061391"><ele>508.09488</ele><time>2026-07-22T03:00:56.000Z</time></trkpt>
        <trkpt lat="28.628988" lon="105.061374"><ele>507.61746</ele><time>2026-07-22T03:00:58.000Z</time></trkpt>
        <trkpt lat="28.628991" lon="105.061359"><ele>507.01526</ele><time>2026-07-22T03:01:00.000Z</time></trkpt>
        <trkpt lat="28.628993" lon="105.061346"><ele>506.65097</ele><time>2026-07-22T03:01:02.000Z</time></trkpt>
        <trkpt lat="28.628995" lon="105.061332"><ele>506.13315</ele><time>2026-07-22T03:01:04.000Z</time></trkpt>
        <trkpt lat="28.628996" lon="105.061319"><ele>505.57</ele><time>2026-07-22T03:01:06.000Z</time></trkpt>
        <trkpt lat="28.628997" lon="105.061304"><ele>505.1665</ele><time>2026-07-22T03:01:08.000Z</time></trkpt>
        <trkpt lat="28.628995" lon="105.061288"><ele>504.90784</ele><time>2026-07-22T03:01:10.000Z</time></trkpt>
        <trkpt lat="28.628991" lon="105.061272"><ele>504.64642</ele><time>2026-07-22T03:01:12.000Z</time></trkpt>
        <trkpt lat="28.628986" lon="105.061256"><ele>504.31174</ele><time>2026-07-22T03:01:14.000Z</time></trkpt>
        <trkpt lat="28.628979" lon="105.06124"><ele>504.10825</ele><time>2026-07-22T03:01:16.000Z</time></trkpt>
        <trkpt lat="28.628972" lon="105.061224"><ele>503.7145</ele><time>2026-07-22T03:01:18.000Z</time></trkpt>
        <trkpt lat="28.628965" lon="105.06121"><ele>503.57626</ele><time>2026-07-22T03:01:20.000Z</time></trkpt>
        <trkpt lat="28.628956" lon="105.061194"><ele>502.9541</ele><time>2026-07-22T03:01:22.000Z</time></trkpt>
        <trkpt lat="28.628946" lon="105.061177"><ele>502.51547</ele><time>2026-07-22T03:01:24.000Z</time></trkpt>
        <trkpt lat="28.628934" lon="105.061159"><ele>502.23297</ele><time>2026-07-22T03:01:26.000Z</time></trkpt>
        <trkpt lat="28.628921" lon="105.06114"><ele>501.89795</ele><time>2026-07-22T03:01:28.000Z</time></trkpt>
        <trkpt lat="28.628909" lon="105.061121"><ele>502.60342</ele><time>2026-07-22T03:01:30.000Z</time></trkpt>
        <trkpt lat="28.628894" lon="105.061097"><ele>501.5202</ele><time>2026-07-22T03:01:32.000Z</time></trkpt>
        <trkpt lat="28.62888" lon="105.061074"><ele>500.66388</ele><time>2026-07-22T03:01:34.000Z</time></trkpt>
        <trkpt lat="28.628865" lon="105.061048"><ele>500.18524</ele><time>2026-07-22T03:01:36.000Z</time></trkpt>
        <trkpt lat="28.628852" lon="105.061024"><ele>500.00317</ele><time>2026-07-22T03:01:38.000Z</time></trkpt>
        <trkpt lat="28.628841" lon="105.060998"><ele>499.91522</ele><time>2026-07-22T03:01:40.000Z</time></trkpt>
        <trkpt lat="28.628833" lon="105.060974"><ele>499.3022</ele><time>2026-07-22T03:01:42.000Z</time></trkpt>
        <trkpt lat="28.628829" lon="105.060951"><ele>498.49216</ele><time>2026-07-22T03:01:44.000Z</time></trkpt>
        <trkpt lat="28.628827" lon="105.060927"><ele>497.9257</ele><time>2026-07-22T03:01:46.000Z</time></trkpt>
        <trkpt lat="28.628826" lon="105.060901"><ele>498.13812</ele><time>2026-07-22T03:01:48.000Z</time></trkpt>
        <trkpt lat="28.628828" lon="105.060879"><ele>497.76663</ele><time>2026-07-22T03:01:50.000Z</time></trkpt>
        <trkpt lat="28.628832" lon="105.060864"><ele>497.2632</ele><time>2026-07-22T03:01:52.000Z</time></trkpt>
        <trkpt lat="28.628836" lon="105.060857"><ele>497.2809</ele><time>2026-07-22T03:01:54.000Z</time></trkpt>
        <trkpt lat="28.628837" lon="105.060848"><ele>496.94687</ele><time>2026-07-22T03:01:58.000Z</time></trkpt>
        <trkpt lat="28.628835" lon="105.060845"><ele>496.50156</ele><time>2026-07-22T03:02:00.000Z</time></trkpt>
        <trkpt lat="28.628823" lon="105.060815"><ele>495.11758</ele><time>2026-07-22T03:02:03.000Z</time></trkpt>
        <trkpt lat="28.628823" lon="105.060815"><ele>495.41653</ele><time>2026-07-22T03:02:05.000Z</time></trkpt>
        <trkpt lat="28.628824" lon="105.060813"><ele>494.9395</ele><time>2026-07-22T03:02:07.000Z</time></trkpt>
        <trkpt lat="28.628846" lon="105.060781"><ele>495.53812</ele><time>2026-07-22T03:02:13.000Z</time></trkpt>
        <trkpt lat="28.628846" lon="105.060781"><ele>495.40677</ele><time>2026-07-22T03:02:15.000Z</time></trkpt>
        <trkpt lat="28.628861" lon="105.060769"><ele>495.94177</ele><time>2026-07-22T03:02:17.000Z</time></trkpt>
        <trkpt lat="28.628876" lon="105.060762"><ele>493.36377</ele><time>2026-07-22T03:02:23.000Z</time></trkpt>
        <trkpt lat="28.628895" lon="105.060757"><ele>493.3358</ele><time>2026-07-22T03:02:25.000Z</time></trkpt>
        <trkpt lat="28.62892" lon="105.060756"><ele>493.17706</ele><time>2026-07-22T03:02:27.000Z</time></trkpt>
        <trkpt lat="28.628944" lon="105.060759"><ele>493.13055</ele><time>2026-07-22T03:02:29.000Z</time></trkpt>
        <trkpt lat="28.628964" lon="105.060767"><ele>492.78476</ele><time>2026-07-22T03:02:31.000Z</time></trkpt>
        <trkpt lat="28.628981" lon="105.060779"><ele>492.44922</ele><time>2026-07-22T03:02:33.000Z</time></trkpt>
        <trkpt lat="28.628996" lon="105.060794"><ele>492.28842</ele><time>2026-07-22T03:02:35.000Z</time></trkpt>
        <trkpt lat="28.629009" lon="105.060811"><ele>492.1812</ele><time>2026-07-22T03:02:37.000Z</time></trkpt>
        <trkpt lat="28.629019" lon="105.06083"><ele>491.71164</ele><time>2026-07-22T03:02:39.000Z</time></trkpt>
        <trkpt lat="28.629031" lon="105.060851"><ele>491.3638</ele><time>2026-07-22T03:02:41.000Z</time></trkpt>
        <trkpt lat="28.629045" lon="105.060872"><ele>491.61346</ele><time>2026-07-22T03:02:43.000Z</time></trkpt>
        <trkpt lat="28.62906" lon="105.060891"><ele>490.82895</ele><time>2026-07-22T03:02:45.000Z</time></trkpt>
        <trkpt lat="28.629077" lon="105.060907"><ele>490.70218</ele><time>2026-07-22T03:02:47.000Z</time></trkpt>
        <trkpt lat="28.629097" lon="105.060921"><ele>490.6388</ele><time>2026-07-22T03:02:49.000Z</time></trkpt>
        <trkpt lat="28.629117" lon="105.060931"><ele>490.23654</ele><time>2026-07-22T03:02:51.000Z</time></trkpt>
        <trkpt lat="28.629138" lon="105.060938"><ele>489.83237</ele><time>2026-07-22T03:02:53.000Z</time></trkpt>
        <trkpt lat="28.62916" lon="105.060939"><ele>489.43506</ele><time>2026-07-22T03:02:55.000Z</time></trkpt>
        <trkpt lat="28.629183" lon="105.060934"><ele>489.79138</ele><time>2026-07-22T03:02:57.000Z</time></trkpt>
        <trkpt lat="28.629208" lon="105.060921"><ele>489.14893</ele><time>2026-07-22T03:02:59.000Z</time></trkpt>
        <trkpt lat="28.629224" lon="105.060907"><ele>490.4464</ele><time>2026-07-22T03:03:01.000Z</time></trkpt>
        <trkpt lat="28.629237" lon="105.060889"><ele>489.44058</ele><time>2026-07-22T03:03:03.000Z</time></trkpt>
        <trkpt lat="28.629251" lon="105.060873"><ele>490.26935</ele><time>2026-07-22T03:03:05.000Z</time></trkpt>
        <trkpt lat="28.629262" lon="105.060861"><ele>488.09567</ele><time>2026-07-22T03:03:07.000Z</time></trkpt>
        <trkpt lat="28.629272" lon="105.060845"><ele>487.6137</ele><time>2026-07-22T03:03:09.000Z</time></trkpt>
        <trkpt lat="28.629275" lon="105.060828"><ele>486.36658</ele><time>2026-07-22T03:03:11.000Z</time></trkpt>
        <trkpt lat="28.629271" lon="105.060816"><ele>485.61996</ele><time>2026-07-22T03:03:13.000Z</time></trkpt>
        <trkpt lat="28.629262" lon="105.060801"><ele>485.03302</ele><time>2026-07-22T03:03:15.000Z</time></trkpt>
        <trkpt lat="28.629249" lon="105.060782"><ele>484.7689</ele><time>2026-07-22T03:03:17.000Z</time></trkpt>
        <trkpt lat="28.629233" lon="105.060758"><ele>484.7118</ele><time>2026-07-22T03:03:19.000Z</time></trkpt>
        <trkpt lat="28.629219" lon="105.060734"><ele>484.3247</ele><time>2026-07-22T03:03:21.000Z</time></trkpt>
        <trkpt lat="28.629206" lon="105.060709"><ele>484.25525</ele><time>2026-07-22T03:03:23.000Z</time></trkpt>
        <trkpt lat="28.629197" lon="105.06068"><ele>483.6524</ele><time>2026-07-22T03:03:25.000Z</time></trkpt>
        <trkpt lat="28.629193" lon="105.060649"><ele>484.10104</ele><time>2026-07-22T03:03:27.000Z</time></trkpt>
        <trkpt lat="28.629193" lon="105.060623"><ele>483.19135</ele><time>2026-07-22T03:03:29.000Z</time></trkpt>
        <trkpt lat="28.629195" lon="105.060598"><ele>482.94653</ele><time>2026-07-22T03:03:31.000Z</time></trkpt>
        <trkpt lat="28.629199" lon="105.060575"><ele>482.0876</ele><time>2026-07-22T03:03:33.000Z</time></trkpt>
        <trkpt lat="28.629203" lon="105.060553"><ele>482.0481</ele><time>2026-07-22T03:03:35.000Z</time></trkpt>
        <trkpt lat="28.629206" lon="105.06053"><ele>481.48843</ele><time>2026-07-22T03:03:37.000Z</time></trkpt>
        <trkpt lat="28.629205" lon="105.060511"><ele>481.1453</ele><time>2026-07-22T03:03:39.000Z</time></trkpt>
        <trkpt lat="28.629202" lon="105.060493"><ele>480.11832</ele><time>2026-07-22T03:03:41.000Z</time></trkpt>
        <trkpt lat="28.629198" lon="105.060473"><ele>480.1168</ele><time>2026-07-22T03:03:43.000Z</time></trkpt>
        <trkpt lat="28.629193" lon="105.060452"><ele>480.28925</ele><time>2026-07-22T03:03:45.000Z</time></trkpt>
        <trkpt lat="28.629186" lon="105.06043"><ele>480.13394</ele><time>2026-07-22T03:03:47.000Z</time></trkpt>
        <trkpt lat="28.62918" lon="105.060407"><ele>479.54984</ele><time>2026-07-22T03:03:49.000Z</time></trkpt>
        <trkpt lat="28.629181" lon="105.060388"><ele>478.59656</ele><time>2026-07-22T03:03:51.000Z</time></trkpt>
        <trkpt lat="28.629184" lon="105.06037"><ele>478.53973</ele><time>2026-07-22T03:03:53.000Z</time></trkpt>
        <trkpt lat="28.629186" lon="105.060356"><ele>477.87296</ele><time>2026-07-22T03:03:55.000Z</time></trkpt>
        <trkpt lat="28.629191" lon="105.060343"><ele>477.9336</ele><time>2026-07-22T03:03:57.000Z</time></trkpt>
        <trkpt lat="28.6292" lon="105.060332"><ele>478.3552</ele><time>2026-07-22T03:03:59.000Z</time></trkpt>
        <trkpt lat="28.62921" lon="105.060322"><ele>477.50858</ele><time>2026-07-22T03:04:01.000Z</time></trkpt>
        <trkpt lat="28.629224" lon="105.060313"><ele>476.52036</ele><time>2026-07-22T03:04:03.000Z</time></trkpt>
        <trkpt lat="28.629236" lon="105.060304"><ele>476.02682</ele><time>2026-07-22T03:04:05.000Z</time></trkpt>
        <trkpt lat="28.629251" lon="105.060292"><ele>476.34067</ele><time>2026-07-22T03:04:07.000Z</time></trkpt>
        <trkpt lat="28.629267" lon="105.060278"><ele>475.0693</ele><time>2026-07-22T03:04:09.000Z</time></trkpt>
        <trkpt lat="28.629284" lon="105.060259"><ele>474.464</ele><time>2026-07-22T03:04:11.000Z</time></trkpt>
        <trkpt lat="28.629302" lon="105.060236"><ele>474.5812</ele><time>2026-07-22T03:04:13.000Z</time></trkpt>
        <trkpt lat="28.629317" lon="105.060213"><ele>474.12955</ele><time>2026-07-22T03:04:15.000Z</time></trkpt>
        <trkpt lat="28.629328" lon="105.060189"><ele>473.77643</ele><time>2026-07-22T03:04:17.000Z</time></trkpt>
        <trkpt lat="28.629338" lon="105.060166"><ele>474.51715</ele><time>2026-07-22T03:04:19.000Z</time></trkpt>
        <trkpt lat="28.62935" lon="105.060141"><ele>474.79666</ele><time>2026-07-22T03:04:21.000Z</time></trkpt>
        <trkpt lat="28.629361" lon="105.060115"><ele>475.95584</ele><time>2026-07-22T03:04:23.000Z</time></trkpt>
        <trkpt lat="28.629368" lon="105.060096"><ele>476.48444</ele><time>2026-07-22T03:04:25.000Z</time></trkpt>
        <trkpt lat="28.629372" lon="105.060077"><ele>477.52893</ele><time>2026-07-22T03:04:27.000Z</time></trkpt>
        <trkpt lat="28.629373" lon="105.060055"><ele>478.1765</ele><time>2026-07-22T03:04:29.000Z</time></trkpt>
        <trkpt lat="28.629373" lon="105.060033"><ele>479.14642</ele><time>2026-07-22T03:04:31.000Z</time></trkpt>
        <trkpt lat="28.629369" lon="105.060015"><ele>479.75806</ele><time>2026-07-22T03:04:33.000Z</time></trkpt>
        <trkpt lat="28.629364" lon="105.059996"><ele>479.89926</ele><time>2026-07-22T03:04:35.000Z</time></trkpt>
        <trkpt lat="28.629358" lon="105.059983"><ele>480.37552</ele><time>2026-07-22T03:04:37.000Z</time></trkpt>
        <trkpt lat="28.62935" lon="105.059965"><ele>480.54306</ele><time>2026-07-22T03:04:39.000Z</time></trkpt>
        <trkpt lat="28.629343" lon="105.059946"><ele>481.48618</ele><time>2026-07-22T03:04:41.000Z</time></trkpt>
        <trkpt lat="28.629341" lon="105.059926"><ele>481.13837</ele><time>2026-07-22T03:04:43.000Z</time></trkpt>
        <trkpt lat="28.629343" lon="105.059904"><ele>480.75583</ele><time>2026-07-22T03:04:45.000Z</time></trkpt>
        <trkpt lat="28.629352" lon="105.059888"><ele>481.27264</ele><time>2026-07-22T03:04:47.000Z</time></trkpt>
        <trkpt lat="28.629366" lon="105.059874"><ele>482.2223</ele><time>2026-07-22T03:04:49.000Z</time></trkpt>
        <trkpt lat="28.62938" lon="105.059871"><ele>482.21268</ele><time>2026-07-22T03:04:51.000Z</time></trkpt>
        <trkpt lat="28.629403" lon="105.059873"><ele>482.28995</ele><time>2026-07-22T03:04:53.000Z</time></trkpt>
        <trkpt lat="28.629422" lon="105.059881"><ele>482.68054</ele><time>2026-07-22T03:04:55.000Z</time></trkpt>
        <trkpt lat="28.629443" lon="105.059894"><ele>484.34576</ele><time>2026-07-22T03:04:57.000Z</time></trkpt>
        <trkpt lat="28.629461" lon="105.059907"><ele>484.41516</ele><time>2026-07-22T03:04:59.000Z</time></trkpt>
        <trkpt lat="28.62948" lon="105.05992"><ele>484.24643</ele><time>2026-07-22T03:05:01.000Z</time></trkpt>
        <trkpt lat="28.629497" lon="105.059932"><ele>483.64206</ele><time>2026-07-22T03:05:03.000Z</time></trkpt>
        <trkpt lat="28.629508" lon="105.059942"><ele>485.31244</ele><time>2026-07-22T03:05:05.000Z</time></trkpt>
        <trkpt lat="28.629524" lon="105.059949"><ele>484.32788</ele><time>2026-07-22T03:05:07.000Z</time></trkpt>
        <trkpt lat="28.629538" lon="105.059954"><ele>485.21082</ele><time>2026-07-22T03:05:09.000Z</time></trkpt>
        <trkpt lat="28.629551" lon="105.059957"><ele>485.1413</ele><time>2026-07-22T03:05:11.000Z</time></trkpt>
        <trkpt lat="28.629564" lon="105.059958"><ele>483.42847</ele><time>2026-07-22T03:05:13.000Z</time></trkpt>
        <trkpt lat="28.629586" lon="105.059958"><ele>483.4089</ele><time>2026-07-22T03:05:15.000Z</time></trkpt>
        <trkpt lat="28.629602" lon="105.059959"><ele>483.15366</ele><time>2026-07-22T03:05:17.000Z</time></trkpt>
        <trkpt lat="28.629627" lon="105.059959"><ele>485.70206</ele><time>2026-07-22T03:05:19.000Z</time></trkpt>
        <trkpt lat="28.629646" lon="105.059963"><ele>485.91446</ele><time>2026-07-22T03:05:21.000Z</time></trkpt>
        <trkpt lat="28.629667" lon="105.05997"><ele>488.0496</ele><time>2026-07-22T03:05:23.000Z</time></trkpt>
        <trkpt lat="28.629685" lon="105.059971"><ele>486.1362</ele><time>2026-07-22T03:05:25.000Z</time></trkpt>
        <trkpt lat="28.6297" lon="105.059969"><ele>486.28168</ele><time>2026-07-22T03:05:27.000Z</time></trkpt>
        <trkpt lat="28.629715" lon="105.059964"><ele>486.13855</ele><time>2026-07-22T03:05:29.000Z</time></trkpt>
        <trkpt lat="28.62973" lon="105.059956"><ele>486.1673</ele><time>2026-07-22T03:05:31.000Z</time></trkpt>
        <trkpt lat="28.629743" lon="105.059947"><ele>485.615</ele><time>2026-07-22T03:05:33.000Z</time></trkpt>
        <trkpt lat="28.629756" lon="105.059938"><ele>485.4419</ele><time>2026-07-22T03:05:35.000Z</time></trkpt>
        <trkpt lat="28.629767" lon="105.05993"><ele>485.52856</ele><time>2026-07-22T03:05:37.000Z</time></trkpt>
        <trkpt lat="28.629779" lon="105.059922"><ele>485.3282</ele><time>2026-07-22T03:05:39.000Z</time></trkpt>
        <trkpt lat="28.629788" lon="105.059916"><ele>485.98032</ele><time>2026-07-22T03:05:41.000Z</time></trkpt>
        <trkpt lat="28.629793" lon="105.059913"><ele>485.98798</ele><time>2026-07-22T03:05:43.000Z</time></trkpt>
        <trkpt lat="28.629814" lon="105.059906"><ele>487.47784</ele><time>2026-07-22T03:05:47.000Z</time></trkpt>
        <trkpt lat="28.629828" lon="105.059906"><ele>488.22842</ele><time>2026-07-22T03:05:49.000Z</time></trkpt>
        <trkpt lat="28.629841" lon="105.059905"><ele>488.61234</ele><time>2026-07-22T03:05:51.000Z</time></trkpt>
        <trkpt lat="28.629855" lon="105.059903"><ele>489.0439</ele><time>2026-07-22T03:05:53.000Z</time></trkpt>
        <trkpt lat="28.629869" lon="105.0599"><ele>489.44016</ele><time>2026-07-22T03:05:55.000Z</time></trkpt>
        <trkpt lat="28.629887" lon="105.059896"><ele>489.43652</ele><time>2026-07-22T03:05:57.000Z</time></trkpt>
        <trkpt lat="28.629902" lon="105.059891"><ele>489.99002</ele><time>2026-07-22T03:05:59.000Z</time></trkpt>
        <trkpt lat="28.629918" lon="105.059885"><ele>489.86392</ele><time>2026-07-22T03:06:01.000Z</time></trkpt>
        <trkpt lat="28.629932" lon="105.059879"><ele>490.9853</ele><time>2026-07-22T03:06:03.000Z</time></trkpt>
        <trkpt lat="28.629942" lon="105.059872"><ele>491.1107</ele><time>2026-07-22T03:06:05.000Z</time></trkpt>
        <trkpt lat="28.629954" lon="105.059864"><ele>491.4104</ele><time>2026-07-22T03:06:07.000Z</time></trkpt>
        <trkpt lat="28.629968" lon="105.059857"><ele>491.6878</ele><time>2026-07-22T03:06:09.000Z</time></trkpt>
        <trkpt lat="28.62998" lon="105.05985"><ele>492.21487</ele><time>2026-07-22T03:06:11.000Z</time></trkpt>
        <trkpt lat="28.629993" lon="105.059843"><ele>492.35455</ele><time>2026-07-22T03:06:13.000Z</time></trkpt>
        <trkpt lat="28.630004" lon="105.059839"><ele>492.84274</ele><time>2026-07-22T03:06:15.000Z</time></trkpt>
        <trkpt lat="28.630019" lon="105.059833"><ele>493.16403</ele><time>2026-07-22T03:06:17.000Z</time></trkpt>
        <trkpt lat="28.630034" lon="105.059826"><ele>493.1617</ele><time>2026-07-22T03:06:19.000Z</time></trkpt>
        <trkpt lat="28.630052" lon="105.059817"><ele>493.39914</ele><time>2026-07-22T03:06:21.000Z</time></trkpt>
        <trkpt lat="28.630071" lon="105.059807"><ele>494.02142</ele><time>2026-07-22T03:06:23.000Z</time></trkpt>
        <trkpt lat="28.630088" lon="105.059798"><ele>494.12375</ele><time>2026-07-22T03:06:25.000Z</time></trkpt>
        <trkpt lat="28.630104" lon="105.05979"><ele>494.01303</ele><time>2026-07-22T03:06:27.000Z</time></trkpt>
        <trkpt lat="28.630117" lon="105.059783"><ele>494.61386</ele><time>2026-07-22T03:06:29.000Z</time></trkpt>
        <trkpt lat="28.630133" lon="105.059774"><ele>494.7989</ele><time>2026-07-22T03:06:31.000Z</time></trkpt>
        <trkpt lat="28.630148" lon="105.059766"><ele>495.2657</ele><time>2026-07-22T03:06:33.000Z</time></trkpt>
        <trkpt lat="28.630162" lon="105.059756"><ele>495.36633</ele><time>2026-07-22T03:06:35.000Z</time></trkpt>
        <trkpt lat="28.630177" lon="105.059744"><ele>495.65765</ele><time>2026-07-22T03:06:37.000Z</time></trkpt>
        <trkpt lat="28.63019" lon="105.059732"><ele>496.49164</ele><time>2026-07-22T03:06:39.000Z</time></trkpt>
        <trkpt lat="28.630205" lon="105.059716"><ele>496.46182</ele><time>2026-07-22T03:06:41.000Z</time></trkpt>
        <trkpt lat="28.630221" lon="105.0597"><ele>496.73907</ele><time>2026-07-22T03:06:43.000Z</time></trkpt>
        <trkpt lat="28.630236" lon="105.059685"><ele>496.06277</ele><time>2026-07-22T03:06:45.000Z</time></trkpt>
        <trkpt lat="28.63025" lon="105.059671"><ele>497.03714</ele><time>2026-07-22T03:06:47.000Z</time></trkpt>
        <trkpt lat="28.630262" lon="105.059658"><ele>497.58368</ele><time>2026-07-22T03:06:49.000Z</time></trkpt>
        <trkpt lat="28.630273" lon="105.059646"><ele>498.1224</ele><time>2026-07-22T03:06:51.000Z</time></trkpt>
        <trkpt lat="28.630287" lon="105.059632"><ele>497.91296</ele><time>2026-07-22T03:06:53.000Z</time></trkpt>
        <trkpt lat="28.630296" lon="105.059621"><ele>498.00372</ele><time>2026-07-22T03:06:55.000Z</time></trkpt>
        <trkpt lat="28.63031" lon="105.059609"><ele>498.8123</ele><time>2026-07-22T03:06:57.000Z</time></trkpt>
        <trkpt lat="28.630322" lon="105.059598"><ele>498.60187</ele><time>2026-07-22T03:06:59.000Z</time></trkpt>
        <trkpt lat="28.630336" lon="105.059587"><ele>499.24606</ele><time>2026-07-22T03:07:01.000Z</time></trkpt>
        <trkpt lat="28.630345" lon="105.059576"><ele>499.33173</ele><time>2026-07-22T03:07:03.000Z</time></trkpt>
        <trkpt lat="28.630358" lon="105.059563"><ele>499.57428</ele><time>2026-07-22T03:07:05.000Z</time></trkpt>
        <trkpt lat="28.630371" lon="105.059549"><ele>499.4031</ele><time>2026-07-22T03:07:07.000Z</time></trkpt>
        <trkpt lat="28.630384" lon="105.059533"><ele>499.7711</ele><time>2026-07-22T03:07:09.000Z</time></trkpt>
        <trkpt lat="28.630398" lon="105.059516"><ele>499.40543</ele><time>2026-07-22T03:07:11.000Z</time></trkpt>
        <trkpt lat="28.63041" lon="105.0595"><ele>499.5009</ele><time>2026-07-22T03:07:13.000Z</time></trkpt>
        <trkpt lat="28.630422" lon="105.059482"><ele>499.409</ele><time>2026-07-22T03:07:15.000Z</time></trkpt>
        <trkpt lat="28.630432" lon="105.059465"><ele>500.04858</ele><time>2026-07-22T03:07:17.000Z</time></trkpt>
        <trkpt lat="28.630448" lon="105.059444"><ele>500.07782</ele><time>2026-07-22T03:07:19.000Z</time></trkpt>
        <trkpt lat="28.630464" lon="105.059428"><ele>500.07904</ele><time>2026-07-22T03:07:21.000Z</time></trkpt>
        <trkpt lat="28.630478" lon="105.059414"><ele>500.08667</ele><time>2026-07-22T03:07:23.000Z</time></trkpt>
        <trkpt lat="28.630496" lon="105.0594"><ele>500.117</ele><time>2026-07-22T03:07:25.000Z</time></trkpt>
        <trkpt lat="28.630514" lon="105.059388"><ele>500.37207</ele><time>2026-07-22T03:07:27.000Z</time></trkpt>
        <trkpt lat="28.630531" lon="105.059379"><ele>500.7669</ele><time>2026-07-22T03:07:29.000Z</time></trkpt>
        <trkpt lat="28.630551" lon="105.059368"><ele>501.79053</ele><time>2026-07-22T03:07:31.000Z</time></trkpt>
        <trkpt lat="28.630571" lon="105.059361"><ele>501.61554</ele><time>2026-07-22T03:07:33.000Z</time></trkpt>
        <trkpt lat="28.630589" lon="105.059356"><ele>500.88507</ele><time>2026-07-22T03:07:35.000Z</time></trkpt>
        <trkpt lat="28.630611" lon="105.059353"><ele>501.54056</ele><time>2026-07-22T03:07:37.000Z</time></trkpt>
        <trkpt lat="28.630634" lon="105.059352"><ele>501.1611</ele><time>2026-07-22T03:07:39.000Z</time></trkpt>
        <trkpt lat="28.630656" lon="105.059354"><ele>501.761</ele><time>2026-07-22T03:07:41.000Z</time></trkpt>
        <trkpt lat="28.630677" lon="105.059355"><ele>502.71945</ele><time>2026-07-22T03:07:43.000Z</time></trkpt>
        <trkpt lat="28.6307" lon="105.059359"><ele>502.78204</ele><time>2026-07-22T03:07:45.000Z</time></trkpt>
        <trkpt lat="28.630723" lon="105.059366"><ele>501.6778</ele><time>2026-07-22T03:07:47.000Z</time></trkpt>
        <trkpt lat="28.630743" lon="105.059374"><ele>501.30035</ele><time>2026-07-22T03:07:49.000Z</time></trkpt>
        <trkpt lat="28.63076" lon="105.059381"><ele>501.58264</ele><time>2026-07-22T03:07:51.000Z</time></trkpt>
        <trkpt lat="28.63077" lon="105.059387"><ele>502.4191</ele><time>2026-07-22T03:07:53.000Z</time></trkpt>
        <trkpt lat="28.630772" lon="105.059385"><ele>502.84232</ele><time>2026-07-22T03:07:55.000Z</time></trkpt>
        <trkpt lat="28.630775" lon="105.05938"><ele>501.98868</ele><time>2026-07-22T03:07:59.000Z</time></trkpt>
        <trkpt lat="28.630781" lon="105.059366"><ele>503.45667</ele><time>2026-07-22T03:08:03.000Z</time></trkpt>
        <trkpt lat="28.630783" lon="105.05936"><ele>502.86984</ele><time>2026-07-22T03:08:05.000Z</time></trkpt>
        <trkpt lat="28.630786" lon="105.059357"><ele>502.8378</ele><time>2026-07-22T03:08:07.000Z</time></trkpt>
        <trkpt lat="28.630796" lon="105.059335"><ele>503.5261</ele><time>2026-07-22T03:08:09.000Z</time></trkpt>
        <trkpt lat="28.630844" lon="105.05923"><ele>501.9441</ele><time>2026-07-22T03:08:12.000Z</time></trkpt>
        <trkpt lat="28.630845" lon="105.059229"><ele>501.42438</ele><time>2026-07-22T03:08:14.000Z</time></trkpt>
        <trkpt lat="28.630855" lon="105.059214"><ele>500.89642</ele><time>2026-07-22T03:08:16.000Z</time></trkpt>
        <trkpt lat="28.630901" lon="105.05914"><ele>500.1652</ele><time>2026-07-22T03:08:18.000Z</time></trkpt>
        <trkpt lat="28.630988" lon="105.059003"><ele>499.5831</ele><time>2026-07-22T03:08:20.000Z</time></trkpt>
        <trkpt lat="28.63105" lon="105.058817"><ele>501.3494</ele><time>2026-07-22T03:08:22.000Z</time></trkpt>
        <trkpt lat="28.631073" lon="105.058636"><ele>502.11917</ele><time>2026-07-22T03:08:24.000Z</time></trkpt>
        <trkpt lat="28.631058" lon="105.058483"><ele>502.82382</ele><time>2026-07-22T03:08:26.000Z</time></trkpt>
        <trkpt lat="28.631039" lon="105.058337"><ele>502.6579</ele><time>2026-07-22T03:08:28.000Z</time></trkpt>
        <trkpt lat="28.631028" lon="105.058197"><ele>502.9525</ele><time>2026-07-22T03:08:30.000Z</time></trkpt>
        <trkpt lat="28.631023" lon="105.058076"><ele>502.63086</ele><time>2026-07-22T03:08:32.000Z</time></trkpt>
        <trkpt lat="28.631019" lon="105.057973"><ele>502.1966</ele><time>2026-07-22T03:08:34.000Z</time></trkpt>
        <trkpt lat="28.631013" lon="105.057891"><ele>502.03424</ele><time>2026-07-22T03:08:36.000Z</time></trkpt>
        <trkpt lat="28.631001" lon="105.057823"><ele>501.8377</ele><time>2026-07-22T03:08:38.000Z</time></trkpt>
        <trkpt lat="28.630981" lon="105.057746"><ele>502.21063</ele><time>2026-07-22T03:08:40.000Z</time></trkpt>
        <trkpt lat="28.630955" lon="105.057665"><ele>501.64627</ele><time>2026-07-22T03:08:42.000Z</time></trkpt>
        <trkpt lat="28.630927" lon="105.057585"><ele>500.65634</ele><time>2026-07-22T03:08:44.000Z</time></trkpt>
        <trkpt lat="28.630902" lon="105.057507"><ele>499.80542</ele><time>2026-07-22T03:08:46.000Z</time></trkpt>
        <trkpt lat="28.630877" lon="105.057436"><ele>499.6764</ele><time>2026-07-22T03:08:48.000Z</time></trkpt>
        <trkpt lat="28.630847" lon="105.05738"><ele>499.42087</ele><time>2026-07-22T03:08:50.000Z</time></trkpt>
        <trkpt lat="28.630823" lon="105.057336"><ele>498.98044</ele><time>2026-07-22T03:08:52.000Z</time></trkpt>
        <trkpt lat="28.630788" lon="105.057336"><ele>498.21918</ele><time>2026-07-22T03:08:54.000Z</time></trkpt>
        <trkpt lat="28.630758" lon="105.057345"><ele>498.4505</ele><time>2026-07-22T03:08:56.000Z</time></trkpt>
        <trkpt lat="28.630738" lon="105.057357"><ele>499.15918</ele><time>2026-07-22T03:08:58.000Z</time></trkpt>
        <trkpt lat="28.630724" lon="105.057369"><ele>499.38013</ele><time>2026-07-22T03:09:00.000Z</time></trkpt>
        <trkpt lat="28.630704" lon="105.057375"><ele>498.247</ele><time>2026-07-22T03:09:02.000Z</time></trkpt>
        <trkpt lat="28.630689" lon="105.057368"><ele>499.71405</ele><time>2026-07-22T03:09:04.000Z</time></trkpt>
        <trkpt lat="28.630674" lon="105.05735"><ele>499.9403</ele><time>2026-07-22T03:09:06.000Z</time></trkpt>
        <trkpt lat="28.630657" lon="105.057318"><ele>499.79306</ele><time>2026-07-22T03:09:08.000Z</time></trkpt>
        <trkpt lat="28.630637" lon="105.057278"><ele>499.68054</ele><time>2026-07-22T03:09:10.000Z</time></trkpt>
        <trkpt lat="28.630617" lon="105.057238"><ele>499.51068</ele><time>2026-07-22T03:09:12.000Z</time></trkpt>
        <trkpt lat="28.630604" lon="105.057212"><ele>499.48294</ele><time>2026-07-22T03:09:14.000Z</time></trkpt>
        <trkpt lat="28.630599" lon="105.057197"><ele>499.18872</ele><time>2026-07-22T03:09:16.000Z</time></trkpt>
        <trkpt lat="28.630598" lon="105.057193"><ele>498.94635</ele><time>2026-07-22T03:09:18.000Z</time></trkpt>
        <trkpt lat="28.630598" lon="105.057192"><ele>499.53284</ele><time>2026-07-22T03:09:22.000Z</time></trkpt>
        <trkpt lat="28.630553" lon="105.05724"><ele>499.7426</ele><time>2026-07-22T03:09:30.000Z</time></trkpt>
        <trkpt lat="28.630523" lon="105.057267"><ele>499.78705</ele><time>2026-07-22T03:09:32.000Z</time></trkpt>
        <trkpt lat="28.630496" lon="105.057279"><ele>499.95892</ele><time>2026-07-22T03:09:34.000Z</time></trkpt>
        <trkpt lat="28.630495" lon="105.057278"><ele>499.98087</ele><time>2026-07-22T03:09:36.000Z</time></trkpt>
        <trkpt lat="28.630491" lon="105.057257"><ele>500.95966</ele><time>2026-07-22T03:09:38.000Z</time></trkpt>
        <trkpt lat="28.630486" lon="105.057228"><ele>500.20773</ele><time>2026-07-22T03:09:40.000Z</time></trkpt>
        <trkpt lat="28.630485" lon="105.057202"><ele>499.95096</ele><time>2026-07-22T03:09:42.000Z</time></trkpt>
        <trkpt lat="28.630487" lon="105.05718"><ele>499.8988</ele><time>2026-07-22T03:09:44.000Z</time></trkpt>
        <trkpt lat="28.630493" lon="105.05716"><ele>499.96072</ele><time>2026-07-22T03:09:46.000Z</time></trkpt>
        <trkpt lat="28.6305" lon="105.057142"><ele>500.13092</ele><time>2026-07-22T03:09:48.000Z</time></trkpt>
        <trkpt lat="28.630506" lon="105.057132"><ele>499.9544</ele><time>2026-07-22T03:09:50.000Z</time></trkpt>
        <trkpt lat="28.630516" lon="105.057126"><ele>500.11847</ele><time>2026-07-22T03:09:52.000Z</time></trkpt>
        <trkpt lat="28.630525" lon="105.057126"><ele>500.16705</ele><time>2026-07-22T03:09:54.000Z</time></trkpt>
        <trkpt lat="28.630537" lon="105.05713"><ele>499.57364</ele><time>2026-07-22T03:09:56.000Z</time></trkpt>
        <trkpt lat="28.630544" lon="105.057135"><ele>499.43878</ele><time>2026-07-22T03:09:58.000Z</time></trkpt>
        <trkpt lat="28.630553" lon="105.057144"><ele>499.39908</ele><time>2026-07-22T03:10:02.000Z</time></trkpt>
        <trkpt lat="28.630566" lon="105.057158"><ele>499.24142</ele><time>2026-07-22T03:10:04.000Z</time></trkpt>
        <trkpt lat="28.630567" lon="105.057159"><ele>499.2372</ele><time>2026-07-22T03:10:06.000Z</time></trkpt>
        <trkpt lat="28.63058" lon="105.057171"><ele>498.70126</ele><time>2026-07-22T03:10:10.000Z</time></trkpt>
        <trkpt lat="28.630596" lon="105.057189"><ele>498.70618</ele><time>2026-07-22T03:10:12.000Z</time></trkpt>
        <trkpt lat="28.63061" lon="105.057206"><ele>499.10315</ele><time>2026-07-22T03:10:14.000Z</time></trkpt>
        <trkpt lat="28.630617" lon="105.057218"><ele>499.1382</ele><time>2026-07-22T03:10:16.000Z</time></trkpt>
        <trkpt lat="28.630616" lon="105.057222"><ele>499.75174</ele><time>2026-07-22T03:10:18.000Z</time></trkpt>
        <trkpt lat="28.630615" lon="105.057222"><ele>500.0796</ele><time>2026-07-22T03:10:22.000Z</time></trkpt>
        <trkpt lat="28.630561" lon="105.057206"><ele>500.24622</ele><time>2026-07-22T03:10:24.000Z</time></trkpt>
        <trkpt lat="28.630558" lon="105.057207"><ele>500.36456</ele><time>2026-07-22T03:10:26.000Z</time></trkpt>
        <trkpt lat="28.630558" lon="105.057209"><ele>500.53436</ele><time>2026-07-22T03:10:28.000Z</time></trkpt>
        <trkpt lat="28.630567" lon="105.057267"><ele>499.99396</ele><time>2026-07-22T03:10:32.000Z</time></trkpt>
        <trkpt lat="28.630643" lon="105.057328"><ele>499.9628</ele><time>2026-07-22T03:10:34.000Z</time></trkpt>
        <trkpt lat="28.63065" lon="105.057332"><ele>499.80643</ele><time>2026-07-22T03:10:36.000Z</time></trkpt>
        <trkpt lat="28.630659" lon="105.057335"><ele>500.22836</ele><time>2026-07-22T03:10:38.000Z</time></trkpt>
        <trkpt lat="28.630695" lon="105.057344"><ele>499.86865</ele><time>2026-07-22T03:10:40.000Z</time></trkpt>
        <trkpt lat="28.630759" lon="105.057363"><ele>500.10815</ele><time>2026-07-22T03:10:42.000Z</time></trkpt>
        <trkpt lat="28.630826" lon="105.057383"><ele>499.2359</ele><time>2026-07-22T03:10:44.000Z</time></trkpt>
        <trkpt lat="28.630861" lon="105.057442"><ele>499.2687</ele><time>2026-07-22T03:10:46.000Z</time></trkpt>
        <trkpt lat="28.630894" lon="105.057517"><ele>499.0946</ele><time>2026-07-22T03:10:48.000Z</time></trkpt>
        <trkpt lat="28.630922" lon="105.0576"><ele>498.78186</ele><time>2026-07-22T03:10:50.000Z</time></trkpt>
        <trkpt lat="28.630943" lon="105.05768"><ele>498.37485</ele><time>2026-07-22T03:10:52.000Z</time></trkpt>
        <trkpt lat="28.630959" lon="105.057758"><ele>497.5957</ele><time>2026-07-22T03:10:54.000Z</time></trkpt>
        <trkpt lat="28.63097" lon="105.057845"><ele>497.55695</ele><time>2026-07-22T03:10:56.000Z</time></trkpt>
        <trkpt lat="28.630971" lon="105.057944"><ele>497.9663</ele><time>2026-07-22T03:10:58.000Z</time></trkpt>
        <trkpt lat="28.630961" lon="105.058056"><ele>497.70065</ele><time>2026-07-22T03:11:00.000Z</time></trkpt>
        <trkpt lat="28.630949" lon="105.058183"><ele>497.9912</ele><time>2026-07-22T03:11:02.000Z</time></trkpt>
        <trkpt lat="28.630948" lon="105.058324"><ele>497.96356</ele><time>2026-07-22T03:11:04.000Z</time></trkpt>
        <trkpt lat="28.630948" lon="105.05847"><ele>497.49722</ele><time>2026-07-22T03:11:06.000Z</time></trkpt>
        <trkpt lat="28.630986" lon="105.058612"><ele>497.74796</ele><time>2026-07-22T03:11:08.000Z</time></trkpt>
        <trkpt lat="28.631023" lon="105.05875"><ele>499.51178</ele><time>2026-07-22T03:11:10.000Z</time></trkpt>
        <trkpt lat="28.631028" lon="105.058877"><ele>501.05615</ele><time>2026-07-22T03:11:12.000Z</time></trkpt>
        <trkpt lat="28.630989" lon="105.058993"><ele>502.64337</ele><time>2026-07-22T03:11:14.000Z</time></trkpt>
        <trkpt lat="28.630938" lon="105.059108"><ele>503.54764</ele><time>2026-07-22T03:11:16.000Z</time></trkpt>
        <trkpt lat="28.630883" lon="105.059218"><ele>503.37228</ele><time>2026-07-22T03:11:18.000Z</time></trkpt>
        <trkpt lat="28.630842" lon="105.059318"><ele>502.88535</ele><time>2026-07-22T03:11:20.000Z</time></trkpt>
        <trkpt lat="28.630812" lon="105.059391"><ele>502.54926</ele><time>2026-07-22T03:11:22.000Z</time></trkpt>
        <trkpt lat="28.630829" lon="105.05945"><ele>502.22305</ele><time>2026-07-22T03:11:24.000Z</time></trkpt>
        <trkpt lat="28.630897" lon="105.059482"><ele>501.83072</ele><time>2026-07-22T03:11:26.000Z</time></trkpt>
        <trkpt lat="28.630996" lon="105.059513"><ele>502.31662</ele><time>2026-07-22T03:11:28.000Z</time></trkpt>
        <trkpt lat="28.631117" lon="105.05954"><ele>503.37573</ele><time>2026-07-22T03:11:30.000Z</time></trkpt>
        <trkpt lat="28.631247" lon="105.059563"><ele>504.39746</ele><time>2026-07-22T03:11:32.000Z</time></trkpt>
        <trkpt lat="28.631376" lon="105.059585"><ele>504.61517</ele><time>2026-07-22T03:11:34.000Z</time></trkpt>
        <trkpt lat="28.631492" lon="105.059606"><ele>505.74194</ele><time>2026-07-22T03:11:36.000Z</time></trkpt>
        <trkpt lat="28.63158" lon="105.059663"><ele>506.89554</ele><time>2026-07-22T03:11:38.000Z</time></trkpt>
        <trkpt lat="28.63158" lon="105.059667"><ele>507.96417</ele><time>2026-07-22T03:11:40.000Z</time></trkpt>
        <trkpt lat="28.631575" lon="105.059677"><ele>508.2544</ele><time>2026-07-22T03:11:42.000Z</time></trkpt>
        <trkpt lat="28.63155" lon="105.059731"><ele>508.32062</ele><time>2026-07-22T03:11:44.000Z</time></trkpt>
        <trkpt lat="28.631508" lon="105.059817"><ele>508.6829</ele><time>2026-07-22T03:11:46.000Z</time></trkpt>
        <trkpt lat="28.631474" lon="105.059889"><ele>508.92398</ele><time>2026-07-22T03:11:48.000Z</time></trkpt>
        <trkpt lat="28.631452" lon="105.059934"><ele>508.91275</ele><time>2026-07-22T03:11:50.000Z</time></trkpt>
        <trkpt lat="28.63144" lon="105.059955"><ele>509.12744</ele><time>2026-07-22T03:11:52.000Z</time></trkpt>
        <trkpt lat="28.631441" lon="105.059956"><ele>508.94696</ele><time>2026-07-22T03:11:54.000Z</time></trkpt>
        <trkpt lat="28.631466" lon="105.05998"><ele>510.81815</ele><time>2026-07-22T03:12:26.000Z</time></trkpt>
        <trkpt lat="28.631438" lon="105.060012"><ele>512.88873</ele><time>2026-07-22T03:12:29.000Z</time></trkpt>
        <trkpt lat="28.631438" lon="105.060012"><ele>512.761</ele><time>2026-07-22T03:12:31.000Z</time></trkpt>
        <trkpt lat="28.631437" lon="105.060016"><ele>512.14215</ele><time>2026-07-22T03:12:33.000Z</time></trkpt>
        <trkpt lat="28.631427" lon="105.060059"><ele>512.637</ele><time>2026-07-22T03:12:39.000Z</time></trkpt>
        <trkpt lat="28.631454" lon="105.060048"><ele>512.15625</ele><time>2026-07-22T03:12:41.000Z</time></trkpt>
        <trkpt lat="28.631457" lon="105.060045"><ele>511.7284</ele><time>2026-07-22T03:12:45.000Z</time></trkpt>
        <trkpt lat="28.631494" lon="105.060002"><ele>511.4493</ele><time>2026-07-22T03:12:47.000Z</time></trkpt>
        <trkpt lat="28.631497" lon="105.059999"><ele>511.72537</ele><time>2026-07-22T03:12:49.000Z</time></trkpt>
        <trkpt lat="28.631499" lon="105.059996"><ele>511.97052</ele><time>2026-07-22T03:12:51.000Z</time></trkpt>
        <trkpt lat="28.631533" lon="105.059953"><ele>512.27704</ele><time>2026-07-22T03:12:55.000Z</time></trkpt>
        <trkpt lat="28.631556" lon="105.059922"><ele>512.5301</ele><time>2026-07-22T03:12:57.000Z</time></trkpt>
        <trkpt lat="28.63158" lon="105.059892"><ele>512.44324</ele><time>2026-07-22T03:12:59.000Z</time></trkpt>
        <trkpt lat="28.631604" lon="105.059865"><ele>512.3457</ele><time>2026-07-22T03:13:01.000Z</time></trkpt>
        <trkpt lat="28.631623" lon="105.059842"><ele>512.21204</ele><time>2026-07-22T03:13:03.000Z</time></trkpt>
        <trkpt lat="28.631636" lon="105.059821"><ele>512.1463</ele><time>2026-07-22T03:13:05.000Z</time></trkpt>
        <trkpt lat="28.631646" lon="105.0598"><ele>512.35614</ele><time>2026-07-22T03:13:07.000Z</time></trkpt>
        <trkpt lat="28.631658" lon="105.059775"><ele>512.6191</ele><time>2026-07-22T03:13:09.000Z</time></trkpt>
        <trkpt lat="28.631673" lon="105.059755"><ele>512.774</ele><time>2026-07-22T03:13:11.000Z</time></trkpt>
        <trkpt lat="28.631688" lon="105.059748"><ele>511.98672</ele><time>2026-07-22T03:13:13.000Z</time></trkpt>
        <trkpt lat="28.6317" lon="105.05975"><ele>512.23175</ele><time>2026-07-22T03:13:15.000Z</time></trkpt>
        <trkpt lat="28.631709" lon="105.059757"><ele>512.34784</ele><time>2026-07-22T03:13:17.000Z</time></trkpt>
        <trkpt lat="28.631716" lon="105.059769"><ele>512.0868</ele><time>2026-07-22T03:13:19.000Z</time></trkpt>
        <trkpt lat="28.631723" lon="105.059785"><ele>512.23865</ele><time>2026-07-22T03:13:21.000Z</time></trkpt>
        <trkpt lat="28.631726" lon="105.0598"><ele>512.8281</ele><time>2026-07-22T03:13:23.000Z</time></trkpt>
        <trkpt lat="28.631727" lon="105.059811"><ele>513.20184</ele><time>2026-07-22T03:13:25.000Z</time></trkpt>
        <trkpt lat="28.631726" lon="105.059823"><ele>513.5448</ele><time>2026-07-22T03:13:27.000Z</time></trkpt>
        <trkpt lat="28.631725" lon="105.059834"><ele>513.47864</ele><time>2026-07-22T03:13:29.000Z</time></trkpt>
        <trkpt lat="28.631724" lon="105.059845"><ele>514.3658</ele><time>2026-07-22T03:13:31.000Z</time></trkpt>
        <trkpt lat="28.631723" lon="105.05986"><ele>514.9044</ele><time>2026-07-22T03:13:33.000Z</time></trkpt>
        <trkpt lat="28.631725" lon="105.059875"><ele>515.1243</ele><time>2026-07-22T03:13:35.000Z</time></trkpt>
        <trkpt lat="28.631726" lon="105.059885"><ele>516.8591</ele><time>2026-07-22T03:13:37.000Z</time></trkpt>
        <trkpt lat="28.631726" lon="105.059895"><ele>516.6654</ele><time>2026-07-22T03:13:39.000Z</time></trkpt>
        <trkpt lat="28.631726" lon="105.059907"><ele>517.814</ele><time>2026-07-22T03:13:41.000Z</time></trkpt>
        <trkpt lat="28.631727" lon="105.059917"><ele>517.1682</ele><time>2026-07-22T03:13:43.000Z</time></trkpt>
        <trkpt lat="28.63173" lon="105.059927"><ele>516.0928</ele><time>2026-07-22T03:13:45.000Z</time></trkpt>
        <trkpt lat="28.631735" lon="105.059934"><ele>516.5309</ele><time>2026-07-22T03:13:47.000Z</time></trkpt>
        <trkpt lat="28.631747" lon="105.059946"><ele>516.8637</ele><time>2026-07-22T03:13:51.000Z</time></trkpt>
        <trkpt lat="28.631753" lon="105.059949"><ele>517.9656</ele><time>2026-07-22T03:13:53.000Z</time></trkpt>
        <trkpt lat="28.631758" lon="105.059948"><ele>518.4519</ele><time>2026-07-22T03:13:55.000Z</time></trkpt>
        <trkpt lat="28.631772" lon="105.059941"><ele>519.28735</ele><time>2026-07-22T03:13:59.000Z</time></trkpt>
        <trkpt lat="28.63179" lon="105.059931"><ele>519.5986</ele><time>2026-07-22T03:14:01.000Z</time></trkpt>
        <trkpt lat="28.631791" lon="105.059931"><ele>519.7378</ele><time>2026-07-22T03:14:03.000Z</time></trkpt>
        <trkpt lat="28.631802" lon="105.059929"><ele>520.29767</ele><time>2026-07-22T03:14:09.000Z</time></trkpt>
        <trkpt lat="28.631813" lon="105.059927"><ele>520.84406</ele><time>2026-07-22T03:14:13.000Z</time></trkpt>
        <trkpt lat="28.631817" lon="105.05993"><ele>520.50824</ele><time>2026-07-22T03:14:15.000Z</time></trkpt>
        <trkpt lat="28.631831" lon="105.05994"><ele>519.8675</ele><time>2026-07-22T03:14:17.000Z</time></trkpt>
        <trkpt lat="28.631831" lon="105.059941"><ele>520.3137</ele><time>2026-07-22T03:14:19.000Z</time></trkpt>
        <trkpt lat="28.631832" lon="105.059944"><ele>520.4528</ele><time>2026-07-22T03:14:23.000Z</time></trkpt>
        <trkpt lat="28.631842" lon="105.059977"><ele>521.2991</ele><time>2026-07-22T03:14:27.000Z</time></trkpt>
        <trkpt lat="28.631842" lon="105.059977"><ele>522.1815</ele><time>2026-07-22T03:14:29.000Z</time></trkpt>
        <trkpt lat="28.631842" lon="105.059978"><ele>522.9348</ele><time>2026-07-22T03:14:31.000Z</time></trkpt>
        <trkpt lat="28.631856" lon="105.060012"><ele>524.1511</ele><time>2026-07-22T03:14:37.000Z</time></trkpt>
        <trkpt lat="28.631861" lon="105.060028"><ele>522.472</ele><time>2026-07-22T03:14:39.000Z</time></trkpt>
        <trkpt lat="28.631866" lon="105.060048"><ele>522.6591</ele><time>2026-07-22T03:14:41.000Z</time></trkpt>
        <trkpt lat="28.631868" lon="105.060063"><ele>523.39667</ele><time>2026-07-22T03:14:43.000Z</time></trkpt>
        <trkpt lat="28.631869" lon="105.060077"><ele>523.63385</ele><time>2026-07-22T03:14:45.000Z</time></trkpt>
        <trkpt lat="28.63187" lon="105.06009"><ele>523.8638</ele><time>2026-07-22T03:14:47.000Z</time></trkpt>
        <trkpt lat="28.63187" lon="105.060099"><ele>523.71313</ele><time>2026-07-22T03:14:49.000Z</time></trkpt>
        <trkpt lat="28.631873" lon="105.060109"><ele>523.31006</ele><time>2026-07-22T03:14:51.000Z</time></trkpt>
        <trkpt lat="28.631881" lon="105.060124"><ele>524.49335</ele><time>2026-07-22T03:14:55.000Z</time></trkpt>
        <trkpt lat="28.631885" lon="105.060124"><ele>525.62494</ele><time>2026-07-22T03:14:57.000Z</time></trkpt>
        <trkpt lat="28.631887" lon="105.06012"><ele>526.2861</ele><time>2026-07-22T03:14:59.000Z</time></trkpt>
        <trkpt lat="28.631901" lon="105.060102"><ele>526.4022</ele><time>2026-07-22T03:15:01.000Z</time></trkpt>
        <trkpt lat="28.631902" lon="105.060101"><ele>526.41327</ele><time>2026-07-22T03:15:03.000Z</time></trkpt>
        <trkpt lat="28.63191" lon="105.0601"><ele>526.1107</ele><time>2026-07-22T03:15:07.000Z</time></trkpt>
        <trkpt lat="28.631937" lon="105.060093"><ele>524.6277</ele><time>2026-07-22T03:15:11.000Z</time></trkpt>
        <trkpt lat="28.631949" lon="105.060089"><ele>525.254</ele><time>2026-07-22T03:15:13.000Z</time></trkpt>
        <trkpt lat="28.631959" lon="105.060084"><ele>525.80115</ele><time>2026-07-22T03:15:15.000Z</time></trkpt>
        <trkpt lat="28.631969" lon="105.060078"><ele>526.2419</ele><time>2026-07-22T03:15:17.000Z</time></trkpt>
        <trkpt lat="28.631979" lon="105.060071"><ele>526.84973</ele><time>2026-07-22T03:15:19.000Z</time></trkpt>
        <trkpt lat="28.631987" lon="105.060068"><ele>527.57776</ele><time>2026-07-22T03:15:21.000Z</time></trkpt>
        <trkpt lat="28.631996" lon="105.060066"><ele>526.95624</ele><time>2026-07-22T03:15:25.000Z</time></trkpt>
        <trkpt lat="28.632001" lon="105.060063"><ele>526.1798</ele><time>2026-07-22T03:15:27.000Z</time></trkpt>
        <trkpt lat="28.632006" lon="105.060061"><ele>525.7285</ele><time>2026-07-22T03:15:31.000Z</time></trkpt>
        <trkpt lat="28.632015" lon="105.060056"><ele>525.5339</ele><time>2026-07-22T03:15:35.000Z</time></trkpt>
        <trkpt lat="28.632022" lon="105.060053"><ele>525.90985</ele><time>2026-07-22T03:15:37.000Z</time></trkpt>
        <trkpt lat="28.632028" lon="105.060051"><ele>526.0937</ele><time>2026-07-22T03:15:39.000Z</time></trkpt>
        <trkpt lat="28.632036" lon="105.060047"><ele>525.68066</ele><time>2026-07-22T03:15:41.000Z</time></trkpt>
        <trkpt lat="28.632046" lon="105.060043"><ele>524.7813</ele><time>2026-07-22T03:15:43.000Z</time></trkpt>
        <trkpt lat="28.632063" lon="105.060037"><ele>526.0983</ele><time>2026-07-22T03:15:47.000Z</time></trkpt>
        <trkpt lat="28.632071" lon="105.060036"><ele>526.43646</ele><time>2026-07-22T03:15:49.000Z</time></trkpt>
        <trkpt lat="28.632081" lon="105.060035"><ele>527.47473</ele><time>2026-07-22T03:15:51.000Z</time></trkpt>
        <trkpt lat="28.632091" lon="105.060035"><ele>527.95264</ele><time>2026-07-22T03:15:53.000Z</time></trkpt>
        <trkpt lat="28.632099" lon="105.060035"><ele>528.4611</ele><time>2026-07-22T03:15:55.000Z</time></trkpt>
        <trkpt lat="28.632108" lon="105.060037"><ele>528.99634</ele><time>2026-07-22T03:15:57.000Z</time></trkpt>
        <trkpt lat="28.632122" lon="105.060043"><ele>529.47876</ele><time>2026-07-22T03:15:59.000Z</time></trkpt>
        <trkpt lat="28.632134" lon="105.060045"><ele>529.8833</ele><time>2026-07-22T03:16:01.000Z</time></trkpt>
        <trkpt lat="28.632143" lon="105.060046"><ele>529.3481</ele><time>2026-07-22T03:16:03.000Z</time></trkpt>
        <trkpt lat="28.632151" lon="105.060048"><ele>529.75464</ele><time>2026-07-22T03:16:05.000Z</time></trkpt>
        <trkpt lat="28.63216" lon="105.060052"><ele>529.91846</ele><time>2026-07-22T03:16:07.000Z</time></trkpt>
        <trkpt lat="28.632177" lon="105.060056"><ele>530.8471</ele><time>2026-07-22T03:16:11.000Z</time></trkpt>
        <trkpt lat="28.632184" lon="105.060057"><ele>530.92804</ele><time>2026-07-22T03:16:13.000Z</time></trkpt>
        <trkpt lat="28.632191" lon="105.060057"><ele>531.5833</ele><time>2026-07-22T03:16:15.000Z</time></trkpt>
        <trkpt lat="28.632197" lon="105.060054"><ele>532.27686</ele><time>2026-07-22T03:16:17.000Z</time></trkpt>
        <trkpt lat="28.632214" lon="105.060045"><ele>531.7198</ele><time>2026-07-22T03:16:19.000Z</time></trkpt>
        <trkpt lat="28.632216" lon="105.060043"><ele>532.10315</ele><time>2026-07-22T03:16:23.000Z</time></trkpt>
        <trkpt lat="28.632224" lon="105.060031"><ele>530.3514</ele><time>2026-07-22T03:16:27.000Z</time></trkpt>
        <trkpt lat="28.632222" lon="105.060027"><ele>530.5345</ele><time>2026-07-22T03:16:29.000Z</time></trkpt>
        <trkpt lat="28.632214" lon="105.060004"><ele>532.2762</ele><time>2026-07-22T03:16:31.000Z</time></trkpt>
        <trkpt lat="28.632214" lon="105.060002"><ele>533.6471</ele><time>2026-07-22T03:16:33.000Z</time></trkpt>
        <trkpt lat="28.632211" lon="105.059989"><ele>535.2048</ele><time>2026-07-22T03:16:37.000Z</time></trkpt>
        <trkpt lat="28.632209" lon="105.059972"><ele>535.13293</ele><time>2026-07-22T03:16:39.000Z</time></trkpt>
        <trkpt lat="28.632211" lon="105.059952"><ele>534.89355</ele><time>2026-07-22T03:16:41.000Z</time></trkpt>
        <trkpt lat="28.632217" lon="105.059935"><ele>535.2667</ele><time>2026-07-22T03:16:43.000Z</time></trkpt>
        <trkpt lat="28.632227" lon="105.059923"><ele>534.6001</ele><time>2026-07-22T03:16:45.000Z</time></trkpt>
        <trkpt lat="28.632238" lon="105.059915"><ele>534.74524</ele><time>2026-07-22T03:16:47.000Z</time></trkpt>
        <trkpt lat="28.632249" lon="105.05991"><ele>532.5858</ele><time>2026-07-22T03:16:49.000Z</time></trkpt>
        <trkpt lat="28.632261" lon="105.059907"><ele>532.75604</ele><time>2026-07-22T03:16:51.000Z</time></trkpt>
        <trkpt lat="28.632272" lon="105.059905"><ele>532.99963</ele><time>2026-07-22T03:16:53.000Z</time></trkpt>
        <trkpt lat="28.632281" lon="105.059905"><ele>533.7033</ele><time>2026-07-22T03:16:55.000Z</time></trkpt>
        <trkpt lat="28.632288" lon="105.059905"><ele>534.2305</ele><time>2026-07-22T03:16:57.000Z</time></trkpt>
        <trkpt lat="28.632307" lon="105.059907"><ele>535.161</ele><time>2026-07-22T03:17:01.000Z</time></trkpt>
        <trkpt lat="28.632307" lon="105.059907"><ele>534.28827</ele><time>2026-07-22T03:17:03.000Z</time></trkpt>
        <trkpt lat="28.632339" lon="105.059902"><ele>533.62225</ele><time>2026-07-22T03:17:05.000Z</time></trkpt>
        <trkpt lat="28.632341" lon="105.059902"><ele>534.88837</ele><time>2026-07-22T03:17:07.000Z</time></trkpt>
        <trkpt lat="28.632343" lon="105.059903"><ele>535.0649</ele><time>2026-07-22T03:17:09.000Z</time></trkpt>
        <trkpt lat="28.632366" lon="105.059922"><ele>533.5929</ele><time>2026-07-22T03:17:15.000Z</time></trkpt>
        <trkpt lat="28.632371" lon="105.059929"><ele>534.62836</ele><time>2026-07-22T03:17:17.000Z</time></trkpt>
        <trkpt lat="28.632371" lon="105.059929"><ele>534.447</ele><time>2026-07-22T03:17:19.000Z</time></trkpt>
        <trkpt lat="28.632398" lon="105.059904"><ele>536.1399</ele><time>2026-07-22T03:17:26.000Z</time></trkpt>
        <trkpt lat="28.632398" lon="105.059904"><ele>536.6511</ele><time>2026-07-22T03:17:28.000Z</time></trkpt>
        <trkpt lat="28.632399" lon="105.059905"><ele>535.98804</ele><time>2026-07-22T03:17:30.000Z</time></trkpt>
        <trkpt lat="28.632434" lon="105.059918"><ele>536.14264</ele><time>2026-07-22T03:17:38.000Z</time></trkpt>
        <trkpt lat="28.632453" lon="105.059925"><ele>536.2504</ele><time>2026-07-22T03:17:40.000Z</time></trkpt>
        <trkpt lat="28.632455" lon="105.059925"><ele>536.5855</ele><time>2026-07-22T03:17:42.000Z</time></trkpt>
        <trkpt lat="28.632465" lon="105.059928"><ele>537.01337</ele><time>2026-07-22T03:17:48.000Z</time></trkpt>
        <trkpt lat="28.632498" lon="105.059938"><ele>537.9826</ele><time>2026-07-22T03:17:52.000Z</time></trkpt>
        <trkpt lat="28.632498" lon="105.059938"><ele>537.62274</ele><time>2026-07-22T03:17:54.000Z</time></trkpt>
        <trkpt lat="28.6325" lon="105.059938"><ele>538.4072</ele><time>2026-07-22T03:17:56.000Z</time></trkpt>
        <trkpt lat="28.632547" lon="105.059932"><ele>539.44604</ele><time>2026-07-22T03:18:02.000Z</time></trkpt>
        <trkpt lat="28.632564" lon="105.059927"><ele>540.63257</ele><time>2026-07-22T03:18:04.000Z</time></trkpt>
        <trkpt lat="28.632583" lon="105.05992"><ele>541.3812</ele><time>2026-07-22T03:18:06.000Z</time></trkpt>
        <trkpt lat="28.632595" lon="105.059914"><ele>543.3739</ele><time>2026-07-22T03:18:08.000Z</time></trkpt>
        <trkpt lat="28.632603" lon="105.059906"><ele>542.52814</ele><time>2026-07-22T03:18:10.000Z</time></trkpt>
        <trkpt lat="28.632616" lon="105.059888"><ele>541.68585</ele><time>2026-07-22T03:18:14.000Z</time></trkpt>
        <trkpt lat="28.632615" lon="105.059882"><ele>541.3157</ele><time>2026-07-22T03:18:16.000Z</time></trkpt>
        <trkpt lat="28.632612" lon="105.059862"><ele>538.8317</ele><time>2026-07-22T03:18:20.000Z</time></trkpt>
        <trkpt lat="28.632615" lon="105.059844"><ele>538.44507</ele><time>2026-07-22T03:18:24.000Z</time></trkpt>
        <trkpt lat="28.632618" lon="105.059835"><ele>537.6572</ele><time>2026-07-22T03:18:26.000Z</time></trkpt>
        <trkpt lat="28.632623" lon="105.05982"><ele>538.9255</ele><time>2026-07-22T03:18:30.000Z</time></trkpt>
        <trkpt lat="28.63263" lon="105.059796"><ele>558.7236</ele><time>2026-07-22T03:18:56.000Z</time></trkpt>
        <trkpt lat="28.63263" lon="105.059796"><ele>559.4791</ele><time>2026-07-22T03:18:58.000Z</time></trkpt>
        <trkpt lat="28.632633" lon="105.059796"><ele>560.53186</ele><time>2026-07-22T03:19:06.000Z</time></trkpt>
        <trkpt lat="28.63266" lon="105.059801"><ele>562.4572</ele><time>2026-07-22T03:19:23.000Z</time></trkpt>
        <trkpt lat="28.632679" lon="105.059806"><ele>562.62225</ele><time>2026-07-22T03:19:25.000Z</time></trkpt>
        <trkpt lat="28.63268" lon="105.059807"><ele>562.89404</ele><time>2026-07-22T03:19:27.000Z</time></trkpt>
        <trkpt lat="28.632712" lon="105.059835"><ele>563.1279</ele><time>2026-07-22T03:19:30.000Z</time></trkpt>
        <trkpt lat="28.632712" lon="105.059835"><ele>563.9707</ele><time>2026-07-22T03:19:32.000Z</time></trkpt>
        <trkpt lat="28.632713" lon="105.059838"><ele>563.2541</ele><time>2026-07-22T03:19:34.000Z</time></trkpt>
        <trkpt lat="28.632731" lon="105.059868"><ele>564.1786</ele><time>2026-07-22T03:19:38.000Z</time></trkpt>
        <trkpt lat="28.632745" lon="105.059886"><ele>564.6929</ele><time>2026-07-22T03:19:40.000Z</time></trkpt>
        <trkpt lat="28.63276" lon="105.059898"><ele>565.43604</ele><time>2026-07-22T03:19:43.000Z</time></trkpt>
        <trkpt lat="28.632773" lon="105.059904"><ele>566.10345</ele><time>2026-07-22T03:19:45.000Z</time></trkpt>
        <trkpt lat="28.632786" lon="105.059907"><ele>566.46075</ele><time>2026-07-22T03:19:47.000Z</time></trkpt>
        <trkpt lat="28.632798" lon="105.059907"><ele>567.3777</ele><time>2026-07-22T03:19:49.000Z</time></trkpt>
        <trkpt lat="28.632808" lon="105.059906"><ele>567.7428</ele><time>2026-07-22T03:19:51.000Z</time></trkpt>
        <trkpt lat="28.632818" lon="105.059903"><ele>568.1761</ele><time>2026-07-22T03:19:53.000Z</time></trkpt>
        <trkpt lat="28.632828" lon="105.059901"><ele>568.4196</ele><time>2026-07-22T03:19:55.000Z</time></trkpt>
        <trkpt lat="28.632838" lon="105.0599"><ele>569.254</ele><time>2026-07-22T03:19:57.000Z</time></trkpt>
        <trkpt lat="28.632847" lon="105.059899"><ele>569.44196</ele><time>2026-07-22T03:19:59.000Z</time></trkpt>
        <trkpt lat="28.632856" lon="105.059898"><ele>569.7309</ele><time>2026-07-22T03:20:01.000Z</time></trkpt>
        <trkpt lat="28.632866" lon="105.059896"><ele>570.11127</ele><time>2026-07-22T03:20:03.000Z</time></trkpt>
        <trkpt lat="28.632877" lon="105.059895"><ele>570.6546</ele><time>2026-07-22T03:20:05.000Z</time></trkpt>
        <trkpt lat="28.632888" lon="105.059895"><ele>570.6878</ele><time>2026-07-22T03:20:07.000Z</time></trkpt>
        <trkpt lat="28.6329" lon="105.059895"><ele>571.1595</ele><time>2026-07-22T03:20:09.000Z</time></trkpt>
        <trkpt lat="28.63291" lon="105.059897"><ele>571.21643</ele><time>2026-07-22T03:20:11.000Z</time></trkpt>
        <trkpt lat="28.632921" lon="105.059899"><ele>571.3069</ele><time>2026-07-22T03:20:13.000Z</time></trkpt>
        <trkpt lat="28.632929" lon="105.059903"><ele>570.9296</ele><time>2026-07-22T03:20:15.000Z</time></trkpt>
        <trkpt lat="28.632937" lon="105.059909"><ele>571.8877</ele><time>2026-07-22T03:20:17.000Z</time></trkpt>
        <trkpt lat="28.632945" lon="105.059915"><ele>571.831</ele><time>2026-07-22T03:20:19.000Z</time></trkpt>
        <trkpt lat="28.632951" lon="105.05992"><ele>573.48395</ele><time>2026-07-22T03:20:21.000Z</time></trkpt>
        <trkpt lat="28.63296" lon="105.059926"><ele>574.1901</ele><time>2026-07-22T03:20:23.000Z</time></trkpt>
        <trkpt lat="28.632968" lon="105.059931"><ele>574.7639</ele><time>2026-07-22T03:20:25.000Z</time></trkpt>
        <trkpt lat="28.632978" lon="105.059937"><ele>576.4766</ele><time>2026-07-22T03:20:27.000Z</time></trkpt>
        <trkpt lat="28.63299" lon="105.05994"><ele>578.3714</ele><time>2026-07-22T03:20:29.000Z</time></trkpt>
        <trkpt lat="28.633015" lon="105.059945"><ele>576.9673</ele><time>2026-07-22T03:20:31.000Z</time></trkpt>
        <trkpt lat="28.633038" lon="105.059945"><ele>576.0707</ele><time>2026-07-22T03:20:33.000Z</time></trkpt>
        <trkpt lat="28.633054" lon="105.059944"><ele>575.0712</ele><time>2026-07-22T03:20:35.000Z</time></trkpt>
        <trkpt lat="28.633068" lon="105.059943"><ele>574.729</ele><time>2026-07-22T03:20:37.000Z</time></trkpt>
        <trkpt lat="28.63308" lon="105.059944"><ele>574.7508</ele><time>2026-07-22T03:20:39.000Z</time></trkpt>
        <trkpt lat="28.63309" lon="105.059946"><ele>574.7722</ele><time>2026-07-22T03:20:41.000Z</time></trkpt>
        <trkpt lat="28.6331" lon="105.059952"><ele>576.2155</ele><time>2026-07-22T03:20:43.000Z</time></trkpt>
        <trkpt lat="28.633109" lon="105.05996"><ele>577.61694</ele><time>2026-07-22T03:20:45.000Z</time></trkpt>
        <trkpt lat="28.633122" lon="105.059972"><ele>578.62085</ele><time>2026-07-22T03:20:47.000Z</time></trkpt>
        <trkpt lat="28.633135" lon="105.059986"><ele>579.1861</ele><time>2026-07-22T03:20:49.000Z</time></trkpt>
        <trkpt lat="28.633149" lon="105.059997"><ele>579.75397</ele><time>2026-07-22T03:20:51.000Z</time></trkpt>
        <trkpt lat="28.633167" lon="105.06001"><ele>581.02496</ele><time>2026-07-22T03:20:53.000Z</time></trkpt>
        <trkpt lat="28.633185" lon="105.060023"><ele>581.0305</ele><time>2026-07-22T03:20:55.000Z</time></trkpt>
        <trkpt lat="28.6332" lon="105.06003"><ele>581.4423</ele><time>2026-07-22T03:20:57.000Z</time></trkpt>
        <trkpt lat="28.633217" lon="105.060035"><ele>582.11334</ele><time>2026-07-22T03:20:59.000Z</time></trkpt>
        <trkpt lat="28.633235" lon="105.060037"><ele>582.563</ele><time>2026-07-22T03:21:01.000Z</time></trkpt>
        <trkpt lat="28.633252" lon="105.060038"><ele>580.3672</ele><time>2026-07-22T03:21:03.000Z</time></trkpt>
        <trkpt lat="28.633272" lon="105.060038"><ele>577.8849</ele><time>2026-07-22T03:21:05.000Z</time></trkpt>
        <trkpt lat="28.633294" lon="105.060038"><ele>575.2293</ele><time>2026-07-22T03:21:07.000Z</time></trkpt>
        <trkpt lat="28.633314" lon="105.060039"><ele>574.77747</ele><time>2026-07-22T03:21:09.000Z</time></trkpt>
        <trkpt lat="28.633333" lon="105.06004"><ele>574.32715</ele><time>2026-07-22T03:21:11.000Z</time></trkpt>
        <trkpt lat="28.633352" lon="105.060039"><ele>574.5877</ele><time>2026-07-22T03:21:13.000Z</time></trkpt>
        <trkpt lat="28.633373" lon="105.060037"><ele>573.76984</ele><time>2026-07-22T03:21:15.000Z</time></trkpt>
        <trkpt lat="28.63339" lon="105.060035"><ele>574.0497</ele><time>2026-07-22T03:21:16.000Z</time></trkpt>
        <trkpt lat="28.63341" lon="105.060032"><ele>573.82355</ele><time>2026-07-22T03:21:18.000Z</time></trkpt>
        <trkpt lat="28.633424" lon="105.060029"><ele>574.771</ele><time>2026-07-22T03:21:20.000Z</time></trkpt>
        <trkpt lat="28.633444" lon="105.060024"><ele>576.3791</ele><time>2026-07-22T03:21:22.000Z</time></trkpt>
        <trkpt lat="28.633463" lon="105.060021"><ele>577.08185</ele><time>2026-07-22T03:21:24.000Z</time></trkpt>
        <trkpt lat="28.633481" lon="105.060016"><ele>577.64124</ele><time>2026-07-22T03:21:26.000Z</time></trkpt>
        <trkpt lat="28.633503" lon="105.060011"><ele>577.9852</ele><time>2026-07-22T03:21:28.000Z</time></trkpt>
        <trkpt lat="28.633517" lon="105.060006"><ele>578.7728</ele><time>2026-07-22T03:21:30.000Z</time></trkpt>
        <trkpt lat="28.633538" lon="105.059998"><ele>579.22815</ele><time>2026-07-22T03:21:32.000Z</time></trkpt>
        <trkpt lat="28.633559" lon="105.059989"><ele>579.00714</ele><time>2026-07-22T03:21:34.000Z</time></trkpt>
        <trkpt lat="28.633578" lon="105.05998"><ele>578.85583</ele><time>2026-07-22T03:21:36.000Z</time></trkpt>
        <trkpt lat="28.633599" lon="105.059971"><ele>579.5975</ele><time>2026-07-22T03:21:38.000Z</time></trkpt>
        <trkpt lat="28.633624" lon="105.059961"><ele>580.70074</ele><time>2026-07-22T03:21:40.000Z</time></trkpt>
        <trkpt lat="28.633648" lon="105.059953"><ele>581.17755</ele><time>2026-07-22T03:21:42.000Z</time></trkpt>
        <trkpt lat="28.633669" lon="105.059948"><ele>581.4064</ele><time>2026-07-22T03:21:45.000Z</time></trkpt>
        <trkpt lat="28.633693" lon="105.059945"><ele>580.7918</ele><time>2026-07-22T03:21:47.000Z</time></trkpt>
        <trkpt lat="28.633712" lon="105.059946"><ele>580.12646</ele><time>2026-07-22T03:21:49.000Z</time></trkpt>
        <trkpt lat="28.633732" lon="105.059951"><ele>579.9717</ele><time>2026-07-22T03:21:51.000Z</time></trkpt>
        <trkpt lat="28.633752" lon="105.059958"><ele>579.32166</ele><time>2026-07-22T03:21:53.000Z</time></trkpt>
        <trkpt lat="28.633773" lon="105.059968"><ele>579.47614</ele><time>2026-07-22T03:21:55.000Z</time></trkpt>
        <trkpt lat="28.633794" lon="105.059979"><ele>579.6038</ele><time>2026-07-22T03:21:57.000Z</time></trkpt>
        <trkpt lat="28.633816" lon="105.059989"><ele>579.7477</ele><time>2026-07-22T03:21:59.000Z</time></trkpt>
        <trkpt lat="28.633837" lon="105.059998"><ele>579.7606</ele><time>2026-07-22T03:22:01.000Z</time></trkpt>
        <trkpt lat="28.63386" lon="105.060007"><ele>579.8481</ele><time>2026-07-22T03:22:03.000Z</time></trkpt>
        <trkpt lat="28.633883" lon="105.060015"><ele>580.8418</ele><time>2026-07-22T03:22:05.000Z</time></trkpt>
        <trkpt lat="28.633906" lon="105.060024"><ele>581.80664</ele><time>2026-07-22T03:22:07.000Z</time></trkpt>
        <trkpt lat="28.633926" lon="105.060033"><ele>581.42786</ele><time>2026-07-22T03:22:09.000Z</time></trkpt>
        <trkpt lat="28.633944" lon="105.060039"><ele>582.21405</ele><time>2026-07-22T03:22:11.000Z</time></trkpt>
        <trkpt lat="28.633962" lon="105.060044"><ele>582.5514</ele><time>2026-07-22T03:22:13.000Z</time></trkpt>
        <trkpt lat="28.633982" lon="105.060049"><ele>582.1676</ele><time>2026-07-22T03:22:15.000Z</time></trkpt>
        <trkpt lat="28.634003" lon="105.060056"><ele>581.66614</ele><time>2026-07-22T03:22:17.000Z</time></trkpt>
        <trkpt lat="28.634024" lon="105.060063"><ele>581.29144</ele><time>2026-07-22T03:22:19.000Z</time></trkpt>
        <trkpt lat="28.634047" lon="105.060071"><ele>581.4368</ele><time>2026-07-22T03:22:21.000Z</time></trkpt>
        <trkpt lat="28.634073" lon="105.060076"><ele>582.0377</ele><time>2026-07-22T03:22:23.000Z</time></trkpt>
        <trkpt lat="28.634106" lon="105.060077"><ele>582.1125</ele><time>2026-07-22T03:22:25.000Z</time></trkpt>
        <trkpt lat="28.634138" lon="105.060073"><ele>583.7964</ele><time>2026-07-22T03:22:27.000Z</time></trkpt>
        <trkpt lat="28.634169" lon="105.060062"><ele>583.835</ele><time>2026-07-22T03:22:29.000Z</time></trkpt>
        <trkpt lat="28.634196" lon="105.060044"><ele>583.1141</ele><time>2026-07-22T03:22:31.000Z</time></trkpt>
        <trkpt lat="28.634218" lon="105.060019"><ele>582.9494</ele><time>2026-07-22T03:22:33.000Z</time></trkpt>
        <trkpt lat="28.63423" lon="105.059993"><ele>582.7686</ele><time>2026-07-22T03:22:35.000Z</time></trkpt>
        <trkpt lat="28.634236" lon="105.059959"><ele>583.7176</ele><time>2026-07-22T03:22:37.000Z</time></trkpt>
        <trkpt lat="28.634237" lon="105.059922"><ele>583.85944</ele><time>2026-07-22T03:22:39.000Z</time></trkpt>
        <trkpt lat="28.634231" lon="105.059883"><ele>583.32684</ele><time>2026-07-22T03:22:41.000Z</time></trkpt>
        <trkpt lat="28.634225" lon="105.059843"><ele>583.2833</ele><time>2026-07-22T03:22:43.000Z</time></trkpt>
        <trkpt lat="28.634218" lon="105.059805"><ele>583.3823</ele><time>2026-07-22T03:22:45.000Z</time></trkpt>
        <trkpt lat="28.634215" lon="105.05977"><ele>583.3031</ele><time>2026-07-22T03:22:47.000Z</time></trkpt>
        <trkpt lat="28.634216" lon="105.059739"><ele>582.8457</ele><time>2026-07-22T03:22:49.000Z</time></trkpt>
        <trkpt lat="28.634221" lon="105.059712"><ele>583.5259</ele><time>2026-07-22T03:22:51.000Z</time></trkpt>
        <trkpt lat="28.634228" lon="105.059687"><ele>583.4386</ele><time>2026-07-22T03:22:53.000Z</time></trkpt>
        <trkpt lat="28.634237" lon="105.059662"><ele>583.44226</ele><time>2026-07-22T03:22:55.000Z</time></trkpt>
        <trkpt lat="28.634246" lon="105.059636"><ele>585.02545</ele><time>2026-07-22T03:22:57.000Z</time></trkpt>
        <trkpt lat="28.634255" lon="105.059607"><ele>585.3681</ele><time>2026-07-22T03:22:59.000Z</time></trkpt>
        <trkpt lat="28.634263" lon="105.059575"><ele>585.531</ele><time>2026-07-22T03:23:01.000Z</time></trkpt>
        <trkpt lat="28.634271" lon="105.059544"><ele>585.13055</ele><time>2026-07-22T03:23:03.000Z</time></trkpt>
        <trkpt lat="28.634274" lon="105.059516"><ele>585.9755</ele><time>2026-07-22T03:23:05.000Z</time></trkpt>
        <trkpt lat="28.634275" lon="105.059499"><ele>586.32764</ele><time>2026-07-22T03:23:07.000Z</time></trkpt>
        <trkpt lat="28.634274" lon="105.059479"><ele>586.746</ele><time>2026-07-22T03:23:09.000Z</time></trkpt>
        <trkpt lat="28.63427" lon="105.059456"><ele>587.25037</ele><time>2026-07-22T03:23:11.000Z</time></trkpt>
        <trkpt lat="28.634262" lon="105.059432"><ele>586.8228</ele><time>2026-07-22T03:23:13.000Z</time></trkpt>
        <trkpt lat="28.634251" lon="105.059405"><ele>586.42896</ele><time>2026-07-22T03:23:15.000Z</time></trkpt>
        <trkpt lat="28.63424" lon="105.05938"><ele>585.9778</ele><time>2026-07-22T03:23:17.000Z</time></trkpt>
        <trkpt lat="28.634231" lon="105.059359"><ele>586.38153</ele><time>2026-07-22T03:23:19.000Z</time></trkpt>
        <trkpt lat="28.634217" lon="105.059333"><ele>585.9655</ele><time>2026-07-22T03:23:21.000Z</time></trkpt>
        <trkpt lat="28.634202" lon="105.059305"><ele>583.19934</ele><time>2026-07-22T03:23:23.000Z</time></trkpt>
        <trkpt lat="28.634192" lon="105.059284"><ele>582.70966</ele><time>2026-07-22T03:23:25.000Z</time></trkpt>
        <trkpt lat="28.634184" lon="105.059266"><ele>583.9077</ele><time>2026-07-22T03:23:27.000Z</time></trkpt>
        <trkpt lat="28.634178" lon="105.059245"><ele>583.6517</ele><time>2026-07-22T03:23:29.000Z</time></trkpt>
        <trkpt lat="28.634172" lon="105.059224"><ele>584.20764</ele><time>2026-07-22T03:23:31.000Z</time></trkpt>
        <trkpt lat="28.634168" lon="105.059208"><ele>584.43115</ele><time>2026-07-22T03:23:33.000Z</time></trkpt>
        <trkpt lat="28.634165" lon="105.059191"><ele>584.9145</ele><time>2026-07-22T03:23:35.000Z</time></trkpt>
        <trkpt lat="28.634165" lon="105.059168"><ele>586.0419</ele><time>2026-07-22T03:23:37.000Z</time></trkpt>
        <trkpt lat="28.634166" lon="105.059146"><ele>586.4399</ele><time>2026-07-22T03:23:39.000Z</time></trkpt>
        <trkpt lat="28.634167" lon="105.059123"><ele>585.8273</ele><time>2026-07-22T03:23:41.000Z</time></trkpt>
        <trkpt lat="28.634168" lon="105.059099"><ele>586.33795</ele><time>2026-07-22T03:23:43.000Z</time></trkpt>
        <trkpt lat="28.634168" lon="105.059071"><ele>586.9951</ele><time>2026-07-22T03:23:45.000Z</time></trkpt>
        <trkpt lat="28.63417" lon="105.059038"><ele>585.8738</ele><time>2026-07-22T03:23:47.000Z</time></trkpt>
        <trkpt lat="28.634175" lon="105.059007"><ele>585.60266</ele><time>2026-07-22T03:23:49.000Z</time></trkpt>
        <trkpt lat="28.63418" lon="105.05898"><ele>585.1817</ele><time>2026-07-22T03:23:51.000Z</time></trkpt>
        <trkpt lat="28.634181" lon="105.058959"><ele>584.70526</ele><time>2026-07-22T03:23:53.000Z</time></trkpt>
        <trkpt lat="28.634182" lon="105.058936"><ele>584.6531</ele><time>2026-07-22T03:23:55.000Z</time></trkpt>
        <trkpt lat="28.634182" lon="105.058906"><ele>583.5017</ele><time>2026-07-22T03:23:57.000Z</time></trkpt>
        <trkpt lat="28.634183" lon="105.058878"><ele>582.8065</ele><time>2026-07-22T03:23:59.000Z</time></trkpt>
        <trkpt lat="28.634186" lon="105.058854"><ele>581.64703</ele><time>2026-07-22T03:24:01.000Z</time></trkpt>
        <trkpt lat="28.634189" lon="105.058829"><ele>580.9944</ele><time>2026-07-22T03:24:03.000Z</time></trkpt>
        <trkpt lat="28.634193" lon="105.05881"><ele>582.2316</ele><time>2026-07-22T03:24:05.000Z</time></trkpt>
        <trkpt lat="28.634197" lon="105.058789"><ele>581.5149</ele><time>2026-07-22T03:24:07.000Z</time></trkpt>
        <trkpt lat="28.634196" lon="105.058772"><ele>579.9408</ele><time>2026-07-22T03:24:09.000Z</time></trkpt>
        <trkpt lat="28.634194" lon="105.058754"><ele>579.4886</ele><time>2026-07-22T03:24:11.000Z</time></trkpt>
        <trkpt lat="28.63419" lon="105.058735"><ele>578.81793</ele><time>2026-07-22T03:24:13.000Z</time></trkpt>
        <trkpt lat="28.634191" lon="105.058717"><ele>579.21094</ele><time>2026-07-22T03:24:15.000Z</time></trkpt>
        <trkpt lat="28.634191" lon="105.0587"><ele>578.5757</ele><time>2026-07-22T03:24:17.000Z</time></trkpt>
        <trkpt lat="28.634195" lon="105.058685"><ele>577.8967</ele><time>2026-07-22T03:24:19.000Z</time></trkpt>
        <trkpt lat="28.634202" lon="105.058674"><ele>576.5969</ele><time>2026-07-22T03:24:21.000Z</time></trkpt>
        <trkpt lat="28.634215" lon="105.058661"><ele>576.59985</ele><time>2026-07-22T03:24:23.000Z</time></trkpt>
        <trkpt lat="28.634229" lon="105.058649"><ele>577.2997</ele><time>2026-07-22T03:24:25.000Z</time></trkpt>
        <trkpt lat="28.634245" lon="105.058637"><ele>576.8947</ele><time>2026-07-22T03:24:27.000Z</time></trkpt>
        <trkpt lat="28.634265" lon="105.058622"><ele>576.118</ele><time>2026-07-22T03:24:29.000Z</time></trkpt>
        <trkpt lat="28.634288" lon="105.058603"><ele>575.65857</ele><time>2026-07-22T03:24:31.000Z</time></trkpt>
        <trkpt lat="28.634307" lon="105.058587"><ele>575.1108</ele><time>2026-07-22T03:24:33.000Z</time></trkpt>
        <trkpt lat="28.634328" lon="105.058576"><ele>574.4585</ele><time>2026-07-22T03:24:35.000Z</time></trkpt>
        <trkpt lat="28.634344" lon="105.058563"><ele>574.74536</ele><time>2026-07-22T03:24:37.000Z</time></trkpt>
        <trkpt lat="28.634357" lon="105.058553"><ele>575.7073</ele><time>2026-07-22T03:24:39.000Z</time></trkpt>
        <trkpt lat="28.634372" lon="105.058547"><ele>573.3718</ele><time>2026-07-22T03:24:41.000Z</time></trkpt>
        <trkpt lat="28.634388" lon="105.058547"><ele>570.60516</ele><time>2026-07-22T03:24:43.000Z</time></trkpt>
        <trkpt lat="28.634409" lon="105.058548"><ele>568.57495</ele><time>2026-07-22T03:24:45.000Z</time></trkpt>
        <trkpt lat="28.634432" lon="105.058549"><ele>567.8311</ele><time>2026-07-22T03:24:47.000Z</time></trkpt>
        <trkpt lat="28.634454" lon="105.058549"><ele>569.98267</ele><time>2026-07-22T03:24:49.000Z</time></trkpt>
        <trkpt lat="28.634478" lon="105.058549"><ele>570.5505</ele><time>2026-07-22T03:24:51.000Z</time></trkpt>
        <trkpt lat="28.634505" lon="105.058547"><ele>570.79736</ele><time>2026-07-22T03:24:53.000Z</time></trkpt>
        <trkpt lat="28.634534" lon="105.058544"><ele>571.9495</ele><time>2026-07-22T03:24:55.000Z</time></trkpt>
        <trkpt lat="28.634558" lon="105.058539"><ele>573.32025</ele><time>2026-07-22T03:24:57.000Z</time></trkpt>
        <trkpt lat="28.63458" lon="105.058531"><ele>573.1565</ele><time>2026-07-22T03:24:59.000Z</time></trkpt>
        <trkpt lat="28.634599" lon="105.058518"><ele>573.7196</ele><time>2026-07-22T03:25:01.000Z</time></trkpt>
        <trkpt lat="28.634623" lon="105.058499"><ele>574.049</ele><time>2026-07-22T03:25:03.000Z</time></trkpt>
        <trkpt lat="28.63464" lon="105.058481"><ele>573.69916</ele><time>2026-07-22T03:25:05.000Z</time></trkpt>
        <trkpt lat="28.634652" lon="105.058464"><ele>573.49744</ele><time>2026-07-22T03:25:07.000Z</time></trkpt>
        <trkpt lat="28.634659" lon="105.058445"><ele>572.83246</ele><time>2026-07-22T03:25:09.000Z</time></trkpt>
        <trkpt lat="28.634663" lon="105.058425"><ele>571.2831</ele><time>2026-07-22T03:25:11.000Z</time></trkpt>
        <trkpt lat="28.634664" lon="105.0584"><ele>571.57886</ele><time>2026-07-22T03:25:13.000Z</time></trkpt>
        <trkpt lat="28.634662" lon="105.058371"><ele>571.441</ele><time>2026-07-22T03:25:15.000Z</time></trkpt>
        <trkpt lat="28.634657" lon="105.058339"><ele>570.22974</ele><time>2026-07-22T03:25:17.000Z</time></trkpt>
        <trkpt lat="28.634649" lon="105.058308"><ele>569.905</ele><time>2026-07-22T03:25:19.000Z</time></trkpt>
        <trkpt lat="28.63464" lon="105.058278"><ele>569.09985</ele><time>2026-07-22T03:25:21.000Z</time></trkpt>
        <trkpt lat="28.634632" lon="105.058246"><ele>568.5615</ele><time>2026-07-22T03:25:23.000Z</time></trkpt>
        <trkpt lat="28.634628" lon="105.058213"><ele>567.9101</ele><time>2026-07-22T03:25:25.000Z</time></trkpt>
        <trkpt lat="28.63463" lon="105.058181"><ele>567.32214</ele><time>2026-07-22T03:25:27.000Z</time></trkpt>
        <trkpt lat="28.634637" lon="105.058153"><ele>566.23566</ele><time>2026-07-22T03:25:29.000Z</time></trkpt>
        <trkpt lat="28.63465" lon="105.058129"><ele>566.78815</ele><time>2026-07-22T03:25:31.000Z</time></trkpt>
        <trkpt lat="28.63467" lon="105.058108"><ele>566.43915</ele><time>2026-07-22T03:25:33.000Z</time></trkpt>
        <trkpt lat="28.634695" lon="105.058091"><ele>566.059</ele><time>2026-07-22T03:25:35.000Z</time></trkpt>
        <trkpt lat="28.634721" lon="105.058081"><ele>565.083</ele><time>2026-07-22T03:25:37.000Z</time></trkpt>
        <trkpt lat="28.634747" lon="105.058074"><ele>564.9067</ele><time>2026-07-22T03:25:39.000Z</time></trkpt>
        <trkpt lat="28.634775" lon="105.058069"><ele>565.4269</ele><time>2026-07-22T03:25:41.000Z</time></trkpt>
        <trkpt lat="28.634799" lon="105.058063"><ele>565.94104</ele><time>2026-07-22T03:25:43.000Z</time></trkpt>
        <trkpt lat="28.634823" lon="105.058056"><ele>566.64886</ele><time>2026-07-22T03:25:45.000Z</time></trkpt>
        <trkpt lat="28.63485" lon="105.058047"><ele>566.5227</ele><time>2026-07-22T03:25:47.000Z</time></trkpt>
        <trkpt lat="28.634874" lon="105.058037"><ele>566.7064</ele><time>2026-07-22T03:25:49.000Z</time></trkpt>
        <trkpt lat="28.634897" lon="105.058024"><ele>566.57697</ele><time>2026-07-22T03:25:51.000Z</time></trkpt>
        <trkpt lat="28.634917" lon="105.058013"><ele>566.736</ele><time>2026-07-22T03:25:53.000Z</time></trkpt>
        <trkpt lat="28.634936" lon="105.058001"><ele>566.7335</ele><time>2026-07-22T03:25:55.000Z</time></trkpt>
        <trkpt lat="28.634955" lon="105.057988"><ele>566.53894</ele><time>2026-07-22T03:25:57.000Z</time></trkpt>
        <trkpt lat="28.634972" lon="105.057974"><ele>566.3806</ele><time>2026-07-22T03:25:59.000Z</time></trkpt>
        <trkpt lat="28.634993" lon="105.057958"><ele>565.71967</ele><time>2026-07-22T03:26:01.000Z</time></trkpt>
        <trkpt lat="28.635014" lon="105.057941"><ele>565.15906</ele><time>2026-07-22T03:26:03.000Z</time></trkpt>
        <trkpt lat="28.635036" lon="105.057927"><ele>564.04474</ele><time>2026-07-22T03:26:05.000Z</time></trkpt>
        <trkpt lat="28.635059" lon="105.057915"><ele>564.18146</ele><time>2026-07-22T03:26:07.000Z</time></trkpt>
        <trkpt lat="28.635081" lon="105.057903"><ele>563.4075</ele><time>2026-07-22T03:26:09.000Z</time></trkpt>
        <trkpt lat="28.6351" lon="105.05789"><ele>563.571</ele><time>2026-07-22T03:26:11.000Z</time></trkpt>
        <trkpt lat="28.635118" lon="105.057876"><ele>563.8917</ele><time>2026-07-22T03:26:13.000Z</time></trkpt>
        <trkpt lat="28.635137" lon="105.057861"><ele>563.4203</ele><time>2026-07-22T03:26:15.000Z</time></trkpt>
        <trkpt lat="28.635153" lon="105.057845"><ele>563.1198</ele><time>2026-07-22T03:26:17.000Z</time></trkpt>
        <trkpt lat="28.635169" lon="105.057826"><ele>562.93945</ele><time>2026-07-22T03:26:19.000Z</time></trkpt>
        <trkpt lat="28.635187" lon="105.057804"><ele>563.02637</ele><time>2026-07-22T03:26:21.000Z</time></trkpt>
        <trkpt lat="28.635198" lon="105.057785"><ele>562.6526</ele><time>2026-07-22T03:26:23.000Z</time></trkpt>
        <trkpt lat="28.635206" lon="105.057763"><ele>562.3924</ele><time>2026-07-22T03:26:25.000Z</time></trkpt>
        <trkpt lat="28.635207" lon="105.057744"><ele>561.8153</ele><time>2026-07-22T03:26:27.000Z</time></trkpt>
        <trkpt lat="28.635206" lon="105.05772"><ele>564.0899</ele><time>2026-07-22T03:26:29.000Z</time></trkpt>
        <trkpt lat="28.635207" lon="105.057699"><ele>563.82886</ele><time>2026-07-22T03:26:31.000Z</time></trkpt>
        <trkpt lat="28.635208" lon="105.057682"><ele>563.12256</ele><time>2026-07-22T03:26:33.000Z</time></trkpt>
        <trkpt lat="28.63521" lon="105.057662"><ele>564.4545</ele><time>2026-07-22T03:26:35.000Z</time></trkpt>
        <trkpt lat="28.635213" lon="105.057646"><ele>564.3208</ele><time>2026-07-22T03:26:37.000Z</time></trkpt>
        <trkpt lat="28.635216" lon="105.057636"><ele>564.79724</ele><time>2026-07-22T03:26:39.000Z</time></trkpt>
        <trkpt lat="28.63522" lon="105.057622"><ele>565.3541</ele><time>2026-07-22T03:26:41.000Z</time></trkpt>
        <trkpt lat="28.635226" lon="105.057609"><ele>564.7959</ele><time>2026-07-22T03:26:43.000Z</time></trkpt>
        <trkpt lat="28.63523" lon="105.057595"><ele>565.7226</ele><time>2026-07-22T03:26:45.000Z</time></trkpt>
        <trkpt lat="28.635233" lon="105.057584"><ele>566.6152</ele><time>2026-07-22T03:26:47.000Z</time></trkpt>
        <trkpt lat="28.635237" lon="105.057573"><ele>566.926</ele><time>2026-07-22T03:26:49.000Z</time></trkpt>
        <trkpt lat="28.63524" lon="105.057561"><ele>567.46545</ele><time>2026-07-22T03:26:51.000Z</time></trkpt>
        <trkpt lat="28.635243" lon="105.057555"><ele>568.73126</ele><time>2026-07-22T03:26:53.000Z</time></trkpt>
        <trkpt lat="28.635251" lon="105.057539"><ele>568.4199</ele><time>2026-07-22T03:26:57.000Z</time></trkpt>
        <trkpt lat="28.635254" lon="105.057534"><ele>568.9886</ele><time>2026-07-22T03:26:59.000Z</time></trkpt>
        <trkpt lat="28.635257" lon="105.057527"><ele>568.73267</ele><time>2026-07-22T03:27:01.000Z</time></trkpt>
        <trkpt lat="28.63526" lon="105.05752"><ele>569.3062</ele><time>2026-07-22T03:27:03.000Z</time></trkpt>
        <trkpt lat="28.635263" lon="105.057512"><ele>569.73694</ele><time>2026-07-22T03:27:05.000Z</time></trkpt>
        <trkpt lat="28.635267" lon="105.057503"><ele>570.25134</ele><time>2026-07-22T03:27:07.000Z</time></trkpt>
        <trkpt lat="28.635269" lon="105.057495"><ele>570.31494</ele><time>2026-07-22T03:27:09.000Z</time></trkpt>
        <trkpt lat="28.635273" lon="105.057486"><ele>570.4346</ele><time>2026-07-22T03:27:11.000Z</time></trkpt>
        <trkpt lat="28.635278" lon="105.057473"><ele>570.6458</ele><time>2026-07-22T03:27:13.000Z</time></trkpt>
        <trkpt lat="28.635283" lon="105.05746"><ele>570.20966</ele><time>2026-07-22T03:27:19.000Z</time></trkpt>
        <trkpt lat="28.635291" lon="105.057442"><ele>570.39655</ele><time>2026-07-22T03:27:21.000Z</time></trkpt>
        <trkpt lat="28.6353" lon="105.057424"><ele>570.95264</ele><time>2026-07-22T03:27:23.000Z</time></trkpt>
        <trkpt lat="28.635308" lon="105.057409"><ele>571.4534</ele><time>2026-07-22T03:27:25.000Z</time></trkpt>
        <trkpt lat="28.635316" lon="105.057396"><ele>571.0934</ele><time>2026-07-22T03:27:27.000Z</time></trkpt>
        <trkpt lat="28.635323" lon="105.057383"><ele>570.7197</ele><time>2026-07-22T03:27:29.000Z</time></trkpt>
        <trkpt lat="28.63533" lon="105.057371"><ele>570.39215</ele><time>2026-07-22T03:27:31.000Z</time></trkpt>
        <trkpt lat="28.635339" lon="105.057361"><ele>570.3123</ele><time>2026-07-22T03:27:33.000Z</time></trkpt>
        <trkpt lat="28.635348" lon="105.057352"><ele>570.5863</ele><time>2026-07-22T03:27:35.000Z</time></trkpt>
        <trkpt lat="28.635361" lon="105.057341"><ele>570.5398</ele><time>2026-07-22T03:27:37.000Z</time></trkpt>
        <trkpt lat="28.635376" lon="105.057329"><ele>570.4956</ele><time>2026-07-22T03:27:39.000Z</time></trkpt>
        <trkpt lat="28.635391" lon="105.057318"><ele>570.8743</ele><time>2026-07-22T03:27:41.000Z</time></trkpt>
        <trkpt lat="28.635407" lon="105.057307"><ele>570.7616</ele><time>2026-07-22T03:27:43.000Z</time></trkpt>
        <trkpt lat="28.63542" lon="105.057296"><ele>570.64307</ele><time>2026-07-22T03:27:45.000Z</time></trkpt>
        <trkpt lat="28.635436" lon="105.05728"><ele>571.4561</ele><time>2026-07-22T03:27:47.000Z</time></trkpt>
        <trkpt lat="28.635452" lon="105.057266"><ele>570.3612</ele><time>2026-07-22T03:27:49.000Z</time></trkpt>
        <trkpt lat="28.635466" lon="105.057252"><ele>571.6328</ele><time>2026-07-22T03:27:51.000Z</time></trkpt>
        <trkpt lat="28.635481" lon="105.057237"><ele>570.18585</ele><time>2026-07-22T03:27:53.000Z</time></trkpt>
        <trkpt lat="28.635496" lon="105.057223"><ele>570.93536</ele><time>2026-07-22T03:27:55.000Z</time></trkpt>
        <trkpt lat="28.635509" lon="105.05721"><ele>570.36926</ele><time>2026-07-22T03:27:57.000Z</time></trkpt>
        <trkpt lat="28.635523" lon="105.057195"><ele>570.36</ele><time>2026-07-22T03:27:59.000Z</time></trkpt>
        <trkpt lat="28.635536" lon="105.05718"><ele>570.3653</ele><time>2026-07-22T03:28:01.000Z</time></trkpt>
        <trkpt lat="28.635548" lon="105.057162"><ele>570.61206</ele><time>2026-07-22T03:28:03.000Z</time></trkpt>
        <trkpt lat="28.635557" lon="105.057145"><ele>570.3031</ele><time>2026-07-22T03:28:05.000Z</time></trkpt>
        <trkpt lat="28.635565" lon="105.057127"><ele>569.9352</ele><time>2026-07-22T03:28:07.000Z</time></trkpt>
        <trkpt lat="28.635572" lon="105.057111"><ele>569.55414</ele><time>2026-07-22T03:28:09.000Z</time></trkpt>
        <trkpt lat="28.635579" lon="105.057095"><ele>569.56134</ele><time>2026-07-22T03:28:11.000Z</time></trkpt>
        <trkpt lat="28.635588" lon="105.057078"><ele>568.7532</ele><time>2026-07-22T03:28:13.000Z</time></trkpt>
        <trkpt lat="28.635599" lon="105.057059"><ele>568.1909</ele><time>2026-07-22T03:28:15.000Z</time></trkpt>
        <trkpt lat="28.635609" lon="105.057039"><ele>567.6585</ele><time>2026-07-22T03:28:17.000Z</time></trkpt>
        <trkpt lat="28.635619" lon="105.057021"><ele>567.71844</ele><time>2026-07-22T03:28:19.000Z</time></trkpt>
        <trkpt lat="28.635632" lon="105.057001"><ele>567.629</ele><time>2026-07-22T03:28:21.000Z</time></trkpt>
        <trkpt lat="28.635647" lon="105.056981"><ele>567.2285</ele><time>2026-07-22T03:28:23.000Z</time></trkpt>
        <trkpt lat="28.635664" lon="105.05696"><ele>567.24164</ele><time>2026-07-22T03:28:25.000Z</time></trkpt>
        <trkpt lat="28.63568" lon="105.056938"><ele>566.7869</ele><time>2026-07-22T03:28:27.000Z</time></trkpt>
        <trkpt lat="28.635694" lon="105.056919"><ele>566.7972</ele><time>2026-07-22T03:28:29.000Z</time></trkpt>
        <trkpt lat="28.635709" lon="105.056901"><ele>566.983</ele><time>2026-07-22T03:28:31.000Z</time></trkpt>
        <trkpt lat="28.635722" lon="105.056884"><ele>566.1675</ele><time>2026-07-22T03:28:33.000Z</time></trkpt>
        <trkpt lat="28.63574" lon="105.056858"><ele>567.69116</ele><time>2026-07-22T03:28:35.000Z</time></trkpt>
        <trkpt lat="28.635755" lon="105.056832"><ele>568.1641</ele><time>2026-07-22T03:28:37.000Z</time></trkpt>
        <trkpt lat="28.63577" lon="105.056805"><ele>568.3753</ele><time>2026-07-22T03:28:39.000Z</time></trkpt>
        <trkpt lat="28.635784" lon="105.056783"><ele>568.5031</ele><time>2026-07-22T03:28:41.000Z</time></trkpt>
        <trkpt lat="28.635799" lon="105.056761"><ele>567.4318</ele><time>2026-07-22T03:28:43.000Z</time></trkpt>
        <trkpt lat="28.635815" lon="105.056736"><ele>566.7822</ele><time>2026-07-22T03:28:45.000Z</time></trkpt>
        <trkpt lat="28.635832" lon="105.056711"><ele>568.0159</ele><time>2026-07-22T03:28:47.000Z</time></trkpt>
        <trkpt lat="28.635849" lon="105.05669"><ele>566.54175</ele><time>2026-07-22T03:28:49.000Z</time></trkpt>
        <trkpt lat="28.635863" lon="105.05667"><ele>565.9598</ele><time>2026-07-22T03:28:51.000Z</time></trkpt>
        <trkpt lat="28.635876" lon="105.056648"><ele>565.4246</ele><time>2026-07-22T03:28:53.000Z</time></trkpt>
        <trkpt lat="28.635887" lon="105.056627"><ele>564.75037</ele><time>2026-07-22T03:28:55.000Z</time></trkpt>
        <trkpt lat="28.635897" lon="105.056606"><ele>564.59796</ele><time>2026-07-22T03:28:57.000Z</time></trkpt>
        <trkpt lat="28.635908" lon="105.056585"><ele>564.5516</ele><time>2026-07-22T03:28:59.000Z</time></trkpt>
        <trkpt lat="28.635919" lon="105.056564"><ele>564.95337</ele><time>2026-07-22T03:29:01.000Z</time></trkpt>
        <trkpt lat="28.635929" lon="105.056545"><ele>565.0258</ele><time>2026-07-22T03:29:03.000Z</time></trkpt>
        <trkpt lat="28.63594" lon="105.056524"><ele>564.394</ele><time>2026-07-22T03:29:05.000Z</time></trkpt>
        <trkpt lat="28.635952" lon="105.056503"><ele>563.9556</ele><time>2026-07-22T03:29:07.000Z</time></trkpt>
        <trkpt lat="28.635961" lon="105.056484"><ele>563.1649</ele><time>2026-07-22T03:29:09.000Z</time></trkpt>
        <trkpt lat="28.63597" lon="105.056467"><ele>562.6914</ele><time>2026-07-22T03:29:11.000Z</time></trkpt>
        <trkpt lat="28.635978" lon="105.056446"><ele>562.21857</ele><time>2026-07-22T03:29:13.000Z</time></trkpt>
        <trkpt lat="28.635986" lon="105.056427"><ele>562.2702</ele><time>2026-07-22T03:29:15.000Z</time></trkpt>
        <trkpt lat="28.635998" lon="105.056404"><ele>562.31616</ele><time>2026-07-22T03:29:17.000Z</time></trkpt>
        <trkpt lat="28.636009" lon="105.056381"><ele>562.6146</ele><time>2026-07-22T03:29:19.000Z</time></trkpt>
        <trkpt lat="28.636021" lon="105.056358"><ele>562.97064</ele><time>2026-07-22T03:29:21.000Z</time></trkpt>
        <trkpt lat="28.636031" lon="105.056338"><ele>562.0109</ele><time>2026-07-22T03:29:23.000Z</time></trkpt>
        <trkpt lat="28.636037" lon="105.056319"><ele>561.63025</ele><time>2026-07-22T03:29:25.000Z</time></trkpt>
        <trkpt lat="28.636042" lon="105.0563"><ele>561.5052</ele><time>2026-07-22T03:29:27.000Z</time></trkpt>
        <trkpt lat="28.636047" lon="105.056281"><ele>560.9203</ele><time>2026-07-22T03:29:29.000Z</time></trkpt>
        <trkpt lat="28.636052" lon="105.056263"><ele>560.70703</ele><time>2026-07-22T03:29:31.000Z</time></trkpt>
        <trkpt lat="28.636056" lon="105.056244"><ele>560.32935</ele><time>2026-07-22T03:29:33.000Z</time></trkpt>
        <trkpt lat="28.636061" lon="105.056225"><ele>559.66455</ele><time>2026-07-22T03:29:35.000Z</time></trkpt>
        <trkpt lat="28.636064" lon="105.056208"><ele>560.0904</ele><time>2026-07-22T03:29:37.000Z</time></trkpt>
        <trkpt lat="28.636067" lon="105.056194"><ele>559.42474</ele><time>2026-07-22T03:29:39.000Z</time></trkpt>
        <trkpt lat="28.636069" lon="105.05618"><ele>559.35443</ele><time>2026-07-22T03:29:41.000Z</time></trkpt>
        <trkpt lat="28.636072" lon="105.056167"><ele>559.26776</ele><time>2026-07-22T03:29:43.000Z</time></trkpt>
        <trkpt lat="28.636077" lon="105.056153"><ele>559.0051</ele><time>2026-07-22T03:29:45.000Z</time></trkpt>
        <trkpt lat="28.636081" lon="105.056139"><ele>558.5667</ele><time>2026-07-22T03:29:47.000Z</time></trkpt>
        <trkpt lat="28.636086" lon="105.056122"><ele>557.7065</ele><time>2026-07-22T03:29:49.000Z</time></trkpt>
        <trkpt lat="28.636091" lon="105.056105"><ele>557.48505</ele><time>2026-07-22T03:29:51.000Z</time></trkpt>
        <trkpt lat="28.636097" lon="105.056089"><ele>556.9077</ele><time>2026-07-22T03:29:53.000Z</time></trkpt>
        <trkpt lat="28.636103" lon="105.056076"><ele>556.9037</ele><time>2026-07-22T03:29:55.000Z</time></trkpt>
        <trkpt lat="28.636109" lon="105.056063"><ele>557.11707</ele><time>2026-07-22T03:29:57.000Z</time></trkpt>
        <trkpt lat="28.636112" lon="105.056049"><ele>556.7484</ele><time>2026-07-22T03:29:59.000Z</time></trkpt>
        <trkpt lat="28.636115" lon="105.056034"><ele>555.70984</ele><time>2026-07-22T03:30:01.000Z</time></trkpt>
        <trkpt lat="28.636117" lon="105.056017"><ele>555.6663</ele><time>2026-07-22T03:30:03.000Z</time></trkpt>
        <trkpt lat="28.63612" lon="105.055998"><ele>554.9009</ele><time>2026-07-22T03:30:05.000Z</time></trkpt>
        <trkpt lat="28.636126" lon="105.055976"><ele>554.64056</ele><time>2026-07-22T03:30:07.000Z</time></trkpt>
        <trkpt lat="28.636132" lon="105.055954"><ele>554.0817</ele><time>2026-07-22T03:30:09.000Z</time></trkpt>
        <trkpt lat="28.636137" lon="105.05593"><ele>553.8734</ele><time>2026-07-22T03:30:11.000Z</time></trkpt>
        <trkpt lat="28.636137" lon="105.055908"><ele>554.0489</ele><time>2026-07-22T03:30:13.000Z</time></trkpt>
        <trkpt lat="28.636134" lon="105.055886"><ele>553.3187</ele><time>2026-07-22T03:30:15.000Z</time></trkpt>
        <trkpt lat="28.636126" lon="105.055864"><ele>552.78076</ele><time>2026-07-22T03:30:17.000Z</time></trkpt>
        <trkpt lat="28.636114" lon="105.055843"><ele>552.79614</ele><time>2026-07-22T03:30:19.000Z</time></trkpt>
        <trkpt lat="28.636099" lon="105.05582"><ele>552.7585</ele><time>2026-07-22T03:30:21.000Z</time></trkpt>
        <trkpt lat="28.636083" lon="105.055801"><ele>552.87164</ele><time>2026-07-22T03:30:23.000Z</time></trkpt>
        <trkpt lat="28.636065" lon="105.055781"><ele>553.3901</ele><time>2026-07-22T03:30:25.000Z</time></trkpt>
        <trkpt lat="28.636046" lon="105.055763"><ele>553.7213</ele><time>2026-07-22T03:30:27.000Z</time></trkpt>
        <trkpt lat="28.636028" lon="105.055746"><ele>553.88855</ele><time>2026-07-22T03:30:29.000Z</time></trkpt>
        <trkpt lat="28.63601" lon="105.055731"><ele>554.09467</ele><time>2026-07-22T03:30:31.000Z</time></trkpt>
        <trkpt lat="28.635995" lon="105.05572"><ele>554.3857</ele><time>2026-07-22T03:30:33.000Z</time></trkpt>
        <trkpt lat="28.635979" lon="105.05571"><ele>554.70087</ele><time>2026-07-22T03:30:35.000Z</time></trkpt>
        <trkpt lat="28.635964" lon="105.055704"><ele>555.4202</ele><time>2026-07-22T03:30:37.000Z</time></trkpt>
        <trkpt lat="28.63595" lon="105.055699"><ele>555.581</ele><time>2026-07-22T03:30:39.000Z</time></trkpt>
        <trkpt lat="28.635939" lon="105.055695"><ele>556.72314</ele><time>2026-07-22T03:30:41.000Z</time></trkpt>
        <trkpt lat="28.635931" lon="105.055693"><ele>557.0272</ele><time>2026-07-22T03:30:43.000Z</time></trkpt>
        <trkpt lat="28.635923" lon="105.055692"><ele>558.50305</ele><time>2026-07-22T03:30:45.000Z</time></trkpt>
        <trkpt lat="28.635916" lon="105.055694"><ele>559.28394</ele><time>2026-07-22T03:30:47.000Z</time></trkpt>
        <trkpt lat="28.635903" lon="105.055695"><ele>559.8325</ele><time>2026-07-22T03:30:49.000Z</time></trkpt>
        <trkpt lat="28.635895" lon="105.055693"><ele>560.4029</ele><time>2026-07-22T03:30:55.000Z</time></trkpt>
        <trkpt lat="28.635884" lon="105.055689"><ele>560.63873</ele><time>2026-07-22T03:30:57.000Z</time></trkpt>
        <trkpt lat="28.635871" lon="105.055684"><ele>560.72455</ele><time>2026-07-22T03:30:59.000Z</time></trkpt>
        <trkpt lat="28.635858" lon="105.055679"><ele>560.60925</ele><time>2026-07-22T03:31:01.000Z</time></trkpt>
        <trkpt lat="28.635845" lon="105.055676"><ele>561.0154</ele><time>2026-07-22T03:31:03.000Z</time></trkpt>
        <trkpt lat="28.635832" lon="105.055673"><ele>561.0015</ele><time>2026-07-22T03:31:05.000Z</time></trkpt>
        <trkpt lat="28.635821" lon="105.055668"><ele>561.2195</ele><time>2026-07-22T03:31:07.000Z</time></trkpt>
        <trkpt lat="28.635809" lon="105.055663"><ele>561.48413</ele><time>2026-07-22T03:31:09.000Z</time></trkpt>
        <trkpt lat="28.635799" lon="105.055659"><ele>561.7799</ele><time>2026-07-22T03:31:11.000Z</time></trkpt>
        <trkpt lat="28.635791" lon="105.055656"><ele>563.44867</ele><time>2026-07-22T03:31:13.000Z</time></trkpt>
        <trkpt lat="28.63578" lon="105.055653"><ele>563.5835</ele><time>2026-07-22T03:31:15.000Z</time></trkpt>
        <trkpt lat="28.635768" lon="105.055649"><ele>563.68146</ele><time>2026-07-22T03:31:17.000Z</time></trkpt>
        <trkpt lat="28.635757" lon="105.055646"><ele>563.99414</ele><time>2026-07-22T03:31:19.000Z</time></trkpt>
        <trkpt lat="28.635749" lon="105.055642"><ele>564.48285</ele><time>2026-07-22T03:31:21.000Z</time></trkpt>
        <trkpt lat="28.635738" lon="105.055635"><ele>564.7172</ele><time>2026-07-22T03:31:23.000Z</time></trkpt>
        <trkpt lat="28.635723" lon="105.055626"><ele>565.0384</ele><time>2026-07-22T03:31:25.000Z</time></trkpt>
        <trkpt lat="28.635706" lon="105.055614"><ele>564.45874</ele><time>2026-07-22T03:31:27.000Z</time></trkpt>
        <trkpt lat="28.63569" lon="105.055602"><ele>564.62885</ele><time>2026-07-22T03:31:29.000Z</time></trkpt>
        <trkpt lat="28.635676" lon="105.055591"><ele>564.66077</ele><time>2026-07-22T03:31:31.000Z</time></trkpt>
        <trkpt lat="28.635659" lon="105.055576"><ele>564.7697</ele><time>2026-07-22T03:31:33.000Z</time></trkpt>
        <trkpt lat="28.63564" lon="105.055558"><ele>565.91284</ele><time>2026-07-22T03:31:35.000Z</time></trkpt>
        <trkpt lat="28.635622" lon="105.055536"><ele>566.66</ele><time>2026-07-22T03:31:37.000Z</time></trkpt>
        <trkpt lat="28.635607" lon="105.055512"><ele>567.0861</ele><time>2026-07-22T03:31:39.000Z</time></trkpt>
        <trkpt lat="28.635597" lon="105.055486"><ele>566.82764</ele><time>2026-07-22T03:31:41.000Z</time></trkpt>
        <trkpt lat="28.63559" lon="105.055457"><ele>566.9063</ele><time>2026-07-22T03:31:43.000Z</time></trkpt>
        <trkpt lat="28.635587" lon="105.055426"><ele>566.3883</ele><time>2026-07-22T03:31:45.000Z</time></trkpt>
        <trkpt lat="28.635589" lon="105.055396"><ele>566.63885</ele><time>2026-07-22T03:31:47.000Z</time></trkpt>
        <trkpt lat="28.635595" lon="105.055368"><ele>565.6923</ele><time>2026-07-22T03:31:49.000Z</time></trkpt>
        <trkpt lat="28.635602" lon="105.055336"><ele>565.9318</ele><time>2026-07-22T03:31:51.000Z</time></trkpt>
        <trkpt lat="28.635608" lon="105.055306"><ele>566.5993</ele><time>2026-07-22T03:31:53.000Z</time></trkpt>
        <trkpt lat="28.635613" lon="105.055276"><ele>566.16766</ele><time>2026-07-22T03:31:55.000Z</time></trkpt>
        <trkpt lat="28.635617" lon="105.055247"><ele>565.7971</ele><time>2026-07-22T03:31:57.000Z</time></trkpt>
        <trkpt lat="28.63562" lon="105.055217"><ele>565.8668</ele><time>2026-07-22T03:31:59.000Z</time></trkpt>
        <trkpt lat="28.635624" lon="105.055189"><ele>565.15137</ele><time>2026-07-22T03:32:01.000Z</time></trkpt>
        <trkpt lat="28.635627" lon="105.055165"><ele>564.4502</ele><time>2026-07-22T03:32:03.000Z</time></trkpt>
        <trkpt lat="28.635629" lon="105.055143"><ele>565.0017</ele><time>2026-07-22T03:32:05.000Z</time></trkpt>
        <trkpt lat="28.63563" lon="105.055118"><ele>564.8551</ele><time>2026-07-22T03:32:07.000Z</time></trkpt>
        <trkpt lat="28.635632" lon="105.055092"><ele>564.44916</ele><time>2026-07-22T03:32:09.000Z</time></trkpt>
        <trkpt lat="28.635637" lon="105.055064"><ele>565.3906</ele><time>2026-07-22T03:32:11.000Z</time></trkpt>
        <trkpt lat="28.63564" lon="105.055043"><ele>564.3817</ele><time>2026-07-22T03:32:13.000Z</time></trkpt>
        <trkpt lat="28.635643" lon="105.055021"><ele>564.2359</ele><time>2026-07-22T03:32:15.000Z</time></trkpt>
        <trkpt lat="28.635643" lon="105.054997"><ele>564.3656</ele><time>2026-07-22T03:32:17.000Z</time></trkpt>
        <trkpt lat="28.635642" lon="105.054972"><ele>563.9235</ele><time>2026-07-22T03:32:19.000Z</time></trkpt>
        <trkpt lat="28.63564" lon="105.054948"><ele>563.49054</ele><time>2026-07-22T03:32:21.000Z</time></trkpt>
        <trkpt lat="28.635637" lon="105.054925"><ele>562.82635</ele><time>2026-07-22T03:32:23.000Z</time></trkpt>
        <trkpt lat="28.635633" lon="105.0549"><ele>562.7787</ele><time>2026-07-22T03:32:25.000Z</time></trkpt>
        <trkpt lat="28.63563" lon="105.054874"><ele>561.86914</ele><time>2026-07-22T03:32:27.000Z</time></trkpt>
        <trkpt lat="28.635625" lon="105.054849"><ele>562.3976</ele><time>2026-07-22T03:32:29.000Z</time></trkpt>
        <trkpt lat="28.635621" lon="105.054825"><ele>561.6918</ele><time>2026-07-22T03:32:31.000Z</time></trkpt>
        <trkpt lat="28.635615" lon="105.054803"><ele>561.114</ele><time>2026-07-22T03:32:33.000Z</time></trkpt>
        <trkpt lat="28.63561" lon="105.054779"><ele>561.13635</ele><time>2026-07-22T03:32:35.000Z</time></trkpt>
        <trkpt lat="28.635606" lon="105.054757"><ele>561.36475</ele><time>2026-07-22T03:32:37.000Z</time></trkpt>
        <trkpt lat="28.635601" lon="105.054734"><ele>560.51135</ele><time>2026-07-22T03:32:39.000Z</time></trkpt>
        <trkpt lat="28.635597" lon="105.054713"><ele>560.55426</ele><time>2026-07-22T03:32:41.000Z</time></trkpt>
        <trkpt lat="28.635595" lon="105.054695"><ele>560.9169</ele><time>2026-07-22T03:32:43.000Z</time></trkpt>
        <trkpt lat="28.635593" lon="105.054676"><ele>561.14215</ele><time>2026-07-22T03:32:45.000Z</time></trkpt>
        <trkpt lat="28.635591" lon="105.054657"><ele>560.6599</ele><time>2026-07-22T03:32:47.000Z</time></trkpt>
        <trkpt lat="28.635588" lon="105.054637"><ele>560.8521</ele><time>2026-07-22T03:32:49.000Z</time></trkpt>
        <trkpt lat="28.635585" lon="105.054612"><ele>561.03156</ele><time>2026-07-22T03:32:51.000Z</time></trkpt>
        <trkpt lat="28.635581" lon="105.054586"><ele>560.8379</ele><time>2026-07-22T03:32:53.000Z</time></trkpt>
        <trkpt lat="28.635576" lon="105.054557"><ele>561.32416</ele><time>2026-07-22T03:32:55.000Z</time></trkpt>
        <trkpt lat="28.635572" lon="105.054528"><ele>561.9593</ele><time>2026-07-22T03:32:57.000Z</time></trkpt>
        <trkpt lat="28.635568" lon="105.054501"><ele>563.072</ele><time>2026-07-22T03:32:59.000Z</time></trkpt>
        <trkpt lat="28.635564" lon="105.054474"><ele>563.2401</ele><time>2026-07-22T03:33:01.000Z</time></trkpt>
        <trkpt lat="28.635559" lon="105.054455"><ele>563.7976</ele><time>2026-07-22T03:33:03.000Z</time></trkpt>
        <trkpt lat="28.635552" lon="105.054438"><ele>564.3115</ele><time>2026-07-22T03:33:05.000Z</time></trkpt>
        <trkpt lat="28.635543" lon="105.054425"><ele>565.0116</ele><time>2026-07-22T03:33:07.000Z</time></trkpt>
        <trkpt lat="28.635532" lon="105.054412"><ele>564.9384</ele><time>2026-07-22T03:33:09.000Z</time></trkpt>
        <trkpt lat="28.635519" lon="105.054398"><ele>565.2999</ele><time>2026-07-22T03:33:11.000Z</time></trkpt>
        <trkpt lat="28.635506" lon="105.054386"><ele>565.2468</ele><time>2026-07-22T03:33:13.000Z</time></trkpt>
        <trkpt lat="28.635493" lon="105.054373"><ele>564.97327</ele><time>2026-07-22T03:33:15.000Z</time></trkpt>
        <trkpt lat="28.635478" lon="105.054359"><ele>565.2875</ele><time>2026-07-22T03:33:17.000Z</time></trkpt>
        <trkpt lat="28.63546" lon="105.054344"><ele>564.97144</ele><time>2026-07-22T03:33:19.000Z</time></trkpt>
        <trkpt lat="28.635442" lon="105.054327"><ele>564.66266</ele><time>2026-07-22T03:33:21.000Z</time></trkpt>
        <trkpt lat="28.635422" lon="105.054308"><ele>564.20575</ele><time>2026-07-22T03:33:23.000Z</time></trkpt>
        <trkpt lat="28.635403" lon="105.054287"><ele>564.037</ele><time>2026-07-22T03:33:25.000Z</time></trkpt>
        <trkpt lat="28.635386" lon="105.054265"><ele>563.7257</ele><time>2026-07-22T03:33:27.000Z</time></trkpt>
        <trkpt lat="28.635372" lon="105.054243"><ele>563.7985</ele><time>2026-07-22T03:33:29.000Z</time></trkpt>
        <trkpt lat="28.635362" lon="105.054222"><ele>563.7645</ele><time>2026-07-22T03:33:31.000Z</time></trkpt>
        <trkpt lat="28.635354" lon="105.054198"><ele>563.96985</ele><time>2026-07-22T03:33:33.000Z</time></trkpt>
        <trkpt lat="28.635349" lon="105.054175"><ele>562.9937</ele><time>2026-07-22T03:33:35.000Z</time></trkpt>
        <trkpt lat="28.635346" lon="105.054152"><ele>563.3762</ele><time>2026-07-22T03:33:37.000Z</time></trkpt>
        <trkpt lat="28.635346" lon="105.054131"><ele>563.6659</ele><time>2026-07-22T03:33:39.000Z</time></trkpt>
        <trkpt lat="28.635346" lon="105.054111"><ele>564.28357</ele><time>2026-07-22T03:33:41.000Z</time></trkpt>
        <trkpt lat="28.635352" lon="105.054092"><ele>564.1482</ele><time>2026-07-22T03:33:43.000Z</time></trkpt>
        <trkpt lat="28.635355" lon="105.054091"><ele>563.68365</ele><time>2026-07-22T03:33:45.000Z</time></trkpt>
        <trkpt lat="28.63537" lon="105.054089"><ele>563.59906</ele><time>2026-07-22T03:33:47.000Z</time></trkpt>
        <trkpt lat="28.635388" lon="105.054088"><ele>564.00244</ele><time>2026-07-22T03:33:49.000Z</time></trkpt>
        <trkpt lat="28.635402" lon="105.054085"><ele>564.7148</ele><time>2026-07-22T03:33:51.000Z</time></trkpt>
        <trkpt lat="28.635415" lon="105.054081"><ele>564.99896</ele><time>2026-07-22T03:33:53.000Z</time></trkpt>
        <trkpt lat="28.635426" lon="105.054078"><ele>565.6847</ele><time>2026-07-22T03:33:55.000Z</time></trkpt>
        <trkpt lat="28.635432" lon="105.054078"><ele>566.28204</ele><time>2026-07-22T03:33:57.000Z</time></trkpt>
        <trkpt lat="28.635433" lon="105.054082"><ele>567.32306</ele><time>2026-07-22T03:33:59.000Z</time></trkpt>
        <trkpt lat="28.635436" lon="105.054106"><ele>566.8876</ele><time>2026-07-22T03:34:03.000Z</time></trkpt>
        <trkpt lat="28.635436" lon="105.054123"><ele>567.19763</ele><time>2026-07-22T03:34:05.000Z</time></trkpt>
        <trkpt lat="28.635433" lon="105.054134"><ele>567.45557</ele><time>2026-07-22T03:34:07.000Z</time></trkpt>
        <trkpt lat="28.635427" lon="105.054146"><ele>567.5687</ele><time>2026-07-22T03:34:09.000Z</time></trkpt>
        <trkpt lat="28.635422" lon="105.054148"><ele>567.06726</ele><time>2026-07-22T03:34:11.000Z</time></trkpt>
        <trkpt lat="28.635411" lon="105.054148"><ele>567.428</ele><time>2026-07-22T03:34:13.000Z</time></trkpt>
        <trkpt lat="28.635397" lon="105.054147"><ele>568.158</ele><time>2026-07-22T03:34:15.000Z</time></trkpt>
        <trkpt lat="28.63539" lon="105.054147"><ele>567.7415</ele><time>2026-07-22T03:34:17.000Z</time></trkpt>
        <trkpt lat="28.635381" lon="105.054147"><ele>568.5038</ele><time>2026-07-22T03:34:19.000Z</time></trkpt>
        <trkpt lat="28.63537" lon="105.054145"><ele>568.23425</ele><time>2026-07-22T03:34:21.000Z</time></trkpt>
        <trkpt lat="28.635367" lon="105.054148"><ele>567.5514</ele><time>2026-07-22T03:34:25.000Z</time></trkpt>
        <trkpt lat="28.635355" lon="105.05415"><ele>567.34827</ele><time>2026-07-22T03:34:31.000Z</time></trkpt>
        <trkpt lat="28.635411" lon="105.054142"><ele>566.5153</ele><time>2026-07-22T03:34:47.000Z</time></trkpt>
        <trkpt lat="28.635411" lon="105.054142"><ele>565.79364</ele><time>2026-07-22T03:34:49.000Z</time></trkpt>
        <trkpt lat="28.635412" lon="105.054141"><ele>566.1704</ele><time>2026-07-22T03:34:51.000Z</time></trkpt>
        <trkpt lat="28.635434" lon="105.054119"><ele>566.01483</ele><time>2026-07-22T03:34:57.000Z</time></trkpt>
        <trkpt lat="28.635436" lon="105.054109"><ele>565.4936</ele><time>2026-07-22T03:34:59.000Z</time></trkpt>
        <trkpt lat="28.635434" lon="105.054102"><ele>565.2187</ele><time>2026-07-22T03:35:01.000Z</time></trkpt>
        <trkpt lat="28.635428" lon="105.054102"><ele>563.99005</ele><time>2026-07-22T03:35:05.000Z</time></trkpt>
        <trkpt lat="28.635399" lon="105.054099"><ele>563.6363</ele><time>2026-07-22T03:35:09.000Z</time></trkpt>
        <trkpt lat="28.635399" lon="105.054099"><ele>564.0183</ele><time>2026-07-22T03:35:11.000Z</time></trkpt>
        <trkpt lat="28.635398" lon="105.054099"><ele>564.0835</ele><time>2026-07-22T03:35:13.000Z</time></trkpt>
        <trkpt lat="28.635378" lon="105.054077"><ele>564.21094</ele><time>2026-07-22T03:35:31.000Z</time></trkpt>
        <trkpt lat="28.635369" lon="105.054065"><ele>563.8317</ele><time>2026-07-22T03:35:33.000Z</time></trkpt>
        <trkpt lat="28.63537" lon="105.054064"><ele>563.6544</ele><time>2026-07-22T03:35:35.000Z</time></trkpt>
        <trkpt lat="28.635377" lon="105.054022"><ele>563.82214</ele><time>2026-07-22T03:35:41.000Z</time></trkpt>
        <trkpt lat="28.635378" lon="105.053993"><ele>563.4584</ele><time>2026-07-22T03:35:43.000Z</time></trkpt>
        <trkpt lat="28.635375" lon="105.053958"><ele>562.7708</ele><time>2026-07-22T03:35:45.000Z</time></trkpt>
        <trkpt lat="28.635368" lon="105.053928"><ele>562.4189</ele><time>2026-07-22T03:35:47.000Z</time></trkpt>
        <trkpt lat="28.635361" lon="105.053902"><ele>562.8655</ele><time>2026-07-22T03:35:49.000Z</time></trkpt>
        <trkpt lat="28.635355" lon="105.053887"><ele>563.96844</ele><time>2026-07-22T03:35:51.000Z</time></trkpt>
        <trkpt lat="28.635351" lon="105.053881"><ele>563.6988</ele><time>2026-07-22T03:35:53.000Z</time></trkpt>
        <trkpt lat="28.635349" lon="105.053876"><ele>563.62555</ele><time>2026-07-22T03:35:57.000Z</time></trkpt>
        <trkpt lat="28.635341" lon="105.053861"><ele>563.56635</ele><time>2026-07-22T03:36:05.000Z</time></trkpt>
        <trkpt lat="28.635328" lon="105.053835"><ele>563.4376</ele><time>2026-07-22T03:36:07.000Z</time></trkpt>
        <trkpt lat="28.635327" lon="105.053833"><ele>563.37164</ele><time>2026-07-22T03:36:09.000Z</time></trkpt>
        <trkpt lat="28.635327" lon="105.053833"><ele>563.14404</ele><time>2026-07-22T03:36:11.000Z</time></trkpt>
        <trkpt lat="28.63531" lon="105.05379"><ele>561.746</ele><time>2026-07-22T03:36:34.000Z</time></trkpt>
        <trkpt lat="28.6353" lon="105.053767"><ele>561.4678</ele><time>2026-07-22T03:36:36.000Z</time></trkpt>
        <trkpt lat="28.635299" lon="105.053765"><ele>561.5886</ele><time>2026-07-22T03:36:38.000Z</time></trkpt>
        <trkpt lat="28.635289" lon="105.053722"><ele>560.5192</ele><time>2026-07-22T03:36:44.000Z</time></trkpt>
        <trkpt lat="28.635284" lon="105.053692"><ele>560.52325</ele><time>2026-07-22T03:36:46.000Z</time></trkpt>
        <trkpt lat="28.63528" lon="105.053661"><ele>559.59143</ele><time>2026-07-22T03:36:48.000Z</time></trkpt>
        <trkpt lat="28.635279" lon="105.053631"><ele>558.8309</ele><time>2026-07-22T03:36:50.000Z</time></trkpt>
        <trkpt lat="28.63528" lon="105.053604"><ele>558.69696</ele><time>2026-07-22T03:36:52.000Z</time></trkpt>
        <trkpt lat="28.635282" lon="105.053578"><ele>557.5673</ele><time>2026-07-22T03:36:54.000Z</time></trkpt>
        <trkpt lat="28.635285" lon="105.053552"><ele>556.7225</ele><time>2026-07-22T03:36:56.000Z</time></trkpt>
        <trkpt lat="28.635287" lon="105.053528"><ele>556.88086</ele><time>2026-07-22T03:36:58.000Z</time></trkpt>
        <trkpt lat="28.635289" lon="105.053505"><ele>556.5039</ele><time>2026-07-22T03:37:00.000Z</time></trkpt>
        <trkpt lat="28.635292" lon="105.053483"><ele>555.80774</ele><time>2026-07-22T03:37:02.000Z</time></trkpt>
        <trkpt lat="28.635296" lon="105.053463"><ele>555.1767</ele><time>2026-07-22T03:37:04.000Z</time></trkpt>
        <trkpt lat="28.635301" lon="105.053442"><ele>554.9989</ele><time>2026-07-22T03:37:06.000Z</time></trkpt>
        <trkpt lat="28.635305" lon="105.053422"><ele>554.0609</ele><time>2026-07-22T03:37:08.000Z</time></trkpt>
        <trkpt lat="28.63531" lon="105.0534"><ele>553.7019</ele><time>2026-07-22T03:37:10.000Z</time></trkpt>
        <trkpt lat="28.635316" lon="105.05338"><ele>553.8202</ele><time>2026-07-22T03:37:12.000Z</time></trkpt>
        <trkpt lat="28.635324" lon="105.053362"><ele>553.2064</ele><time>2026-07-22T03:37:14.000Z</time></trkpt>
        <trkpt lat="28.635332" lon="105.053343"><ele>553.25256</ele><time>2026-07-22T03:37:16.000Z</time></trkpt>
        <trkpt lat="28.635341" lon="105.053323"><ele>552.37396</ele><time>2026-07-22T03:37:18.000Z</time></trkpt>
        <trkpt lat="28.635351" lon="105.053303"><ele>552.2257</ele><time>2026-07-22T03:37:20.000Z</time></trkpt>
        <trkpt lat="28.635361" lon="105.053282"><ele>551.732</ele><time>2026-07-22T03:37:22.000Z</time></trkpt>
        <trkpt lat="28.635371" lon="105.05326"><ele>551.90106</ele><time>2026-07-22T03:37:24.000Z</time></trkpt>
        <trkpt lat="28.635383" lon="105.053236"><ele>552.0414</ele><time>2026-07-22T03:37:26.000Z</time></trkpt>
        <trkpt lat="28.635396" lon="105.05321"><ele>551.7068</ele><time>2026-07-22T03:37:28.000Z</time></trkpt>
        <trkpt lat="28.635408" lon="105.05318"><ele>551.7825</ele><time>2026-07-22T03:37:30.000Z</time></trkpt>
        <trkpt lat="28.635418" lon="105.053149"><ele>552.3083</ele><time>2026-07-22T03:37:32.000Z</time></trkpt>
        <trkpt lat="28.635427" lon="105.053118"><ele>552.22894</ele><time>2026-07-22T03:37:34.000Z</time></trkpt>
        <trkpt lat="28.635434" lon="105.053086"><ele>551.92975</ele><time>2026-07-22T03:37:36.000Z</time></trkpt>
        <trkpt lat="28.63544" lon="105.053057"><ele>552.61096</ele><time>2026-07-22T03:37:38.000Z</time></trkpt>
        <trkpt lat="28.635444" lon="105.053034"><ele>553.11053</ele><time>2026-07-22T03:37:40.000Z</time></trkpt>
        <trkpt lat="28.635447" lon="105.053018"><ele>553.2205</ele><time>2026-07-22T03:37:42.000Z</time></trkpt>
        <trkpt lat="28.635449" lon="105.053"><ele>552.73517</ele><time>2026-07-22T03:37:44.000Z</time></trkpt>
        <trkpt lat="28.635448" lon="105.052979"><ele>552.31067</ele><time>2026-07-22T03:37:46.000Z</time></trkpt>
        <trkpt lat="28.635445" lon="105.052955"><ele>552.56305</ele><time>2026-07-22T03:37:48.000Z</time></trkpt>
        <trkpt lat="28.635444" lon="105.052935"><ele>552.3316</ele><time>2026-07-22T03:37:50.000Z</time></trkpt>
        <trkpt lat="28.635443" lon="105.052915"><ele>553.1312</ele><time>2026-07-22T03:37:52.000Z</time></trkpt>
        <trkpt lat="28.635443" lon="105.052887"><ele>553.94476</ele><time>2026-07-22T03:37:54.000Z</time></trkpt>
        <trkpt lat="28.635443" lon="105.052863"><ele>553.32965</ele><time>2026-07-22T03:37:56.000Z</time></trkpt>
        <trkpt lat="28.635444" lon="105.05284"><ele>553.3048</ele><time>2026-07-22T03:37:58.000Z</time></trkpt>
        <trkpt lat="28.635443" lon="105.052815"><ele>554.34735</ele><time>2026-07-22T03:38:00.000Z</time></trkpt>
        <trkpt lat="28.635441" lon="105.052791"><ele>555.0985</ele><time>2026-07-22T03:38:02.000Z</time></trkpt>
        <trkpt lat="28.635436" lon="105.052767"><ele>555.72156</ele><time>2026-07-22T03:38:04.000Z</time></trkpt>
        <trkpt lat="28.635429" lon="105.052745"><ele>555.70496</ele><time>2026-07-22T03:38:06.000Z</time></trkpt>
        <trkpt lat="28.635419" lon="105.052723"><ele>556.26526</ele><time>2026-07-22T03:38:08.000Z</time></trkpt>
        <trkpt lat="28.635409" lon="105.052701"><ele>557.249</ele><time>2026-07-22T03:38:10.000Z</time></trkpt>
        <trkpt lat="28.635398" lon="105.052678"><ele>556.9719</ele><time>2026-07-22T03:38:12.000Z</time></trkpt>
        <trkpt lat="28.635388" lon="105.052656"><ele>558.2394</ele><time>2026-07-22T03:38:14.000Z</time></trkpt>
        <trkpt lat="28.635381" lon="105.052631"><ele>558.3847</ele><time>2026-07-22T03:38:16.000Z</time></trkpt>
        <trkpt lat="28.635377" lon="105.052609"><ele>558.203</ele><time>2026-07-22T03:38:18.000Z</time></trkpt>
        <trkpt lat="28.635376" lon="105.05259"><ele>558.42236</ele><time>2026-07-22T03:38:20.000Z</time></trkpt>
        <trkpt lat="28.635371" lon="105.052569"><ele>556.9824</ele><time>2026-07-22T03:38:22.000Z</time></trkpt>
        <trkpt lat="28.635366" lon="105.052546"><ele>555.9512</ele><time>2026-07-22T03:38:24.000Z</time></trkpt>
        <trkpt lat="28.635363" lon="105.052529"><ele>557.54584</ele><time>2026-07-22T03:38:26.000Z</time></trkpt>
        <trkpt lat="28.63536" lon="105.052504"><ele>557.16144</ele><time>2026-07-22T03:38:28.000Z</time></trkpt>
        <trkpt lat="28.635356" lon="105.052479"><ele>556.43475</ele><time>2026-07-22T03:38:30.000Z</time></trkpt>
        <trkpt lat="28.635352" lon="105.052448"><ele>557.14825</ele><time>2026-07-22T03:38:32.000Z</time></trkpt>
        <trkpt lat="28.635347" lon="105.052419"><ele>557.2735</ele><time>2026-07-22T03:38:34.000Z</time></trkpt>
        <trkpt lat="28.635342" lon="105.05239"><ele>557.2995</ele><time>2026-07-22T03:38:36.000Z</time></trkpt>
        <trkpt lat="28.635337" lon="105.05236"><ele>557.39935</ele><time>2026-07-22T03:38:38.000Z</time></trkpt>
        <trkpt lat="28.635333" lon="105.052332"><ele>557.2267</ele><time>2026-07-22T03:38:40.000Z</time></trkpt>
        <trkpt lat="28.635329" lon="105.052303"><ele>556.6429</ele><time>2026-07-22T03:38:42.000Z</time></trkpt>
        <trkpt lat="28.635328" lon="105.052275"><ele>556.7479</ele><time>2026-07-22T03:38:44.000Z</time></trkpt>
        <trkpt lat="28.635327" lon="105.052252"><ele>555.3356</ele><time>2026-07-22T03:38:46.000Z</time></trkpt>
        <trkpt lat="28.635325" lon="105.052225"><ele>555.4137</ele><time>2026-07-22T03:38:48.000Z</time></trkpt>
        <trkpt lat="28.63532" lon="105.052197"><ele>555.69135</ele><time>2026-07-22T03:38:50.000Z</time></trkpt>
        <trkpt lat="28.635314" lon="105.052168"><ele>555.8612</ele><time>2026-07-22T03:38:52.000Z</time></trkpt>
        <trkpt lat="28.635308" lon="105.052143"><ele>556.0019</ele><time>2026-07-22T03:38:54.000Z</time></trkpt>
        <trkpt lat="28.635302" lon="105.052118"><ele>556.0434</ele><time>2026-07-22T03:38:56.000Z</time></trkpt>
        <trkpt lat="28.635297" lon="105.052094"><ele>556.7727</ele><time>2026-07-22T03:38:58.000Z</time></trkpt>
        <trkpt lat="28.63529" lon="105.05207"><ele>556.56116</ele><time>2026-07-22T03:39:00.000Z</time></trkpt>
        <trkpt lat="28.635282" lon="105.052044"><ele>555.8399</ele><time>2026-07-22T03:39:02.000Z</time></trkpt>
        <trkpt lat="28.635273" lon="105.05202"><ele>556.05707</ele><time>2026-07-22T03:39:04.000Z</time></trkpt>
        <trkpt lat="28.635262" lon="105.051998"><ele>556.43677</ele><time>2026-07-22T03:39:06.000Z</time></trkpt>
        <trkpt lat="28.63525" lon="105.051975"><ele>556.3511</ele><time>2026-07-22T03:39:08.000Z</time></trkpt>
        <trkpt lat="28.635237" lon="105.051952"><ele>556.13055</ele><time>2026-07-22T03:39:10.000Z</time></trkpt>
        <trkpt lat="28.635224" lon="105.051927"><ele>556.47253</ele><time>2026-07-22T03:39:12.000Z</time></trkpt>
        <trkpt lat="28.635211" lon="105.051903"><ele>556.78436</ele><time>2026-07-22T03:39:14.000Z</time></trkpt>
        <trkpt lat="28.635199" lon="105.051878"><ele>556.5211</ele><time>2026-07-22T03:39:16.000Z</time></trkpt>
        <trkpt lat="28.63519" lon="105.051852"><ele>556.2964</ele><time>2026-07-22T03:39:18.000Z</time></trkpt>
        <trkpt lat="28.635186" lon="105.051826"><ele>554.26605</ele><time>2026-07-22T03:39:20.000Z</time></trkpt>
        <trkpt lat="28.635186" lon="105.051802"><ele>552.5568</ele><time>2026-07-22T03:39:22.000Z</time></trkpt>
        <trkpt lat="28.63519" lon="105.051773"><ele>551.5828</ele><time>2026-07-22T03:39:24.000Z</time></trkpt>
        <trkpt lat="28.635194" lon="105.051746"><ele>550.83484</ele><time>2026-07-22T03:39:26.000Z</time></trkpt>
        <trkpt lat="28.6352" lon="105.051714"><ele>552.072</ele><time>2026-07-22T03:39:28.000Z</time></trkpt>
        <trkpt lat="28.635208" lon="105.051689"><ele>551.3425</ele><time>2026-07-22T03:39:30.000Z</time></trkpt>
        <trkpt lat="28.635222" lon="105.051662"><ele>551.4614</ele><time>2026-07-22T03:39:32.000Z</time></trkpt>
        <trkpt lat="28.635237" lon="105.051635"><ele>550.0775</ele><time>2026-07-22T03:39:34.000Z</time></trkpt>
        <trkpt lat="28.635253" lon="105.051612"><ele>549.68896</ele><time>2026-07-22T03:39:36.000Z</time></trkpt>
        <trkpt lat="28.635266" lon="105.051592"><ele>549.85156</ele><time>2026-07-22T03:39:38.000Z</time></trkpt>
        <trkpt lat="28.635275" lon="105.051577"><ele>549.6578</ele><time>2026-07-22T03:39:40.000Z</time></trkpt>
        <trkpt lat="28.635285" lon="105.051556"><ele>550.124</ele><time>2026-07-22T03:39:42.000Z</time></trkpt>
        <trkpt lat="28.635292" lon="105.051541"><ele>550.2073</ele><time>2026-07-22T03:39:44.000Z</time></trkpt>
        <trkpt lat="28.6353" lon="105.051524"><ele>549.9499</ele><time>2026-07-22T03:39:46.000Z</time></trkpt>
        <trkpt lat="28.63531" lon="105.051509"><ele>549.1804</ele><time>2026-07-22T03:39:48.000Z</time></trkpt>
        <trkpt lat="28.635321" lon="105.051495"><ele>549.555</ele><time>2026-07-22T03:39:50.000Z</time></trkpt>
        <trkpt lat="28.635332" lon="105.051482"><ele>550.0756</ele><time>2026-07-22T03:39:52.000Z</time></trkpt>
        <trkpt lat="28.635347" lon="105.051464"><ele>550.3982</ele><time>2026-07-22T03:39:54.000Z</time></trkpt>
        <trkpt lat="28.635362" lon="105.051445"><ele>548.4038</ele><time>2026-07-22T03:39:56.000Z</time></trkpt>
        <trkpt lat="28.635376" lon="105.051426"><ele>547.35724</ele><time>2026-07-22T03:39:58.000Z</time></trkpt>
        <trkpt lat="28.635391" lon="105.051408"><ele>548.48004</ele><time>2026-07-22T03:40:00.000Z</time></trkpt>
        <trkpt lat="28.635404" lon="105.051392"><ele>547.22614</ele><time>2026-07-22T03:40:02.000Z</time></trkpt>
        <trkpt lat="28.635416" lon="105.051376"><ele>546.22125</ele><time>2026-07-22T03:40:04.000Z</time></trkpt>
        <trkpt lat="28.635424" lon="105.051361"><ele>546.53534</ele><time>2026-07-22T03:40:06.000Z</time></trkpt>
        <trkpt lat="28.635431" lon="105.051348"><ele>546.5619</ele><time>2026-07-22T03:40:08.000Z</time></trkpt>
        <trkpt lat="28.635432" lon="105.051337"><ele>547.8218</ele><time>2026-07-22T03:40:10.000Z</time></trkpt>
        <trkpt lat="28.635431" lon="105.051327"><ele>547.5232</ele><time>2026-07-22T03:40:12.000Z</time></trkpt>
        <trkpt lat="28.635427" lon="105.051311"><ele>548.5789</ele><time>2026-07-22T03:40:14.000Z</time></trkpt>
        <trkpt lat="28.635421" lon="105.051294"><ele>548.2083</ele><time>2026-07-22T03:40:16.000Z</time></trkpt>
        <trkpt lat="28.635412" lon="105.051274"><ele>547.82275</ele><time>2026-07-22T03:40:18.000Z</time></trkpt>
        <trkpt lat="28.635403" lon="105.051262"><ele>547.88043</ele><time>2026-07-22T03:40:20.000Z</time></trkpt>
        <trkpt lat="28.635395" lon="105.051259"><ele>548.42316</ele><time>2026-07-22T03:40:22.000Z</time></trkpt>
        <trkpt lat="28.635385" lon="105.051259"><ele>548.7917</ele><time>2026-07-22T03:40:24.000Z</time></trkpt>
        <trkpt lat="28.635373" lon="105.051264"><ele>549.06635</ele><time>2026-07-22T03:40:26.000Z</time></trkpt>
        <trkpt lat="28.635359" lon="105.051274"><ele>548.8693</ele><time>2026-07-22T03:40:28.000Z</time></trkpt>
        <trkpt lat="28.635346" lon="105.051286"><ele>549.23816</ele><time>2026-07-22T03:40:30.000Z</time></trkpt>
        <trkpt lat="28.63533" lon="105.0513"><ele>549.18304</ele><time>2026-07-22T03:40:32.000Z</time></trkpt>
        <trkpt lat="28.635306" lon="105.051316"><ele>549.76227</ele><time>2026-07-22T03:40:34.000Z</time></trkpt>
        <trkpt lat="28.635278" lon="105.051333"><ele>548.4679</ele><time>2026-07-22T03:40:36.000Z</time></trkpt>
        <trkpt lat="28.635248" lon="105.051348"><ele>547.4272</ele><time>2026-07-22T03:40:38.000Z</time></trkpt>
        <trkpt lat="28.635222" lon="105.051362"><ele>545.6883</ele><time>2026-07-22T03:40:40.000Z</time></trkpt>
        <trkpt lat="28.635196" lon="105.051376"><ele>545.3433</ele><time>2026-07-22T03:40:42.000Z</time></trkpt>
        <trkpt lat="28.635172" lon="105.051389"><ele>544.16235</ele><time>2026-07-22T03:40:44.000Z</time></trkpt>
        <trkpt lat="28.63515" lon="105.051401"><ele>543.65466</ele><time>2026-07-22T03:40:46.000Z</time></trkpt>
        <trkpt lat="28.635128" lon="105.05141"><ele>542.4042</ele><time>2026-07-22T03:40:48.000Z</time></trkpt>
        <trkpt lat="28.635107" lon="105.05142"><ele>542.39355</ele><time>2026-07-22T03:40:50.000Z</time></trkpt>
        <trkpt lat="28.635085" lon="105.051432"><ele>541.96155</ele><time>2026-07-22T03:40:52.000Z</time></trkpt>
        <trkpt lat="28.635061" lon="105.051447"><ele>541.1605</ele><time>2026-07-22T03:40:54.000Z</time></trkpt>
        <trkpt lat="28.635038" lon="105.051462"><ele>541.05896</ele><time>2026-07-22T03:40:56.000Z</time></trkpt>
        <trkpt lat="28.635015" lon="105.051478"><ele>540.117</ele><time>2026-07-22T03:40:58.000Z</time></trkpt>
        <trkpt lat="28.634991" lon="105.051495"><ele>539.18665</ele><time>2026-07-22T03:41:00.000Z</time></trkpt>
        <trkpt lat="28.634966" lon="105.051509"><ele>539.25183</ele><time>2026-07-22T03:41:02.000Z</time></trkpt>
        <trkpt lat="28.634942" lon="105.05152"><ele>537.7498</ele><time>2026-07-22T03:41:04.000Z</time></trkpt>
        <trkpt lat="28.634919" lon="105.051528"><ele>538.21234</ele><time>2026-07-22T03:41:06.000Z</time></trkpt>
        <trkpt lat="28.634896" lon="105.051532"><ele>537.0972</ele><time>2026-07-22T03:41:08.000Z</time></trkpt>
        <trkpt lat="28.634877" lon="105.051536"><ele>536.50726</ele><time>2026-07-22T03:41:10.000Z</time></trkpt>
        <trkpt lat="28.634857" lon="105.051541"><ele>535.9128</ele><time>2026-07-22T03:41:12.000Z</time></trkpt>
        <trkpt lat="28.634833" lon="105.051549"><ele>534.84015</ele><time>2026-07-22T03:41:14.000Z</time></trkpt>
        <trkpt lat="28.634813" lon="105.051559"><ele>533.61115</ele><time>2026-07-22T03:41:16.000Z</time></trkpt>
        <trkpt lat="28.634792" lon="105.05157"><ele>532.68494</ele><time>2026-07-22T03:41:18.000Z</time></trkpt>
        <trkpt lat="28.634773" lon="105.051584"><ele>531.5169</ele><time>2026-07-22T03:41:20.000Z</time></trkpt>
        <trkpt lat="28.634757" lon="105.051598"><ele>530.455</ele><time>2026-07-22T03:41:22.000Z</time></trkpt>
        <trkpt lat="28.634742" lon="105.051613"><ele>529.11755</ele><time>2026-07-22T03:41:24.000Z</time></trkpt>
        <trkpt lat="28.634727" lon="105.051627"><ele>528.894</ele><time>2026-07-22T03:41:26.000Z</time></trkpt>
        <trkpt lat="28.634716" lon="105.051639"><ele>527.8277</ele><time>2026-07-22T03:41:28.000Z</time></trkpt>
        <trkpt lat="28.634707" lon="105.05165"><ele>528.1843</ele><time>2026-07-22T03:41:30.000Z</time></trkpt>
        <trkpt lat="28.634701" lon="105.051662"><ele>526.4439</ele><time>2026-07-22T03:41:32.000Z</time></trkpt>
        <trkpt lat="28.634696" lon="105.051679"><ele>525.85455</ele><time>2026-07-22T03:41:34.000Z</time></trkpt>
        <trkpt lat="28.634692" lon="105.051698"><ele>525.68243</ele><time>2026-07-22T03:41:36.000Z</time></trkpt>
        <trkpt lat="28.634689" lon="105.051718"><ele>524.85205</ele><time>2026-07-22T03:41:38.000Z</time></trkpt>
        <trkpt lat="28.634687" lon="105.051743"><ele>525.0842</ele><time>2026-07-22T03:41:40.000Z</time></trkpt>
        <trkpt lat="28.634682" lon="105.051775"><ele>525.57434</ele><time>2026-07-22T03:41:42.000Z</time></trkpt>
        <trkpt lat="28.634668" lon="105.0518"><ele>525.13715</ele><time>2026-07-22T03:41:44.000Z</time></trkpt>
        <trkpt lat="28.634652" lon="105.051809"><ele>525.323</ele><time>2026-07-22T03:41:46.000Z</time></trkpt>
        <trkpt lat="28.634646" lon="105.051806"><ele>525.6816</ele><time>2026-07-22T03:41:48.000Z</time></trkpt>
        <trkpt lat="28.634633" lon="105.051793"><ele>524.1474</ele><time>2026-07-22T03:41:50.000Z</time></trkpt>
        <trkpt lat="28.634621" lon="105.051775"><ele>524.1412</ele><time>2026-07-22T03:41:52.000Z</time></trkpt>
        <trkpt lat="28.634614" lon="105.051754"><ele>522.1953</ele><time>2026-07-22T03:41:54.000Z</time></trkpt>
        <trkpt lat="28.634609" lon="105.051731"><ele>521.3654</ele><time>2026-07-22T03:41:56.000Z</time></trkpt>
        <trkpt lat="28.634608" lon="105.051708"><ele>521.58624</ele><time>2026-07-22T03:41:58.000Z</time></trkpt>
        <trkpt lat="28.634608" lon="105.051685"><ele>519.7484</ele><time>2026-07-22T03:42:00.000Z</time></trkpt>
        <trkpt lat="28.634604" lon="105.051662"><ele>519.14655</ele><time>2026-07-22T03:42:02.000Z</time></trkpt>
        <trkpt lat="28.634599" lon="105.051659"><ele>519.8104</ele><time>2026-07-22T03:42:04.000Z</time></trkpt>
        <trkpt lat="28.634599" lon="105.05166"><ele>519.5509</ele><time>2026-07-22T03:42:06.000Z</time></trkpt>
        <trkpt lat="28.634583" lon="105.051688"><ele>517.61285</ele><time>2026-07-22T03:42:10.000Z</time></trkpt>
        <trkpt lat="28.634576" lon="105.051703"><ele>516.8303</ele><time>2026-07-22T03:42:12.000Z</time></trkpt>
        <trkpt lat="28.634571" lon="105.051714"><ele>516.5555</ele><time>2026-07-22T03:42:14.000Z</time></trkpt>
        <trkpt lat="28.634568" lon="105.051726"><ele>516.8746</ele><time>2026-07-22T03:42:16.000Z</time></trkpt>
        <trkpt lat="28.634567" lon="105.051739"><ele>515.879</ele><time>2026-07-22T03:42:18.000Z</time></trkpt>
        <trkpt lat="28.634566" lon="105.051756"><ele>515.3578</ele><time>2026-07-22T03:42:20.000Z</time></trkpt>
        <trkpt lat="28.634563" lon="105.051771"><ele>514.3012</ele><time>2026-07-22T03:42:22.000Z</time></trkpt>
        <trkpt lat="28.634558" lon="105.051781"><ele>514.8657</ele><time>2026-07-22T03:42:24.000Z</time></trkpt>
        <trkpt lat="28.634552" lon="105.051784"><ele>514.7187</ele><time>2026-07-22T03:42:26.000Z</time></trkpt>
        <trkpt lat="28.634546" lon="105.051782"><ele>513.10565</ele><time>2026-07-22T03:42:30.000Z</time></trkpt>
        <trkpt lat="28.634544" lon="105.051778"><ele>512.7189</ele><time>2026-07-22T03:42:32.000Z</time></trkpt>
        <trkpt lat="28.634527" lon="105.051743"><ele>512.16705</ele><time>2026-07-22T03:42:34.000Z</time></trkpt>
        <trkpt lat="28.634527" lon="105.051741"><ele>510.732</ele><time>2026-07-22T03:42:36.000Z</time></trkpt>
        <trkpt lat="28.634527" lon="105.051738"><ele>509.96936</ele><time>2026-07-22T03:42:38.000Z</time></trkpt>
        <trkpt lat="28.634532" lon="105.051695"><ele>509.98965</ele><time>2026-07-22T03:42:42.000Z</time></trkpt>
        <trkpt lat="28.634532" lon="105.051669"><ele>509.70117</ele><time>2026-07-22T03:42:44.000Z</time></trkpt>
        <trkpt lat="28.634529" lon="105.051652"><ele>509.6702</ele><time>2026-07-22T03:42:46.000Z</time></trkpt>
        <trkpt lat="28.634529" lon="105.051653"><ele>509.3019</ele><time>2026-07-22T03:42:48.000Z</time></trkpt>
        <trkpt lat="28.634512" lon="105.051706"><ele>508.7912</ele><time>2026-07-22T03:42:54.000Z</time></trkpt>
        <trkpt lat="28.634505" lon="105.051722"><ele>508.04514</ele><time>2026-07-22T03:42:56.000Z</time></trkpt>
        <trkpt lat="28.634496" lon="105.05174"><ele>507.10422</ele><time>2026-07-22T03:42:58.000Z</time></trkpt>
        <trkpt lat="28.634484" lon="105.051757"><ele>507.2145</ele><time>2026-07-22T03:43:00.000Z</time></trkpt>
        <trkpt lat="28.634473" lon="105.05177"><ele>506.84357</ele><time>2026-07-22T03:43:02.000Z</time></trkpt>
        <trkpt lat="28.634463" lon="105.051787"><ele>506.1264</ele><time>2026-07-22T03:43:04.000Z</time></trkpt>
        <trkpt lat="28.634459" lon="105.051799"><ele>506.6944</ele><time>2026-07-22T03:43:06.000Z</time></trkpt>
        <trkpt lat="28.634457" lon="105.05181"><ele>504.4701</ele><time>2026-07-22T03:43:08.000Z</time></trkpt>
        <trkpt lat="28.634453" lon="105.051823"><ele>503.68027</ele><time>2026-07-22T03:43:10.000Z</time></trkpt>
        <trkpt lat="28.634447" lon="105.051834"><ele>504.05145</ele><time>2026-07-22T03:43:12.000Z</time></trkpt>
        <trkpt lat="28.634443" lon="105.051836"><ele>502.6089</ele><time>2026-07-22T03:43:14.000Z</time></trkpt>
        <trkpt lat="28.634439" lon="105.05184"><ele>501.8949</ele><time>2026-07-22T03:43:16.000Z</time></trkpt>
        <trkpt lat="28.634439" lon="105.051844"><ele>500.3772</ele><time>2026-07-22T03:43:20.000Z</time></trkpt>
        <trkpt lat="28.634441" lon="105.051868"><ele>499.7847</ele><time>2026-07-22T03:43:22.000Z</time></trkpt>
        <trkpt lat="28.634441" lon="105.051869"><ele>499.9938</ele><time>2026-07-22T03:43:24.000Z</time></trkpt>
        <trkpt lat="28.634439" lon="105.051877"><ele>500.18954</ele><time>2026-07-22T03:43:28.000Z</time></trkpt>
        <trkpt lat="28.634424" lon="105.0519"><ele>499.403</ele><time>2026-07-22T03:43:32.000Z</time></trkpt>
        <trkpt lat="28.634417" lon="105.051901"><ele>499.36243</ele><time>2026-07-22T03:43:34.000Z</time></trkpt>
        <trkpt lat="28.634395" lon="105.051897"><ele>501.2879</ele><time>2026-07-22T03:43:36.000Z</time></trkpt>
        <trkpt lat="28.634369" lon="105.051885"><ele>500.75992</ele><time>2026-07-22T03:43:38.000Z</time></trkpt>
        <trkpt lat="28.634347" lon="105.05187"><ele>499.33786</ele><time>2026-07-22T03:43:40.000Z</time></trkpt>
        <trkpt lat="28.634332" lon="105.051855"><ele>497.52573</ele><time>2026-07-22T03:43:42.000Z</time></trkpt>
        <trkpt lat="28.63432" lon="105.051839"><ele>496.94186</ele><time>2026-07-22T03:43:44.000Z</time></trkpt>
        <trkpt lat="28.634319" lon="105.051833"><ele>494.95895</ele><time>2026-07-22T03:43:46.000Z</time></trkpt>
        <trkpt lat="28.634321" lon="105.05191"><ele>494.47534</ele><time>2026-07-22T03:43:54.000Z</time></trkpt>
        <trkpt lat="28.634321" lon="105.05191"><ele>494.75793</ele><time>2026-07-22T03:43:56.000Z</time></trkpt>
        <trkpt lat="28.634321" lon="105.05191"><ele>494.21887</ele><time>2026-07-22T03:43:58.000Z</time></trkpt>
        <trkpt lat="28.634281" lon="105.051898"><ele>495.53372</ele><time>2026-07-22T03:44:02.000Z</time></trkpt>
        <trkpt lat="28.634281" lon="105.051898"><ele>495.10175</ele><time>2026-07-22T03:44:04.000Z</time></trkpt>
        <trkpt lat="28.634283" lon="105.051899"><ele>493.09415</ele><time>2026-07-22T03:44:06.000Z</time></trkpt>
        <trkpt lat="28.634306" lon="105.051913"><ele>489.42886</ele><time>2026-07-22T03:44:10.000Z</time></trkpt>
        <trkpt lat="28.634308" lon="105.051921"><ele>490.04736</ele><time>2026-07-22T03:44:12.000Z</time></trkpt>
        <trkpt lat="28.634306" lon="105.051924"><ele>491.09406</ele><time>2026-07-22T03:44:14.000Z</time></trkpt>
        <trkpt lat="28.634308" lon="105.051932"><ele>488.7026</ele><time>2026-07-22T03:44:18.000Z</time></trkpt>
        <trkpt lat="28.634312" lon="105.051949"><ele>486.86078</ele><time>2026-07-22T03:44:26.000Z</time></trkpt>
        <trkpt lat="28.634314" lon="105.051956"><ele>486.79974</ele><time>2026-07-22T03:44:28.000Z</time></trkpt>
        <trkpt lat="28.634314" lon="105.051964"><ele>486.40918</ele><time>2026-07-22T03:44:30.000Z</time></trkpt>
        <trkpt lat="28.634313" lon="105.051982"><ele>486.99634</ele><time>2026-07-22T03:44:32.000Z</time></trkpt>
        <trkpt lat="28.634314" lon="105.051983"><ele>486.43457</ele><time>2026-07-22T03:44:34.000Z</time></trkpt>
        <trkpt lat="28.634324" lon="105.051998"><ele>485.57227</ele><time>2026-07-22T03:44:40.000Z</time></trkpt>
        <trkpt lat="28.634334" lon="105.052013"><ele>485.85294</ele><time>2026-07-22T03:44:42.000Z</time></trkpt>
        <trkpt lat="28.634335" lon="105.052014"><ele>485.97446</ele><time>2026-07-22T03:44:44.000Z</time></trkpt>
        <trkpt lat="28.634339" lon="105.052025"><ele>485.86414</ele><time>2026-07-22T03:44:48.000Z</time></trkpt>
        <trkpt lat="28.634352" lon="105.052054"><ele>485.87158</ele><time>2026-07-22T03:44:52.000Z</time></trkpt>
        <trkpt lat="28.634357" lon="105.052065"><ele>484.69348</ele><time>2026-07-22T03:44:54.000Z</time></trkpt>
        <trkpt lat="28.634357" lon="105.052073"><ele>484.09323</ele><time>2026-07-22T03:44:56.000Z</time></trkpt>
        <trkpt lat="28.634352" lon="105.052089"><ele>484.37466</ele><time>2026-07-22T03:45:00.000Z</time></trkpt>
        <trkpt lat="28.634348" lon="105.052094"><ele>484.78452</ele><time>2026-07-22T03:45:02.000Z</time></trkpt>
        <trkpt lat="28.634343" lon="105.052097"><ele>484.70926</ele><time>2026-07-22T03:45:04.000Z</time></trkpt>
        <trkpt lat="28.634337" lon="105.052096"><ele>484.3569</ele><time>2026-07-22T03:45:06.000Z</time></trkpt>
        <trkpt lat="28.634317" lon="105.052094"><ele>483.6451</ele><time>2026-07-22T03:45:08.000Z</time></trkpt>
        <trkpt lat="28.634317" lon="105.052093"><ele>483.24786</ele><time>2026-07-22T03:45:10.000Z</time></trkpt>
        <trkpt lat="28.634319" lon="105.052095"><ele>482.2717</ele><time>2026-07-22T03:45:14.000Z</time></trkpt>
        <trkpt lat="28.634336" lon="105.052111"><ele>481.66336</ele><time>2026-07-22T03:45:20.000Z</time></trkpt>
        <trkpt lat="28.634343" lon="105.052115"><ele>481.26346</ele><time>2026-07-22T03:45:22.000Z</time></trkpt>
        <trkpt lat="28.63435" lon="105.052116"><ele>481.19983</ele><time>2026-07-22T03:45:24.000Z</time></trkpt>
        <trkpt lat="28.634354" lon="105.052118"><ele>480.8148</ele><time>2026-07-22T03:45:26.000Z</time></trkpt>
        <trkpt lat="28.634372" lon="105.052126"><ele>481.15555</ele><time>2026-07-22T03:45:28.000Z</time></trkpt>
        <trkpt lat="28.634372" lon="105.052126"><ele>483.38812</ele><time>2026-07-22T03:45:32.000Z</time></trkpt>
        <trkpt lat="28.634334" lon="105.052116"><ele>483.8093</ele><time>2026-07-22T03:45:48.000Z</time></trkpt>
        <trkpt lat="28.634317" lon="105.052107"><ele>484.43958</ele><time>2026-07-22T03:45:50.000Z</time></trkpt>
        <trkpt lat="28.634301" lon="105.052099"><ele>484.867</ele><time>2026-07-22T03:45:52.000Z</time></trkpt>
        <trkpt lat="28.6343" lon="105.052099"><ele>485.0812</ele><time>2026-07-22T03:45:54.000Z</time></trkpt>
        <trkpt lat="28.634333" lon="105.052089"><ele>484.75934</ele><time>2026-07-22T03:46:02.000Z</time></trkpt>
        <trkpt lat="28.63435" lon="105.052084"><ele>484.8206</ele><time>2026-07-22T03:46:04.000Z</time></trkpt>
        <trkpt lat="28.63435" lon="105.052085"><ele>483.48672</ele><time>2026-07-22T03:46:06.000Z</time></trkpt>
        <trkpt lat="28.634328" lon="105.052059"><ele>487.03015</ele><time>2026-07-22T03:46:14.000Z</time></trkpt>
        <trkpt lat="28.634312" lon="105.052041"><ele>487.71674</ele><time>2026-07-22T03:46:16.000Z</time></trkpt>
        <trkpt lat="28.634312" lon="105.05204"><ele>487.70682</ele><time>2026-07-22T03:46:18.000Z</time></trkpt>
        <trkpt lat="28.634312" lon="105.052038"><ele>487.16882</ele><time>2026-07-22T03:46:22.000Z</time></trkpt>
        <trkpt lat="28.634308" lon="105.052016"><ele>487.91635</ele><time>2026-07-22T03:46:35.000Z</time></trkpt>
        <trkpt lat="28.634305" lon="105.052011"><ele>488.17767</ele><time>2026-07-22T03:46:37.000Z</time></trkpt>
        <trkpt lat="28.634301" lon="105.052004"><ele>488.38806</ele><time>2026-07-22T03:46:39.000Z</time></trkpt>
        <trkpt lat="28.634296" lon="105.051997"><ele>488.94345</ele><time>2026-07-22T03:46:41.000Z</time></trkpt>
        <trkpt lat="28.63429" lon="105.05198"><ele>489.1761</ele><time>2026-07-22T03:46:43.000Z</time></trkpt>
        <trkpt lat="28.634292" lon="105.051977"><ele>487.82742</ele><time>2026-07-22T03:46:50.000Z</time></trkpt>
        <trkpt lat="28.634292" lon="105.051966"><ele>487.75653</ele><time>2026-07-22T03:46:52.000Z</time></trkpt>
        <trkpt lat="28.634291" lon="105.051935"><ele>488.32925</ele><time>2026-07-22T03:46:56.000Z</time></trkpt>
        <trkpt lat="28.634291" lon="105.051935"><ele>489.09024</ele><time>2026-07-22T03:46:58.000Z</time></trkpt>
        <trkpt lat="28.634293" lon="105.051931"><ele>487.3958</ele><time>2026-07-22T03:47:00.000Z</time></trkpt>
        <trkpt lat="28.634303" lon="105.051915"><ele>491.17477</ele><time>2026-07-22T03:47:12.000Z</time></trkpt>
        <trkpt lat="28.634305" lon="105.051915"><ele>491.18204</ele><time>2026-07-22T03:47:14.000Z</time></trkpt>
        <trkpt lat="28.63431" lon="105.051918"><ele>491.71097</ele><time>2026-07-22T03:47:16.000Z</time></trkpt>
        <trkpt lat="28.63433" lon="105.051929"><ele>492.50424</ele><time>2026-07-22T03:47:18.000Z</time></trkpt>
        <trkpt lat="28.634331" lon="105.051928"><ele>493.55664</ele><time>2026-07-22T03:47:20.000Z</time></trkpt>
        <trkpt lat="28.634331" lon="105.051928"><ele>494.64633</ele><time>2026-07-22T03:47:22.000Z</time></trkpt>
        <trkpt lat="28.634325" lon="105.051887"><ele>494.27957</ele><time>2026-07-22T03:47:28.000Z</time></trkpt>
        <trkpt lat="28.634323" lon="105.051868"><ele>494.1414</ele><time>2026-07-22T03:47:30.000Z</time></trkpt>
        <trkpt lat="28.634323" lon="105.051851"><ele>494.07364</ele><time>2026-07-22T03:47:32.000Z</time></trkpt>
        <trkpt lat="28.634325" lon="105.05183"><ele>493.88083</ele><time>2026-07-22T03:47:34.000Z</time></trkpt>
        <trkpt lat="28.634328" lon="105.051808"><ele>493.36996</ele><time>2026-07-22T03:47:36.000Z</time></trkpt>
        <trkpt lat="28.634332" lon="105.051785"><ele>493.0139</ele><time>2026-07-22T03:47:38.000Z</time></trkpt>
        <trkpt lat="28.634336" lon="105.051764"><ele>494.26736</ele><time>2026-07-22T03:47:40.000Z</time></trkpt>
        <trkpt lat="28.634343" lon="105.051748"><ele>494.3302</ele><time>2026-07-22T03:47:42.000Z</time></trkpt>
        <trkpt lat="28.634352" lon="105.051734"><ele>495.86118</ele><time>2026-07-22T03:47:44.000Z</time></trkpt>
        <trkpt lat="28.634368" lon="105.051713"><ele>495.92343</ele><time>2026-07-22T03:47:46.000Z</time></trkpt>
        <trkpt lat="28.634384" lon="105.051695"><ele>495.5515</ele><time>2026-07-22T03:47:48.000Z</time></trkpt>
        <trkpt lat="28.634399" lon="105.051685"><ele>495.8788</ele><time>2026-07-22T03:47:50.000Z</time></trkpt>
        <trkpt lat="28.634409" lon="105.051679"><ele>495.8184</ele><time>2026-07-22T03:47:52.000Z</time></trkpt>
        <trkpt lat="28.634414" lon="105.051675"><ele>495.03195</ele><time>2026-07-22T03:47:54.000Z</time></trkpt>
        <trkpt lat="28.634418" lon="105.051663"><ele>494.6287</ele><time>2026-07-22T03:47:58.000Z</time></trkpt>
        <trkpt lat="28.634424" lon="105.05164"><ele>495.39746</ele><time>2026-07-22T03:48:00.000Z</time></trkpt>
        <trkpt lat="28.634424" lon="105.051638"><ele>494.16968</ele><time>2026-07-22T03:48:02.000Z</time></trkpt>
        <trkpt lat="28.63443" lon="105.051612"><ele>496.26904</ele><time>2026-07-22T03:48:06.000Z</time></trkpt>
        <trkpt lat="28.634442" lon="105.051582"><ele>496.22354</ele><time>2026-07-22T03:48:08.000Z</time></trkpt>
        <trkpt lat="28.634456" lon="105.051552"><ele>496.08878</ele><time>2026-07-22T03:48:10.000Z</time></trkpt>
        <trkpt lat="28.634471" lon="105.05152"><ele>495.40588</ele><time>2026-07-22T03:48:12.000Z</time></trkpt>
        <trkpt lat="28.634482" lon="105.051495"><ele>495.46994</ele><time>2026-07-22T03:48:14.000Z</time></trkpt>
        <trkpt lat="28.634492" lon="105.051471"><ele>495.35883</ele><time>2026-07-22T03:48:16.000Z</time></trkpt>
        <trkpt lat="28.634495" lon="105.051449"><ele>496.87344</ele><time>2026-07-22T03:48:18.000Z</time></trkpt>
        <trkpt lat="28.634496" lon="105.051431"><ele>497.31708</ele><time>2026-07-22T03:48:20.000Z</time></trkpt>
        <trkpt lat="28.634498" lon="105.051405"><ele>497.47296</ele><time>2026-07-22T03:48:22.000Z</time></trkpt>
        <trkpt lat="28.634499" lon="105.051376"><ele>496.65082</ele><time>2026-07-22T03:48:24.000Z</time></trkpt>
        <trkpt lat="28.634498" lon="105.051349"><ele>496.74237</ele><time>2026-07-22T03:48:26.000Z</time></trkpt>
        <trkpt lat="28.634495" lon="105.051323"><ele>496.8817</ele><time>2026-07-22T03:48:28.000Z</time></trkpt>
        <trkpt lat="28.634492" lon="105.051303"><ele>497.04037</ele><time>2026-07-22T03:48:30.000Z</time></trkpt>
        <trkpt lat="28.63449" lon="105.051289"><ele>497.17563</ele><time>2026-07-22T03:48:32.000Z</time></trkpt>
        <trkpt lat="28.634488" lon="105.051278"><ele>497.09924</ele><time>2026-07-22T03:48:33.000Z</time></trkpt>
        <trkpt lat="28.634488" lon="105.051277"><ele>497.90616</ele><time>2026-07-22T03:48:37.000Z</time></trkpt>
        <trkpt lat="28.6345" lon="105.051261"><ele>494.9362</ele><time>2026-07-22T03:48:42.000Z</time></trkpt>
        <trkpt lat="28.634511" lon="105.051243"><ele>495.07074</ele><time>2026-07-22T03:48:45.000Z</time></trkpt>
        <trkpt lat="28.634511" lon="105.051243"><ele>495.0032</ele><time>2026-07-22T03:48:47.000Z</time></trkpt>
        <trkpt lat="28.634496" lon="105.051229"><ele>493.95978</ele><time>2026-07-22T03:48:53.000Z</time></trkpt>
        <trkpt lat="28.634551" lon="105.051232"><ele>492.58255</ele><time>2026-07-22T03:48:55.000Z</time></trkpt>
        <trkpt lat="28.634554" lon="105.051234"><ele>493.8484</ele><time>2026-07-22T03:48:57.000Z</time></trkpt>
        <trkpt lat="28.634554" lon="105.051236"><ele>493.233</ele><time>2026-07-22T03:48:59.000Z</time></trkpt>
        <trkpt lat="28.634544" lon="105.051281"><ele>493.8266</ele><time>2026-07-22T03:49:03.000Z</time></trkpt>
        <trkpt lat="28.634533" lon="105.051317"><ele>494.25073</ele><time>2026-07-22T03:49:05.000Z</time></trkpt>
        <trkpt lat="28.634523" lon="105.051349"><ele>493.08945</ele><time>2026-07-22T03:49:07.000Z</time></trkpt>
        <trkpt lat="28.634517" lon="105.051377"><ele>493.59268</ele><time>2026-07-22T03:49:09.000Z</time></trkpt>
        <trkpt lat="28.634513" lon="105.051408"><ele>495.5319</ele><time>2026-07-22T03:49:11.000Z</time></trkpt>
        <trkpt lat="28.63451" lon="105.051438"><ele>495.07986</ele><time>2026-07-22T03:49:13.000Z</time></trkpt>
        <trkpt lat="28.634508" lon="105.051462"><ele>496.5081</ele><time>2026-07-22T03:49:15.000Z</time></trkpt>
        <trkpt lat="28.634505" lon="105.051483"><ele>497.5743</ele><time>2026-07-22T03:49:17.000Z</time></trkpt>
        <trkpt lat="28.634499" lon="105.051505"><ele>497.92</ele><time>2026-07-22T03:49:19.000Z</time></trkpt>
        <trkpt lat="28.634489" lon="105.051525"><ele>497.69095</ele><time>2026-07-22T03:49:21.000Z</time></trkpt>
        <trkpt lat="28.634475" lon="105.051543"><ele>496.84732</ele><time>2026-07-22T03:49:23.000Z</time></trkpt>
        <trkpt lat="28.63446" lon="105.051561"><ele>496.7972</ele><time>2026-07-22T03:49:25.000Z</time></trkpt>
        <trkpt lat="28.634443" lon="105.051581"><ele>496.6729</ele><time>2026-07-22T03:49:27.000Z</time></trkpt>
        <trkpt lat="28.634431" lon="105.051598"><ele>496.09058</ele><time>2026-07-22T03:49:29.000Z</time></trkpt>
        <trkpt lat="28.634425" lon="105.051612"><ele>495.84915</ele><time>2026-07-22T03:49:31.000Z</time></trkpt>
        <trkpt lat="28.634422" lon="105.051623"><ele>495.51974</ele><time>2026-07-22T03:49:33.000Z</time></trkpt>
        <trkpt lat="28.634422" lon="105.05163"><ele>495.9538</ele><time>2026-07-22T03:49:35.000Z</time></trkpt>
        <trkpt lat="28.63442" lon="105.051639"><ele>496.05548</ele><time>2026-07-22T03:49:37.000Z</time></trkpt>
        <trkpt lat="28.634416" lon="105.051652"><ele>497.75052</ele><time>2026-07-22T03:49:41.000Z</time></trkpt>
        <trkpt lat="28.634407" lon="105.051674"><ele>498.47995</ele><time>2026-07-22T03:49:43.000Z</time></trkpt>
        <trkpt lat="28.634406" lon="105.051674"><ele>499.16705</ele><time>2026-07-22T03:49:45.000Z</time></trkpt>
        <trkpt lat="28.634396" lon="105.051685"><ele>497.0736</ele><time>2026-07-22T03:49:49.000Z</time></trkpt>
        <trkpt lat="28.634384" lon="105.051703"><ele>496.3236</ele><time>2026-07-22T03:49:51.000Z</time></trkpt>
        <trkpt lat="28.63437" lon="105.05173"><ele>495.93234</ele><time>2026-07-22T03:49:53.000Z</time></trkpt>
        <trkpt lat="28.634357" lon="105.051759"><ele>495.6748</ele><time>2026-07-22T03:49:55.000Z</time></trkpt>
        <trkpt lat="28.634348" lon="105.051787"><ele>495.45407</ele><time>2026-07-22T03:49:57.000Z</time></trkpt>
        <trkpt lat="28.634344" lon="105.051811"><ele>494.5978</ele><time>2026-07-22T03:49:59.000Z</time></trkpt>
        <trkpt lat="28.634345" lon="105.051834"><ele>494.38223</ele><time>2026-07-22T03:50:01.000Z</time></trkpt>
        <trkpt lat="28.634351" lon="105.051854"><ele>494.56058</ele><time>2026-07-22T03:50:03.000Z</time></trkpt>
        <trkpt lat="28.63436" lon="105.05187"><ele>494.8495</ele><time>2026-07-22T03:50:05.000Z</time></trkpt>
        <trkpt lat="28.634369" lon="105.051883"><ele>494.6495</ele><time>2026-07-22T03:50:07.000Z</time></trkpt>
        <trkpt lat="28.634376" lon="105.051891"><ele>496.69775</ele><time>2026-07-22T03:50:09.000Z</time></trkpt>
        <trkpt lat="28.634388" lon="105.051904"><ele>497.96454</ele><time>2026-07-22T03:50:11.000Z</time></trkpt>
        <trkpt lat="28.6344" lon="105.051913"><ele>498.25882</ele><time>2026-07-22T03:50:13.000Z</time></trkpt>
        <trkpt lat="28.634412" lon="105.051919"><ele>497.56033</ele><time>2026-07-22T03:50:15.000Z</time></trkpt>
        <trkpt lat="28.634426" lon="105.051924"><ele>497.23135</ele><time>2026-07-22T03:50:17.000Z</time></trkpt>
        <trkpt lat="28.634439" lon="105.051925"><ele>497.40616</ele><time>2026-07-22T03:50:19.000Z</time></trkpt>
        <trkpt lat="28.634442" lon="105.051921"><ele>497.87653</ele><time>2026-07-22T03:50:21.000Z</time></trkpt>
        <trkpt lat="28.634442" lon="105.051916"><ele>499.48825</ele><time>2026-07-22T03:50:25.000Z</time></trkpt>
        <trkpt lat="28.634439" lon="105.051901"><ele>499.90442</ele><time>2026-07-22T03:50:29.000Z</time></trkpt>
        <trkpt lat="28.634437" lon="105.051892"><ele>500.59027</ele><time>2026-07-22T03:50:31.000Z</time></trkpt>
        <trkpt lat="28.634433" lon="105.051873"><ele>500.66354</ele><time>2026-07-22T03:50:33.000Z</time></trkpt>
        <trkpt lat="28.634432" lon="105.05187"><ele>501.73495</ele><time>2026-07-22T03:50:37.000Z</time></trkpt>
        <trkpt lat="28.634431" lon="105.051852"><ele>502.20615</ele><time>2026-07-22T03:50:41.000Z</time></trkpt>
        <trkpt lat="28.634434" lon="105.05184"><ele>502.18268</ele><time>2026-07-22T03:50:43.000Z</time></trkpt>
        <trkpt lat="28.63444" lon="105.051833"><ele>502.411</ele><time>2026-07-22T03:50:45.000Z</time></trkpt>
        <trkpt lat="28.63445" lon="105.051826"><ele>502.14645</ele><time>2026-07-22T03:50:47.000Z</time></trkpt>
        <trkpt lat="28.63445" lon="105.051819"><ele>502.88937</ele><time>2026-07-22T03:50:49.000Z</time></trkpt>
        <trkpt lat="28.634453" lon="105.051791"><ele>505.23898</ele><time>2026-07-22T03:50:57.000Z</time></trkpt>
        <trkpt lat="28.634453" lon="105.051791"><ele>505.67035</ele><time>2026-07-22T03:50:59.000Z</time></trkpt>
        <trkpt lat="28.634453" lon="105.05179"><ele>505.84433</ele><time>2026-07-22T03:51:01.000Z</time></trkpt>
        <trkpt lat="28.634462" lon="105.051776"><ele>507.1046</ele><time>2026-07-22T03:51:05.000Z</time></trkpt>
        <trkpt lat="28.634476" lon="105.051754"><ele>506.79242</ele><time>2026-07-22T03:51:07.000Z</time></trkpt>
        <trkpt lat="28.634477" lon="105.051752"><ele>507.13385</ele><time>2026-07-22T03:51:09.000Z</time></trkpt>
        <trkpt lat="28.634481" lon="105.051745"><ele>507.5683</ele><time>2026-07-22T03:51:13.000Z</time></trkpt>
        <trkpt lat="28.634495" lon="105.051718"><ele>507.44553</ele><time>2026-07-22T03:51:17.000Z</time></trkpt>
        <trkpt lat="28.634502" lon="105.051706"><ele>507.622</ele><time>2026-07-22T03:51:19.000Z</time></trkpt>
        <trkpt lat="28.634508" lon="105.051692"><ele>507.44748</ele><time>2026-07-22T03:51:21.000Z</time></trkpt>
        <trkpt lat="28.634514" lon="105.051678"><ele>509.12964</ele><time>2026-07-22T03:51:23.000Z</time></trkpt>
        <trkpt lat="28.634519" lon="105.051664"><ele>509.88577</ele><time>2026-07-22T03:51:25.000Z</time></trkpt>
        <trkpt lat="28.634526" lon="105.051651"><ele>510.84222</ele><time>2026-07-22T03:51:27.000Z</time></trkpt>
        <trkpt lat="28.634534" lon="105.051643"><ele>511.38626</ele><time>2026-07-22T03:51:29.000Z</time></trkpt>
        <trkpt lat="28.634534" lon="105.051641"><ele>511.09076</ele><time>2026-07-22T03:51:31.000Z</time></trkpt>
        <trkpt lat="28.634541" lon="105.051684"><ele>511.54138</ele><time>2026-07-22T03:51:35.000Z</time></trkpt>
        <trkpt lat="28.634541" lon="105.051684"><ele>512.48553</ele><time>2026-07-22T03:51:37.000Z</time></trkpt>
        <trkpt lat="28.634541" lon="105.051685"><ele>512.40857</ele><time>2026-07-22T03:51:39.000Z</time></trkpt>
        <trkpt lat="28.634545" lon="105.051725"><ele>512.70496</ele><time>2026-07-22T03:51:45.000Z</time></trkpt>
        <trkpt lat="28.634547" lon="105.051741"><ele>513.23096</ele><time>2026-07-22T03:51:47.000Z</time></trkpt>
        <trkpt lat="28.634551" lon="105.051758"><ele>513.23987</ele><time>2026-07-22T03:51:49.000Z</time></trkpt>
        <trkpt lat="28.634555" lon="105.051774"><ele>513.71796</ele><time>2026-07-22T03:51:51.000Z</time></trkpt>
        <trkpt lat="28.634562" lon="105.051786"><ele>513.59515</ele><time>2026-07-22T03:51:53.000Z</time></trkpt>
        <trkpt lat="28.634562" lon="105.051796"><ele>513.4498</ele><time>2026-07-22T03:51:55.000Z</time></trkpt>
        <trkpt lat="28.634564" lon="105.051748"><ele>515.3266</ele><time>2026-07-22T03:52:05.000Z</time></trkpt>
        <trkpt lat="28.634564" lon="105.051732"><ele>515.4215</ele><time>2026-07-22T03:52:07.000Z</time></trkpt>
        <trkpt lat="28.634565" lon="105.051731"><ele>516.0521</ele><time>2026-07-22T03:52:09.000Z</time></trkpt>
        <trkpt lat="28.634575" lon="105.051709"><ele>516.66003</ele><time>2026-07-22T03:52:15.000Z</time></trkpt>
        <trkpt lat="28.634581" lon="105.051695"><ele>516.9943</ele><time>2026-07-22T03:52:17.000Z</time></trkpt>
        <trkpt lat="28.634591" lon="105.051687"><ele>517.7186</ele><time>2026-07-22T03:52:19.000Z</time></trkpt>
        <trkpt lat="28.634622" lon="105.051672"><ele>518.54755</ele><time>2026-07-22T03:52:28.000Z</time></trkpt>
        <trkpt lat="28.634623" lon="105.051673"><ele>518.5215</ele><time>2026-07-22T03:52:30.000Z</time></trkpt>
        <trkpt lat="28.634623" lon="105.051674"><ele>518.7922</ele><time>2026-07-22T03:52:32.000Z</time></trkpt>
        <trkpt lat="28.63462" lon="105.051716"><ele>520.18823</ele><time>2026-07-22T03:52:38.000Z</time></trkpt>
        <trkpt lat="28.63462" lon="105.051716"><ele>521.05725</ele><time>2026-07-22T03:52:40.000Z</time></trkpt>
        <trkpt lat="28.634632" lon="105.051737"><ele>521.014</ele><time>2026-07-22T03:52:42.000Z</time></trkpt>
        <trkpt lat="28.634637" lon="105.051745"><ele>521.6</ele><time>2026-07-22T03:52:48.000Z</time></trkpt>
        <trkpt lat="28.634645" lon="105.051755"><ele>521.8464</ele><time>2026-07-22T03:52:50.000Z</time></trkpt>
        <trkpt lat="28.634655" lon="105.051767"><ele>522.8694</ele><time>2026-07-22T03:52:52.000Z</time></trkpt>
        <trkpt lat="28.634667" lon="105.051779"><ele>524.41174</ele><time>2026-07-22T03:52:54.000Z</time></trkpt>
        <trkpt lat="28.634677" lon="105.051786"><ele>524.51105</ele><time>2026-07-22T03:52:56.000Z</time></trkpt>
        <trkpt lat="28.634687" lon="105.051789"><ele>525.0925</ele><time>2026-07-22T03:52:58.000Z</time></trkpt>
        <trkpt lat="28.634691" lon="105.051787"><ele>524.8737</ele><time>2026-07-22T03:53:00.000Z</time></trkpt>
        <trkpt lat="28.634691" lon="105.051784"><ele>524.334</ele><time>2026-07-22T03:53:02.000Z</time></trkpt>
        <trkpt lat="28.63469" lon="105.051766"><ele>524.84204</ele><time>2026-07-22T03:53:06.000Z</time></trkpt>
        <trkpt lat="28.634688" lon="105.051759"><ele>525.4268</ele><time>2026-07-22T03:53:08.000Z</time></trkpt>
        <trkpt lat="28.634686" lon="105.05175"><ele>525.8578</ele><time>2026-07-22T03:53:10.000Z</time></trkpt>
        <trkpt lat="28.634682" lon="105.051737"><ele>525.8916</ele><time>2026-07-22T03:53:12.000Z</time></trkpt>
        <trkpt lat="28.634681" lon="105.051724"><ele>525.76746</ele><time>2026-07-22T03:53:14.000Z</time></trkpt>
        <trkpt lat="28.634681" lon="105.051712"><ele>525.5108</ele><time>2026-07-22T03:53:16.000Z</time></trkpt>
        <trkpt lat="28.634683" lon="105.051701"><ele>526.0094</ele><time>2026-07-22T03:53:18.000Z</time></trkpt>
        <trkpt lat="28.634686" lon="105.051691"><ele>525.7443</ele><time>2026-07-22T03:53:20.000Z</time></trkpt>
        <trkpt lat="28.634691" lon="105.05168"><ele>525.9739</ele><time>2026-07-22T03:53:22.000Z</time></trkpt>
        <trkpt lat="28.634699" lon="105.051668"><ele>526.82776</ele><time>2026-07-22T03:53:24.000Z</time></trkpt>
        <trkpt lat="28.634705" lon="105.051656"><ele>527.70154</ele><time>2026-07-22T03:53:26.000Z</time></trkpt>
        <trkpt lat="28.63471" lon="105.051646"><ele>528.35034</ele><time>2026-07-22T03:53:28.000Z</time></trkpt>
        <trkpt lat="28.634717" lon="105.051636"><ele>527.045</ele><time>2026-07-22T03:53:30.000Z</time></trkpt>
        <trkpt lat="28.634724" lon="105.051628"><ele>527.44165</ele><time>2026-07-22T03:53:32.000Z</time></trkpt>
        <trkpt lat="28.634731" lon="105.051622"><ele>528.1212</ele><time>2026-07-22T03:53:34.000Z</time></trkpt>
        <trkpt lat="28.634738" lon="105.051616"><ele>528.76715</ele><time>2026-07-22T03:53:36.000Z</time></trkpt>
        <trkpt lat="28.634755" lon="105.051602"><ele>528.9264</ele><time>2026-07-22T03:53:40.000Z</time></trkpt>
        <trkpt lat="28.634762" lon="105.051597"><ele>528.7077</ele><time>2026-07-22T03:53:42.000Z</time></trkpt>
        <trkpt lat="28.63477" lon="105.05159"><ele>528.76636</ele><time>2026-07-22T03:53:44.000Z</time></trkpt>
        <trkpt lat="28.634778" lon="105.051584"><ele>530.49567</ele><time>2026-07-22T03:53:46.000Z</time></trkpt>
        <trkpt lat="28.63479" lon="105.051576"><ele>530.4143</ele><time>2026-07-22T03:53:48.000Z</time></trkpt>
        <trkpt lat="28.634804" lon="105.051565"><ele>530.62695</ele><time>2026-07-22T03:53:50.000Z</time></trkpt>
        <trkpt lat="28.634818" lon="105.051555"><ele>531.4576</ele><time>2026-07-22T03:53:52.000Z</time></trkpt>
        <trkpt lat="28.634833" lon="105.051543"><ele>531.71515</ele><time>2026-07-22T03:53:54.000Z</time></trkpt>
        <trkpt lat="28.634847" lon="105.051533"><ele>532.0192</ele><time>2026-07-22T03:53:56.000Z</time></trkpt>
        <trkpt lat="28.634864" lon="105.051524"><ele>532.42334</ele><time>2026-07-22T03:53:58.000Z</time></trkpt>
        <trkpt lat="28.634883" lon="105.051517"><ele>533.55756</ele><time>2026-07-22T03:54:00.000Z</time></trkpt>
        <trkpt lat="28.634903" lon="105.051511"><ele>534.36957</ele><time>2026-07-22T03:54:02.000Z</time></trkpt>
        <trkpt lat="28.634925" lon="105.051506"><ele>535.695</ele><time>2026-07-22T03:54:04.000Z</time></trkpt>
        <trkpt lat="28.634951" lon="105.051499"><ele>536.292</ele><time>2026-07-22T03:54:06.000Z</time></trkpt>
        <trkpt lat="28.634977" lon="105.051491"><ele>536.57477</ele><time>2026-07-22T03:54:08.000Z</time></trkpt>
        <trkpt lat="28.634999" lon="105.051483"><ele>537.3566</ele><time>2026-07-22T03:54:10.000Z</time></trkpt>
        <trkpt lat="28.635021" lon="105.051473"><ele>538.07904</ele><time>2026-07-22T03:54:12.000Z</time></trkpt>
        <trkpt lat="28.635043" lon="105.05146"><ele>538.9591</ele><time>2026-07-22T03:54:14.000Z</time></trkpt>
        <trkpt lat="28.635065" lon="105.051446"><ele>540.29315</ele><time>2026-07-22T03:54:16.000Z</time></trkpt>
        <trkpt lat="28.635084" lon="105.051432"><ele>540.457</ele><time>2026-07-22T03:54:18.000Z</time></trkpt>
        <trkpt lat="28.635103" lon="105.051417"><ele>540.44525</ele><time>2026-07-22T03:54:20.000Z</time></trkpt>
        <trkpt lat="28.635122" lon="105.051402"><ele>540.0365</ele><time>2026-07-22T03:54:22.000Z</time></trkpt>
        <trkpt lat="28.63514" lon="105.051387"><ele>541.4486</ele><time>2026-07-22T03:54:24.000Z</time></trkpt>
        <trkpt lat="28.635157" lon="105.051376"><ele>541.9772</ele><time>2026-07-22T03:54:26.000Z</time></trkpt>
        <trkpt lat="28.635177" lon="105.051364"><ele>542.83984</ele><time>2026-07-22T03:54:28.000Z</time></trkpt>
        <trkpt lat="28.635197" lon="105.051352"><ele>543.1594</ele><time>2026-07-22T03:54:30.000Z</time></trkpt>
        <trkpt lat="28.635216" lon="105.05134"><ele>544.2591</ele><time>2026-07-22T03:54:32.000Z</time></trkpt>
        <trkpt lat="28.635235" lon="105.051331"><ele>545.2177</ele><time>2026-07-22T03:54:34.000Z</time></trkpt>
        <trkpt lat="28.635256" lon="105.051324"><ele>546.4923</ele><time>2026-07-22T03:54:36.000Z</time></trkpt>
        <trkpt lat="28.635276" lon="105.051316"><ele>546.89404</ele><time>2026-07-22T03:54:38.000Z</time></trkpt>
        <trkpt lat="28.635295" lon="105.051305"><ele>546.8185</ele><time>2026-07-22T03:54:40.000Z</time></trkpt>
        <trkpt lat="28.635315" lon="105.051292"><ele>548.03125</ele><time>2026-07-22T03:54:42.000Z</time></trkpt>
        <trkpt lat="28.635331" lon="105.051282"><ele>548.71234</ele><time>2026-07-22T03:54:44.000Z</time></trkpt>
        <trkpt lat="28.635345" lon="105.051272"><ele>548.89813</ele><time>2026-07-22T03:54:46.000Z</time></trkpt>
        <trkpt lat="28.635362" lon="105.051262"><ele>549.77844</ele><time>2026-07-22T03:54:48.000Z</time></trkpt>
        <trkpt lat="28.635379" lon="105.051252"><ele>550.56885</ele><time>2026-07-22T03:54:50.000Z</time></trkpt>
        <trkpt lat="28.635397" lon="105.051244"><ele>548.6459</ele><time>2026-07-22T03:54:52.000Z</time></trkpt>
        <trkpt lat="28.635411" lon="105.051234"><ele>550.1276</ele><time>2026-07-22T03:54:54.000Z</time></trkpt>
        <trkpt lat="28.635419" lon="105.051223"><ele>550.85236</ele><time>2026-07-22T03:54:56.000Z</time></trkpt>
        <trkpt lat="28.63542" lon="105.051223"><ele>550.7726</ele><time>2026-07-22T03:54:58.000Z</time></trkpt>
        <trkpt lat="28.635395" lon="105.051207"><ele>550.5997</ele><time>2026-07-22T03:55:02.000Z</time></trkpt>
        <trkpt lat="28.635381" lon="105.051199"><ele>551.43463</ele><time>2026-07-22T03:55:04.000Z</time></trkpt>
        <trkpt lat="28.635369" lon="105.05119"><ele>551.6775</ele><time>2026-07-22T03:55:06.000Z</time></trkpt>
        <trkpt lat="28.635355" lon="105.051179"><ele>552.09143</ele><time>2026-07-22T03:55:08.000Z</time></trkpt>
        <trkpt lat="28.635344" lon="105.051166"><ele>551.5425</ele><time>2026-07-22T03:55:10.000Z</time></trkpt>
        <trkpt lat="28.635335" lon="105.051154"><ele>552.4056</ele><time>2026-07-22T03:55:12.000Z</time></trkpt>
        <trkpt lat="28.635325" lon="105.05114"><ele>552.165</ele><time>2026-07-22T03:55:14.000Z</time></trkpt>
        <trkpt lat="28.635316" lon="105.051127"><ele>552.3823</ele><time>2026-07-22T03:55:16.000Z</time></trkpt>
        <trkpt lat="28.635306" lon="105.051112"><ele>552.28625</ele><time>2026-07-22T03:55:18.000Z</time></trkpt>
        <trkpt lat="28.635298" lon="105.0511"><ele>553.1281</ele><time>2026-07-22T03:55:20.000Z</time></trkpt>
        <trkpt lat="28.635292" lon="105.051086"><ele>553.49316</ele><time>2026-07-22T03:55:22.000Z</time></trkpt>
        <trkpt lat="28.635288" lon="105.051076"><ele>554.05707</ele><time>2026-07-22T03:55:24.000Z</time></trkpt>
        <trkpt lat="28.63528" lon="105.05106"><ele>554.22034</ele><time>2026-07-22T03:55:26.000Z</time></trkpt>
        <trkpt lat="28.635269" lon="105.051045"><ele>554.363</ele><time>2026-07-22T03:55:28.000Z</time></trkpt>
        <trkpt lat="28.635255" lon="105.051032"><ele>553.9336</ele><time>2026-07-22T03:55:30.000Z</time></trkpt>
        <trkpt lat="28.635239" lon="105.051017"><ele>553.6999</ele><time>2026-07-22T03:55:32.000Z</time></trkpt>
        <trkpt lat="28.635224" lon="105.051001"><ele>553.31683</ele><time>2026-07-22T03:55:34.000Z</time></trkpt>
        <trkpt lat="28.63521" lon="105.050985"><ele>553.95276</ele><time>2026-07-22T03:55:36.000Z</time></trkpt>
        <trkpt lat="28.635196" lon="105.050966"><ele>553.8671</ele><time>2026-07-22T03:55:38.000Z</time></trkpt>
        <trkpt lat="28.635184" lon="105.050947"><ele>553.6388</ele><time>2026-07-22T03:55:40.000Z</time></trkpt>
        <trkpt lat="28.635173" lon="105.050926"><ele>554.163</ele><time>2026-07-22T03:55:42.000Z</time></trkpt>
        <trkpt lat="28.635161" lon="105.050905"><ele>553.6833</ele><time>2026-07-22T03:55:44.000Z</time></trkpt>
        <trkpt lat="28.635146" lon="105.050881"><ele>555.29553</ele><time>2026-07-22T03:55:46.000Z</time></trkpt>
        <trkpt lat="28.635131" lon="105.05086"><ele>554.8957</ele><time>2026-07-22T03:55:48.000Z</time></trkpt>
        <trkpt lat="28.635121" lon="105.050839"><ele>553.1794</ele><time>2026-07-22T03:55:50.000Z</time></trkpt>
        <trkpt lat="28.635112" lon="105.050813"><ele>553.5436</ele><time>2026-07-22T03:55:52.000Z</time></trkpt>
        <trkpt lat="28.635107" lon="105.050789"><ele>554.08936</ele><time>2026-07-22T03:55:54.000Z</time></trkpt>
        <trkpt lat="28.635105" lon="105.050765"><ele>553.3618</ele><time>2026-07-22T03:55:56.000Z</time></trkpt>
        <trkpt lat="28.635105" lon="105.050741"><ele>552.7966</ele><time>2026-07-22T03:55:58.000Z</time></trkpt>
        <trkpt lat="28.635105" lon="105.050713"><ele>552.8946</ele><time>2026-07-22T03:56:00.000Z</time></trkpt>
        <trkpt lat="28.635104" lon="105.050682"><ele>553.86993</ele><time>2026-07-22T03:56:02.000Z</time></trkpt>
        <trkpt lat="28.635103" lon="105.050651"><ele>554.26373</ele><time>2026-07-22T03:56:04.000Z</time></trkpt>
        <trkpt lat="28.635102" lon="105.050619"><ele>553.0799</ele><time>2026-07-22T03:56:06.000Z</time></trkpt>
        <trkpt lat="28.6351" lon="105.05058"><ele>553.883</ele><time>2026-07-22T03:56:08.000Z</time></trkpt>
        <trkpt lat="28.635102" lon="105.050542"><ele>553.96356</ele><time>2026-07-22T03:56:10.000Z</time></trkpt>
        <trkpt lat="28.635107" lon="105.050506"><ele>552.5177</ele><time>2026-07-22T03:56:12.000Z</time></trkpt>
        <trkpt lat="28.635114" lon="105.050471"><ele>552.61</ele><time>2026-07-22T03:56:14.000Z</time></trkpt>
        <trkpt lat="28.635124" lon="105.050436"><ele>552.4233</ele><time>2026-07-22T03:56:16.000Z</time></trkpt>
        <trkpt lat="28.635134" lon="105.050404"><ele>551.90344</ele><time>2026-07-22T03:56:18.000Z</time></trkpt>
        <trkpt lat="28.635144" lon="105.050374"><ele>551.16077</ele><time>2026-07-22T03:56:20.000Z</time></trkpt>
        <trkpt lat="28.635153" lon="105.050344"><ele>550.9719</ele><time>2026-07-22T03:56:22.000Z</time></trkpt>
        <trkpt lat="28.635162" lon="105.050315"><ele>550.4541</ele><time>2026-07-22T03:56:24.000Z</time></trkpt>
        <trkpt lat="28.63517" lon="105.050287"><ele>550.521</ele><time>2026-07-22T03:56:26.000Z</time></trkpt>
        <trkpt lat="28.635179" lon="105.050256"><ele>550.54926</ele><time>2026-07-22T03:56:28.000Z</time></trkpt>
        <trkpt lat="28.63519" lon="105.050227"><ele>549.3245</ele><time>2026-07-22T03:56:30.000Z</time></trkpt>
        <trkpt lat="28.635202" lon="105.050196"><ele>548.2598</ele><time>2026-07-22T03:56:32.000Z</time></trkpt>
        <trkpt lat="28.635212" lon="105.050166"><ele>548.19525</ele><time>2026-07-22T03:56:34.000Z</time></trkpt>
        <trkpt lat="28.635222" lon="105.050138"><ele>548.50226</ele><time>2026-07-22T03:56:36.000Z</time></trkpt>
        <trkpt lat="28.635233" lon="105.050111"><ele>548.3337</ele><time>2026-07-22T03:56:38.000Z</time></trkpt>
        <trkpt lat="28.635239" lon="105.050082"><ele>546.8016</ele><time>2026-07-22T03:56:40.000Z</time></trkpt>
        <trkpt lat="28.635241" lon="105.050052"><ele>547.8817</ele><time>2026-07-22T03:56:42.000Z</time></trkpt>
        <trkpt lat="28.635237" lon="105.050024"><ele>547.84766</ele><time>2026-07-22T03:56:44.000Z</time></trkpt>
        <trkpt lat="28.635228" lon="105.049991"><ele>548.44434</ele><time>2026-07-22T03:56:46.000Z</time></trkpt>
        <trkpt lat="28.635213" lon="105.049959"><ele>548.64197</ele><time>2026-07-22T03:56:48.000Z</time></trkpt>
        <trkpt lat="28.635193" lon="105.049927"><ele>549.00256</ele><time>2026-07-22T03:56:50.000Z</time></trkpt>
        <trkpt lat="28.635173" lon="105.049897"><ele>549.09076</ele><time>2026-07-22T03:56:52.000Z</time></trkpt>
        <trkpt lat="28.635155" lon="105.049873"><ele>549.54065</ele><time>2026-07-22T03:56:54.000Z</time></trkpt>
        <trkpt lat="28.63514" lon="105.049855"><ele>549.45575</ele><time>2026-07-22T03:56:56.000Z</time></trkpt>
        <trkpt lat="28.635126" lon="105.049842"><ele>549.8832</ele><time>2026-07-22T03:56:58.000Z</time></trkpt>
        <trkpt lat="28.635118" lon="105.049831"><ele>549.054</ele><time>2026-07-22T03:57:00.000Z</time></trkpt>
        <trkpt lat="28.635109" lon="105.04982"><ele>549.1464</ele><time>2026-07-22T03:57:02.000Z</time></trkpt>
        <trkpt lat="28.6351" lon="105.049809"><ele>549.9928</ele><time>2026-07-22T03:57:04.000Z</time></trkpt>
        <trkpt lat="28.635092" lon="105.049797"><ele>549.73584</ele><time>2026-07-22T03:57:06.000Z</time></trkpt>
        <trkpt lat="28.635086" lon="105.049783"><ele>550.25055</ele><time>2026-07-22T03:57:08.000Z</time></trkpt>
        <trkpt lat="28.635081" lon="105.049769"><ele>549.82745</ele><time>2026-07-22T03:57:10.000Z</time></trkpt>
        <trkpt lat="28.635076" lon="105.049754"><ele>550.48505</ele><time>2026-07-22T03:57:12.000Z</time></trkpt>
        <trkpt lat="28.635073" lon="105.049738"><ele>551.49567</ele><time>2026-07-22T03:57:14.000Z</time></trkpt>
        <trkpt lat="28.63507" lon="105.049718"><ele>551.88245</ele><time>2026-07-22T03:57:16.000Z</time></trkpt>
        <trkpt lat="28.635068" lon="105.049693"><ele>552.31445</ele><time>2026-07-22T03:57:18.000Z</time></trkpt>
        <trkpt lat="28.635066" lon="105.049673"><ele>552.45844</ele><time>2026-07-22T03:57:20.000Z</time></trkpt>
        <trkpt lat="28.635065" lon="105.049653"><ele>552.68744</ele><time>2026-07-22T03:57:22.000Z</time></trkpt>
        <trkpt lat="28.635064" lon="105.04963"><ele>552.58203</ele><time>2026-07-22T03:57:24.000Z</time></trkpt>
        <trkpt lat="28.635064" lon="105.049607"><ele>552.7574</ele><time>2026-07-22T03:57:26.000Z</time></trkpt>
        <trkpt lat="28.635064" lon="105.049584"><ele>552.6964</ele><time>2026-07-22T03:57:28.000Z</time></trkpt>
        <trkpt lat="28.635064" lon="105.049559"><ele>551.8886</ele><time>2026-07-22T03:57:30.000Z</time></trkpt>
        <trkpt lat="28.635067" lon="105.049531"><ele>551.50146</ele><time>2026-07-22T03:57:32.000Z</time></trkpt>
        <trkpt lat="28.63507" lon="105.049503"><ele>551.04565</ele><time>2026-07-22T03:57:34.000Z</time></trkpt>
        <trkpt lat="28.635075" lon="105.049471"><ele>551.6276</ele><time>2026-07-22T03:57:36.000Z</time></trkpt>
        <trkpt lat="28.635079" lon="105.049439"><ele>552.02295</ele><time>2026-07-22T03:57:38.000Z</time></trkpt>
        <trkpt lat="28.635083" lon="105.049408"><ele>552.18567</ele><time>2026-07-22T03:57:40.000Z</time></trkpt>
        <trkpt lat="28.635085" lon="105.049378"><ele>552.23834</ele><time>2026-07-22T03:57:42.000Z</time></trkpt>
        <trkpt lat="28.635087" lon="105.049348"><ele>552.0973</ele><time>2026-07-22T03:57:44.000Z</time></trkpt>
        <trkpt lat="28.635088" lon="105.049318"><ele>551.9326</ele><time>2026-07-22T03:57:46.000Z</time></trkpt>
        <trkpt lat="28.635088" lon="105.049291"><ele>552.3237</ele><time>2026-07-22T03:57:48.000Z</time></trkpt>
        <trkpt lat="28.635086" lon="105.049262"><ele>551.7016</ele><time>2026-07-22T03:57:50.000Z</time></trkpt>
        <trkpt lat="28.635082" lon="105.04923"><ele>551.9135</ele><time>2026-07-22T03:57:52.000Z</time></trkpt>
        <trkpt lat="28.635077" lon="105.049198"><ele>551.72144</ele><time>2026-07-22T03:57:54.000Z</time></trkpt>
        <trkpt lat="28.635069" lon="105.049165"><ele>551.5465</ele><time>2026-07-22T03:57:56.000Z</time></trkpt>
        <trkpt lat="28.63506" lon="105.049133"><ele>551.94135</ele><time>2026-07-22T03:57:58.000Z</time></trkpt>
        <trkpt lat="28.635049" lon="105.049102"><ele>552.16565</ele><time>2026-07-22T03:58:00.000Z</time></trkpt>
        <trkpt lat="28.635039" lon="105.049069"><ele>551.70074</ele><time>2026-07-22T03:58:02.000Z</time></trkpt>
        <trkpt lat="28.635033" lon="105.049044"><ele>550.5903</ele><time>2026-07-22T03:58:04.000Z</time></trkpt>
        <trkpt lat="28.635023" lon="105.049018"><ele>551.46313</ele><time>2026-07-22T03:58:06.000Z</time></trkpt>
        <trkpt lat="28.635015" lon="105.049"><ele>552.5611</ele><time>2026-07-22T03:58:08.000Z</time></trkpt>
        <trkpt lat="28.635008" lon="105.048987"><ele>553.6496</ele><time>2026-07-22T03:58:10.000Z</time></trkpt>
        <trkpt lat="28.635002" lon="105.048973"><ele>553.7562</ele><time>2026-07-22T03:58:12.000Z</time></trkpt>
        <trkpt lat="28.634998" lon="105.048964"><ele>554.2709</ele><time>2026-07-22T03:58:14.000Z</time></trkpt>
        <trkpt lat="28.634993" lon="105.048952"><ele>554.22186</ele><time>2026-07-22T03:58:16.000Z</time></trkpt>
        <trkpt lat="28.634989" lon="105.04894"><ele>554.20276</ele><time>2026-07-22T03:58:18.000Z</time></trkpt>
        <trkpt lat="28.634986" lon="105.048927"><ele>554.6106</ele><time>2026-07-22T03:58:20.000Z</time></trkpt>
        <trkpt lat="28.634982" lon="105.048914"><ele>554.97003</ele><time>2026-07-22T03:58:22.000Z</time></trkpt>
        <trkpt lat="28.634977" lon="105.048902"><ele>555.1659</ele><time>2026-07-22T03:58:24.000Z</time></trkpt>
        <trkpt lat="28.634973" lon="105.048889"><ele>555.6807</ele><time>2026-07-22T03:58:26.000Z</time></trkpt>
        <trkpt lat="28.634966" lon="105.048876"><ele>556.26025</ele><time>2026-07-22T03:58:28.000Z</time></trkpt>
        <trkpt lat="28.634958" lon="105.04886"><ele>557.0121</ele><time>2026-07-22T03:58:30.000Z</time></trkpt>
        <trkpt lat="28.63495" lon="105.048844"><ele>557.17566</ele><time>2026-07-22T03:58:32.000Z</time></trkpt>
        <trkpt lat="28.634943" lon="105.048826"><ele>556.936</ele><time>2026-07-22T03:58:34.000Z</time></trkpt>
        <trkpt lat="28.634936" lon="105.048807"><ele>557.4349</ele><time>2026-07-22T03:58:36.000Z</time></trkpt>
        <trkpt lat="28.63493" lon="105.048789"><ele>557.6832</ele><time>2026-07-22T03:58:38.000Z</time></trkpt>
        <trkpt lat="28.634925" lon="105.048772"><ele>557.20056</ele><time>2026-07-22T03:58:40.000Z</time></trkpt>
        <trkpt lat="28.634922" lon="105.048755"><ele>557.4366</ele><time>2026-07-22T03:58:42.000Z</time></trkpt>
        <trkpt lat="28.634918" lon="105.04873"><ele>558.1998</ele><time>2026-07-22T03:58:44.000Z</time></trkpt>
        <trkpt lat="28.634915" lon="105.048704"><ele>557.1711</ele><time>2026-07-22T03:58:46.000Z</time></trkpt>
        <trkpt lat="28.63491" lon="105.048686"><ele>557.27655</ele><time>2026-07-22T03:58:48.000Z</time></trkpt>
        <trkpt lat="28.634905" lon="105.048667"><ele>557.7314</ele><time>2026-07-22T03:58:50.000Z</time></trkpt>
        <trkpt lat="28.6349" lon="105.048647"><ele>558.6746</ele><time>2026-07-22T03:58:52.000Z</time></trkpt>
        <trkpt lat="28.634895" lon="105.048628"><ele>559.36414</ele><time>2026-07-22T03:58:54.000Z</time></trkpt>
        <trkpt lat="28.63489" lon="105.048608"><ele>559.2932</ele><time>2026-07-22T03:58:56.000Z</time></trkpt>
        <trkpt lat="28.634885" lon="105.048589"><ele>558.402</ele><time>2026-07-22T03:58:58.000Z</time></trkpt>
        <trkpt lat="28.63488" lon="105.048568"><ele>559.1362</ele><time>2026-07-22T03:59:00.000Z</time></trkpt>
        <trkpt lat="28.634877" lon="105.048545"><ele>559.14667</ele><time>2026-07-22T03:59:02.000Z</time></trkpt>
        <trkpt lat="28.634874" lon="105.048519"><ele>559.33325</ele><time>2026-07-22T03:59:04.000Z</time></trkpt>
        <trkpt lat="28.634871" lon="105.048491"><ele>559.3451</ele><time>2026-07-22T03:59:06.000Z</time></trkpt>
        <trkpt lat="28.634869" lon="105.048461"><ele>559.6054</ele><time>2026-07-22T03:59:08.000Z</time></trkpt>
        <trkpt lat="28.634868" lon="105.048432"><ele>559.793</ele><time>2026-07-22T03:59:10.000Z</time></trkpt>
        <trkpt lat="28.634867" lon="105.048403"><ele>559.49963</ele><time>2026-07-22T03:59:12.000Z</time></trkpt>
        <trkpt lat="28.634866" lon="105.048376"><ele>559.20715</ele><time>2026-07-22T03:59:14.000Z</time></trkpt>
        <trkpt lat="28.634864" lon="105.04835"><ele>559.28265</ele><time>2026-07-22T03:59:16.000Z</time></trkpt>
        <trkpt lat="28.634861" lon="105.048323"><ele>559.04663</ele><time>2026-07-22T03:59:18.000Z</time></trkpt>
        <trkpt lat="28.634856" lon="105.048299"><ele>558.5173</ele><time>2026-07-22T03:59:20.000Z</time></trkpt>
        <trkpt lat="28.63485" lon="105.048275"><ele>558.447</ele><time>2026-07-22T03:59:22.000Z</time></trkpt>
        <trkpt lat="28.634844" lon="105.048252"><ele>558.12744</ele><time>2026-07-22T03:59:24.000Z</time></trkpt>
        <trkpt lat="28.634837" lon="105.048229"><ele>557.57983</ele><time>2026-07-22T03:59:26.000Z</time></trkpt>
        <trkpt lat="28.634827" lon="105.048206"><ele>556.9847</ele><time>2026-07-22T03:59:28.000Z</time></trkpt>
        <trkpt lat="28.634816" lon="105.048182"><ele>556.9447</ele><time>2026-07-22T03:59:30.000Z</time></trkpt>
        <trkpt lat="28.634803" lon="105.048156"><ele>556.88837</ele><time>2026-07-22T03:59:32.000Z</time></trkpt>
        <trkpt lat="28.63479" lon="105.048129"><ele>557.27203</ele><time>2026-07-22T03:59:34.000Z</time></trkpt>
        <trkpt lat="28.634777" lon="105.048101"><ele>557.55066</ele><time>2026-07-22T03:59:36.000Z</time></trkpt>
        <trkpt lat="28.634765" lon="105.048073"><ele>556.7317</ele><time>2026-07-22T03:59:38.000Z</time></trkpt>
        <trkpt lat="28.634754" lon="105.048041"><ele>558.3545</ele><time>2026-07-22T03:59:40.000Z</time></trkpt>
        <trkpt lat="28.634738" lon="105.048005"><ele>558.74207</ele><time>2026-07-22T03:59:42.000Z</time></trkpt>
        <trkpt lat="28.634722" lon="105.047965"><ele>560.5538</ele><time>2026-07-22T03:59:44.000Z</time></trkpt>
        <trkpt lat="28.634702" lon="105.047923"><ele>559.20776</ele><time>2026-07-22T03:59:46.000Z</time></trkpt>
        <trkpt lat="28.634668" lon="105.047872"><ele>559.5175</ele><time>2026-07-22T03:59:48.000Z</time></trkpt>
        <trkpt lat="28.634622" lon="105.047809"><ele>559.9755</ele><time>2026-07-22T03:59:50.000Z</time></trkpt>
        <trkpt lat="28.634579" lon="105.047746"><ele>560.44196</ele><time>2026-07-22T03:59:52.000Z</time></trkpt>
        <trkpt lat="28.634539" lon="105.047681"><ele>561.55597</ele><time>2026-07-22T03:59:54.000Z</time></trkpt>
        <trkpt lat="28.634506" lon="105.047616"><ele>562.05914</ele><time>2026-07-22T03:59:56.000Z</time></trkpt>
        <trkpt lat="28.634479" lon="105.047552"><ele>560.7796</ele><time>2026-07-22T03:59:58.000Z</time></trkpt>
        <trkpt lat="28.634457" lon="105.047498"><ele>560.16095</ele><time>2026-07-22T04:00:00.000Z</time></trkpt>
        <trkpt lat="28.634437" lon="105.047456"><ele>559.772</ele><time>2026-07-22T04:00:02.000Z</time></trkpt>
        <trkpt lat="28.634423" lon="105.047429"><ele>560.9976</ele><time>2026-07-22T04:00:04.000Z</time></trkpt>
        <trkpt lat="28.634415" lon="105.047405"><ele>559.5893</ele><time>2026-07-22T04:00:06.000Z</time></trkpt>
        <trkpt lat="28.634411" lon="105.047394"><ele>557.53766</ele><time>2026-07-22T04:00:08.000Z</time></trkpt>
        <trkpt lat="28.634407" lon="105.04738"><ele>556.6815</ele><time>2026-07-22T04:00:10.000Z</time></trkpt>
        <trkpt lat="28.634402" lon="105.047365"><ele>556.5907</ele><time>2026-07-22T04:00:12.000Z</time></trkpt>
        <trkpt lat="28.634396" lon="105.047348"><ele>556.5293</ele><time>2026-07-22T04:00:14.000Z</time></trkpt>
        <trkpt lat="28.63439" lon="105.047327"><ele>556.55865</ele><time>2026-07-22T04:00:16.000Z</time></trkpt>
        <trkpt lat="28.634387" lon="105.047304"><ele>555.0311</ele><time>2026-07-22T04:00:18.000Z</time></trkpt>
        <trkpt lat="28.634387" lon="105.047274"><ele>553.065</ele><time>2026-07-22T04:00:20.000Z</time></trkpt>
        <trkpt lat="28.634394" lon="105.047239"><ele>552.3297</ele><time>2026-07-22T04:00:22.000Z</time></trkpt>
        <trkpt lat="28.634409" lon="105.047205"><ele>551.02045</ele><time>2026-07-22T04:00:24.000Z</time></trkpt>
        <trkpt lat="28.634429" lon="105.047177"><ele>550.38416</ele><time>2026-07-22T04:00:26.000Z</time></trkpt>
        <trkpt lat="28.634452" lon="105.04715"><ele>550.31134</ele><time>2026-07-22T04:00:28.000Z</time></trkpt>
        <trkpt lat="28.634477" lon="105.047122"><ele>549.0408</ele><time>2026-07-22T04:00:30.000Z</time></trkpt>
        <trkpt lat="28.634507" lon="105.04709"><ele>549.9993</ele><time>2026-07-22T04:00:32.000Z</time></trkpt>
        <trkpt lat="28.634495" lon="105.047065"><ele>551.09625</ele><time>2026-07-22T04:00:34.000Z</time></trkpt>
        <trkpt lat="28.634481" lon="105.047041"><ele>552.81775</ele><time>2026-07-22T04:00:36.000Z</time></trkpt>
        <trkpt lat="28.634473" lon="105.047035"><ele>553.0185</ele><time>2026-07-22T04:00:38.000Z</time></trkpt>
        <trkpt lat="28.634464" lon="105.047034"><ele>553.5309</ele><time>2026-07-22T04:00:40.000Z</time></trkpt>
        <trkpt lat="28.634447" lon="105.047033"><ele>554.3703</ele><time>2026-07-22T04:00:42.000Z</time></trkpt>
        <trkpt lat="28.634429" lon="105.047034"><ele>554.20306</ele><time>2026-07-22T04:00:44.000Z</time></trkpt>
        <trkpt lat="28.634413" lon="105.047035"><ele>554.7559</ele><time>2026-07-22T04:00:46.000Z</time></trkpt>
        <trkpt lat="28.634399" lon="105.047032"><ele>554.85895</ele><time>2026-07-22T04:00:48.000Z</time></trkpt>
        <trkpt lat="28.634384" lon="105.047024"><ele>554.09656</ele><time>2026-07-22T04:00:50.000Z</time></trkpt>
        <trkpt lat="28.634372" lon="105.047012"><ele>554.0317</ele><time>2026-07-22T04:00:52.000Z</time></trkpt>
        <trkpt lat="28.634358" lon="105.046996"><ele>553.4553</ele><time>2026-07-22T04:00:54.000Z</time></trkpt>
        <trkpt lat="28.634345" lon="105.04698"><ele>553.8631</ele><time>2026-07-22T04:00:56.000Z</time></trkpt>
        <trkpt lat="28.634331" lon="105.046968"><ele>554.2925</ele><time>2026-07-22T04:00:58.000Z</time></trkpt>
        <trkpt lat="28.634318" lon="105.046952"><ele>556.26776</ele><time>2026-07-22T04:01:00.000Z</time></trkpt>
        <trkpt lat="28.634312" lon="105.04694"><ele>554.5611</ele><time>2026-07-22T04:01:02.000Z</time></trkpt>
        <trkpt lat="28.634305" lon="105.046925"><ele>555.52844</ele><time>2026-07-22T04:01:04.000Z</time></trkpt>
        <trkpt lat="28.634299" lon="105.046912"><ele>555.5119</ele><time>2026-07-22T04:01:06.000Z</time></trkpt>
        <trkpt lat="28.634291" lon="105.046894"><ele>554.58997</ele><time>2026-07-22T04:01:08.000Z</time></trkpt>
        <trkpt lat="28.634282" lon="105.046877"><ele>553.7001</ele><time>2026-07-22T04:01:10.000Z</time></trkpt>
        <trkpt lat="28.634271" lon="105.046862"><ele>555.0018</ele><time>2026-07-22T04:01:12.000Z</time></trkpt>
        <trkpt lat="28.634262" lon="105.04685"><ele>555.3978</ele><time>2026-07-22T04:01:14.000Z</time></trkpt>
        <trkpt lat="28.634252" lon="105.046835"><ele>554.63086</ele><time>2026-07-22T04:01:16.000Z</time></trkpt>
        <trkpt lat="28.63424" lon="105.046817"><ele>555.38654</ele><time>2026-07-22T04:01:18.000Z</time></trkpt>
        <trkpt lat="28.634227" lon="105.046797"><ele>555.9902</ele><time>2026-07-22T04:01:20.000Z</time></trkpt>
        <trkpt lat="28.634214" lon="105.04678"><ele>556.73785</ele><time>2026-07-22T04:01:22.000Z</time></trkpt>
        <trkpt lat="28.6342" lon="105.04676"><ele>557.47015</ele><time>2026-07-22T04:01:24.000Z</time></trkpt>
        <trkpt lat="28.634188" lon="105.046744"><ele>557.0087</ele><time>2026-07-22T04:01:26.000Z</time></trkpt>
        <trkpt lat="28.634176" lon="105.04673"><ele>557.39484</ele><time>2026-07-22T04:01:28.000Z</time></trkpt>
        <trkpt lat="28.634164" lon="105.046713"><ele>558.55286</ele><time>2026-07-22T04:01:30.000Z</time></trkpt>
        <trkpt lat="28.634151" lon="105.046692"><ele>557.81104</ele><time>2026-07-22T04:01:32.000Z</time></trkpt>
        <trkpt lat="28.634137" lon="105.046669"><ele>558.13495</ele><time>2026-07-22T04:01:34.000Z</time></trkpt>
        <trkpt lat="28.634125" lon="105.046647"><ele>557.72626</ele><time>2026-07-22T04:01:36.000Z</time></trkpt>
        <trkpt lat="28.634111" lon="105.046621"><ele>558.60565</ele><time>2026-07-22T04:01:38.000Z</time></trkpt>
        <trkpt lat="28.634098" lon="105.046596"><ele>558.64795</ele><time>2026-07-22T04:01:40.000Z</time></trkpt>
        <trkpt lat="28.634085" lon="105.046572"><ele>558.79114</ele><time>2026-07-22T04:01:42.000Z</time></trkpt>
        <trkpt lat="28.634073" lon="105.046551"><ele>559.16644</ele><time>2026-07-22T04:01:44.000Z</time></trkpt>
        <trkpt lat="28.63406" lon="105.046527"><ele>558.7477</ele><time>2026-07-22T04:01:46.000Z</time></trkpt>
        <trkpt lat="28.634048" lon="105.046503"><ele>558.4799</ele><time>2026-07-22T04:01:48.000Z</time></trkpt>
        <trkpt lat="28.634034" lon="105.046477"><ele>559.069</ele><time>2026-07-22T04:01:50.000Z</time></trkpt>
        <trkpt lat="28.634018" lon="105.046453"><ele>559.3541</ele><time>2026-07-22T04:01:52.000Z</time></trkpt>
        <trkpt lat="28.634005" lon="105.046435"><ele>559.67236</ele><time>2026-07-22T04:01:54.000Z</time></trkpt>
        <trkpt lat="28.63399" lon="105.046418"><ele>559.6762</ele><time>2026-07-22T04:01:56.000Z</time></trkpt>
        <trkpt lat="28.633975" lon="105.046398"><ele>559.91504</ele><time>2026-07-22T04:01:58.000Z</time></trkpt>
        <trkpt lat="28.63396" lon="105.046378"><ele>560.5315</ele><time>2026-07-22T04:02:00.000Z</time></trkpt>
        <trkpt lat="28.633943" lon="105.046354"><ele>560.2066</ele><time>2026-07-22T04:02:02.000Z</time></trkpt>
        <trkpt lat="28.633928" lon="105.046329"><ele>559.69855</ele><time>2026-07-22T04:02:04.000Z</time></trkpt>
        <trkpt lat="28.633914" lon="105.046304"><ele>558.8744</ele><time>2026-07-22T04:02:06.000Z</time></trkpt>
        <trkpt lat="28.633902" lon="105.046278"><ele>558.9036</ele><time>2026-07-22T04:02:08.000Z</time></trkpt>
        <trkpt lat="28.633892" lon="105.046251"><ele>559.1958</ele><time>2026-07-22T04:02:10.000Z</time></trkpt>
        <trkpt lat="28.633885" lon="105.046225"><ele>559.03864</ele><time>2026-07-22T04:02:12.000Z</time></trkpt>
        <trkpt lat="28.63388" lon="105.046199"><ele>559.38104</ele><time>2026-07-22T04:02:14.000Z</time></trkpt>
        <trkpt lat="28.633876" lon="105.04617"><ele>559.13196</ele><time>2026-07-22T04:02:16.000Z</time></trkpt>
        <trkpt lat="28.633871" lon="105.046143"><ele>560.14624</ele><time>2026-07-22T04:02:18.000Z</time></trkpt>
        <trkpt lat="28.633867" lon="105.04612"><ele>560.1057</ele><time>2026-07-22T04:02:20.000Z</time></trkpt>
        <trkpt lat="28.633863" lon="105.046096"><ele>560.62915</ele><time>2026-07-22T04:02:22.000Z</time></trkpt>
        <trkpt lat="28.633863" lon="105.046075"><ele>562.5065</ele><time>2026-07-22T04:02:24.000Z</time></trkpt>
        <trkpt lat="28.633864" lon="105.046052"><ele>561.7373</ele><time>2026-07-22T04:02:26.000Z</time></trkpt>
        <trkpt lat="28.633869" lon="105.04603"><ele>562.0582</ele><time>2026-07-22T04:02:28.000Z</time></trkpt>
        <trkpt lat="28.633877" lon="105.046004"><ele>561.0422</ele><time>2026-07-22T04:02:30.000Z</time></trkpt>
        <trkpt lat="28.633887" lon="105.045982"><ele>561.4167</ele><time>2026-07-22T04:02:32.000Z</time></trkpt>
        <trkpt lat="28.633901" lon="105.045958"><ele>560.85004</ele><time>2026-07-22T04:02:34.000Z</time></trkpt>
        <trkpt lat="28.633919" lon="105.045935"><ele>561.14197</ele><time>2026-07-22T04:02:36.000Z</time></trkpt>
        <trkpt lat="28.633934" lon="105.045918"><ele>561.86993</ele><time>2026-07-22T04:02:38.000Z</time></trkpt>
        <trkpt lat="28.633953" lon="105.045907"><ele>561.73126</ele><time>2026-07-22T04:02:40.000Z</time></trkpt>
        <trkpt lat="28.633975" lon="105.045894"><ele>563.1439</ele><time>2026-07-22T04:02:42.000Z</time></trkpt>
        <trkpt lat="28.633989" lon="105.045887"><ele>563.5001</ele><time>2026-07-22T04:02:44.000Z</time></trkpt>
        <trkpt lat="28.633998" lon="105.045885"><ele>564.50635</ele><time>2026-07-22T04:02:46.000Z</time></trkpt>
        <trkpt lat="28.634" lon="105.045888"><ele>563.73676</ele><time>2026-07-22T04:02:48.000Z</time></trkpt>
        <trkpt lat="28.634008" lon="105.045907"><ele>564.0566</ele><time>2026-07-22T04:02:50.000Z</time></trkpt>
        <trkpt lat="28.634017" lon="105.045944"><ele>563.0448</ele><time>2026-07-22T04:02:52.000Z</time></trkpt>
        <trkpt lat="28.634028" lon="105.045985"><ele>563.3462</ele><time>2026-07-22T04:02:54.000Z</time></trkpt>
        <trkpt lat="28.634038" lon="105.046026"><ele>564.1243</ele><time>2026-07-22T04:02:56.000Z</time></trkpt>
        <trkpt lat="28.63405" lon="105.046071"><ele>565.2296</ele><time>2026-07-22T04:02:58.000Z</time></trkpt>
        <trkpt lat="28.634067" lon="105.046115"><ele>566.8076</ele><time>2026-07-22T04:03:00.000Z</time></trkpt>
        <trkpt lat="28.634089" lon="105.046149"><ele>567.6142</ele><time>2026-07-22T04:03:02.000Z</time></trkpt>
        <trkpt lat="28.634109" lon="105.046171"><ele>566.18933</ele><time>2026-07-22T04:03:04.000Z</time></trkpt>
        <trkpt lat="28.634123" lon="105.046176"><ele>565.88794</ele><time>2026-07-22T04:03:06.000Z</time></trkpt>
        <trkpt lat="28.634123" lon="105.046177"><ele>566.9931</ele><time>2026-07-22T04:03:08.000Z</time></trkpt>
        <trkpt lat="28.634117" lon="105.046138"><ele>566.0652</ele><time>2026-07-22T04:03:12.000Z</time></trkpt>
        <trkpt lat="28.634114" lon="105.046121"><ele>566.646</ele><time>2026-07-22T04:03:14.000Z</time></trkpt>
        <trkpt lat="28.634109" lon="105.046106"><ele>566.2918</ele><time>2026-07-22T04:03:16.000Z</time></trkpt>
        <trkpt lat="28.634109" lon="105.046104"><ele>567.53876</ele><time>2026-07-22T04:03:18.000Z</time></trkpt>
        <trkpt lat="28.634105" lon="105.04616"><ele>566.9795</ele><time>2026-07-22T04:03:26.000Z</time></trkpt>
        <trkpt lat="28.634105" lon="105.04616"><ele>565.805</ele><time>2026-07-22T04:03:28.000Z</time></trkpt>
        <trkpt lat="28.634103" lon="105.046161"><ele>567.47906</ele><time>2026-07-22T04:03:30.000Z</time></trkpt>
        <trkpt lat="28.634131" lon="105.04614"><ele>565.1305</ele><time>2026-07-22T04:04:11.000Z</time></trkpt>
        <trkpt lat="28.634131" lon="105.04614"><ele>565.08014</ele><time>2026-07-22T04:04:13.000Z</time></trkpt>
        <trkpt lat="28.634131" lon="105.046141"><ele>565.3528</ele><time>2026-07-22T04:04:15.000Z</time></trkpt>
        <trkpt lat="28.634123" lon="105.046175"><ele>566.9479</ele><time>2026-07-22T04:04:25.000Z</time></trkpt>
        <trkpt lat="28.634123" lon="105.046175"><ele>566.8304</ele><time>2026-07-22T04:04:27.000Z</time></trkpt>
        <trkpt lat="28.634122" lon="105.046174"><ele>566.9082</ele><time>2026-07-22T04:04:29.000Z</time></trkpt>
        <trkpt lat="28.634092" lon="105.046152"><ele>567.5979</ele><time>2026-07-22T04:04:45.000Z</time></trkpt>
        <trkpt lat="28.634067" lon="105.046134"><ele>567.0933</ele><time>2026-07-22T04:04:47.000Z</time></trkpt>
        <trkpt lat="28.634066" lon="105.046132"><ele>567.0738</ele><time>2026-07-22T04:04:49.000Z</time></trkpt>
        <trkpt lat="28.634066" lon="105.04613"><ele>567.69366</ele><time>2026-07-22T04:04:51.000Z</time></trkpt>
        <trkpt lat="28.634067" lon="105.046103"><ele>566.2003</ele><time>2026-07-22T04:04:57.000Z</time></trkpt>
        <trkpt lat="28.634068" lon="105.046103"><ele>566.80237</ele><time>2026-07-22T04:04:59.000Z</time></trkpt>
        <trkpt lat="28.634068" lon="105.046104"><ele>567.13007</ele><time>2026-07-22T04:05:01.000Z</time></trkpt>
        <trkpt lat="28.634084" lon="105.04615"><ele>567.5619</ele><time>2026-07-22T04:05:05.000Z</time></trkpt>
        <trkpt lat="28.634084" lon="105.04615"><ele>567.3962</ele><time>2026-07-22T04:05:07.000Z</time></trkpt>
        <trkpt lat="28.634084" lon="105.046151"><ele>567.7126</ele><time>2026-07-22T04:05:09.000Z</time></trkpt>
        <trkpt lat="28.634111" lon="105.046183"><ele>566.67596</ele><time>2026-07-22T04:05:15.000Z</time></trkpt>
        <trkpt lat="28.634111" lon="105.046184"><ele>566.8267</ele><time>2026-07-22T04:05:17.000Z</time></trkpt>
        <trkpt lat="28.634112" lon="105.046185"><ele>566.8138</ele><time>2026-07-22T04:05:19.000Z</time></trkpt>
        <trkpt lat="28.634141" lon="105.046228"><ele>566.87506</ele><time>2026-07-22T04:05:24.000Z</time></trkpt>
        <trkpt lat="28.634155" lon="105.046244"><ele>567.0468</ele><time>2026-07-22T04:05:26.000Z</time></trkpt>
        <trkpt lat="28.634166" lon="105.046256"><ele>567.1647</ele><time>2026-07-22T04:05:28.000Z</time></trkpt>
        <trkpt lat="28.634173" lon="105.046261"><ele>567.2602</ele><time>2026-07-22T04:05:30.000Z</time></trkpt>
        <trkpt lat="28.63418" lon="105.046271"><ele>567.2794</ele><time>2026-07-22T04:05:34.000Z</time></trkpt>
        <trkpt lat="28.634124" lon="105.046205"><ele>567.8005</ele><time>2026-07-22T04:06:18.000Z</time></trkpt>
        <trkpt lat="28.63411" lon="105.046191"><ele>567.40485</ele><time>2026-07-22T04:06:20.000Z</time></trkpt>
        <trkpt lat="28.634109" lon="105.04619"><ele>566.8074</ele><time>2026-07-22T04:06:22.000Z</time></trkpt>
        <trkpt lat="28.63418" lon="105.04623"><ele>568.0575</ele><time>2026-07-22T04:08:16.000Z</time></trkpt>
        <trkpt lat="28.634208" lon="105.046246"><ele>568.5406</ele><time>2026-07-22T04:08:18.000Z</time></trkpt>
        <trkpt lat="28.634209" lon="105.046247"><ele>566.99677</ele><time>2026-07-22T04:08:20.000Z</time></trkpt>
        <trkpt lat="28.634217" lon="105.046264"><ele>569.1061</ele><time>2026-07-22T04:08:24.000Z</time></trkpt>
        <trkpt lat="28.634242" lon="105.046302"><ele>566.4425</ele><time>2026-07-22T04:08:28.000Z</time></trkpt>
        <trkpt lat="28.634261" lon="105.046325"><ele>568.27344</ele><time>2026-07-22T04:08:30.000Z</time></trkpt>
        <trkpt lat="28.634282" lon="105.046351"><ele>568.4849</ele><time>2026-07-22T04:08:32.000Z</time></trkpt>
        <trkpt lat="28.634299" lon="105.046367"><ele>569.10065</ele><time>2026-07-22T04:08:34.000Z</time></trkpt>
        <trkpt lat="28.63432" lon="105.046383"><ele>570.4362</ele><time>2026-07-22T04:08:36.000Z</time></trkpt>
        <trkpt lat="28.634343" lon="105.046402"><ele>570.12823</ele><time>2026-07-22T04:08:38.000Z</time></trkpt>
        <trkpt lat="28.634367" lon="105.046417"><ele>569.9098</ele><time>2026-07-22T04:08:40.000Z</time></trkpt>
        <trkpt lat="28.634391" lon="105.046432"><ele>570.11804</ele><time>2026-07-22T04:08:42.000Z</time></trkpt>
        <trkpt lat="28.634411" lon="105.046443"><ele>571.0294</ele><time>2026-07-22T04:08:44.000Z</time></trkpt>
        <trkpt lat="28.63443" lon="105.046454"><ele>571.0838</ele><time>2026-07-22T04:08:46.000Z</time></trkpt>
        <trkpt lat="28.634443" lon="105.046462"><ele>570.4735</ele><time>2026-07-22T04:08:48.000Z</time></trkpt>
        <trkpt lat="28.634458" lon="105.046472"><ele>570.0039</ele><time>2026-07-22T04:08:50.000Z</time></trkpt>
        <trkpt lat="28.634473" lon="105.046479"><ele>569.5297</ele><time>2026-07-22T04:08:52.000Z</time></trkpt>
        <trkpt lat="28.634493" lon="105.046483"><ele>568.5545</ele><time>2026-07-22T04:08:54.000Z</time></trkpt>
        <trkpt lat="28.634512" lon="105.046485"><ele>568.7862</ele><time>2026-07-22T04:08:56.000Z</time></trkpt>
        <trkpt lat="28.634531" lon="105.046486"><ele>569.75977</ele><time>2026-07-22T04:08:58.000Z</time></trkpt>
        <trkpt lat="28.634553" lon="105.046486"><ele>569.84106</ele><time>2026-07-22T04:09:00.000Z</time></trkpt>
        <trkpt lat="28.634575" lon="105.046483"><ele>569.6519</ele><time>2026-07-22T04:09:02.000Z</time></trkpt>
        <trkpt lat="28.634592" lon="105.046478"><ele>569.6152</ele><time>2026-07-22T04:09:04.000Z</time></trkpt>
        <trkpt lat="28.634611" lon="105.046471"><ele>569.3414</ele><time>2026-07-22T04:09:06.000Z</time></trkpt>
        <trkpt lat="28.634628" lon="105.046466"><ele>569.5747</ele><time>2026-07-22T04:09:08.000Z</time></trkpt>
        <trkpt lat="28.634644" lon="105.046463"><ele>569.5867</ele><time>2026-07-22T04:09:10.000Z</time></trkpt>
      </trkseg>
  </trk>
</gpx>